<?xml version="1.0" encoding="UTF-8" standalone="no" ?>
<gpx xmlns="http://www.topografix.com/GPX/1/1" xmlns:xsi="http://www.w3.org/2001/XMLSchema-instance" xsi:schemaLocation="http://www.topografix.com/GPX/1/1 http://www.topografix.com/GPX/1/1/gpx.xsd" version="1.1" creator="VisuGPX - https://www.visugpx.com">
  <metadata>
    <name>Aubais ouest (circuit de la Tour)</name>
    <desc><![CDATA[#ombre #court #enregistré]]></desc>
  </metadata>
  <trk>
    <name><![CDATA[Trace 1780209455417]]></name>
    <trkseg>
      <trkpt lat="43.74955" lon="4.13928">
        <ele>76.4</ele>
        <time>2026-05-31T06:37:35.417Z</time>
      </trkpt>
      <trkpt lat="43.74951" lon="4.13932">
        <ele>80</ele>
        <time>2026-05-31T06:37:40.317Z</time>
      </trkpt>
      <trkpt lat="43.74949" lon="4.13933">
        <ele>78.2</ele>
        <time>2026-05-31T06:37:41.317Z</time>
      </trkpt>
      <trkpt lat="43.74947" lon="4.13934">
        <ele>77.6</ele>
        <time>2026-05-31T06:37:42.999Z</time>
      </trkpt>
      <trkpt lat="43.74945" lon="4.13935">
        <ele>78.3</ele>
        <time>2026-05-31T06:37:43.999Z</time>
      </trkpt>
      <trkpt lat="43.74944" lon="4.13935">
        <ele>79.2</ele>
        <time>2026-05-31T06:37:44.999Z</time>
      </trkpt>
      <trkpt lat="43.74943" lon="4.13936">
        <ele>79.6</ele>
        <time>2026-05-31T06:37:45.999Z</time>
      </trkpt>
      <trkpt lat="43.74942" lon="4.13937">
        <ele>80.7</ele>
        <time>2026-05-31T06:37:46.999Z</time>
      </trkpt>
      <trkpt lat="43.74941" lon="4.13938">
        <ele>80.6</ele>
        <time>2026-05-31T06:37:47.999Z</time>
      </trkpt>
      <trkpt lat="43.7494" lon="4.13939">
        <ele>80.5</ele>
        <time>2026-05-31T06:37:48.999Z</time>
      </trkpt>
      <trkpt lat="43.74939" lon="4.1394">
        <ele>80.7</ele>
        <time>2026-05-31T06:37:49.999Z</time>
      </trkpt>
      <trkpt lat="43.74938" lon="4.13941">
        <ele>81.3</ele>
        <time>2026-05-31T06:37:50.999Z</time>
      </trkpt>
      <trkpt lat="43.74937" lon="4.13942">
        <ele>81</ele>
        <time>2026-05-31T06:37:51.999Z</time>
      </trkpt>
      <trkpt lat="43.74936" lon="4.13943">
        <ele>81</ele>
        <time>2026-05-31T06:37:52.999Z</time>
      </trkpt>
      <trkpt lat="43.74936" lon="4.13944">
        <ele>80.7</ele>
        <time>2026-05-31T06:37:53.999Z</time>
      </trkpt>
      <trkpt lat="43.74935" lon="4.13944">
        <ele>80.2</ele>
        <time>2026-05-31T06:37:54.999Z</time>
      </trkpt>
      <trkpt lat="43.74935" lon="4.13945">
        <ele>80.2</ele>
        <time>2026-05-31T06:37:55.999Z</time>
      </trkpt>
      <trkpt lat="43.74934" lon="4.13946">
        <ele>80.3</ele>
        <time>2026-05-31T06:37:56.999Z</time>
      </trkpt>
      <trkpt lat="43.74934" lon="4.13947">
        <ele>80.2</ele>
        <time>2026-05-31T06:37:57.999Z</time>
      </trkpt>
      <trkpt lat="43.74933" lon="4.13947">
        <ele>79.8</ele>
        <time>2026-05-31T06:37:58.999Z</time>
      </trkpt>
      <trkpt lat="43.74932" lon="4.13948">
        <ele>79.6</ele>
        <time>2026-05-31T06:37:59.999Z</time>
      </trkpt>
      <trkpt lat="43.74931" lon="4.13949">
        <ele>79.6</ele>
        <time>2026-05-31T06:38:00.999Z</time>
      </trkpt>
      <trkpt lat="43.7493" lon="4.1395">
        <ele>79.4</ele>
        <time>2026-05-31T06:38:01.999Z</time>
      </trkpt>
      <trkpt lat="43.74929" lon="4.13952">
        <ele>79.1</ele>
        <time>2026-05-31T06:38:02.999Z</time>
      </trkpt>
      <trkpt lat="43.74928" lon="4.13953">
        <ele>78.9</ele>
        <time>2026-05-31T06:38:03.999Z</time>
      </trkpt>
      <trkpt lat="43.74927" lon="4.13954">
        <ele>78.7</ele>
        <time>2026-05-31T06:38:04.999Z</time>
      </trkpt>
      <trkpt lat="43.74926" lon="4.13954">
        <ele>78.5</ele>
        <time>2026-05-31T06:38:05.999Z</time>
      </trkpt>
      <trkpt lat="43.74925" lon="4.13955">
        <ele>78</ele>
        <time>2026-05-31T06:38:06.999Z</time>
      </trkpt>
      <trkpt lat="43.74924" lon="4.13956">
        <ele>77.9</ele>
        <time>2026-05-31T06:38:07.999Z</time>
      </trkpt>
      <trkpt lat="43.74924" lon="4.13956">
        <ele>78.1</ele>
        <time>2026-05-31T06:38:08.999Z</time>
      </trkpt>
      <trkpt lat="43.74923" lon="4.13957">
        <ele>78.6</ele>
        <time>2026-05-31T06:38:09.999Z</time>
      </trkpt>
      <trkpt lat="43.74922" lon="4.13957">
        <ele>78.5</ele>
        <time>2026-05-31T06:38:10.999Z</time>
      </trkpt>
      <trkpt lat="43.74921" lon="4.13958">
        <ele>78.8</ele>
        <time>2026-05-31T06:38:11.999Z</time>
      </trkpt>
      <trkpt lat="43.74919" lon="4.13958">
        <ele>78.8</ele>
        <time>2026-05-31T06:38:12.999Z</time>
      </trkpt>
      <trkpt lat="43.74919" lon="4.13959">
        <ele>79.3</ele>
        <time>2026-05-31T06:38:13.999Z</time>
      </trkpt>
      <trkpt lat="43.74918" lon="4.13959">
        <ele>79.1</ele>
        <time>2026-05-31T06:38:14.999Z</time>
      </trkpt>
      <trkpt lat="43.74917" lon="4.1396">
        <ele>79.2</ele>
        <time>2026-05-31T06:38:15.999Z</time>
      </trkpt>
      <trkpt lat="43.74917" lon="4.1396">
        <ele>79</ele>
        <time>2026-05-31T06:38:16.999Z</time>
      </trkpt>
      <trkpt lat="43.74916" lon="4.13961">
        <ele>79.1</ele>
        <time>2026-05-31T06:38:17.999Z</time>
      </trkpt>
      <trkpt lat="43.74915" lon="4.13961">
        <ele>78.9</ele>
        <time>2026-05-31T06:38:18.999Z</time>
      </trkpt>
      <trkpt lat="43.74914" lon="4.13961">
        <ele>78.8</ele>
        <time>2026-05-31T06:38:19.999Z</time>
      </trkpt>
      <trkpt lat="43.74913" lon="4.13962">
        <ele>79.1</ele>
        <time>2026-05-31T06:38:20.999Z</time>
      </trkpt>
      <trkpt lat="43.74911" lon="4.13963">
        <ele>79</ele>
        <time>2026-05-31T06:38:21.999Z</time>
      </trkpt>
      <trkpt lat="43.7491" lon="4.13963">
        <ele>78.5</ele>
        <time>2026-05-31T06:38:22.999Z</time>
      </trkpt>
      <trkpt lat="43.74909" lon="4.13964">
        <ele>78.9</ele>
        <time>2026-05-31T06:38:23.999Z</time>
      </trkpt>
      <trkpt lat="43.74908" lon="4.13965">
        <ele>78.9</ele>
        <time>2026-05-31T06:38:24.999Z</time>
      </trkpt>
      <trkpt lat="43.74907" lon="4.13966">
        <ele>78.8</ele>
        <time>2026-05-31T06:38:25.999Z</time>
      </trkpt>
      <trkpt lat="43.74907" lon="4.13966">
        <ele>79</ele>
        <time>2026-05-31T06:38:26.999Z</time>
      </trkpt>
      <trkpt lat="43.74906" lon="4.13966">
        <ele>78.8</ele>
        <time>2026-05-31T06:38:27.999Z</time>
      </trkpt>
      <trkpt lat="43.74905" lon="4.13967">
        <ele>78.7</ele>
        <time>2026-05-31T06:38:28.999Z</time>
      </trkpt>
      <trkpt lat="43.74904" lon="4.13968">
        <ele>79</ele>
        <time>2026-05-31T06:38:29.999Z</time>
      </trkpt>
      <trkpt lat="43.74902" lon="4.13969">
        <ele>79.2</ele>
        <time>2026-05-31T06:38:30.999Z</time>
      </trkpt>
      <trkpt lat="43.74901" lon="4.13969">
        <ele>79.2</ele>
        <time>2026-05-31T06:38:31.999Z</time>
      </trkpt>
      <trkpt lat="43.74901" lon="4.1397">
        <ele>79.3</ele>
        <time>2026-05-31T06:38:32.999Z</time>
      </trkpt>
      <trkpt lat="43.749" lon="4.1397">
        <ele>79.1</ele>
        <time>2026-05-31T06:38:33.999Z</time>
      </trkpt>
      <trkpt lat="43.74899" lon="4.13971">
        <ele>78.9</ele>
        <time>2026-05-31T06:38:34.999Z</time>
      </trkpt>
      <trkpt lat="43.74899" lon="4.13972">
        <ele>78.5</ele>
        <time>2026-05-31T06:38:35.999Z</time>
      </trkpt>
      <trkpt lat="43.74898" lon="4.13973">
        <ele>78.2</ele>
        <time>2026-05-31T06:38:36.999Z</time>
      </trkpt>
      <trkpt lat="43.74896" lon="4.13973">
        <ele>78.3</ele>
        <time>2026-05-31T06:38:37.999Z</time>
      </trkpt>
      <trkpt lat="43.74895" lon="4.13974">
        <ele>78.5</ele>
        <time>2026-05-31T06:38:38.999Z</time>
      </trkpt>
      <trkpt lat="43.74894" lon="4.13975">
        <ele>78.3</ele>
        <time>2026-05-31T06:38:39.999Z</time>
      </trkpt>
      <trkpt lat="43.74893" lon="4.13976">
        <ele>78.3</ele>
        <time>2026-05-31T06:38:40.999Z</time>
      </trkpt>
      <trkpt lat="43.74892" lon="4.13976">
        <ele>78.1</ele>
        <time>2026-05-31T06:38:41.999Z</time>
      </trkpt>
      <trkpt lat="43.74891" lon="4.13976">
        <ele>77.9</ele>
        <time>2026-05-31T06:38:42.999Z</time>
      </trkpt>
      <trkpt lat="43.7489" lon="4.13977">
        <ele>77.7</ele>
        <time>2026-05-31T06:38:43.999Z</time>
      </trkpt>
      <trkpt lat="43.74888" lon="4.13977">
        <ele>77.5</ele>
        <time>2026-05-31T06:38:44.999Z</time>
      </trkpt>
      <trkpt lat="43.74887" lon="4.13978">
        <ele>77.3</ele>
        <time>2026-05-31T06:38:45.999Z</time>
      </trkpt>
      <trkpt lat="43.74886" lon="4.13979">
        <ele>77.5</ele>
        <time>2026-05-31T06:38:46.999Z</time>
      </trkpt>
      <trkpt lat="43.74884" lon="4.13979">
        <ele>77.7</ele>
        <time>2026-05-31T06:38:47.999Z</time>
      </trkpt>
      <trkpt lat="43.74884" lon="4.1398">
        <ele>77.8</ele>
        <time>2026-05-31T06:38:48.999Z</time>
      </trkpt>
      <trkpt lat="43.74883" lon="4.13981">
        <ele>77.8</ele>
        <time>2026-05-31T06:38:49.999Z</time>
      </trkpt>
      <trkpt lat="43.74883" lon="4.13982">
        <ele>78</ele>
        <time>2026-05-31T06:38:50.999Z</time>
      </trkpt>
      <trkpt lat="43.74882" lon="4.13982">
        <ele>78.2</ele>
        <time>2026-05-31T06:38:51.999Z</time>
      </trkpt>
      <trkpt lat="43.74882" lon="4.13983">
        <ele>77.9</ele>
        <time>2026-05-31T06:38:52.999Z</time>
      </trkpt>
      <trkpt lat="43.7488" lon="4.13984">
        <ele>77.5</ele>
        <time>2026-05-31T06:38:53.999Z</time>
      </trkpt>
      <trkpt lat="43.74879" lon="4.13985">
        <ele>77.5</ele>
        <time>2026-05-31T06:38:54.999Z</time>
      </trkpt>
      <trkpt lat="43.74878" lon="4.13986">
        <ele>77.4</ele>
        <time>2026-05-31T06:38:55.999Z</time>
      </trkpt>
      <trkpt lat="43.74877" lon="4.13987">
        <ele>77.4</ele>
        <time>2026-05-31T06:38:56.999Z</time>
      </trkpt>
      <trkpt lat="43.74876" lon="4.13988">
        <ele>77.6</ele>
        <time>2026-05-31T06:38:57.999Z</time>
      </trkpt>
      <trkpt lat="43.74875" lon="4.13988">
        <ele>77.6</ele>
        <time>2026-05-31T06:38:58.999Z</time>
      </trkpt>
      <trkpt lat="43.74874" lon="4.13989">
        <ele>77.7</ele>
        <time>2026-05-31T06:38:59.999Z</time>
      </trkpt>
      <trkpt lat="43.74873" lon="4.13989">
        <ele>77.8</ele>
        <time>2026-05-31T06:39:00.999Z</time>
      </trkpt>
      <trkpt lat="43.74872" lon="4.13989">
        <ele>78.1</ele>
        <time>2026-05-31T06:39:01.999Z</time>
      </trkpt>
      <trkpt lat="43.74871" lon="4.1399">
        <ele>78.3</ele>
        <time>2026-05-31T06:39:02.999Z</time>
      </trkpt>
      <trkpt lat="43.74869" lon="4.13991">
        <ele>78.6</ele>
        <time>2026-05-31T06:39:03.999Z</time>
      </trkpt>
      <trkpt lat="43.74868" lon="4.13991">
        <ele>78.8</ele>
        <time>2026-05-31T06:39:04.999Z</time>
      </trkpt>
      <trkpt lat="43.74866" lon="4.13992">
        <ele>78.8</ele>
        <time>2026-05-31T06:39:05.999Z</time>
      </trkpt>
      <trkpt lat="43.74865" lon="4.13993">
        <ele>79</ele>
        <time>2026-05-31T06:39:06.999Z</time>
      </trkpt>
      <trkpt lat="43.74864" lon="4.13993">
        <ele>79</ele>
        <time>2026-05-31T06:39:07.999Z</time>
      </trkpt>
      <trkpt lat="43.74863" lon="4.13993">
        <ele>78.7</ele>
        <time>2026-05-31T06:39:08.999Z</time>
      </trkpt>
      <trkpt lat="43.74863" lon="4.13994">
        <ele>78.5</ele>
        <time>2026-05-31T06:39:09.999Z</time>
      </trkpt>
      <trkpt lat="43.74862" lon="4.13994">
        <ele>78.6</ele>
        <time>2026-05-31T06:39:10.999Z</time>
      </trkpt>
      <trkpt lat="43.74861" lon="4.13994">
        <ele>78.7</ele>
        <time>2026-05-31T06:39:11.999Z</time>
      </trkpt>
      <trkpt lat="43.7486" lon="4.13994">
        <ele>78.6</ele>
        <time>2026-05-31T06:39:12.999Z</time>
      </trkpt>
      <trkpt lat="43.74859" lon="4.13994">
        <ele>78.7</ele>
        <time>2026-05-31T06:39:13.999Z</time>
      </trkpt>
      <trkpt lat="43.74857" lon="4.13995">
        <ele>78.9</ele>
        <time>2026-05-31T06:39:14.999Z</time>
      </trkpt>
      <trkpt lat="43.74856" lon="4.13995">
        <ele>79</ele>
        <time>2026-05-31T06:39:15.999Z</time>
      </trkpt>
      <trkpt lat="43.74855" lon="4.13996">
        <ele>79</ele>
        <time>2026-05-31T06:39:16.999Z</time>
      </trkpt>
      <trkpt lat="43.74854" lon="4.13996">
        <ele>79.4</ele>
        <time>2026-05-31T06:39:17.999Z</time>
      </trkpt>
      <trkpt lat="43.74853" lon="4.13996">
        <ele>79.7</ele>
        <time>2026-05-31T06:39:18.999Z</time>
      </trkpt>
      <trkpt lat="43.74852" lon="4.13997">
        <ele>79.8</ele>
        <time>2026-05-31T06:39:19.999Z</time>
      </trkpt>
      <trkpt lat="43.74851" lon="4.13997">
        <ele>79.4</ele>
        <time>2026-05-31T06:39:20.999Z</time>
      </trkpt>
      <trkpt lat="43.7485" lon="4.13998">
        <ele>79.2</ele>
        <time>2026-05-31T06:39:21.999Z</time>
      </trkpt>
      <trkpt lat="43.74849" lon="4.13999">
        <ele>79.4</ele>
        <time>2026-05-31T06:39:22.999Z</time>
      </trkpt>
      <trkpt lat="43.74847" lon="4.13999">
        <ele>79.5</ele>
        <time>2026-05-31T06:39:23.999Z</time>
      </trkpt>
      <trkpt lat="43.74847" lon="4.14">
        <ele>79.5</ele>
        <time>2026-05-31T06:39:24.999Z</time>
      </trkpt>
      <trkpt lat="43.74846" lon="4.14001">
        <ele>80</ele>
        <time>2026-05-31T06:39:25.999Z</time>
      </trkpt>
      <trkpt lat="43.74845" lon="4.14001">
        <ele>80.3</ele>
        <time>2026-05-31T06:39:26.999Z</time>
      </trkpt>
      <trkpt lat="43.74844" lon="4.14002">
        <ele>80.4</ele>
        <time>2026-05-31T06:39:27.999Z</time>
      </trkpt>
      <trkpt lat="43.74844" lon="4.14002">
        <ele>80.4</ele>
        <time>2026-05-31T06:39:28.999Z</time>
      </trkpt>
      <trkpt lat="43.74842" lon="4.14003">
        <ele>80.4</ele>
        <time>2026-05-31T06:39:29.999Z</time>
      </trkpt>
      <trkpt lat="43.74841" lon="4.14003">
        <ele>80.4</ele>
        <time>2026-05-31T06:39:30.999Z</time>
      </trkpt>
      <trkpt lat="43.7484" lon="4.14003">
        <ele>80</ele>
        <time>2026-05-31T06:39:31.999Z</time>
      </trkpt>
      <trkpt lat="43.74839" lon="4.14004">
        <ele>79.6</ele>
        <time>2026-05-31T06:39:32.999Z</time>
      </trkpt>
      <trkpt lat="43.74839" lon="4.14005">
        <ele>79.5</ele>
        <time>2026-05-31T06:39:33.999Z</time>
      </trkpt>
      <trkpt lat="43.74838" lon="4.14005">
        <ele>79.3</ele>
        <time>2026-05-31T06:39:34.999Z</time>
      </trkpt>
      <trkpt lat="43.74837" lon="4.14006">
        <ele>79.2</ele>
        <time>2026-05-31T06:39:35.999Z</time>
      </trkpt>
      <trkpt lat="43.74836" lon="4.14007">
        <ele>78.9</ele>
        <time>2026-05-31T06:39:36.999Z</time>
      </trkpt>
      <trkpt lat="43.74835" lon="4.14007">
        <ele>79.3</ele>
        <time>2026-05-31T06:39:37.999Z</time>
      </trkpt>
      <trkpt lat="43.74833" lon="4.14008">
        <ele>79.2</ele>
        <time>2026-05-31T06:39:38.999Z</time>
      </trkpt>
      <trkpt lat="43.74832" lon="4.14008">
        <ele>78.9</ele>
        <time>2026-05-31T06:39:39.999Z</time>
      </trkpt>
      <trkpt lat="43.74831" lon="4.14009">
        <ele>78.9</ele>
        <time>2026-05-31T06:39:40.999Z</time>
      </trkpt>
      <trkpt lat="43.7483" lon="4.14009">
        <ele>79.1</ele>
        <time>2026-05-31T06:39:41.999Z</time>
      </trkpt>
      <trkpt lat="43.74829" lon="4.14009">
        <ele>79.3</ele>
        <time>2026-05-31T06:39:42.999Z</time>
      </trkpt>
      <trkpt lat="43.74828" lon="4.14008">
        <ele>79.2</ele>
        <time>2026-05-31T06:39:43.999Z</time>
      </trkpt>
      <trkpt lat="43.74827" lon="4.14009">
        <ele>79.1</ele>
        <time>2026-05-31T06:39:44.999Z</time>
      </trkpt>
      <trkpt lat="43.74826" lon="4.14009">
        <ele>79.1</ele>
        <time>2026-05-31T06:39:45.999Z</time>
      </trkpt>
      <trkpt lat="43.74825" lon="4.1401">
        <ele>79.1</ele>
        <time>2026-05-31T06:39:46.999Z</time>
      </trkpt>
      <trkpt lat="43.74823" lon="4.1401">
        <ele>79.1</ele>
        <time>2026-05-31T06:39:47.999Z</time>
      </trkpt>
      <trkpt lat="43.74822" lon="4.14011">
        <ele>79.1</ele>
        <time>2026-05-31T06:39:48.999Z</time>
      </trkpt>
      <trkpt lat="43.74821" lon="4.14012">
        <ele>79.2</ele>
        <time>2026-05-31T06:39:49.999Z</time>
      </trkpt>
      <trkpt lat="43.7482" lon="4.14012">
        <ele>79.4</ele>
        <time>2026-05-31T06:39:50.999Z</time>
      </trkpt>
      <trkpt lat="43.74819" lon="4.14012">
        <ele>79.5</ele>
        <time>2026-05-31T06:39:51.999Z</time>
      </trkpt>
      <trkpt lat="43.74818" lon="4.14012">
        <ele>79.7</ele>
        <time>2026-05-31T06:39:52.999Z</time>
      </trkpt>
      <trkpt lat="43.74817" lon="4.14012">
        <ele>79.6</ele>
        <time>2026-05-31T06:39:53.999Z</time>
      </trkpt>
      <trkpt lat="43.74816" lon="4.14011">
        <ele>79.5</ele>
        <time>2026-05-31T06:39:54.999Z</time>
      </trkpt>
      <trkpt lat="43.74814" lon="4.14012">
        <ele>79.3</ele>
        <time>2026-05-31T06:39:55.999Z</time>
      </trkpt>
      <trkpt lat="43.74813" lon="4.14013">
        <ele>79.4</ele>
        <time>2026-05-31T06:39:56.999Z</time>
      </trkpt>
      <trkpt lat="43.74811" lon="4.14014">
        <ele>79.5</ele>
        <time>2026-05-31T06:39:57.999Z</time>
      </trkpt>
      <trkpt lat="43.74811" lon="4.14016">
        <ele>79.6</ele>
        <time>2026-05-31T06:39:58.999Z</time>
      </trkpt>
      <trkpt lat="43.7481" lon="4.14016">
        <ele>79.8</ele>
        <time>2026-05-31T06:39:59.999Z</time>
      </trkpt>
      <trkpt lat="43.74809" lon="4.14018">
        <ele>80</ele>
        <time>2026-05-31T06:40:00.999Z</time>
      </trkpt>
      <trkpt lat="43.74809" lon="4.14019">
        <ele>80</ele>
        <time>2026-05-31T06:40:01.999Z</time>
      </trkpt>
      <trkpt lat="43.74809" lon="4.14021">
        <ele>79.6</ele>
        <time>2026-05-31T06:40:02.999Z</time>
      </trkpt>
      <trkpt lat="43.7481" lon="4.14023">
        <ele>79.3</ele>
        <time>2026-05-31T06:40:03.999Z</time>
      </trkpt>
      <trkpt lat="43.7481" lon="4.14026">
        <ele>78.9</ele>
        <time>2026-05-31T06:40:04.999Z</time>
      </trkpt>
      <trkpt lat="43.7481" lon="4.14027">
        <ele>78.9</ele>
        <time>2026-05-31T06:40:05.999Z</time>
      </trkpt>
      <trkpt lat="43.74811" lon="4.14029">
        <ele>78.9</ele>
        <time>2026-05-31T06:40:06.999Z</time>
      </trkpt>
      <trkpt lat="43.74812" lon="4.1403">
        <ele>78.7</ele>
        <time>2026-05-31T06:40:07.999Z</time>
      </trkpt>
      <trkpt lat="43.74813" lon="4.14031">
        <ele>78.6</ele>
        <time>2026-05-31T06:40:08.999Z</time>
      </trkpt>
      <trkpt lat="43.74814" lon="4.14032">
        <ele>78.2</ele>
        <time>2026-05-31T06:40:09.999Z</time>
      </trkpt>
      <trkpt lat="43.74815" lon="4.14033">
        <ele>78.3</ele>
        <time>2026-05-31T06:40:10.999Z</time>
      </trkpt>
      <trkpt lat="43.74816" lon="4.14035">
        <ele>78.4</ele>
        <time>2026-05-31T06:40:11.999Z</time>
      </trkpt>
      <trkpt lat="43.74817" lon="4.14035">
        <ele>78.5</ele>
        <time>2026-05-31T06:40:12.999Z</time>
      </trkpt>
      <trkpt lat="43.74818" lon="4.14036">
        <ele>78.6</ele>
        <time>2026-05-31T06:40:13.999Z</time>
      </trkpt>
      <trkpt lat="43.74819" lon="4.14036">
        <ele>78.4</ele>
        <time>2026-05-31T06:40:14.999Z</time>
      </trkpt>
      <trkpt lat="43.7482" lon="4.14036">
        <ele>78.3</ele>
        <time>2026-05-31T06:40:15.999Z</time>
      </trkpt>
      <trkpt lat="43.74821" lon="4.14037">
        <ele>78.2</ele>
        <time>2026-05-31T06:40:16.999Z</time>
      </trkpt>
      <trkpt lat="43.74822" lon="4.14039">
        <ele>78.3</ele>
        <time>2026-05-31T06:40:17.999Z</time>
      </trkpt>
      <trkpt lat="43.74822" lon="4.1404">
        <ele>78.7</ele>
        <time>2026-05-31T06:40:18.999Z</time>
      </trkpt>
      <trkpt lat="43.74823" lon="4.14041">
        <ele>78.9</ele>
        <time>2026-05-31T06:40:19.999Z</time>
      </trkpt>
      <trkpt lat="43.74824" lon="4.14042">
        <ele>79</ele>
        <time>2026-05-31T06:40:20.999Z</time>
      </trkpt>
      <trkpt lat="43.74824" lon="4.14043">
        <ele>79.1</ele>
        <time>2026-05-31T06:40:21.999Z</time>
      </trkpt>
      <trkpt lat="43.74824" lon="4.14044">
        <ele>78.9</ele>
        <time>2026-05-31T06:40:22.999Z</time>
      </trkpt>
      <trkpt lat="43.74825" lon="4.14046">
        <ele>78.9</ele>
        <time>2026-05-31T06:40:23.999Z</time>
      </trkpt>
      <trkpt lat="43.74826" lon="4.14047">
        <ele>79</ele>
        <time>2026-05-31T06:40:24.999Z</time>
      </trkpt>
      <trkpt lat="43.74826" lon="4.14048">
        <ele>79.1</ele>
        <time>2026-05-31T06:40:25.999Z</time>
      </trkpt>
      <trkpt lat="43.74827" lon="4.14049">
        <ele>79</ele>
        <time>2026-05-31T06:40:26.999Z</time>
      </trkpt>
      <trkpt lat="43.74827" lon="4.14051">
        <ele>79.1</ele>
        <time>2026-05-31T06:40:27.999Z</time>
      </trkpt>
      <trkpt lat="43.74827" lon="4.14052">
        <ele>79</ele>
        <time>2026-05-31T06:40:28.999Z</time>
      </trkpt>
      <trkpt lat="43.74828" lon="4.14053">
        <ele>79</ele>
        <time>2026-05-31T06:40:29.999Z</time>
      </trkpt>
      <trkpt lat="43.74829" lon="4.14054">
        <ele>78.9</ele>
        <time>2026-05-31T06:40:30.999Z</time>
      </trkpt>
      <trkpt lat="43.7483" lon="4.14055">
        <ele>78.8</ele>
        <time>2026-05-31T06:40:31.999Z</time>
      </trkpt>
      <trkpt lat="43.7483" lon="4.14057">
        <ele>79.1</ele>
        <time>2026-05-31T06:40:32.999Z</time>
      </trkpt>
      <trkpt lat="43.74831" lon="4.14058">
        <ele>79.2</ele>
        <time>2026-05-31T06:40:33.999Z</time>
      </trkpt>
      <trkpt lat="43.74831" lon="4.14059">
        <ele>79</ele>
        <time>2026-05-31T06:40:34.999Z</time>
      </trkpt>
      <trkpt lat="43.7483" lon="4.14061">
        <ele>79</ele>
        <time>2026-05-31T06:40:35.999Z</time>
      </trkpt>
      <trkpt lat="43.74831" lon="4.14062">
        <ele>78.6</ele>
        <time>2026-05-31T06:40:36.999Z</time>
      </trkpt>
      <trkpt lat="43.74831" lon="4.14063">
        <ele>78.5</ele>
        <time>2026-05-31T06:40:37.999Z</time>
      </trkpt>
      <trkpt lat="43.74832" lon="4.14065">
        <ele>78.5</ele>
        <time>2026-05-31T06:40:38.999Z</time>
      </trkpt>
      <trkpt lat="43.74833" lon="4.14066">
        <ele>78.7</ele>
        <time>2026-05-31T06:40:39.999Z</time>
      </trkpt>
      <trkpt lat="43.74834" lon="4.14068">
        <ele>78.8</ele>
        <time>2026-05-31T06:40:40.999Z</time>
      </trkpt>
      <trkpt lat="43.74834" lon="4.1407">
        <ele>78.8</ele>
        <time>2026-05-31T06:40:41.999Z</time>
      </trkpt>
      <trkpt lat="43.74835" lon="4.14071">
        <ele>78.9</ele>
        <time>2026-05-31T06:40:42.999Z</time>
      </trkpt>
      <trkpt lat="43.74835" lon="4.14072">
        <ele>79</ele>
        <time>2026-05-31T06:40:43.999Z</time>
      </trkpt>
      <trkpt lat="43.74836" lon="4.14073">
        <ele>79.2</ele>
        <time>2026-05-31T06:40:44.999Z</time>
      </trkpt>
      <trkpt lat="43.74837" lon="4.14075">
        <ele>79.4</ele>
        <time>2026-05-31T06:40:45.999Z</time>
      </trkpt>
      <trkpt lat="43.74838" lon="4.14076">
        <ele>79.3</ele>
        <time>2026-05-31T06:40:46.999Z</time>
      </trkpt>
      <trkpt lat="43.74838" lon="4.14077">
        <ele>79.5</ele>
        <time>2026-05-31T06:40:47.999Z</time>
      </trkpt>
      <trkpt lat="43.74839" lon="4.14078">
        <ele>79.7</ele>
        <time>2026-05-31T06:40:48.999Z</time>
      </trkpt>
      <trkpt lat="43.74839" lon="4.14079">
        <ele>79.9</ele>
        <time>2026-05-31T06:40:49.999Z</time>
      </trkpt>
      <trkpt lat="43.7484" lon="4.14081">
        <ele>79.8</ele>
        <time>2026-05-31T06:40:50.999Z</time>
      </trkpt>
      <trkpt lat="43.7484" lon="4.14082">
        <ele>79.7</ele>
        <time>2026-05-31T06:40:51.999Z</time>
      </trkpt>
      <trkpt lat="43.7484" lon="4.14084">
        <ele>79.8</ele>
        <time>2026-05-31T06:40:52.999Z</time>
      </trkpt>
      <trkpt lat="43.74841" lon="4.14086">
        <ele>79.9</ele>
        <time>2026-05-31T06:40:53.999Z</time>
      </trkpt>
      <trkpt lat="43.74842" lon="4.14087">
        <ele>80.1</ele>
        <time>2026-05-31T06:40:54.999Z</time>
      </trkpt>
      <trkpt lat="43.74842" lon="4.14089">
        <ele>80.2</ele>
        <time>2026-05-31T06:40:55.999Z</time>
      </trkpt>
      <trkpt lat="43.74843" lon="4.1409">
        <ele>80.2</ele>
        <time>2026-05-31T06:40:56.999Z</time>
      </trkpt>
      <trkpt lat="43.74843" lon="4.14091">
        <ele>80.3</ele>
        <time>2026-05-31T06:40:57.999Z</time>
      </trkpt>
      <trkpt lat="43.74843" lon="4.14092">
        <ele>80.4</ele>
        <time>2026-05-31T06:40:58.999Z</time>
      </trkpt>
      <trkpt lat="43.74844" lon="4.14093">
        <ele>80.4</ele>
        <time>2026-05-31T06:40:59.999Z</time>
      </trkpt>
      <trkpt lat="43.74845" lon="4.14094">
        <ele>80.3</ele>
        <time>2026-05-31T06:41:00.999Z</time>
      </trkpt>
      <trkpt lat="43.74846" lon="4.14096">
        <ele>80.5</ele>
        <time>2026-05-31T06:41:01.999Z</time>
      </trkpt>
      <trkpt lat="43.74847" lon="4.14097">
        <ele>80.6</ele>
        <time>2026-05-31T06:41:02.999Z</time>
      </trkpt>
      <trkpt lat="43.74847" lon="4.14098">
        <ele>80.7</ele>
        <time>2026-05-31T06:41:03.999Z</time>
      </trkpt>
      <trkpt lat="43.74848" lon="4.14099">
        <ele>80.5</ele>
        <time>2026-05-31T06:41:04.999Z</time>
      </trkpt>
      <trkpt lat="43.74848" lon="4.141">
        <ele>80.6</ele>
        <time>2026-05-31T06:41:05.999Z</time>
      </trkpt>
      <trkpt lat="43.74849" lon="4.14102">
        <ele>80.7</ele>
        <time>2026-05-31T06:41:06.999Z</time>
      </trkpt>
      <trkpt lat="43.7485" lon="4.14103">
        <ele>80.6</ele>
        <time>2026-05-31T06:41:07.999Z</time>
      </trkpt>
      <trkpt lat="43.74851" lon="4.14104">
        <ele>80.6</ele>
        <time>2026-05-31T06:41:08.999Z</time>
      </trkpt>
      <trkpt lat="43.74851" lon="4.14106">
        <ele>80.8</ele>
        <time>2026-05-31T06:41:09.999Z</time>
      </trkpt>
      <trkpt lat="43.74852" lon="4.14106">
        <ele>80.8</ele>
        <time>2026-05-31T06:41:10.999Z</time>
      </trkpt>
      <trkpt lat="43.74852" lon="4.14107">
        <ele>80.8</ele>
        <time>2026-05-31T06:41:11.999Z</time>
      </trkpt>
      <trkpt lat="43.74852" lon="4.14108">
        <ele>80.7</ele>
        <time>2026-05-31T06:41:12.999Z</time>
      </trkpt>
      <trkpt lat="43.74853" lon="4.1411">
        <ele>80.4</ele>
        <time>2026-05-31T06:41:13.999Z</time>
      </trkpt>
      <trkpt lat="43.74854" lon="4.14111">
        <ele>80.1</ele>
        <time>2026-05-31T06:41:14.999Z</time>
      </trkpt>
      <trkpt lat="43.74855" lon="4.14113">
        <ele>79.9</ele>
        <time>2026-05-31T06:41:15.999Z</time>
      </trkpt>
      <trkpt lat="43.74856" lon="4.14114">
        <ele>80</ele>
        <time>2026-05-31T06:41:16.999Z</time>
      </trkpt>
      <trkpt lat="43.74857" lon="4.14115">
        <ele>80.6</ele>
        <time>2026-05-31T06:41:17.999Z</time>
      </trkpt>
      <trkpt lat="43.74858" lon="4.14116">
        <ele>80.7</ele>
        <time>2026-05-31T06:41:18.999Z</time>
      </trkpt>
      <trkpt lat="43.74859" lon="4.14116">
        <ele>80.7</ele>
        <time>2026-05-31T06:41:19.999Z</time>
      </trkpt>
      <trkpt lat="43.74861" lon="4.14117">
        <ele>80.6</ele>
        <time>2026-05-31T06:41:20.999Z</time>
      </trkpt>
      <trkpt lat="43.74863" lon="4.14118">
        <ele>80.8</ele>
        <time>2026-05-31T06:41:21.999Z</time>
      </trkpt>
      <trkpt lat="43.74864" lon="4.14117">
        <ele>81</ele>
        <time>2026-05-31T06:41:22.999Z</time>
      </trkpt>
      <trkpt lat="43.74866" lon="4.14116">
        <ele>81</ele>
        <time>2026-05-31T06:41:23.999Z</time>
      </trkpt>
      <trkpt lat="43.74868" lon="4.14116">
        <ele>81.2</ele>
        <time>2026-05-31T06:41:24.999Z</time>
      </trkpt>
      <trkpt lat="43.74869" lon="4.14115">
        <ele>81.2</ele>
        <time>2026-05-31T06:41:25.999Z</time>
      </trkpt>
      <trkpt lat="43.7487" lon="4.14115">
        <ele>81</ele>
        <time>2026-05-31T06:41:26.999Z</time>
      </trkpt>
      <trkpt lat="43.74871" lon="4.14114">
        <ele>80.9</ele>
        <time>2026-05-31T06:41:27.999Z</time>
      </trkpt>
      <trkpt lat="43.74871" lon="4.14113">
        <ele>81</ele>
        <time>2026-05-31T06:41:28.999Z</time>
      </trkpt>
      <trkpt lat="43.74872" lon="4.14113">
        <ele>81.1</ele>
        <time>2026-05-31T06:41:29.999Z</time>
      </trkpt>
      <trkpt lat="43.74873" lon="4.14112">
        <ele>81</ele>
        <time>2026-05-31T06:41:30.999Z</time>
      </trkpt>
      <trkpt lat="43.74873" lon="4.14111">
        <ele>80.8</ele>
        <time>2026-05-31T06:41:31.999Z</time>
      </trkpt>
      <trkpt lat="43.74874" lon="4.1411">
        <ele>80.9</ele>
        <time>2026-05-31T06:41:32.999Z</time>
      </trkpt>
      <trkpt lat="43.74875" lon="4.14109">
        <ele>80.6</ele>
        <time>2026-05-31T06:41:33.999Z</time>
      </trkpt>
      <trkpt lat="43.74876" lon="4.14108">
        <ele>80.6</ele>
        <time>2026-05-31T06:41:34.999Z</time>
      </trkpt>
      <trkpt lat="43.74876" lon="4.14108">
        <ele>80.4</ele>
        <time>2026-05-31T06:41:35.999Z</time>
      </trkpt>
      <trkpt lat="43.74877" lon="4.14107">
        <ele>80.4</ele>
        <time>2026-05-31T06:41:36.999Z</time>
      </trkpt>
      <trkpt lat="43.74878" lon="4.14105">
        <ele>80.3</ele>
        <time>2026-05-31T06:41:37.999Z</time>
      </trkpt>
      <trkpt lat="43.74879" lon="4.14104">
        <ele>80.2</ele>
        <time>2026-05-31T06:41:38.999Z</time>
      </trkpt>
      <trkpt lat="43.7488" lon="4.14103">
        <ele>80.2</ele>
        <time>2026-05-31T06:41:39.999Z</time>
      </trkpt>
      <trkpt lat="43.74881" lon="4.14103">
        <ele>80.4</ele>
        <time>2026-05-31T06:41:40.999Z</time>
      </trkpt>
      <trkpt lat="43.74882" lon="4.14103">
        <ele>80.6</ele>
        <time>2026-05-31T06:41:41.999Z</time>
      </trkpt>
      <trkpt lat="43.74882" lon="4.14103">
        <ele>80.5</ele>
        <time>2026-05-31T06:41:42.999Z</time>
      </trkpt>
      <trkpt lat="43.74883" lon="4.14103">
        <ele>80.7</ele>
        <time>2026-05-31T06:41:43.999Z</time>
      </trkpt>
      <trkpt lat="43.74885" lon="4.14104">
        <ele>80.8</ele>
        <time>2026-05-31T06:41:44.999Z</time>
      </trkpt>
      <trkpt lat="43.74886" lon="4.14105">
        <ele>81</ele>
        <time>2026-05-31T06:41:45.999Z</time>
      </trkpt>
      <trkpt lat="43.74888" lon="4.14106">
        <ele>81.1</ele>
        <time>2026-05-31T06:41:46.999Z</time>
      </trkpt>
      <trkpt lat="43.74889" lon="4.14106">
        <ele>81.1</ele>
        <time>2026-05-31T06:41:47.999Z</time>
      </trkpt>
      <trkpt lat="43.7489" lon="4.14107">
        <ele>81.1</ele>
        <time>2026-05-31T06:41:48.999Z</time>
      </trkpt>
      <trkpt lat="43.74891" lon="4.14107">
        <ele>81.2</ele>
        <time>2026-05-31T06:41:49.999Z</time>
      </trkpt>
      <trkpt lat="43.74891" lon="4.14108">
        <ele>81.1</ele>
        <time>2026-05-31T06:41:50.999Z</time>
      </trkpt>
      <trkpt lat="43.74892" lon="4.14109">
        <ele>81</ele>
        <time>2026-05-31T06:41:51.999Z</time>
      </trkpt>
      <trkpt lat="43.74893" lon="4.1411">
        <ele>80.6</ele>
        <time>2026-05-31T06:41:52.999Z</time>
      </trkpt>
      <trkpt lat="43.74894" lon="4.14111">
        <ele>80.5</ele>
        <time>2026-05-31T06:41:53.999Z</time>
      </trkpt>
      <trkpt lat="43.74895" lon="4.14113">
        <ele>80.4</ele>
        <time>2026-05-31T06:41:54.999Z</time>
      </trkpt>
      <trkpt lat="43.74896" lon="4.14115">
        <ele>80.6</ele>
        <time>2026-05-31T06:41:55.999Z</time>
      </trkpt>
      <trkpt lat="43.74896" lon="4.14116">
        <ele>80.6</ele>
        <time>2026-05-31T06:41:56.999Z</time>
      </trkpt>
      <trkpt lat="43.74897" lon="4.14117">
        <ele>80.7</ele>
        <time>2026-05-31T06:41:57.999Z</time>
      </trkpt>
      <trkpt lat="43.74897" lon="4.14118">
        <ele>80.6</ele>
        <time>2026-05-31T06:41:58.999Z</time>
      </trkpt>
      <trkpt lat="43.74898" lon="4.14118">
        <ele>80.5</ele>
        <time>2026-05-31T06:41:59.999Z</time>
      </trkpt>
      <trkpt lat="43.74899" lon="4.14119">
        <ele>80.5</ele>
        <time>2026-05-31T06:42:00.999Z</time>
      </trkpt>
      <trkpt lat="43.749" lon="4.1412">
        <ele>80.8</ele>
        <time>2026-05-31T06:42:01.999Z</time>
      </trkpt>
      <trkpt lat="43.74901" lon="4.14121">
        <ele>80.8</ele>
        <time>2026-05-31T06:42:02.999Z</time>
      </trkpt>
      <trkpt lat="43.74903" lon="4.14121">
        <ele>81</ele>
        <time>2026-05-31T06:42:03.999Z</time>
      </trkpt>
      <trkpt lat="43.74903" lon="4.14122">
        <ele>81.2</ele>
        <time>2026-05-31T06:42:04.999Z</time>
      </trkpt>
      <trkpt lat="43.74904" lon="4.14122">
        <ele>81.2</ele>
        <time>2026-05-31T06:42:05.999Z</time>
      </trkpt>
      <trkpt lat="43.74904" lon="4.14123">
        <ele>81.2</ele>
        <time>2026-05-31T06:42:06.999Z</time>
      </trkpt>
      <trkpt lat="43.74905" lon="4.14123">
        <ele>81.2</ele>
        <time>2026-05-31T06:42:07.999Z</time>
      </trkpt>
      <trkpt lat="43.74906" lon="4.14124">
        <ele>81.5</ele>
        <time>2026-05-31T06:42:08.999Z</time>
      </trkpt>
      <trkpt lat="43.74908" lon="4.14125">
        <ele>81.4</ele>
        <time>2026-05-31T06:42:09.999Z</time>
      </trkpt>
      <trkpt lat="43.74909" lon="4.14126">
        <ele>81.1</ele>
        <time>2026-05-31T06:42:10.999Z</time>
      </trkpt>
      <trkpt lat="43.7491" lon="4.14126">
        <ele>81.2</ele>
        <time>2026-05-31T06:42:11.999Z</time>
      </trkpt>
      <trkpt lat="43.74911" lon="4.14126">
        <ele>81.3</ele>
        <time>2026-05-31T06:42:12.999Z</time>
      </trkpt>
      <trkpt lat="43.74912" lon="4.14127">
        <ele>81.4</ele>
        <time>2026-05-31T06:42:13.999Z</time>
      </trkpt>
      <trkpt lat="43.74913" lon="4.14127">
        <ele>81.4</ele>
        <time>2026-05-31T06:42:14.999Z</time>
      </trkpt>
      <trkpt lat="43.74915" lon="4.14127">
        <ele>81.7</ele>
        <time>2026-05-31T06:42:15.999Z</time>
      </trkpt>
      <trkpt lat="43.74916" lon="4.14128">
        <ele>81.8</ele>
        <time>2026-05-31T06:42:16.999Z</time>
      </trkpt>
      <trkpt lat="43.74917" lon="4.14129">
        <ele>81.8</ele>
        <time>2026-05-31T06:42:17.999Z</time>
      </trkpt>
      <trkpt lat="43.74918" lon="4.1413">
        <ele>82</ele>
        <time>2026-05-31T06:42:18.999Z</time>
      </trkpt>
      <trkpt lat="43.74919" lon="4.14131">
        <ele>82.2</ele>
        <time>2026-05-31T06:42:19.999Z</time>
      </trkpt>
      <trkpt lat="43.7492" lon="4.14131">
        <ele>82</ele>
        <time>2026-05-31T06:42:20.999Z</time>
      </trkpt>
      <trkpt lat="43.74921" lon="4.14131">
        <ele>81.7</ele>
        <time>2026-05-31T06:42:21.999Z</time>
      </trkpt>
      <trkpt lat="43.74922" lon="4.14131">
        <ele>81.5</ele>
        <time>2026-05-31T06:42:22.999Z</time>
      </trkpt>
      <trkpt lat="43.74923" lon="4.14132">
        <ele>81.2</ele>
        <time>2026-05-31T06:42:23.999Z</time>
      </trkpt>
      <trkpt lat="43.74924" lon="4.14133">
        <ele>81.3</ele>
        <time>2026-05-31T06:42:24.999Z</time>
      </trkpt>
      <trkpt lat="43.74925" lon="4.14133">
        <ele>81.5</ele>
        <time>2026-05-31T06:42:25.999Z</time>
      </trkpt>
      <trkpt lat="43.74926" lon="4.14134">
        <ele>81.6</ele>
        <time>2026-05-31T06:42:26.999Z</time>
      </trkpt>
      <trkpt lat="43.74927" lon="4.14134">
        <ele>81.7</ele>
        <time>2026-05-31T06:42:27.999Z</time>
      </trkpt>
      <trkpt lat="43.74928" lon="4.14135">
        <ele>81.6</ele>
        <time>2026-05-31T06:42:28.999Z</time>
      </trkpt>
      <trkpt lat="43.74929" lon="4.14135">
        <ele>81.7</ele>
        <time>2026-05-31T06:42:29.999Z</time>
      </trkpt>
      <trkpt lat="43.74931" lon="4.14135">
        <ele>81.8</ele>
        <time>2026-05-31T06:42:30.999Z</time>
      </trkpt>
      <trkpt lat="43.74932" lon="4.14135">
        <ele>81.8</ele>
        <time>2026-05-31T06:42:31.999Z</time>
      </trkpt>
      <trkpt lat="43.74933" lon="4.14135">
        <ele>81.7</ele>
        <time>2026-05-31T06:42:32.999Z</time>
      </trkpt>
      <trkpt lat="43.74934" lon="4.14135">
        <ele>81.8</ele>
        <time>2026-05-31T06:42:33.999Z</time>
      </trkpt>
      <trkpt lat="43.74935" lon="4.14135">
        <ele>82.2</ele>
        <time>2026-05-31T06:42:34.999Z</time>
      </trkpt>
      <trkpt lat="43.74936" lon="4.14135">
        <ele>82.3</ele>
        <time>2026-05-31T06:42:35.999Z</time>
      </trkpt>
      <trkpt lat="43.74937" lon="4.14135">
        <ele>82.5</ele>
        <time>2026-05-31T06:42:36.999Z</time>
      </trkpt>
      <trkpt lat="43.74938" lon="4.14135">
        <ele>82.4</ele>
        <time>2026-05-31T06:42:37.999Z</time>
      </trkpt>
      <trkpt lat="43.74939" lon="4.14135">
        <ele>82.6</ele>
        <time>2026-05-31T06:42:38.999Z</time>
      </trkpt>
      <trkpt lat="43.7494" lon="4.14135">
        <ele>82.8</ele>
        <time>2026-05-31T06:42:39.999Z</time>
      </trkpt>
      <trkpt lat="43.74941" lon="4.14136">
        <ele>82.7</ele>
        <time>2026-05-31T06:42:40.999Z</time>
      </trkpt>
      <trkpt lat="43.74942" lon="4.14136">
        <ele>82.8</ele>
        <time>2026-05-31T06:42:41.999Z</time>
      </trkpt>
      <trkpt lat="43.74943" lon="4.14136">
        <ele>83.2</ele>
        <time>2026-05-31T06:42:42.999Z</time>
      </trkpt>
      <trkpt lat="43.74944" lon="4.14136">
        <ele>83.2</ele>
        <time>2026-05-31T06:42:43.999Z</time>
      </trkpt>
      <trkpt lat="43.74945" lon="4.14137">
        <ele>83.4</ele>
        <time>2026-05-31T06:42:44.999Z</time>
      </trkpt>
      <trkpt lat="43.74946" lon="4.14137">
        <ele>82.9</ele>
        <time>2026-05-31T06:42:45.999Z</time>
      </trkpt>
      <trkpt lat="43.74947" lon="4.14137">
        <ele>82.9</ele>
        <time>2026-05-31T06:42:46.999Z</time>
      </trkpt>
      <trkpt lat="43.74947" lon="4.14137">
        <ele>82.9</ele>
        <time>2026-05-31T06:42:47.999Z</time>
      </trkpt>
      <trkpt lat="43.74948" lon="4.14137">
        <ele>83.1</ele>
        <time>2026-05-31T06:42:48.999Z</time>
      </trkpt>
      <trkpt lat="43.74949" lon="4.14138">
        <ele>83</ele>
        <time>2026-05-31T06:42:49.999Z</time>
      </trkpt>
      <trkpt lat="43.7495" lon="4.14139">
        <ele>83.1</ele>
        <time>2026-05-31T06:42:50.999Z</time>
      </trkpt>
      <trkpt lat="43.74952" lon="4.14139">
        <ele>83.1</ele>
        <time>2026-05-31T06:42:51.999Z</time>
      </trkpt>
      <trkpt lat="43.74953" lon="4.14139">
        <ele>83.1</ele>
        <time>2026-05-31T06:42:52.999Z</time>
      </trkpt>
      <trkpt lat="43.74954" lon="4.14139">
        <ele>83</ele>
        <time>2026-05-31T06:42:53.999Z</time>
      </trkpt>
      <trkpt lat="43.74955" lon="4.1414">
        <ele>82.9</ele>
        <time>2026-05-31T06:42:54.999Z</time>
      </trkpt>
      <trkpt lat="43.74956" lon="4.1414">
        <ele>82.8</ele>
        <time>2026-05-31T06:42:55.999Z</time>
      </trkpt>
      <trkpt lat="43.74957" lon="4.1414">
        <ele>82.7</ele>
        <time>2026-05-31T06:42:56.999Z</time>
      </trkpt>
      <trkpt lat="43.74958" lon="4.1414">
        <ele>82.9</ele>
        <time>2026-05-31T06:42:57.999Z</time>
      </trkpt>
      <trkpt lat="43.74959" lon="4.14139">
        <ele>83.1</ele>
        <time>2026-05-31T06:42:58.999Z</time>
      </trkpt>
      <trkpt lat="43.7496" lon="4.14139">
        <ele>83.2</ele>
        <time>2026-05-31T06:42:59.999Z</time>
      </trkpt>
      <trkpt lat="43.7496" lon="4.14138">
        <ele>83.4</ele>
        <time>2026-05-31T06:43:00.999Z</time>
      </trkpt>
      <trkpt lat="43.74961" lon="4.14138">
        <ele>83.3</ele>
        <time>2026-05-31T06:43:01.999Z</time>
      </trkpt>
      <trkpt lat="43.74963" lon="4.14137">
        <ele>83.2</ele>
        <time>2026-05-31T06:43:02.999Z</time>
      </trkpt>
      <trkpt lat="43.74964" lon="4.14137">
        <ele>83.3</ele>
        <time>2026-05-31T06:43:03.999Z</time>
      </trkpt>
      <trkpt lat="43.74965" lon="4.14137">
        <ele>83.4</ele>
        <time>2026-05-31T06:43:04.999Z</time>
      </trkpt>
      <trkpt lat="43.74966" lon="4.14137">
        <ele>83.5</ele>
        <time>2026-05-31T06:43:05.999Z</time>
      </trkpt>
      <trkpt lat="43.74967" lon="4.14136">
        <ele>83.4</ele>
        <time>2026-05-31T06:43:06.999Z</time>
      </trkpt>
      <trkpt lat="43.74968" lon="4.14136">
        <ele>83.5</ele>
        <time>2026-05-31T06:43:07.999Z</time>
      </trkpt>
      <trkpt lat="43.74969" lon="4.14135">
        <ele>83.5</ele>
        <time>2026-05-31T06:43:08.999Z</time>
      </trkpt>
      <trkpt lat="43.7497" lon="4.14135">
        <ele>83.5</ele>
        <time>2026-05-31T06:43:09.999Z</time>
      </trkpt>
      <trkpt lat="43.74971" lon="4.14134">
        <ele>83.4</ele>
        <time>2026-05-31T06:43:10.999Z</time>
      </trkpt>
      <trkpt lat="43.74972" lon="4.14134">
        <ele>83.3</ele>
        <time>2026-05-31T06:43:11.999Z</time>
      </trkpt>
      <trkpt lat="43.74973" lon="4.14133">
        <ele>83.1</ele>
        <time>2026-05-31T06:43:12.999Z</time>
      </trkpt>
      <trkpt lat="43.74974" lon="4.14133">
        <ele>83</ele>
        <time>2026-05-31T06:43:13.999Z</time>
      </trkpt>
      <trkpt lat="43.74975" lon="4.14132">
        <ele>82.9</ele>
        <time>2026-05-31T06:43:14.999Z</time>
      </trkpt>
      <trkpt lat="43.74976" lon="4.1413">
        <ele>82.7</ele>
        <time>2026-05-31T06:43:15.999Z</time>
      </trkpt>
      <trkpt lat="43.74976" lon="4.1413">
        <ele>82.8</ele>
        <time>2026-05-31T06:43:16.999Z</time>
      </trkpt>
      <trkpt lat="43.74977" lon="4.14129">
        <ele>82.7</ele>
        <time>2026-05-31T06:43:17.999Z</time>
      </trkpt>
      <trkpt lat="43.74978" lon="4.14129">
        <ele>82.7</ele>
        <time>2026-05-31T06:43:18.999Z</time>
      </trkpt>
      <trkpt lat="43.74979" lon="4.14128">
        <ele>82.6</ele>
        <time>2026-05-31T06:43:19.999Z</time>
      </trkpt>
      <trkpt lat="43.7498" lon="4.14127">
        <ele>82.7</ele>
        <time>2026-05-31T06:43:20.999Z</time>
      </trkpt>
      <trkpt lat="43.74981" lon="4.14126">
        <ele>82.9</ele>
        <time>2026-05-31T06:43:21.999Z</time>
      </trkpt>
      <trkpt lat="43.74982" lon="4.14125">
        <ele>82.9</ele>
        <time>2026-05-31T06:43:22.999Z</time>
      </trkpt>
      <trkpt lat="43.74983" lon="4.14125">
        <ele>83</ele>
        <time>2026-05-31T06:43:23.999Z</time>
      </trkpt>
      <trkpt lat="43.74983" lon="4.14125">
        <ele>83.1</ele>
        <time>2026-05-31T06:43:24.999Z</time>
      </trkpt>
      <trkpt lat="43.74984" lon="4.14125">
        <ele>83</ele>
        <time>2026-05-31T06:43:25.999Z</time>
      </trkpt>
      <trkpt lat="43.74986" lon="4.14125">
        <ele>82.9</ele>
        <time>2026-05-31T06:43:26.999Z</time>
      </trkpt>
      <trkpt lat="43.74987" lon="4.14125">
        <ele>83</ele>
        <time>2026-05-31T06:43:27.999Z</time>
      </trkpt>
      <trkpt lat="43.74988" lon="4.14125">
        <ele>82.9</ele>
        <time>2026-05-31T06:43:28.999Z</time>
      </trkpt>
      <trkpt lat="43.7499" lon="4.14124">
        <ele>82.9</ele>
        <time>2026-05-31T06:43:29.999Z</time>
      </trkpt>
      <trkpt lat="43.74991" lon="4.14125">
        <ele>82.7</ele>
        <time>2026-05-31T06:43:30.999Z</time>
      </trkpt>
      <trkpt lat="43.74992" lon="4.14125">
        <ele>82.6</ele>
        <time>2026-05-31T06:43:31.999Z</time>
      </trkpt>
      <trkpt lat="43.74993" lon="4.14124">
        <ele>82.4</ele>
        <time>2026-05-31T06:43:32.999Z</time>
      </trkpt>
      <trkpt lat="43.74994" lon="4.14125">
        <ele>82.2</ele>
        <time>2026-05-31T06:43:33.999Z</time>
      </trkpt>
      <trkpt lat="43.74995" lon="4.14125">
        <ele>82</ele>
        <time>2026-05-31T06:43:34.999Z</time>
      </trkpt>
      <trkpt lat="43.74996" lon="4.14125">
        <ele>81.9</ele>
        <time>2026-05-31T06:43:35.999Z</time>
      </trkpt>
      <trkpt lat="43.74998" lon="4.14125">
        <ele>81.7</ele>
        <time>2026-05-31T06:43:36.999Z</time>
      </trkpt>
      <trkpt lat="43.74999" lon="4.14126">
        <ele>81.7</ele>
        <time>2026-05-31T06:43:37.999Z</time>
      </trkpt>
      <trkpt lat="43.75" lon="4.14126">
        <ele>81.8</ele>
        <time>2026-05-31T06:43:38.999Z</time>
      </trkpt>
      <trkpt lat="43.75001" lon="4.14127">
        <ele>82</ele>
        <time>2026-05-31T06:43:39.999Z</time>
      </trkpt>
      <trkpt lat="43.75002" lon="4.14128">
        <ele>82.1</ele>
        <time>2026-05-31T06:43:40.999Z</time>
      </trkpt>
      <trkpt lat="43.75003" lon="4.14129">
        <ele>82.2</ele>
        <time>2026-05-31T06:43:41.999Z</time>
      </trkpt>
      <trkpt lat="43.75004" lon="4.1413">
        <ele>82.3</ele>
        <time>2026-05-31T06:43:42.999Z</time>
      </trkpt>
      <trkpt lat="43.75005" lon="4.14131">
        <ele>82.3</ele>
        <time>2026-05-31T06:43:43.999Z</time>
      </trkpt>
      <trkpt lat="43.75006" lon="4.14131">
        <ele>82.3</ele>
        <time>2026-05-31T06:43:44.999Z</time>
      </trkpt>
      <trkpt lat="43.75007" lon="4.14132">
        <ele>82.6</ele>
        <time>2026-05-31T06:43:45.999Z</time>
      </trkpt>
      <trkpt lat="43.75008" lon="4.14133">
        <ele>83.1</ele>
        <time>2026-05-31T06:43:46.999Z</time>
      </trkpt>
      <trkpt lat="43.75009" lon="4.14133">
        <ele>83.4</ele>
        <time>2026-05-31T06:43:47.999Z</time>
      </trkpt>
      <trkpt lat="43.7501" lon="4.14134">
        <ele>83.4</ele>
        <time>2026-05-31T06:43:48.999Z</time>
      </trkpt>
      <trkpt lat="43.75011" lon="4.14135">
        <ele>83.6</ele>
        <time>2026-05-31T06:43:49.999Z</time>
      </trkpt>
      <trkpt lat="43.75013" lon="4.14136">
        <ele>83.7</ele>
        <time>2026-05-31T06:43:50.999Z</time>
      </trkpt>
      <trkpt lat="43.75014" lon="4.14136">
        <ele>83.7</ele>
        <time>2026-05-31T06:43:51.999Z</time>
      </trkpt>
      <trkpt lat="43.75015" lon="4.14137">
        <ele>83.7</ele>
        <time>2026-05-31T06:43:52.999Z</time>
      </trkpt>
      <trkpt lat="43.75016" lon="4.14138">
        <ele>83.9</ele>
        <time>2026-05-31T06:43:53.999Z</time>
      </trkpt>
      <trkpt lat="43.75017" lon="4.14138">
        <ele>84.3</ele>
        <time>2026-05-31T06:43:54.999Z</time>
      </trkpt>
      <trkpt lat="43.75018" lon="4.14139">
        <ele>84.4</ele>
        <time>2026-05-31T06:43:55.999Z</time>
      </trkpt>
      <trkpt lat="43.75019" lon="4.14139">
        <ele>84.6</ele>
        <time>2026-05-31T06:43:56.999Z</time>
      </trkpt>
      <trkpt lat="43.75021" lon="4.1414">
        <ele>84.3</ele>
        <time>2026-05-31T06:43:57.999Z</time>
      </trkpt>
      <trkpt lat="43.75021" lon="4.1414">
        <ele>84</ele>
        <time>2026-05-31T06:43:58.999Z</time>
      </trkpt>
      <trkpt lat="43.75022" lon="4.1414">
        <ele>84.1</ele>
        <time>2026-05-31T06:43:59.999Z</time>
      </trkpt>
      <trkpt lat="43.75023" lon="4.14141">
        <ele>84.3</ele>
        <time>2026-05-31T06:44:00.999Z</time>
      </trkpt>
      <trkpt lat="43.75024" lon="4.14142">
        <ele>84.1</ele>
        <time>2026-05-31T06:44:01.999Z</time>
      </trkpt>
      <trkpt lat="43.75025" lon="4.14143">
        <ele>84</ele>
        <time>2026-05-31T06:44:02.999Z</time>
      </trkpt>
      <trkpt lat="43.75025" lon="4.14142">
        <ele>84.2</ele>
        <time>2026-05-31T06:44:03.999Z</time>
      </trkpt>
      <trkpt lat="43.75026" lon="4.14143">
        <ele>84.4</ele>
        <time>2026-05-31T06:44:04.999Z</time>
      </trkpt>
      <trkpt lat="43.75028" lon="4.14143">
        <ele>84.4</ele>
        <time>2026-05-31T06:44:05.999Z</time>
      </trkpt>
      <trkpt lat="43.75029" lon="4.14144">
        <ele>84</ele>
        <time>2026-05-31T06:44:06.999Z</time>
      </trkpt>
      <trkpt lat="43.7503" lon="4.14145">
        <ele>83.7</ele>
        <time>2026-05-31T06:44:07.999Z</time>
      </trkpt>
      <trkpt lat="43.75031" lon="4.14146">
        <ele>83.7</ele>
        <time>2026-05-31T06:44:08.999Z</time>
      </trkpt>
      <trkpt lat="43.75032" lon="4.14147">
        <ele>83.7</ele>
        <time>2026-05-31T06:44:09.999Z</time>
      </trkpt>
      <trkpt lat="43.75033" lon="4.14147">
        <ele>83.9</ele>
        <time>2026-05-31T06:44:10.999Z</time>
      </trkpt>
      <trkpt lat="43.75034" lon="4.14148">
        <ele>83.8</ele>
        <time>2026-05-31T06:44:11.999Z</time>
      </trkpt>
      <trkpt lat="43.75035" lon="4.14148">
        <ele>83.9</ele>
        <time>2026-05-31T06:44:12.999Z</time>
      </trkpt>
      <trkpt lat="43.75037" lon="4.14149">
        <ele>84</ele>
        <time>2026-05-31T06:44:13.999Z</time>
      </trkpt>
      <trkpt lat="43.75038" lon="4.14149">
        <ele>83.7</ele>
        <time>2026-05-31T06:44:14.999Z</time>
      </trkpt>
      <trkpt lat="43.75039" lon="4.1415">
        <ele>83.5</ele>
        <time>2026-05-31T06:44:15.999Z</time>
      </trkpt>
      <trkpt lat="43.7504" lon="4.1415">
        <ele>83.3</ele>
        <time>2026-05-31T06:44:16.999Z</time>
      </trkpt>
      <trkpt lat="43.75041" lon="4.1415">
        <ele>83.3</ele>
        <time>2026-05-31T06:44:17.999Z</time>
      </trkpt>
      <trkpt lat="43.75041" lon="4.1415">
        <ele>83</ele>
        <time>2026-05-31T06:44:18.999Z</time>
      </trkpt>
      <trkpt lat="43.75043" lon="4.1415">
        <ele>82.9</ele>
        <time>2026-05-31T06:44:19.999Z</time>
      </trkpt>
      <trkpt lat="43.75043" lon="4.1415">
        <ele>82.7</ele>
        <time>2026-05-31T06:44:20.999Z</time>
      </trkpt>
      <trkpt lat="43.75044" lon="4.1415">
        <ele>82.6</ele>
        <time>2026-05-31T06:44:21.999Z</time>
      </trkpt>
      <trkpt lat="43.75045" lon="4.1415">
        <ele>82.4</ele>
        <time>2026-05-31T06:44:22.999Z</time>
      </trkpt>
      <trkpt lat="43.75046" lon="4.14151">
        <ele>82.5</ele>
        <time>2026-05-31T06:44:23.999Z</time>
      </trkpt>
      <trkpt lat="43.75047" lon="4.14152">
        <ele>82.4</ele>
        <time>2026-05-31T06:44:24.999Z</time>
      </trkpt>
      <trkpt lat="43.75049" lon="4.14152">
        <ele>82.3</ele>
        <time>2026-05-31T06:44:25.999Z</time>
      </trkpt>
      <trkpt lat="43.7505" lon="4.14154">
        <ele>81.9</ele>
        <time>2026-05-31T06:44:26.999Z</time>
      </trkpt>
      <trkpt lat="43.75051" lon="4.14155">
        <ele>81.8</ele>
        <time>2026-05-31T06:44:27.999Z</time>
      </trkpt>
      <trkpt lat="43.75052" lon="4.14156">
        <ele>82</ele>
        <time>2026-05-31T06:44:28.999Z</time>
      </trkpt>
      <trkpt lat="43.75054" lon="4.14158">
        <ele>82</ele>
        <time>2026-05-31T06:44:29.999Z</time>
      </trkpt>
      <trkpt lat="43.75055" lon="4.14159">
        <ele>82.2</ele>
        <time>2026-05-31T06:44:30.999Z</time>
      </trkpt>
      <trkpt lat="43.75056" lon="4.1416">
        <ele>82.3</ele>
        <time>2026-05-31T06:44:31.999Z</time>
      </trkpt>
      <trkpt lat="43.75056" lon="4.14161">
        <ele>82.5</ele>
        <time>2026-05-31T06:44:32.999Z</time>
      </trkpt>
      <trkpt lat="43.75058" lon="4.14162">
        <ele>82.6</ele>
        <time>2026-05-31T06:44:33.999Z</time>
      </trkpt>
      <trkpt lat="43.75059" lon="4.14162">
        <ele>82.7</ele>
        <time>2026-05-31T06:44:34.999Z</time>
      </trkpt>
      <trkpt lat="43.7506" lon="4.14163">
        <ele>82.7</ele>
        <time>2026-05-31T06:44:35.999Z</time>
      </trkpt>
      <trkpt lat="43.75061" lon="4.14164">
        <ele>82.5</ele>
        <time>2026-05-31T06:44:36.999Z</time>
      </trkpt>
      <trkpt lat="43.75062" lon="4.14164">
        <ele>82.3</ele>
        <time>2026-05-31T06:44:37.999Z</time>
      </trkpt>
      <trkpt lat="43.75064" lon="4.14165">
        <ele>82.1</ele>
        <time>2026-05-31T06:44:38.999Z</time>
      </trkpt>
      <trkpt lat="43.75065" lon="4.14167">
        <ele>82</ele>
        <time>2026-05-31T06:44:39.999Z</time>
      </trkpt>
      <trkpt lat="43.75065" lon="4.14168">
        <ele>82</ele>
        <time>2026-05-31T06:44:40.999Z</time>
      </trkpt>
      <trkpt lat="43.75066" lon="4.14169">
        <ele>82.1</ele>
        <time>2026-05-31T06:44:41.999Z</time>
      </trkpt>
      <trkpt lat="43.75066" lon="4.1417">
        <ele>82.1</ele>
        <time>2026-05-31T06:44:42.999Z</time>
      </trkpt>
      <trkpt lat="43.75067" lon="4.14172">
        <ele>82.3</ele>
        <time>2026-05-31T06:44:43.999Z</time>
      </trkpt>
      <trkpt lat="43.75069" lon="4.14173">
        <ele>82.7</ele>
        <time>2026-05-31T06:44:44.999Z</time>
      </trkpt>
      <trkpt lat="43.7507" lon="4.14174">
        <ele>82.9</ele>
        <time>2026-05-31T06:44:45.999Z</time>
      </trkpt>
      <trkpt lat="43.75071" lon="4.14175">
        <ele>83</ele>
        <time>2026-05-31T06:44:46.999Z</time>
      </trkpt>
      <trkpt lat="43.75072" lon="4.14176">
        <ele>83</ele>
        <time>2026-05-31T06:44:47.999Z</time>
      </trkpt>
      <trkpt lat="43.75073" lon="4.14176">
        <ele>83.2</ele>
        <time>2026-05-31T06:44:48.999Z</time>
      </trkpt>
      <trkpt lat="43.75074" lon="4.14178">
        <ele>83.3</ele>
        <time>2026-05-31T06:44:49.999Z</time>
      </trkpt>
      <trkpt lat="43.75075" lon="4.14179">
        <ele>83.4</ele>
        <time>2026-05-31T06:44:50.999Z</time>
      </trkpt>
      <trkpt lat="43.75076" lon="4.1418">
        <ele>83.5</ele>
        <time>2026-05-31T06:44:51.999Z</time>
      </trkpt>
      <trkpt lat="43.75076" lon="4.14181">
        <ele>83.5</ele>
        <time>2026-05-31T06:44:52.999Z</time>
      </trkpt>
      <trkpt lat="43.75077" lon="4.14182">
        <ele>83.5</ele>
        <time>2026-05-31T06:44:53.999Z</time>
      </trkpt>
      <trkpt lat="43.75078" lon="4.14183">
        <ele>83.4</ele>
        <time>2026-05-31T06:44:54.999Z</time>
      </trkpt>
      <trkpt lat="43.75079" lon="4.14184">
        <ele>83.2</ele>
        <time>2026-05-31T06:44:55.999Z</time>
      </trkpt>
      <trkpt lat="43.7508" lon="4.14185">
        <ele>83</ele>
        <time>2026-05-31T06:44:56.999Z</time>
      </trkpt>
      <trkpt lat="43.75082" lon="4.14185">
        <ele>82.9</ele>
        <time>2026-05-31T06:44:57.999Z</time>
      </trkpt>
      <trkpt lat="43.75083" lon="4.14186">
        <ele>83.1</ele>
        <time>2026-05-31T06:44:58.999Z</time>
      </trkpt>
      <trkpt lat="43.75084" lon="4.14186">
        <ele>83</ele>
        <time>2026-05-31T06:44:59.999Z</time>
      </trkpt>
      <trkpt lat="43.75085" lon="4.14187">
        <ele>82.8</ele>
        <time>2026-05-31T06:45:00.999Z</time>
      </trkpt>
      <trkpt lat="43.75085" lon="4.14188">
        <ele>82.6</ele>
        <time>2026-05-31T06:45:01.999Z</time>
      </trkpt>
      <trkpt lat="43.75087" lon="4.14189">
        <ele>82.5</ele>
        <time>2026-05-31T06:45:02.999Z</time>
      </trkpt>
      <trkpt lat="43.75088" lon="4.14189">
        <ele>82.5</ele>
        <time>2026-05-31T06:45:03.999Z</time>
      </trkpt>
      <trkpt lat="43.75089" lon="4.14191">
        <ele>82.3</ele>
        <time>2026-05-31T06:45:04.999Z</time>
      </trkpt>
      <trkpt lat="43.75091" lon="4.14192">
        <ele>82.3</ele>
        <time>2026-05-31T06:45:05.999Z</time>
      </trkpt>
      <trkpt lat="43.75091" lon="4.14192">
        <ele>82.3</ele>
        <time>2026-05-31T06:45:06.999Z</time>
      </trkpt>
      <trkpt lat="43.75092" lon="4.14193">
        <ele>82.3</ele>
        <time>2026-05-31T06:45:07.999Z</time>
      </trkpt>
      <trkpt lat="43.75093" lon="4.14193">
        <ele>82.1</ele>
        <time>2026-05-31T06:45:08.999Z</time>
      </trkpt>
      <trkpt lat="43.75094" lon="4.14194">
        <ele>82.2</ele>
        <time>2026-05-31T06:45:09.999Z</time>
      </trkpt>
      <trkpt lat="43.75095" lon="4.14195">
        <ele>82.4</ele>
        <time>2026-05-31T06:45:10.999Z</time>
      </trkpt>
      <trkpt lat="43.75096" lon="4.14196">
        <ele>82.7</ele>
        <time>2026-05-31T06:45:11.999Z</time>
      </trkpt>
      <trkpt lat="43.75097" lon="4.14197">
        <ele>83</ele>
        <time>2026-05-31T06:45:12.999Z</time>
      </trkpt>
      <trkpt lat="43.75098" lon="4.14198">
        <ele>82.9</ele>
        <time>2026-05-31T06:45:13.999Z</time>
      </trkpt>
      <trkpt lat="43.751" lon="4.14199">
        <ele>82.8</ele>
        <time>2026-05-31T06:45:14.999Z</time>
      </trkpt>
      <trkpt lat="43.75101" lon="4.142">
        <ele>82.7</ele>
        <time>2026-05-31T06:45:15.999Z</time>
      </trkpt>
      <trkpt lat="43.75101" lon="4.142">
        <ele>82.3</ele>
        <time>2026-05-31T06:45:16.999Z</time>
      </trkpt>
      <trkpt lat="43.75102" lon="4.14201">
        <ele>82.3</ele>
        <time>2026-05-31T06:45:17.999Z</time>
      </trkpt>
      <trkpt lat="43.75103" lon="4.14202">
        <ele>82.5</ele>
        <time>2026-05-31T06:45:18.999Z</time>
      </trkpt>
      <trkpt lat="43.75104" lon="4.14203">
        <ele>82.5</ele>
        <time>2026-05-31T06:45:19.999Z</time>
      </trkpt>
      <trkpt lat="43.75105" lon="4.14204">
        <ele>82.5</ele>
        <time>2026-05-31T06:45:20.999Z</time>
      </trkpt>
      <trkpt lat="43.75106" lon="4.14205">
        <ele>82.6</ele>
        <time>2026-05-31T06:45:21.999Z</time>
      </trkpt>
      <trkpt lat="43.75107" lon="4.14206">
        <ele>82.7</ele>
        <time>2026-05-31T06:45:22.999Z</time>
      </trkpt>
      <trkpt lat="43.75108" lon="4.14207">
        <ele>82.8</ele>
        <time>2026-05-31T06:45:23.999Z</time>
      </trkpt>
      <trkpt lat="43.75109" lon="4.14207">
        <ele>83.1</ele>
        <time>2026-05-31T06:45:24.999Z</time>
      </trkpt>
      <trkpt lat="43.7511" lon="4.14208">
        <ele>83.4</ele>
        <time>2026-05-31T06:45:25.999Z</time>
      </trkpt>
      <trkpt lat="43.75111" lon="4.14209">
        <ele>83.6</ele>
        <time>2026-05-31T06:45:26.999Z</time>
      </trkpt>
      <trkpt lat="43.75112" lon="4.1421">
        <ele>83.8</ele>
        <time>2026-05-31T06:45:27.999Z</time>
      </trkpt>
      <trkpt lat="43.75113" lon="4.14211">
        <ele>84</ele>
        <time>2026-05-31T06:45:28.999Z</time>
      </trkpt>
      <trkpt lat="43.75113" lon="4.14211">
        <ele>83.9</ele>
        <time>2026-05-31T06:45:29.999Z</time>
      </trkpt>
      <trkpt lat="43.75114" lon="4.14211">
        <ele>83.9</ele>
        <time>2026-05-31T06:45:30.999Z</time>
      </trkpt>
      <trkpt lat="43.75114" lon="4.14211">
        <ele>83.8</ele>
        <time>2026-05-31T06:45:31.999Z</time>
      </trkpt>
      <trkpt lat="43.75113" lon="4.1421">
        <ele>83.9</ele>
        <time>2026-05-31T06:45:32.999Z</time>
      </trkpt>
      <trkpt lat="43.75113" lon="4.1421">
        <ele>84.4</ele>
        <time>2026-05-31T06:45:33.999Z</time>
      </trkpt>
      <trkpt lat="43.75113" lon="4.1421">
        <ele>84.5</ele>
        <time>2026-05-31T06:45:34.999Z</time>
      </trkpt>
      <trkpt lat="43.75113" lon="4.1421">
        <ele>84.6</ele>
        <time>2026-05-31T06:45:35.999Z</time>
      </trkpt>
      <trkpt lat="43.75113" lon="4.1421">
        <ele>84.8</ele>
        <time>2026-05-31T06:45:36.999Z</time>
      </trkpt>
      <trkpt lat="43.75113" lon="4.1421">
        <ele>84.6</ele>
        <time>2026-05-31T06:45:37.999Z</time>
      </trkpt>
      <trkpt lat="43.75113" lon="4.1421">
        <ele>84.4</ele>
        <time>2026-05-31T06:45:38.999Z</time>
      </trkpt>
      <trkpt lat="43.75113" lon="4.1421">
        <ele>84.1</ele>
        <time>2026-05-31T06:45:39.999Z</time>
      </trkpt>
      <trkpt lat="43.75113" lon="4.1421">
        <ele>84</ele>
        <time>2026-05-31T06:45:40.999Z</time>
      </trkpt>
      <trkpt lat="43.75113" lon="4.1421">
        <ele>84</ele>
        <time>2026-05-31T06:45:41.999Z</time>
      </trkpt>
      <trkpt lat="43.75113" lon="4.1421">
        <ele>84</ele>
        <time>2026-05-31T06:45:42.999Z</time>
      </trkpt>
      <trkpt lat="43.75113" lon="4.1421">
        <ele>84.1</ele>
        <time>2026-05-31T06:45:43.999Z</time>
      </trkpt>
      <trkpt lat="43.75113" lon="4.1421">
        <ele>84.2</ele>
        <time>2026-05-31T06:45:44.999Z</time>
      </trkpt>
      <trkpt lat="43.75113" lon="4.1421">
        <ele>84.3</ele>
        <time>2026-05-31T06:45:45.999Z</time>
      </trkpt>
      <trkpt lat="43.75113" lon="4.1421">
        <ele>84.3</ele>
        <time>2026-05-31T06:45:46.999Z</time>
      </trkpt>
      <trkpt lat="43.75113" lon="4.1421">
        <ele>84.3</ele>
        <time>2026-05-31T06:45:47.999Z</time>
      </trkpt>
      <trkpt lat="43.75113" lon="4.14211">
        <ele>84.3</ele>
        <time>2026-05-31T06:45:48.999Z</time>
      </trkpt>
      <trkpt lat="43.75113" lon="4.14211">
        <ele>84.1</ele>
        <time>2026-05-31T06:45:49.999Z</time>
      </trkpt>
      <trkpt lat="43.75113" lon="4.14211">
        <ele>83.9</ele>
        <time>2026-05-31T06:45:50.999Z</time>
      </trkpt>
      <trkpt lat="43.75113" lon="4.14211">
        <ele>83.9</ele>
        <time>2026-05-31T06:45:51.999Z</time>
      </trkpt>
      <trkpt lat="43.75113" lon="4.14211">
        <ele>83.9</ele>
        <time>2026-05-31T06:45:52.999Z</time>
      </trkpt>
      <trkpt lat="43.75113" lon="4.14211">
        <ele>83.9</ele>
        <time>2026-05-31T06:45:53.999Z</time>
      </trkpt>
      <trkpt lat="43.75113" lon="4.14211">
        <ele>84</ele>
        <time>2026-05-31T06:45:54.999Z</time>
      </trkpt>
      <trkpt lat="43.75114" lon="4.14211">
        <ele>83.9</ele>
        <time>2026-05-31T06:45:55.999Z</time>
      </trkpt>
      <trkpt lat="43.75114" lon="4.14211">
        <ele>84.1</ele>
        <time>2026-05-31T06:45:56.999Z</time>
      </trkpt>
      <trkpt lat="43.75114" lon="4.14211">
        <ele>84.3</ele>
        <time>2026-05-31T06:45:57.999Z</time>
      </trkpt>
      <trkpt lat="43.75114" lon="4.14211">
        <ele>84.5</ele>
        <time>2026-05-31T06:45:58.999Z</time>
      </trkpt>
      <trkpt lat="43.75114" lon="4.14211">
        <ele>84.6</ele>
        <time>2026-05-31T06:45:59.999Z</time>
      </trkpt>
      <trkpt lat="43.75114" lon="4.14211">
        <ele>84.6</ele>
        <time>2026-05-31T06:46:00.999Z</time>
      </trkpt>
      <trkpt lat="43.75114" lon="4.14211">
        <ele>84.6</ele>
        <time>2026-05-31T06:46:01.999Z</time>
      </trkpt>
      <trkpt lat="43.75114" lon="4.14211">
        <ele>84.7</ele>
        <time>2026-05-31T06:46:02.999Z</time>
      </trkpt>
      <trkpt lat="43.75114" lon="4.14211">
        <ele>84.7</ele>
        <time>2026-05-31T06:46:03.999Z</time>
      </trkpt>
      <trkpt lat="43.75114" lon="4.14212">
        <ele>84.7</ele>
        <time>2026-05-31T06:46:04.999Z</time>
      </trkpt>
      <trkpt lat="43.75114" lon="4.14212">
        <ele>84.9</ele>
        <time>2026-05-31T06:46:05.999Z</time>
      </trkpt>
      <trkpt lat="43.75115" lon="4.14214">
        <ele>84.9</ele>
        <time>2026-05-31T06:46:06.999Z</time>
      </trkpt>
      <trkpt lat="43.75115" lon="4.14216">
        <ele>84.9</ele>
        <time>2026-05-31T06:46:07.999Z</time>
      </trkpt>
      <trkpt lat="43.75116" lon="4.14218">
        <ele>84.9</ele>
        <time>2026-05-31T06:46:08.999Z</time>
      </trkpt>
      <trkpt lat="43.75117" lon="4.1422">
        <ele>84.9</ele>
        <time>2026-05-31T06:46:09.999Z</time>
      </trkpt>
      <trkpt lat="43.75118" lon="4.14221">
        <ele>85</ele>
        <time>2026-05-31T06:46:10.999Z</time>
      </trkpt>
      <trkpt lat="43.75119" lon="4.14222">
        <ele>85</ele>
        <time>2026-05-31T06:46:11.999Z</time>
      </trkpt>
      <trkpt lat="43.7512" lon="4.14223">
        <ele>85.2</ele>
        <time>2026-05-31T06:46:12.999Z</time>
      </trkpt>
      <trkpt lat="43.75121" lon="4.14224">
        <ele>85.2</ele>
        <time>2026-05-31T06:46:13.999Z</time>
      </trkpt>
      <trkpt lat="43.75122" lon="4.14225">
        <ele>85.2</ele>
        <time>2026-05-31T06:46:14.999Z</time>
      </trkpt>
      <trkpt lat="43.75123" lon="4.14226">
        <ele>85.2</ele>
        <time>2026-05-31T06:46:15.999Z</time>
      </trkpt>
      <trkpt lat="43.75124" lon="4.14226">
        <ele>85</ele>
        <time>2026-05-31T06:46:16.999Z</time>
      </trkpt>
      <trkpt lat="43.75125" lon="4.14226">
        <ele>84.8</ele>
        <time>2026-05-31T06:46:17.999Z</time>
      </trkpt>
      <trkpt lat="43.75126" lon="4.14227">
        <ele>84.6</ele>
        <time>2026-05-31T06:46:18.999Z</time>
      </trkpt>
      <trkpt lat="43.75127" lon="4.14227">
        <ele>84.1</ele>
        <time>2026-05-31T06:46:19.999Z</time>
      </trkpt>
      <trkpt lat="43.75129" lon="4.14228">
        <ele>83.8</ele>
        <time>2026-05-31T06:46:20.999Z</time>
      </trkpt>
      <trkpt lat="43.7513" lon="4.14228">
        <ele>83.7</ele>
        <time>2026-05-31T06:46:21.999Z</time>
      </trkpt>
      <trkpt lat="43.75131" lon="4.1423">
        <ele>83.5</ele>
        <time>2026-05-31T06:46:22.999Z</time>
      </trkpt>
      <trkpt lat="43.75132" lon="4.14231">
        <ele>83.5</ele>
        <time>2026-05-31T06:46:23.999Z</time>
      </trkpt>
      <trkpt lat="43.75133" lon="4.14232">
        <ele>83.3</ele>
        <time>2026-05-31T06:46:24.999Z</time>
      </trkpt>
      <trkpt lat="43.75134" lon="4.14233">
        <ele>83</ele>
        <time>2026-05-31T06:46:25.999Z</time>
      </trkpt>
      <trkpt lat="43.75135" lon="4.14234">
        <ele>83.2</ele>
        <time>2026-05-31T06:46:26.999Z</time>
      </trkpt>
      <trkpt lat="43.75136" lon="4.14235">
        <ele>83.4</ele>
        <time>2026-05-31T06:46:27.999Z</time>
      </trkpt>
      <trkpt lat="43.75136" lon="4.14236">
        <ele>83.5</ele>
        <time>2026-05-31T06:46:28.999Z</time>
      </trkpt>
      <trkpt lat="43.75137" lon="4.14238">
        <ele>83.4</ele>
        <time>2026-05-31T06:46:29.999Z</time>
      </trkpt>
      <trkpt lat="43.75138" lon="4.14239">
        <ele>83.4</ele>
        <time>2026-05-31T06:46:30.999Z</time>
      </trkpt>
      <trkpt lat="43.75139" lon="4.14241">
        <ele>83.5</ele>
        <time>2026-05-31T06:46:31.999Z</time>
      </trkpt>
      <trkpt lat="43.7514" lon="4.14242">
        <ele>83.6</ele>
        <time>2026-05-31T06:46:32.999Z</time>
      </trkpt>
      <trkpt lat="43.75141" lon="4.14243">
        <ele>83.8</ele>
        <time>2026-05-31T06:46:33.999Z</time>
      </trkpt>
      <trkpt lat="43.75142" lon="4.14245">
        <ele>84</ele>
        <time>2026-05-31T06:46:34.999Z</time>
      </trkpt>
      <trkpt lat="43.75142" lon="4.14246">
        <ele>84.3</ele>
        <time>2026-05-31T06:46:35.999Z</time>
      </trkpt>
      <trkpt lat="43.75143" lon="4.14247">
        <ele>84.5</ele>
        <time>2026-05-31T06:46:36.999Z</time>
      </trkpt>
      <trkpt lat="43.75143" lon="4.14248">
        <ele>84.6</ele>
        <time>2026-05-31T06:46:37.999Z</time>
      </trkpt>
      <trkpt lat="43.75144" lon="4.14249">
        <ele>84.6</ele>
        <time>2026-05-31T06:46:38.999Z</time>
      </trkpt>
      <trkpt lat="43.75145" lon="4.14249">
        <ele>84.8</ele>
        <time>2026-05-31T06:46:39.999Z</time>
      </trkpt>
      <trkpt lat="43.75146" lon="4.1425">
        <ele>84.9</ele>
        <time>2026-05-31T06:46:40.999Z</time>
      </trkpt>
      <trkpt lat="43.75147" lon="4.14252">
        <ele>84.9</ele>
        <time>2026-05-31T06:46:41.999Z</time>
      </trkpt>
      <trkpt lat="43.75148" lon="4.14253">
        <ele>85.1</ele>
        <time>2026-05-31T06:46:42.999Z</time>
      </trkpt>
      <trkpt lat="43.75149" lon="4.14255">
        <ele>85.2</ele>
        <time>2026-05-31T06:46:43.999Z</time>
      </trkpt>
      <trkpt lat="43.7515" lon="4.14256">
        <ele>85.4</ele>
        <time>2026-05-31T06:46:44.999Z</time>
      </trkpt>
      <trkpt lat="43.75151" lon="4.14257">
        <ele>85.5</ele>
        <time>2026-05-31T06:46:45.999Z</time>
      </trkpt>
      <trkpt lat="43.75152" lon="4.14258">
        <ele>85.3</ele>
        <time>2026-05-31T06:46:46.999Z</time>
      </trkpt>
      <trkpt lat="43.75153" lon="4.14259">
        <ele>85.5</ele>
        <time>2026-05-31T06:46:47.999Z</time>
      </trkpt>
      <trkpt lat="43.75153" lon="4.1426">
        <ele>85.5</ele>
        <time>2026-05-31T06:46:48.999Z</time>
      </trkpt>
      <trkpt lat="43.75153" lon="4.14261">
        <ele>85.9</ele>
        <time>2026-05-31T06:46:49.999Z</time>
      </trkpt>
      <trkpt lat="43.75154" lon="4.14262">
        <ele>86.2</ele>
        <time>2026-05-31T06:46:50.999Z</time>
      </trkpt>
      <trkpt lat="43.75155" lon="4.14262">
        <ele>86.1</ele>
        <time>2026-05-31T06:46:51.999Z</time>
      </trkpt>
      <trkpt lat="43.75156" lon="4.14263">
        <ele>85.9</ele>
        <time>2026-05-31T06:46:52.999Z</time>
      </trkpt>
      <trkpt lat="43.75157" lon="4.14264">
        <ele>85.7</ele>
        <time>2026-05-31T06:46:53.999Z</time>
      </trkpt>
      <trkpt lat="43.75158" lon="4.14264">
        <ele>85.7</ele>
        <time>2026-05-31T06:46:54.999Z</time>
      </trkpt>
      <trkpt lat="43.75159" lon="4.14265">
        <ele>85.8</ele>
        <time>2026-05-31T06:46:55.999Z</time>
      </trkpt>
      <trkpt lat="43.75161" lon="4.14265">
        <ele>85.6</ele>
        <time>2026-05-31T06:46:56.999Z</time>
      </trkpt>
      <trkpt lat="43.75161" lon="4.14265">
        <ele>85.1</ele>
        <time>2026-05-31T06:46:57.999Z</time>
      </trkpt>
      <trkpt lat="43.75162" lon="4.14266">
        <ele>84.8</ele>
        <time>2026-05-31T06:46:58.999Z</time>
      </trkpt>
      <trkpt lat="43.75163" lon="4.14266">
        <ele>84.7</ele>
        <time>2026-05-31T06:46:59.999Z</time>
      </trkpt>
      <trkpt lat="43.75163" lon="4.14266">
        <ele>85.1</ele>
        <time>2026-05-31T06:47:00.999Z</time>
      </trkpt>
      <trkpt lat="43.75163" lon="4.14266">
        <ele>85.3</ele>
        <time>2026-05-31T06:47:01.999Z</time>
      </trkpt>
      <trkpt lat="43.75163" lon="4.14266">
        <ele>85.1</ele>
        <time>2026-05-31T06:47:02.999Z</time>
      </trkpt>
      <trkpt lat="43.75163" lon="4.14266">
        <ele>85</ele>
        <time>2026-05-31T06:47:03.999Z</time>
      </trkpt>
      <trkpt lat="43.75163" lon="4.14266">
        <ele>84.7</ele>
        <time>2026-05-31T06:47:04.999Z</time>
      </trkpt>
      <trkpt lat="43.75163" lon="4.14266">
        <ele>84.8</ele>
        <time>2026-05-31T06:47:05.999Z</time>
      </trkpt>
      <trkpt lat="43.75163" lon="4.14266">
        <ele>84.8</ele>
        <time>2026-05-31T06:47:06.999Z</time>
      </trkpt>
      <trkpt lat="43.75163" lon="4.14266">
        <ele>84.7</ele>
        <time>2026-05-31T06:47:07.999Z</time>
      </trkpt>
      <trkpt lat="43.75163" lon="4.14267">
        <ele>84.7</ele>
        <time>2026-05-31T06:47:08.999Z</time>
      </trkpt>
      <trkpt lat="43.75163" lon="4.14267">
        <ele>84.4</ele>
        <time>2026-05-31T06:47:09.999Z</time>
      </trkpt>
      <trkpt lat="43.75163" lon="4.14267">
        <ele>84.2</ele>
        <time>2026-05-31T06:47:10.999Z</time>
      </trkpt>
      <trkpt lat="43.75163" lon="4.14267">
        <ele>84.1</ele>
        <time>2026-05-31T06:47:11.999Z</time>
      </trkpt>
      <trkpt lat="43.75163" lon="4.14267">
        <ele>84.1</ele>
        <time>2026-05-31T06:47:12.999Z</time>
      </trkpt>
      <trkpt lat="43.75163" lon="4.14267">
        <ele>84</ele>
        <time>2026-05-31T06:47:13.999Z</time>
      </trkpt>
      <trkpt lat="43.75163" lon="4.14267">
        <ele>83.9</ele>
        <time>2026-05-31T06:47:14.999Z</time>
      </trkpt>
      <trkpt lat="43.75163" lon="4.14267">
        <ele>83.6</ele>
        <time>2026-05-31T06:47:15.999Z</time>
      </trkpt>
      <trkpt lat="43.75163" lon="4.14267">
        <ele>83.5</ele>
        <time>2026-05-31T06:47:16.999Z</time>
      </trkpt>
      <trkpt lat="43.75163" lon="4.14267">
        <ele>83.4</ele>
        <time>2026-05-31T06:47:17.999Z</time>
      </trkpt>
      <trkpt lat="43.75163" lon="4.14267">
        <ele>83.5</ele>
        <time>2026-05-31T06:47:18.999Z</time>
      </trkpt>
      <trkpt lat="43.75163" lon="4.14267">
        <ele>83.7</ele>
        <time>2026-05-31T06:47:19.999Z</time>
      </trkpt>
      <trkpt lat="43.75163" lon="4.14267">
        <ele>83.6</ele>
        <time>2026-05-31T06:47:20.999Z</time>
      </trkpt>
      <trkpt lat="43.75163" lon="4.14267">
        <ele>83.6</ele>
        <time>2026-05-31T06:47:21.999Z</time>
      </trkpt>
      <trkpt lat="43.75163" lon="4.14267">
        <ele>83.8</ele>
        <time>2026-05-31T06:47:22.999Z</time>
      </trkpt>
      <trkpt lat="43.75163" lon="4.14267">
        <ele>83.9</ele>
        <time>2026-05-31T06:47:23.999Z</time>
      </trkpt>
      <trkpt lat="43.75163" lon="4.14267">
        <ele>83.9</ele>
        <time>2026-05-31T06:47:24.999Z</time>
      </trkpt>
      <trkpt lat="43.75163" lon="4.14267">
        <ele>83.8</ele>
        <time>2026-05-31T06:47:25.999Z</time>
      </trkpt>
      <trkpt lat="43.75163" lon="4.14267">
        <ele>84</ele>
        <time>2026-05-31T06:47:26.999Z</time>
      </trkpt>
      <trkpt lat="43.75163" lon="4.14267">
        <ele>83.9</ele>
        <time>2026-05-31T06:47:27.999Z</time>
      </trkpt>
      <trkpt lat="43.75163" lon="4.14267">
        <ele>83.9</ele>
        <time>2026-05-31T06:47:28.999Z</time>
      </trkpt>
      <trkpt lat="43.75163" lon="4.14267">
        <ele>83.8</ele>
        <time>2026-05-31T06:47:29.999Z</time>
      </trkpt>
      <trkpt lat="43.75163" lon="4.14267">
        <ele>83.7</ele>
        <time>2026-05-31T06:47:30.999Z</time>
      </trkpt>
      <trkpt lat="43.75163" lon="4.14267">
        <ele>83.5</ele>
        <time>2026-05-31T06:47:31.999Z</time>
      </trkpt>
      <trkpt lat="43.75163" lon="4.14267">
        <ele>83.3</ele>
        <time>2026-05-31T06:47:32.999Z</time>
      </trkpt>
      <trkpt lat="43.75163" lon="4.14267">
        <ele>83.3</ele>
        <time>2026-05-31T06:47:33.999Z</time>
      </trkpt>
      <trkpt lat="43.75163" lon="4.14267">
        <ele>83.3</ele>
        <time>2026-05-31T06:47:34.999Z</time>
      </trkpt>
      <trkpt lat="43.75163" lon="4.14267">
        <ele>83.5</ele>
        <time>2026-05-31T06:47:35.999Z</time>
      </trkpt>
      <trkpt lat="43.75163" lon="4.14267">
        <ele>83.5</ele>
        <time>2026-05-31T06:47:36.999Z</time>
      </trkpt>
      <trkpt lat="43.75163" lon="4.14267">
        <ele>83.6</ele>
        <time>2026-05-31T06:47:37.999Z</time>
      </trkpt>
      <trkpt lat="43.75163" lon="4.14267">
        <ele>83.6</ele>
        <time>2026-05-31T06:47:38.999Z</time>
      </trkpt>
      <trkpt lat="43.75163" lon="4.14267">
        <ele>83.6</ele>
        <time>2026-05-31T06:47:39.999Z</time>
      </trkpt>
      <trkpt lat="43.75163" lon="4.14267">
        <ele>83.8</ele>
        <time>2026-05-31T06:47:40.999Z</time>
      </trkpt>
      <trkpt lat="43.75163" lon="4.14267">
        <ele>83.8</ele>
        <time>2026-05-31T06:47:41.999Z</time>
      </trkpt>
      <trkpt lat="43.75163" lon="4.14267">
        <ele>83.7</ele>
        <time>2026-05-31T06:47:42.999Z</time>
      </trkpt>
      <trkpt lat="43.75163" lon="4.14267">
        <ele>83.7</ele>
        <time>2026-05-31T06:47:43.999Z</time>
      </trkpt>
      <trkpt lat="43.75163" lon="4.14267">
        <ele>83.7</ele>
        <time>2026-05-31T06:47:44.999Z</time>
      </trkpt>
      <trkpt lat="43.75163" lon="4.14267">
        <ele>83.6</ele>
        <time>2026-05-31T06:47:45.999Z</time>
      </trkpt>
      <trkpt lat="43.75163" lon="4.14268">
        <ele>83.6</ele>
        <time>2026-05-31T06:47:46.999Z</time>
      </trkpt>
      <trkpt lat="43.75164" lon="4.14268">
        <ele>83.7</ele>
        <time>2026-05-31T06:47:47.999Z</time>
      </trkpt>
      <trkpt lat="43.75164" lon="4.14268">
        <ele>83.9</ele>
        <time>2026-05-31T06:47:48.999Z</time>
      </trkpt>
      <trkpt lat="43.75164" lon="4.14268">
        <ele>84.1</ele>
        <time>2026-05-31T06:47:49.999Z</time>
      </trkpt>
      <trkpt lat="43.75164" lon="4.14268">
        <ele>84.1</ele>
        <time>2026-05-31T06:47:50.999Z</time>
      </trkpt>
      <trkpt lat="43.75164" lon="4.14268">
        <ele>84.1</ele>
        <time>2026-05-31T06:47:51.999Z</time>
      </trkpt>
      <trkpt lat="43.75164" lon="4.14268">
        <ele>84.1</ele>
        <time>2026-05-31T06:47:52.999Z</time>
      </trkpt>
      <trkpt lat="43.75164" lon="4.14268">
        <ele>84</ele>
        <time>2026-05-31T06:47:53.999Z</time>
      </trkpt>
      <trkpt lat="43.75164" lon="4.14268">
        <ele>83.8</ele>
        <time>2026-05-31T06:47:54.999Z</time>
      </trkpt>
      <trkpt lat="43.75164" lon="4.14268">
        <ele>83.7</ele>
        <time>2026-05-31T06:47:55.999Z</time>
      </trkpt>
      <trkpt lat="43.75164" lon="4.14268">
        <ele>83.5</ele>
        <time>2026-05-31T06:47:56.999Z</time>
      </trkpt>
      <trkpt lat="43.75164" lon="4.14268">
        <ele>83.3</ele>
        <time>2026-05-31T06:47:57.999Z</time>
      </trkpt>
      <trkpt lat="43.75164" lon="4.14268">
        <ele>83.1</ele>
        <time>2026-05-31T06:47:58.999Z</time>
      </trkpt>
      <trkpt lat="43.75164" lon="4.14268">
        <ele>82.9</ele>
        <time>2026-05-31T06:47:59.999Z</time>
      </trkpt>
      <trkpt lat="43.75164" lon="4.14268">
        <ele>82.7</ele>
        <time>2026-05-31T06:48:00.999Z</time>
      </trkpt>
      <trkpt lat="43.75164" lon="4.14268">
        <ele>82.3</ele>
        <time>2026-05-31T06:48:01.999Z</time>
      </trkpt>
      <trkpt lat="43.75164" lon="4.14268">
        <ele>82</ele>
        <time>2026-05-31T06:48:02.999Z</time>
      </trkpt>
      <trkpt lat="43.75164" lon="4.14268">
        <ele>82</ele>
        <time>2026-05-31T06:48:03.999Z</time>
      </trkpt>
      <trkpt lat="43.75164" lon="4.14268">
        <ele>82.1</ele>
        <time>2026-05-31T06:48:04.999Z</time>
      </trkpt>
      <trkpt lat="43.75164" lon="4.14268">
        <ele>82.1</ele>
        <time>2026-05-31T06:48:05.999Z</time>
      </trkpt>
      <trkpt lat="43.75164" lon="4.14268">
        <ele>81.9</ele>
        <time>2026-05-31T06:48:06.999Z</time>
      </trkpt>
      <trkpt lat="43.75164" lon="4.14268">
        <ele>81.7</ele>
        <time>2026-05-31T06:48:07.999Z</time>
      </trkpt>
      <trkpt lat="43.75164" lon="4.14268">
        <ele>81.5</ele>
        <time>2026-05-31T06:48:08.999Z</time>
      </trkpt>
      <trkpt lat="43.75164" lon="4.14268">
        <ele>81.3</ele>
        <time>2026-05-31T06:48:09.999Z</time>
      </trkpt>
      <trkpt lat="43.75164" lon="4.14268">
        <ele>81.1</ele>
        <time>2026-05-31T06:48:10.999Z</time>
      </trkpt>
      <trkpt lat="43.75164" lon="4.14268">
        <ele>81</ele>
        <time>2026-05-31T06:48:11.999Z</time>
      </trkpt>
      <trkpt lat="43.75164" lon="4.14268">
        <ele>81</ele>
        <time>2026-05-31T06:48:12.999Z</time>
      </trkpt>
      <trkpt lat="43.75164" lon="4.14268">
        <ele>81</ele>
        <time>2026-05-31T06:48:13.999Z</time>
      </trkpt>
      <trkpt lat="43.75164" lon="4.14269">
        <ele>81</ele>
        <time>2026-05-31T06:48:14.999Z</time>
      </trkpt>
      <trkpt lat="43.75164" lon="4.14269">
        <ele>81.1</ele>
        <time>2026-05-31T06:48:15.999Z</time>
      </trkpt>
      <trkpt lat="43.75165" lon="4.14269">
        <ele>81.2</ele>
        <time>2026-05-31T06:48:16.999Z</time>
      </trkpt>
      <trkpt lat="43.75165" lon="4.14269">
        <ele>81.2</ele>
        <time>2026-05-31T06:48:17.999Z</time>
      </trkpt>
      <trkpt lat="43.75165" lon="4.14269">
        <ele>81.1</ele>
        <time>2026-05-31T06:48:18.999Z</time>
      </trkpt>
      <trkpt lat="43.75165" lon="4.14269">
        <ele>81.2</ele>
        <time>2026-05-31T06:48:19.999Z</time>
      </trkpt>
      <trkpt lat="43.75165" lon="4.14269">
        <ele>81.1</ele>
        <time>2026-05-31T06:48:20.999Z</time>
      </trkpt>
      <trkpt lat="43.75165" lon="4.14269">
        <ele>81.2</ele>
        <time>2026-05-31T06:48:21.999Z</time>
      </trkpt>
      <trkpt lat="43.75165" lon="4.14269">
        <ele>81.3</ele>
        <time>2026-05-31T06:48:22.999Z</time>
      </trkpt>
      <trkpt lat="43.75165" lon="4.14269">
        <ele>81.2</ele>
        <time>2026-05-31T06:48:23.999Z</time>
      </trkpt>
      <trkpt lat="43.75165" lon="4.14269">
        <ele>81.2</ele>
        <time>2026-05-31T06:48:24.999Z</time>
      </trkpt>
      <trkpt lat="43.75166" lon="4.14271">
        <ele>81.6</ele>
        <time>2026-05-31T06:48:25.999Z</time>
      </trkpt>
      <trkpt lat="43.75166" lon="4.14272">
        <ele>81.8</ele>
        <time>2026-05-31T06:48:26.999Z</time>
      </trkpt>
      <trkpt lat="43.75166" lon="4.14273">
        <ele>81.9</ele>
        <time>2026-05-31T06:48:27.999Z</time>
      </trkpt>
      <trkpt lat="43.75168" lon="4.14274">
        <ele>82</ele>
        <time>2026-05-31T06:48:28.999Z</time>
      </trkpt>
      <trkpt lat="43.75169" lon="4.14274">
        <ele>81.9</ele>
        <time>2026-05-31T06:48:29.999Z</time>
      </trkpt>
      <trkpt lat="43.7517" lon="4.14275">
        <ele>81.7</ele>
        <time>2026-05-31T06:48:30.999Z</time>
      </trkpt>
      <trkpt lat="43.75171" lon="4.14276">
        <ele>81.6</ele>
        <time>2026-05-31T06:48:31.999Z</time>
      </trkpt>
      <trkpt lat="43.75172" lon="4.14277">
        <ele>81.7</ele>
        <time>2026-05-31T06:48:32.999Z</time>
      </trkpt>
      <trkpt lat="43.75172" lon="4.14278">
        <ele>81.7</ele>
        <time>2026-05-31T06:48:33.999Z</time>
      </trkpt>
      <trkpt lat="43.75172" lon="4.14279">
        <ele>81.5</ele>
        <time>2026-05-31T06:48:34.999Z</time>
      </trkpt>
      <trkpt lat="43.75173" lon="4.14281">
        <ele>81.5</ele>
        <time>2026-05-31T06:48:35.999Z</time>
      </trkpt>
      <trkpt lat="43.75174" lon="4.14282">
        <ele>81.9</ele>
        <time>2026-05-31T06:48:36.999Z</time>
      </trkpt>
      <trkpt lat="43.75175" lon="4.14283">
        <ele>82.2</ele>
        <time>2026-05-31T06:48:37.999Z</time>
      </trkpt>
      <trkpt lat="43.75176" lon="4.14284">
        <ele>82.3</ele>
        <time>2026-05-31T06:48:38.999Z</time>
      </trkpt>
      <trkpt lat="43.75176" lon="4.14285">
        <ele>82.5</ele>
        <time>2026-05-31T06:48:39.999Z</time>
      </trkpt>
      <trkpt lat="43.75177" lon="4.14285">
        <ele>82.5</ele>
        <time>2026-05-31T06:48:40.999Z</time>
      </trkpt>
      <trkpt lat="43.75178" lon="4.14286">
        <ele>82.4</ele>
        <time>2026-05-31T06:48:41.999Z</time>
      </trkpt>
      <trkpt lat="43.75179" lon="4.14287">
        <ele>82.4</ele>
        <time>2026-05-31T06:48:42.999Z</time>
      </trkpt>
      <trkpt lat="43.75179" lon="4.14288">
        <ele>82.2</ele>
        <time>2026-05-31T06:48:43.999Z</time>
      </trkpt>
      <trkpt lat="43.7518" lon="4.14289">
        <ele>82.2</ele>
        <time>2026-05-31T06:48:44.999Z</time>
      </trkpt>
      <trkpt lat="43.75181" lon="4.1429">
        <ele>82</ele>
        <time>2026-05-31T06:48:45.999Z</time>
      </trkpt>
      <trkpt lat="43.75182" lon="4.14291">
        <ele>81.9</ele>
        <time>2026-05-31T06:48:46.999Z</time>
      </trkpt>
      <trkpt lat="43.75183" lon="4.14291">
        <ele>81.9</ele>
        <time>2026-05-31T06:48:47.999Z</time>
      </trkpt>
      <trkpt lat="43.75184" lon="4.14292">
        <ele>81.8</ele>
        <time>2026-05-31T06:48:48.999Z</time>
      </trkpt>
      <trkpt lat="43.75186" lon="4.14293">
        <ele>81.8</ele>
        <time>2026-05-31T06:48:49.999Z</time>
      </trkpt>
      <trkpt lat="43.75187" lon="4.14294">
        <ele>81.9</ele>
        <time>2026-05-31T06:48:50.999Z</time>
      </trkpt>
      <trkpt lat="43.75188" lon="4.14294">
        <ele>82</ele>
        <time>2026-05-31T06:48:51.999Z</time>
      </trkpt>
      <trkpt lat="43.75188" lon="4.14295">
        <ele>81.9</ele>
        <time>2026-05-31T06:48:52.999Z</time>
      </trkpt>
      <trkpt lat="43.75189" lon="4.14295">
        <ele>81.8</ele>
        <time>2026-05-31T06:48:53.999Z</time>
      </trkpt>
      <trkpt lat="43.7519" lon="4.14296">
        <ele>81.7</ele>
        <time>2026-05-31T06:48:54.999Z</time>
      </trkpt>
      <trkpt lat="43.75191" lon="4.14298">
        <ele>81.5</ele>
        <time>2026-05-31T06:48:55.999Z</time>
      </trkpt>
      <trkpt lat="43.75192" lon="4.14299">
        <ele>81.4</ele>
        <time>2026-05-31T06:48:56.999Z</time>
      </trkpt>
      <trkpt lat="43.75193" lon="4.143">
        <ele>81.7</ele>
        <time>2026-05-31T06:48:57.999Z</time>
      </trkpt>
      <trkpt lat="43.75195" lon="4.14302">
        <ele>81.7</ele>
        <time>2026-05-31T06:48:58.999Z</time>
      </trkpt>
      <trkpt lat="43.75195" lon="4.14303">
        <ele>81.7</ele>
        <time>2026-05-31T06:48:59.999Z</time>
      </trkpt>
      <trkpt lat="43.75196" lon="4.14304">
        <ele>81.9</ele>
        <time>2026-05-31T06:49:00.999Z</time>
      </trkpt>
      <trkpt lat="43.75197" lon="4.14305">
        <ele>82</ele>
        <time>2026-05-31T06:49:01.999Z</time>
      </trkpt>
      <trkpt lat="43.75198" lon="4.14306">
        <ele>82</ele>
        <time>2026-05-31T06:49:02.999Z</time>
      </trkpt>
      <trkpt lat="43.75198" lon="4.14307">
        <ele>82.1</ele>
        <time>2026-05-31T06:49:03.999Z</time>
      </trkpt>
      <trkpt lat="43.75199" lon="4.14308">
        <ele>82.1</ele>
        <time>2026-05-31T06:49:04.999Z</time>
      </trkpt>
      <trkpt lat="43.752" lon="4.14309">
        <ele>82.3</ele>
        <time>2026-05-31T06:49:05.999Z</time>
      </trkpt>
      <trkpt lat="43.75201" lon="4.1431">
        <ele>82.2</ele>
        <time>2026-05-31T06:49:06.999Z</time>
      </trkpt>
      <trkpt lat="43.75202" lon="4.14311">
        <ele>82.2</ele>
        <time>2026-05-31T06:49:07.999Z</time>
      </trkpt>
      <trkpt lat="43.75203" lon="4.14312">
        <ele>82.2</ele>
        <time>2026-05-31T06:49:08.999Z</time>
      </trkpt>
      <trkpt lat="43.75204" lon="4.14313">
        <ele>82.2</ele>
        <time>2026-05-31T06:49:09.999Z</time>
      </trkpt>
      <trkpt lat="43.75204" lon="4.14314">
        <ele>82.5</ele>
        <time>2026-05-31T06:49:10.999Z</time>
      </trkpt>
      <trkpt lat="43.75205" lon="4.14315">
        <ele>82.7</ele>
        <time>2026-05-31T06:49:11.999Z</time>
      </trkpt>
      <trkpt lat="43.75206" lon="4.14316">
        <ele>83.1</ele>
        <time>2026-05-31T06:49:12.999Z</time>
      </trkpt>
      <trkpt lat="43.75207" lon="4.14318">
        <ele>83.3</ele>
        <time>2026-05-31T06:49:13.999Z</time>
      </trkpt>
      <trkpt lat="43.75208" lon="4.14319">
        <ele>83.3</ele>
        <time>2026-05-31T06:49:14.999Z</time>
      </trkpt>
      <trkpt lat="43.75208" lon="4.1432">
        <ele>83.1</ele>
        <time>2026-05-31T06:49:15.999Z</time>
      </trkpt>
      <trkpt lat="43.75209" lon="4.14321">
        <ele>83.1</ele>
        <time>2026-05-31T06:49:16.999Z</time>
      </trkpt>
      <trkpt lat="43.7521" lon="4.14321">
        <ele>83.1</ele>
        <time>2026-05-31T06:49:18.000Z</time>
      </trkpt>
      <trkpt lat="43.75211" lon="4.14322">
        <ele>83.3</ele>
        <time>2026-05-31T06:49:19.000Z</time>
      </trkpt>
      <trkpt lat="43.75212" lon="4.14323">
        <ele>83.5</ele>
        <time>2026-05-31T06:49:20.000Z</time>
      </trkpt>
      <trkpt lat="43.75213" lon="4.14324">
        <ele>83.7</ele>
        <time>2026-05-31T06:49:21.000Z</time>
      </trkpt>
      <trkpt lat="43.75214" lon="4.14326">
        <ele>83.8</ele>
        <time>2026-05-31T06:49:22.000Z</time>
      </trkpt>
      <trkpt lat="43.75215" lon="4.14326">
        <ele>83.7</ele>
        <time>2026-05-31T06:49:23.000Z</time>
      </trkpt>
      <trkpt lat="43.75215" lon="4.14327">
        <ele>83.5</ele>
        <time>2026-05-31T06:49:24.000Z</time>
      </trkpt>
      <trkpt lat="43.75216" lon="4.14328">
        <ele>83.4</ele>
        <time>2026-05-31T06:49:25.000Z</time>
      </trkpt>
      <trkpt lat="43.75217" lon="4.14329">
        <ele>83.2</ele>
        <time>2026-05-31T06:49:26.000Z</time>
      </trkpt>
      <trkpt lat="43.75218" lon="4.1433">
        <ele>83.1</ele>
        <time>2026-05-31T06:49:27.000Z</time>
      </trkpt>
      <trkpt lat="43.75219" lon="4.14331">
        <ele>83.2</ele>
        <time>2026-05-31T06:49:28.000Z</time>
      </trkpt>
      <trkpt lat="43.7522" lon="4.14332">
        <ele>83.3</ele>
        <time>2026-05-31T06:49:29.000Z</time>
      </trkpt>
      <trkpt lat="43.75221" lon="4.14333">
        <ele>83.3</ele>
        <time>2026-05-31T06:49:30.000Z</time>
      </trkpt>
      <trkpt lat="43.75222" lon="4.14334">
        <ele>83.4</ele>
        <time>2026-05-31T06:49:31.000Z</time>
      </trkpt>
      <trkpt lat="43.75222" lon="4.14335">
        <ele>83.5</ele>
        <time>2026-05-31T06:49:32.000Z</time>
      </trkpt>
      <trkpt lat="43.75223" lon="4.14336">
        <ele>83.4</ele>
        <time>2026-05-31T06:49:33.000Z</time>
      </trkpt>
      <trkpt lat="43.75224" lon="4.14337">
        <ele>83.4</ele>
        <time>2026-05-31T06:49:34.000Z</time>
      </trkpt>
      <trkpt lat="43.75225" lon="4.14339">
        <ele>83.5</ele>
        <time>2026-05-31T06:49:35.000Z</time>
      </trkpt>
      <trkpt lat="43.75226" lon="4.1434">
        <ele>83.5</ele>
        <time>2026-05-31T06:49:36.000Z</time>
      </trkpt>
      <trkpt lat="43.75227" lon="4.14341">
        <ele>83.6</ele>
        <time>2026-05-31T06:49:37.000Z</time>
      </trkpt>
      <trkpt lat="43.75228" lon="4.14343">
        <ele>83.8</ele>
        <time>2026-05-31T06:49:38.000Z</time>
      </trkpt>
      <trkpt lat="43.75228" lon="4.14344">
        <ele>84</ele>
        <time>2026-05-31T06:49:39.000Z</time>
      </trkpt>
      <trkpt lat="43.75229" lon="4.14345">
        <ele>84</ele>
        <time>2026-05-31T06:49:40.000Z</time>
      </trkpt>
      <trkpt lat="43.7523" lon="4.14346">
        <ele>83.8</ele>
        <time>2026-05-31T06:49:41.000Z</time>
      </trkpt>
      <trkpt lat="43.75231" lon="4.14347">
        <ele>83.8</ele>
        <time>2026-05-31T06:49:42.000Z</time>
      </trkpt>
      <trkpt lat="43.75232" lon="4.14348">
        <ele>83.8</ele>
        <time>2026-05-31T06:49:43.000Z</time>
      </trkpt>
      <trkpt lat="43.75233" lon="4.14349">
        <ele>84</ele>
        <time>2026-05-31T06:49:44.000Z</time>
      </trkpt>
      <trkpt lat="43.75235" lon="4.1435">
        <ele>84.2</ele>
        <time>2026-05-31T06:49:45.000Z</time>
      </trkpt>
      <trkpt lat="43.75236" lon="4.14351">
        <ele>84.2</ele>
        <time>2026-05-31T06:49:46.000Z</time>
      </trkpt>
      <trkpt lat="43.75236" lon="4.14351">
        <ele>84.3</ele>
        <time>2026-05-31T06:49:47.000Z</time>
      </trkpt>
      <trkpt lat="43.75237" lon="4.14352">
        <ele>84.3</ele>
        <time>2026-05-31T06:49:48.000Z</time>
      </trkpt>
      <trkpt lat="43.75238" lon="4.14353">
        <ele>84.4</ele>
        <time>2026-05-31T06:49:49.000Z</time>
      </trkpt>
      <trkpt lat="43.7524" lon="4.14354">
        <ele>84.3</ele>
        <time>2026-05-31T06:49:50.000Z</time>
      </trkpt>
      <trkpt lat="43.75241" lon="4.14355">
        <ele>84.5</ele>
        <time>2026-05-31T06:49:51.000Z</time>
      </trkpt>
      <trkpt lat="43.75242" lon="4.14357">
        <ele>85</ele>
        <time>2026-05-31T06:49:52.000Z</time>
      </trkpt>
      <trkpt lat="43.75243" lon="4.14358">
        <ele>85</ele>
        <time>2026-05-31T06:49:53.000Z</time>
      </trkpt>
      <trkpt lat="43.75244" lon="4.14359">
        <ele>85.4</ele>
        <time>2026-05-31T06:49:54.000Z</time>
      </trkpt>
      <trkpt lat="43.75245" lon="4.1436">
        <ele>85.4</ele>
        <time>2026-05-31T06:49:55.000Z</time>
      </trkpt>
      <trkpt lat="43.75245" lon="4.14361">
        <ele>85.3</ele>
        <time>2026-05-31T06:49:56.000Z</time>
      </trkpt>
      <trkpt lat="43.75246" lon="4.14362">
        <ele>85.4</ele>
        <time>2026-05-31T06:49:57.000Z</time>
      </trkpt>
      <trkpt lat="43.75247" lon="4.14362">
        <ele>85.4</ele>
        <time>2026-05-31T06:49:58.000Z</time>
      </trkpt>
      <trkpt lat="43.75248" lon="4.14363">
        <ele>85.5</ele>
        <time>2026-05-31T06:49:59.000Z</time>
      </trkpt>
      <trkpt lat="43.75249" lon="4.14364">
        <ele>85.6</ele>
        <time>2026-05-31T06:50:00.000Z</time>
      </trkpt>
      <trkpt lat="43.7525" lon="4.14366">
        <ele>85.6</ele>
        <time>2026-05-31T06:50:01.000Z</time>
      </trkpt>
      <trkpt lat="43.75251" lon="4.14367">
        <ele>85.9</ele>
        <time>2026-05-31T06:50:02.000Z</time>
      </trkpt>
      <trkpt lat="43.75252" lon="4.14368">
        <ele>85.9</ele>
        <time>2026-05-31T06:50:03.000Z</time>
      </trkpt>
      <trkpt lat="43.75252" lon="4.14369">
        <ele>85.9</ele>
        <time>2026-05-31T06:50:04.000Z</time>
      </trkpt>
      <trkpt lat="43.75253" lon="4.1437">
        <ele>85.7</ele>
        <time>2026-05-31T06:50:05.000Z</time>
      </trkpt>
      <trkpt lat="43.75254" lon="4.14371">
        <ele>85.7</ele>
        <time>2026-05-31T06:50:06.000Z</time>
      </trkpt>
      <trkpt lat="43.75255" lon="4.14371">
        <ele>85.7</ele>
        <time>2026-05-31T06:50:07.000Z</time>
      </trkpt>
      <trkpt lat="43.75256" lon="4.14373">
        <ele>85.7</ele>
        <time>2026-05-31T06:50:08.000Z</time>
      </trkpt>
      <trkpt lat="43.75257" lon="4.14374">
        <ele>85.9</ele>
        <time>2026-05-31T06:50:09.000Z</time>
      </trkpt>
      <trkpt lat="43.75258" lon="4.14375">
        <ele>86</ele>
        <time>2026-05-31T06:50:10.000Z</time>
      </trkpt>
      <trkpt lat="43.7526" lon="4.14376">
        <ele>86.1</ele>
        <time>2026-05-31T06:50:11.000Z</time>
      </trkpt>
      <trkpt lat="43.75261" lon="4.14377">
        <ele>86</ele>
        <time>2026-05-31T06:50:12.000Z</time>
      </trkpt>
      <trkpt lat="43.75262" lon="4.14378">
        <ele>85.9</ele>
        <time>2026-05-31T06:50:13.000Z</time>
      </trkpt>
      <trkpt lat="43.75263" lon="4.14379">
        <ele>86</ele>
        <time>2026-05-31T06:50:14.000Z</time>
      </trkpt>
      <trkpt lat="43.75263" lon="4.14379">
        <ele>86.2</ele>
        <time>2026-05-31T06:50:15.000Z</time>
      </trkpt>
      <trkpt lat="43.75264" lon="4.14381">
        <ele>86.4</ele>
        <time>2026-05-31T06:50:16.000Z</time>
      </trkpt>
      <trkpt lat="43.75265" lon="4.14381">
        <ele>86.4</ele>
        <time>2026-05-31T06:50:17.000Z</time>
      </trkpt>
      <trkpt lat="43.75266" lon="4.14382">
        <ele>86.6</ele>
        <time>2026-05-31T06:50:18.000Z</time>
      </trkpt>
      <trkpt lat="43.75267" lon="4.14383">
        <ele>86.9</ele>
        <time>2026-05-31T06:50:19.000Z</time>
      </trkpt>
      <trkpt lat="43.75268" lon="4.14384">
        <ele>86.9</ele>
        <time>2026-05-31T06:50:20.000Z</time>
      </trkpt>
      <trkpt lat="43.7527" lon="4.14384">
        <ele>87.2</ele>
        <time>2026-05-31T06:50:21.000Z</time>
      </trkpt>
      <trkpt lat="43.75271" lon="4.14385">
        <ele>87.4</ele>
        <time>2026-05-31T06:50:22.000Z</time>
      </trkpt>
      <trkpt lat="43.75272" lon="4.14385">
        <ele>87.3</ele>
        <time>2026-05-31T06:50:23.000Z</time>
      </trkpt>
      <trkpt lat="43.75273" lon="4.14386">
        <ele>87.3</ele>
        <time>2026-05-31T06:50:24.000Z</time>
      </trkpt>
      <trkpt lat="43.75274" lon="4.14386">
        <ele>87.3</ele>
        <time>2026-05-31T06:50:25.000Z</time>
      </trkpt>
      <trkpt lat="43.75276" lon="4.14386">
        <ele>87.2</ele>
        <time>2026-05-31T06:50:26.000Z</time>
      </trkpt>
      <trkpt lat="43.75277" lon="4.14386">
        <ele>87</ele>
        <time>2026-05-31T06:50:27.000Z</time>
      </trkpt>
      <trkpt lat="43.75279" lon="4.14386">
        <ele>87</ele>
        <time>2026-05-31T06:50:28.000Z</time>
      </trkpt>
      <trkpt lat="43.7528" lon="4.14387">
        <ele>86.9</ele>
        <time>2026-05-31T06:50:29.000Z</time>
      </trkpt>
      <trkpt lat="43.75281" lon="4.14388">
        <ele>86.5</ele>
        <time>2026-05-31T06:50:30.000Z</time>
      </trkpt>
      <trkpt lat="43.75282" lon="4.14388">
        <ele>86.3</ele>
        <time>2026-05-31T06:50:31.000Z</time>
      </trkpt>
      <trkpt lat="43.75284" lon="4.14389">
        <ele>86</ele>
        <time>2026-05-31T06:50:32.000Z</time>
      </trkpt>
      <trkpt lat="43.75285" lon="4.14389">
        <ele>85.7</ele>
        <time>2026-05-31T06:50:33.000Z</time>
      </trkpt>
      <trkpt lat="43.75286" lon="4.1439">
        <ele>85.5</ele>
        <time>2026-05-31T06:50:34.000Z</time>
      </trkpt>
      <trkpt lat="43.75287" lon="4.1439">
        <ele>85.8</ele>
        <time>2026-05-31T06:50:35.000Z</time>
      </trkpt>
      <trkpt lat="43.75287" lon="4.14391">
        <ele>85.9</ele>
        <time>2026-05-31T06:50:36.000Z</time>
      </trkpt>
      <trkpt lat="43.75288" lon="4.14392">
        <ele>85.8</ele>
        <time>2026-05-31T06:50:37.000Z</time>
      </trkpt>
      <trkpt lat="43.75289" lon="4.14393">
        <ele>86</ele>
        <time>2026-05-31T06:50:38.000Z</time>
      </trkpt>
      <trkpt lat="43.7529" lon="4.14394">
        <ele>86.1</ele>
        <time>2026-05-31T06:50:39.000Z</time>
      </trkpt>
      <trkpt lat="43.75291" lon="4.14395">
        <ele>86.1</ele>
        <time>2026-05-31T06:50:40.000Z</time>
      </trkpt>
      <trkpt lat="43.75292" lon="4.14395">
        <ele>86.2</ele>
        <time>2026-05-31T06:50:41.000Z</time>
      </trkpt>
      <trkpt lat="43.75293" lon="4.14396">
        <ele>86</ele>
        <time>2026-05-31T06:50:42.000Z</time>
      </trkpt>
      <trkpt lat="43.75294" lon="4.14396">
        <ele>86.5</ele>
        <time>2026-05-31T06:50:43.000Z</time>
      </trkpt>
      <trkpt lat="43.75295" lon="4.14398">
        <ele>86.7</ele>
        <time>2026-05-31T06:50:44.000Z</time>
      </trkpt>
      <trkpt lat="43.75297" lon="4.144">
        <ele>86.8</ele>
        <time>2026-05-31T06:50:45.000Z</time>
      </trkpt>
      <trkpt lat="43.75298" lon="4.14401">
        <ele>86.8</ele>
        <time>2026-05-31T06:50:46.000Z</time>
      </trkpt>
      <trkpt lat="43.75299" lon="4.14403">
        <ele>86.9</ele>
        <time>2026-05-31T06:50:47.000Z</time>
      </trkpt>
      <trkpt lat="43.75299" lon="4.14403">
        <ele>87.2</ele>
        <time>2026-05-31T06:50:48.000Z</time>
      </trkpt>
      <trkpt lat="43.753" lon="4.14403">
        <ele>87.3</ele>
        <time>2026-05-31T06:50:49.000Z</time>
      </trkpt>
      <trkpt lat="43.75301" lon="4.14403">
        <ele>87</ele>
        <time>2026-05-31T06:50:50.000Z</time>
      </trkpt>
      <trkpt lat="43.75302" lon="4.14404">
        <ele>87.2</ele>
        <time>2026-05-31T06:50:51.000Z</time>
      </trkpt>
      <trkpt lat="43.75303" lon="4.14405">
        <ele>87.6</ele>
        <time>2026-05-31T06:50:52.000Z</time>
      </trkpt>
      <trkpt lat="43.75304" lon="4.14406">
        <ele>87.9</ele>
        <time>2026-05-31T06:50:53.000Z</time>
      </trkpt>
      <trkpt lat="43.75305" lon="4.14407">
        <ele>87.9</ele>
        <time>2026-05-31T06:50:54.000Z</time>
      </trkpt>
      <trkpt lat="43.75306" lon="4.14408">
        <ele>87.8</ele>
        <time>2026-05-31T06:50:55.000Z</time>
      </trkpt>
      <trkpt lat="43.75307" lon="4.14409">
        <ele>87.8</ele>
        <time>2026-05-31T06:50:56.000Z</time>
      </trkpt>
      <trkpt lat="43.75309" lon="4.1441">
        <ele>87.7</ele>
        <time>2026-05-31T06:50:57.000Z</time>
      </trkpt>
      <trkpt lat="43.7531" lon="4.14411">
        <ele>87.8</ele>
        <time>2026-05-31T06:50:58.000Z</time>
      </trkpt>
      <trkpt lat="43.75311" lon="4.14412">
        <ele>88.2</ele>
        <time>2026-05-31T06:50:59.000Z</time>
      </trkpt>
      <trkpt lat="43.75312" lon="4.14413">
        <ele>87.9</ele>
        <time>2026-05-31T06:51:00.000Z</time>
      </trkpt>
      <trkpt lat="43.75313" lon="4.14413">
        <ele>87.9</ele>
        <time>2026-05-31T06:51:01.000Z</time>
      </trkpt>
      <trkpt lat="43.75314" lon="4.14414">
        <ele>87.8</ele>
        <time>2026-05-31T06:51:02.000Z</time>
      </trkpt>
      <trkpt lat="43.75315" lon="4.14414">
        <ele>87.7</ele>
        <time>2026-05-31T06:51:03.000Z</time>
      </trkpt>
      <trkpt lat="43.75315" lon="4.14415">
        <ele>87.7</ele>
        <time>2026-05-31T06:51:04.000Z</time>
      </trkpt>
      <trkpt lat="43.75316" lon="4.14416">
        <ele>87.5</ele>
        <time>2026-05-31T06:51:05.000Z</time>
      </trkpt>
      <trkpt lat="43.75317" lon="4.14418">
        <ele>87.2</ele>
        <time>2026-05-31T06:51:06.000Z</time>
      </trkpt>
      <trkpt lat="43.75318" lon="4.14419">
        <ele>86.9</ele>
        <time>2026-05-31T06:51:07.000Z</time>
      </trkpt>
      <trkpt lat="43.75318" lon="4.14421">
        <ele>87.1</ele>
        <time>2026-05-31T06:51:08.000Z</time>
      </trkpt>
      <trkpt lat="43.75319" lon="4.14423">
        <ele>87.1</ele>
        <time>2026-05-31T06:51:09.000Z</time>
      </trkpt>
      <trkpt lat="43.7532" lon="4.14425">
        <ele>87.2</ele>
        <time>2026-05-31T06:51:10.000Z</time>
      </trkpt>
      <trkpt lat="43.7532" lon="4.14426">
        <ele>87.1</ele>
        <time>2026-05-31T06:51:11.000Z</time>
      </trkpt>
      <trkpt lat="43.75321" lon="4.14427">
        <ele>87</ele>
        <time>2026-05-31T06:51:12.000Z</time>
      </trkpt>
      <trkpt lat="43.75322" lon="4.14428">
        <ele>86.7</ele>
        <time>2026-05-31T06:51:13.000Z</time>
      </trkpt>
      <trkpt lat="43.75323" lon="4.1443">
        <ele>86.5</ele>
        <time>2026-05-31T06:51:14.000Z</time>
      </trkpt>
      <trkpt lat="43.75324" lon="4.14432">
        <ele>86.9</ele>
        <time>2026-05-31T06:51:15.000Z</time>
      </trkpt>
      <trkpt lat="43.75325" lon="4.14433">
        <ele>87.1</ele>
        <time>2026-05-31T06:51:16.000Z</time>
      </trkpt>
      <trkpt lat="43.75326" lon="4.14435">
        <ele>87.3</ele>
        <time>2026-05-31T06:51:17.000Z</time>
      </trkpt>
      <trkpt lat="43.75327" lon="4.14436">
        <ele>87.5</ele>
        <time>2026-05-31T06:51:18.000Z</time>
      </trkpt>
      <trkpt lat="43.75328" lon="4.14437">
        <ele>87.6</ele>
        <time>2026-05-31T06:51:19.000Z</time>
      </trkpt>
      <trkpt lat="43.75328" lon="4.14438">
        <ele>87.7</ele>
        <time>2026-05-31T06:51:20.000Z</time>
      </trkpt>
      <trkpt lat="43.75329" lon="4.14439">
        <ele>87.9</ele>
        <time>2026-05-31T06:51:21.000Z</time>
      </trkpt>
      <trkpt lat="43.7533" lon="4.1444">
        <ele>88.1</ele>
        <time>2026-05-31T06:51:22.000Z</time>
      </trkpt>
      <trkpt lat="43.75331" lon="4.1444">
        <ele>88.3</ele>
        <time>2026-05-31T06:51:23.000Z</time>
      </trkpt>
      <trkpt lat="43.75332" lon="4.1444">
        <ele>88.4</ele>
        <time>2026-05-31T06:51:24.000Z</time>
      </trkpt>
      <trkpt lat="43.75333" lon="4.14441">
        <ele>88.4</ele>
        <time>2026-05-31T06:51:25.000Z</time>
      </trkpt>
      <trkpt lat="43.75334" lon="4.14442">
        <ele>88.5</ele>
        <time>2026-05-31T06:51:26.000Z</time>
      </trkpt>
      <trkpt lat="43.75335" lon="4.14444">
        <ele>88.5</ele>
        <time>2026-05-31T06:51:27.000Z</time>
      </trkpt>
      <trkpt lat="43.75335" lon="4.14445">
        <ele>88.5</ele>
        <time>2026-05-31T06:51:28.000Z</time>
      </trkpt>
      <trkpt lat="43.75336" lon="4.14446">
        <ele>88.4</ele>
        <time>2026-05-31T06:51:29.000Z</time>
      </trkpt>
      <trkpt lat="43.75336" lon="4.14446">
        <ele>88.5</ele>
        <time>2026-05-31T06:51:30.000Z</time>
      </trkpt>
      <trkpt lat="43.75337" lon="4.14447">
        <ele>88.8</ele>
        <time>2026-05-31T06:51:31.000Z</time>
      </trkpt>
      <trkpt lat="43.75338" lon="4.14447">
        <ele>89.1</ele>
        <time>2026-05-31T06:51:32.000Z</time>
      </trkpt>
      <trkpt lat="43.75339" lon="4.14448">
        <ele>89.5</ele>
        <time>2026-05-31T06:51:33.000Z</time>
      </trkpt>
      <trkpt lat="43.7534" lon="4.14449">
        <ele>89.7</ele>
        <time>2026-05-31T06:51:34.000Z</time>
      </trkpt>
      <trkpt lat="43.75341" lon="4.1445">
        <ele>89.6</ele>
        <time>2026-05-31T06:51:35.000Z</time>
      </trkpt>
      <trkpt lat="43.75342" lon="4.14451">
        <ele>89.6</ele>
        <time>2026-05-31T06:51:36.000Z</time>
      </trkpt>
      <trkpt lat="43.75343" lon="4.14451">
        <ele>89.5</ele>
        <time>2026-05-31T06:51:37.000Z</time>
      </trkpt>
      <trkpt lat="43.75344" lon="4.14452">
        <ele>89.4</ele>
        <time>2026-05-31T06:51:38.000Z</time>
      </trkpt>
      <trkpt lat="43.75346" lon="4.14453">
        <ele>89.6</ele>
        <time>2026-05-31T06:51:39.000Z</time>
      </trkpt>
      <trkpt lat="43.75347" lon="4.14454">
        <ele>89.3</ele>
        <time>2026-05-31T06:51:40.000Z</time>
      </trkpt>
      <trkpt lat="43.75349" lon="4.14455">
        <ele>89.1</ele>
        <time>2026-05-31T06:51:41.000Z</time>
      </trkpt>
      <trkpt lat="43.7535" lon="4.14456">
        <ele>88.9</ele>
        <time>2026-05-31T06:51:42.000Z</time>
      </trkpt>
      <trkpt lat="43.75351" lon="4.14456">
        <ele>89.1</ele>
        <time>2026-05-31T06:51:43.000Z</time>
      </trkpt>
      <trkpt lat="43.75352" lon="4.14458">
        <ele>88.9</ele>
        <time>2026-05-31T06:51:44.000Z</time>
      </trkpt>
      <trkpt lat="43.75353" lon="4.14459">
        <ele>88.9</ele>
        <time>2026-05-31T06:51:45.000Z</time>
      </trkpt>
      <trkpt lat="43.75353" lon="4.14459">
        <ele>88.7</ele>
        <time>2026-05-31T06:51:46.000Z</time>
      </trkpt>
      <trkpt lat="43.75354" lon="4.1446">
        <ele>88.5</ele>
        <time>2026-05-31T06:51:47.000Z</time>
      </trkpt>
      <trkpt lat="43.75355" lon="4.1446">
        <ele>88.3</ele>
        <time>2026-05-31T06:51:48.000Z</time>
      </trkpt>
      <trkpt lat="43.75356" lon="4.14461">
        <ele>88.2</ele>
        <time>2026-05-31T06:51:49.000Z</time>
      </trkpt>
      <trkpt lat="43.75356" lon="4.14461">
        <ele>88.2</ele>
        <time>2026-05-31T06:51:50.000Z</time>
      </trkpt>
      <trkpt lat="43.75358" lon="4.14463">
        <ele>88.1</ele>
        <time>2026-05-31T06:51:51.000Z</time>
      </trkpt>
      <trkpt lat="43.75359" lon="4.14464">
        <ele>88.1</ele>
        <time>2026-05-31T06:51:52.000Z</time>
      </trkpt>
      <trkpt lat="43.75361" lon="4.14465">
        <ele>88.3</ele>
        <time>2026-05-31T06:51:53.000Z</time>
      </trkpt>
      <trkpt lat="43.75362" lon="4.14465">
        <ele>88.5</ele>
        <time>2026-05-31T06:51:54.000Z</time>
      </trkpt>
      <trkpt lat="43.75364" lon="4.14465">
        <ele>88.7</ele>
        <time>2026-05-31T06:51:55.000Z</time>
      </trkpt>
      <trkpt lat="43.75365" lon="4.14466">
        <ele>89</ele>
        <time>2026-05-31T06:51:56.000Z</time>
      </trkpt>
      <trkpt lat="43.75366" lon="4.14466">
        <ele>89.1</ele>
        <time>2026-05-31T06:51:57.000Z</time>
      </trkpt>
      <trkpt lat="43.75367" lon="4.14466">
        <ele>89.3</ele>
        <time>2026-05-31T06:51:58.000Z</time>
      </trkpt>
      <trkpt lat="43.75369" lon="4.14466">
        <ele>89.2</ele>
        <time>2026-05-31T06:51:59.000Z</time>
      </trkpt>
      <trkpt lat="43.7537" lon="4.14466">
        <ele>89.1</ele>
        <time>2026-05-31T06:52:00.000Z</time>
      </trkpt>
      <trkpt lat="43.75371" lon="4.14466">
        <ele>89.2</ele>
        <time>2026-05-31T06:52:01.000Z</time>
      </trkpt>
      <trkpt lat="43.75372" lon="4.14465">
        <ele>89.5</ele>
        <time>2026-05-31T06:52:02.000Z</time>
      </trkpt>
      <trkpt lat="43.75374" lon="4.14465">
        <ele>89.8</ele>
        <time>2026-05-31T06:52:03.000Z</time>
      </trkpt>
      <trkpt lat="43.75375" lon="4.14464">
        <ele>89.8</ele>
        <time>2026-05-31T06:52:04.000Z</time>
      </trkpt>
      <trkpt lat="43.75376" lon="4.14463">
        <ele>89.9</ele>
        <time>2026-05-31T06:52:05.000Z</time>
      </trkpt>
      <trkpt lat="43.75377" lon="4.14462">
        <ele>89.9</ele>
        <time>2026-05-31T06:52:06.000Z</time>
      </trkpt>
      <trkpt lat="43.75378" lon="4.14461">
        <ele>89.9</ele>
        <time>2026-05-31T06:52:07.000Z</time>
      </trkpt>
      <trkpt lat="43.75379" lon="4.1446">
        <ele>90</ele>
        <time>2026-05-31T06:52:08.000Z</time>
      </trkpt>
      <trkpt lat="43.75381" lon="4.1446">
        <ele>90.4</ele>
        <time>2026-05-31T06:52:09.000Z</time>
      </trkpt>
      <trkpt lat="43.75382" lon="4.14459">
        <ele>90.6</ele>
        <time>2026-05-31T06:52:10.000Z</time>
      </trkpt>
      <trkpt lat="43.75383" lon="4.14459">
        <ele>90.7</ele>
        <time>2026-05-31T06:52:11.000Z</time>
      </trkpt>
      <trkpt lat="43.75384" lon="4.14458">
        <ele>90.8</ele>
        <time>2026-05-31T06:52:12.000Z</time>
      </trkpt>
      <trkpt lat="43.75386" lon="4.14458">
        <ele>90.8</ele>
        <time>2026-05-31T06:52:13.000Z</time>
      </trkpt>
      <trkpt lat="43.75386" lon="4.14457">
        <ele>91.3</ele>
        <time>2026-05-31T06:52:14.000Z</time>
      </trkpt>
      <trkpt lat="43.75388" lon="4.14457">
        <ele>91.2</ele>
        <time>2026-05-31T06:52:15.000Z</time>
      </trkpt>
      <trkpt lat="43.75389" lon="4.14457">
        <ele>91.3</ele>
        <time>2026-05-31T06:52:16.000Z</time>
      </trkpt>
      <trkpt lat="43.75389" lon="4.14457">
        <ele>91</ele>
        <time>2026-05-31T06:52:17.000Z</time>
      </trkpt>
      <trkpt lat="43.7539" lon="4.14457">
        <ele>90.9</ele>
        <time>2026-05-31T06:52:18.000Z</time>
      </trkpt>
      <trkpt lat="43.75391" lon="4.14457">
        <ele>90.7</ele>
        <time>2026-05-31T06:52:19.000Z</time>
      </trkpt>
      <trkpt lat="43.75392" lon="4.14457">
        <ele>90.6</ele>
        <time>2026-05-31T06:52:20.000Z</time>
      </trkpt>
      <trkpt lat="43.75393" lon="4.14457">
        <ele>90.6</ele>
        <time>2026-05-31T06:52:21.000Z</time>
      </trkpt>
      <trkpt lat="43.75394" lon="4.14457">
        <ele>90.6</ele>
        <time>2026-05-31T06:52:22.000Z</time>
      </trkpt>
      <trkpt lat="43.75395" lon="4.14457">
        <ele>90.7</ele>
        <time>2026-05-31T06:52:23.000Z</time>
      </trkpt>
      <trkpt lat="43.75396" lon="4.14457">
        <ele>90.5</ele>
        <time>2026-05-31T06:52:24.000Z</time>
      </trkpt>
      <trkpt lat="43.75397" lon="4.14458">
        <ele>90.4</ele>
        <time>2026-05-31T06:52:25.000Z</time>
      </trkpt>
      <trkpt lat="43.75398" lon="4.14458">
        <ele>90.6</ele>
        <time>2026-05-31T06:52:26.000Z</time>
      </trkpt>
      <trkpt lat="43.75399" lon="4.14458">
        <ele>90.9</ele>
        <time>2026-05-31T06:52:27.000Z</time>
      </trkpt>
      <trkpt lat="43.75401" lon="4.14458">
        <ele>91.2</ele>
        <time>2026-05-31T06:52:28.000Z</time>
      </trkpt>
      <trkpt lat="43.75402" lon="4.14457">
        <ele>91.1</ele>
        <time>2026-05-31T06:52:29.000Z</time>
      </trkpt>
      <trkpt lat="43.75403" lon="4.14456">
        <ele>91.3</ele>
        <time>2026-05-31T06:52:30.000Z</time>
      </trkpt>
      <trkpt lat="43.75405" lon="4.14457">
        <ele>91.2</ele>
        <time>2026-05-31T06:52:31.000Z</time>
      </trkpt>
      <trkpt lat="43.75406" lon="4.14457">
        <ele>91</ele>
        <time>2026-05-31T06:52:32.000Z</time>
      </trkpt>
      <trkpt lat="43.75407" lon="4.14457">
        <ele>90.5</ele>
        <time>2026-05-31T06:52:33.000Z</time>
      </trkpt>
      <trkpt lat="43.75408" lon="4.14458">
        <ele>90.2</ele>
        <time>2026-05-31T06:52:34.000Z</time>
      </trkpt>
      <trkpt lat="43.75409" lon="4.14458">
        <ele>90.2</ele>
        <time>2026-05-31T06:52:35.000Z</time>
      </trkpt>
      <trkpt lat="43.75411" lon="4.14458">
        <ele>90.4</ele>
        <time>2026-05-31T06:52:36.000Z</time>
      </trkpt>
      <trkpt lat="43.75412" lon="4.14457">
        <ele>90.4</ele>
        <time>2026-05-31T06:52:37.000Z</time>
      </trkpt>
      <trkpt lat="43.75413" lon="4.14458">
        <ele>90.6</ele>
        <time>2026-05-31T06:52:38.000Z</time>
      </trkpt>
      <trkpt lat="43.75414" lon="4.14458">
        <ele>90.7</ele>
        <time>2026-05-31T06:52:39.000Z</time>
      </trkpt>
      <trkpt lat="43.75415" lon="4.14458">
        <ele>90.8</ele>
        <time>2026-05-31T06:52:40.000Z</time>
      </trkpt>
      <trkpt lat="43.75416" lon="4.14459">
        <ele>91</ele>
        <time>2026-05-31T06:52:41.000Z</time>
      </trkpt>
      <trkpt lat="43.75418" lon="4.14459">
        <ele>91.2</ele>
        <time>2026-05-31T06:52:42.000Z</time>
      </trkpt>
      <trkpt lat="43.75419" lon="4.14459">
        <ele>91.5</ele>
        <time>2026-05-31T06:52:43.000Z</time>
      </trkpt>
      <trkpt lat="43.7542" lon="4.14459">
        <ele>91.7</ele>
        <time>2026-05-31T06:52:44.000Z</time>
      </trkpt>
      <trkpt lat="43.75422" lon="4.14459">
        <ele>91.5</ele>
        <time>2026-05-31T06:52:45.000Z</time>
      </trkpt>
      <trkpt lat="43.75423" lon="4.1446">
        <ele>91.4</ele>
        <time>2026-05-31T06:52:46.000Z</time>
      </trkpt>
      <trkpt lat="43.75424" lon="4.1446">
        <ele>91.3</ele>
        <time>2026-05-31T06:52:47.000Z</time>
      </trkpt>
      <trkpt lat="43.75425" lon="4.14461">
        <ele>91.6</ele>
        <time>2026-05-31T06:52:48.000Z</time>
      </trkpt>
      <trkpt lat="43.75426" lon="4.14461">
        <ele>91.6</ele>
        <time>2026-05-31T06:52:49.000Z</time>
      </trkpt>
      <trkpt lat="43.75427" lon="4.14461">
        <ele>91.7</ele>
        <time>2026-05-31T06:52:50.000Z</time>
      </trkpt>
      <trkpt lat="43.75428" lon="4.14461">
        <ele>91.6</ele>
        <time>2026-05-31T06:52:51.000Z</time>
      </trkpt>
      <trkpt lat="43.75429" lon="4.14462">
        <ele>91.3</ele>
        <time>2026-05-31T06:52:52.000Z</time>
      </trkpt>
      <trkpt lat="43.7543" lon="4.14462">
        <ele>91.3</ele>
        <time>2026-05-31T06:52:53.000Z</time>
      </trkpt>
      <trkpt lat="43.7543" lon="4.14463">
        <ele>91.2</ele>
        <time>2026-05-31T06:52:54.000Z</time>
      </trkpt>
      <trkpt lat="43.75431" lon="4.14463">
        <ele>91.2</ele>
        <time>2026-05-31T06:52:55.000Z</time>
      </trkpt>
      <trkpt lat="43.75431" lon="4.14464">
        <ele>91.2</ele>
        <time>2026-05-31T06:52:56.000Z</time>
      </trkpt>
      <trkpt lat="43.75432" lon="4.14464">
        <ele>91.1</ele>
        <time>2026-05-31T06:52:57.000Z</time>
      </trkpt>
      <trkpt lat="43.75433" lon="4.14464">
        <ele>91.1</ele>
        <time>2026-05-31T06:52:58.000Z</time>
      </trkpt>
      <trkpt lat="43.75434" lon="4.14464">
        <ele>91.4</ele>
        <time>2026-05-31T06:52:59.000Z</time>
      </trkpt>
      <trkpt lat="43.75436" lon="4.14464">
        <ele>91.5</ele>
        <time>2026-05-31T06:53:00.000Z</time>
      </trkpt>
      <trkpt lat="43.75437" lon="4.14465">
        <ele>91.5</ele>
        <time>2026-05-31T06:53:01.000Z</time>
      </trkpt>
      <trkpt lat="43.75437" lon="4.14466">
        <ele>91.8</ele>
        <time>2026-05-31T06:53:02.000Z</time>
      </trkpt>
      <trkpt lat="43.75438" lon="4.14466">
        <ele>92.1</ele>
        <time>2026-05-31T06:53:03.000Z</time>
      </trkpt>
      <trkpt lat="43.7544" lon="4.14467">
        <ele>92.1</ele>
        <time>2026-05-31T06:53:04.000Z</time>
      </trkpt>
      <trkpt lat="43.75442" lon="4.14467">
        <ele>92.1</ele>
        <time>2026-05-31T06:53:05.000Z</time>
      </trkpt>
      <trkpt lat="43.75443" lon="4.14468">
        <ele>92.6</ele>
        <time>2026-05-31T06:53:06.000Z</time>
      </trkpt>
      <trkpt lat="43.75445" lon="4.14468">
        <ele>92.6</ele>
        <time>2026-05-31T06:53:07.000Z</time>
      </trkpt>
      <trkpt lat="43.75446" lon="4.14469">
        <ele>92.8</ele>
        <time>2026-05-31T06:53:08.000Z</time>
      </trkpt>
      <trkpt lat="43.75447" lon="4.14469">
        <ele>92.9</ele>
        <time>2026-05-31T06:53:09.000Z</time>
      </trkpt>
      <trkpt lat="43.75448" lon="4.14469">
        <ele>92.9</ele>
        <time>2026-05-31T06:53:10.000Z</time>
      </trkpt>
      <trkpt lat="43.7545" lon="4.14469">
        <ele>92.8</ele>
        <time>2026-05-31T06:53:11.000Z</time>
      </trkpt>
      <trkpt lat="43.75451" lon="4.1447">
        <ele>92.9</ele>
        <time>2026-05-31T06:53:12.000Z</time>
      </trkpt>
      <trkpt lat="43.75452" lon="4.14471">
        <ele>93</ele>
        <time>2026-05-31T06:53:13.000Z</time>
      </trkpt>
      <trkpt lat="43.75453" lon="4.14471">
        <ele>92.7</ele>
        <time>2026-05-31T06:53:14.000Z</time>
      </trkpt>
      <trkpt lat="43.75453" lon="4.14472">
        <ele>92.6</ele>
        <time>2026-05-31T06:53:15.000Z</time>
      </trkpt>
      <trkpt lat="43.75454" lon="4.14473">
        <ele>92.5</ele>
        <time>2026-05-31T06:53:16.000Z</time>
      </trkpt>
      <trkpt lat="43.75455" lon="4.14473">
        <ele>92.4</ele>
        <time>2026-05-31T06:53:17.000Z</time>
      </trkpt>
      <trkpt lat="43.75456" lon="4.14474">
        <ele>92.3</ele>
        <time>2026-05-31T06:53:18.000Z</time>
      </trkpt>
      <trkpt lat="43.75458" lon="4.14475">
        <ele>92.3</ele>
        <time>2026-05-31T06:53:19.000Z</time>
      </trkpt>
      <trkpt lat="43.75459" lon="4.14475">
        <ele>92.2</ele>
        <time>2026-05-31T06:53:20.000Z</time>
      </trkpt>
      <trkpt lat="43.7546" lon="4.14475">
        <ele>92.5</ele>
        <time>2026-05-31T06:53:21.000Z</time>
      </trkpt>
      <trkpt lat="43.75461" lon="4.14475">
        <ele>92.5</ele>
        <time>2026-05-31T06:53:22.000Z</time>
      </trkpt>
      <trkpt lat="43.75462" lon="4.14476">
        <ele>92.5</ele>
        <time>2026-05-31T06:53:23.000Z</time>
      </trkpt>
      <trkpt lat="43.75463" lon="4.14476">
        <ele>92.2</ele>
        <time>2026-05-31T06:53:24.000Z</time>
      </trkpt>
      <trkpt lat="43.75464" lon="4.14478">
        <ele>92</ele>
        <time>2026-05-31T06:53:25.000Z</time>
      </trkpt>
      <trkpt lat="43.75465" lon="4.14478">
        <ele>92.1</ele>
        <time>2026-05-31T06:53:26.000Z</time>
      </trkpt>
      <trkpt lat="43.75466" lon="4.14479">
        <ele>92.2</ele>
        <time>2026-05-31T06:53:27.000Z</time>
      </trkpt>
      <trkpt lat="43.75467" lon="4.1448">
        <ele>92.5</ele>
        <time>2026-05-31T06:53:28.000Z</time>
      </trkpt>
      <trkpt lat="43.75467" lon="4.14481">
        <ele>92.3</ele>
        <time>2026-05-31T06:53:29.000Z</time>
      </trkpt>
      <trkpt lat="43.75468" lon="4.14482">
        <ele>92.1</ele>
        <time>2026-05-31T06:53:30.000Z</time>
      </trkpt>
      <trkpt lat="43.75469" lon="4.14483">
        <ele>91.9</ele>
        <time>2026-05-31T06:53:31.000Z</time>
      </trkpt>
      <trkpt lat="43.7547" lon="4.14484">
        <ele>91.6</ele>
        <time>2026-05-31T06:53:32.000Z</time>
      </trkpt>
      <trkpt lat="43.75471" lon="4.14486">
        <ele>91.4</ele>
        <time>2026-05-31T06:53:33.000Z</time>
      </trkpt>
      <trkpt lat="43.75472" lon="4.14487">
        <ele>91.5</ele>
        <time>2026-05-31T06:53:34.000Z</time>
      </trkpt>
      <trkpt lat="43.75473" lon="4.14487">
        <ele>91.4</ele>
        <time>2026-05-31T06:53:35.000Z</time>
      </trkpt>
      <trkpt lat="43.75474" lon="4.14487">
        <ele>91.5</ele>
        <time>2026-05-31T06:53:36.000Z</time>
      </trkpt>
      <trkpt lat="43.75475" lon="4.14488">
        <ele>91.5</ele>
        <time>2026-05-31T06:53:37.000Z</time>
      </trkpt>
      <trkpt lat="43.75476" lon="4.14489">
        <ele>91.2</ele>
        <time>2026-05-31T06:53:38.000Z</time>
      </trkpt>
      <trkpt lat="43.75478" lon="4.14489">
        <ele>91.2</ele>
        <time>2026-05-31T06:53:39.000Z</time>
      </trkpt>
      <trkpt lat="43.75479" lon="4.1449">
        <ele>91.4</ele>
        <time>2026-05-31T06:53:40.000Z</time>
      </trkpt>
      <trkpt lat="43.75479" lon="4.14491">
        <ele>91.3</ele>
        <time>2026-05-31T06:53:41.000Z</time>
      </trkpt>
      <trkpt lat="43.7548" lon="4.14492">
        <ele>91.3</ele>
        <time>2026-05-31T06:53:42.000Z</time>
      </trkpt>
      <trkpt lat="43.75481" lon="4.14494">
        <ele>91.5</ele>
        <time>2026-05-31T06:53:43.000Z</time>
      </trkpt>
      <trkpt lat="43.75482" lon="4.14495">
        <ele>91.6</ele>
        <time>2026-05-31T06:53:44.000Z</time>
      </trkpt>
      <trkpt lat="43.75483" lon="4.14496">
        <ele>91.7</ele>
        <time>2026-05-31T06:53:45.000Z</time>
      </trkpt>
      <trkpt lat="43.75484" lon="4.14497">
        <ele>91.8</ele>
        <time>2026-05-31T06:53:46.000Z</time>
      </trkpt>
      <trkpt lat="43.75485" lon="4.14498">
        <ele>92.1</ele>
        <time>2026-05-31T06:53:47.000Z</time>
      </trkpt>
      <trkpt lat="43.75486" lon="4.14498">
        <ele>92.2</ele>
        <time>2026-05-31T06:53:48.000Z</time>
      </trkpt>
      <trkpt lat="43.75487" lon="4.14499">
        <ele>92.1</ele>
        <time>2026-05-31T06:53:49.000Z</time>
      </trkpt>
      <trkpt lat="43.75488" lon="4.145">
        <ele>92.1</ele>
        <time>2026-05-31T06:53:50.000Z</time>
      </trkpt>
      <trkpt lat="43.75489" lon="4.145">
        <ele>92.3</ele>
        <time>2026-05-31T06:53:51.000Z</time>
      </trkpt>
      <trkpt lat="43.7549" lon="4.145">
        <ele>92.8</ele>
        <time>2026-05-31T06:53:52.000Z</time>
      </trkpt>
      <trkpt lat="43.7549" lon="4.14502">
        <ele>93</ele>
        <time>2026-05-31T06:53:53.000Z</time>
      </trkpt>
      <trkpt lat="43.75491" lon="4.14503">
        <ele>93.2</ele>
        <time>2026-05-31T06:53:54.000Z</time>
      </trkpt>
      <trkpt lat="43.75492" lon="4.14504">
        <ele>92.9</ele>
        <time>2026-05-31T06:53:55.000Z</time>
      </trkpt>
      <trkpt lat="43.75493" lon="4.14506">
        <ele>92.6</ele>
        <time>2026-05-31T06:53:56.000Z</time>
      </trkpt>
      <trkpt lat="43.75494" lon="4.14507">
        <ele>92.6</ele>
        <time>2026-05-31T06:53:57.000Z</time>
      </trkpt>
      <trkpt lat="43.75495" lon="4.14508">
        <ele>92.6</ele>
        <time>2026-05-31T06:53:58.000Z</time>
      </trkpt>
      <trkpt lat="43.75496" lon="4.14509">
        <ele>92.5</ele>
        <time>2026-05-31T06:53:59.000Z</time>
      </trkpt>
      <trkpt lat="43.75497" lon="4.1451">
        <ele>92.5</ele>
        <time>2026-05-31T06:54:00.000Z</time>
      </trkpt>
      <trkpt lat="43.75498" lon="4.14511">
        <ele>92.2</ele>
        <time>2026-05-31T06:54:01.000Z</time>
      </trkpt>
      <trkpt lat="43.75498" lon="4.14512">
        <ele>92</ele>
        <time>2026-05-31T06:54:02.000Z</time>
      </trkpt>
      <trkpt lat="43.755" lon="4.14512">
        <ele>92.1</ele>
        <time>2026-05-31T06:54:03.000Z</time>
      </trkpt>
      <trkpt lat="43.755" lon="4.14513">
        <ele>92.3</ele>
        <time>2026-05-31T06:54:04.000Z</time>
      </trkpt>
      <trkpt lat="43.75501" lon="4.14514">
        <ele>92.6</ele>
        <time>2026-05-31T06:54:05.000Z</time>
      </trkpt>
      <trkpt lat="43.75502" lon="4.14515">
        <ele>92.8</ele>
        <time>2026-05-31T06:54:06.000Z</time>
      </trkpt>
      <trkpt lat="43.75502" lon="4.14515">
        <ele>92.9</ele>
        <time>2026-05-31T06:54:07.000Z</time>
      </trkpt>
      <trkpt lat="43.75503" lon="4.14515">
        <ele>93.2</ele>
        <time>2026-05-31T06:54:08.000Z</time>
      </trkpt>
      <trkpt lat="43.75503" lon="4.14516">
        <ele>93.4</ele>
        <time>2026-05-31T06:54:09.000Z</time>
      </trkpt>
      <trkpt lat="43.75504" lon="4.14517">
        <ele>93.8</ele>
        <time>2026-05-31T06:54:10.000Z</time>
      </trkpt>
      <trkpt lat="43.75505" lon="4.14518">
        <ele>94.2</ele>
        <time>2026-05-31T06:54:11.000Z</time>
      </trkpt>
      <trkpt lat="43.75506" lon="4.14518">
        <ele>94.5</ele>
        <time>2026-05-31T06:54:12.000Z</time>
      </trkpt>
      <trkpt lat="43.75507" lon="4.14518">
        <ele>94.6</ele>
        <time>2026-05-31T06:54:13.000Z</time>
      </trkpt>
      <trkpt lat="43.75509" lon="4.14518">
        <ele>94.9</ele>
        <time>2026-05-31T06:54:14.000Z</time>
      </trkpt>
      <trkpt lat="43.7551" lon="4.14518">
        <ele>94.7</ele>
        <time>2026-05-31T06:54:16.000Z</time>
      </trkpt>
      <trkpt lat="43.75511" lon="4.14519">
        <ele>94.7</ele>
        <time>2026-05-31T06:54:17.000Z</time>
      </trkpt>
      <trkpt lat="43.75512" lon="4.14519">
        <ele>95</ele>
        <time>2026-05-31T06:54:18.000Z</time>
      </trkpt>
      <trkpt lat="43.75514" lon="4.1452">
        <ele>94.9</ele>
        <time>2026-05-31T06:54:19.000Z</time>
      </trkpt>
      <trkpt lat="43.75515" lon="4.1452">
        <ele>94.8</ele>
        <time>2026-05-31T06:54:20.000Z</time>
      </trkpt>
      <trkpt lat="43.75516" lon="4.14521">
        <ele>95</ele>
        <time>2026-05-31T06:54:21.000Z</time>
      </trkpt>
      <trkpt lat="43.75516" lon="4.14521">
        <ele>95</ele>
        <time>2026-05-31T06:54:22.000Z</time>
      </trkpt>
      <trkpt lat="43.75517" lon="4.14522">
        <ele>95.2</ele>
        <time>2026-05-31T06:54:23.000Z</time>
      </trkpt>
      <trkpt lat="43.75518" lon="4.14523">
        <ele>95.1</ele>
        <time>2026-05-31T06:54:24.000Z</time>
      </trkpt>
      <trkpt lat="43.75519" lon="4.14523">
        <ele>95.1</ele>
        <time>2026-05-31T06:54:25.000Z</time>
      </trkpt>
      <trkpt lat="43.7552" lon="4.14523">
        <ele>95</ele>
        <time>2026-05-31T06:54:26.000Z</time>
      </trkpt>
      <trkpt lat="43.75522" lon="4.14524">
        <ele>95.1</ele>
        <time>2026-05-31T06:54:27.000Z</time>
      </trkpt>
      <trkpt lat="43.75523" lon="4.14524">
        <ele>95.3</ele>
        <time>2026-05-31T06:54:28.000Z</time>
      </trkpt>
      <trkpt lat="43.75524" lon="4.14524">
        <ele>95.2</ele>
        <time>2026-05-31T06:54:29.000Z</time>
      </trkpt>
      <trkpt lat="43.75527" lon="4.14524">
        <ele>95.3</ele>
        <time>2026-05-31T06:54:31.000Z</time>
      </trkpt>
      <trkpt lat="43.75528" lon="4.14524">
        <ele>95.4</ele>
        <time>2026-05-31T06:54:32.000Z</time>
      </trkpt>
      <trkpt lat="43.75528" lon="4.14525">
        <ele>95.3</ele>
        <time>2026-05-31T06:54:33.000Z</time>
      </trkpt>
      <trkpt lat="43.75529" lon="4.14526">
        <ele>95.3</ele>
        <time>2026-05-31T06:54:34.000Z</time>
      </trkpt>
      <trkpt lat="43.7553" lon="4.14526">
        <ele>95.1</ele>
        <time>2026-05-31T06:54:35.000Z</time>
      </trkpt>
      <trkpt lat="43.75532" lon="4.14526">
        <ele>94.9</ele>
        <time>2026-05-31T06:54:36.000Z</time>
      </trkpt>
      <trkpt lat="43.75532" lon="4.14527">
        <ele>94.8</ele>
        <time>2026-05-31T06:54:37.000Z</time>
      </trkpt>
      <trkpt lat="43.75533" lon="4.14528">
        <ele>94.7</ele>
        <time>2026-05-31T06:54:38.000Z</time>
      </trkpt>
      <trkpt lat="43.75534" lon="4.14528">
        <ele>94.3</ele>
        <time>2026-05-31T06:54:39.000Z</time>
      </trkpt>
      <trkpt lat="43.75535" lon="4.14529">
        <ele>94.2</ele>
        <time>2026-05-31T06:54:40.000Z</time>
      </trkpt>
      <trkpt lat="43.75536" lon="4.14529">
        <ele>94.2</ele>
        <time>2026-05-31T06:54:41.000Z</time>
      </trkpt>
      <trkpt lat="43.75537" lon="4.14528">
        <ele>94.2</ele>
        <time>2026-05-31T06:54:42.000Z</time>
      </trkpt>
      <trkpt lat="43.75538" lon="4.14529">
        <ele>93.9</ele>
        <time>2026-05-31T06:54:43.000Z</time>
      </trkpt>
      <trkpt lat="43.7554" lon="4.14529">
        <ele>94.2</ele>
        <time>2026-05-31T06:54:44.000Z</time>
      </trkpt>
      <trkpt lat="43.75541" lon="4.14529">
        <ele>93.9</ele>
        <time>2026-05-31T06:54:45.000Z</time>
      </trkpt>
      <trkpt lat="43.75543" lon="4.1453">
        <ele>93.2</ele>
        <time>2026-05-31T06:54:46.000Z</time>
      </trkpt>
      <trkpt lat="43.75544" lon="4.1453">
        <ele>93</ele>
        <time>2026-05-31T06:54:47.000Z</time>
      </trkpt>
      <trkpt lat="43.75545" lon="4.14529">
        <ele>93.3</ele>
        <time>2026-05-31T06:54:48.000Z</time>
      </trkpt>
      <trkpt lat="43.75546" lon="4.14528">
        <ele>93.7</ele>
        <time>2026-05-31T06:54:49.000Z</time>
      </trkpt>
      <trkpt lat="43.75547" lon="4.14528">
        <ele>93.9</ele>
        <time>2026-05-31T06:54:50.000Z</time>
      </trkpt>
      <trkpt lat="43.75548" lon="4.14528">
        <ele>93.8</ele>
        <time>2026-05-31T06:54:51.000Z</time>
      </trkpt>
      <trkpt lat="43.7555" lon="4.14528">
        <ele>93.3</ele>
        <time>2026-05-31T06:54:52.000Z</time>
      </trkpt>
      <trkpt lat="43.75551" lon="4.14528">
        <ele>93.6</ele>
        <time>2026-05-31T06:54:53.000Z</time>
      </trkpt>
      <trkpt lat="43.75553" lon="4.14528">
        <ele>93.8</ele>
        <time>2026-05-31T06:54:54.000Z</time>
      </trkpt>
      <trkpt lat="43.75554" lon="4.14528">
        <ele>93.8</ele>
        <time>2026-05-31T06:54:55.000Z</time>
      </trkpt>
      <trkpt lat="43.75555" lon="4.14529">
        <ele>93.8</ele>
        <time>2026-05-31T06:54:56.000Z</time>
      </trkpt>
      <trkpt lat="43.75556" lon="4.1453">
        <ele>93.5</ele>
        <time>2026-05-31T06:54:57.000Z</time>
      </trkpt>
      <trkpt lat="43.75557" lon="4.1453">
        <ele>93.3</ele>
        <time>2026-05-31T06:54:58.000Z</time>
      </trkpt>
      <trkpt lat="43.75557" lon="4.14531">
        <ele>93.8</ele>
        <time>2026-05-31T06:54:59.000Z</time>
      </trkpt>
      <trkpt lat="43.75558" lon="4.14533">
        <ele>93.9</ele>
        <time>2026-05-31T06:55:00.000Z</time>
      </trkpt>
      <trkpt lat="43.75559" lon="4.14534">
        <ele>94.1</ele>
        <time>2026-05-31T06:55:01.000Z</time>
      </trkpt>
      <trkpt lat="43.7556" lon="4.14535">
        <ele>94.5</ele>
        <time>2026-05-31T06:55:02.000Z</time>
      </trkpt>
      <trkpt lat="43.75561" lon="4.14535">
        <ele>94.8</ele>
        <time>2026-05-31T06:55:03.000Z</time>
      </trkpt>
      <trkpt lat="43.75562" lon="4.14536">
        <ele>95.1</ele>
        <time>2026-05-31T06:55:04.000Z</time>
      </trkpt>
      <trkpt lat="43.75563" lon="4.14536">
        <ele>95.1</ele>
        <time>2026-05-31T06:55:05.000Z</time>
      </trkpt>
      <trkpt lat="43.75564" lon="4.14536">
        <ele>95</ele>
        <time>2026-05-31T06:55:06.000Z</time>
      </trkpt>
      <trkpt lat="43.75565" lon="4.14536">
        <ele>95</ele>
        <time>2026-05-31T06:55:07.000Z</time>
      </trkpt>
      <trkpt lat="43.75566" lon="4.14536">
        <ele>94.9</ele>
        <time>2026-05-31T06:55:08.000Z</time>
      </trkpt>
      <trkpt lat="43.75567" lon="4.14537">
        <ele>94.8</ele>
        <time>2026-05-31T06:55:09.000Z</time>
      </trkpt>
      <trkpt lat="43.75567" lon="4.14537">
        <ele>94.6</ele>
        <time>2026-05-31T06:55:10.000Z</time>
      </trkpt>
      <trkpt lat="43.75568" lon="4.14537">
        <ele>94.7</ele>
        <time>2026-05-31T06:55:11.000Z</time>
      </trkpt>
      <trkpt lat="43.75568" lon="4.14536">
        <ele>94.9</ele>
        <time>2026-05-31T06:55:12.000Z</time>
      </trkpt>
      <trkpt lat="43.75569" lon="4.14536">
        <ele>95</ele>
        <time>2026-05-31T06:55:13.000Z</time>
      </trkpt>
      <trkpt lat="43.7557" lon="4.14535">
        <ele>94.9</ele>
        <time>2026-05-31T06:55:14.000Z</time>
      </trkpt>
      <trkpt lat="43.75571" lon="4.14535">
        <ele>94.7</ele>
        <time>2026-05-31T06:55:15.000Z</time>
      </trkpt>
      <trkpt lat="43.75571" lon="4.14535">
        <ele>94.3</ele>
        <time>2026-05-31T06:55:16.000Z</time>
      </trkpt>
      <trkpt lat="43.75572" lon="4.14534">
        <ele>94</ele>
        <time>2026-05-31T06:55:17.000Z</time>
      </trkpt>
      <trkpt lat="43.75573" lon="4.14534">
        <ele>93.9</ele>
        <time>2026-05-31T06:55:18.000Z</time>
      </trkpt>
      <trkpt lat="43.75574" lon="4.14534">
        <ele>94.1</ele>
        <time>2026-05-31T06:55:19.000Z</time>
      </trkpt>
      <trkpt lat="43.75575" lon="4.14534">
        <ele>94.3</ele>
        <time>2026-05-31T06:55:20.000Z</time>
      </trkpt>
      <trkpt lat="43.75576" lon="4.14533">
        <ele>94.6</ele>
        <time>2026-05-31T06:55:21.000Z</time>
      </trkpt>
      <trkpt lat="43.75577" lon="4.14532">
        <ele>94.8</ele>
        <time>2026-05-31T06:55:22.000Z</time>
      </trkpt>
      <trkpt lat="43.75578" lon="4.14532">
        <ele>95.2</ele>
        <time>2026-05-31T06:55:23.000Z</time>
      </trkpt>
      <trkpt lat="43.75579" lon="4.14531">
        <ele>95.3</ele>
        <time>2026-05-31T06:55:24.000Z</time>
      </trkpt>
      <trkpt lat="43.75581" lon="4.1453">
        <ele>95.4</ele>
        <time>2026-05-31T06:55:25.000Z</time>
      </trkpt>
      <trkpt lat="43.75582" lon="4.1453">
        <ele>95.8</ele>
        <time>2026-05-31T06:55:26.000Z</time>
      </trkpt>
      <trkpt lat="43.75583" lon="4.1453">
        <ele>95.7</ele>
        <time>2026-05-31T06:55:27.000Z</time>
      </trkpt>
      <trkpt lat="43.75585" lon="4.1453">
        <ele>95.8</ele>
        <time>2026-05-31T06:55:28.000Z</time>
      </trkpt>
      <trkpt lat="43.75586" lon="4.14529">
        <ele>95.5</ele>
        <time>2026-05-31T06:55:29.000Z</time>
      </trkpt>
      <trkpt lat="43.75587" lon="4.14529">
        <ele>95.5</ele>
        <time>2026-05-31T06:55:30.000Z</time>
      </trkpt>
      <trkpt lat="43.75588" lon="4.14529">
        <ele>95.4</ele>
        <time>2026-05-31T06:55:31.000Z</time>
      </trkpt>
      <trkpt lat="43.75588" lon="4.14529">
        <ele>95.3</ele>
        <time>2026-05-31T06:55:32.000Z</time>
      </trkpt>
      <trkpt lat="43.75588" lon="4.14528">
        <ele>95.4</ele>
        <time>2026-05-31T06:55:33.000Z</time>
      </trkpt>
      <trkpt lat="43.75589" lon="4.14529">
        <ele>95.2</ele>
        <time>2026-05-31T06:55:34.000Z</time>
      </trkpt>
      <trkpt lat="43.7559" lon="4.14529">
        <ele>95.2</ele>
        <time>2026-05-31T06:55:35.000Z</time>
      </trkpt>
      <trkpt lat="43.75591" lon="4.14529">
        <ele>95.3</ele>
        <time>2026-05-31T06:55:36.000Z</time>
      </trkpt>
      <trkpt lat="43.75591" lon="4.14528">
        <ele>95.4</ele>
        <time>2026-05-31T06:55:37.000Z</time>
      </trkpt>
      <trkpt lat="43.75592" lon="4.14528">
        <ele>95.7</ele>
        <time>2026-05-31T06:55:38.000Z</time>
      </trkpt>
      <trkpt lat="43.75593" lon="4.14528">
        <ele>95.5</ele>
        <time>2026-05-31T06:55:39.000Z</time>
      </trkpt>
      <trkpt lat="43.75594" lon="4.14527">
        <ele>95.4</ele>
        <time>2026-05-31T06:55:40.000Z</time>
      </trkpt>
      <trkpt lat="43.75594" lon="4.14526">
        <ele>95.8</ele>
        <time>2026-05-31T06:55:41.000Z</time>
      </trkpt>
      <trkpt lat="43.75595" lon="4.14525">
        <ele>95.8</ele>
        <time>2026-05-31T06:55:42.000Z</time>
      </trkpt>
      <trkpt lat="43.75595" lon="4.14524">
        <ele>95.7</ele>
        <time>2026-05-31T06:55:43.000Z</time>
      </trkpt>
      <trkpt lat="43.75596" lon="4.14524">
        <ele>95.8</ele>
        <time>2026-05-31T06:55:44.000Z</time>
      </trkpt>
      <trkpt lat="43.75597" lon="4.14524">
        <ele>95.6</ele>
        <time>2026-05-31T06:55:45.000Z</time>
      </trkpt>
      <trkpt lat="43.75599" lon="4.14524">
        <ele>95.2</ele>
        <time>2026-05-31T06:55:46.000Z</time>
      </trkpt>
      <trkpt lat="43.756" lon="4.14523">
        <ele>94.9</ele>
        <time>2026-05-31T06:55:47.000Z</time>
      </trkpt>
      <trkpt lat="43.75602" lon="4.14523">
        <ele>94.6</ele>
        <time>2026-05-31T06:55:48.000Z</time>
      </trkpt>
      <trkpt lat="43.75602" lon="4.14523">
        <ele>94.8</ele>
        <time>2026-05-31T06:55:49.000Z</time>
      </trkpt>
      <trkpt lat="43.75603" lon="4.14523">
        <ele>94.5</ele>
        <time>2026-05-31T06:55:50.000Z</time>
      </trkpt>
      <trkpt lat="43.75604" lon="4.14523">
        <ele>94.4</ele>
        <time>2026-05-31T06:55:51.000Z</time>
      </trkpt>
      <trkpt lat="43.75604" lon="4.14522">
        <ele>94.5</ele>
        <time>2026-05-31T06:55:52.000Z</time>
      </trkpt>
      <trkpt lat="43.75605" lon="4.14522">
        <ele>94.4</ele>
        <time>2026-05-31T06:55:53.000Z</time>
      </trkpt>
      <trkpt lat="43.75606" lon="4.14522">
        <ele>94.2</ele>
        <time>2026-05-31T06:55:54.000Z</time>
      </trkpt>
      <trkpt lat="43.75606" lon="4.14522">
        <ele>94.3</ele>
        <time>2026-05-31T06:55:55.000Z</time>
      </trkpt>
      <trkpt lat="43.75607" lon="4.14522">
        <ele>94.5</ele>
        <time>2026-05-31T06:55:56.000Z</time>
      </trkpt>
      <trkpt lat="43.75608" lon="4.14522">
        <ele>94.5</ele>
        <time>2026-05-31T06:55:57.000Z</time>
      </trkpt>
      <trkpt lat="43.75608" lon="4.14521">
        <ele>94.4</ele>
        <time>2026-05-31T06:55:58.000Z</time>
      </trkpt>
      <trkpt lat="43.75609" lon="4.14521">
        <ele>94.4</ele>
        <time>2026-05-31T06:55:59.000Z</time>
      </trkpt>
      <trkpt lat="43.7561" lon="4.1452">
        <ele>94.5</ele>
        <time>2026-05-31T06:56:00.000Z</time>
      </trkpt>
      <trkpt lat="43.75612" lon="4.1452">
        <ele>94.6</ele>
        <time>2026-05-31T06:56:01.000Z</time>
      </trkpt>
      <trkpt lat="43.75612" lon="4.1452">
        <ele>94.3</ele>
        <time>2026-05-31T06:56:02.000Z</time>
      </trkpt>
      <trkpt lat="43.75613" lon="4.1452">
        <ele>94.1</ele>
        <time>2026-05-31T06:56:03.000Z</time>
      </trkpt>
      <trkpt lat="43.75615" lon="4.1452">
        <ele>94.1</ele>
        <time>2026-05-31T06:56:04.000Z</time>
      </trkpt>
      <trkpt lat="43.75617" lon="4.14519">
        <ele>94</ele>
        <time>2026-05-31T06:56:05.000Z</time>
      </trkpt>
      <trkpt lat="43.75618" lon="4.14519">
        <ele>94.1</ele>
        <time>2026-05-31T06:56:06.000Z</time>
      </trkpt>
      <trkpt lat="43.75619" lon="4.14519">
        <ele>93.9</ele>
        <time>2026-05-31T06:56:07.000Z</time>
      </trkpt>
      <trkpt lat="43.7562" lon="4.14519">
        <ele>93.9</ele>
        <time>2026-05-31T06:56:08.000Z</time>
      </trkpt>
      <trkpt lat="43.75621" lon="4.14518">
        <ele>93.8</ele>
        <time>2026-05-31T06:56:09.000Z</time>
      </trkpt>
      <trkpt lat="43.75622" lon="4.14517">
        <ele>93.7</ele>
        <time>2026-05-31T06:56:10.000Z</time>
      </trkpt>
      <trkpt lat="43.75623" lon="4.14516">
        <ele>93.8</ele>
        <time>2026-05-31T06:56:11.000Z</time>
      </trkpt>
      <trkpt lat="43.75624" lon="4.14515">
        <ele>93.7</ele>
        <time>2026-05-31T06:56:12.000Z</time>
      </trkpt>
      <trkpt lat="43.75624" lon="4.14513">
        <ele>93.5</ele>
        <time>2026-05-31T06:56:13.000Z</time>
      </trkpt>
      <trkpt lat="43.75625" lon="4.14511">
        <ele>93.5</ele>
        <time>2026-05-31T06:56:14.000Z</time>
      </trkpt>
      <trkpt lat="43.75625" lon="4.14511">
        <ele>93.7</ele>
        <time>2026-05-31T06:56:15.000Z</time>
      </trkpt>
      <trkpt lat="43.75626" lon="4.1451">
        <ele>94</ele>
        <time>2026-05-31T06:56:16.000Z</time>
      </trkpt>
      <trkpt lat="43.75627" lon="4.14509">
        <ele>94.2</ele>
        <time>2026-05-31T06:56:17.000Z</time>
      </trkpt>
      <trkpt lat="43.75627" lon="4.14509">
        <ele>93.6</ele>
        <time>2026-05-31T06:56:18.000Z</time>
      </trkpt>
      <trkpt lat="43.75628" lon="4.14508">
        <ele>93.5</ele>
        <time>2026-05-31T06:56:19.000Z</time>
      </trkpt>
      <trkpt lat="43.75628" lon="4.14506">
        <ele>93.6</ele>
        <time>2026-05-31T06:56:20.000Z</time>
      </trkpt>
      <trkpt lat="43.75629" lon="4.14505">
        <ele>93.9</ele>
        <time>2026-05-31T06:56:21.000Z</time>
      </trkpt>
      <trkpt lat="43.75629" lon="4.14505">
        <ele>93.9</ele>
        <time>2026-05-31T06:56:22.000Z</time>
      </trkpt>
      <trkpt lat="43.7563" lon="4.14504">
        <ele>94</ele>
        <time>2026-05-31T06:56:23.000Z</time>
      </trkpt>
      <trkpt lat="43.75631" lon="4.14503">
        <ele>93.5</ele>
        <time>2026-05-31T06:56:24.000Z</time>
      </trkpt>
      <trkpt lat="43.75632" lon="4.14502">
        <ele>93.7</ele>
        <time>2026-05-31T06:56:25.000Z</time>
      </trkpt>
      <trkpt lat="43.75632" lon="4.14501">
        <ele>93.7</ele>
        <time>2026-05-31T06:56:26.000Z</time>
      </trkpt>
      <trkpt lat="43.75632" lon="4.145">
        <ele>93.8</ele>
        <time>2026-05-31T06:56:27.000Z</time>
      </trkpt>
      <trkpt lat="43.75632" lon="4.145">
        <ele>93.8</ele>
        <time>2026-05-31T06:56:28.000Z</time>
      </trkpt>
      <trkpt lat="43.75633" lon="4.14498">
        <ele>94.1</ele>
        <time>2026-05-31T06:56:29.000Z</time>
      </trkpt>
      <trkpt lat="43.75634" lon="4.14497">
        <ele>93.8</ele>
        <time>2026-05-31T06:56:30.000Z</time>
      </trkpt>
      <trkpt lat="43.75635" lon="4.14495">
        <ele>94.2</ele>
        <time>2026-05-31T06:56:31.000Z</time>
      </trkpt>
      <trkpt lat="43.75636" lon="4.14495">
        <ele>94.3</ele>
        <time>2026-05-31T06:56:32.000Z</time>
      </trkpt>
      <trkpt lat="43.75636" lon="4.14494">
        <ele>94.5</ele>
        <time>2026-05-31T06:56:33.000Z</time>
      </trkpt>
      <trkpt lat="43.75637" lon="4.14493">
        <ele>94.4</ele>
        <time>2026-05-31T06:56:34.000Z</time>
      </trkpt>
      <trkpt lat="43.75638" lon="4.14492">
        <ele>94.1</ele>
        <time>2026-05-31T06:56:35.000Z</time>
      </trkpt>
      <trkpt lat="43.75638" lon="4.14491">
        <ele>94</ele>
        <time>2026-05-31T06:56:36.000Z</time>
      </trkpt>
      <trkpt lat="43.75639" lon="4.1449">
        <ele>94.1</ele>
        <time>2026-05-31T06:56:37.000Z</time>
      </trkpt>
      <trkpt lat="43.75639" lon="4.14489">
        <ele>93.9</ele>
        <time>2026-05-31T06:56:38.000Z</time>
      </trkpt>
      <trkpt lat="43.7564" lon="4.14488">
        <ele>93.7</ele>
        <time>2026-05-31T06:56:39.000Z</time>
      </trkpt>
      <trkpt lat="43.75641" lon="4.14487">
        <ele>93.4</ele>
        <time>2026-05-31T06:56:40.000Z</time>
      </trkpt>
      <trkpt lat="43.75642" lon="4.14486">
        <ele>93.3</ele>
        <time>2026-05-31T06:56:41.000Z</time>
      </trkpt>
      <trkpt lat="43.75643" lon="4.14486">
        <ele>93</ele>
        <time>2026-05-31T06:56:42.000Z</time>
      </trkpt>
      <trkpt lat="43.75643" lon="4.14487">
        <ele>92.2</ele>
        <time>2026-05-31T06:56:43.000Z</time>
      </trkpt>
      <trkpt lat="43.75644" lon="4.14486">
        <ele>91.8</ele>
        <time>2026-05-31T06:56:44.000Z</time>
      </trkpt>
      <trkpt lat="43.75644" lon="4.14485">
        <ele>92</ele>
        <time>2026-05-31T06:56:45.000Z</time>
      </trkpt>
      <trkpt lat="43.75644" lon="4.14485">
        <ele>91.9</ele>
        <time>2026-05-31T06:56:46.000Z</time>
      </trkpt>
      <trkpt lat="43.75644" lon="4.14485">
        <ele>91.8</ele>
        <time>2026-05-31T06:56:47.000Z</time>
      </trkpt>
      <trkpt lat="43.75644" lon="4.14485">
        <ele>91.8</ele>
        <time>2026-05-31T06:56:48.000Z</time>
      </trkpt>
      <trkpt lat="43.75644" lon="4.14485">
        <ele>92</ele>
        <time>2026-05-31T06:56:49.000Z</time>
      </trkpt>
      <trkpt lat="43.75644" lon="4.14484">
        <ele>92.4</ele>
        <time>2026-05-31T06:56:50.000Z</time>
      </trkpt>
      <trkpt lat="43.75644" lon="4.14484">
        <ele>92.7</ele>
        <time>2026-05-31T06:56:51.000Z</time>
      </trkpt>
      <trkpt lat="43.75645" lon="4.14484">
        <ele>92.7</ele>
        <time>2026-05-31T06:56:52.000Z</time>
      </trkpt>
      <trkpt lat="43.75645" lon="4.14484">
        <ele>92.6</ele>
        <time>2026-05-31T06:56:53.000Z</time>
      </trkpt>
      <trkpt lat="43.75645" lon="4.14483">
        <ele>92.5</ele>
        <time>2026-05-31T06:56:54.000Z</time>
      </trkpt>
      <trkpt lat="43.75646" lon="4.14483">
        <ele>92.7</ele>
        <time>2026-05-31T06:56:55.000Z</time>
      </trkpt>
      <trkpt lat="43.75646" lon="4.14482">
        <ele>92.7</ele>
        <time>2026-05-31T06:56:56.000Z</time>
      </trkpt>
      <trkpt lat="43.75646" lon="4.14482">
        <ele>92.7</ele>
        <time>2026-05-31T06:56:57.000Z</time>
      </trkpt>
      <trkpt lat="43.75646" lon="4.14482">
        <ele>93</ele>
        <time>2026-05-31T06:56:58.000Z</time>
      </trkpt>
      <trkpt lat="43.75647" lon="4.14481">
        <ele>93.1</ele>
        <time>2026-05-31T06:56:59.000Z</time>
      </trkpt>
      <trkpt lat="43.75647" lon="4.14481">
        <ele>93.3</ele>
        <time>2026-05-31T06:57:00.000Z</time>
      </trkpt>
      <trkpt lat="43.75647" lon="4.14481">
        <ele>93.5</ele>
        <time>2026-05-31T06:57:01.000Z</time>
      </trkpt>
      <trkpt lat="43.75647" lon="4.14481">
        <ele>93.6</ele>
        <time>2026-05-31T06:57:02.000Z</time>
      </trkpt>
      <trkpt lat="43.75647" lon="4.1448">
        <ele>93.8</ele>
        <time>2026-05-31T06:57:03.000Z</time>
      </trkpt>
      <trkpt lat="43.75649" lon="4.14478">
        <ele>94.1</ele>
        <time>2026-05-31T06:57:04.000Z</time>
      </trkpt>
      <trkpt lat="43.75651" lon="4.14477">
        <ele>94</ele>
        <time>2026-05-31T06:57:05.000Z</time>
      </trkpt>
      <trkpt lat="43.75653" lon="4.14475">
        <ele>94</ele>
        <time>2026-05-31T06:57:06.000Z</time>
      </trkpt>
      <trkpt lat="43.75655" lon="4.14474">
        <ele>94.2</ele>
        <time>2026-05-31T06:57:07.000Z</time>
      </trkpt>
      <trkpt lat="43.75657" lon="4.14473">
        <ele>94.2</ele>
        <time>2026-05-31T06:57:08.000Z</time>
      </trkpt>
      <trkpt lat="43.7566" lon="4.14473">
        <ele>94.2</ele>
        <time>2026-05-31T06:57:09.000Z</time>
      </trkpt>
      <trkpt lat="43.75661" lon="4.14472">
        <ele>94.1</ele>
        <time>2026-05-31T06:57:10.000Z</time>
      </trkpt>
      <trkpt lat="43.75663" lon="4.14472">
        <ele>94.1</ele>
        <time>2026-05-31T06:57:11.000Z</time>
      </trkpt>
      <trkpt lat="43.75665" lon="4.1447">
        <ele>93.8</ele>
        <time>2026-05-31T06:57:12.000Z</time>
      </trkpt>
      <trkpt lat="43.75666" lon="4.14469">
        <ele>93.5</ele>
        <time>2026-05-31T06:57:13.000Z</time>
      </trkpt>
      <trkpt lat="43.75668" lon="4.14468">
        <ele>93.4</ele>
        <time>2026-05-31T06:57:14.000Z</time>
      </trkpt>
      <trkpt lat="43.75669" lon="4.14467">
        <ele>93.3</ele>
        <time>2026-05-31T06:57:15.000Z</time>
      </trkpt>
      <trkpt lat="43.7567" lon="4.14466">
        <ele>93.3</ele>
        <time>2026-05-31T06:57:16.000Z</time>
      </trkpt>
      <trkpt lat="43.75671" lon="4.14466">
        <ele>93.4</ele>
        <time>2026-05-31T06:57:17.000Z</time>
      </trkpt>
      <trkpt lat="43.75672" lon="4.14465">
        <ele>93.7</ele>
        <time>2026-05-31T06:57:18.000Z</time>
      </trkpt>
      <trkpt lat="43.75673" lon="4.14465">
        <ele>93.6</ele>
        <time>2026-05-31T06:57:19.000Z</time>
      </trkpt>
      <trkpt lat="43.75675" lon="4.14465">
        <ele>93.5</ele>
        <time>2026-05-31T06:57:20.000Z</time>
      </trkpt>
      <trkpt lat="43.75676" lon="4.14465">
        <ele>93</ele>
        <time>2026-05-31T06:57:21.000Z</time>
      </trkpt>
      <trkpt lat="43.75677" lon="4.14466">
        <ele>92.6</ele>
        <time>2026-05-31T06:57:22.000Z</time>
      </trkpt>
      <trkpt lat="43.75678" lon="4.14466">
        <ele>92.2</ele>
        <time>2026-05-31T06:57:23.000Z</time>
      </trkpt>
      <trkpt lat="43.7568" lon="4.14467">
        <ele>92</ele>
        <time>2026-05-31T06:57:24.000Z</time>
      </trkpt>
      <trkpt lat="43.75681" lon="4.14466">
        <ele>92.1</ele>
        <time>2026-05-31T06:57:25.000Z</time>
      </trkpt>
      <trkpt lat="43.75682" lon="4.14466">
        <ele>91.7</ele>
        <time>2026-05-31T06:57:26.000Z</time>
      </trkpt>
      <trkpt lat="43.75683" lon="4.14466">
        <ele>91.6</ele>
        <time>2026-05-31T06:57:27.000Z</time>
      </trkpt>
      <trkpt lat="43.75685" lon="4.14466">
        <ele>91.2</ele>
        <time>2026-05-31T06:57:28.000Z</time>
      </trkpt>
      <trkpt lat="43.75686" lon="4.14465">
        <ele>91.1</ele>
        <time>2026-05-31T06:57:29.000Z</time>
      </trkpt>
      <trkpt lat="43.75687" lon="4.14465">
        <ele>91</ele>
        <time>2026-05-31T06:57:30.000Z</time>
      </trkpt>
      <trkpt lat="43.75689" lon="4.14466">
        <ele>90.6</ele>
        <time>2026-05-31T06:57:31.000Z</time>
      </trkpt>
      <trkpt lat="43.75689" lon="4.14466">
        <ele>90.7</ele>
        <time>2026-05-31T06:57:32.000Z</time>
      </trkpt>
      <trkpt lat="43.75691" lon="4.14465">
        <ele>90.5</ele>
        <time>2026-05-31T06:57:33.000Z</time>
      </trkpt>
      <trkpt lat="43.75692" lon="4.14464">
        <ele>90.6</ele>
        <time>2026-05-31T06:57:34.000Z</time>
      </trkpt>
      <trkpt lat="43.75693" lon="4.14463">
        <ele>90.3</ele>
        <time>2026-05-31T06:57:35.000Z</time>
      </trkpt>
      <trkpt lat="43.75696" lon="4.14462">
        <ele>90.2</ele>
        <time>2026-05-31T06:57:37.000Z</time>
      </trkpt>
      <trkpt lat="43.75696" lon="4.14462">
        <ele>90.4</ele>
        <time>2026-05-31T06:57:38.000Z</time>
      </trkpt>
      <trkpt lat="43.75697" lon="4.14461">
        <ele>90.3</ele>
        <time>2026-05-31T06:57:39.000Z</time>
      </trkpt>
      <trkpt lat="43.75698" lon="4.14461">
        <ele>90.3</ele>
        <time>2026-05-31T06:57:40.000Z</time>
      </trkpt>
      <trkpt lat="43.75699" lon="4.1446">
        <ele>90.4</ele>
        <time>2026-05-31T06:57:41.000Z</time>
      </trkpt>
      <trkpt lat="43.757" lon="4.14459">
        <ele>90</ele>
        <time>2026-05-31T06:57:42.000Z</time>
      </trkpt>
      <trkpt lat="43.75701" lon="4.14459">
        <ele>90.1</ele>
        <time>2026-05-31T06:57:43.000Z</time>
      </trkpt>
      <trkpt lat="43.75703" lon="4.14459">
        <ele>90.3</ele>
        <time>2026-05-31T06:57:44.000Z</time>
      </trkpt>
      <trkpt lat="43.75704" lon="4.14459">
        <ele>90.7</ele>
        <time>2026-05-31T06:57:45.000Z</time>
      </trkpt>
      <trkpt lat="43.75705" lon="4.14459">
        <ele>90.8</ele>
        <time>2026-05-31T06:57:46.000Z</time>
      </trkpt>
      <trkpt lat="43.75705" lon="4.14459">
        <ele>90.8</ele>
        <time>2026-05-31T06:57:47.000Z</time>
      </trkpt>
      <trkpt lat="43.75706" lon="4.14458">
        <ele>91.1</ele>
        <time>2026-05-31T06:57:48.000Z</time>
      </trkpt>
      <trkpt lat="43.75707" lon="4.14458">
        <ele>91.5</ele>
        <time>2026-05-31T06:57:49.000Z</time>
      </trkpt>
      <trkpt lat="43.75708" lon="4.14458">
        <ele>91.4</ele>
        <time>2026-05-31T06:57:50.000Z</time>
      </trkpt>
      <trkpt lat="43.75709" lon="4.14457">
        <ele>91.8</ele>
        <time>2026-05-31T06:57:51.000Z</time>
      </trkpt>
      <trkpt lat="43.75711" lon="4.14457">
        <ele>91.7</ele>
        <time>2026-05-31T06:57:52.000Z</time>
      </trkpt>
      <trkpt lat="43.75712" lon="4.14456">
        <ele>92.1</ele>
        <time>2026-05-31T06:57:53.000Z</time>
      </trkpt>
      <trkpt lat="43.75713" lon="4.14455">
        <ele>92.5</ele>
        <time>2026-05-31T06:57:54.000Z</time>
      </trkpt>
      <trkpt lat="43.75714" lon="4.14453">
        <ele>93</ele>
        <time>2026-05-31T06:57:55.000Z</time>
      </trkpt>
      <trkpt lat="43.75714" lon="4.14452">
        <ele>93.2</ele>
        <time>2026-05-31T06:57:56.000Z</time>
      </trkpt>
      <trkpt lat="43.75714" lon="4.14451">
        <ele>92.9</ele>
        <time>2026-05-31T06:57:57.000Z</time>
      </trkpt>
      <trkpt lat="43.75715" lon="4.1445">
        <ele>92.6</ele>
        <time>2026-05-31T06:57:58.000Z</time>
      </trkpt>
      <trkpt lat="43.75716" lon="4.1445">
        <ele>92.5</ele>
        <time>2026-05-31T06:57:59.000Z</time>
      </trkpt>
      <trkpt lat="43.75716" lon="4.14449">
        <ele>92.9</ele>
        <time>2026-05-31T06:58:00.000Z</time>
      </trkpt>
      <trkpt lat="43.75717" lon="4.1445">
        <ele>92.9</ele>
        <time>2026-05-31T06:58:01.000Z</time>
      </trkpt>
      <trkpt lat="43.75717" lon="4.1445">
        <ele>93</ele>
        <time>2026-05-31T06:58:02.000Z</time>
      </trkpt>
      <trkpt lat="43.75719" lon="4.1445">
        <ele>92.9</ele>
        <time>2026-05-31T06:58:03.000Z</time>
      </trkpt>
      <trkpt lat="43.7572" lon="4.1445">
        <ele>92.8</ele>
        <time>2026-05-31T06:58:04.000Z</time>
      </trkpt>
      <trkpt lat="43.75721" lon="4.14451">
        <ele>92.5</ele>
        <time>2026-05-31T06:58:05.000Z</time>
      </trkpt>
      <trkpt lat="43.75723" lon="4.14451">
        <ele>92.7</ele>
        <time>2026-05-31T06:58:06.000Z</time>
      </trkpt>
      <trkpt lat="43.75723" lon="4.14451">
        <ele>92.6</ele>
        <time>2026-05-31T06:58:07.000Z</time>
      </trkpt>
      <trkpt lat="43.75724" lon="4.14451">
        <ele>92.6</ele>
        <time>2026-05-31T06:58:08.000Z</time>
      </trkpt>
      <trkpt lat="43.75725" lon="4.1445">
        <ele>92.5</ele>
        <time>2026-05-31T06:58:09.000Z</time>
      </trkpt>
      <trkpt lat="43.75726" lon="4.1445">
        <ele>92.5</ele>
        <time>2026-05-31T06:58:10.000Z</time>
      </trkpt>
      <trkpt lat="43.75727" lon="4.1445">
        <ele>92.2</ele>
        <time>2026-05-31T06:58:11.000Z</time>
      </trkpt>
      <trkpt lat="43.75728" lon="4.14449">
        <ele>92</ele>
        <time>2026-05-31T06:58:12.000Z</time>
      </trkpt>
      <trkpt lat="43.75728" lon="4.14449">
        <ele>92.2</ele>
        <time>2026-05-31T06:58:13.000Z</time>
      </trkpt>
      <trkpt lat="43.75729" lon="4.14449">
        <ele>91.9</ele>
        <time>2026-05-31T06:58:14.000Z</time>
      </trkpt>
      <trkpt lat="43.75729" lon="4.1445">
        <ele>91.9</ele>
        <time>2026-05-31T06:58:15.000Z</time>
      </trkpt>
      <trkpt lat="43.7573" lon="4.1445">
        <ele>91.8</ele>
        <time>2026-05-31T06:58:16.000Z</time>
      </trkpt>
      <trkpt lat="43.75731" lon="4.1445">
        <ele>91.8</ele>
        <time>2026-05-31T06:58:17.000Z</time>
      </trkpt>
      <trkpt lat="43.75731" lon="4.1445">
        <ele>91.6</ele>
        <time>2026-05-31T06:58:18.000Z</time>
      </trkpt>
      <trkpt lat="43.75732" lon="4.14451">
        <ele>91.4</ele>
        <time>2026-05-31T06:58:19.000Z</time>
      </trkpt>
      <trkpt lat="43.75734" lon="4.14452">
        <ele>91</ele>
        <time>2026-05-31T06:58:20.000Z</time>
      </trkpt>
      <trkpt lat="43.75735" lon="4.14452">
        <ele>90.6</ele>
        <time>2026-05-31T06:58:21.000Z</time>
      </trkpt>
      <trkpt lat="43.75736" lon="4.14453">
        <ele>90.5</ele>
        <time>2026-05-31T06:58:22.000Z</time>
      </trkpt>
      <trkpt lat="43.75737" lon="4.14454">
        <ele>90.6</ele>
        <time>2026-05-31T06:58:23.000Z</time>
      </trkpt>
      <trkpt lat="43.75739" lon="4.14454">
        <ele>90.4</ele>
        <time>2026-05-31T06:58:24.000Z</time>
      </trkpt>
      <trkpt lat="43.7574" lon="4.14454">
        <ele>90.4</ele>
        <time>2026-05-31T06:58:25.000Z</time>
      </trkpt>
      <trkpt lat="43.75742" lon="4.14454">
        <ele>90.3</ele>
        <time>2026-05-31T06:58:26.000Z</time>
      </trkpt>
      <trkpt lat="43.75742" lon="4.14456">
        <ele>90.3</ele>
        <time>2026-05-31T06:58:27.000Z</time>
      </trkpt>
      <trkpt lat="43.75743" lon="4.14457">
        <ele>90.5</ele>
        <time>2026-05-31T06:58:28.000Z</time>
      </trkpt>
      <trkpt lat="43.75744" lon="4.14458">
        <ele>90.8</ele>
        <time>2026-05-31T06:58:29.000Z</time>
      </trkpt>
      <trkpt lat="43.75745" lon="4.14459">
        <ele>91</ele>
        <time>2026-05-31T06:58:30.000Z</time>
      </trkpt>
      <trkpt lat="43.75746" lon="4.1446">
        <ele>91.3</ele>
        <time>2026-05-31T06:58:31.000Z</time>
      </trkpt>
      <trkpt lat="43.75747" lon="4.14461">
        <ele>91.6</ele>
        <time>2026-05-31T06:58:32.000Z</time>
      </trkpt>
      <trkpt lat="43.75748" lon="4.14462">
        <ele>91.6</ele>
        <time>2026-05-31T06:58:33.000Z</time>
      </trkpt>
      <trkpt lat="43.75749" lon="4.14463">
        <ele>92</ele>
        <time>2026-05-31T06:58:34.000Z</time>
      </trkpt>
      <trkpt lat="43.75751" lon="4.14464">
        <ele>92.1</ele>
        <time>2026-05-31T06:58:36.000Z</time>
      </trkpt>
      <trkpt lat="43.75751" lon="4.14464">
        <ele>92.4</ele>
        <time>2026-05-31T06:58:37.000Z</time>
      </trkpt>
      <trkpt lat="43.75752" lon="4.14464">
        <ele>92.8</ele>
        <time>2026-05-31T06:58:38.000Z</time>
      </trkpt>
      <trkpt lat="43.75753" lon="4.14464">
        <ele>93.3</ele>
        <time>2026-05-31T06:58:39.000Z</time>
      </trkpt>
      <trkpt lat="43.75754" lon="4.14464">
        <ele>93.8</ele>
        <time>2026-05-31T06:58:40.000Z</time>
      </trkpt>
      <trkpt lat="43.75755" lon="4.14465">
        <ele>94.4</ele>
        <time>2026-05-31T06:58:41.000Z</time>
      </trkpt>
      <trkpt lat="43.75756" lon="4.14466">
        <ele>95</ele>
        <time>2026-05-31T06:58:42.000Z</time>
      </trkpt>
      <trkpt lat="43.75758" lon="4.14467">
        <ele>95.2</ele>
        <time>2026-05-31T06:58:43.000Z</time>
      </trkpt>
      <trkpt lat="43.75759" lon="4.14467">
        <ele>95.3</ele>
        <time>2026-05-31T06:58:44.000Z</time>
      </trkpt>
      <trkpt lat="43.75761" lon="4.14468">
        <ele>95</ele>
        <time>2026-05-31T06:58:45.000Z</time>
      </trkpt>
      <trkpt lat="43.75762" lon="4.14467">
        <ele>95.4</ele>
        <time>2026-05-31T06:58:46.000Z</time>
      </trkpt>
      <trkpt lat="43.75764" lon="4.14467">
        <ele>95.5</ele>
        <time>2026-05-31T06:58:47.000Z</time>
      </trkpt>
      <trkpt lat="43.75765" lon="4.14467">
        <ele>95.6</ele>
        <time>2026-05-31T06:58:48.000Z</time>
      </trkpt>
      <trkpt lat="43.75766" lon="4.14468">
        <ele>95.6</ele>
        <time>2026-05-31T06:58:49.000Z</time>
      </trkpt>
      <trkpt lat="43.75767" lon="4.14468">
        <ele>95.6</ele>
        <time>2026-05-31T06:58:50.000Z</time>
      </trkpt>
      <trkpt lat="43.75767" lon="4.14468">
        <ele>95.4</ele>
        <time>2026-05-31T06:58:51.000Z</time>
      </trkpt>
      <trkpt lat="43.75768" lon="4.14468">
        <ele>95.1</ele>
        <time>2026-05-31T06:58:52.000Z</time>
      </trkpt>
      <trkpt lat="43.75769" lon="4.1447">
        <ele>95.9</ele>
        <time>2026-05-31T06:58:54.000Z</time>
      </trkpt>
      <trkpt lat="43.7577" lon="4.1447">
        <ele>96.2</ele>
        <time>2026-05-31T06:58:55.000Z</time>
      </trkpt>
      <trkpt lat="43.75771" lon="4.14471">
        <ele>96.4</ele>
        <time>2026-05-31T06:58:56.000Z</time>
      </trkpt>
      <trkpt lat="43.75772" lon="4.14472">
        <ele>96.5</ele>
        <time>2026-05-31T06:58:57.000Z</time>
      </trkpt>
      <trkpt lat="43.75772" lon="4.14471">
        <ele>96.8</ele>
        <time>2026-05-31T06:58:58.000Z</time>
      </trkpt>
      <trkpt lat="43.75773" lon="4.14471">
        <ele>96.8</ele>
        <time>2026-05-31T06:58:59.000Z</time>
      </trkpt>
      <trkpt lat="43.75774" lon="4.14472">
        <ele>96.9</ele>
        <time>2026-05-31T06:59:00.000Z</time>
      </trkpt>
      <trkpt lat="43.75774" lon="4.14473">
        <ele>97</ele>
        <time>2026-05-31T06:59:01.000Z</time>
      </trkpt>
      <trkpt lat="43.75775" lon="4.14473">
        <ele>97</ele>
        <time>2026-05-31T06:59:02.000Z</time>
      </trkpt>
      <trkpt lat="43.75775" lon="4.14473">
        <ele>97.1</ele>
        <time>2026-05-31T06:59:03.000Z</time>
      </trkpt>
      <trkpt lat="43.75775" lon="4.14473">
        <ele>97.2</ele>
        <time>2026-05-31T06:59:04.000Z</time>
      </trkpt>
      <trkpt lat="43.75775" lon="4.14473">
        <ele>96.8</ele>
        <time>2026-05-31T06:59:05.000Z</time>
      </trkpt>
      <trkpt lat="43.75776" lon="4.14473">
        <ele>96.7</ele>
        <time>2026-05-31T06:59:06.000Z</time>
      </trkpt>
      <trkpt lat="43.75776" lon="4.14473">
        <ele>96.9</ele>
        <time>2026-05-31T06:59:07.000Z</time>
      </trkpt>
      <trkpt lat="43.75777" lon="4.14473">
        <ele>96.5</ele>
        <time>2026-05-31T06:59:08.000Z</time>
      </trkpt>
      <trkpt lat="43.75777" lon="4.14472">
        <ele>96.6</ele>
        <time>2026-05-31T06:59:09.000Z</time>
      </trkpt>
      <trkpt lat="43.75778" lon="4.14472">
        <ele>96.7</ele>
        <time>2026-05-31T06:59:10.000Z</time>
      </trkpt>
      <trkpt lat="43.75779" lon="4.14472">
        <ele>96.4</ele>
        <time>2026-05-31T06:59:11.000Z</time>
      </trkpt>
      <trkpt lat="43.75781" lon="4.14471">
        <ele>96</ele>
        <time>2026-05-31T06:59:13.000Z</time>
      </trkpt>
      <trkpt lat="43.75782" lon="4.14471">
        <ele>96.3</ele>
        <time>2026-05-31T06:59:14.000Z</time>
      </trkpt>
      <trkpt lat="43.75783" lon="4.14471">
        <ele>96.1</ele>
        <time>2026-05-31T06:59:15.000Z</time>
      </trkpt>
      <trkpt lat="43.75783" lon="4.14471">
        <ele>95.8</ele>
        <time>2026-05-31T06:59:16.000Z</time>
      </trkpt>
      <trkpt lat="43.75784" lon="4.14471">
        <ele>95.8</ele>
        <time>2026-05-31T06:59:17.000Z</time>
      </trkpt>
      <trkpt lat="43.75784" lon="4.14471">
        <ele>95.5</ele>
        <time>2026-05-31T06:59:18.000Z</time>
      </trkpt>
      <trkpt lat="43.75785" lon="4.1447">
        <ele>95.4</ele>
        <time>2026-05-31T06:59:19.000Z</time>
      </trkpt>
      <trkpt lat="43.75786" lon="4.14471">
        <ele>95.4</ele>
        <time>2026-05-31T06:59:20.000Z</time>
      </trkpt>
      <trkpt lat="43.75787" lon="4.1447">
        <ele>95.1</ele>
        <time>2026-05-31T06:59:21.000Z</time>
      </trkpt>
      <trkpt lat="43.75787" lon="4.1447">
        <ele>94.7</ele>
        <time>2026-05-31T06:59:22.000Z</time>
      </trkpt>
      <trkpt lat="43.75788" lon="4.14471">
        <ele>94.8</ele>
        <time>2026-05-31T06:59:23.000Z</time>
      </trkpt>
      <trkpt lat="43.75789" lon="4.14471">
        <ele>94.6</ele>
        <time>2026-05-31T06:59:24.000Z</time>
      </trkpt>
      <trkpt lat="43.75789" lon="4.1447">
        <ele>95</ele>
        <time>2026-05-31T06:59:25.000Z</time>
      </trkpt>
      <trkpt lat="43.75789" lon="4.1447">
        <ele>94.8</ele>
        <time>2026-05-31T06:59:26.000Z</time>
      </trkpt>
      <trkpt lat="43.75789" lon="4.1447">
        <ele>94.7</ele>
        <time>2026-05-31T06:59:27.000Z</time>
      </trkpt>
      <trkpt lat="43.75789" lon="4.1447">
        <ele>94.6</ele>
        <time>2026-05-31T06:59:28.000Z</time>
      </trkpt>
      <trkpt lat="43.75789" lon="4.1447">
        <ele>94.7</ele>
        <time>2026-05-31T06:59:29.000Z</time>
      </trkpt>
      <trkpt lat="43.7579" lon="4.1447">
        <ele>94.8</ele>
        <time>2026-05-31T06:59:30.000Z</time>
      </trkpt>
      <trkpt lat="43.7579" lon="4.1447">
        <ele>94.7</ele>
        <time>2026-05-31T06:59:31.000Z</time>
      </trkpt>
      <trkpt lat="43.75791" lon="4.1447">
        <ele>94.6</ele>
        <time>2026-05-31T06:59:32.000Z</time>
      </trkpt>
      <trkpt lat="43.75792" lon="4.14469">
        <ele>94.9</ele>
        <time>2026-05-31T06:59:33.000Z</time>
      </trkpt>
      <trkpt lat="43.75793" lon="4.14469">
        <ele>94.8</ele>
        <time>2026-05-31T06:59:34.000Z</time>
      </trkpt>
      <trkpt lat="43.75794" lon="4.14468">
        <ele>94.8</ele>
        <time>2026-05-31T06:59:35.000Z</time>
      </trkpt>
      <trkpt lat="43.75796" lon="4.14467">
        <ele>95</ele>
        <time>2026-05-31T06:59:36.000Z</time>
      </trkpt>
      <trkpt lat="43.75797" lon="4.14466">
        <ele>94.9</ele>
        <time>2026-05-31T06:59:37.000Z</time>
      </trkpt>
      <trkpt lat="43.75798" lon="4.14466">
        <ele>94.8</ele>
        <time>2026-05-31T06:59:38.000Z</time>
      </trkpt>
      <trkpt lat="43.758" lon="4.14466">
        <ele>94.9</ele>
        <time>2026-05-31T06:59:39.000Z</time>
      </trkpt>
      <trkpt lat="43.75801" lon="4.14466">
        <ele>94.9</ele>
        <time>2026-05-31T06:59:40.000Z</time>
      </trkpt>
      <trkpt lat="43.75803" lon="4.14464">
        <ele>95.3</ele>
        <time>2026-05-31T06:59:41.000Z</time>
      </trkpt>
      <trkpt lat="43.75805" lon="4.14464">
        <ele>95.5</ele>
        <time>2026-05-31T06:59:42.000Z</time>
      </trkpt>
      <trkpt lat="43.75806" lon="4.14463">
        <ele>95.6</ele>
        <time>2026-05-31T06:59:43.000Z</time>
      </trkpt>
      <trkpt lat="43.75808" lon="4.14463">
        <ele>95.8</ele>
        <time>2026-05-31T06:59:44.000Z</time>
      </trkpt>
      <trkpt lat="43.75809" lon="4.14463">
        <ele>96.1</ele>
        <time>2026-05-31T06:59:45.000Z</time>
      </trkpt>
      <trkpt lat="43.7581" lon="4.14462">
        <ele>96.1</ele>
        <time>2026-05-31T06:59:46.000Z</time>
      </trkpt>
      <trkpt lat="43.75812" lon="4.14461">
        <ele>96</ele>
        <time>2026-05-31T06:59:47.000Z</time>
      </trkpt>
      <trkpt lat="43.75813" lon="4.14461">
        <ele>95.8</ele>
        <time>2026-05-31T06:59:48.000Z</time>
      </trkpt>
      <trkpt lat="43.75814" lon="4.1446">
        <ele>96.2</ele>
        <time>2026-05-31T06:59:49.000Z</time>
      </trkpt>
      <trkpt lat="43.75815" lon="4.1446">
        <ele>96.5</ele>
        <time>2026-05-31T06:59:50.000Z</time>
      </trkpt>
      <trkpt lat="43.75816" lon="4.1446">
        <ele>97</ele>
        <time>2026-05-31T06:59:51.000Z</time>
      </trkpt>
      <trkpt lat="43.75817" lon="4.14459">
        <ele>97.4</ele>
        <time>2026-05-31T06:59:52.000Z</time>
      </trkpt>
      <trkpt lat="43.75817" lon="4.14459">
        <ele>97.5</ele>
        <time>2026-05-31T06:59:53.000Z</time>
      </trkpt>
      <trkpt lat="43.75818" lon="4.14458">
        <ele>97.4</ele>
        <time>2026-05-31T06:59:54.000Z</time>
      </trkpt>
      <trkpt lat="43.75819" lon="4.14458">
        <ele>97.4</ele>
        <time>2026-05-31T06:59:55.000Z</time>
      </trkpt>
      <trkpt lat="43.7582" lon="4.14458">
        <ele>97.2</ele>
        <time>2026-05-31T06:59:57.000Z</time>
      </trkpt>
      <trkpt lat="43.75821" lon="4.14458">
        <ele>97.5</ele>
        <time>2026-05-31T06:59:58.000Z</time>
      </trkpt>
      <trkpt lat="43.75822" lon="4.14458">
        <ele>97.5</ele>
        <time>2026-05-31T06:59:59.000Z</time>
      </trkpt>
      <trkpt lat="43.75823" lon="4.14458">
        <ele>97.4</ele>
        <time>2026-05-31T07:00:00.000Z</time>
      </trkpt>
      <trkpt lat="43.75824" lon="4.14459">
        <ele>97.2</ele>
        <time>2026-05-31T07:00:01.000Z</time>
      </trkpt>
      <trkpt lat="43.75825" lon="4.14459">
        <ele>97</ele>
        <time>2026-05-31T07:00:02.000Z</time>
      </trkpt>
      <trkpt lat="43.75826" lon="4.1446">
        <ele>97</ele>
        <time>2026-05-31T07:00:03.000Z</time>
      </trkpt>
      <trkpt lat="43.75827" lon="4.1446">
        <ele>96.9</ele>
        <time>2026-05-31T07:00:04.000Z</time>
      </trkpt>
      <trkpt lat="43.75828" lon="4.14461">
        <ele>96.6</ele>
        <time>2026-05-31T07:00:05.000Z</time>
      </trkpt>
      <trkpt lat="43.7583" lon="4.14462">
        <ele>96.6</ele>
        <time>2026-05-31T07:00:06.000Z</time>
      </trkpt>
      <trkpt lat="43.75831" lon="4.14463">
        <ele>96.4</ele>
        <time>2026-05-31T07:00:07.000Z</time>
      </trkpt>
      <trkpt lat="43.75831" lon="4.14465">
        <ele>96.1</ele>
        <time>2026-05-31T07:00:08.000Z</time>
      </trkpt>
      <trkpt lat="43.75832" lon="4.14466">
        <ele>96.1</ele>
        <time>2026-05-31T07:00:09.000Z</time>
      </trkpt>
      <trkpt lat="43.75832" lon="4.14468">
        <ele>95.8</ele>
        <time>2026-05-31T07:00:10.000Z</time>
      </trkpt>
      <trkpt lat="43.75833" lon="4.14469">
        <ele>95.4</ele>
        <time>2026-05-31T07:00:11.000Z</time>
      </trkpt>
      <trkpt lat="43.75834" lon="4.1447">
        <ele>94.8</ele>
        <time>2026-05-31T07:00:12.000Z</time>
      </trkpt>
      <trkpt lat="43.75834" lon="4.14471">
        <ele>94.7</ele>
        <time>2026-05-31T07:00:13.000Z</time>
      </trkpt>
      <trkpt lat="43.75835" lon="4.14471">
        <ele>94.6</ele>
        <time>2026-05-31T07:00:14.000Z</time>
      </trkpt>
      <trkpt lat="43.75837" lon="4.14473">
        <ele>94.6</ele>
        <time>2026-05-31T07:00:15.000Z</time>
      </trkpt>
      <trkpt lat="43.75837" lon="4.14474">
        <ele>94.4</ele>
        <time>2026-05-31T07:00:16.000Z</time>
      </trkpt>
      <trkpt lat="43.75838" lon="4.14476">
        <ele>94.6</ele>
        <time>2026-05-31T07:00:17.000Z</time>
      </trkpt>
      <trkpt lat="43.75838" lon="4.14476">
        <ele>94.9</ele>
        <time>2026-05-31T07:00:18.000Z</time>
      </trkpt>
      <trkpt lat="43.75839" lon="4.14477">
        <ele>94.9</ele>
        <time>2026-05-31T07:00:19.000Z</time>
      </trkpt>
      <trkpt lat="43.7584" lon="4.14478">
        <ele>95</ele>
        <time>2026-05-31T07:00:20.000Z</time>
      </trkpt>
      <trkpt lat="43.7584" lon="4.14479">
        <ele>95.4</ele>
        <time>2026-05-31T07:00:21.000Z</time>
      </trkpt>
      <trkpt lat="43.75841" lon="4.1448">
        <ele>95.3</ele>
        <time>2026-05-31T07:00:22.000Z</time>
      </trkpt>
      <trkpt lat="43.75842" lon="4.14481">
        <ele>95.4</ele>
        <time>2026-05-31T07:00:23.000Z</time>
      </trkpt>
      <trkpt lat="43.75843" lon="4.14481">
        <ele>95.4</ele>
        <time>2026-05-31T07:00:24.000Z</time>
      </trkpt>
      <trkpt lat="43.75845" lon="4.14482">
        <ele>95.2</ele>
        <time>2026-05-31T07:00:25.000Z</time>
      </trkpt>
      <trkpt lat="43.75846" lon="4.14482">
        <ele>95.1</ele>
        <time>2026-05-31T07:00:26.000Z</time>
      </trkpt>
      <trkpt lat="43.75847" lon="4.14482">
        <ele>94.9</ele>
        <time>2026-05-31T07:00:27.000Z</time>
      </trkpt>
      <trkpt lat="43.75848" lon="4.14482">
        <ele>95.1</ele>
        <time>2026-05-31T07:00:28.000Z</time>
      </trkpt>
      <trkpt lat="43.75849" lon="4.14483">
        <ele>95.2</ele>
        <time>2026-05-31T07:00:29.000Z</time>
      </trkpt>
      <trkpt lat="43.7585" lon="4.14483">
        <ele>95.3</ele>
        <time>2026-05-31T07:00:30.000Z</time>
      </trkpt>
      <trkpt lat="43.7585" lon="4.14484">
        <ele>95.2</ele>
        <time>2026-05-31T07:00:31.000Z</time>
      </trkpt>
      <trkpt lat="43.75851" lon="4.14486">
        <ele>95.1</ele>
        <time>2026-05-31T07:00:32.000Z</time>
      </trkpt>
      <trkpt lat="43.75852" lon="4.14487">
        <ele>94.9</ele>
        <time>2026-05-31T07:00:33.000Z</time>
      </trkpt>
      <trkpt lat="43.75852" lon="4.14487">
        <ele>94.9</ele>
        <time>2026-05-31T07:00:34.000Z</time>
      </trkpt>
      <trkpt lat="43.75854" lon="4.14488">
        <ele>95</ele>
        <time>2026-05-31T07:00:35.000Z</time>
      </trkpt>
      <trkpt lat="43.75854" lon="4.14489">
        <ele>94.8</ele>
        <time>2026-05-31T07:00:36.000Z</time>
      </trkpt>
      <trkpt lat="43.75855" lon="4.1449">
        <ele>94.7</ele>
        <time>2026-05-31T07:00:37.000Z</time>
      </trkpt>
      <trkpt lat="43.75856" lon="4.14491">
        <ele>94.4</ele>
        <time>2026-05-31T07:00:38.000Z</time>
      </trkpt>
      <trkpt lat="43.75858" lon="4.14491">
        <ele>94.2</ele>
        <time>2026-05-31T07:00:39.000Z</time>
      </trkpt>
      <trkpt lat="43.75859" lon="4.14492">
        <ele>93.7</ele>
        <time>2026-05-31T07:00:40.000Z</time>
      </trkpt>
      <trkpt lat="43.7586" lon="4.14493">
        <ele>93.6</ele>
        <time>2026-05-31T07:00:41.000Z</time>
      </trkpt>
      <trkpt lat="43.75862" lon="4.14494">
        <ele>93.7</ele>
        <time>2026-05-31T07:00:42.000Z</time>
      </trkpt>
      <trkpt lat="43.75863" lon="4.14495">
        <ele>94</ele>
        <time>2026-05-31T07:00:43.000Z</time>
      </trkpt>
      <trkpt lat="43.75864" lon="4.14495">
        <ele>94.2</ele>
        <time>2026-05-31T07:00:44.000Z</time>
      </trkpt>
      <trkpt lat="43.75865" lon="4.14496">
        <ele>94.3</ele>
        <time>2026-05-31T07:00:45.000Z</time>
      </trkpt>
      <trkpt lat="43.75866" lon="4.14497">
        <ele>94.5</ele>
        <time>2026-05-31T07:00:46.000Z</time>
      </trkpt>
      <trkpt lat="43.75866" lon="4.14498">
        <ele>94.6</ele>
        <time>2026-05-31T07:00:47.000Z</time>
      </trkpt>
      <trkpt lat="43.75867" lon="4.14498">
        <ele>95.1</ele>
        <time>2026-05-31T07:00:48.000Z</time>
      </trkpt>
      <trkpt lat="43.75868" lon="4.14498">
        <ele>95.4</ele>
        <time>2026-05-31T07:00:49.000Z</time>
      </trkpt>
      <trkpt lat="43.75869" lon="4.14499">
        <ele>95.8</ele>
        <time>2026-05-31T07:00:50.000Z</time>
      </trkpt>
      <trkpt lat="43.7587" lon="4.145">
        <ele>96.1</ele>
        <time>2026-05-31T07:00:51.000Z</time>
      </trkpt>
      <trkpt lat="43.75872" lon="4.145">
        <ele>96.5</ele>
        <time>2026-05-31T07:00:52.000Z</time>
      </trkpt>
      <trkpt lat="43.75873" lon="4.14501">
        <ele>96.8</ele>
        <time>2026-05-31T07:00:53.000Z</time>
      </trkpt>
      <trkpt lat="43.75874" lon="4.14502">
        <ele>96.9</ele>
        <time>2026-05-31T07:00:54.000Z</time>
      </trkpt>
      <trkpt lat="43.75875" lon="4.14503">
        <ele>97.1</ele>
        <time>2026-05-31T07:00:55.000Z</time>
      </trkpt>
      <trkpt lat="43.75875" lon="4.14504">
        <ele>97.1</ele>
        <time>2026-05-31T07:00:56.000Z</time>
      </trkpt>
      <trkpt lat="43.75876" lon="4.14504">
        <ele>97.1</ele>
        <time>2026-05-31T07:00:57.000Z</time>
      </trkpt>
      <trkpt lat="43.75878" lon="4.14505">
        <ele>97.4</ele>
        <time>2026-05-31T07:00:58.000Z</time>
      </trkpt>
      <trkpt lat="43.75878" lon="4.14506">
        <ele>97.5</ele>
        <time>2026-05-31T07:00:59.000Z</time>
      </trkpt>
      <trkpt lat="43.75879" lon="4.14507">
        <ele>97.4</ele>
        <time>2026-05-31T07:01:00.000Z</time>
      </trkpt>
      <trkpt lat="43.7588" lon="4.14507">
        <ele>97</ele>
        <time>2026-05-31T07:01:01.000Z</time>
      </trkpt>
      <trkpt lat="43.75881" lon="4.14507">
        <ele>97</ele>
        <time>2026-05-31T07:01:02.000Z</time>
      </trkpt>
      <trkpt lat="43.75882" lon="4.14507">
        <ele>96.7</ele>
        <time>2026-05-31T07:01:03.000Z</time>
      </trkpt>
      <trkpt lat="43.75884" lon="4.14507">
        <ele>96.6</ele>
        <time>2026-05-31T07:01:04.000Z</time>
      </trkpt>
      <trkpt lat="43.75886" lon="4.14507">
        <ele>96.1</ele>
        <time>2026-05-31T07:01:05.000Z</time>
      </trkpt>
      <trkpt lat="43.75887" lon="4.14508">
        <ele>95.7</ele>
        <time>2026-05-31T07:01:06.000Z</time>
      </trkpt>
      <trkpt lat="43.75888" lon="4.14507">
        <ele>95.9</ele>
        <time>2026-05-31T07:01:07.000Z</time>
      </trkpt>
      <trkpt lat="43.75889" lon="4.14507">
        <ele>96.2</ele>
        <time>2026-05-31T07:01:08.000Z</time>
      </trkpt>
      <trkpt lat="43.7589" lon="4.14507">
        <ele>96</ele>
        <time>2026-05-31T07:01:09.000Z</time>
      </trkpt>
      <trkpt lat="43.75891" lon="4.14507">
        <ele>96</ele>
        <time>2026-05-31T07:01:10.000Z</time>
      </trkpt>
      <trkpt lat="43.75892" lon="4.14507">
        <ele>96.4</ele>
        <time>2026-05-31T07:01:11.000Z</time>
      </trkpt>
      <trkpt lat="43.75893" lon="4.14507">
        <ele>96.8</ele>
        <time>2026-05-31T07:01:12.000Z</time>
      </trkpt>
      <trkpt lat="43.75893" lon="4.14507">
        <ele>97.2</ele>
        <time>2026-05-31T07:01:13.000Z</time>
      </trkpt>
      <trkpt lat="43.75894" lon="4.14507">
        <ele>97.5</ele>
        <time>2026-05-31T07:01:14.000Z</time>
      </trkpt>
      <trkpt lat="43.75894" lon="4.14507">
        <ele>97.4</ele>
        <time>2026-05-31T07:01:15.000Z</time>
      </trkpt>
      <trkpt lat="43.75895" lon="4.14507">
        <ele>97.3</ele>
        <time>2026-05-31T07:01:16.000Z</time>
      </trkpt>
      <trkpt lat="43.75897" lon="4.14507">
        <ele>97.2</ele>
        <time>2026-05-31T07:01:17.000Z</time>
      </trkpt>
      <trkpt lat="43.75898" lon="4.14506">
        <ele>97</ele>
        <time>2026-05-31T07:01:18.000Z</time>
      </trkpt>
      <trkpt lat="43.75899" lon="4.14505">
        <ele>96.3</ele>
        <time>2026-05-31T07:01:19.000Z</time>
      </trkpt>
      <trkpt lat="43.759" lon="4.14503">
        <ele>95.9</ele>
        <time>2026-05-31T07:01:20.000Z</time>
      </trkpt>
      <trkpt lat="43.759" lon="4.14503">
        <ele>95.9</ele>
        <time>2026-05-31T07:01:21.000Z</time>
      </trkpt>
      <trkpt lat="43.759" lon="4.14502">
        <ele>95.6</ele>
        <time>2026-05-31T07:01:22.000Z</time>
      </trkpt>
      <trkpt lat="43.759" lon="4.14501">
        <ele>95.7</ele>
        <time>2026-05-31T07:01:23.000Z</time>
      </trkpt>
      <trkpt lat="43.759" lon="4.145">
        <ele>95.7</ele>
        <time>2026-05-31T07:01:24.000Z</time>
      </trkpt>
      <trkpt lat="43.759" lon="4.14499">
        <ele>95.9</ele>
        <time>2026-05-31T07:01:25.000Z</time>
      </trkpt>
      <trkpt lat="43.75901" lon="4.14498">
        <ele>95.9</ele>
        <time>2026-05-31T07:01:26.000Z</time>
      </trkpt>
      <trkpt lat="43.75902" lon="4.14497">
        <ele>95.6</ele>
        <time>2026-05-31T07:01:27.000Z</time>
      </trkpt>
      <trkpt lat="43.75902" lon="4.14497">
        <ele>95.7</ele>
        <time>2026-05-31T07:01:28.000Z</time>
      </trkpt>
      <trkpt lat="43.75902" lon="4.14497">
        <ele>96.2</ele>
        <time>2026-05-31T07:01:29.000Z</time>
      </trkpt>
      <trkpt lat="43.75902" lon="4.14497">
        <ele>96.5</ele>
        <time>2026-05-31T07:01:30.000Z</time>
      </trkpt>
      <trkpt lat="43.75903" lon="4.14497">
        <ele>96.2</ele>
        <time>2026-05-31T07:01:31.000Z</time>
      </trkpt>
      <trkpt lat="43.75904" lon="4.14497">
        <ele>96.1</ele>
        <time>2026-05-31T07:01:32.000Z</time>
      </trkpt>
      <trkpt lat="43.75905" lon="4.14496">
        <ele>96</ele>
        <time>2026-05-31T07:01:33.000Z</time>
      </trkpt>
      <trkpt lat="43.75906" lon="4.14496">
        <ele>95.9</ele>
        <time>2026-05-31T07:01:34.000Z</time>
      </trkpt>
      <trkpt lat="43.75906" lon="4.14496">
        <ele>95.7</ele>
        <time>2026-05-31T07:01:35.000Z</time>
      </trkpt>
      <trkpt lat="43.75906" lon="4.14496">
        <ele>95.8</ele>
        <time>2026-05-31T07:01:36.000Z</time>
      </trkpt>
      <trkpt lat="43.75908" lon="4.14496">
        <ele>95.9</ele>
        <time>2026-05-31T07:01:37.000Z</time>
      </trkpt>
      <trkpt lat="43.75909" lon="4.14495">
        <ele>95.8</ele>
        <time>2026-05-31T07:01:38.000Z</time>
      </trkpt>
      <trkpt lat="43.7591" lon="4.14494">
        <ele>95.6</ele>
        <time>2026-05-31T07:01:39.000Z</time>
      </trkpt>
      <trkpt lat="43.75912" lon="4.14492">
        <ele>95.2</ele>
        <time>2026-05-31T07:01:40.000Z</time>
      </trkpt>
      <trkpt lat="43.75914" lon="4.1449">
        <ele>94.9</ele>
        <time>2026-05-31T07:01:41.000Z</time>
      </trkpt>
      <trkpt lat="43.75916" lon="4.14489">
        <ele>94.6</ele>
        <time>2026-05-31T07:01:42.000Z</time>
      </trkpt>
      <trkpt lat="43.75917" lon="4.14487">
        <ele>94.3</ele>
        <time>2026-05-31T07:01:43.000Z</time>
      </trkpt>
      <trkpt lat="43.75919" lon="4.14486">
        <ele>94.2</ele>
        <time>2026-05-31T07:01:44.000Z</time>
      </trkpt>
      <trkpt lat="43.7592" lon="4.14484">
        <ele>94.4</ele>
        <time>2026-05-31T07:01:45.000Z</time>
      </trkpt>
      <trkpt lat="43.75921" lon="4.14483">
        <ele>94.3</ele>
        <time>2026-05-31T07:01:46.000Z</time>
      </trkpt>
      <trkpt lat="43.75923" lon="4.14481">
        <ele>94.3</ele>
        <time>2026-05-31T07:01:47.000Z</time>
      </trkpt>
      <trkpt lat="43.75924" lon="4.14479">
        <ele>94.5</ele>
        <time>2026-05-31T07:01:48.000Z</time>
      </trkpt>
      <trkpt lat="43.75925" lon="4.14478">
        <ele>94.6</ele>
        <time>2026-05-31T07:01:49.000Z</time>
      </trkpt>
      <trkpt lat="43.75926" lon="4.14476">
        <ele>94.8</ele>
        <time>2026-05-31T07:01:50.000Z</time>
      </trkpt>
      <trkpt lat="43.75926" lon="4.14475">
        <ele>95.1</ele>
        <time>2026-05-31T07:01:51.000Z</time>
      </trkpt>
      <trkpt lat="43.75926" lon="4.14475">
        <ele>95.2</ele>
        <time>2026-05-31T07:01:52.000Z</time>
      </trkpt>
      <trkpt lat="43.75927" lon="4.14473">
        <ele>95</ele>
        <time>2026-05-31T07:01:53.000Z</time>
      </trkpt>
      <trkpt lat="43.75927" lon="4.14472">
        <ele>94.2</ele>
        <time>2026-05-31T07:01:54.000Z</time>
      </trkpt>
      <trkpt lat="43.75928" lon="4.14471">
        <ele>94</ele>
        <time>2026-05-31T07:01:55.000Z</time>
      </trkpt>
      <trkpt lat="43.75929" lon="4.14468">
        <ele>94.3</ele>
        <time>2026-05-31T07:01:56.000Z</time>
      </trkpt>
      <trkpt lat="43.75931" lon="4.14467">
        <ele>94.5</ele>
        <time>2026-05-31T07:01:57.000Z</time>
      </trkpt>
      <trkpt lat="43.75931" lon="4.14466">
        <ele>94.3</ele>
        <time>2026-05-31T07:01:58.000Z</time>
      </trkpt>
      <trkpt lat="43.75932" lon="4.14465">
        <ele>94.3</ele>
        <time>2026-05-31T07:01:59.000Z</time>
      </trkpt>
      <trkpt lat="43.75933" lon="4.14465">
        <ele>93.6</ele>
        <time>2026-05-31T07:02:00.000Z</time>
      </trkpt>
      <trkpt lat="43.75934" lon="4.14463">
        <ele>92.9</ele>
        <time>2026-05-31T07:02:01.000Z</time>
      </trkpt>
      <trkpt lat="43.75935" lon="4.14461">
        <ele>92.3</ele>
        <time>2026-05-31T07:02:02.000Z</time>
      </trkpt>
      <trkpt lat="43.75936" lon="4.14459">
        <ele>91.7</ele>
        <time>2026-05-31T07:02:03.000Z</time>
      </trkpt>
      <trkpt lat="43.75937" lon="4.14458">
        <ele>91.3</ele>
        <time>2026-05-31T07:02:04.000Z</time>
      </trkpt>
      <trkpt lat="43.75938" lon="4.14457">
        <ele>90.9</ele>
        <time>2026-05-31T07:02:05.000Z</time>
      </trkpt>
      <trkpt lat="43.75939" lon="4.14456">
        <ele>90.4</ele>
        <time>2026-05-31T07:02:06.000Z</time>
      </trkpt>
      <trkpt lat="43.75939" lon="4.14454">
        <ele>89.9</ele>
        <time>2026-05-31T07:02:07.000Z</time>
      </trkpt>
      <trkpt lat="43.7594" lon="4.14452">
        <ele>89.5</ele>
        <time>2026-05-31T07:02:08.000Z</time>
      </trkpt>
      <trkpt lat="43.7594" lon="4.14451">
        <ele>89.5</ele>
        <time>2026-05-31T07:02:09.000Z</time>
      </trkpt>
      <trkpt lat="43.75941" lon="4.14449">
        <ele>89.6</ele>
        <time>2026-05-31T07:02:10.000Z</time>
      </trkpt>
      <trkpt lat="43.75942" lon="4.14448">
        <ele>89.5</ele>
        <time>2026-05-31T07:02:11.000Z</time>
      </trkpt>
      <trkpt lat="43.75942" lon="4.14447">
        <ele>89.7</ele>
        <time>2026-05-31T07:02:12.000Z</time>
      </trkpt>
      <trkpt lat="43.75942" lon="4.14446">
        <ele>90.1</ele>
        <time>2026-05-31T07:02:13.000Z</time>
      </trkpt>
      <trkpt lat="43.75942" lon="4.14445">
        <ele>90.7</ele>
        <time>2026-05-31T07:02:14.000Z</time>
      </trkpt>
      <trkpt lat="43.75943" lon="4.14444">
        <ele>90.9</ele>
        <time>2026-05-31T07:02:15.000Z</time>
      </trkpt>
      <trkpt lat="43.75944" lon="4.14443">
        <ele>91.4</ele>
        <time>2026-05-31T07:02:16.000Z</time>
      </trkpt>
      <trkpt lat="43.75944" lon="4.14441">
        <ele>91.8</ele>
        <time>2026-05-31T07:02:17.000Z</time>
      </trkpt>
      <trkpt lat="43.75945" lon="4.1444">
        <ele>91.8</ele>
        <time>2026-05-31T07:02:18.000Z</time>
      </trkpt>
      <trkpt lat="43.75945" lon="4.14437">
        <ele>91.3</ele>
        <time>2026-05-31T07:02:19.000Z</time>
      </trkpt>
      <trkpt lat="43.75945" lon="4.14436">
        <ele>91.3</ele>
        <time>2026-05-31T07:02:20.000Z</time>
      </trkpt>
      <trkpt lat="43.75945" lon="4.14434">
        <ele>91.5</ele>
        <time>2026-05-31T07:02:21.000Z</time>
      </trkpt>
      <trkpt lat="43.75945" lon="4.14433">
        <ele>91.9</ele>
        <time>2026-05-31T07:02:22.000Z</time>
      </trkpt>
      <trkpt lat="43.75945" lon="4.14431">
        <ele>92</ele>
        <time>2026-05-31T07:02:23.000Z</time>
      </trkpt>
      <trkpt lat="43.75946" lon="4.1443">
        <ele>92.6</ele>
        <time>2026-05-31T07:02:24.000Z</time>
      </trkpt>
      <trkpt lat="43.75947" lon="4.14428">
        <ele>93.2</ele>
        <time>2026-05-31T07:02:25.000Z</time>
      </trkpt>
      <trkpt lat="43.75948" lon="4.14427">
        <ele>93.5</ele>
        <time>2026-05-31T07:02:26.000Z</time>
      </trkpt>
      <trkpt lat="43.75949" lon="4.14427">
        <ele>93.9</ele>
        <time>2026-05-31T07:02:27.000Z</time>
      </trkpt>
      <trkpt lat="43.75949" lon="4.14426">
        <ele>94.1</ele>
        <time>2026-05-31T07:02:28.000Z</time>
      </trkpt>
      <trkpt lat="43.7595" lon="4.14424">
        <ele>94.5</ele>
        <time>2026-05-31T07:02:29.000Z</time>
      </trkpt>
      <trkpt lat="43.7595" lon="4.14423">
        <ele>95</ele>
        <time>2026-05-31T07:02:30.000Z</time>
      </trkpt>
      <trkpt lat="43.7595" lon="4.14422">
        <ele>95.1</ele>
        <time>2026-05-31T07:02:31.000Z</time>
      </trkpt>
      <trkpt lat="43.75951" lon="4.14421">
        <ele>95.1</ele>
        <time>2026-05-31T07:02:32.000Z</time>
      </trkpt>
      <trkpt lat="43.75951" lon="4.1442">
        <ele>94.8</ele>
        <time>2026-05-31T07:02:33.000Z</time>
      </trkpt>
      <trkpt lat="43.75951" lon="4.14418">
        <ele>95.4</ele>
        <time>2026-05-31T07:02:34.000Z</time>
      </trkpt>
      <trkpt lat="43.75951" lon="4.14415">
        <ele>95.3</ele>
        <time>2026-05-31T07:02:35.000Z</time>
      </trkpt>
      <trkpt lat="43.7595" lon="4.14412">
        <ele>95.2</ele>
        <time>2026-05-31T07:02:36.000Z</time>
      </trkpt>
      <trkpt lat="43.7595" lon="4.1441">
        <ele>95.2</ele>
        <time>2026-05-31T07:02:37.000Z</time>
      </trkpt>
      <trkpt lat="43.75949" lon="4.14409">
        <ele>94.9</ele>
        <time>2026-05-31T07:02:38.000Z</time>
      </trkpt>
      <trkpt lat="43.75949" lon="4.14409">
        <ele>94.7</ele>
        <time>2026-05-31T07:02:39.000Z</time>
      </trkpt>
      <trkpt lat="43.75949" lon="4.14408">
        <ele>94.5</ele>
        <time>2026-05-31T07:02:40.000Z</time>
      </trkpt>
      <trkpt lat="43.7595" lon="4.14407">
        <ele>94.2</ele>
        <time>2026-05-31T07:02:41.000Z</time>
      </trkpt>
      <trkpt lat="43.7595" lon="4.14405">
        <ele>94.3</ele>
        <time>2026-05-31T07:02:42.000Z</time>
      </trkpt>
      <trkpt lat="43.7595" lon="4.14404">
        <ele>94.4</ele>
        <time>2026-05-31T07:02:43.000Z</time>
      </trkpt>
      <trkpt lat="43.75951" lon="4.14402">
        <ele>94.4</ele>
        <time>2026-05-31T07:02:44.000Z</time>
      </trkpt>
      <trkpt lat="43.75951" lon="4.144">
        <ele>94.7</ele>
        <time>2026-05-31T07:02:45.000Z</time>
      </trkpt>
      <trkpt lat="43.75952" lon="4.14399">
        <ele>94.9</ele>
        <time>2026-05-31T07:02:46.000Z</time>
      </trkpt>
      <trkpt lat="43.75952" lon="4.14397">
        <ele>95.3</ele>
        <time>2026-05-31T07:02:47.000Z</time>
      </trkpt>
      <trkpt lat="43.75952" lon="4.14394">
        <ele>95.2</ele>
        <time>2026-05-31T07:02:48.999Z</time>
      </trkpt>
      <trkpt lat="43.75952" lon="4.14393">
        <ele>95.1</ele>
        <time>2026-05-31T07:02:49.999Z</time>
      </trkpt>
      <trkpt lat="43.75952" lon="4.14392">
        <ele>94.8</ele>
        <time>2026-05-31T07:02:50.999Z</time>
      </trkpt>
      <trkpt lat="43.75952" lon="4.1439">
        <ele>94.4</ele>
        <time>2026-05-31T07:02:51.999Z</time>
      </trkpt>
      <trkpt lat="43.75951" lon="4.14389">
        <ele>94.2</ele>
        <time>2026-05-31T07:02:52.999Z</time>
      </trkpt>
      <trkpt lat="43.75951" lon="4.14388">
        <ele>94.5</ele>
        <time>2026-05-31T07:02:53.999Z</time>
      </trkpt>
      <trkpt lat="43.7595" lon="4.14387">
        <ele>94.3</ele>
        <time>2026-05-31T07:02:54.999Z</time>
      </trkpt>
      <trkpt lat="43.7595" lon="4.14385">
        <ele>94.4</ele>
        <time>2026-05-31T07:02:55.999Z</time>
      </trkpt>
      <trkpt lat="43.7595" lon="4.14384">
        <ele>94.5</ele>
        <time>2026-05-31T07:02:56.999Z</time>
      </trkpt>
      <trkpt lat="43.75949" lon="4.14382">
        <ele>94.5</ele>
        <time>2026-05-31T07:02:57.999Z</time>
      </trkpt>
      <trkpt lat="43.75949" lon="4.14381">
        <ele>94.5</ele>
        <time>2026-05-31T07:02:58.999Z</time>
      </trkpt>
      <trkpt lat="43.75949" lon="4.14379">
        <ele>94.4</ele>
        <time>2026-05-31T07:02:59.999Z</time>
      </trkpt>
      <trkpt lat="43.75949" lon="4.14377">
        <ele>94.4</ele>
        <time>2026-05-31T07:03:00.999Z</time>
      </trkpt>
      <trkpt lat="43.75949" lon="4.14376">
        <ele>94.6</ele>
        <time>2026-05-31T07:03:01.999Z</time>
      </trkpt>
      <trkpt lat="43.75949" lon="4.14374">
        <ele>94.6</ele>
        <time>2026-05-31T07:03:02.999Z</time>
      </trkpt>
      <trkpt lat="43.75949" lon="4.14373">
        <ele>94.5</ele>
        <time>2026-05-31T07:03:03.999Z</time>
      </trkpt>
      <trkpt lat="43.7595" lon="4.14372">
        <ele>94.1</ele>
        <time>2026-05-31T07:03:04.999Z</time>
      </trkpt>
      <trkpt lat="43.7595" lon="4.1437">
        <ele>94.4</ele>
        <time>2026-05-31T07:03:05.999Z</time>
      </trkpt>
      <trkpt lat="43.75949" lon="4.14369">
        <ele>94.4</ele>
        <time>2026-05-31T07:03:06.999Z</time>
      </trkpt>
      <trkpt lat="43.75949" lon="4.14366">
        <ele>94.3</ele>
        <time>2026-05-31T07:03:07.999Z</time>
      </trkpt>
      <trkpt lat="43.75948" lon="4.14365">
        <ele>93.7</ele>
        <time>2026-05-31T07:03:08.999Z</time>
      </trkpt>
      <trkpt lat="43.75948" lon="4.14364">
        <ele>93</ele>
        <time>2026-05-31T07:03:09.999Z</time>
      </trkpt>
      <trkpt lat="43.75949" lon="4.14363">
        <ele>92.2</ele>
        <time>2026-05-31T07:03:10.999Z</time>
      </trkpt>
      <trkpt lat="43.7595" lon="4.14362">
        <ele>92.1</ele>
        <time>2026-05-31T07:03:11.999Z</time>
      </trkpt>
      <trkpt lat="43.7595" lon="4.1436">
        <ele>92.5</ele>
        <time>2026-05-31T07:03:12.999Z</time>
      </trkpt>
      <trkpt lat="43.7595" lon="4.14358">
        <ele>92.6</ele>
        <time>2026-05-31T07:03:13.999Z</time>
      </trkpt>
      <trkpt lat="43.75951" lon="4.14356">
        <ele>92.3</ele>
        <time>2026-05-31T07:03:14.999Z</time>
      </trkpt>
      <trkpt lat="43.75951" lon="4.14354">
        <ele>92.2</ele>
        <time>2026-05-31T07:03:15.999Z</time>
      </trkpt>
      <trkpt lat="43.75951" lon="4.14353">
        <ele>92.2</ele>
        <time>2026-05-31T07:03:16.999Z</time>
      </trkpt>
      <trkpt lat="43.75951" lon="4.14351">
        <ele>92.3</ele>
        <time>2026-05-31T07:03:17.999Z</time>
      </trkpt>
      <trkpt lat="43.75951" lon="4.14349">
        <ele>92.4</ele>
        <time>2026-05-31T07:03:18.999Z</time>
      </trkpt>
      <trkpt lat="43.75951" lon="4.14347">
        <ele>92.7</ele>
        <time>2026-05-31T07:03:19.999Z</time>
      </trkpt>
      <trkpt lat="43.75951" lon="4.14346">
        <ele>92.8</ele>
        <time>2026-05-31T07:03:20.999Z</time>
      </trkpt>
      <trkpt lat="43.75952" lon="4.14345">
        <ele>92.6</ele>
        <time>2026-05-31T07:03:21.999Z</time>
      </trkpt>
      <trkpt lat="43.75952" lon="4.14343">
        <ele>93</ele>
        <time>2026-05-31T07:03:22.999Z</time>
      </trkpt>
      <trkpt lat="43.75952" lon="4.14342">
        <ele>93.3</ele>
        <time>2026-05-31T07:03:23.999Z</time>
      </trkpt>
      <trkpt lat="43.75952" lon="4.14341">
        <ele>93.5</ele>
        <time>2026-05-31T07:03:24.999Z</time>
      </trkpt>
      <trkpt lat="43.75952" lon="4.14339">
        <ele>94</ele>
        <time>2026-05-31T07:03:25.999Z</time>
      </trkpt>
      <trkpt lat="43.75952" lon="4.14338">
        <ele>94.6</ele>
        <time>2026-05-31T07:03:26.999Z</time>
      </trkpt>
      <trkpt lat="43.75952" lon="4.14337">
        <ele>95.1</ele>
        <time>2026-05-31T07:03:27.999Z</time>
      </trkpt>
      <trkpt lat="43.75953" lon="4.14336">
        <ele>95.4</ele>
        <time>2026-05-31T07:03:28.999Z</time>
      </trkpt>
      <trkpt lat="43.75953" lon="4.14336">
        <ele>95.5</ele>
        <time>2026-05-31T07:03:29.999Z</time>
      </trkpt>
      <trkpt lat="43.75953" lon="4.14335">
        <ele>95.2</ele>
        <time>2026-05-31T07:03:30.999Z</time>
      </trkpt>
      <trkpt lat="43.75952" lon="4.14334">
        <ele>95.3</ele>
        <time>2026-05-31T07:03:31.999Z</time>
      </trkpt>
      <trkpt lat="43.75952" lon="4.14332">
        <ele>95</ele>
        <time>2026-05-31T07:03:32.999Z</time>
      </trkpt>
      <trkpt lat="43.75953" lon="4.14331">
        <ele>95.2</ele>
        <time>2026-05-31T07:03:33.999Z</time>
      </trkpt>
      <trkpt lat="43.75952" lon="4.1433">
        <ele>94.7</ele>
        <time>2026-05-31T07:03:34.999Z</time>
      </trkpt>
      <trkpt lat="43.75953" lon="4.14329">
        <ele>94.2</ele>
        <time>2026-05-31T07:03:35.999Z</time>
      </trkpt>
      <trkpt lat="43.75954" lon="4.14328">
        <ele>93.3</ele>
        <time>2026-05-31T07:03:36.999Z</time>
      </trkpt>
      <trkpt lat="43.75954" lon="4.14327">
        <ele>92.7</ele>
        <time>2026-05-31T07:03:37.999Z</time>
      </trkpt>
      <trkpt lat="43.75955" lon="4.14327">
        <ele>92.7</ele>
        <time>2026-05-31T07:03:38.999Z</time>
      </trkpt>
      <trkpt lat="43.75955" lon="4.14325">
        <ele>92.3</ele>
        <time>2026-05-31T07:03:39.999Z</time>
      </trkpt>
      <trkpt lat="43.75955" lon="4.14324">
        <ele>91.8</ele>
        <time>2026-05-31T07:03:40.999Z</time>
      </trkpt>
      <trkpt lat="43.75955" lon="4.14323">
        <ele>91.6</ele>
        <time>2026-05-31T07:03:41.999Z</time>
      </trkpt>
      <trkpt lat="43.75955" lon="4.14322">
        <ele>91.2</ele>
        <time>2026-05-31T07:03:42.999Z</time>
      </trkpt>
      <trkpt lat="43.75956" lon="4.1432">
        <ele>90.9</ele>
        <time>2026-05-31T07:03:43.999Z</time>
      </trkpt>
      <trkpt lat="43.75957" lon="4.14319">
        <ele>91.1</ele>
        <time>2026-05-31T07:03:44.999Z</time>
      </trkpt>
      <trkpt lat="43.75957" lon="4.14318">
        <ele>91.4</ele>
        <time>2026-05-31T07:03:45.999Z</time>
      </trkpt>
      <trkpt lat="43.75957" lon="4.14317">
        <ele>91.6</ele>
        <time>2026-05-31T07:03:46.999Z</time>
      </trkpt>
      <trkpt lat="43.75958" lon="4.14315">
        <ele>91.7</ele>
        <time>2026-05-31T07:03:47.999Z</time>
      </trkpt>
      <trkpt lat="43.75958" lon="4.14314">
        <ele>91.8</ele>
        <time>2026-05-31T07:03:48.999Z</time>
      </trkpt>
      <trkpt lat="43.75958" lon="4.14312">
        <ele>91.8</ele>
        <time>2026-05-31T07:03:49.999Z</time>
      </trkpt>
      <trkpt lat="43.75958" lon="4.14311">
        <ele>91.1</ele>
        <time>2026-05-31T07:03:50.999Z</time>
      </trkpt>
      <trkpt lat="43.75958" lon="4.1431">
        <ele>90.6</ele>
        <time>2026-05-31T07:03:51.999Z</time>
      </trkpt>
      <trkpt lat="43.75959" lon="4.14308">
        <ele>90.9</ele>
        <time>2026-05-31T07:03:52.999Z</time>
      </trkpt>
      <trkpt lat="43.75959" lon="4.14308">
        <ele>90.5</ele>
        <time>2026-05-31T07:03:53.999Z</time>
      </trkpt>
      <trkpt lat="43.7596" lon="4.14307">
        <ele>90.3</ele>
        <time>2026-05-31T07:03:54.999Z</time>
      </trkpt>
      <trkpt lat="43.75961" lon="4.14306">
        <ele>90</ele>
        <time>2026-05-31T07:03:55.999Z</time>
      </trkpt>
      <trkpt lat="43.75961" lon="4.14305">
        <ele>89.5</ele>
        <time>2026-05-31T07:03:56.999Z</time>
      </trkpt>
      <trkpt lat="43.75961" lon="4.14304">
        <ele>90</ele>
        <time>2026-05-31T07:03:57.999Z</time>
      </trkpt>
      <trkpt lat="43.75961" lon="4.14304">
        <ele>90.1</ele>
        <time>2026-05-31T07:03:58.999Z</time>
      </trkpt>
      <trkpt lat="43.75962" lon="4.14302">
        <ele>90.4</ele>
        <time>2026-05-31T07:03:59.999Z</time>
      </trkpt>
      <trkpt lat="43.75962" lon="4.14301">
        <ele>90.9</ele>
        <time>2026-05-31T07:04:00.999Z</time>
      </trkpt>
      <trkpt lat="43.75963" lon="4.14299">
        <ele>90.7</ele>
        <time>2026-05-31T07:04:01.999Z</time>
      </trkpt>
      <trkpt lat="43.75964" lon="4.14298">
        <ele>90.9</ele>
        <time>2026-05-31T07:04:02.999Z</time>
      </trkpt>
      <trkpt lat="43.75964" lon="4.14297">
        <ele>91.3</ele>
        <time>2026-05-31T07:04:03.999Z</time>
      </trkpt>
      <trkpt lat="43.75964" lon="4.14295">
        <ele>92.1</ele>
        <time>2026-05-31T07:04:04.999Z</time>
      </trkpt>
      <trkpt lat="43.75964" lon="4.14294">
        <ele>92.7</ele>
        <time>2026-05-31T07:04:05.999Z</time>
      </trkpt>
      <trkpt lat="43.75965" lon="4.14293">
        <ele>92.8</ele>
        <time>2026-05-31T07:04:06.999Z</time>
      </trkpt>
      <trkpt lat="43.75965" lon="4.14292">
        <ele>93.2</ele>
        <time>2026-05-31T07:04:07.999Z</time>
      </trkpt>
      <trkpt lat="43.75966" lon="4.1429">
        <ele>93.6</ele>
        <time>2026-05-31T07:04:08.999Z</time>
      </trkpt>
      <trkpt lat="43.75966" lon="4.14289">
        <ele>94.2</ele>
        <time>2026-05-31T07:04:09.999Z</time>
      </trkpt>
      <trkpt lat="43.75966" lon="4.14287">
        <ele>95.4</ele>
        <time>2026-05-31T07:04:10.999Z</time>
      </trkpt>
      <trkpt lat="43.75966" lon="4.14285">
        <ele>96</ele>
        <time>2026-05-31T07:04:11.999Z</time>
      </trkpt>
      <trkpt lat="43.75966" lon="4.14283">
        <ele>96.6</ele>
        <time>2026-05-31T07:04:12.999Z</time>
      </trkpt>
      <trkpt lat="43.75966" lon="4.14281">
        <ele>97.3</ele>
        <time>2026-05-31T07:04:13.999Z</time>
      </trkpt>
      <trkpt lat="43.75967" lon="4.1428">
        <ele>98</ele>
        <time>2026-05-31T07:04:14.999Z</time>
      </trkpt>
      <trkpt lat="43.75968" lon="4.14278">
        <ele>98.9</ele>
        <time>2026-05-31T07:04:15.999Z</time>
      </trkpt>
      <trkpt lat="43.7597" lon="4.14276">
        <ele>99.8</ele>
        <time>2026-05-31T07:04:16.999Z</time>
      </trkpt>
      <trkpt lat="43.7597" lon="4.14275">
        <ele>100.2</ele>
        <time>2026-05-31T07:04:17.999Z</time>
      </trkpt>
      <trkpt lat="43.7597" lon="4.14273">
        <ele>100.3</ele>
        <time>2026-05-31T07:04:18.999Z</time>
      </trkpt>
      <trkpt lat="43.75971" lon="4.14271">
        <ele>100.2</ele>
        <time>2026-05-31T07:04:19.999Z</time>
      </trkpt>
      <trkpt lat="43.75971" lon="4.14269">
        <ele>100.6</ele>
        <time>2026-05-31T07:04:20.999Z</time>
      </trkpt>
      <trkpt lat="43.75971" lon="4.14267">
        <ele>101.4</ele>
        <time>2026-05-31T07:04:21.999Z</time>
      </trkpt>
      <trkpt lat="43.75972" lon="4.14266">
        <ele>102</ele>
        <time>2026-05-31T07:04:22.999Z</time>
      </trkpt>
      <trkpt lat="43.75972" lon="4.14265">
        <ele>102.1</ele>
        <time>2026-05-31T07:04:23.999Z</time>
      </trkpt>
      <trkpt lat="43.75973" lon="4.14264">
        <ele>102.2</ele>
        <time>2026-05-31T07:04:24.999Z</time>
      </trkpt>
      <trkpt lat="43.75973" lon="4.14262">
        <ele>101.9</ele>
        <time>2026-05-31T07:04:25.999Z</time>
      </trkpt>
      <trkpt lat="43.75974" lon="4.14261">
        <ele>101.9</ele>
        <time>2026-05-31T07:04:26.999Z</time>
      </trkpt>
      <trkpt lat="43.75975" lon="4.1426">
        <ele>102.1</ele>
        <time>2026-05-31T07:04:27.999Z</time>
      </trkpt>
      <trkpt lat="43.75976" lon="4.14259">
        <ele>102</ele>
        <time>2026-05-31T07:04:28.999Z</time>
      </trkpt>
      <trkpt lat="43.75976" lon="4.14258">
        <ele>102</ele>
        <time>2026-05-31T07:04:29.999Z</time>
      </trkpt>
      <trkpt lat="43.75977" lon="4.14256">
        <ele>102.1</ele>
        <time>2026-05-31T07:04:30.999Z</time>
      </trkpt>
      <trkpt lat="43.75978" lon="4.14255">
        <ele>102.5</ele>
        <time>2026-05-31T07:04:31.999Z</time>
      </trkpt>
      <trkpt lat="43.75979" lon="4.14253">
        <ele>102.4</ele>
        <time>2026-05-31T07:04:32.999Z</time>
      </trkpt>
      <trkpt lat="43.75979" lon="4.14252">
        <ele>102.5</ele>
        <time>2026-05-31T07:04:33.999Z</time>
      </trkpt>
      <trkpt lat="43.75979" lon="4.1425">
        <ele>102.6</ele>
        <time>2026-05-31T07:04:34.999Z</time>
      </trkpt>
      <trkpt lat="43.75979" lon="4.1425">
        <ele>102.6</ele>
        <time>2026-05-31T07:04:35.999Z</time>
      </trkpt>
      <trkpt lat="43.75979" lon="4.14248">
        <ele>102.5</ele>
        <time>2026-05-31T07:04:36.999Z</time>
      </trkpt>
      <trkpt lat="43.7598" lon="4.14247">
        <ele>102.7</ele>
        <time>2026-05-31T07:04:37.999Z</time>
      </trkpt>
      <trkpt lat="43.75981" lon="4.14247">
        <ele>102.8</ele>
        <time>2026-05-31T07:04:38.999Z</time>
      </trkpt>
      <trkpt lat="43.75982" lon="4.14246">
        <ele>102.7</ele>
        <time>2026-05-31T07:04:39.999Z</time>
      </trkpt>
      <trkpt lat="43.75982" lon="4.14246">
        <ele>102.5</ele>
        <time>2026-05-31T07:04:40.999Z</time>
      </trkpt>
      <trkpt lat="43.75983" lon="4.14245">
        <ele>102.3</ele>
        <time>2026-05-31T07:04:41.999Z</time>
      </trkpt>
      <trkpt lat="43.75983" lon="4.14244">
        <ele>102.4</ele>
        <time>2026-05-31T07:04:42.999Z</time>
      </trkpt>
      <trkpt lat="43.75983" lon="4.14242">
        <ele>102.3</ele>
        <time>2026-05-31T07:04:43.999Z</time>
      </trkpt>
      <trkpt lat="43.75983" lon="4.1424">
        <ele>102.1</ele>
        <time>2026-05-31T07:04:44.999Z</time>
      </trkpt>
      <trkpt lat="43.75984" lon="4.14239">
        <ele>102.1</ele>
        <time>2026-05-31T07:04:45.999Z</time>
      </trkpt>
      <trkpt lat="43.75985" lon="4.14237">
        <ele>101.9</ele>
        <time>2026-05-31T07:04:46.999Z</time>
      </trkpt>
      <trkpt lat="43.75986" lon="4.14235">
        <ele>101.9</ele>
        <time>2026-05-31T07:04:47.999Z</time>
      </trkpt>
      <trkpt lat="43.75987" lon="4.14234">
        <ele>101.8</ele>
        <time>2026-05-31T07:04:48.999Z</time>
      </trkpt>
      <trkpt lat="43.75988" lon="4.14233">
        <ele>101.9</ele>
        <time>2026-05-31T07:04:49.999Z</time>
      </trkpt>
      <trkpt lat="43.75988" lon="4.14232">
        <ele>101.9</ele>
        <time>2026-05-31T07:04:50.999Z</time>
      </trkpt>
      <trkpt lat="43.7599" lon="4.14231">
        <ele>102.1</ele>
        <time>2026-05-31T07:04:51.999Z</time>
      </trkpt>
      <trkpt lat="43.75991" lon="4.1423">
        <ele>102.5</ele>
        <time>2026-05-31T07:04:52.999Z</time>
      </trkpt>
      <trkpt lat="43.75993" lon="4.14229">
        <ele>103</ele>
        <time>2026-05-31T07:04:53.999Z</time>
      </trkpt>
      <trkpt lat="43.75995" lon="4.14228">
        <ele>103.3</ele>
        <time>2026-05-31T07:04:54.999Z</time>
      </trkpt>
      <trkpt lat="43.75996" lon="4.14227">
        <ele>104.1</ele>
        <time>2026-05-31T07:04:55.999Z</time>
      </trkpt>
      <trkpt lat="43.75997" lon="4.14226">
        <ele>104.6</ele>
        <time>2026-05-31T07:04:56.999Z</time>
      </trkpt>
      <trkpt lat="43.75998" lon="4.14225">
        <ele>105.2</ele>
        <time>2026-05-31T07:04:57.999Z</time>
      </trkpt>
      <trkpt lat="43.75998" lon="4.14224">
        <ele>105.5</ele>
        <time>2026-05-31T07:04:58.999Z</time>
      </trkpt>
      <trkpt lat="43.75999" lon="4.14223">
        <ele>105.8</ele>
        <time>2026-05-31T07:04:59.999Z</time>
      </trkpt>
      <trkpt lat="43.76" lon="4.14221">
        <ele>106.3</ele>
        <time>2026-05-31T07:05:00.999Z</time>
      </trkpt>
      <trkpt lat="43.76" lon="4.1422">
        <ele>106.1</ele>
        <time>2026-05-31T07:05:01.999Z</time>
      </trkpt>
      <trkpt lat="43.76" lon="4.14219">
        <ele>106</ele>
        <time>2026-05-31T07:05:02.999Z</time>
      </trkpt>
      <trkpt lat="43.76001" lon="4.14218">
        <ele>106.2</ele>
        <time>2026-05-31T07:05:03.999Z</time>
      </trkpt>
      <trkpt lat="43.76001" lon="4.14217">
        <ele>106.5</ele>
        <time>2026-05-31T07:05:04.999Z</time>
      </trkpt>
      <trkpt lat="43.76001" lon="4.14216">
        <ele>106.7</ele>
        <time>2026-05-31T07:05:05.999Z</time>
      </trkpt>
      <trkpt lat="43.76002" lon="4.14215">
        <ele>107.2</ele>
        <time>2026-05-31T07:05:06.999Z</time>
      </trkpt>
      <trkpt lat="43.76002" lon="4.14214">
        <ele>107.6</ele>
        <time>2026-05-31T07:05:07.999Z</time>
      </trkpt>
      <trkpt lat="43.76003" lon="4.14212">
        <ele>107.8</ele>
        <time>2026-05-31T07:05:08.999Z</time>
      </trkpt>
      <trkpt lat="43.76004" lon="4.14211">
        <ele>108.2</ele>
        <time>2026-05-31T07:05:09.999Z</time>
      </trkpt>
      <trkpt lat="43.76004" lon="4.14209">
        <ele>108.1</ele>
        <time>2026-05-31T07:05:10.999Z</time>
      </trkpt>
      <trkpt lat="43.76005" lon="4.14208">
        <ele>108.1</ele>
        <time>2026-05-31T07:05:11.999Z</time>
      </trkpt>
      <trkpt lat="43.76005" lon="4.14207">
        <ele>107.7</ele>
        <time>2026-05-31T07:05:12.999Z</time>
      </trkpt>
      <trkpt lat="43.76005" lon="4.14206">
        <ele>107.6</ele>
        <time>2026-05-31T07:05:13.999Z</time>
      </trkpt>
      <trkpt lat="43.76005" lon="4.14205">
        <ele>107.6</ele>
        <time>2026-05-31T07:05:14.999Z</time>
      </trkpt>
      <trkpt lat="43.76006" lon="4.14204">
        <ele>107.8</ele>
        <time>2026-05-31T07:05:15.999Z</time>
      </trkpt>
      <trkpt lat="43.76007" lon="4.14203">
        <ele>107.7</ele>
        <time>2026-05-31T07:05:16.999Z</time>
      </trkpt>
      <trkpt lat="43.76008" lon="4.14202">
        <ele>107.5</ele>
        <time>2026-05-31T07:05:17.999Z</time>
      </trkpt>
      <trkpt lat="43.76009" lon="4.14202">
        <ele>107.6</ele>
        <time>2026-05-31T07:05:18.999Z</time>
      </trkpt>
      <trkpt lat="43.76009" lon="4.142">
        <ele>107.7</ele>
        <time>2026-05-31T07:05:19.999Z</time>
      </trkpt>
      <trkpt lat="43.7601" lon="4.14198">
        <ele>107.5</ele>
        <time>2026-05-31T07:05:20.999Z</time>
      </trkpt>
      <trkpt lat="43.76011" lon="4.14197">
        <ele>107.2</ele>
        <time>2026-05-31T07:05:21.999Z</time>
      </trkpt>
      <trkpt lat="43.76012" lon="4.14196">
        <ele>106.9</ele>
        <time>2026-05-31T07:05:22.999Z</time>
      </trkpt>
      <trkpt lat="43.76012" lon="4.14196">
        <ele>107.1</ele>
        <time>2026-05-31T07:05:23.999Z</time>
      </trkpt>
      <trkpt lat="43.76013" lon="4.14195">
        <ele>107.1</ele>
        <time>2026-05-31T07:05:24.999Z</time>
      </trkpt>
      <trkpt lat="43.76013" lon="4.14194">
        <ele>107.4</ele>
        <time>2026-05-31T07:05:25.999Z</time>
      </trkpt>
      <trkpt lat="43.76014" lon="4.14192">
        <ele>107.6</ele>
        <time>2026-05-31T07:05:26.999Z</time>
      </trkpt>
      <trkpt lat="43.76015" lon="4.14191">
        <ele>107.9</ele>
        <time>2026-05-31T07:05:27.999Z</time>
      </trkpt>
      <trkpt lat="43.76015" lon="4.1419">
        <ele>108.1</ele>
        <time>2026-05-31T07:05:28.999Z</time>
      </trkpt>
      <trkpt lat="43.76016" lon="4.14189">
        <ele>108</ele>
        <time>2026-05-31T07:05:29.999Z</time>
      </trkpt>
      <trkpt lat="43.76016" lon="4.14187">
        <ele>107.9</ele>
        <time>2026-05-31T07:05:30.999Z</time>
      </trkpt>
      <trkpt lat="43.76016" lon="4.14186">
        <ele>108</ele>
        <time>2026-05-31T07:05:31.999Z</time>
      </trkpt>
      <trkpt lat="43.76017" lon="4.14185">
        <ele>107.8</ele>
        <time>2026-05-31T07:05:32.999Z</time>
      </trkpt>
      <trkpt lat="43.76018" lon="4.14185">
        <ele>107.7</ele>
        <time>2026-05-31T07:05:33.999Z</time>
      </trkpt>
      <trkpt lat="43.76019" lon="4.14184">
        <ele>107.7</ele>
        <time>2026-05-31T07:05:34.999Z</time>
      </trkpt>
      <trkpt lat="43.7602" lon="4.14183">
        <ele>107.5</ele>
        <time>2026-05-31T07:05:35.999Z</time>
      </trkpt>
      <trkpt lat="43.76021" lon="4.14182">
        <ele>107.3</ele>
        <time>2026-05-31T07:05:36.999Z</time>
      </trkpt>
      <trkpt lat="43.76022" lon="4.14181">
        <ele>107.2</ele>
        <time>2026-05-31T07:05:37.999Z</time>
      </trkpt>
      <trkpt lat="43.76023" lon="4.14179">
        <ele>107.1</ele>
        <time>2026-05-31T07:05:38.999Z</time>
      </trkpt>
      <trkpt lat="43.76023" lon="4.14179">
        <ele>107</ele>
        <time>2026-05-31T07:05:39.999Z</time>
      </trkpt>
      <trkpt lat="43.76023" lon="4.14178">
        <ele>106.8</ele>
        <time>2026-05-31T07:05:40.999Z</time>
      </trkpt>
      <trkpt lat="43.76023" lon="4.14176">
        <ele>106.6</ele>
        <time>2026-05-31T07:05:41.999Z</time>
      </trkpt>
      <trkpt lat="43.76023" lon="4.14174">
        <ele>106.6</ele>
        <time>2026-05-31T07:05:42.999Z</time>
      </trkpt>
      <trkpt lat="43.76024" lon="4.14173">
        <ele>106.2</ele>
        <time>2026-05-31T07:05:43.999Z</time>
      </trkpt>
      <trkpt lat="43.76025" lon="4.14172">
        <ele>106.3</ele>
        <time>2026-05-31T07:05:44.999Z</time>
      </trkpt>
      <trkpt lat="43.76026" lon="4.14171">
        <ele>106.2</ele>
        <time>2026-05-31T07:05:45.999Z</time>
      </trkpt>
      <trkpt lat="43.76026" lon="4.1417">
        <ele>105.8</ele>
        <time>2026-05-31T07:05:46.999Z</time>
      </trkpt>
      <trkpt lat="43.76027" lon="4.14169">
        <ele>105.5</ele>
        <time>2026-05-31T07:05:47.999Z</time>
      </trkpt>
      <trkpt lat="43.76028" lon="4.14168">
        <ele>105.1</ele>
        <time>2026-05-31T07:05:48.999Z</time>
      </trkpt>
      <trkpt lat="43.76029" lon="4.14168">
        <ele>105.1</ele>
        <time>2026-05-31T07:05:49.999Z</time>
      </trkpt>
      <trkpt lat="43.7603" lon="4.14167">
        <ele>104.9</ele>
        <time>2026-05-31T07:05:50.999Z</time>
      </trkpt>
      <trkpt lat="43.7603" lon="4.14166">
        <ele>104.6</ele>
        <time>2026-05-31T07:05:51.999Z</time>
      </trkpt>
      <trkpt lat="43.76031" lon="4.14164">
        <ele>104.6</ele>
        <time>2026-05-31T07:05:52.999Z</time>
      </trkpt>
      <trkpt lat="43.76031" lon="4.14163">
        <ele>104.4</ele>
        <time>2026-05-31T07:05:53.999Z</time>
      </trkpt>
      <trkpt lat="43.76032" lon="4.14162">
        <ele>104.4</ele>
        <time>2026-05-31T07:05:54.999Z</time>
      </trkpt>
      <trkpt lat="43.76032" lon="4.14161">
        <ele>104.6</ele>
        <time>2026-05-31T07:05:55.999Z</time>
      </trkpt>
      <trkpt lat="43.76032" lon="4.1416">
        <ele>104.5</ele>
        <time>2026-05-31T07:05:56.999Z</time>
      </trkpt>
      <trkpt lat="43.76032" lon="4.14159">
        <ele>104.1</ele>
        <time>2026-05-31T07:05:57.999Z</time>
      </trkpt>
      <trkpt lat="43.76033" lon="4.14158">
        <ele>104</ele>
        <time>2026-05-31T07:05:58.999Z</time>
      </trkpt>
      <trkpt lat="43.76033" lon="4.14156">
        <ele>103.7</ele>
        <time>2026-05-31T07:05:59.999Z</time>
      </trkpt>
      <trkpt lat="43.76034" lon="4.14155">
        <ele>103.5</ele>
        <time>2026-05-31T07:06:00.999Z</time>
      </trkpt>
      <trkpt lat="43.76034" lon="4.14154">
        <ele>103.1</ele>
        <time>2026-05-31T07:06:01.999Z</time>
      </trkpt>
      <trkpt lat="43.76036" lon="4.14153">
        <ele>103.3</ele>
        <time>2026-05-31T07:06:02.999Z</time>
      </trkpt>
      <trkpt lat="43.76037" lon="4.14152">
        <ele>103.3</ele>
        <time>2026-05-31T07:06:03.999Z</time>
      </trkpt>
      <trkpt lat="43.76037" lon="4.1415">
        <ele>103.8</ele>
        <time>2026-05-31T07:06:04.999Z</time>
      </trkpt>
      <trkpt lat="43.76038" lon="4.14149">
        <ele>104</ele>
        <time>2026-05-31T07:06:05.999Z</time>
      </trkpt>
      <trkpt lat="43.76038" lon="4.14148">
        <ele>104.1</ele>
        <time>2026-05-31T07:06:06.999Z</time>
      </trkpt>
      <trkpt lat="43.76039" lon="4.14147">
        <ele>104.2</ele>
        <time>2026-05-31T07:06:07.999Z</time>
      </trkpt>
      <trkpt lat="43.76039" lon="4.14146">
        <ele>104.1</ele>
        <time>2026-05-31T07:06:08.999Z</time>
      </trkpt>
      <trkpt lat="43.7604" lon="4.14145">
        <ele>104</ele>
        <time>2026-05-31T07:06:09.999Z</time>
      </trkpt>
      <trkpt lat="43.7604" lon="4.14143">
        <ele>103.9</ele>
        <time>2026-05-31T07:06:10.999Z</time>
      </trkpt>
      <trkpt lat="43.76041" lon="4.14141">
        <ele>104.2</ele>
        <time>2026-05-31T07:06:11.999Z</time>
      </trkpt>
      <trkpt lat="43.76042" lon="4.1414">
        <ele>104.7</ele>
        <time>2026-05-31T07:06:12.999Z</time>
      </trkpt>
      <trkpt lat="43.76043" lon="4.14139">
        <ele>105.2</ele>
        <time>2026-05-31T07:06:13.999Z</time>
      </trkpt>
      <trkpt lat="43.76044" lon="4.14138">
        <ele>105.3</ele>
        <time>2026-05-31T07:06:14.999Z</time>
      </trkpt>
      <trkpt lat="43.76045" lon="4.14137">
        <ele>105.2</ele>
        <time>2026-05-31T07:06:15.999Z</time>
      </trkpt>
      <trkpt lat="43.76046" lon="4.14137">
        <ele>105.1</ele>
        <time>2026-05-31T07:06:16.999Z</time>
      </trkpt>
      <trkpt lat="43.76046" lon="4.14137">
        <ele>105.3</ele>
        <time>2026-05-31T07:06:17.999Z</time>
      </trkpt>
      <trkpt lat="43.76047" lon="4.14137">
        <ele>105.5</ele>
        <time>2026-05-31T07:06:18.999Z</time>
      </trkpt>
      <trkpt lat="43.76047" lon="4.14137">
        <ele>105.4</ele>
        <time>2026-05-31T07:06:19.999Z</time>
      </trkpt>
      <trkpt lat="43.76047" lon="4.14137">
        <ele>105.2</ele>
        <time>2026-05-31T07:06:20.999Z</time>
      </trkpt>
      <trkpt lat="43.76047" lon="4.14137">
        <ele>105.1</ele>
        <time>2026-05-31T07:06:21.999Z</time>
      </trkpt>
      <trkpt lat="43.76047" lon="4.14137">
        <ele>105</ele>
        <time>2026-05-31T07:06:22.999Z</time>
      </trkpt>
      <trkpt lat="43.76047" lon="4.14137">
        <ele>105.1</ele>
        <time>2026-05-31T07:06:23.999Z</time>
      </trkpt>
      <trkpt lat="43.76047" lon="4.14137">
        <ele>104.7</ele>
        <time>2026-05-31T07:06:24.999Z</time>
      </trkpt>
      <trkpt lat="43.76048" lon="4.14136">
        <ele>104.2</ele>
        <time>2026-05-31T07:06:25.999Z</time>
      </trkpt>
      <trkpt lat="43.76048" lon="4.14134">
        <ele>103.8</ele>
        <time>2026-05-31T07:06:26.999Z</time>
      </trkpt>
      <trkpt lat="43.76049" lon="4.14132">
        <ele>103.4</ele>
        <time>2026-05-31T07:06:27.999Z</time>
      </trkpt>
      <trkpt lat="43.7605" lon="4.1413">
        <ele>102.9</ele>
        <time>2026-05-31T07:06:28.999Z</time>
      </trkpt>
      <trkpt lat="43.76052" lon="4.14127">
        <ele>102.4</ele>
        <time>2026-05-31T07:06:29.999Z</time>
      </trkpt>
      <trkpt lat="43.76054" lon="4.14126">
        <ele>101.6</ele>
        <time>2026-05-31T07:06:30.999Z</time>
      </trkpt>
      <trkpt lat="43.76055" lon="4.14124">
        <ele>100.8</ele>
        <time>2026-05-31T07:06:31.999Z</time>
      </trkpt>
      <trkpt lat="43.76057" lon="4.14123">
        <ele>100.1</ele>
        <time>2026-05-31T07:06:32.999Z</time>
      </trkpt>
      <trkpt lat="43.76058" lon="4.14121">
        <ele>99.6</ele>
        <time>2026-05-31T07:06:33.999Z</time>
      </trkpt>
      <trkpt lat="43.76059" lon="4.14119">
        <ele>99.2</ele>
        <time>2026-05-31T07:06:34.999Z</time>
      </trkpt>
      <trkpt lat="43.76059" lon="4.14118">
        <ele>98.6</ele>
        <time>2026-05-31T07:06:35.999Z</time>
      </trkpt>
      <trkpt lat="43.7606" lon="4.14118">
        <ele>98.1</ele>
        <time>2026-05-31T07:06:36.999Z</time>
      </trkpt>
      <trkpt lat="43.76061" lon="4.14117">
        <ele>97.9</ele>
        <time>2026-05-31T07:06:37.999Z</time>
      </trkpt>
      <trkpt lat="43.76061" lon="4.14117">
        <ele>97.5</ele>
        <time>2026-05-31T07:06:38.999Z</time>
      </trkpt>
      <trkpt lat="43.76063" lon="4.14116">
        <ele>97.2</ele>
        <time>2026-05-31T07:06:39.999Z</time>
      </trkpt>
      <trkpt lat="43.76065" lon="4.14115">
        <ele>97.1</ele>
        <time>2026-05-31T07:06:40.999Z</time>
      </trkpt>
      <trkpt lat="43.76066" lon="4.14113">
        <ele>97</ele>
        <time>2026-05-31T07:06:41.999Z</time>
      </trkpt>
      <trkpt lat="43.76068" lon="4.14113">
        <ele>97.1</ele>
        <time>2026-05-31T07:06:42.999Z</time>
      </trkpt>
      <trkpt lat="43.76069" lon="4.14112">
        <ele>96.5</ele>
        <time>2026-05-31T07:06:43.999Z</time>
      </trkpt>
      <trkpt lat="43.7607" lon="4.14112">
        <ele>96</ele>
        <time>2026-05-31T07:06:44.999Z</time>
      </trkpt>
      <trkpt lat="43.7607" lon="4.14111">
        <ele>96</ele>
        <time>2026-05-31T07:06:45.999Z</time>
      </trkpt>
      <trkpt lat="43.76071" lon="4.14109">
        <ele>96</ele>
        <time>2026-05-31T07:06:46.999Z</time>
      </trkpt>
      <trkpt lat="43.76072" lon="4.14108">
        <ele>95.9</ele>
        <time>2026-05-31T07:06:47.999Z</time>
      </trkpt>
      <trkpt lat="43.76073" lon="4.14107">
        <ele>96</ele>
        <time>2026-05-31T07:06:48.999Z</time>
      </trkpt>
      <trkpt lat="43.76074" lon="4.14107">
        <ele>96.2</ele>
        <time>2026-05-31T07:06:49.999Z</time>
      </trkpt>
      <trkpt lat="43.76075" lon="4.14107">
        <ele>96.2</ele>
        <time>2026-05-31T07:06:50.999Z</time>
      </trkpt>
      <trkpt lat="43.76076" lon="4.14107">
        <ele>96.3</ele>
        <time>2026-05-31T07:06:51.999Z</time>
      </trkpt>
      <trkpt lat="43.76076" lon="4.14105">
        <ele>95.9</ele>
        <time>2026-05-31T07:06:52.999Z</time>
      </trkpt>
      <trkpt lat="43.76076" lon="4.14104">
        <ele>95.5</ele>
        <time>2026-05-31T07:06:53.999Z</time>
      </trkpt>
      <trkpt lat="43.76077" lon="4.14103">
        <ele>95.1</ele>
        <time>2026-05-31T07:06:54.999Z</time>
      </trkpt>
      <trkpt lat="43.76078" lon="4.14102">
        <ele>95</ele>
        <time>2026-05-31T07:06:55.999Z</time>
      </trkpt>
      <trkpt lat="43.76079" lon="4.14101">
        <ele>95.1</ele>
        <time>2026-05-31T07:06:56.999Z</time>
      </trkpt>
      <trkpt lat="43.7608" lon="4.14101">
        <ele>94.8</ele>
        <time>2026-05-31T07:06:57.999Z</time>
      </trkpt>
      <trkpt lat="43.76081" lon="4.141">
        <ele>94.9</ele>
        <time>2026-05-31T07:06:58.999Z</time>
      </trkpt>
      <trkpt lat="43.76081" lon="4.14098">
        <ele>94.9</ele>
        <time>2026-05-31T07:06:59.999Z</time>
      </trkpt>
      <trkpt lat="43.76082" lon="4.14097">
        <ele>94.9</ele>
        <time>2026-05-31T07:07:00.999Z</time>
      </trkpt>
      <trkpt lat="43.76083" lon="4.14096">
        <ele>94.7</ele>
        <time>2026-05-31T07:07:01.999Z</time>
      </trkpt>
      <trkpt lat="43.76083" lon="4.14095">
        <ele>94.3</ele>
        <time>2026-05-31T07:07:02.999Z</time>
      </trkpt>
      <trkpt lat="43.76084" lon="4.14093">
        <ele>94.5</ele>
        <time>2026-05-31T07:07:03.999Z</time>
      </trkpt>
      <trkpt lat="43.76084" lon="4.14091">
        <ele>94.1</ele>
        <time>2026-05-31T07:07:04.999Z</time>
      </trkpt>
      <trkpt lat="43.76085" lon="4.1409">
        <ele>94.2</ele>
        <time>2026-05-31T07:07:05.999Z</time>
      </trkpt>
      <trkpt lat="43.76085" lon="4.14089">
        <ele>93.1</ele>
        <time>2026-05-31T07:07:06.999Z</time>
      </trkpt>
      <trkpt lat="43.76085" lon="4.14089">
        <ele>92.4</ele>
        <time>2026-05-31T07:07:07.999Z</time>
      </trkpt>
      <trkpt lat="43.76086" lon="4.14089">
        <ele>91.7</ele>
        <time>2026-05-31T07:07:08.999Z</time>
      </trkpt>
      <trkpt lat="43.76088" lon="4.14089">
        <ele>91.9</ele>
        <time>2026-05-31T07:07:09.999Z</time>
      </trkpt>
      <trkpt lat="43.76089" lon="4.14087">
        <ele>92.2</ele>
        <time>2026-05-31T07:07:10.999Z</time>
      </trkpt>
      <trkpt lat="43.76091" lon="4.14086">
        <ele>92.4</ele>
        <time>2026-05-31T07:07:11.999Z</time>
      </trkpt>
      <trkpt lat="43.76093" lon="4.14083">
        <ele>92.8</ele>
        <time>2026-05-31T07:07:12.999Z</time>
      </trkpt>
      <trkpt lat="43.76094" lon="4.14082">
        <ele>93.1</ele>
        <time>2026-05-31T07:07:13.999Z</time>
      </trkpt>
      <trkpt lat="43.76095" lon="4.14081">
        <ele>93.5</ele>
        <time>2026-05-31T07:07:14.999Z</time>
      </trkpt>
      <trkpt lat="43.76095" lon="4.1408">
        <ele>94.4</ele>
        <time>2026-05-31T07:07:15.999Z</time>
      </trkpt>
      <trkpt lat="43.76096" lon="4.14079">
        <ele>94.7</ele>
        <time>2026-05-31T07:07:16.999Z</time>
      </trkpt>
      <trkpt lat="43.76097" lon="4.14077">
        <ele>95.1</ele>
        <time>2026-05-31T07:07:17.999Z</time>
      </trkpt>
      <trkpt lat="43.76098" lon="4.14076">
        <ele>95.7</ele>
        <time>2026-05-31T07:07:18.999Z</time>
      </trkpt>
      <trkpt lat="43.76098" lon="4.14074">
        <ele>96</ele>
        <time>2026-05-31T07:07:19.999Z</time>
      </trkpt>
      <trkpt lat="43.76099" lon="4.14074">
        <ele>96.9</ele>
        <time>2026-05-31T07:07:20.999Z</time>
      </trkpt>
      <trkpt lat="43.76099" lon="4.14073">
        <ele>97.3</ele>
        <time>2026-05-31T07:07:21.999Z</time>
      </trkpt>
      <trkpt lat="43.761" lon="4.14072">
        <ele>97.8</ele>
        <time>2026-05-31T07:07:22.999Z</time>
      </trkpt>
      <trkpt lat="43.76101" lon="4.14071">
        <ele>98.5</ele>
        <time>2026-05-31T07:07:23.999Z</time>
      </trkpt>
      <trkpt lat="43.76101" lon="4.1407">
        <ele>99.3</ele>
        <time>2026-05-31T07:07:24.999Z</time>
      </trkpt>
      <trkpt lat="43.76102" lon="4.14069">
        <ele>99.9</ele>
        <time>2026-05-31T07:07:25.999Z</time>
      </trkpt>
      <trkpt lat="43.76103" lon="4.14069">
        <ele>100.5</ele>
        <time>2026-05-31T07:07:26.999Z</time>
      </trkpt>
      <trkpt lat="43.76104" lon="4.14068">
        <ele>100.6</ele>
        <time>2026-05-31T07:07:27.999Z</time>
      </trkpt>
      <trkpt lat="43.76105" lon="4.14068">
        <ele>100.6</ele>
        <time>2026-05-31T07:07:28.999Z</time>
      </trkpt>
      <trkpt lat="43.76106" lon="4.14067">
        <ele>100.6</ele>
        <time>2026-05-31T07:07:29.999Z</time>
      </trkpt>
      <trkpt lat="43.76106" lon="4.14065">
        <ele>101</ele>
        <time>2026-05-31T07:07:30.999Z</time>
      </trkpt>
      <trkpt lat="43.76107" lon="4.14065">
        <ele>101.3</ele>
        <time>2026-05-31T07:07:31.999Z</time>
      </trkpt>
      <trkpt lat="43.76108" lon="4.14064">
        <ele>101.5</ele>
        <time>2026-05-31T07:07:32.999Z</time>
      </trkpt>
      <trkpt lat="43.76108" lon="4.14062">
        <ele>101.7</ele>
        <time>2026-05-31T07:07:33.999Z</time>
      </trkpt>
      <trkpt lat="43.76109" lon="4.14062">
        <ele>101.7</ele>
        <time>2026-05-31T07:07:34.999Z</time>
      </trkpt>
      <trkpt lat="43.7611" lon="4.14061">
        <ele>102.4</ele>
        <time>2026-05-31T07:07:35.999Z</time>
      </trkpt>
      <trkpt lat="43.76111" lon="4.1406">
        <ele>102.9</ele>
        <time>2026-05-31T07:07:36.999Z</time>
      </trkpt>
      <trkpt lat="43.76112" lon="4.14059">
        <ele>103.5</ele>
        <time>2026-05-31T07:07:37.999Z</time>
      </trkpt>
      <trkpt lat="43.76114" lon="4.14058">
        <ele>103.8</ele>
        <time>2026-05-31T07:07:38.999Z</time>
      </trkpt>
      <trkpt lat="43.76115" lon="4.14058">
        <ele>103.9</ele>
        <time>2026-05-31T07:07:39.999Z</time>
      </trkpt>
      <trkpt lat="43.76116" lon="4.14057">
        <ele>104.2</ele>
        <time>2026-05-31T07:07:40.999Z</time>
      </trkpt>
      <trkpt lat="43.76117" lon="4.14056">
        <ele>104.5</ele>
        <time>2026-05-31T07:07:41.999Z</time>
      </trkpt>
      <trkpt lat="43.76119" lon="4.14055">
        <ele>104.8</ele>
        <time>2026-05-31T07:07:42.999Z</time>
      </trkpt>
      <trkpt lat="43.7612" lon="4.14055">
        <ele>104.9</ele>
        <time>2026-05-31T07:07:43.999Z</time>
      </trkpt>
      <trkpt lat="43.76121" lon="4.14054">
        <ele>104.8</ele>
        <time>2026-05-31T07:07:44.999Z</time>
      </trkpt>
      <trkpt lat="43.76122" lon="4.14053">
        <ele>104.8</ele>
        <time>2026-05-31T07:07:45.999Z</time>
      </trkpt>
      <trkpt lat="43.76122" lon="4.14053">
        <ele>104.7</ele>
        <time>2026-05-31T07:07:46.999Z</time>
      </trkpt>
      <trkpt lat="43.76122" lon="4.14053">
        <ele>104.4</ele>
        <time>2026-05-31T07:07:47.999Z</time>
      </trkpt>
      <trkpt lat="43.76123" lon="4.14053">
        <ele>104</ele>
        <time>2026-05-31T07:07:48.999Z</time>
      </trkpt>
      <trkpt lat="43.76124" lon="4.14052">
        <ele>104.2</ele>
        <time>2026-05-31T07:07:49.999Z</time>
      </trkpt>
      <trkpt lat="43.76125" lon="4.14051">
        <ele>104.4</ele>
        <time>2026-05-31T07:07:50.999Z</time>
      </trkpt>
      <trkpt lat="43.76126" lon="4.1405">
        <ele>104.5</ele>
        <time>2026-05-31T07:07:51.999Z</time>
      </trkpt>
      <trkpt lat="43.76127" lon="4.1405">
        <ele>104.7</ele>
        <time>2026-05-31T07:07:52.999Z</time>
      </trkpt>
      <trkpt lat="43.76128" lon="4.14049">
        <ele>105</ele>
        <time>2026-05-31T07:07:53.999Z</time>
      </trkpt>
      <trkpt lat="43.76129" lon="4.14048">
        <ele>105.3</ele>
        <time>2026-05-31T07:07:54.999Z</time>
      </trkpt>
      <trkpt lat="43.76131" lon="4.14048">
        <ele>105.5</ele>
        <time>2026-05-31T07:07:55.999Z</time>
      </trkpt>
      <trkpt lat="43.76132" lon="4.14047">
        <ele>105.8</ele>
        <time>2026-05-31T07:07:56.999Z</time>
      </trkpt>
      <trkpt lat="43.76133" lon="4.14047">
        <ele>106.2</ele>
        <time>2026-05-31T07:07:57.999Z</time>
      </trkpt>
      <trkpt lat="43.76134" lon="4.14047">
        <ele>106.5</ele>
        <time>2026-05-31T07:07:58.999Z</time>
      </trkpt>
      <trkpt lat="43.76135" lon="4.14046">
        <ele>106.6</ele>
        <time>2026-05-31T07:07:59.999Z</time>
      </trkpt>
      <trkpt lat="43.76136" lon="4.14045">
        <ele>107.1</ele>
        <time>2026-05-31T07:08:00.999Z</time>
      </trkpt>
      <trkpt lat="43.76137" lon="4.14045">
        <ele>107.1</ele>
        <time>2026-05-31T07:08:01.999Z</time>
      </trkpt>
      <trkpt lat="43.76138" lon="4.14045">
        <ele>107.3</ele>
        <time>2026-05-31T07:08:02.999Z</time>
      </trkpt>
      <trkpt lat="43.76139" lon="4.14044">
        <ele>107.2</ele>
        <time>2026-05-31T07:08:03.999Z</time>
      </trkpt>
      <trkpt lat="43.7614" lon="4.14043">
        <ele>107.3</ele>
        <time>2026-05-31T07:08:04.999Z</time>
      </trkpt>
      <trkpt lat="43.76141" lon="4.14042">
        <ele>107.3</ele>
        <time>2026-05-31T07:08:05.999Z</time>
      </trkpt>
      <trkpt lat="43.76142" lon="4.14042">
        <ele>107.6</ele>
        <time>2026-05-31T07:08:06.999Z</time>
      </trkpt>
      <trkpt lat="43.76143" lon="4.14041">
        <ele>107.4</ele>
        <time>2026-05-31T07:08:07.999Z</time>
      </trkpt>
      <trkpt lat="43.76145" lon="4.1404">
        <ele>107.3</ele>
        <time>2026-05-31T07:08:08.999Z</time>
      </trkpt>
      <trkpt lat="43.76146" lon="4.14039">
        <ele>107.1</ele>
        <time>2026-05-31T07:08:09.999Z</time>
      </trkpt>
      <trkpt lat="43.76147" lon="4.14038">
        <ele>107.3</ele>
        <time>2026-05-31T07:08:10.999Z</time>
      </trkpt>
      <trkpt lat="43.76149" lon="4.14036">
        <ele>107.5</ele>
        <time>2026-05-31T07:08:11.999Z</time>
      </trkpt>
      <trkpt lat="43.76149" lon="4.14035">
        <ele>107.6</ele>
        <time>2026-05-31T07:08:12.999Z</time>
      </trkpt>
      <trkpt lat="43.7615" lon="4.14035">
        <ele>107.5</ele>
        <time>2026-05-31T07:08:13.999Z</time>
      </trkpt>
      <trkpt lat="43.7615" lon="4.14034">
        <ele>107.6</ele>
        <time>2026-05-31T07:08:14.999Z</time>
      </trkpt>
      <trkpt lat="43.76151" lon="4.14033">
        <ele>107.7</ele>
        <time>2026-05-31T07:08:15.999Z</time>
      </trkpt>
      <trkpt lat="43.76152" lon="4.14032">
        <ele>107.5</ele>
        <time>2026-05-31T07:08:16.999Z</time>
      </trkpt>
      <trkpt lat="43.76153" lon="4.14031">
        <ele>106.9</ele>
        <time>2026-05-31T07:08:17.999Z</time>
      </trkpt>
      <trkpt lat="43.76154" lon="4.1403">
        <ele>106.8</ele>
        <time>2026-05-31T07:08:18.999Z</time>
      </trkpt>
      <trkpt lat="43.76155" lon="4.14029">
        <ele>106.8</ele>
        <time>2026-05-31T07:08:19.999Z</time>
      </trkpt>
      <trkpt lat="43.76155" lon="4.14027">
        <ele>106.9</ele>
        <time>2026-05-31T07:08:20.999Z</time>
      </trkpt>
      <trkpt lat="43.76156" lon="4.14026">
        <ele>106.5</ele>
        <time>2026-05-31T07:08:21.999Z</time>
      </trkpt>
      <trkpt lat="43.76157" lon="4.14025">
        <ele>106</ele>
        <time>2026-05-31T07:08:22.999Z</time>
      </trkpt>
      <trkpt lat="43.76159" lon="4.14024">
        <ele>105.4</ele>
        <time>2026-05-31T07:08:23.999Z</time>
      </trkpt>
      <trkpt lat="43.76159" lon="4.14023">
        <ele>105.2</ele>
        <time>2026-05-31T07:08:24.999Z</time>
      </trkpt>
      <trkpt lat="43.7616" lon="4.14022">
        <ele>104.8</ele>
        <time>2026-05-31T07:08:25.999Z</time>
      </trkpt>
      <trkpt lat="43.76161" lon="4.1402">
        <ele>104.7</ele>
        <time>2026-05-31T07:08:26.999Z</time>
      </trkpt>
      <trkpt lat="43.76162" lon="4.14019">
        <ele>104.6</ele>
        <time>2026-05-31T07:08:27.999Z</time>
      </trkpt>
      <trkpt lat="43.76163" lon="4.14019">
        <ele>104.3</ele>
        <time>2026-05-31T07:08:28.999Z</time>
      </trkpt>
      <trkpt lat="43.76163" lon="4.14018">
        <ele>104</ele>
        <time>2026-05-31T07:08:29.999Z</time>
      </trkpt>
      <trkpt lat="43.76164" lon="4.14017">
        <ele>103.9</ele>
        <time>2026-05-31T07:08:30.999Z</time>
      </trkpt>
      <trkpt lat="43.76165" lon="4.14016">
        <ele>104.1</ele>
        <time>2026-05-31T07:08:31.999Z</time>
      </trkpt>
      <trkpt lat="43.76165" lon="4.14014">
        <ele>104.2</ele>
        <time>2026-05-31T07:08:32.999Z</time>
      </trkpt>
      <trkpt lat="43.76166" lon="4.14013">
        <ele>104</ele>
        <time>2026-05-31T07:08:33.999Z</time>
      </trkpt>
      <trkpt lat="43.76167" lon="4.14012">
        <ele>104</ele>
        <time>2026-05-31T07:08:34.999Z</time>
      </trkpt>
      <trkpt lat="43.76168" lon="4.14012">
        <ele>103.7</ele>
        <time>2026-05-31T07:08:35.999Z</time>
      </trkpt>
      <trkpt lat="43.76169" lon="4.14011">
        <ele>103.5</ele>
        <time>2026-05-31T07:08:36.999Z</time>
      </trkpt>
      <trkpt lat="43.7617" lon="4.1401">
        <ele>103.5</ele>
        <time>2026-05-31T07:08:37.999Z</time>
      </trkpt>
      <trkpt lat="43.7617" lon="4.14008">
        <ele>104</ele>
        <time>2026-05-31T07:08:38.999Z</time>
      </trkpt>
      <trkpt lat="43.76171" lon="4.14007">
        <ele>104.2</ele>
        <time>2026-05-31T07:08:39.999Z</time>
      </trkpt>
      <trkpt lat="43.76171" lon="4.14006">
        <ele>104.4</ele>
        <time>2026-05-31T07:08:40.999Z</time>
      </trkpt>
      <trkpt lat="43.76171" lon="4.14005">
        <ele>104.6</ele>
        <time>2026-05-31T07:08:41.999Z</time>
      </trkpt>
      <trkpt lat="43.76171" lon="4.14004">
        <ele>104.4</ele>
        <time>2026-05-31T07:08:42.999Z</time>
      </trkpt>
      <trkpt lat="43.76172" lon="4.14003">
        <ele>104.5</ele>
        <time>2026-05-31T07:08:43.999Z</time>
      </trkpt>
      <trkpt lat="43.76173" lon="4.14002">
        <ele>104.7</ele>
        <time>2026-05-31T07:08:44.999Z</time>
      </trkpt>
      <trkpt lat="43.76174" lon="4.14002">
        <ele>104.5</ele>
        <time>2026-05-31T07:08:45.999Z</time>
      </trkpt>
      <trkpt lat="43.76175" lon="4.14">
        <ele>104.7</ele>
        <time>2026-05-31T07:08:46.999Z</time>
      </trkpt>
      <trkpt lat="43.76176" lon="4.13999">
        <ele>104.8</ele>
        <time>2026-05-31T07:08:47.999Z</time>
      </trkpt>
      <trkpt lat="43.76176" lon="4.13999">
        <ele>105</ele>
        <time>2026-05-31T07:08:48.999Z</time>
      </trkpt>
      <trkpt lat="43.76177" lon="4.13998">
        <ele>105</ele>
        <time>2026-05-31T07:08:49.999Z</time>
      </trkpt>
      <trkpt lat="43.76178" lon="4.13997">
        <ele>104.9</ele>
        <time>2026-05-31T07:08:50.999Z</time>
      </trkpt>
      <trkpt lat="43.76178" lon="4.13996">
        <ele>104.7</ele>
        <time>2026-05-31T07:08:51.999Z</time>
      </trkpt>
      <trkpt lat="43.76179" lon="4.13995">
        <ele>104.7</ele>
        <time>2026-05-31T07:08:52.999Z</time>
      </trkpt>
      <trkpt lat="43.7618" lon="4.13995">
        <ele>104.8</ele>
        <time>2026-05-31T07:08:53.999Z</time>
      </trkpt>
      <trkpt lat="43.76181" lon="4.13994">
        <ele>104.9</ele>
        <time>2026-05-31T07:08:54.999Z</time>
      </trkpt>
      <trkpt lat="43.76183" lon="4.13993">
        <ele>105.4</ele>
        <time>2026-05-31T07:08:55.999Z</time>
      </trkpt>
      <trkpt lat="43.76184" lon="4.13993">
        <ele>105.9</ele>
        <time>2026-05-31T07:08:56.999Z</time>
      </trkpt>
      <trkpt lat="43.76185" lon="4.13993">
        <ele>106.1</ele>
        <time>2026-05-31T07:08:57.999Z</time>
      </trkpt>
      <trkpt lat="43.76187" lon="4.13993">
        <ele>106.3</ele>
        <time>2026-05-31T07:08:58.999Z</time>
      </trkpt>
      <trkpt lat="43.76188" lon="4.13993">
        <ele>106.8</ele>
        <time>2026-05-31T07:08:59.999Z</time>
      </trkpt>
      <trkpt lat="43.76189" lon="4.13992">
        <ele>107.2</ele>
        <time>2026-05-31T07:09:00.999Z</time>
      </trkpt>
      <trkpt lat="43.76191" lon="4.13991">
        <ele>107.4</ele>
        <time>2026-05-31T07:09:01.999Z</time>
      </trkpt>
      <trkpt lat="43.76192" lon="4.1399">
        <ele>107.2</ele>
        <time>2026-05-31T07:09:02.999Z</time>
      </trkpt>
      <trkpt lat="43.76193" lon="4.13989">
        <ele>107.2</ele>
        <time>2026-05-31T07:09:03.999Z</time>
      </trkpt>
      <trkpt lat="43.76194" lon="4.13988">
        <ele>107.4</ele>
        <time>2026-05-31T07:09:04.999Z</time>
      </trkpt>
      <trkpt lat="43.76195" lon="4.13987">
        <ele>107.1</ele>
        <time>2026-05-31T07:09:05.999Z</time>
      </trkpt>
      <trkpt lat="43.76196" lon="4.13986">
        <ele>107.3</ele>
        <time>2026-05-31T07:09:06.999Z</time>
      </trkpt>
      <trkpt lat="43.76197" lon="4.13985">
        <ele>107.4</ele>
        <time>2026-05-31T07:09:07.999Z</time>
      </trkpt>
      <trkpt lat="43.76197" lon="4.13984">
        <ele>107.5</ele>
        <time>2026-05-31T07:09:08.999Z</time>
      </trkpt>
      <trkpt lat="43.76198" lon="4.13982">
        <ele>107.5</ele>
        <time>2026-05-31T07:09:09.999Z</time>
      </trkpt>
      <trkpt lat="43.76199" lon="4.13981">
        <ele>107.6</ele>
        <time>2026-05-31T07:09:10.999Z</time>
      </trkpt>
      <trkpt lat="43.762" lon="4.1398">
        <ele>107.5</ele>
        <time>2026-05-31T07:09:11.999Z</time>
      </trkpt>
      <trkpt lat="43.762" lon="4.1398">
        <ele>107.7</ele>
        <time>2026-05-31T07:09:12.999Z</time>
      </trkpt>
      <trkpt lat="43.762" lon="4.1398">
        <ele>108</ele>
        <time>2026-05-31T07:09:13.999Z</time>
      </trkpt>
      <trkpt lat="43.762" lon="4.13978">
        <ele>108</ele>
        <time>2026-05-31T07:09:14.999Z</time>
      </trkpt>
      <trkpt lat="43.76201" lon="4.13978">
        <ele>107.9</ele>
        <time>2026-05-31T07:09:15.999Z</time>
      </trkpt>
      <trkpt lat="43.76201" lon="4.13977">
        <ele>107.7</ele>
        <time>2026-05-31T07:09:16.999Z</time>
      </trkpt>
      <trkpt lat="43.76202" lon="4.13976">
        <ele>107.4</ele>
        <time>2026-05-31T07:09:17.999Z</time>
      </trkpt>
      <trkpt lat="43.76203" lon="4.13975">
        <ele>107.2</ele>
        <time>2026-05-31T07:09:18.999Z</time>
      </trkpt>
      <trkpt lat="43.76203" lon="4.13974">
        <ele>107</ele>
        <time>2026-05-31T07:09:19.999Z</time>
      </trkpt>
      <trkpt lat="43.76204" lon="4.13973">
        <ele>107.2</ele>
        <time>2026-05-31T07:09:20.999Z</time>
      </trkpt>
      <trkpt lat="43.76205" lon="4.13972">
        <ele>107.6</ele>
        <time>2026-05-31T07:09:21.999Z</time>
      </trkpt>
      <trkpt lat="43.76206" lon="4.13971">
        <ele>107.7</ele>
        <time>2026-05-31T07:09:22.999Z</time>
      </trkpt>
      <trkpt lat="43.76207" lon="4.1397">
        <ele>107.9</ele>
        <time>2026-05-31T07:09:23.999Z</time>
      </trkpt>
      <trkpt lat="43.76207" lon="4.1397">
        <ele>108.1</ele>
        <time>2026-05-31T07:09:24.999Z</time>
      </trkpt>
      <trkpt lat="43.76207" lon="4.13969">
        <ele>108.3</ele>
        <time>2026-05-31T07:09:25.999Z</time>
      </trkpt>
      <trkpt lat="43.76207" lon="4.13969">
        <ele>108.5</ele>
        <time>2026-05-31T07:09:26.999Z</time>
      </trkpt>
      <trkpt lat="43.76207" lon="4.13969">
        <ele>108.9</ele>
        <time>2026-05-31T07:09:27.999Z</time>
      </trkpt>
      <trkpt lat="43.76207" lon="4.13969">
        <ele>109.1</ele>
        <time>2026-05-31T07:09:28.999Z</time>
      </trkpt>
      <trkpt lat="43.76207" lon="4.13969">
        <ele>109.2</ele>
        <time>2026-05-31T07:09:29.999Z</time>
      </trkpt>
      <trkpt lat="43.76207" lon="4.1397">
        <ele>109.3</ele>
        <time>2026-05-31T07:09:30.999Z</time>
      </trkpt>
      <trkpt lat="43.76207" lon="4.1397">
        <ele>109.4</ele>
        <time>2026-05-31T07:09:31.999Z</time>
      </trkpt>
      <trkpt lat="43.76207" lon="4.1397">
        <ele>109.4</ele>
        <time>2026-05-31T07:09:32.999Z</time>
      </trkpt>
      <trkpt lat="43.76207" lon="4.1397">
        <ele>109.6</ele>
        <time>2026-05-31T07:09:33.999Z</time>
      </trkpt>
      <trkpt lat="43.76207" lon="4.1397">
        <ele>109.6</ele>
        <time>2026-05-31T07:09:34.999Z</time>
      </trkpt>
      <trkpt lat="43.76207" lon="4.1397">
        <ele>109.7</ele>
        <time>2026-05-31T07:09:35.999Z</time>
      </trkpt>
      <trkpt lat="43.76207" lon="4.1397">
        <ele>109.7</ele>
        <time>2026-05-31T07:09:36.999Z</time>
      </trkpt>
      <trkpt lat="43.76207" lon="4.1397">
        <ele>109.8</ele>
        <time>2026-05-31T07:09:37.999Z</time>
      </trkpt>
      <trkpt lat="43.76207" lon="4.1397">
        <ele>109.8</ele>
        <time>2026-05-31T07:09:38.999Z</time>
      </trkpt>
      <trkpt lat="43.76207" lon="4.1397">
        <ele>109.7</ele>
        <time>2026-05-31T07:09:39.999Z</time>
      </trkpt>
      <trkpt lat="43.76207" lon="4.1397">
        <ele>109.6</ele>
        <time>2026-05-31T07:09:40.999Z</time>
      </trkpt>
      <trkpt lat="43.76207" lon="4.1397">
        <ele>109.6</ele>
        <time>2026-05-31T07:09:41.999Z</time>
      </trkpt>
      <trkpt lat="43.76207" lon="4.1397">
        <ele>109.6</ele>
        <time>2026-05-31T07:09:42.999Z</time>
      </trkpt>
      <trkpt lat="43.76207" lon="4.1397">
        <ele>109.6</ele>
        <time>2026-05-31T07:09:43.999Z</time>
      </trkpt>
      <trkpt lat="43.76207" lon="4.1397">
        <ele>109.7</ele>
        <time>2026-05-31T07:09:44.999Z</time>
      </trkpt>
      <trkpt lat="43.76207" lon="4.1397">
        <ele>109.7</ele>
        <time>2026-05-31T07:09:45.999Z</time>
      </trkpt>
      <trkpt lat="43.76207" lon="4.13971">
        <ele>109.8</ele>
        <time>2026-05-31T07:09:46.999Z</time>
      </trkpt>
      <trkpt lat="43.76207" lon="4.13971">
        <ele>109.7</ele>
        <time>2026-05-31T07:09:47.999Z</time>
      </trkpt>
      <trkpt lat="43.76207" lon="4.13971">
        <ele>110</ele>
        <time>2026-05-31T07:09:48.999Z</time>
      </trkpt>
      <trkpt lat="43.76207" lon="4.13971">
        <ele>110</ele>
        <time>2026-05-31T07:09:49.999Z</time>
      </trkpt>
      <trkpt lat="43.76207" lon="4.13971">
        <ele>110.1</ele>
        <time>2026-05-31T07:09:50.999Z</time>
      </trkpt>
      <trkpt lat="43.76207" lon="4.13971">
        <ele>110.1</ele>
        <time>2026-05-31T07:09:51.999Z</time>
      </trkpt>
      <trkpt lat="43.76207" lon="4.13971">
        <ele>110</ele>
        <time>2026-05-31T07:09:52.999Z</time>
      </trkpt>
      <trkpt lat="43.76207" lon="4.13971">
        <ele>109.9</ele>
        <time>2026-05-31T07:09:53.999Z</time>
      </trkpt>
      <trkpt lat="43.76207" lon="4.13971">
        <ele>109.8</ele>
        <time>2026-05-31T07:09:54.999Z</time>
      </trkpt>
      <trkpt lat="43.76207" lon="4.13971">
        <ele>109.9</ele>
        <time>2026-05-31T07:09:55.999Z</time>
      </trkpt>
      <trkpt lat="43.76207" lon="4.13971">
        <ele>110</ele>
        <time>2026-05-31T07:09:56.999Z</time>
      </trkpt>
      <trkpt lat="43.76207" lon="4.13971">
        <ele>110.2</ele>
        <time>2026-05-31T07:09:57.999Z</time>
      </trkpt>
      <trkpt lat="43.76207" lon="4.13971">
        <ele>110.2</ele>
        <time>2026-05-31T07:09:58.999Z</time>
      </trkpt>
      <trkpt lat="43.76207" lon="4.13971">
        <ele>110.3</ele>
        <time>2026-05-31T07:09:59.999Z</time>
      </trkpt>
      <trkpt lat="43.76207" lon="4.13971">
        <ele>110.4</ele>
        <time>2026-05-31T07:10:00.999Z</time>
      </trkpt>
      <trkpt lat="43.76207" lon="4.13971">
        <ele>110.4</ele>
        <time>2026-05-31T07:10:01.999Z</time>
      </trkpt>
      <trkpt lat="43.76207" lon="4.13971">
        <ele>110.4</ele>
        <time>2026-05-31T07:10:02.999Z</time>
      </trkpt>
      <trkpt lat="43.76207" lon="4.13971">
        <ele>110.5</ele>
        <time>2026-05-31T07:10:03.999Z</time>
      </trkpt>
      <trkpt lat="43.76208" lon="4.13971">
        <ele>110.5</ele>
        <time>2026-05-31T07:10:04.999Z</time>
      </trkpt>
      <trkpt lat="43.76208" lon="4.13971">
        <ele>110.6</ele>
        <time>2026-05-31T07:10:05.999Z</time>
      </trkpt>
      <trkpt lat="43.76208" lon="4.13971">
        <ele>110.5</ele>
        <time>2026-05-31T07:10:06.999Z</time>
      </trkpt>
      <trkpt lat="43.76208" lon="4.13971">
        <ele>110.7</ele>
        <time>2026-05-31T07:10:07.999Z</time>
      </trkpt>
      <trkpt lat="43.76208" lon="4.13971">
        <ele>110.7</ele>
        <time>2026-05-31T07:10:08.999Z</time>
      </trkpt>
      <trkpt lat="43.76208" lon="4.13971">
        <ele>110.8</ele>
        <time>2026-05-31T07:10:09.999Z</time>
      </trkpt>
      <trkpt lat="43.76208" lon="4.13971">
        <ele>111</ele>
        <time>2026-05-31T07:10:10.999Z</time>
      </trkpt>
      <trkpt lat="43.76208" lon="4.13972">
        <ele>111.1</ele>
        <time>2026-05-31T07:10:11.999Z</time>
      </trkpt>
      <trkpt lat="43.76208" lon="4.13972">
        <ele>111.2</ele>
        <time>2026-05-31T07:10:12.999Z</time>
      </trkpt>
      <trkpt lat="43.76208" lon="4.13972">
        <ele>111.4</ele>
        <time>2026-05-31T07:10:13.999Z</time>
      </trkpt>
      <trkpt lat="43.76207" lon="4.13972">
        <ele>111.5</ele>
        <time>2026-05-31T07:10:14.999Z</time>
      </trkpt>
      <trkpt lat="43.76207" lon="4.13972">
        <ele>111.8</ele>
        <time>2026-05-31T07:10:15.999Z</time>
      </trkpt>
      <trkpt lat="43.76208" lon="4.13972">
        <ele>112.1</ele>
        <time>2026-05-31T07:10:16.999Z</time>
      </trkpt>
      <trkpt lat="43.76208" lon="4.13972">
        <ele>112.2</ele>
        <time>2026-05-31T07:10:17.999Z</time>
      </trkpt>
      <trkpt lat="43.76208" lon="4.13972">
        <ele>112.2</ele>
        <time>2026-05-31T07:10:18.999Z</time>
      </trkpt>
      <trkpt lat="43.76208" lon="4.13972">
        <ele>112.3</ele>
        <time>2026-05-31T07:10:19.999Z</time>
      </trkpt>
      <trkpt lat="43.76208" lon="4.13972">
        <ele>112.5</ele>
        <time>2026-05-31T07:10:20.999Z</time>
      </trkpt>
      <trkpt lat="43.76208" lon="4.13972">
        <ele>112.6</ele>
        <time>2026-05-31T07:10:21.999Z</time>
      </trkpt>
      <trkpt lat="43.76208" lon="4.13972">
        <ele>112.6</ele>
        <time>2026-05-31T07:10:22.999Z</time>
      </trkpt>
      <trkpt lat="43.76208" lon="4.13972">
        <ele>112.5</ele>
        <time>2026-05-31T07:10:23.999Z</time>
      </trkpt>
      <trkpt lat="43.76208" lon="4.13972">
        <ele>112.4</ele>
        <time>2026-05-31T07:10:24.999Z</time>
      </trkpt>
      <trkpt lat="43.76208" lon="4.13972">
        <ele>112.1</ele>
        <time>2026-05-31T07:10:25.999Z</time>
      </trkpt>
      <trkpt lat="43.76208" lon="4.13972">
        <ele>111.8</ele>
        <time>2026-05-31T07:10:26.999Z</time>
      </trkpt>
      <trkpt lat="43.76208" lon="4.13972">
        <ele>111.6</ele>
        <time>2026-05-31T07:10:27.999Z</time>
      </trkpt>
      <trkpt lat="43.76208" lon="4.13972">
        <ele>111.4</ele>
        <time>2026-05-31T07:10:28.999Z</time>
      </trkpt>
      <trkpt lat="43.76208" lon="4.13972">
        <ele>111.3</ele>
        <time>2026-05-31T07:10:29.999Z</time>
      </trkpt>
      <trkpt lat="43.76208" lon="4.13972">
        <ele>111.2</ele>
        <time>2026-05-31T07:10:30.999Z</time>
      </trkpt>
      <trkpt lat="43.76208" lon="4.13972">
        <ele>111.2</ele>
        <time>2026-05-31T07:10:31.999Z</time>
      </trkpt>
      <trkpt lat="43.76208" lon="4.13972">
        <ele>111.2</ele>
        <time>2026-05-31T07:10:32.999Z</time>
      </trkpt>
      <trkpt lat="43.76209" lon="4.13972">
        <ele>111.1</ele>
        <time>2026-05-31T07:10:33.999Z</time>
      </trkpt>
      <trkpt lat="43.76209" lon="4.13971">
        <ele>110.8</ele>
        <time>2026-05-31T07:10:34.999Z</time>
      </trkpt>
      <trkpt lat="43.7621" lon="4.1397">
        <ele>110.3</ele>
        <time>2026-05-31T07:10:35.999Z</time>
      </trkpt>
      <trkpt lat="43.76211" lon="4.13969">
        <ele>110</ele>
        <time>2026-05-31T07:10:36.999Z</time>
      </trkpt>
      <trkpt lat="43.76212" lon="4.13969">
        <ele>109.8</ele>
        <time>2026-05-31T07:10:37.999Z</time>
      </trkpt>
      <trkpt lat="43.76212" lon="4.13968">
        <ele>109.6</ele>
        <time>2026-05-31T07:10:38.999Z</time>
      </trkpt>
      <trkpt lat="43.76212" lon="4.13968">
        <ele>109.3</ele>
        <time>2026-05-31T07:10:39.999Z</time>
      </trkpt>
      <trkpt lat="43.76212" lon="4.13968">
        <ele>109.2</ele>
        <time>2026-05-31T07:10:40.999Z</time>
      </trkpt>
      <trkpt lat="43.76212" lon="4.13968">
        <ele>109.1</ele>
        <time>2026-05-31T07:10:41.999Z</time>
      </trkpt>
      <trkpt lat="43.76212" lon="4.13968">
        <ele>109.1</ele>
        <time>2026-05-31T07:10:42.999Z</time>
      </trkpt>
      <trkpt lat="43.76212" lon="4.13968">
        <ele>108.9</ele>
        <time>2026-05-31T07:10:43.999Z</time>
      </trkpt>
      <trkpt lat="43.76212" lon="4.13967">
        <ele>108.9</ele>
        <time>2026-05-31T07:10:44.999Z</time>
      </trkpt>
      <trkpt lat="43.76212" lon="4.13968">
        <ele>108.8</ele>
        <time>2026-05-31T07:10:45.999Z</time>
      </trkpt>
      <trkpt lat="43.76213" lon="4.13967">
        <ele>108.6</ele>
        <time>2026-05-31T07:10:46.999Z</time>
      </trkpt>
      <trkpt lat="43.76213" lon="4.13967">
        <ele>108.6</ele>
        <time>2026-05-31T07:10:47.999Z</time>
      </trkpt>
      <trkpt lat="43.76214" lon="4.13966">
        <ele>108.6</ele>
        <time>2026-05-31T07:10:48.999Z</time>
      </trkpt>
      <trkpt lat="43.76215" lon="4.13965">
        <ele>108.7</ele>
        <time>2026-05-31T07:10:49.999Z</time>
      </trkpt>
      <trkpt lat="43.76216" lon="4.13964">
        <ele>108.5</ele>
        <time>2026-05-31T07:10:50.999Z</time>
      </trkpt>
      <trkpt lat="43.76217" lon="4.13964">
        <ele>108.4</ele>
        <time>2026-05-31T07:10:51.999Z</time>
      </trkpt>
      <trkpt lat="43.76218" lon="4.13964">
        <ele>108.4</ele>
        <time>2026-05-31T07:10:52.999Z</time>
      </trkpt>
      <trkpt lat="43.76219" lon="4.13964">
        <ele>108.4</ele>
        <time>2026-05-31T07:10:53.999Z</time>
      </trkpt>
      <trkpt lat="43.7622" lon="4.13963">
        <ele>108.4</ele>
        <time>2026-05-31T07:10:54.999Z</time>
      </trkpt>
      <trkpt lat="43.76221" lon="4.13962">
        <ele>108.6</ele>
        <time>2026-05-31T07:10:55.999Z</time>
      </trkpt>
      <trkpt lat="43.76222" lon="4.13961">
        <ele>108.6</ele>
        <time>2026-05-31T07:10:56.999Z</time>
      </trkpt>
      <trkpt lat="43.76223" lon="4.13959">
        <ele>108.9</ele>
        <time>2026-05-31T07:10:57.999Z</time>
      </trkpt>
      <trkpt lat="43.76225" lon="4.13958">
        <ele>108.8</ele>
        <time>2026-05-31T07:10:58.999Z</time>
      </trkpt>
      <trkpt lat="43.76227" lon="4.13957">
        <ele>109.1</ele>
        <time>2026-05-31T07:10:59.999Z</time>
      </trkpt>
      <trkpt lat="43.76228" lon="4.13955">
        <ele>109.2</ele>
        <time>2026-05-31T07:11:00.999Z</time>
      </trkpt>
      <trkpt lat="43.7623" lon="4.13954">
        <ele>109.2</ele>
        <time>2026-05-31T07:11:01.999Z</time>
      </trkpt>
      <trkpt lat="43.76231" lon="4.13952">
        <ele>109.1</ele>
        <time>2026-05-31T07:11:02.999Z</time>
      </trkpt>
      <trkpt lat="43.76232" lon="4.13951">
        <ele>109.1</ele>
        <time>2026-05-31T07:11:03.999Z</time>
      </trkpt>
      <trkpt lat="43.76233" lon="4.13949">
        <ele>108.8</ele>
        <time>2026-05-31T07:11:04.999Z</time>
      </trkpt>
      <trkpt lat="43.76233" lon="4.13948">
        <ele>108.5</ele>
        <time>2026-05-31T07:11:05.999Z</time>
      </trkpt>
      <trkpt lat="43.76233" lon="4.13947">
        <ele>108.3</ele>
        <time>2026-05-31T07:11:06.999Z</time>
      </trkpt>
      <trkpt lat="43.76233" lon="4.13946">
        <ele>107.5</ele>
        <time>2026-05-31T07:11:07.999Z</time>
      </trkpt>
      <trkpt lat="43.76234" lon="4.13944">
        <ele>107</ele>
        <time>2026-05-31T07:11:08.999Z</time>
      </trkpt>
      <trkpt lat="43.76234" lon="4.13942">
        <ele>106</ele>
        <time>2026-05-31T07:11:09.999Z</time>
      </trkpt>
      <trkpt lat="43.76234" lon="4.13941">
        <ele>104.8</ele>
        <time>2026-05-31T07:11:10.999Z</time>
      </trkpt>
      <trkpt lat="43.76234" lon="4.13941">
        <ele>103.9</ele>
        <time>2026-05-31T07:11:11.999Z</time>
      </trkpt>
      <trkpt lat="43.76233" lon="4.13939">
        <ele>102.9</ele>
        <time>2026-05-31T07:11:12.999Z</time>
      </trkpt>
      <trkpt lat="43.76233" lon="4.13938">
        <ele>102</ele>
        <time>2026-05-31T07:11:13.999Z</time>
      </trkpt>
      <trkpt lat="43.76232" lon="4.13937">
        <ele>101.1</ele>
        <time>2026-05-31T07:11:14.999Z</time>
      </trkpt>
      <trkpt lat="43.76231" lon="4.13937">
        <ele>100.3</ele>
        <time>2026-05-31T07:11:15.999Z</time>
      </trkpt>
      <trkpt lat="43.76231" lon="4.13936">
        <ele>99.7</ele>
        <time>2026-05-31T07:11:16.999Z</time>
      </trkpt>
      <trkpt lat="43.7623" lon="4.13935">
        <ele>99.3</ele>
        <time>2026-05-31T07:11:17.999Z</time>
      </trkpt>
      <trkpt lat="43.76229" lon="4.13934">
        <ele>99.2</ele>
        <time>2026-05-31T07:11:18.999Z</time>
      </trkpt>
      <trkpt lat="43.76228" lon="4.13933">
        <ele>98.2</ele>
        <time>2026-05-31T07:11:19.999Z</time>
      </trkpt>
      <trkpt lat="43.76227" lon="4.1393">
        <ele>97.8</ele>
        <time>2026-05-31T07:11:20.999Z</time>
      </trkpt>
      <trkpt lat="43.76226" lon="4.13929">
        <ele>97.6</ele>
        <time>2026-05-31T07:11:21.999Z</time>
      </trkpt>
      <trkpt lat="43.76225" lon="4.13927">
        <ele>97.7</ele>
        <time>2026-05-31T07:11:22.999Z</time>
      </trkpt>
      <trkpt lat="43.76224" lon="4.13926">
        <ele>97.5</ele>
        <time>2026-05-31T07:11:23.999Z</time>
      </trkpt>
      <trkpt lat="43.76224" lon="4.13925">
        <ele>97.4</ele>
        <time>2026-05-31T07:11:24.999Z</time>
      </trkpt>
      <trkpt lat="43.76223" lon="4.13923">
        <ele>97.4</ele>
        <time>2026-05-31T07:11:25.999Z</time>
      </trkpt>
      <trkpt lat="43.76222" lon="4.13922">
        <ele>97.7</ele>
        <time>2026-05-31T07:11:26.999Z</time>
      </trkpt>
      <trkpt lat="43.76222" lon="4.1392">
        <ele>97.8</ele>
        <time>2026-05-31T07:11:27.999Z</time>
      </trkpt>
      <trkpt lat="43.76221" lon="4.13918">
        <ele>97.7</ele>
        <time>2026-05-31T07:11:28.999Z</time>
      </trkpt>
      <trkpt lat="43.76221" lon="4.13917">
        <ele>97.2</ele>
        <time>2026-05-31T07:11:29.999Z</time>
      </trkpt>
      <trkpt lat="43.76221" lon="4.13916">
        <ele>97.1</ele>
        <time>2026-05-31T07:11:30.999Z</time>
      </trkpt>
      <trkpt lat="43.76221" lon="4.13915">
        <ele>97.5</ele>
        <time>2026-05-31T07:11:31.999Z</time>
      </trkpt>
      <trkpt lat="43.76221" lon="4.13913">
        <ele>97.3</ele>
        <time>2026-05-31T07:11:32.999Z</time>
      </trkpt>
      <trkpt lat="43.76221" lon="4.13912">
        <ele>97.1</ele>
        <time>2026-05-31T07:11:33.999Z</time>
      </trkpt>
      <trkpt lat="43.76221" lon="4.13911">
        <ele>97</ele>
        <time>2026-05-31T07:11:34.999Z</time>
      </trkpt>
      <trkpt lat="43.7622" lon="4.13909">
        <ele>96.9</ele>
        <time>2026-05-31T07:11:35.999Z</time>
      </trkpt>
      <trkpt lat="43.76218" lon="4.13907">
        <ele>96.6</ele>
        <time>2026-05-31T07:11:36.999Z</time>
      </trkpt>
      <trkpt lat="43.76218" lon="4.13906">
        <ele>96.7</ele>
        <time>2026-05-31T07:11:37.999Z</time>
      </trkpt>
      <trkpt lat="43.76217" lon="4.13904">
        <ele>97.2</ele>
        <time>2026-05-31T07:11:38.999Z</time>
      </trkpt>
      <trkpt lat="43.76217" lon="4.13902">
        <ele>97</ele>
        <time>2026-05-31T07:11:39.999Z</time>
      </trkpt>
      <trkpt lat="43.76217" lon="4.139">
        <ele>96.6</ele>
        <time>2026-05-31T07:11:40.999Z</time>
      </trkpt>
      <trkpt lat="43.76216" lon="4.13899">
        <ele>96.3</ele>
        <time>2026-05-31T07:11:41.999Z</time>
      </trkpt>
      <trkpt lat="43.76216" lon="4.13898">
        <ele>96.5</ele>
        <time>2026-05-31T07:11:42.999Z</time>
      </trkpt>
      <trkpt lat="43.76215" lon="4.13896">
        <ele>96.5</ele>
        <time>2026-05-31T07:11:43.999Z</time>
      </trkpt>
      <trkpt lat="43.76215" lon="4.13894">
        <ele>96.8</ele>
        <time>2026-05-31T07:11:44.999Z</time>
      </trkpt>
      <trkpt lat="43.76215" lon="4.13892">
        <ele>97.1</ele>
        <time>2026-05-31T07:11:45.999Z</time>
      </trkpt>
      <trkpt lat="43.76215" lon="4.1389">
        <ele>97.3</ele>
        <time>2026-05-31T07:11:46.999Z</time>
      </trkpt>
      <trkpt lat="43.76215" lon="4.13889">
        <ele>97.5</ele>
        <time>2026-05-31T07:11:47.999Z</time>
      </trkpt>
      <trkpt lat="43.76215" lon="4.13889">
        <ele>98</ele>
        <time>2026-05-31T07:11:48.999Z</time>
      </trkpt>
      <trkpt lat="43.76215" lon="4.13888">
        <ele>98.3</ele>
        <time>2026-05-31T07:11:49.999Z</time>
      </trkpt>
      <trkpt lat="43.76215" lon="4.13887">
        <ele>98.6</ele>
        <time>2026-05-31T07:11:50.999Z</time>
      </trkpt>
      <trkpt lat="43.76216" lon="4.13886">
        <ele>99.2</ele>
        <time>2026-05-31T07:11:51.999Z</time>
      </trkpt>
      <trkpt lat="43.76217" lon="4.13885">
        <ele>100</ele>
        <time>2026-05-31T07:11:52.999Z</time>
      </trkpt>
      <trkpt lat="43.76218" lon="4.13884">
        <ele>100.6</ele>
        <time>2026-05-31T07:11:53.999Z</time>
      </trkpt>
      <trkpt lat="43.76219" lon="4.13883">
        <ele>101.3</ele>
        <time>2026-05-31T07:11:54.999Z</time>
      </trkpt>
      <trkpt lat="43.76221" lon="4.13883">
        <ele>101.3</ele>
        <time>2026-05-31T07:11:55.999Z</time>
      </trkpt>
      <trkpt lat="43.76223" lon="4.13882">
        <ele>102.1</ele>
        <time>2026-05-31T07:11:56.999Z</time>
      </trkpt>
      <trkpt lat="43.76225" lon="4.13882">
        <ele>102.7</ele>
        <time>2026-05-31T07:11:57.999Z</time>
      </trkpt>
      <trkpt lat="43.76226" lon="4.13882">
        <ele>103</ele>
        <time>2026-05-31T07:11:58.999Z</time>
      </trkpt>
      <trkpt lat="43.76227" lon="4.13883">
        <ele>103.4</ele>
        <time>2026-05-31T07:11:59.999Z</time>
      </trkpt>
      <trkpt lat="43.76228" lon="4.13883">
        <ele>103.7</ele>
        <time>2026-05-31T07:12:00.999Z</time>
      </trkpt>
      <trkpt lat="43.76229" lon="4.13883">
        <ele>103.8</ele>
        <time>2026-05-31T07:12:01.999Z</time>
      </trkpt>
      <trkpt lat="43.7623" lon="4.13883">
        <ele>103.6</ele>
        <time>2026-05-31T07:12:02.999Z</time>
      </trkpt>
      <trkpt lat="43.76231" lon="4.13882">
        <ele>103.7</ele>
        <time>2026-05-31T07:12:03.999Z</time>
      </trkpt>
      <trkpt lat="43.76232" lon="4.13882">
        <ele>104</ele>
        <time>2026-05-31T07:12:04.999Z</time>
      </trkpt>
      <trkpt lat="43.76233" lon="4.13882">
        <ele>104.1</ele>
        <time>2026-05-31T07:12:05.999Z</time>
      </trkpt>
      <trkpt lat="43.76234" lon="4.13882">
        <ele>104.2</ele>
        <time>2026-05-31T07:12:06.999Z</time>
      </trkpt>
      <trkpt lat="43.76234" lon="4.13882">
        <ele>104.3</ele>
        <time>2026-05-31T07:12:07.999Z</time>
      </trkpt>
      <trkpt lat="43.76234" lon="4.13882">
        <ele>104.5</ele>
        <time>2026-05-31T07:12:08.999Z</time>
      </trkpt>
      <trkpt lat="43.76235" lon="4.13881">
        <ele>104.6</ele>
        <time>2026-05-31T07:12:09.999Z</time>
      </trkpt>
      <trkpt lat="43.76236" lon="4.13881">
        <ele>104.6</ele>
        <time>2026-05-31T07:12:10.999Z</time>
      </trkpt>
      <trkpt lat="43.76237" lon="4.13882">
        <ele>104.4</ele>
        <time>2026-05-31T07:12:11.999Z</time>
      </trkpt>
      <trkpt lat="43.76238" lon="4.13882">
        <ele>104.4</ele>
        <time>2026-05-31T07:12:12.999Z</time>
      </trkpt>
      <trkpt lat="43.76239" lon="4.13882">
        <ele>104.4</ele>
        <time>2026-05-31T07:12:13.999Z</time>
      </trkpt>
      <trkpt lat="43.7624" lon="4.13881">
        <ele>104.5</ele>
        <time>2026-05-31T07:12:14.999Z</time>
      </trkpt>
      <trkpt lat="43.7624" lon="4.13881">
        <ele>104.7</ele>
        <time>2026-05-31T07:12:15.999Z</time>
      </trkpt>
      <trkpt lat="43.76241" lon="4.1388">
        <ele>104.9</ele>
        <time>2026-05-31T07:12:16.999Z</time>
      </trkpt>
      <trkpt lat="43.76243" lon="4.1388">
        <ele>104.8</ele>
        <time>2026-05-31T07:12:17.999Z</time>
      </trkpt>
      <trkpt lat="43.76246" lon="4.1388">
        <ele>104.9</ele>
        <time>2026-05-31T07:12:18.999Z</time>
      </trkpt>
      <trkpt lat="43.76247" lon="4.13881">
        <ele>104.8</ele>
        <time>2026-05-31T07:12:19.999Z</time>
      </trkpt>
      <trkpt lat="43.76249" lon="4.13881">
        <ele>104.9</ele>
        <time>2026-05-31T07:12:20.999Z</time>
      </trkpt>
      <trkpt lat="43.7625" lon="4.13882">
        <ele>105</ele>
        <time>2026-05-31T07:12:21.999Z</time>
      </trkpt>
      <trkpt lat="43.76251" lon="4.13882">
        <ele>105.3</ele>
        <time>2026-05-31T07:12:22.999Z</time>
      </trkpt>
      <trkpt lat="43.76252" lon="4.13882">
        <ele>105.5</ele>
        <time>2026-05-31T07:12:23.999Z</time>
      </trkpt>
      <trkpt lat="43.76253" lon="4.13882">
        <ele>105.8</ele>
        <time>2026-05-31T07:12:24.999Z</time>
      </trkpt>
      <trkpt lat="43.76254" lon="4.13882">
        <ele>106.5</ele>
        <time>2026-05-31T07:12:25.999Z</time>
      </trkpt>
      <trkpt lat="43.76255" lon="4.13882">
        <ele>107.1</ele>
        <time>2026-05-31T07:12:26.999Z</time>
      </trkpt>
      <trkpt lat="43.76256" lon="4.13882">
        <ele>107.5</ele>
        <time>2026-05-31T07:12:27.999Z</time>
      </trkpt>
      <trkpt lat="43.76257" lon="4.13881">
        <ele>107.7</ele>
        <time>2026-05-31T07:12:28.999Z</time>
      </trkpt>
      <trkpt lat="43.76258" lon="4.13881">
        <ele>107.8</ele>
        <time>2026-05-31T07:12:29.999Z</time>
      </trkpt>
      <trkpt lat="43.76259" lon="4.13881">
        <ele>108.6</ele>
        <time>2026-05-31T07:12:30.999Z</time>
      </trkpt>
      <trkpt lat="43.7626" lon="4.13881">
        <ele>109.1</ele>
        <time>2026-05-31T07:12:31.999Z</time>
      </trkpt>
      <trkpt lat="43.76261" lon="4.13882">
        <ele>109</ele>
        <time>2026-05-31T07:12:32.999Z</time>
      </trkpt>
      <trkpt lat="43.76262" lon="4.13883">
        <ele>108.9</ele>
        <time>2026-05-31T07:12:33.999Z</time>
      </trkpt>
      <trkpt lat="43.76263" lon="4.13883">
        <ele>108.5</ele>
        <time>2026-05-31T07:12:34.999Z</time>
      </trkpt>
      <trkpt lat="43.76264" lon="4.13882">
        <ele>108.2</ele>
        <time>2026-05-31T07:12:35.999Z</time>
      </trkpt>
      <trkpt lat="43.76265" lon="4.13882">
        <ele>107.9</ele>
        <time>2026-05-31T07:12:36.999Z</time>
      </trkpt>
      <trkpt lat="43.76266" lon="4.13881">
        <ele>108.2</ele>
        <time>2026-05-31T07:12:37.999Z</time>
      </trkpt>
      <trkpt lat="43.76266" lon="4.13881">
        <ele>108.6</ele>
        <time>2026-05-31T07:12:38.999Z</time>
      </trkpt>
      <trkpt lat="43.76267" lon="4.1388">
        <ele>108.5</ele>
        <time>2026-05-31T07:12:39.999Z</time>
      </trkpt>
      <trkpt lat="43.76268" lon="4.1388">
        <ele>108.6</ele>
        <time>2026-05-31T07:12:40.999Z</time>
      </trkpt>
      <trkpt lat="43.76269" lon="4.1388">
        <ele>108.7</ele>
        <time>2026-05-31T07:12:41.999Z</time>
      </trkpt>
      <trkpt lat="43.7627" lon="4.1388">
        <ele>108.8</ele>
        <time>2026-05-31T07:12:42.999Z</time>
      </trkpt>
      <trkpt lat="43.76271" lon="4.1388">
        <ele>108.8</ele>
        <time>2026-05-31T07:12:43.999Z</time>
      </trkpt>
      <trkpt lat="43.76272" lon="4.1388">
        <ele>109</ele>
        <time>2026-05-31T07:12:44.999Z</time>
      </trkpt>
      <trkpt lat="43.76273" lon="4.13879">
        <ele>109</ele>
        <time>2026-05-31T07:12:45.999Z</time>
      </trkpt>
      <trkpt lat="43.76274" lon="4.13879">
        <ele>109.3</ele>
        <time>2026-05-31T07:12:46.999Z</time>
      </trkpt>
      <trkpt lat="43.76275" lon="4.13878">
        <ele>109.4</ele>
        <time>2026-05-31T07:12:47.999Z</time>
      </trkpt>
      <trkpt lat="43.76276" lon="4.13878">
        <ele>109.5</ele>
        <time>2026-05-31T07:12:48.999Z</time>
      </trkpt>
      <trkpt lat="43.76276" lon="4.13879">
        <ele>109.6</ele>
        <time>2026-05-31T07:12:49.999Z</time>
      </trkpt>
      <trkpt lat="43.76277" lon="4.13879">
        <ele>109.7</ele>
        <time>2026-05-31T07:12:50.999Z</time>
      </trkpt>
      <trkpt lat="43.76278" lon="4.13878">
        <ele>109.8</ele>
        <time>2026-05-31T07:12:51.999Z</time>
      </trkpt>
      <trkpt lat="43.76279" lon="4.13878">
        <ele>109.9</ele>
        <time>2026-05-31T07:12:52.999Z</time>
      </trkpt>
      <trkpt lat="43.76279" lon="4.13877">
        <ele>109.7</ele>
        <time>2026-05-31T07:12:53.999Z</time>
      </trkpt>
      <trkpt lat="43.7628" lon="4.13877">
        <ele>109.7</ele>
        <time>2026-05-31T07:12:54.999Z</time>
      </trkpt>
      <trkpt lat="43.76281" lon="4.13875">
        <ele>109.8</ele>
        <time>2026-05-31T07:12:55.999Z</time>
      </trkpt>
      <trkpt lat="43.76282" lon="4.13875">
        <ele>109.7</ele>
        <time>2026-05-31T07:12:56.999Z</time>
      </trkpt>
      <trkpt lat="43.76283" lon="4.13875">
        <ele>109.4</ele>
        <time>2026-05-31T07:12:57.999Z</time>
      </trkpt>
      <trkpt lat="43.76284" lon="4.13874">
        <ele>108.9</ele>
        <time>2026-05-31T07:12:58.999Z</time>
      </trkpt>
      <trkpt lat="43.76285" lon="4.13873">
        <ele>108.4</ele>
        <time>2026-05-31T07:12:59.999Z</time>
      </trkpt>
      <trkpt lat="43.76286" lon="4.13872">
        <ele>108.1</ele>
        <time>2026-05-31T07:13:00.999Z</time>
      </trkpt>
      <trkpt lat="43.76286" lon="4.1387">
        <ele>107.6</ele>
        <time>2026-05-31T07:13:01.999Z</time>
      </trkpt>
      <trkpt lat="43.76286" lon="4.13869">
        <ele>107.8</ele>
        <time>2026-05-31T07:13:02.999Z</time>
      </trkpt>
      <trkpt lat="43.76286" lon="4.13868">
        <ele>108</ele>
        <time>2026-05-31T07:13:03.999Z</time>
      </trkpt>
      <trkpt lat="43.76287" lon="4.13867">
        <ele>108.1</ele>
        <time>2026-05-31T07:13:04.999Z</time>
      </trkpt>
      <trkpt lat="43.76288" lon="4.13865">
        <ele>108.5</ele>
        <time>2026-05-31T07:13:05.999Z</time>
      </trkpt>
      <trkpt lat="43.76288" lon="4.13863">
        <ele>108.8</ele>
        <time>2026-05-31T07:13:06.999Z</time>
      </trkpt>
      <trkpt lat="43.7629" lon="4.13861">
        <ele>109.3</ele>
        <time>2026-05-31T07:13:07.999Z</time>
      </trkpt>
      <trkpt lat="43.76291" lon="4.13859">
        <ele>109.7</ele>
        <time>2026-05-31T07:13:08.999Z</time>
      </trkpt>
      <trkpt lat="43.76292" lon="4.13858">
        <ele>110</ele>
        <time>2026-05-31T07:13:09.999Z</time>
      </trkpt>
      <trkpt lat="43.76292" lon="4.13858">
        <ele>110.1</ele>
        <time>2026-05-31T07:13:10.999Z</time>
      </trkpt>
      <trkpt lat="43.76293" lon="4.13857">
        <ele>110.1</ele>
        <time>2026-05-31T07:13:11.999Z</time>
      </trkpt>
      <trkpt lat="43.76294" lon="4.13857">
        <ele>110.1</ele>
        <time>2026-05-31T07:13:12.999Z</time>
      </trkpt>
      <trkpt lat="43.76295" lon="4.13857">
        <ele>110.3</ele>
        <time>2026-05-31T07:13:13.999Z</time>
      </trkpt>
      <trkpt lat="43.76296" lon="4.13857">
        <ele>110.8</ele>
        <time>2026-05-31T07:13:14.999Z</time>
      </trkpt>
      <trkpt lat="43.76298" lon="4.13855">
        <ele>111.1</ele>
        <time>2026-05-31T07:13:15.999Z</time>
      </trkpt>
      <trkpt lat="43.76299" lon="4.13854">
        <ele>111.2</ele>
        <time>2026-05-31T07:13:16.999Z</time>
      </trkpt>
      <trkpt lat="43.763" lon="4.13852">
        <ele>111.2</ele>
        <time>2026-05-31T07:13:17.999Z</time>
      </trkpt>
      <trkpt lat="43.76301" lon="4.13851">
        <ele>111.4</ele>
        <time>2026-05-31T07:13:18.999Z</time>
      </trkpt>
      <trkpt lat="43.76301" lon="4.1385">
        <ele>111.1</ele>
        <time>2026-05-31T07:13:19.999Z</time>
      </trkpt>
      <trkpt lat="43.76302" lon="4.13849">
        <ele>111.1</ele>
        <time>2026-05-31T07:13:20.999Z</time>
      </trkpt>
      <trkpt lat="43.76303" lon="4.13848">
        <ele>111.1</ele>
        <time>2026-05-31T07:13:21.999Z</time>
      </trkpt>
      <trkpt lat="43.76304" lon="4.13847">
        <ele>111</ele>
        <time>2026-05-31T07:13:22.999Z</time>
      </trkpt>
      <trkpt lat="43.76304" lon="4.13847">
        <ele>111.2</ele>
        <time>2026-05-31T07:13:23.999Z</time>
      </trkpt>
      <trkpt lat="43.76305" lon="4.13846">
        <ele>111.2</ele>
        <time>2026-05-31T07:13:24.999Z</time>
      </trkpt>
      <trkpt lat="43.76306" lon="4.13846">
        <ele>111.3</ele>
        <time>2026-05-31T07:13:25.999Z</time>
      </trkpt>
      <trkpt lat="43.76306" lon="4.13845">
        <ele>111.3</ele>
        <time>2026-05-31T07:13:26.999Z</time>
      </trkpt>
      <trkpt lat="43.76308" lon="4.13843">
        <ele>111.7</ele>
        <time>2026-05-31T07:13:27.999Z</time>
      </trkpt>
      <trkpt lat="43.76308" lon="4.13843">
        <ele>111.8</ele>
        <time>2026-05-31T07:13:28.999Z</time>
      </trkpt>
      <trkpt lat="43.76309" lon="4.13842">
        <ele>112</ele>
        <time>2026-05-31T07:13:29.999Z</time>
      </trkpt>
      <trkpt lat="43.7631" lon="4.13841">
        <ele>112.5</ele>
        <time>2026-05-31T07:13:30.999Z</time>
      </trkpt>
      <trkpt lat="43.7631" lon="4.13841">
        <ele>112.5</ele>
        <time>2026-05-31T07:13:31.999Z</time>
      </trkpt>
      <trkpt lat="43.7631" lon="4.13841">
        <ele>112.6</ele>
        <time>2026-05-31T07:13:32.999Z</time>
      </trkpt>
      <trkpt lat="43.76311" lon="4.13839">
        <ele>113</ele>
        <time>2026-05-31T07:13:33.999Z</time>
      </trkpt>
      <trkpt lat="43.76311" lon="4.13839">
        <ele>113.2</ele>
        <time>2026-05-31T07:13:34.999Z</time>
      </trkpt>
      <trkpt lat="43.76312" lon="4.13839">
        <ele>113.3</ele>
        <time>2026-05-31T07:13:35.999Z</time>
      </trkpt>
      <trkpt lat="43.76313" lon="4.13838">
        <ele>113.5</ele>
        <time>2026-05-31T07:13:36.999Z</time>
      </trkpt>
      <trkpt lat="43.76314" lon="4.13837">
        <ele>113.7</ele>
        <time>2026-05-31T07:13:37.999Z</time>
      </trkpt>
      <trkpt lat="43.76315" lon="4.13836">
        <ele>113.8</ele>
        <time>2026-05-31T07:13:38.999Z</time>
      </trkpt>
      <trkpt lat="43.76315" lon="4.13835">
        <ele>114</ele>
        <time>2026-05-31T07:13:39.999Z</time>
      </trkpt>
      <trkpt lat="43.76315" lon="4.13835">
        <ele>114.3</ele>
        <time>2026-05-31T07:13:40.999Z</time>
      </trkpt>
      <trkpt lat="43.76315" lon="4.13835">
        <ele>114.6</ele>
        <time>2026-05-31T07:13:41.999Z</time>
      </trkpt>
      <trkpt lat="43.76316" lon="4.13835">
        <ele>114.9</ele>
        <time>2026-05-31T07:13:42.999Z</time>
      </trkpt>
      <trkpt lat="43.76317" lon="4.13834">
        <ele>115.1</ele>
        <time>2026-05-31T07:13:43.999Z</time>
      </trkpt>
      <trkpt lat="43.76318" lon="4.13833">
        <ele>115.2</ele>
        <time>2026-05-31T07:13:44.999Z</time>
      </trkpt>
      <trkpt lat="43.76319" lon="4.13832">
        <ele>115.5</ele>
        <time>2026-05-31T07:13:45.999Z</time>
      </trkpt>
      <trkpt lat="43.76319" lon="4.13831">
        <ele>116</ele>
        <time>2026-05-31T07:13:46.999Z</time>
      </trkpt>
      <trkpt lat="43.7632" lon="4.13829">
        <ele>116.5</ele>
        <time>2026-05-31T07:13:47.999Z</time>
      </trkpt>
      <trkpt lat="43.76321" lon="4.13828">
        <ele>116.8</ele>
        <time>2026-05-31T07:13:48.999Z</time>
      </trkpt>
      <trkpt lat="43.76322" lon="4.13826">
        <ele>117.2</ele>
        <time>2026-05-31T07:13:49.999Z</time>
      </trkpt>
      <trkpt lat="43.76322" lon="4.13825">
        <ele>117.6</ele>
        <time>2026-05-31T07:13:50.999Z</time>
      </trkpt>
      <trkpt lat="43.76321" lon="4.13823">
        <ele>118</ele>
        <time>2026-05-31T07:13:51.999Z</time>
      </trkpt>
      <trkpt lat="43.76322" lon="4.13821">
        <ele>118</ele>
        <time>2026-05-31T07:13:52.999Z</time>
      </trkpt>
      <trkpt lat="43.76323" lon="4.1382">
        <ele>118.3</ele>
        <time>2026-05-31T07:13:53.999Z</time>
      </trkpt>
      <trkpt lat="43.76324" lon="4.13819">
        <ele>118.5</ele>
        <time>2026-05-31T07:13:54.999Z</time>
      </trkpt>
      <trkpt lat="43.76326" lon="4.13818">
        <ele>118.9</ele>
        <time>2026-05-31T07:13:55.999Z</time>
      </trkpt>
      <trkpt lat="43.76327" lon="4.13818">
        <ele>119.2</ele>
        <time>2026-05-31T07:13:56.999Z</time>
      </trkpt>
      <trkpt lat="43.76328" lon="4.13817">
        <ele>119.7</ele>
        <time>2026-05-31T07:13:57.999Z</time>
      </trkpt>
      <trkpt lat="43.76328" lon="4.13816">
        <ele>119.8</ele>
        <time>2026-05-31T07:13:58.999Z</time>
      </trkpt>
      <trkpt lat="43.76328" lon="4.13816">
        <ele>120.1</ele>
        <time>2026-05-31T07:13:59.999Z</time>
      </trkpt>
      <trkpt lat="43.76329" lon="4.13816">
        <ele>120.3</ele>
        <time>2026-05-31T07:14:00.999Z</time>
      </trkpt>
      <trkpt lat="43.76329" lon="4.13815">
        <ele>120.1</ele>
        <time>2026-05-31T07:14:01.999Z</time>
      </trkpt>
      <trkpt lat="43.7633" lon="4.13814">
        <ele>119.7</ele>
        <time>2026-05-31T07:14:02.999Z</time>
      </trkpt>
      <trkpt lat="43.76331" lon="4.13813">
        <ele>119.5</ele>
        <time>2026-05-31T07:14:03.999Z</time>
      </trkpt>
      <trkpt lat="43.76331" lon="4.13812">
        <ele>119.3</ele>
        <time>2026-05-31T07:14:04.999Z</time>
      </trkpt>
      <trkpt lat="43.76331" lon="4.13811">
        <ele>119.4</ele>
        <time>2026-05-31T07:14:05.999Z</time>
      </trkpt>
      <trkpt lat="43.76331" lon="4.13811">
        <ele>119.4</ele>
        <time>2026-05-31T07:14:06.999Z</time>
      </trkpt>
      <trkpt lat="43.76332" lon="4.1381">
        <ele>119.4</ele>
        <time>2026-05-31T07:14:07.999Z</time>
      </trkpt>
      <trkpt lat="43.76332" lon="4.13809">
        <ele>119.2</ele>
        <time>2026-05-31T07:14:08.999Z</time>
      </trkpt>
      <trkpt lat="43.76332" lon="4.13807">
        <ele>119.3</ele>
        <time>2026-05-31T07:14:09.999Z</time>
      </trkpt>
      <trkpt lat="43.76333" lon="4.13806">
        <ele>119.8</ele>
        <time>2026-05-31T07:14:10.999Z</time>
      </trkpt>
      <trkpt lat="43.76333" lon="4.13804">
        <ele>119.5</ele>
        <time>2026-05-31T07:14:11.999Z</time>
      </trkpt>
      <trkpt lat="43.76334" lon="4.13803">
        <ele>119.5</ele>
        <time>2026-05-31T07:14:12.999Z</time>
      </trkpt>
      <trkpt lat="43.76334" lon="4.13801">
        <ele>119.2</ele>
        <time>2026-05-31T07:14:13.999Z</time>
      </trkpt>
      <trkpt lat="43.76335" lon="4.138">
        <ele>119</ele>
        <time>2026-05-31T07:14:14.999Z</time>
      </trkpt>
      <trkpt lat="43.76335" lon="4.13799">
        <ele>119.1</ele>
        <time>2026-05-31T07:14:15.999Z</time>
      </trkpt>
      <trkpt lat="43.76336" lon="4.13799">
        <ele>119.4</ele>
        <time>2026-05-31T07:14:16.999Z</time>
      </trkpt>
      <trkpt lat="43.76337" lon="4.13799">
        <ele>119.8</ele>
        <time>2026-05-31T07:14:17.999Z</time>
      </trkpt>
      <trkpt lat="43.76338" lon="4.13798">
        <ele>119.5</ele>
        <time>2026-05-31T07:14:18.999Z</time>
      </trkpt>
      <trkpt lat="43.76339" lon="4.13797">
        <ele>119.5</ele>
        <time>2026-05-31T07:14:19.999Z</time>
      </trkpt>
      <trkpt lat="43.76339" lon="4.13796">
        <ele>119.5</ele>
        <time>2026-05-31T07:14:20.999Z</time>
      </trkpt>
      <trkpt lat="43.7634" lon="4.13795">
        <ele>119.6</ele>
        <time>2026-05-31T07:14:21.999Z</time>
      </trkpt>
      <trkpt lat="43.7634" lon="4.13794">
        <ele>119.6</ele>
        <time>2026-05-31T07:14:22.999Z</time>
      </trkpt>
      <trkpt lat="43.76341" lon="4.13793">
        <ele>119.6</ele>
        <time>2026-05-31T07:14:23.999Z</time>
      </trkpt>
      <trkpt lat="43.76341" lon="4.13791">
        <ele>119.7</ele>
        <time>2026-05-31T07:14:24.999Z</time>
      </trkpt>
      <trkpt lat="43.76341" lon="4.1379">
        <ele>119.1</ele>
        <time>2026-05-31T07:14:25.999Z</time>
      </trkpt>
      <trkpt lat="43.76341" lon="4.13788">
        <ele>118.4</ele>
        <time>2026-05-31T07:14:26.999Z</time>
      </trkpt>
      <trkpt lat="43.76341" lon="4.13787">
        <ele>118.6</ele>
        <time>2026-05-31T07:14:27.999Z</time>
      </trkpt>
      <trkpt lat="43.76342" lon="4.13786">
        <ele>118.7</ele>
        <time>2026-05-31T07:14:28.999Z</time>
      </trkpt>
      <trkpt lat="43.76342" lon="4.13785">
        <ele>119</ele>
        <time>2026-05-31T07:14:29.999Z</time>
      </trkpt>
      <trkpt lat="43.76342" lon="4.13783">
        <ele>119.2</ele>
        <time>2026-05-31T07:14:30.999Z</time>
      </trkpt>
      <trkpt lat="43.76343" lon="4.13782">
        <ele>119.4</ele>
        <time>2026-05-31T07:14:31.999Z</time>
      </trkpt>
      <trkpt lat="43.76344" lon="4.13781">
        <ele>119.7</ele>
        <time>2026-05-31T07:14:32.999Z</time>
      </trkpt>
      <trkpt lat="43.76345" lon="4.13781">
        <ele>119.7</ele>
        <time>2026-05-31T07:14:33.999Z</time>
      </trkpt>
      <trkpt lat="43.76345" lon="4.1378">
        <ele>119.9</ele>
        <time>2026-05-31T07:14:34.999Z</time>
      </trkpt>
      <trkpt lat="43.76346" lon="4.13779">
        <ele>120</ele>
        <time>2026-05-31T07:14:35.999Z</time>
      </trkpt>
      <trkpt lat="43.76347" lon="4.13778">
        <ele>119.8</ele>
        <time>2026-05-31T07:14:36.999Z</time>
      </trkpt>
      <trkpt lat="43.76348" lon="4.13777">
        <ele>119.8</ele>
        <time>2026-05-31T07:14:37.999Z</time>
      </trkpt>
      <trkpt lat="43.76348" lon="4.13776">
        <ele>119.9</ele>
        <time>2026-05-31T07:14:38.999Z</time>
      </trkpt>
      <trkpt lat="43.76348" lon="4.13775">
        <ele>120.5</ele>
        <time>2026-05-31T07:14:39.999Z</time>
      </trkpt>
      <trkpt lat="43.76349" lon="4.13773">
        <ele>120.8</ele>
        <time>2026-05-31T07:14:40.999Z</time>
      </trkpt>
      <trkpt lat="43.76349" lon="4.13773">
        <ele>121.4</ele>
        <time>2026-05-31T07:14:41.999Z</time>
      </trkpt>
      <trkpt lat="43.7635" lon="4.13773">
        <ele>121.6</ele>
        <time>2026-05-31T07:14:42.999Z</time>
      </trkpt>
      <trkpt lat="43.76351" lon="4.13772">
        <ele>122</ele>
        <time>2026-05-31T07:14:43.999Z</time>
      </trkpt>
      <trkpt lat="43.76351" lon="4.13772">
        <ele>122.3</ele>
        <time>2026-05-31T07:14:44.999Z</time>
      </trkpt>
      <trkpt lat="43.76352" lon="4.13772">
        <ele>122.4</ele>
        <time>2026-05-31T07:14:45.999Z</time>
      </trkpt>
      <trkpt lat="43.76352" lon="4.13772">
        <ele>122.6</ele>
        <time>2026-05-31T07:14:46.999Z</time>
      </trkpt>
      <trkpt lat="43.76353" lon="4.13771">
        <ele>122.8</ele>
        <time>2026-05-31T07:14:47.999Z</time>
      </trkpt>
      <trkpt lat="43.76354" lon="4.13771">
        <ele>122.5</ele>
        <time>2026-05-31T07:14:48.999Z</time>
      </trkpt>
      <trkpt lat="43.76355" lon="4.1377">
        <ele>122.2</ele>
        <time>2026-05-31T07:14:49.999Z</time>
      </trkpt>
      <trkpt lat="43.76355" lon="4.13768">
        <ele>122.2</ele>
        <time>2026-05-31T07:14:50.999Z</time>
      </trkpt>
      <trkpt lat="43.76355" lon="4.13768">
        <ele>122.5</ele>
        <time>2026-05-31T07:14:51.999Z</time>
      </trkpt>
      <trkpt lat="43.76356" lon="4.13767">
        <ele>122.7</ele>
        <time>2026-05-31T07:14:52.999Z</time>
      </trkpt>
      <trkpt lat="43.76356" lon="4.13766">
        <ele>122.6</ele>
        <time>2026-05-31T07:14:53.999Z</time>
      </trkpt>
      <trkpt lat="43.76355" lon="4.13764">
        <ele>121.8</ele>
        <time>2026-05-31T07:14:54.999Z</time>
      </trkpt>
      <trkpt lat="43.76354" lon="4.13762">
        <ele>121.2</ele>
        <time>2026-05-31T07:14:55.999Z</time>
      </trkpt>
      <trkpt lat="43.76355" lon="4.1376">
        <ele>121.1</ele>
        <time>2026-05-31T07:14:56.999Z</time>
      </trkpt>
      <trkpt lat="43.76355" lon="4.13759">
        <ele>121.2</ele>
        <time>2026-05-31T07:14:57.999Z</time>
      </trkpt>
      <trkpt lat="43.76356" lon="4.13757">
        <ele>121.3</ele>
        <time>2026-05-31T07:14:58.999Z</time>
      </trkpt>
      <trkpt lat="43.76356" lon="4.13755">
        <ele>121.3</ele>
        <time>2026-05-31T07:14:59.999Z</time>
      </trkpt>
      <trkpt lat="43.76356" lon="4.13753">
        <ele>120.7</ele>
        <time>2026-05-31T07:15:00.999Z</time>
      </trkpt>
      <trkpt lat="43.76356" lon="4.13751">
        <ele>120.4</ele>
        <time>2026-05-31T07:15:01.999Z</time>
      </trkpt>
      <trkpt lat="43.76356" lon="4.1375">
        <ele>120.1</ele>
        <time>2026-05-31T07:15:02.999Z</time>
      </trkpt>
      <trkpt lat="43.76357" lon="4.1375">
        <ele>119.6</ele>
        <time>2026-05-31T07:15:03.999Z</time>
      </trkpt>
      <trkpt lat="43.76357" lon="4.13749">
        <ele>119.4</ele>
        <time>2026-05-31T07:15:04.999Z</time>
      </trkpt>
      <trkpt lat="43.76357" lon="4.13748">
        <ele>119.4</ele>
        <time>2026-05-31T07:15:05.999Z</time>
      </trkpt>
      <trkpt lat="43.76357" lon="4.13747">
        <ele>118.8</ele>
        <time>2026-05-31T07:15:06.999Z</time>
      </trkpt>
      <trkpt lat="43.76357" lon="4.13746">
        <ele>118.2</ele>
        <time>2026-05-31T07:15:07.999Z</time>
      </trkpt>
      <trkpt lat="43.76357" lon="4.13745">
        <ele>118</ele>
        <time>2026-05-31T07:15:08.999Z</time>
      </trkpt>
      <trkpt lat="43.76357" lon="4.13743">
        <ele>117.6</ele>
        <time>2026-05-31T07:15:09.999Z</time>
      </trkpt>
      <trkpt lat="43.76357" lon="4.13741">
        <ele>117</ele>
        <time>2026-05-31T07:15:10.999Z</time>
      </trkpt>
      <trkpt lat="43.76357" lon="4.1374">
        <ele>116.7</ele>
        <time>2026-05-31T07:15:11.999Z</time>
      </trkpt>
      <trkpt lat="43.76357" lon="4.13739">
        <ele>116.9</ele>
        <time>2026-05-31T07:15:12.999Z</time>
      </trkpt>
      <trkpt lat="43.76358" lon="4.13738">
        <ele>116.8</ele>
        <time>2026-05-31T07:15:13.999Z</time>
      </trkpt>
      <trkpt lat="43.76358" lon="4.13737">
        <ele>116.8</ele>
        <time>2026-05-31T07:15:14.999Z</time>
      </trkpt>
      <trkpt lat="43.76359" lon="4.13736">
        <ele>116.6</ele>
        <time>2026-05-31T07:15:15.999Z</time>
      </trkpt>
      <trkpt lat="43.7636" lon="4.13735">
        <ele>117.3</ele>
        <time>2026-05-31T07:15:16.999Z</time>
      </trkpt>
      <trkpt lat="43.76359" lon="4.13735">
        <ele>117.7</ele>
        <time>2026-05-31T07:15:17.999Z</time>
      </trkpt>
      <trkpt lat="43.7636" lon="4.13734">
        <ele>117.5</ele>
        <time>2026-05-31T07:15:18.999Z</time>
      </trkpt>
      <trkpt lat="43.7636" lon="4.13733">
        <ele>117.7</ele>
        <time>2026-05-31T07:15:19.999Z</time>
      </trkpt>
      <trkpt lat="43.7636" lon="4.13732">
        <ele>117.7</ele>
        <time>2026-05-31T07:15:20.999Z</time>
      </trkpt>
      <trkpt lat="43.76361" lon="4.13731">
        <ele>117.9</ele>
        <time>2026-05-31T07:15:21.999Z</time>
      </trkpt>
      <trkpt lat="43.76362" lon="4.13729">
        <ele>118.4</ele>
        <time>2026-05-31T07:15:22.999Z</time>
      </trkpt>
      <trkpt lat="43.76363" lon="4.13728">
        <ele>118.1</ele>
        <time>2026-05-31T07:15:23.999Z</time>
      </trkpt>
      <trkpt lat="43.76363" lon="4.13727">
        <ele>118.1</ele>
        <time>2026-05-31T07:15:24.999Z</time>
      </trkpt>
      <trkpt lat="43.76363" lon="4.13725">
        <ele>118</ele>
        <time>2026-05-31T07:15:25.999Z</time>
      </trkpt>
      <trkpt lat="43.76363" lon="4.13724">
        <ele>117.6</ele>
        <time>2026-05-31T07:15:26.999Z</time>
      </trkpt>
      <trkpt lat="43.76363" lon="4.13723">
        <ele>117.5</ele>
        <time>2026-05-31T07:15:27.999Z</time>
      </trkpt>
      <trkpt lat="43.76363" lon="4.13721">
        <ele>117.8</ele>
        <time>2026-05-31T07:15:28.999Z</time>
      </trkpt>
      <trkpt lat="43.76363" lon="4.1372">
        <ele>117.5</ele>
        <time>2026-05-31T07:15:29.999Z</time>
      </trkpt>
      <trkpt lat="43.76363" lon="4.1372">
        <ele>117.2</ele>
        <time>2026-05-31T07:15:30.999Z</time>
      </trkpt>
      <trkpt lat="43.76363" lon="4.13718">
        <ele>116.8</ele>
        <time>2026-05-31T07:15:31.999Z</time>
      </trkpt>
      <trkpt lat="43.76364" lon="4.13717">
        <ele>116.6</ele>
        <time>2026-05-31T07:15:32.999Z</time>
      </trkpt>
      <trkpt lat="43.76364" lon="4.13715">
        <ele>116.7</ele>
        <time>2026-05-31T07:15:33.999Z</time>
      </trkpt>
      <trkpt lat="43.76365" lon="4.13714">
        <ele>116.9</ele>
        <time>2026-05-31T07:15:34.999Z</time>
      </trkpt>
      <trkpt lat="43.76365" lon="4.13712">
        <ele>117</ele>
        <time>2026-05-31T07:15:35.999Z</time>
      </trkpt>
      <trkpt lat="43.76366" lon="4.13712">
        <ele>116.4</ele>
        <time>2026-05-31T07:15:36.999Z</time>
      </trkpt>
      <trkpt lat="43.76366" lon="4.13711">
        <ele>116.5</ele>
        <time>2026-05-31T07:15:37.999Z</time>
      </trkpt>
      <trkpt lat="43.76367" lon="4.1371">
        <ele>116.8</ele>
        <time>2026-05-31T07:15:38.999Z</time>
      </trkpt>
      <trkpt lat="43.76368" lon="4.1371">
        <ele>117.3</ele>
        <time>2026-05-31T07:15:39.999Z</time>
      </trkpt>
      <trkpt lat="43.76368" lon="4.13709">
        <ele>117.5</ele>
        <time>2026-05-31T07:15:40.999Z</time>
      </trkpt>
      <trkpt lat="43.76369" lon="4.13708">
        <ele>117.4</ele>
        <time>2026-05-31T07:15:41.999Z</time>
      </trkpt>
      <trkpt lat="43.7637" lon="4.13707">
        <ele>117.1</ele>
        <time>2026-05-31T07:15:42.999Z</time>
      </trkpt>
      <trkpt lat="43.7637" lon="4.13706">
        <ele>117.2</ele>
        <time>2026-05-31T07:15:43.999Z</time>
      </trkpt>
      <trkpt lat="43.7637" lon="4.13704">
        <ele>117</ele>
        <time>2026-05-31T07:15:44.999Z</time>
      </trkpt>
      <trkpt lat="43.7637" lon="4.13703">
        <ele>117.3</ele>
        <time>2026-05-31T07:15:45.999Z</time>
      </trkpt>
      <trkpt lat="43.76371" lon="4.13702">
        <ele>117.4</ele>
        <time>2026-05-31T07:15:46.999Z</time>
      </trkpt>
      <trkpt lat="43.76371" lon="4.13702">
        <ele>117.3</ele>
        <time>2026-05-31T07:15:47.999Z</time>
      </trkpt>
      <trkpt lat="43.76371" lon="4.13701">
        <ele>117.7</ele>
        <time>2026-05-31T07:15:48.999Z</time>
      </trkpt>
      <trkpt lat="43.76371" lon="4.13701">
        <ele>117.7</ele>
        <time>2026-05-31T07:15:49.999Z</time>
      </trkpt>
      <trkpt lat="43.76371" lon="4.13701">
        <ele>117.7</ele>
        <time>2026-05-31T07:15:50.999Z</time>
      </trkpt>
      <trkpt lat="43.76371" lon="4.13701">
        <ele>117.8</ele>
        <time>2026-05-31T07:15:51.999Z</time>
      </trkpt>
      <trkpt lat="43.76371" lon="4.13701">
        <ele>117.8</ele>
        <time>2026-05-31T07:15:52.999Z</time>
      </trkpt>
      <trkpt lat="43.76371" lon="4.137">
        <ele>117.7</ele>
        <time>2026-05-31T07:15:53.999Z</time>
      </trkpt>
      <trkpt lat="43.76371" lon="4.137">
        <ele>117.7</ele>
        <time>2026-05-31T07:15:54.999Z</time>
      </trkpt>
      <trkpt lat="43.76371" lon="4.13699">
        <ele>117.5</ele>
        <time>2026-05-31T07:15:55.999Z</time>
      </trkpt>
      <trkpt lat="43.7637" lon="4.13699">
        <ele>117.4</ele>
        <time>2026-05-31T07:15:56.999Z</time>
      </trkpt>
      <trkpt lat="43.7637" lon="4.13698">
        <ele>116.9</ele>
        <time>2026-05-31T07:15:57.999Z</time>
      </trkpt>
      <trkpt lat="43.7637" lon="4.13697">
        <ele>116.7</ele>
        <time>2026-05-31T07:15:58.999Z</time>
      </trkpt>
      <trkpt lat="43.7637" lon="4.13697">
        <ele>116.8</ele>
        <time>2026-05-31T07:15:59.999Z</time>
      </trkpt>
      <trkpt lat="43.7637" lon="4.13696">
        <ele>116.9</ele>
        <time>2026-05-31T07:16:00.999Z</time>
      </trkpt>
      <trkpt lat="43.7637" lon="4.13695">
        <ele>117.3</ele>
        <time>2026-05-31T07:16:01.999Z</time>
      </trkpt>
      <trkpt lat="43.7637" lon="4.13694">
        <ele>117.7</ele>
        <time>2026-05-31T07:16:02.999Z</time>
      </trkpt>
      <trkpt lat="43.7637" lon="4.13694">
        <ele>117.8</ele>
        <time>2026-05-31T07:16:03.999Z</time>
      </trkpt>
      <trkpt lat="43.76371" lon="4.1369">
        <ele>118</ele>
        <time>2026-05-31T07:16:04.999Z</time>
      </trkpt>
      <trkpt lat="43.76371" lon="4.13688">
        <ele>118.1</ele>
        <time>2026-05-31T07:16:05.999Z</time>
      </trkpt>
      <trkpt lat="43.7637" lon="4.13686">
        <ele>118.3</ele>
        <time>2026-05-31T07:16:06.999Z</time>
      </trkpt>
      <trkpt lat="43.7637" lon="4.13683">
        <ele>118.4</ele>
        <time>2026-05-31T07:16:07.999Z</time>
      </trkpt>
      <trkpt lat="43.7637" lon="4.13681">
        <ele>118.8</ele>
        <time>2026-05-31T07:16:08.999Z</time>
      </trkpt>
      <trkpt lat="43.76371" lon="4.1368">
        <ele>119</ele>
        <time>2026-05-31T07:16:09.999Z</time>
      </trkpt>
      <trkpt lat="43.76372" lon="4.13678">
        <ele>119.1</ele>
        <time>2026-05-31T07:16:10.999Z</time>
      </trkpt>
      <trkpt lat="43.76372" lon="4.13675">
        <ele>119.7</ele>
        <time>2026-05-31T07:16:11.999Z</time>
      </trkpt>
      <trkpt lat="43.76373" lon="4.13673">
        <ele>120</ele>
        <time>2026-05-31T07:16:12.999Z</time>
      </trkpt>
      <trkpt lat="43.76374" lon="4.13671">
        <ele>120.3</ele>
        <time>2026-05-31T07:16:13.999Z</time>
      </trkpt>
      <trkpt lat="43.76374" lon="4.13669">
        <ele>120.8</ele>
        <time>2026-05-31T07:16:14.999Z</time>
      </trkpt>
      <trkpt lat="43.76375" lon="4.13667">
        <ele>121</ele>
        <time>2026-05-31T07:16:15.999Z</time>
      </trkpt>
      <trkpt lat="43.76376" lon="4.13666">
        <ele>121.1</ele>
        <time>2026-05-31T07:16:16.999Z</time>
      </trkpt>
      <trkpt lat="43.76377" lon="4.13666">
        <ele>121.2</ele>
        <time>2026-05-31T07:16:17.999Z</time>
      </trkpt>
      <trkpt lat="43.76378" lon="4.13665">
        <ele>121.1</ele>
        <time>2026-05-31T07:16:18.999Z</time>
      </trkpt>
      <trkpt lat="43.76379" lon="4.13663">
        <ele>121.1</ele>
        <time>2026-05-31T07:16:19.999Z</time>
      </trkpt>
      <trkpt lat="43.7638" lon="4.13663">
        <ele>121.2</ele>
        <time>2026-05-31T07:16:20.999Z</time>
      </trkpt>
      <trkpt lat="43.7638" lon="4.13662">
        <ele>121.2</ele>
        <time>2026-05-31T07:16:21.999Z</time>
      </trkpt>
      <trkpt lat="43.76381" lon="4.13661">
        <ele>121.6</ele>
        <time>2026-05-31T07:16:22.999Z</time>
      </trkpt>
      <trkpt lat="43.76382" lon="4.1366">
        <ele>121.6</ele>
        <time>2026-05-31T07:16:23.999Z</time>
      </trkpt>
      <trkpt lat="43.76382" lon="4.13659">
        <ele>121.5</ele>
        <time>2026-05-31T07:16:24.999Z</time>
      </trkpt>
      <trkpt lat="43.76383" lon="4.13657">
        <ele>122</ele>
        <time>2026-05-31T07:16:25.999Z</time>
      </trkpt>
      <trkpt lat="43.76384" lon="4.13656">
        <ele>122.5</ele>
        <time>2026-05-31T07:16:26.999Z</time>
      </trkpt>
      <trkpt lat="43.76384" lon="4.13656">
        <ele>122.6</ele>
        <time>2026-05-31T07:16:27.999Z</time>
      </trkpt>
      <trkpt lat="43.76384" lon="4.13655">
        <ele>122.4</ele>
        <time>2026-05-31T07:16:28.999Z</time>
      </trkpt>
      <trkpt lat="43.76384" lon="4.13656">
        <ele>122.5</ele>
        <time>2026-05-31T07:16:29.999Z</time>
      </trkpt>
      <trkpt lat="43.76385" lon="4.13656">
        <ele>122.5</ele>
        <time>2026-05-31T07:16:30.999Z</time>
      </trkpt>
      <trkpt lat="43.76386" lon="4.13656">
        <ele>122.7</ele>
        <time>2026-05-31T07:16:31.999Z</time>
      </trkpt>
      <trkpt lat="43.76386" lon="4.13655">
        <ele>123</ele>
        <time>2026-05-31T07:16:32.999Z</time>
      </trkpt>
      <trkpt lat="43.76386" lon="4.13655">
        <ele>123.2</ele>
        <time>2026-05-31T07:16:33.999Z</time>
      </trkpt>
      <trkpt lat="43.76386" lon="4.13655">
        <ele>123.5</ele>
        <time>2026-05-31T07:16:34.999Z</time>
      </trkpt>
      <trkpt lat="43.76386" lon="4.13655">
        <ele>123.6</ele>
        <time>2026-05-31T07:16:35.999Z</time>
      </trkpt>
      <trkpt lat="43.76386" lon="4.13654">
        <ele>123.8</ele>
        <time>2026-05-31T07:16:36.999Z</time>
      </trkpt>
      <trkpt lat="43.76386" lon="4.13654">
        <ele>124</ele>
        <time>2026-05-31T07:16:37.999Z</time>
      </trkpt>
      <trkpt lat="43.76386" lon="4.13654">
        <ele>124.3</ele>
        <time>2026-05-31T07:16:39.000Z</time>
      </trkpt>
      <trkpt lat="43.76386" lon="4.13653">
        <ele>124.5</ele>
        <time>2026-05-31T07:16:40.000Z</time>
      </trkpt>
      <trkpt lat="43.76386" lon="4.13651">
        <ele>124.6</ele>
        <time>2026-05-31T07:16:41.000Z</time>
      </trkpt>
      <trkpt lat="43.76386" lon="4.13649">
        <ele>125</ele>
        <time>2026-05-31T07:16:42.000Z</time>
      </trkpt>
      <trkpt lat="43.76386" lon="4.13647">
        <ele>125.5</ele>
        <time>2026-05-31T07:16:43.000Z</time>
      </trkpt>
      <trkpt lat="43.76388" lon="4.13645">
        <ele>125.7</ele>
        <time>2026-05-31T07:16:44.000Z</time>
      </trkpt>
      <trkpt lat="43.76389" lon="4.13644">
        <ele>125.6</ele>
        <time>2026-05-31T07:16:45.000Z</time>
      </trkpt>
      <trkpt lat="43.76391" lon="4.13643">
        <ele>125.7</ele>
        <time>2026-05-31T07:16:46.000Z</time>
      </trkpt>
      <trkpt lat="43.76392" lon="4.13643">
        <ele>125.8</ele>
        <time>2026-05-31T07:16:47.000Z</time>
      </trkpt>
      <trkpt lat="43.76394" lon="4.13642">
        <ele>126.1</ele>
        <time>2026-05-31T07:16:48.000Z</time>
      </trkpt>
      <trkpt lat="43.76395" lon="4.13641">
        <ele>126.5</ele>
        <time>2026-05-31T07:16:49.000Z</time>
      </trkpt>
      <trkpt lat="43.76396" lon="4.13639">
        <ele>126.6</ele>
        <time>2026-05-31T07:16:50.000Z</time>
      </trkpt>
      <trkpt lat="43.76396" lon="4.13639">
        <ele>126.8</ele>
        <time>2026-05-31T07:16:51.000Z</time>
      </trkpt>
      <trkpt lat="43.76397" lon="4.13637">
        <ele>127.2</ele>
        <time>2026-05-31T07:16:52.000Z</time>
      </trkpt>
      <trkpt lat="43.76398" lon="4.13637">
        <ele>127.4</ele>
        <time>2026-05-31T07:16:53.000Z</time>
      </trkpt>
      <trkpt lat="43.76398" lon="4.13635">
        <ele>128</ele>
        <time>2026-05-31T07:16:54.000Z</time>
      </trkpt>
      <trkpt lat="43.76398" lon="4.13633">
        <ele>127.7</ele>
        <time>2026-05-31T07:16:55.000Z</time>
      </trkpt>
      <trkpt lat="43.76399" lon="4.1363">
        <ele>127.5</ele>
        <time>2026-05-31T07:16:56.000Z</time>
      </trkpt>
      <trkpt lat="43.76398" lon="4.13629">
        <ele>127.6</ele>
        <time>2026-05-31T07:16:57.000Z</time>
      </trkpt>
      <trkpt lat="43.76398" lon="4.13628">
        <ele>127.2</ele>
        <time>2026-05-31T07:16:58.000Z</time>
      </trkpt>
      <trkpt lat="43.76397" lon="4.13628">
        <ele>127.4</ele>
        <time>2026-05-31T07:16:59.000Z</time>
      </trkpt>
      <trkpt lat="43.76396" lon="4.13627">
        <ele>127.2</ele>
        <time>2026-05-31T07:17:00.000Z</time>
      </trkpt>
      <trkpt lat="43.76395" lon="4.13625">
        <ele>126.8</ele>
        <time>2026-05-31T07:17:01.000Z</time>
      </trkpt>
      <trkpt lat="43.76394" lon="4.13623">
        <ele>126.3</ele>
        <time>2026-05-31T07:17:02.000Z</time>
      </trkpt>
      <trkpt lat="43.76394" lon="4.13621">
        <ele>126.4</ele>
        <time>2026-05-31T07:17:03.000Z</time>
      </trkpt>
      <trkpt lat="43.76394" lon="4.13621">
        <ele>126.2</ele>
        <time>2026-05-31T07:17:04.000Z</time>
      </trkpt>
      <trkpt lat="43.76394" lon="4.1362">
        <ele>125.9</ele>
        <time>2026-05-31T07:17:05.000Z</time>
      </trkpt>
      <trkpt lat="43.76395" lon="4.1362">
        <ele>125.9</ele>
        <time>2026-05-31T07:17:06.000Z</time>
      </trkpt>
      <trkpt lat="43.76395" lon="4.13619">
        <ele>125.9</ele>
        <time>2026-05-31T07:17:07.000Z</time>
      </trkpt>
      <trkpt lat="43.76396" lon="4.13617">
        <ele>125.9</ele>
        <time>2026-05-31T07:17:08.000Z</time>
      </trkpt>
      <trkpt lat="43.76396" lon="4.13616">
        <ele>126.4</ele>
        <time>2026-05-31T07:17:09.000Z</time>
      </trkpt>
      <trkpt lat="43.76396" lon="4.13615">
        <ele>126.8</ele>
        <time>2026-05-31T07:17:10.000Z</time>
      </trkpt>
      <trkpt lat="43.76397" lon="4.13614">
        <ele>127.2</ele>
        <time>2026-05-31T07:17:11.000Z</time>
      </trkpt>
      <trkpt lat="43.76397" lon="4.13614">
        <ele>127.2</ele>
        <time>2026-05-31T07:17:12.000Z</time>
      </trkpt>
      <trkpt lat="43.76397" lon="4.13613">
        <ele>127.4</ele>
        <time>2026-05-31T07:17:13.000Z</time>
      </trkpt>
      <trkpt lat="43.76397" lon="4.13612">
        <ele>127.2</ele>
        <time>2026-05-31T07:17:14.000Z</time>
      </trkpt>
      <trkpt lat="43.76397" lon="4.1361">
        <ele>127.2</ele>
        <time>2026-05-31T07:17:15.000Z</time>
      </trkpt>
      <trkpt lat="43.76397" lon="4.13608">
        <ele>127.6</ele>
        <time>2026-05-31T07:17:16.000Z</time>
      </trkpt>
      <trkpt lat="43.76397" lon="4.13606">
        <ele>127.7</ele>
        <time>2026-05-31T07:17:17.000Z</time>
      </trkpt>
      <trkpt lat="43.76398" lon="4.13605">
        <ele>128</ele>
        <time>2026-05-31T07:17:18.000Z</time>
      </trkpt>
      <trkpt lat="43.76398" lon="4.13604">
        <ele>128.3</ele>
        <time>2026-05-31T07:17:19.000Z</time>
      </trkpt>
      <trkpt lat="43.76398" lon="4.13602">
        <ele>128.3</ele>
        <time>2026-05-31T07:17:20.000Z</time>
      </trkpt>
      <trkpt lat="43.76398" lon="4.13601">
        <ele>128.5</ele>
        <time>2026-05-31T07:17:21.000Z</time>
      </trkpt>
      <trkpt lat="43.76398" lon="4.13601">
        <ele>128.5</ele>
        <time>2026-05-31T07:17:22.000Z</time>
      </trkpt>
      <trkpt lat="43.76399" lon="4.136">
        <ele>128.7</ele>
        <time>2026-05-31T07:17:23.000Z</time>
      </trkpt>
      <trkpt lat="43.76398" lon="4.13599">
        <ele>128.8</ele>
        <time>2026-05-31T07:17:24.000Z</time>
      </trkpt>
      <trkpt lat="43.76399" lon="4.13598">
        <ele>128.4</ele>
        <time>2026-05-31T07:17:25.000Z</time>
      </trkpt>
      <trkpt lat="43.76399" lon="4.13596">
        <ele>128.1</ele>
        <time>2026-05-31T07:17:26.000Z</time>
      </trkpt>
      <trkpt lat="43.76399" lon="4.13595">
        <ele>127.5</ele>
        <time>2026-05-31T07:17:27.000Z</time>
      </trkpt>
      <trkpt lat="43.76399" lon="4.13594">
        <ele>127.4</ele>
        <time>2026-05-31T07:17:28.000Z</time>
      </trkpt>
      <trkpt lat="43.76399" lon="4.13593">
        <ele>127.4</ele>
        <time>2026-05-31T07:17:29.000Z</time>
      </trkpt>
      <trkpt lat="43.764" lon="4.13592">
        <ele>127.7</ele>
        <time>2026-05-31T07:17:30.000Z</time>
      </trkpt>
      <trkpt lat="43.764" lon="4.13591">
        <ele>127.9</ele>
        <time>2026-05-31T07:17:31.000Z</time>
      </trkpt>
      <trkpt lat="43.764" lon="4.13589">
        <ele>127.6</ele>
        <time>2026-05-31T07:17:32.000Z</time>
      </trkpt>
      <trkpt lat="43.764" lon="4.13589">
        <ele>127.9</ele>
        <time>2026-05-31T07:17:33.000Z</time>
      </trkpt>
      <trkpt lat="43.764" lon="4.13589">
        <ele>128</ele>
        <time>2026-05-31T07:17:34.000Z</time>
      </trkpt>
      <trkpt lat="43.764" lon="4.13589">
        <ele>128</ele>
        <time>2026-05-31T07:17:35.000Z</time>
      </trkpt>
      <trkpt lat="43.764" lon="4.13589">
        <ele>128</ele>
        <time>2026-05-31T07:17:36.000Z</time>
      </trkpt>
      <trkpt lat="43.764" lon="4.13589">
        <ele>128.1</ele>
        <time>2026-05-31T07:17:37.000Z</time>
      </trkpt>
      <trkpt lat="43.76401" lon="4.13589">
        <ele>128.3</ele>
        <time>2026-05-31T07:17:38.000Z</time>
      </trkpt>
      <trkpt lat="43.76401" lon="4.13589">
        <ele>128.5</ele>
        <time>2026-05-31T07:17:39.000Z</time>
      </trkpt>
      <trkpt lat="43.76401" lon="4.13589">
        <ele>128.6</ele>
        <time>2026-05-31T07:17:40.000Z</time>
      </trkpt>
      <trkpt lat="43.76401" lon="4.13588">
        <ele>128.5</ele>
        <time>2026-05-31T07:17:41.000Z</time>
      </trkpt>
      <trkpt lat="43.76401" lon="4.13588">
        <ele>128.4</ele>
        <time>2026-05-31T07:17:42.000Z</time>
      </trkpt>
      <trkpt lat="43.76401" lon="4.13587">
        <ele>128.5</ele>
        <time>2026-05-31T07:17:43.000Z</time>
      </trkpt>
      <trkpt lat="43.76401" lon="4.13587">
        <ele>128.3</ele>
        <time>2026-05-31T07:17:44.000Z</time>
      </trkpt>
      <trkpt lat="43.76401" lon="4.13586">
        <ele>128.1</ele>
        <time>2026-05-31T07:17:45.000Z</time>
      </trkpt>
      <trkpt lat="43.76401" lon="4.13586">
        <ele>127.6</ele>
        <time>2026-05-31T07:17:46.000Z</time>
      </trkpt>
      <trkpt lat="43.76401" lon="4.13586">
        <ele>127.2</ele>
        <time>2026-05-31T07:17:47.000Z</time>
      </trkpt>
      <trkpt lat="43.76401" lon="4.13585">
        <ele>127</ele>
        <time>2026-05-31T07:17:48.000Z</time>
      </trkpt>
      <trkpt lat="43.76401" lon="4.13585">
        <ele>126.9</ele>
        <time>2026-05-31T07:17:49.000Z</time>
      </trkpt>
      <trkpt lat="43.76402" lon="4.13585">
        <ele>126.7</ele>
        <time>2026-05-31T07:17:50.000Z</time>
      </trkpt>
      <trkpt lat="43.76402" lon="4.13584">
        <ele>126.5</ele>
        <time>2026-05-31T07:17:51.000Z</time>
      </trkpt>
      <trkpt lat="43.76402" lon="4.13584">
        <ele>126.6</ele>
        <time>2026-05-31T07:17:52.000Z</time>
      </trkpt>
      <trkpt lat="43.76402" lon="4.13583">
        <ele>126.9</ele>
        <time>2026-05-31T07:17:53.000Z</time>
      </trkpt>
      <trkpt lat="43.76402" lon="4.13582">
        <ele>126.9</ele>
        <time>2026-05-31T07:17:54.000Z</time>
      </trkpt>
      <trkpt lat="43.76402" lon="4.13582">
        <ele>127.1</ele>
        <time>2026-05-31T07:17:55.000Z</time>
      </trkpt>
      <trkpt lat="43.76402" lon="4.13581">
        <ele>127.1</ele>
        <time>2026-05-31T07:17:56.000Z</time>
      </trkpt>
      <trkpt lat="43.76402" lon="4.13581">
        <ele>127.3</ele>
        <time>2026-05-31T07:17:57.000Z</time>
      </trkpt>
      <trkpt lat="43.76402" lon="4.1358">
        <ele>127.4</ele>
        <time>2026-05-31T07:17:58.000Z</time>
      </trkpt>
      <trkpt lat="43.76402" lon="4.13578">
        <ele>127.4</ele>
        <time>2026-05-31T07:17:59.000Z</time>
      </trkpt>
      <trkpt lat="43.76402" lon="4.13578">
        <ele>127.5</ele>
        <time>2026-05-31T07:18:00.000Z</time>
      </trkpt>
      <trkpt lat="43.76402" lon="4.13577">
        <ele>127.8</ele>
        <time>2026-05-31T07:18:01.000Z</time>
      </trkpt>
      <trkpt lat="43.76402" lon="4.13576">
        <ele>128.1</ele>
        <time>2026-05-31T07:18:02.000Z</time>
      </trkpt>
      <trkpt lat="43.76402" lon="4.13575">
        <ele>128.3</ele>
        <time>2026-05-31T07:18:03.000Z</time>
      </trkpt>
      <trkpt lat="43.76402" lon="4.13573">
        <ele>128.4</ele>
        <time>2026-05-31T07:18:04.000Z</time>
      </trkpt>
      <trkpt lat="43.76403" lon="4.1357">
        <ele>128.5</ele>
        <time>2026-05-31T07:18:05.000Z</time>
      </trkpt>
      <trkpt lat="43.76403" lon="4.13568">
        <ele>128.7</ele>
        <time>2026-05-31T07:18:06.000Z</time>
      </trkpt>
      <trkpt lat="43.76403" lon="4.13568">
        <ele>128.5</ele>
        <time>2026-05-31T07:18:07.000Z</time>
      </trkpt>
      <trkpt lat="43.76403" lon="4.13568">
        <ele>128.3</ele>
        <time>2026-05-31T07:18:08.000Z</time>
      </trkpt>
      <trkpt lat="43.76403" lon="4.13567">
        <ele>128.2</ele>
        <time>2026-05-31T07:18:09.000Z</time>
      </trkpt>
      <trkpt lat="43.76404" lon="4.13567">
        <ele>127.9</ele>
        <time>2026-05-31T07:18:10.000Z</time>
      </trkpt>
      <trkpt lat="43.76404" lon="4.13566">
        <ele>127.8</ele>
        <time>2026-05-31T07:18:11.000Z</time>
      </trkpt>
      <trkpt lat="43.76404" lon="4.13566">
        <ele>127.7</ele>
        <time>2026-05-31T07:18:12.000Z</time>
      </trkpt>
      <trkpt lat="43.76404" lon="4.13565">
        <ele>127.5</ele>
        <time>2026-05-31T07:18:13.000Z</time>
      </trkpt>
      <trkpt lat="43.76404" lon="4.13564">
        <ele>127.3</ele>
        <time>2026-05-31T07:18:14.000Z</time>
      </trkpt>
      <trkpt lat="43.76406" lon="4.13561">
        <ele>127.2</ele>
        <time>2026-05-31T07:18:15.000Z</time>
      </trkpt>
      <trkpt lat="43.76407" lon="4.13559">
        <ele>127.3</ele>
        <time>2026-05-31T07:18:16.000Z</time>
      </trkpt>
      <trkpt lat="43.76408" lon="4.13557">
        <ele>127.4</ele>
        <time>2026-05-31T07:18:17.000Z</time>
      </trkpt>
      <trkpt lat="43.76408" lon="4.13555">
        <ele>127.2</ele>
        <time>2026-05-31T07:18:18.000Z</time>
      </trkpt>
      <trkpt lat="43.76408" lon="4.13553">
        <ele>127</ele>
        <time>2026-05-31T07:18:19.000Z</time>
      </trkpt>
      <trkpt lat="43.76408" lon="4.13551">
        <ele>126.6</ele>
        <time>2026-05-31T07:18:20.000Z</time>
      </trkpt>
      <trkpt lat="43.76408" lon="4.1355">
        <ele>126.3</ele>
        <time>2026-05-31T07:18:21.000Z</time>
      </trkpt>
      <trkpt lat="43.76409" lon="4.13548">
        <ele>126.1</ele>
        <time>2026-05-31T07:18:22.000Z</time>
      </trkpt>
      <trkpt lat="43.76409" lon="4.13546">
        <ele>125.8</ele>
        <time>2026-05-31T07:18:23.000Z</time>
      </trkpt>
      <trkpt lat="43.76409" lon="4.13544">
        <ele>125.7</ele>
        <time>2026-05-31T07:18:24.000Z</time>
      </trkpt>
      <trkpt lat="43.7641" lon="4.13543">
        <ele>125.6</ele>
        <time>2026-05-31T07:18:25.000Z</time>
      </trkpt>
      <trkpt lat="43.7641" lon="4.13541">
        <ele>125.4</ele>
        <time>2026-05-31T07:18:26.000Z</time>
      </trkpt>
      <trkpt lat="43.76411" lon="4.1354">
        <ele>125.2</ele>
        <time>2026-05-31T07:18:27.000Z</time>
      </trkpt>
      <trkpt lat="43.76412" lon="4.13539">
        <ele>125.1</ele>
        <time>2026-05-31T07:18:28.000Z</time>
      </trkpt>
      <trkpt lat="43.76412" lon="4.13537">
        <ele>124.7</ele>
        <time>2026-05-31T07:18:29.000Z</time>
      </trkpt>
      <trkpt lat="43.76413" lon="4.13536">
        <ele>124.5</ele>
        <time>2026-05-31T07:18:30.000Z</time>
      </trkpt>
      <trkpt lat="43.76413" lon="4.13535">
        <ele>124.7</ele>
        <time>2026-05-31T07:18:31.000Z</time>
      </trkpt>
      <trkpt lat="43.76414" lon="4.13533">
        <ele>124.8</ele>
        <time>2026-05-31T07:18:32.000Z</time>
      </trkpt>
      <trkpt lat="43.76414" lon="4.13532">
        <ele>124.7</ele>
        <time>2026-05-31T07:18:33.000Z</time>
      </trkpt>
      <trkpt lat="43.76414" lon="4.1353">
        <ele>124.1</ele>
        <time>2026-05-31T07:18:34.000Z</time>
      </trkpt>
      <trkpt lat="43.76415" lon="4.13528">
        <ele>123.6</ele>
        <time>2026-05-31T07:18:35.000Z</time>
      </trkpt>
      <trkpt lat="43.76415" lon="4.13526">
        <ele>123</ele>
        <time>2026-05-31T07:18:36.000Z</time>
      </trkpt>
      <trkpt lat="43.76416" lon="4.13525">
        <ele>122.6</ele>
        <time>2026-05-31T07:18:37.000Z</time>
      </trkpt>
      <trkpt lat="43.76417" lon="4.13524">
        <ele>122.2</ele>
        <time>2026-05-31T07:18:38.000Z</time>
      </trkpt>
      <trkpt lat="43.76416" lon="4.13522">
        <ele>121.9</ele>
        <time>2026-05-31T07:18:39.000Z</time>
      </trkpt>
      <trkpt lat="43.76416" lon="4.13521">
        <ele>121.6</ele>
        <time>2026-05-31T07:18:40.000Z</time>
      </trkpt>
      <trkpt lat="43.76416" lon="4.1352">
        <ele>121.3</ele>
        <time>2026-05-31T07:18:41.000Z</time>
      </trkpt>
      <trkpt lat="43.76416" lon="4.13518">
        <ele>120.9</ele>
        <time>2026-05-31T07:18:42.000Z</time>
      </trkpt>
      <trkpt lat="43.76416" lon="4.13516">
        <ele>120.4</ele>
        <time>2026-05-31T07:18:43.000Z</time>
      </trkpt>
      <trkpt lat="43.76416" lon="4.13515">
        <ele>120</ele>
        <time>2026-05-31T07:18:44.000Z</time>
      </trkpt>
      <trkpt lat="43.76416" lon="4.13514">
        <ele>119.7</ele>
        <time>2026-05-31T07:18:45.000Z</time>
      </trkpt>
      <trkpt lat="43.76416" lon="4.13512">
        <ele>119.8</ele>
        <time>2026-05-31T07:18:46.000Z</time>
      </trkpt>
      <trkpt lat="43.76416" lon="4.13511">
        <ele>119.3</ele>
        <time>2026-05-31T07:18:47.000Z</time>
      </trkpt>
      <trkpt lat="43.76415" lon="4.1351">
        <ele>118.9</ele>
        <time>2026-05-31T07:18:48.000Z</time>
      </trkpt>
      <trkpt lat="43.76415" lon="4.13509">
        <ele>118.5</ele>
        <time>2026-05-31T07:18:49.000Z</time>
      </trkpt>
      <trkpt lat="43.76415" lon="4.13508">
        <ele>118.5</ele>
        <time>2026-05-31T07:18:50.000Z</time>
      </trkpt>
      <trkpt lat="43.76415" lon="4.13506">
        <ele>118.7</ele>
        <time>2026-05-31T07:18:51.000Z</time>
      </trkpt>
      <trkpt lat="43.76415" lon="4.13505">
        <ele>118.5</ele>
        <time>2026-05-31T07:18:52.000Z</time>
      </trkpt>
      <trkpt lat="43.76415" lon="4.13504">
        <ele>118.3</ele>
        <time>2026-05-31T07:18:53.000Z</time>
      </trkpt>
      <trkpt lat="43.76415" lon="4.13503">
        <ele>118.4</ele>
        <time>2026-05-31T07:18:54.000Z</time>
      </trkpt>
      <trkpt lat="43.76415" lon="4.13502">
        <ele>118.4</ele>
        <time>2026-05-31T07:18:55.000Z</time>
      </trkpt>
      <trkpt lat="43.76415" lon="4.13502">
        <ele>118.5</ele>
        <time>2026-05-31T07:18:56.000Z</time>
      </trkpt>
      <trkpt lat="43.76415" lon="4.135">
        <ele>118.4</ele>
        <time>2026-05-31T07:18:57.000Z</time>
      </trkpt>
      <trkpt lat="43.76415" lon="4.13499">
        <ele>118.4</ele>
        <time>2026-05-31T07:18:58.000Z</time>
      </trkpt>
      <trkpt lat="43.76415" lon="4.13498">
        <ele>118.5</ele>
        <time>2026-05-31T07:18:59.000Z</time>
      </trkpt>
      <trkpt lat="43.76415" lon="4.13497">
        <ele>118.6</ele>
        <time>2026-05-31T07:19:00.000Z</time>
      </trkpt>
      <trkpt lat="43.76415" lon="4.13495">
        <ele>119</ele>
        <time>2026-05-31T07:19:01.000Z</time>
      </trkpt>
      <trkpt lat="43.76415" lon="4.13494">
        <ele>119.1</ele>
        <time>2026-05-31T07:19:02.000Z</time>
      </trkpt>
      <trkpt lat="43.76415" lon="4.13492">
        <ele>119.9</ele>
        <time>2026-05-31T07:19:03.000Z</time>
      </trkpt>
      <trkpt lat="43.76415" lon="4.1349">
        <ele>120.7</ele>
        <time>2026-05-31T07:19:04.000Z</time>
      </trkpt>
      <trkpt lat="43.76416" lon="4.13489">
        <ele>120.7</ele>
        <time>2026-05-31T07:19:05.000Z</time>
      </trkpt>
      <trkpt lat="43.76416" lon="4.13488">
        <ele>120.8</ele>
        <time>2026-05-31T07:19:06.000Z</time>
      </trkpt>
      <trkpt lat="43.76417" lon="4.13486">
        <ele>121.3</ele>
        <time>2026-05-31T07:19:07.000Z</time>
      </trkpt>
      <trkpt lat="43.76418" lon="4.13485">
        <ele>121.9</ele>
        <time>2026-05-31T07:19:08.000Z</time>
      </trkpt>
      <trkpt lat="43.76419" lon="4.13484">
        <ele>122.7</ele>
        <time>2026-05-31T07:19:09.000Z</time>
      </trkpt>
      <trkpt lat="43.76421" lon="4.13482">
        <ele>123.6</ele>
        <time>2026-05-31T07:19:10.000Z</time>
      </trkpt>
      <trkpt lat="43.76422" lon="4.13481">
        <ele>125</ele>
        <time>2026-05-31T07:19:11.000Z</time>
      </trkpt>
      <trkpt lat="43.76422" lon="4.1348">
        <ele>125.9</ele>
        <time>2026-05-31T07:19:12.000Z</time>
      </trkpt>
      <trkpt lat="43.76423" lon="4.13479">
        <ele>126.3</ele>
        <time>2026-05-31T07:19:13.000Z</time>
      </trkpt>
      <trkpt lat="43.76423" lon="4.13477">
        <ele>126.4</ele>
        <time>2026-05-31T07:19:14.000Z</time>
      </trkpt>
      <trkpt lat="43.76423" lon="4.13475">
        <ele>126.4</ele>
        <time>2026-05-31T07:19:15.000Z</time>
      </trkpt>
      <trkpt lat="43.76423" lon="4.13473">
        <ele>126</ele>
        <time>2026-05-31T07:19:16.000Z</time>
      </trkpt>
      <trkpt lat="43.76423" lon="4.13472">
        <ele>125.7</ele>
        <time>2026-05-31T07:19:17.000Z</time>
      </trkpt>
      <trkpt lat="43.76423" lon="4.13471">
        <ele>125.4</ele>
        <time>2026-05-31T07:19:18.000Z</time>
      </trkpt>
      <trkpt lat="43.76423" lon="4.1347">
        <ele>125.3</ele>
        <time>2026-05-31T07:19:19.000Z</time>
      </trkpt>
      <trkpt lat="43.76423" lon="4.13468">
        <ele>125.4</ele>
        <time>2026-05-31T07:19:20.000Z</time>
      </trkpt>
      <trkpt lat="43.76424" lon="4.13466">
        <ele>125.5</ele>
        <time>2026-05-31T07:19:21.000Z</time>
      </trkpt>
      <trkpt lat="43.76424" lon="4.13465">
        <ele>125.5</ele>
        <time>2026-05-31T07:19:22.000Z</time>
      </trkpt>
      <trkpt lat="43.76424" lon="4.13463">
        <ele>125.1</ele>
        <time>2026-05-31T07:19:23.000Z</time>
      </trkpt>
      <trkpt lat="43.76424" lon="4.13462">
        <ele>124.8</ele>
        <time>2026-05-31T07:19:24.000Z</time>
      </trkpt>
      <trkpt lat="43.76424" lon="4.1346">
        <ele>124.8</ele>
        <time>2026-05-31T07:19:25.000Z</time>
      </trkpt>
      <trkpt lat="43.76424" lon="4.13458">
        <ele>124.9</ele>
        <time>2026-05-31T07:19:26.000Z</time>
      </trkpt>
      <trkpt lat="43.76424" lon="4.13456">
        <ele>124.9</ele>
        <time>2026-05-31T07:19:27.000Z</time>
      </trkpt>
      <trkpt lat="43.76424" lon="4.13455">
        <ele>124.7</ele>
        <time>2026-05-31T07:19:28.000Z</time>
      </trkpt>
      <trkpt lat="43.76425" lon="4.13453">
        <ele>124.7</ele>
        <time>2026-05-31T07:19:29.000Z</time>
      </trkpt>
      <trkpt lat="43.76425" lon="4.13452">
        <ele>124.6</ele>
        <time>2026-05-31T07:19:30.000Z</time>
      </trkpt>
      <trkpt lat="43.76426" lon="4.1345">
        <ele>124.6</ele>
        <time>2026-05-31T07:19:31.000Z</time>
      </trkpt>
      <trkpt lat="43.76426" lon="4.13449">
        <ele>124.4</ele>
        <time>2026-05-31T07:19:32.000Z</time>
      </trkpt>
      <trkpt lat="43.76427" lon="4.13449">
        <ele>124.7</ele>
        <time>2026-05-31T07:19:33.000Z</time>
      </trkpt>
      <trkpt lat="43.76428" lon="4.13449">
        <ele>125</ele>
        <time>2026-05-31T07:19:34.000Z</time>
      </trkpt>
      <trkpt lat="43.7643" lon="4.13448">
        <ele>125.2</ele>
        <time>2026-05-31T07:19:35.000Z</time>
      </trkpt>
      <trkpt lat="43.76431" lon="4.13448">
        <ele>125.2</ele>
        <time>2026-05-31T07:19:36.000Z</time>
      </trkpt>
      <trkpt lat="43.76432" lon="4.13447">
        <ele>125.6</ele>
        <time>2026-05-31T07:19:37.000Z</time>
      </trkpt>
      <trkpt lat="43.76433" lon="4.13447">
        <ele>125.6</ele>
        <time>2026-05-31T07:19:38.000Z</time>
      </trkpt>
      <trkpt lat="43.76435" lon="4.13445">
        <ele>125.6</ele>
        <time>2026-05-31T07:19:39.000Z</time>
      </trkpt>
      <trkpt lat="43.76435" lon="4.13443">
        <ele>126.1</ele>
        <time>2026-05-31T07:19:40.000Z</time>
      </trkpt>
      <trkpt lat="43.76435" lon="4.13442">
        <ele>126.2</ele>
        <time>2026-05-31T07:19:41.000Z</time>
      </trkpt>
      <trkpt lat="43.76435" lon="4.1344">
        <ele>125.4</ele>
        <time>2026-05-31T07:19:42.000Z</time>
      </trkpt>
      <trkpt lat="43.76433" lon="4.13439">
        <ele>125.3</ele>
        <time>2026-05-31T07:19:43.000Z</time>
      </trkpt>
      <trkpt lat="43.76433" lon="4.13438">
        <ele>125.4</ele>
        <time>2026-05-31T07:19:44.000Z</time>
      </trkpt>
      <trkpt lat="43.76431" lon="4.13437">
        <ele>124.9</ele>
        <time>2026-05-31T07:19:45.000Z</time>
      </trkpt>
      <trkpt lat="43.7643" lon="4.13436">
        <ele>124.6</ele>
        <time>2026-05-31T07:19:46.000Z</time>
      </trkpt>
      <trkpt lat="43.76429" lon="4.13436">
        <ele>124.6</ele>
        <time>2026-05-31T07:19:47.000Z</time>
      </trkpt>
      <trkpt lat="43.76428" lon="4.13436">
        <ele>124.6</ele>
        <time>2026-05-31T07:19:48.000Z</time>
      </trkpt>
      <trkpt lat="43.76426" lon="4.13435">
        <ele>124.2</ele>
        <time>2026-05-31T07:19:49.000Z</time>
      </trkpt>
      <trkpt lat="43.76425" lon="4.13434">
        <ele>123.6</ele>
        <time>2026-05-31T07:19:50.000Z</time>
      </trkpt>
      <trkpt lat="43.76423" lon="4.13433">
        <ele>123.6</ele>
        <time>2026-05-31T07:19:51.000Z</time>
      </trkpt>
      <trkpt lat="43.76422" lon="4.13432">
        <ele>124</ele>
        <time>2026-05-31T07:19:52.000Z</time>
      </trkpt>
      <trkpt lat="43.76421" lon="4.13432">
        <ele>124.5</ele>
        <time>2026-05-31T07:19:53.000Z</time>
      </trkpt>
      <trkpt lat="43.76421" lon="4.13431">
        <ele>125.2</ele>
        <time>2026-05-31T07:19:54.000Z</time>
      </trkpt>
      <trkpt lat="43.7642" lon="4.13431">
        <ele>125.1</ele>
        <time>2026-05-31T07:19:55.000Z</time>
      </trkpt>
      <trkpt lat="43.76419" lon="4.1343">
        <ele>125.3</ele>
        <time>2026-05-31T07:19:56.000Z</time>
      </trkpt>
      <trkpt lat="43.76418" lon="4.1343">
        <ele>125.2</ele>
        <time>2026-05-31T07:19:57.000Z</time>
      </trkpt>
      <trkpt lat="43.76418" lon="4.1343">
        <ele>125.1</ele>
        <time>2026-05-31T07:19:58.000Z</time>
      </trkpt>
      <trkpt lat="43.76417" lon="4.1343">
        <ele>125</ele>
        <time>2026-05-31T07:19:59.000Z</time>
      </trkpt>
      <trkpt lat="43.76417" lon="4.13429">
        <ele>125.1</ele>
        <time>2026-05-31T07:20:00.000Z</time>
      </trkpt>
      <trkpt lat="43.76416" lon="4.13428">
        <ele>125.3</ele>
        <time>2026-05-31T07:20:01.000Z</time>
      </trkpt>
      <trkpt lat="43.76415" lon="4.13427">
        <ele>125.3</ele>
        <time>2026-05-31T07:20:02.000Z</time>
      </trkpt>
      <trkpt lat="43.76413" lon="4.13426">
        <ele>125.2</ele>
        <time>2026-05-31T07:20:03.000Z</time>
      </trkpt>
      <trkpt lat="43.76412" lon="4.13425">
        <ele>125.3</ele>
        <time>2026-05-31T07:20:04.000Z</time>
      </trkpt>
      <trkpt lat="43.76411" lon="4.13424">
        <ele>125.6</ele>
        <time>2026-05-31T07:20:05.000Z</time>
      </trkpt>
      <trkpt lat="43.7641" lon="4.13423">
        <ele>125.8</ele>
        <time>2026-05-31T07:20:06.000Z</time>
      </trkpt>
      <trkpt lat="43.7641" lon="4.13422">
        <ele>125.9</ele>
        <time>2026-05-31T07:20:07.000Z</time>
      </trkpt>
      <trkpt lat="43.7641" lon="4.13421">
        <ele>125.9</ele>
        <time>2026-05-31T07:20:08.000Z</time>
      </trkpt>
      <trkpt lat="43.76409" lon="4.13419">
        <ele>125.9</ele>
        <time>2026-05-31T07:20:09.000Z</time>
      </trkpt>
      <trkpt lat="43.76408" lon="4.13418">
        <ele>126</ele>
        <time>2026-05-31T07:20:10.000Z</time>
      </trkpt>
      <trkpt lat="43.76407" lon="4.13416">
        <ele>126.1</ele>
        <time>2026-05-31T07:20:11.000Z</time>
      </trkpt>
      <trkpt lat="43.76406" lon="4.13416">
        <ele>125.8</ele>
        <time>2026-05-31T07:20:12.000Z</time>
      </trkpt>
      <trkpt lat="43.76405" lon="4.13415">
        <ele>125.8</ele>
        <time>2026-05-31T07:20:13.000Z</time>
      </trkpt>
      <trkpt lat="43.76404" lon="4.13414">
        <ele>125.9</ele>
        <time>2026-05-31T07:20:14.000Z</time>
      </trkpt>
      <trkpt lat="43.76404" lon="4.13413">
        <ele>126</ele>
        <time>2026-05-31T07:20:15.000Z</time>
      </trkpt>
      <trkpt lat="43.76404" lon="4.13412">
        <ele>126.1</ele>
        <time>2026-05-31T07:20:16.000Z</time>
      </trkpt>
      <trkpt lat="43.76403" lon="4.1341">
        <ele>126.1</ele>
        <time>2026-05-31T07:20:17.000Z</time>
      </trkpt>
      <trkpt lat="43.76402" lon="4.13409">
        <ele>125.9</ele>
        <time>2026-05-31T07:20:18.000Z</time>
      </trkpt>
      <trkpt lat="43.76401" lon="4.13407">
        <ele>125.9</ele>
        <time>2026-05-31T07:20:19.000Z</time>
      </trkpt>
      <trkpt lat="43.764" lon="4.13406">
        <ele>125.9</ele>
        <time>2026-05-31T07:20:20.000Z</time>
      </trkpt>
      <trkpt lat="43.76399" lon="4.13405">
        <ele>126</ele>
        <time>2026-05-31T07:20:21.000Z</time>
      </trkpt>
      <trkpt lat="43.76398" lon="4.13404">
        <ele>126.4</ele>
        <time>2026-05-31T07:20:22.000Z</time>
      </trkpt>
      <trkpt lat="43.76397" lon="4.13403">
        <ele>126.6</ele>
        <time>2026-05-31T07:20:23.000Z</time>
      </trkpt>
      <trkpt lat="43.76395" lon="4.13402">
        <ele>126.2</ele>
        <time>2026-05-31T07:20:24.000Z</time>
      </trkpt>
      <trkpt lat="43.76394" lon="4.13401">
        <ele>125.9</ele>
        <time>2026-05-31T07:20:25.000Z</time>
      </trkpt>
      <trkpt lat="43.76393" lon="4.13399">
        <ele>125.6</ele>
        <time>2026-05-31T07:20:26.000Z</time>
      </trkpt>
      <trkpt lat="43.76392" lon="4.13398">
        <ele>125.4</ele>
        <time>2026-05-31T07:20:27.000Z</time>
      </trkpt>
      <trkpt lat="43.76391" lon="4.13398">
        <ele>125.1</ele>
        <time>2026-05-31T07:20:28.000Z</time>
      </trkpt>
      <trkpt lat="43.7639" lon="4.13397">
        <ele>124.9</ele>
        <time>2026-05-31T07:20:29.000Z</time>
      </trkpt>
      <trkpt lat="43.76389" lon="4.13396">
        <ele>125</ele>
        <time>2026-05-31T07:20:30.000Z</time>
      </trkpt>
      <trkpt lat="43.76389" lon="4.13395">
        <ele>124.8</ele>
        <time>2026-05-31T07:20:31.000Z</time>
      </trkpt>
      <trkpt lat="43.76388" lon="4.13393">
        <ele>124.5</ele>
        <time>2026-05-31T07:20:32.000Z</time>
      </trkpt>
      <trkpt lat="43.76388" lon="4.13391">
        <ele>124.2</ele>
        <time>2026-05-31T07:20:33.000Z</time>
      </trkpt>
      <trkpt lat="43.76388" lon="4.1339">
        <ele>123.7</ele>
        <time>2026-05-31T07:20:34.000Z</time>
      </trkpt>
      <trkpt lat="43.76387" lon="4.13388">
        <ele>123.8</ele>
        <time>2026-05-31T07:20:35.000Z</time>
      </trkpt>
      <trkpt lat="43.76387" lon="4.13387">
        <ele>123.7</ele>
        <time>2026-05-31T07:20:36.000Z</time>
      </trkpt>
      <trkpt lat="43.76386" lon="4.13387">
        <ele>123.7</ele>
        <time>2026-05-31T07:20:37.000Z</time>
      </trkpt>
      <trkpt lat="43.76386" lon="4.13386">
        <ele>123.6</ele>
        <time>2026-05-31T07:20:38.000Z</time>
      </trkpt>
      <trkpt lat="43.76385" lon="4.13385">
        <ele>123.4</ele>
        <time>2026-05-31T07:20:39.000Z</time>
      </trkpt>
      <trkpt lat="43.76384" lon="4.13383">
        <ele>123.3</ele>
        <time>2026-05-31T07:20:40.000Z</time>
      </trkpt>
      <trkpt lat="43.76384" lon="4.13381">
        <ele>123.3</ele>
        <time>2026-05-31T07:20:41.000Z</time>
      </trkpt>
      <trkpt lat="43.76384" lon="4.13379">
        <ele>123.2</ele>
        <time>2026-05-31T07:20:42.000Z</time>
      </trkpt>
      <trkpt lat="43.76384" lon="4.13378">
        <ele>123</ele>
        <time>2026-05-31T07:20:43.000Z</time>
      </trkpt>
      <trkpt lat="43.76384" lon="4.13376">
        <ele>123</ele>
        <time>2026-05-31T07:20:44.000Z</time>
      </trkpt>
      <trkpt lat="43.76384" lon="4.13373">
        <ele>123.1</ele>
        <time>2026-05-31T07:20:45.000Z</time>
      </trkpt>
      <trkpt lat="43.76384" lon="4.13371">
        <ele>122.8</ele>
        <time>2026-05-31T07:20:46.000Z</time>
      </trkpt>
      <trkpt lat="43.76385" lon="4.13369">
        <ele>122.9</ele>
        <time>2026-05-31T07:20:47.000Z</time>
      </trkpt>
      <trkpt lat="43.76385" lon="4.13367">
        <ele>122.7</ele>
        <time>2026-05-31T07:20:48.000Z</time>
      </trkpt>
      <trkpt lat="43.76386" lon="4.13366">
        <ele>122.7</ele>
        <time>2026-05-31T07:20:49.000Z</time>
      </trkpt>
      <trkpt lat="43.76387" lon="4.13365">
        <ele>122.6</ele>
        <time>2026-05-31T07:20:50.000Z</time>
      </trkpt>
      <trkpt lat="43.76388" lon="4.13364">
        <ele>122.8</ele>
        <time>2026-05-31T07:20:51.000Z</time>
      </trkpt>
      <trkpt lat="43.7639" lon="4.13362">
        <ele>123</ele>
        <time>2026-05-31T07:20:52.000Z</time>
      </trkpt>
      <trkpt lat="43.76391" lon="4.13362">
        <ele>123.1</ele>
        <time>2026-05-31T07:20:53.000Z</time>
      </trkpt>
      <trkpt lat="43.76392" lon="4.13361">
        <ele>122.8</ele>
        <time>2026-05-31T07:20:54.000Z</time>
      </trkpt>
      <trkpt lat="43.76393" lon="4.1336">
        <ele>122.8</ele>
        <time>2026-05-31T07:20:55.000Z</time>
      </trkpt>
      <trkpt lat="43.76394" lon="4.13359">
        <ele>122.8</ele>
        <time>2026-05-31T07:20:56.000Z</time>
      </trkpt>
      <trkpt lat="43.76395" lon="4.13358">
        <ele>122.8</ele>
        <time>2026-05-31T07:20:57.000Z</time>
      </trkpt>
      <trkpt lat="43.76395" lon="4.13357">
        <ele>122.3</ele>
        <time>2026-05-31T07:20:58.000Z</time>
      </trkpt>
      <trkpt lat="43.76395" lon="4.13355">
        <ele>122.1</ele>
        <time>2026-05-31T07:20:59.000Z</time>
      </trkpt>
      <trkpt lat="43.76395" lon="4.13353">
        <ele>122.2</ele>
        <time>2026-05-31T07:21:00.000Z</time>
      </trkpt>
      <trkpt lat="43.76396" lon="4.13352">
        <ele>122.2</ele>
        <time>2026-05-31T07:21:01.000Z</time>
      </trkpt>
      <trkpt lat="43.76397" lon="4.13351">
        <ele>121.9</ele>
        <time>2026-05-31T07:21:02.000Z</time>
      </trkpt>
      <trkpt lat="43.76397" lon="4.1335">
        <ele>121.5</ele>
        <time>2026-05-31T07:21:03.000Z</time>
      </trkpt>
      <trkpt lat="43.76398" lon="4.13349">
        <ele>121.4</ele>
        <time>2026-05-31T07:21:04.000Z</time>
      </trkpt>
      <trkpt lat="43.76398" lon="4.13348">
        <ele>121.2</ele>
        <time>2026-05-31T07:21:05.000Z</time>
      </trkpt>
      <trkpt lat="43.76398" lon="4.13347">
        <ele>121.1</ele>
        <time>2026-05-31T07:21:06.000Z</time>
      </trkpt>
      <trkpt lat="43.76399" lon="4.13347">
        <ele>121.2</ele>
        <time>2026-05-31T07:21:07.000Z</time>
      </trkpt>
      <trkpt lat="43.76399" lon="4.13345">
        <ele>121</ele>
        <time>2026-05-31T07:21:08.000Z</time>
      </trkpt>
      <trkpt lat="43.764" lon="4.13344">
        <ele>120.9</ele>
        <time>2026-05-31T07:21:09.000Z</time>
      </trkpt>
      <trkpt lat="43.76401" lon="4.13343">
        <ele>120.9</ele>
        <time>2026-05-31T07:21:10.000Z</time>
      </trkpt>
      <trkpt lat="43.76402" lon="4.13341">
        <ele>121.3</ele>
        <time>2026-05-31T07:21:11.000Z</time>
      </trkpt>
      <trkpt lat="43.76402" lon="4.13339">
        <ele>121.8</ele>
        <time>2026-05-31T07:21:12.000Z</time>
      </trkpt>
      <trkpt lat="43.76402" lon="4.13337">
        <ele>121.9</ele>
        <time>2026-05-31T07:21:13.000Z</time>
      </trkpt>
      <trkpt lat="43.76402" lon="4.13335">
        <ele>122</ele>
        <time>2026-05-31T07:21:14.000Z</time>
      </trkpt>
      <trkpt lat="43.76402" lon="4.13333">
        <ele>122.2</ele>
        <time>2026-05-31T07:21:15.000Z</time>
      </trkpt>
      <trkpt lat="43.76402" lon="4.13331">
        <ele>122.4</ele>
        <time>2026-05-31T07:21:16.000Z</time>
      </trkpt>
      <trkpt lat="43.76402" lon="4.1333">
        <ele>122.3</ele>
        <time>2026-05-31T07:21:17.000Z</time>
      </trkpt>
      <trkpt lat="43.76403" lon="4.13329">
        <ele>122.4</ele>
        <time>2026-05-31T07:21:18.000Z</time>
      </trkpt>
      <trkpt lat="43.76404" lon="4.13328">
        <ele>122.9</ele>
        <time>2026-05-31T07:21:19.000Z</time>
      </trkpt>
      <trkpt lat="43.76405" lon="4.13327">
        <ele>123.3</ele>
        <time>2026-05-31T07:21:20.000Z</time>
      </trkpt>
      <trkpt lat="43.76406" lon="4.13326">
        <ele>123.5</ele>
        <time>2026-05-31T07:21:21.000Z</time>
      </trkpt>
      <trkpt lat="43.76408" lon="4.13326">
        <ele>124</ele>
        <time>2026-05-31T07:21:22.000Z</time>
      </trkpt>
      <trkpt lat="43.76409" lon="4.13325">
        <ele>124.4</ele>
        <time>2026-05-31T07:21:23.000Z</time>
      </trkpt>
      <trkpt lat="43.7641" lon="4.13324">
        <ele>124.7</ele>
        <time>2026-05-31T07:21:24.000Z</time>
      </trkpt>
      <trkpt lat="43.76411" lon="4.13322">
        <ele>124.9</ele>
        <time>2026-05-31T07:21:25.000Z</time>
      </trkpt>
      <trkpt lat="43.76411" lon="4.1332">
        <ele>124.8</ele>
        <time>2026-05-31T07:21:26.000Z</time>
      </trkpt>
      <trkpt lat="43.76411" lon="4.13318">
        <ele>124.7</ele>
        <time>2026-05-31T07:21:27.000Z</time>
      </trkpt>
      <trkpt lat="43.76411" lon="4.13317">
        <ele>124</ele>
        <time>2026-05-31T07:21:28.000Z</time>
      </trkpt>
      <trkpt lat="43.76412" lon="4.13316">
        <ele>123.4</ele>
        <time>2026-05-31T07:21:29.000Z</time>
      </trkpt>
      <trkpt lat="43.76412" lon="4.13315">
        <ele>123</ele>
        <time>2026-05-31T07:21:30.000Z</time>
      </trkpt>
      <trkpt lat="43.76413" lon="4.13315">
        <ele>122.6</ele>
        <time>2026-05-31T07:21:31.000Z</time>
      </trkpt>
      <trkpt lat="43.76413" lon="4.13314">
        <ele>123.1</ele>
        <time>2026-05-31T07:21:32.000Z</time>
      </trkpt>
      <trkpt lat="43.76414" lon="4.13312">
        <ele>123.4</ele>
        <time>2026-05-31T07:21:33.000Z</time>
      </trkpt>
      <trkpt lat="43.76414" lon="4.13311">
        <ele>123.6</ele>
        <time>2026-05-31T07:21:34.000Z</time>
      </trkpt>
      <trkpt lat="43.76414" lon="4.13309">
        <ele>123.6</ele>
        <time>2026-05-31T07:21:35.000Z</time>
      </trkpt>
      <trkpt lat="43.76415" lon="4.13307">
        <ele>123.7</ele>
        <time>2026-05-31T07:21:36.000Z</time>
      </trkpt>
      <trkpt lat="43.76415" lon="4.13306">
        <ele>123.5</ele>
        <time>2026-05-31T07:21:37.000Z</time>
      </trkpt>
      <trkpt lat="43.76415" lon="4.13305">
        <ele>123.1</ele>
        <time>2026-05-31T07:21:38.000Z</time>
      </trkpt>
      <trkpt lat="43.76415" lon="4.13303">
        <ele>122.9</ele>
        <time>2026-05-31T07:21:39.000Z</time>
      </trkpt>
      <trkpt lat="43.76416" lon="4.13301">
        <ele>122.7</ele>
        <time>2026-05-31T07:21:40.000Z</time>
      </trkpt>
      <trkpt lat="43.76416" lon="4.13301">
        <ele>122.5</ele>
        <time>2026-05-31T07:21:41.000Z</time>
      </trkpt>
      <trkpt lat="43.76416" lon="4.13301">
        <ele>122.4</ele>
        <time>2026-05-31T07:21:42.000Z</time>
      </trkpt>
      <trkpt lat="43.76417" lon="4.13302">
        <ele>122.1</ele>
        <time>2026-05-31T07:21:43.000Z</time>
      </trkpt>
      <trkpt lat="43.76417" lon="4.13301">
        <ele>122</ele>
        <time>2026-05-31T07:21:44.000Z</time>
      </trkpt>
      <trkpt lat="43.76418" lon="4.13301">
        <ele>121.5</ele>
        <time>2026-05-31T07:21:45.000Z</time>
      </trkpt>
      <trkpt lat="43.76418" lon="4.133">
        <ele>121.2</ele>
        <time>2026-05-31T07:21:46.000Z</time>
      </trkpt>
      <trkpt lat="43.76419" lon="4.13299">
        <ele>121.1</ele>
        <time>2026-05-31T07:21:47.000Z</time>
      </trkpt>
      <trkpt lat="43.7642" lon="4.13298">
        <ele>121.5</ele>
        <time>2026-05-31T07:21:48.000Z</time>
      </trkpt>
      <trkpt lat="43.76421" lon="4.13298">
        <ele>121.5</ele>
        <time>2026-05-31T07:21:49.000Z</time>
      </trkpt>
      <trkpt lat="43.76423" lon="4.13298">
        <ele>121.2</ele>
        <time>2026-05-31T07:21:50.000Z</time>
      </trkpt>
      <trkpt lat="43.76424" lon="4.13297">
        <ele>121.2</ele>
        <time>2026-05-31T07:21:51.000Z</time>
      </trkpt>
      <trkpt lat="43.76425" lon="4.13297">
        <ele>121.5</ele>
        <time>2026-05-31T07:21:52.000Z</time>
      </trkpt>
      <trkpt lat="43.76425" lon="4.13297">
        <ele>121.5</ele>
        <time>2026-05-31T07:21:53.000Z</time>
      </trkpt>
      <trkpt lat="43.76425" lon="4.13296">
        <ele>121.7</ele>
        <time>2026-05-31T07:21:54.000Z</time>
      </trkpt>
      <trkpt lat="43.76426" lon="4.13296">
        <ele>121.6</ele>
        <time>2026-05-31T07:21:55.000Z</time>
      </trkpt>
      <trkpt lat="43.76426" lon="4.13296">
        <ele>121.9</ele>
        <time>2026-05-31T07:21:56.000Z</time>
      </trkpt>
      <trkpt lat="43.76426" lon="4.13296">
        <ele>122.3</ele>
        <time>2026-05-31T07:21:57.000Z</time>
      </trkpt>
      <trkpt lat="43.76426" lon="4.13296">
        <ele>122.5</ele>
        <time>2026-05-31T07:21:58.000Z</time>
      </trkpt>
      <trkpt lat="43.76426" lon="4.13293">
        <ele>122.4</ele>
        <time>2026-05-31T07:21:59.000Z</time>
      </trkpt>
      <trkpt lat="43.76427" lon="4.1329">
        <ele>122.6</ele>
        <time>2026-05-31T07:22:00.000Z</time>
      </trkpt>
      <trkpt lat="43.76428" lon="4.13289">
        <ele>122.6</ele>
        <time>2026-05-31T07:22:01.000Z</time>
      </trkpt>
      <trkpt lat="43.76429" lon="4.13287">
        <ele>122.6</ele>
        <time>2026-05-31T07:22:02.000Z</time>
      </trkpt>
      <trkpt lat="43.76429" lon="4.13286">
        <ele>122.7</ele>
        <time>2026-05-31T07:22:03.000Z</time>
      </trkpt>
      <trkpt lat="43.76429" lon="4.13284">
        <ele>122.8</ele>
        <time>2026-05-31T07:22:04.000Z</time>
      </trkpt>
      <trkpt lat="43.7643" lon="4.13281">
        <ele>122.9</ele>
        <time>2026-05-31T07:22:05.000Z</time>
      </trkpt>
      <trkpt lat="43.76431" lon="4.13279">
        <ele>122.6</ele>
        <time>2026-05-31T07:22:06.000Z</time>
      </trkpt>
      <trkpt lat="43.76432" lon="4.13277">
        <ele>122.6</ele>
        <time>2026-05-31T07:22:07.000Z</time>
      </trkpt>
      <trkpt lat="43.76433" lon="4.13274">
        <ele>122.6</ele>
        <time>2026-05-31T07:22:08.000Z</time>
      </trkpt>
      <trkpt lat="43.76435" lon="4.13273">
        <ele>122.6</ele>
        <time>2026-05-31T07:22:09.000Z</time>
      </trkpt>
      <trkpt lat="43.76436" lon="4.13271">
        <ele>122.5</ele>
        <time>2026-05-31T07:22:10.000Z</time>
      </trkpt>
      <trkpt lat="43.76437" lon="4.1327">
        <ele>122.2</ele>
        <time>2026-05-31T07:22:11.000Z</time>
      </trkpt>
      <trkpt lat="43.76438" lon="4.13268">
        <ele>122.1</ele>
        <time>2026-05-31T07:22:12.000Z</time>
      </trkpt>
      <trkpt lat="43.76438" lon="4.13267">
        <ele>122.4</ele>
        <time>2026-05-31T07:22:13.000Z</time>
      </trkpt>
      <trkpt lat="43.76439" lon="4.13265">
        <ele>122.3</ele>
        <time>2026-05-31T07:22:14.000Z</time>
      </trkpt>
      <trkpt lat="43.76439" lon="4.13264">
        <ele>122</ele>
        <time>2026-05-31T07:22:15.000Z</time>
      </trkpt>
      <trkpt lat="43.7644" lon="4.13263">
        <ele>122.3</ele>
        <time>2026-05-31T07:22:16.000Z</time>
      </trkpt>
      <trkpt lat="43.7644" lon="4.13262">
        <ele>122.5</ele>
        <time>2026-05-31T07:22:17.000Z</time>
      </trkpt>
      <trkpt lat="43.76441" lon="4.1326">
        <ele>122.2</ele>
        <time>2026-05-31T07:22:18.000Z</time>
      </trkpt>
      <trkpt lat="43.76441" lon="4.13258">
        <ele>121.9</ele>
        <time>2026-05-31T07:22:19.000Z</time>
      </trkpt>
      <trkpt lat="43.76441" lon="4.13256">
        <ele>121.6</ele>
        <time>2026-05-31T07:22:20.000Z</time>
      </trkpt>
      <trkpt lat="43.76441" lon="4.13255">
        <ele>121.2</ele>
        <time>2026-05-31T07:22:21.000Z</time>
      </trkpt>
      <trkpt lat="43.76441" lon="4.13253">
        <ele>120.6</ele>
        <time>2026-05-31T07:22:22.000Z</time>
      </trkpt>
      <trkpt lat="43.7644" lon="4.13251">
        <ele>119.9</ele>
        <time>2026-05-31T07:22:23.000Z</time>
      </trkpt>
      <trkpt lat="43.76439" lon="4.1325">
        <ele>119.6</ele>
        <time>2026-05-31T07:22:24.000Z</time>
      </trkpt>
      <trkpt lat="43.76439" lon="4.13248">
        <ele>119.4</ele>
        <time>2026-05-31T07:22:25.000Z</time>
      </trkpt>
      <trkpt lat="43.76438" lon="4.13246">
        <ele>119</ele>
        <time>2026-05-31T07:22:26.000Z</time>
      </trkpt>
      <trkpt lat="43.76438" lon="4.13244">
        <ele>118.9</ele>
        <time>2026-05-31T07:22:27.000Z</time>
      </trkpt>
      <trkpt lat="43.76438" lon="4.13244">
        <ele>118.3</ele>
        <time>2026-05-31T07:22:28.000Z</time>
      </trkpt>
      <trkpt lat="43.76438" lon="4.13244">
        <ele>117.8</ele>
        <time>2026-05-31T07:22:29.000Z</time>
      </trkpt>
      <trkpt lat="43.76437" lon="4.13242">
        <ele>116.8</ele>
        <time>2026-05-31T07:22:30.000Z</time>
      </trkpt>
      <trkpt lat="43.76437" lon="4.13241">
        <ele>116.5</ele>
        <time>2026-05-31T07:22:31.000Z</time>
      </trkpt>
      <trkpt lat="43.76437" lon="4.1324">
        <ele>116.3</ele>
        <time>2026-05-31T07:22:32.000Z</time>
      </trkpt>
      <trkpt lat="43.76437" lon="4.1324">
        <ele>117.7</ele>
        <time>2026-05-31T07:22:33.000Z</time>
      </trkpt>
      <trkpt lat="43.76437" lon="4.1324">
        <ele>117.8</ele>
        <time>2026-05-31T07:22:34.000Z</time>
      </trkpt>
      <trkpt lat="43.76437" lon="4.13239">
        <ele>117.9</ele>
        <time>2026-05-31T07:22:35.000Z</time>
      </trkpt>
      <trkpt lat="43.76437" lon="4.13238">
        <ele>117.9</ele>
        <time>2026-05-31T07:22:36.000Z</time>
      </trkpt>
      <trkpt lat="43.76438" lon="4.13238">
        <ele>117.7</ele>
        <time>2026-05-31T07:22:37.000Z</time>
      </trkpt>
      <trkpt lat="43.76438" lon="4.13236">
        <ele>117.6</ele>
        <time>2026-05-31T07:22:38.000Z</time>
      </trkpt>
      <trkpt lat="43.76438" lon="4.13234">
        <ele>117.9</ele>
        <time>2026-05-31T07:22:39.000Z</time>
      </trkpt>
      <trkpt lat="43.76438" lon="4.13232">
        <ele>117.9</ele>
        <time>2026-05-31T07:22:40.000Z</time>
      </trkpt>
      <trkpt lat="43.76439" lon="4.13231">
        <ele>118.1</ele>
        <time>2026-05-31T07:22:41.000Z</time>
      </trkpt>
      <trkpt lat="43.76439" lon="4.13229">
        <ele>118.2</ele>
        <time>2026-05-31T07:22:42.000Z</time>
      </trkpt>
      <trkpt lat="43.76439" lon="4.13227">
        <ele>118.1</ele>
        <time>2026-05-31T07:22:43.000Z</time>
      </trkpt>
      <trkpt lat="43.76439" lon="4.13225">
        <ele>117.9</ele>
        <time>2026-05-31T07:22:44.000Z</time>
      </trkpt>
      <trkpt lat="43.76439" lon="4.13224">
        <ele>117.7</ele>
        <time>2026-05-31T07:22:45.000Z</time>
      </trkpt>
      <trkpt lat="43.76439" lon="4.13221">
        <ele>117.3</ele>
        <time>2026-05-31T07:22:46.000Z</time>
      </trkpt>
      <trkpt lat="43.76438" lon="4.1322">
        <ele>117</ele>
        <time>2026-05-31T07:22:47.000Z</time>
      </trkpt>
      <trkpt lat="43.76438" lon="4.13218">
        <ele>116.8</ele>
        <time>2026-05-31T07:22:48.000Z</time>
      </trkpt>
      <trkpt lat="43.76438" lon="4.13216">
        <ele>116.8</ele>
        <time>2026-05-31T07:22:49.000Z</time>
      </trkpt>
      <trkpt lat="43.76438" lon="4.13215">
        <ele>116.9</ele>
        <time>2026-05-31T07:22:50.000Z</time>
      </trkpt>
      <trkpt lat="43.76437" lon="4.13215">
        <ele>117.2</ele>
        <time>2026-05-31T07:22:51.000Z</time>
      </trkpt>
      <trkpt lat="43.76437" lon="4.13214">
        <ele>117.4</ele>
        <time>2026-05-31T07:22:52.000Z</time>
      </trkpt>
      <trkpt lat="43.76438" lon="4.13213">
        <ele>117.3</ele>
        <time>2026-05-31T07:22:53.000Z</time>
      </trkpt>
      <trkpt lat="43.76437" lon="4.13212">
        <ele>116.9</ele>
        <time>2026-05-31T07:22:54.000Z</time>
      </trkpt>
      <trkpt lat="43.76437" lon="4.13212">
        <ele>117.3</ele>
        <time>2026-05-31T07:22:55.000Z</time>
      </trkpt>
      <trkpt lat="43.76437" lon="4.13211">
        <ele>117.2</ele>
        <time>2026-05-31T07:22:56.000Z</time>
      </trkpt>
      <trkpt lat="43.76437" lon="4.13209">
        <ele>117.3</ele>
        <time>2026-05-31T07:22:57.000Z</time>
      </trkpt>
      <trkpt lat="43.76436" lon="4.13206">
        <ele>117</ele>
        <time>2026-05-31T07:22:58.000Z</time>
      </trkpt>
      <trkpt lat="43.76436" lon="4.13205">
        <ele>116.6</ele>
        <time>2026-05-31T07:22:59.000Z</time>
      </trkpt>
      <trkpt lat="43.76436" lon="4.13203">
        <ele>116.3</ele>
        <time>2026-05-31T07:23:00.000Z</time>
      </trkpt>
      <trkpt lat="43.76435" lon="4.13202">
        <ele>116.6</ele>
        <time>2026-05-31T07:23:01.000Z</time>
      </trkpt>
      <trkpt lat="43.76435" lon="4.13201">
        <ele>117</ele>
        <time>2026-05-31T07:23:02.000Z</time>
      </trkpt>
      <trkpt lat="43.76434" lon="4.13199">
        <ele>117.3</ele>
        <time>2026-05-31T07:23:03.000Z</time>
      </trkpt>
      <trkpt lat="43.76433" lon="4.13198">
        <ele>117.6</ele>
        <time>2026-05-31T07:23:04.000Z</time>
      </trkpt>
      <trkpt lat="43.76432" lon="4.13196">
        <ele>117.6</ele>
        <time>2026-05-31T07:23:05.000Z</time>
      </trkpt>
      <trkpt lat="43.76431" lon="4.13195">
        <ele>117.2</ele>
        <time>2026-05-31T07:23:06.000Z</time>
      </trkpt>
      <trkpt lat="43.76431" lon="4.13193">
        <ele>117.4</ele>
        <time>2026-05-31T07:23:07.000Z</time>
      </trkpt>
      <trkpt lat="43.7643" lon="4.13191">
        <ele>117.4</ele>
        <time>2026-05-31T07:23:08.000Z</time>
      </trkpt>
      <trkpt lat="43.7643" lon="4.1319">
        <ele>117.5</ele>
        <time>2026-05-31T07:23:09.000Z</time>
      </trkpt>
      <trkpt lat="43.76429" lon="4.13189">
        <ele>117.2</ele>
        <time>2026-05-31T07:23:10.000Z</time>
      </trkpt>
      <trkpt lat="43.76429" lon="4.13187">
        <ele>116.8</ele>
        <time>2026-05-31T07:23:11.000Z</time>
      </trkpt>
      <trkpt lat="43.76428" lon="4.13186">
        <ele>116.5</ele>
        <time>2026-05-31T07:23:12.000Z</time>
      </trkpt>
      <trkpt lat="43.76428" lon="4.13184">
        <ele>116.2</ele>
        <time>2026-05-31T07:23:13.000Z</time>
      </trkpt>
      <trkpt lat="43.76427" lon="4.13183">
        <ele>116.1</ele>
        <time>2026-05-31T07:23:14.000Z</time>
      </trkpt>
      <trkpt lat="43.76427" lon="4.1318">
        <ele>115.8</ele>
        <time>2026-05-31T07:23:15.000Z</time>
      </trkpt>
      <trkpt lat="43.76426" lon="4.13178">
        <ele>115.4</ele>
        <time>2026-05-31T07:23:16.000Z</time>
      </trkpt>
      <trkpt lat="43.76425" lon="4.13177">
        <ele>115.3</ele>
        <time>2026-05-31T07:23:17.000Z</time>
      </trkpt>
      <trkpt lat="43.76425" lon="4.13176">
        <ele>115.4</ele>
        <time>2026-05-31T07:23:18.000Z</time>
      </trkpt>
      <trkpt lat="43.76425" lon="4.13175">
        <ele>115.3</ele>
        <time>2026-05-31T07:23:19.000Z</time>
      </trkpt>
      <trkpt lat="43.76424" lon="4.13173">
        <ele>115.3</ele>
        <time>2026-05-31T07:23:20.000Z</time>
      </trkpt>
      <trkpt lat="43.76424" lon="4.13172">
        <ele>115.2</ele>
        <time>2026-05-31T07:23:21.000Z</time>
      </trkpt>
      <trkpt lat="43.76424" lon="4.13171">
        <ele>115.1</ele>
        <time>2026-05-31T07:23:22.000Z</time>
      </trkpt>
      <trkpt lat="43.76424" lon="4.1317">
        <ele>115.3</ele>
        <time>2026-05-31T07:23:23.000Z</time>
      </trkpt>
      <trkpt lat="43.76424" lon="4.13169">
        <ele>115.6</ele>
        <time>2026-05-31T07:23:24.000Z</time>
      </trkpt>
      <trkpt lat="43.76424" lon="4.13168">
        <ele>115.9</ele>
        <time>2026-05-31T07:23:25.000Z</time>
      </trkpt>
      <trkpt lat="43.76424" lon="4.13167">
        <ele>116.3</ele>
        <time>2026-05-31T07:23:26.000Z</time>
      </trkpt>
      <trkpt lat="43.76425" lon="4.13165">
        <ele>116</ele>
        <time>2026-05-31T07:23:27.000Z</time>
      </trkpt>
      <trkpt lat="43.76425" lon="4.13163">
        <ele>115.8</ele>
        <time>2026-05-31T07:23:28.000Z</time>
      </trkpt>
      <trkpt lat="43.76426" lon="4.13162">
        <ele>115.6</ele>
        <time>2026-05-31T07:23:29.000Z</time>
      </trkpt>
      <trkpt lat="43.76426" lon="4.13161">
        <ele>115.3</ele>
        <time>2026-05-31T07:23:30.000Z</time>
      </trkpt>
      <trkpt lat="43.76425" lon="4.1316">
        <ele>115.2</ele>
        <time>2026-05-31T07:23:31.000Z</time>
      </trkpt>
      <trkpt lat="43.76425" lon="4.1316">
        <ele>114.7</ele>
        <time>2026-05-31T07:23:32.000Z</time>
      </trkpt>
      <trkpt lat="43.76425" lon="4.13159">
        <ele>114.2</ele>
        <time>2026-05-31T07:23:33.000Z</time>
      </trkpt>
      <trkpt lat="43.76425" lon="4.13158">
        <ele>113.8</ele>
        <time>2026-05-31T07:23:34.000Z</time>
      </trkpt>
      <trkpt lat="43.76425" lon="4.13156">
        <ele>113.9</ele>
        <time>2026-05-31T07:23:35.000Z</time>
      </trkpt>
      <trkpt lat="43.76425" lon="4.13155">
        <ele>113.9</ele>
        <time>2026-05-31T07:23:36.000Z</time>
      </trkpt>
      <trkpt lat="43.76425" lon="4.13154">
        <ele>113.7</ele>
        <time>2026-05-31T07:23:37.000Z</time>
      </trkpt>
      <trkpt lat="43.76425" lon="4.13152">
        <ele>113</ele>
        <time>2026-05-31T07:23:38.000Z</time>
      </trkpt>
      <trkpt lat="43.76425" lon="4.1315">
        <ele>112.7</ele>
        <time>2026-05-31T07:23:39.000Z</time>
      </trkpt>
      <trkpt lat="43.76426" lon="4.13148">
        <ele>112.4</ele>
        <time>2026-05-31T07:23:40.000Z</time>
      </trkpt>
      <trkpt lat="43.76426" lon="4.13146">
        <ele>112.1</ele>
        <time>2026-05-31T07:23:41.000Z</time>
      </trkpt>
      <trkpt lat="43.76427" lon="4.13144">
        <ele>111.8</ele>
        <time>2026-05-31T07:23:42.000Z</time>
      </trkpt>
      <trkpt lat="43.76427" lon="4.13143">
        <ele>111.7</ele>
        <time>2026-05-31T07:23:43.000Z</time>
      </trkpt>
      <trkpt lat="43.76427" lon="4.13142">
        <ele>111.6</ele>
        <time>2026-05-31T07:23:44.000Z</time>
      </trkpt>
      <trkpt lat="43.76427" lon="4.13141">
        <ele>111.3</ele>
        <time>2026-05-31T07:23:45.000Z</time>
      </trkpt>
      <trkpt lat="43.76428" lon="4.1314">
        <ele>111.4</ele>
        <time>2026-05-31T07:23:46.000Z</time>
      </trkpt>
      <trkpt lat="43.76428" lon="4.13139">
        <ele>111.7</ele>
        <time>2026-05-31T07:23:47.000Z</time>
      </trkpt>
      <trkpt lat="43.76429" lon="4.13138">
        <ele>112.2</ele>
        <time>2026-05-31T07:23:48.000Z</time>
      </trkpt>
      <trkpt lat="43.76429" lon="4.13137">
        <ele>112.7</ele>
        <time>2026-05-31T07:23:49.000Z</time>
      </trkpt>
      <trkpt lat="43.76429" lon="4.13136">
        <ele>112.7</ele>
        <time>2026-05-31T07:23:50.000Z</time>
      </trkpt>
      <trkpt lat="43.76428" lon="4.13135">
        <ele>112.6</ele>
        <time>2026-05-31T07:23:51.000Z</time>
      </trkpt>
      <trkpt lat="43.76428" lon="4.13135">
        <ele>112.7</ele>
        <time>2026-05-31T07:23:52.000Z</time>
      </trkpt>
      <trkpt lat="43.76428" lon="4.13133">
        <ele>112.4</ele>
        <time>2026-05-31T07:23:53.000Z</time>
      </trkpt>
      <trkpt lat="43.76428" lon="4.13132">
        <ele>112.3</ele>
        <time>2026-05-31T07:23:54.000Z</time>
      </trkpt>
      <trkpt lat="43.76428" lon="4.13131">
        <ele>112.2</ele>
        <time>2026-05-31T07:23:55.000Z</time>
      </trkpt>
      <trkpt lat="43.76428" lon="4.1313">
        <ele>112.3</ele>
        <time>2026-05-31T07:23:56.000Z</time>
      </trkpt>
      <trkpt lat="43.76428" lon="4.1313">
        <ele>112.1</ele>
        <time>2026-05-31T07:23:57.000Z</time>
      </trkpt>
      <trkpt lat="43.76428" lon="4.13128">
        <ele>112.8</ele>
        <time>2026-05-31T07:23:58.000Z</time>
      </trkpt>
      <trkpt lat="43.76427" lon="4.13126">
        <ele>113.4</ele>
        <time>2026-05-31T07:23:59.000Z</time>
      </trkpt>
      <trkpt lat="43.76427" lon="4.13125">
        <ele>113.8</ele>
        <time>2026-05-31T07:24:00.000Z</time>
      </trkpt>
      <trkpt lat="43.76427" lon="4.13124">
        <ele>114.2</ele>
        <time>2026-05-31T07:24:01.000Z</time>
      </trkpt>
      <trkpt lat="43.76427" lon="4.13122">
        <ele>113.7</ele>
        <time>2026-05-31T07:24:02.000Z</time>
      </trkpt>
      <trkpt lat="43.76427" lon="4.1312">
        <ele>113.2</ele>
        <time>2026-05-31T07:24:03.000Z</time>
      </trkpt>
      <trkpt lat="43.76427" lon="4.13117">
        <ele>113.2</ele>
        <time>2026-05-31T07:24:04.000Z</time>
      </trkpt>
      <trkpt lat="43.76427" lon="4.13115">
        <ele>113.3</ele>
        <time>2026-05-31T07:24:05.000Z</time>
      </trkpt>
      <trkpt lat="43.76427" lon="4.13114">
        <ele>113.6</ele>
        <time>2026-05-31T07:24:06.000Z</time>
      </trkpt>
      <trkpt lat="43.76426" lon="4.13112">
        <ele>113.6</ele>
        <time>2026-05-31T07:24:07.000Z</time>
      </trkpt>
      <trkpt lat="43.76426" lon="4.13111">
        <ele>114</ele>
        <time>2026-05-31T07:24:08.000Z</time>
      </trkpt>
      <trkpt lat="43.76426" lon="4.13109">
        <ele>114.2</ele>
        <time>2026-05-31T07:24:09.000Z</time>
      </trkpt>
      <trkpt lat="43.76425" lon="4.13107">
        <ele>114.3</ele>
        <time>2026-05-31T07:24:10.000Z</time>
      </trkpt>
      <trkpt lat="43.76425" lon="4.13106">
        <ele>114.5</ele>
        <time>2026-05-31T07:24:11.000Z</time>
      </trkpt>
      <trkpt lat="43.76424" lon="4.13104">
        <ele>114.7</ele>
        <time>2026-05-31T07:24:12.000Z</time>
      </trkpt>
      <trkpt lat="43.76424" lon="4.13103">
        <ele>114.8</ele>
        <time>2026-05-31T07:24:13.000Z</time>
      </trkpt>
      <trkpt lat="43.76424" lon="4.13102">
        <ele>115.3</ele>
        <time>2026-05-31T07:24:14.000Z</time>
      </trkpt>
      <trkpt lat="43.76424" lon="4.13101">
        <ele>115.6</ele>
        <time>2026-05-31T07:24:15.000Z</time>
      </trkpt>
      <trkpt lat="43.76424" lon="4.131">
        <ele>115.9</ele>
        <time>2026-05-31T07:24:16.000Z</time>
      </trkpt>
      <trkpt lat="43.76423" lon="4.13098">
        <ele>116.4</ele>
        <time>2026-05-31T07:24:17.000Z</time>
      </trkpt>
      <trkpt lat="43.76423" lon="4.13097">
        <ele>116.6</ele>
        <time>2026-05-31T07:24:18.000Z</time>
      </trkpt>
      <trkpt lat="43.76422" lon="4.13096">
        <ele>116.7</ele>
        <time>2026-05-31T07:24:19.000Z</time>
      </trkpt>
      <trkpt lat="43.76422" lon="4.13096">
        <ele>116.6</ele>
        <time>2026-05-31T07:24:20.000Z</time>
      </trkpt>
      <trkpt lat="43.76422" lon="4.13096">
        <ele>116.8</ele>
        <time>2026-05-31T07:24:21.000Z</time>
      </trkpt>
      <trkpt lat="43.76422" lon="4.13095">
        <ele>116.9</ele>
        <time>2026-05-31T07:24:22.000Z</time>
      </trkpt>
      <trkpt lat="43.76422" lon="4.13095">
        <ele>116.9</ele>
        <time>2026-05-31T07:24:23.000Z</time>
      </trkpt>
      <trkpt lat="43.76422" lon="4.13095">
        <ele>116.9</ele>
        <time>2026-05-31T07:24:24.000Z</time>
      </trkpt>
      <trkpt lat="43.76422" lon="4.13095">
        <ele>116.5</ele>
        <time>2026-05-31T07:24:25.000Z</time>
      </trkpt>
      <trkpt lat="43.76422" lon="4.13095">
        <ele>116.4</ele>
        <time>2026-05-31T07:24:26.000Z</time>
      </trkpt>
      <trkpt lat="43.76422" lon="4.13095">
        <ele>116.5</ele>
        <time>2026-05-31T07:24:27.000Z</time>
      </trkpt>
      <trkpt lat="43.76422" lon="4.13093">
        <ele>116.6</ele>
        <time>2026-05-31T07:24:28.000Z</time>
      </trkpt>
      <trkpt lat="43.76422" lon="4.13091">
        <ele>116.4</ele>
        <time>2026-05-31T07:24:29.000Z</time>
      </trkpt>
      <trkpt lat="43.76421" lon="4.1309">
        <ele>116.2</ele>
        <time>2026-05-31T07:24:30.000Z</time>
      </trkpt>
      <trkpt lat="43.76421" lon="4.1309">
        <ele>115.9</ele>
        <time>2026-05-31T07:24:31.000Z</time>
      </trkpt>
      <trkpt lat="43.76421" lon="4.13089">
        <ele>115.5</ele>
        <time>2026-05-31T07:24:32.000Z</time>
      </trkpt>
      <trkpt lat="43.76421" lon="4.13089">
        <ele>115.2</ele>
        <time>2026-05-31T07:24:33.000Z</time>
      </trkpt>
      <trkpt lat="43.76421" lon="4.13089">
        <ele>114.8</ele>
        <time>2026-05-31T07:24:34.000Z</time>
      </trkpt>
      <trkpt lat="43.76421" lon="4.13089">
        <ele>114.4</ele>
        <time>2026-05-31T07:24:35.000Z</time>
      </trkpt>
      <trkpt lat="43.76421" lon="4.13087">
        <ele>114.1</ele>
        <time>2026-05-31T07:24:36.000Z</time>
      </trkpt>
      <trkpt lat="43.76421" lon="4.13085">
        <ele>113.8</ele>
        <time>2026-05-31T07:24:37.000Z</time>
      </trkpt>
      <trkpt lat="43.76421" lon="4.13082">
        <ele>113.8</ele>
        <time>2026-05-31T07:24:38.000Z</time>
      </trkpt>
      <trkpt lat="43.76421" lon="4.13081">
        <ele>113.9</ele>
        <time>2026-05-31T07:24:39.000Z</time>
      </trkpt>
      <trkpt lat="43.76421" lon="4.1308">
        <ele>113.6</ele>
        <time>2026-05-31T07:24:40.000Z</time>
      </trkpt>
      <trkpt lat="43.76422" lon="4.13077">
        <ele>113.6</ele>
        <time>2026-05-31T07:24:41.000Z</time>
      </trkpt>
      <trkpt lat="43.76421" lon="4.13075">
        <ele>113.6</ele>
        <time>2026-05-31T07:24:42.000Z</time>
      </trkpt>
      <trkpt lat="43.76421" lon="4.13073">
        <ele>113.5</ele>
        <time>2026-05-31T07:24:43.000Z</time>
      </trkpt>
      <trkpt lat="43.7642" lon="4.13071">
        <ele>113.6</ele>
        <time>2026-05-31T07:24:44.000Z</time>
      </trkpt>
      <trkpt lat="43.76419" lon="4.13068">
        <ele>113.6</ele>
        <time>2026-05-31T07:24:45.000Z</time>
      </trkpt>
      <trkpt lat="43.76419" lon="4.13067">
        <ele>113.9</ele>
        <time>2026-05-31T07:24:46.000Z</time>
      </trkpt>
      <trkpt lat="43.76419" lon="4.13065">
        <ele>114</ele>
        <time>2026-05-31T07:24:47.000Z</time>
      </trkpt>
      <trkpt lat="43.76419" lon="4.13063">
        <ele>114.1</ele>
        <time>2026-05-31T07:24:48.000Z</time>
      </trkpt>
      <trkpt lat="43.76419" lon="4.13062">
        <ele>114.1</ele>
        <time>2026-05-31T07:24:49.000Z</time>
      </trkpt>
      <trkpt lat="43.76419" lon="4.1306">
        <ele>113.9</ele>
        <time>2026-05-31T07:24:50.000Z</time>
      </trkpt>
      <trkpt lat="43.76419" lon="4.13059">
        <ele>114.4</ele>
        <time>2026-05-31T07:24:51.000Z</time>
      </trkpt>
      <trkpt lat="43.76418" lon="4.13057">
        <ele>114.6</ele>
        <time>2026-05-31T07:24:52.000Z</time>
      </trkpt>
      <trkpt lat="43.76418" lon="4.13055">
        <ele>114.9</ele>
        <time>2026-05-31T07:24:53.000Z</time>
      </trkpt>
      <trkpt lat="43.76417" lon="4.13053">
        <ele>115.2</ele>
        <time>2026-05-31T07:24:54.000Z</time>
      </trkpt>
      <trkpt lat="43.76417" lon="4.13052">
        <ele>115.6</ele>
        <time>2026-05-31T07:24:55.000Z</time>
      </trkpt>
      <trkpt lat="43.76416" lon="4.13051">
        <ele>115.8</ele>
        <time>2026-05-31T07:24:56.000Z</time>
      </trkpt>
      <trkpt lat="43.76415" lon="4.1305">
        <ele>115.8</ele>
        <time>2026-05-31T07:24:57.000Z</time>
      </trkpt>
      <trkpt lat="43.76415" lon="4.13048">
        <ele>115.6</ele>
        <time>2026-05-31T07:24:58.000Z</time>
      </trkpt>
      <trkpt lat="43.76414" lon="4.13046">
        <ele>116</ele>
        <time>2026-05-31T07:24:59.000Z</time>
      </trkpt>
      <trkpt lat="43.76414" lon="4.13044">
        <ele>116.3</ele>
        <time>2026-05-31T07:25:00.000Z</time>
      </trkpt>
      <trkpt lat="43.76414" lon="4.13043">
        <ele>116.5</ele>
        <time>2026-05-31T07:25:01.000Z</time>
      </trkpt>
      <trkpt lat="43.76414" lon="4.13041">
        <ele>116.4</ele>
        <time>2026-05-31T07:25:02.000Z</time>
      </trkpt>
      <trkpt lat="43.76414" lon="4.1304">
        <ele>116.3</ele>
        <time>2026-05-31T07:25:03.000Z</time>
      </trkpt>
      <trkpt lat="43.76415" lon="4.13038">
        <ele>116.3</ele>
        <time>2026-05-31T07:25:04.000Z</time>
      </trkpt>
      <trkpt lat="43.76416" lon="4.13037">
        <ele>116.5</ele>
        <time>2026-05-31T07:25:05.000Z</time>
      </trkpt>
      <trkpt lat="43.76416" lon="4.13035">
        <ele>115.9</ele>
        <time>2026-05-31T07:25:06.000Z</time>
      </trkpt>
      <trkpt lat="43.76416" lon="4.13034">
        <ele>115.4</ele>
        <time>2026-05-31T07:25:07.000Z</time>
      </trkpt>
      <trkpt lat="43.76416" lon="4.13032">
        <ele>115</ele>
        <time>2026-05-31T07:25:08.000Z</time>
      </trkpt>
      <trkpt lat="43.76415" lon="4.13031">
        <ele>115.1</ele>
        <time>2026-05-31T07:25:09.000Z</time>
      </trkpt>
      <trkpt lat="43.76414" lon="4.1303">
        <ele>114.9</ele>
        <time>2026-05-31T07:25:10.000Z</time>
      </trkpt>
      <trkpt lat="43.76413" lon="4.13028">
        <ele>114.8</ele>
        <time>2026-05-31T07:25:11.000Z</time>
      </trkpt>
      <trkpt lat="43.76413" lon="4.13026">
        <ele>114.5</ele>
        <time>2026-05-31T07:25:12.000Z</time>
      </trkpt>
      <trkpt lat="43.76412" lon="4.13025">
        <ele>115.1</ele>
        <time>2026-05-31T07:25:13.000Z</time>
      </trkpt>
      <trkpt lat="43.76412" lon="4.13024">
        <ele>115.3</ele>
        <time>2026-05-31T07:25:14.000Z</time>
      </trkpt>
      <trkpt lat="43.76411" lon="4.13024">
        <ele>116</ele>
        <time>2026-05-31T07:25:15.000Z</time>
      </trkpt>
      <trkpt lat="43.76411" lon="4.13023">
        <ele>116.7</ele>
        <time>2026-05-31T07:25:16.000Z</time>
      </trkpt>
      <trkpt lat="43.76411" lon="4.13023">
        <ele>116.3</ele>
        <time>2026-05-31T07:25:17.000Z</time>
      </trkpt>
      <trkpt lat="43.76411" lon="4.13023">
        <ele>116</ele>
        <time>2026-05-31T07:25:18.000Z</time>
      </trkpt>
      <trkpt lat="43.76411" lon="4.13023">
        <ele>115.8</ele>
        <time>2026-05-31T07:25:19.000Z</time>
      </trkpt>
      <trkpt lat="43.76411" lon="4.13023">
        <ele>115.8</ele>
        <time>2026-05-31T07:25:20.000Z</time>
      </trkpt>
      <trkpt lat="43.76411" lon="4.13022">
        <ele>115.7</ele>
        <time>2026-05-31T07:25:21.000Z</time>
      </trkpt>
      <trkpt lat="43.76411" lon="4.13022">
        <ele>115.5</ele>
        <time>2026-05-31T07:25:22.000Z</time>
      </trkpt>
      <trkpt lat="43.76411" lon="4.13022">
        <ele>115.1</ele>
        <time>2026-05-31T07:25:23.000Z</time>
      </trkpt>
      <trkpt lat="43.76412" lon="4.1302">
        <ele>114.9</ele>
        <time>2026-05-31T07:25:24.000Z</time>
      </trkpt>
      <trkpt lat="43.76412" lon="4.13018">
        <ele>114.6</ele>
        <time>2026-05-31T07:25:25.000Z</time>
      </trkpt>
      <trkpt lat="43.76412" lon="4.13016">
        <ele>114.3</ele>
        <time>2026-05-31T07:25:26.000Z</time>
      </trkpt>
      <trkpt lat="43.76411" lon="4.13014">
        <ele>114</ele>
        <time>2026-05-31T07:25:27.000Z</time>
      </trkpt>
      <trkpt lat="43.7641" lon="4.13012">
        <ele>113.7</ele>
        <time>2026-05-31T07:25:28.000Z</time>
      </trkpt>
      <trkpt lat="43.76409" lon="4.1301">
        <ele>113.4</ele>
        <time>2026-05-31T07:25:29.000Z</time>
      </trkpt>
      <trkpt lat="43.76409" lon="4.13009">
        <ele>113.2</ele>
        <time>2026-05-31T07:25:30.000Z</time>
      </trkpt>
      <trkpt lat="43.76408" lon="4.13008">
        <ele>112.7</ele>
        <time>2026-05-31T07:25:31.000Z</time>
      </trkpt>
      <trkpt lat="43.76407" lon="4.13007">
        <ele>112.4</ele>
        <time>2026-05-31T07:25:32.000Z</time>
      </trkpt>
      <trkpt lat="43.76407" lon="4.13006">
        <ele>112.1</ele>
        <time>2026-05-31T07:25:33.000Z</time>
      </trkpt>
      <trkpt lat="43.76406" lon="4.13006">
        <ele>111.8</ele>
        <time>2026-05-31T07:25:34.000Z</time>
      </trkpt>
      <trkpt lat="43.76405" lon="4.13005">
        <ele>111.6</ele>
        <time>2026-05-31T07:25:35.000Z</time>
      </trkpt>
      <trkpt lat="43.76404" lon="4.13005">
        <ele>111.6</ele>
        <time>2026-05-31T07:25:36.000Z</time>
      </trkpt>
      <trkpt lat="43.76404" lon="4.13005">
        <ele>111.6</ele>
        <time>2026-05-31T07:25:37.000Z</time>
      </trkpt>
      <trkpt lat="43.76404" lon="4.13004">
        <ele>111.5</ele>
        <time>2026-05-31T07:25:38.000Z</time>
      </trkpt>
      <trkpt lat="43.76404" lon="4.13004">
        <ele>111.6</ele>
        <time>2026-05-31T07:25:39.000Z</time>
      </trkpt>
      <trkpt lat="43.76403" lon="4.13003">
        <ele>111.4</ele>
        <time>2026-05-31T07:25:40.000Z</time>
      </trkpt>
      <trkpt lat="43.76403" lon="4.13001">
        <ele>111.2</ele>
        <time>2026-05-31T07:25:41.000Z</time>
      </trkpt>
      <trkpt lat="43.76402" lon="4.13">
        <ele>110.9</ele>
        <time>2026-05-31T07:25:42.000Z</time>
      </trkpt>
      <trkpt lat="43.76402" lon="4.12999">
        <ele>110.6</ele>
        <time>2026-05-31T07:25:43.000Z</time>
      </trkpt>
      <trkpt lat="43.76402" lon="4.12999">
        <ele>110.2</ele>
        <time>2026-05-31T07:25:44.000Z</time>
      </trkpt>
      <trkpt lat="43.76402" lon="4.12999">
        <ele>110.1</ele>
        <time>2026-05-31T07:25:45.000Z</time>
      </trkpt>
      <trkpt lat="43.76402" lon="4.12998">
        <ele>110.1</ele>
        <time>2026-05-31T07:25:46.000Z</time>
      </trkpt>
      <trkpt lat="43.76402" lon="4.12998">
        <ele>109.9</ele>
        <time>2026-05-31T07:25:47.000Z</time>
      </trkpt>
      <trkpt lat="43.76402" lon="4.12997">
        <ele>109.6</ele>
        <time>2026-05-31T07:25:48.000Z</time>
      </trkpt>
      <trkpt lat="43.76402" lon="4.12997">
        <ele>109.4</ele>
        <time>2026-05-31T07:25:49.000Z</time>
      </trkpt>
      <trkpt lat="43.76402" lon="4.12997">
        <ele>109.3</ele>
        <time>2026-05-31T07:25:50.000Z</time>
      </trkpt>
      <trkpt lat="43.76402" lon="4.12996">
        <ele>109.2</ele>
        <time>2026-05-31T07:25:51.000Z</time>
      </trkpt>
      <trkpt lat="43.76402" lon="4.12996">
        <ele>109.3</ele>
        <time>2026-05-31T07:25:52.000Z</time>
      </trkpt>
      <trkpt lat="43.76402" lon="4.12996">
        <ele>109.3</ele>
        <time>2026-05-31T07:25:53.000Z</time>
      </trkpt>
      <trkpt lat="43.76402" lon="4.12996">
        <ele>109.5</ele>
        <time>2026-05-31T07:25:54.000Z</time>
      </trkpt>
      <trkpt lat="43.76402" lon="4.12995">
        <ele>109.9</ele>
        <time>2026-05-31T07:25:55.000Z</time>
      </trkpt>
      <trkpt lat="43.76402" lon="4.12995">
        <ele>109.6</ele>
        <time>2026-05-31T07:25:56.000Z</time>
      </trkpt>
      <trkpt lat="43.76402" lon="4.12995">
        <ele>109.3</ele>
        <time>2026-05-31T07:25:57.000Z</time>
      </trkpt>
      <trkpt lat="43.76402" lon="4.12995">
        <ele>109</ele>
        <time>2026-05-31T07:25:58.000Z</time>
      </trkpt>
      <trkpt lat="43.76402" lon="4.12994">
        <ele>108.5</ele>
        <time>2026-05-31T07:25:59.000Z</time>
      </trkpt>
      <trkpt lat="43.76402" lon="4.12994">
        <ele>108</ele>
        <time>2026-05-31T07:26:00.000Z</time>
      </trkpt>
      <trkpt lat="43.76402" lon="4.12994">
        <ele>107.8</ele>
        <time>2026-05-31T07:26:01.000Z</time>
      </trkpt>
      <trkpt lat="43.76402" lon="4.12994">
        <ele>107.7</ele>
        <time>2026-05-31T07:26:02.000Z</time>
      </trkpt>
      <trkpt lat="43.76402" lon="4.12994">
        <ele>107.4</ele>
        <time>2026-05-31T07:26:03.000Z</time>
      </trkpt>
      <trkpt lat="43.76401" lon="4.12992">
        <ele>106.8</ele>
        <time>2026-05-31T07:26:04.000Z</time>
      </trkpt>
      <trkpt lat="43.764" lon="4.1299">
        <ele>106.3</ele>
        <time>2026-05-31T07:26:05.000Z</time>
      </trkpt>
      <trkpt lat="43.764" lon="4.12987">
        <ele>106.1</ele>
        <time>2026-05-31T07:26:06.000Z</time>
      </trkpt>
      <trkpt lat="43.764" lon="4.12986">
        <ele>105.9</ele>
        <time>2026-05-31T07:26:07.000Z</time>
      </trkpt>
      <trkpt lat="43.764" lon="4.12986">
        <ele>105.9</ele>
        <time>2026-05-31T07:26:08.000Z</time>
      </trkpt>
      <trkpt lat="43.764" lon="4.12986">
        <ele>105.7</ele>
        <time>2026-05-31T07:26:09.000Z</time>
      </trkpt>
      <trkpt lat="43.76399" lon="4.12984">
        <ele>105.5</ele>
        <time>2026-05-31T07:26:10.000Z</time>
      </trkpt>
      <trkpt lat="43.76398" lon="4.12978">
        <ele>105.7</ele>
        <time>2026-05-31T07:26:11.000Z</time>
      </trkpt>
      <trkpt lat="43.76398" lon="4.12974">
        <ele>105.9</ele>
        <time>2026-05-31T07:26:12.000Z</time>
      </trkpt>
      <trkpt lat="43.76398" lon="4.12973">
        <ele>106</ele>
        <time>2026-05-31T07:26:13.000Z</time>
      </trkpt>
      <trkpt lat="43.76398" lon="4.12973">
        <ele>106.1</ele>
        <time>2026-05-31T07:26:14.000Z</time>
      </trkpt>
      <trkpt lat="43.76398" lon="4.1297">
        <ele>106.1</ele>
        <time>2026-05-31T07:26:15.000Z</time>
      </trkpt>
      <trkpt lat="43.76397" lon="4.12967">
        <ele>106</ele>
        <time>2026-05-31T07:26:16.000Z</time>
      </trkpt>
      <trkpt lat="43.76397" lon="4.12965">
        <ele>106.2</ele>
        <time>2026-05-31T07:26:17.000Z</time>
      </trkpt>
      <trkpt lat="43.76397" lon="4.12963">
        <ele>106.3</ele>
        <time>2026-05-31T07:26:18.000Z</time>
      </trkpt>
      <trkpt lat="43.76396" lon="4.12962">
        <ele>106.2</ele>
        <time>2026-05-31T07:26:19.000Z</time>
      </trkpt>
      <trkpt lat="43.76396" lon="4.1296">
        <ele>106.2</ele>
        <time>2026-05-31T07:26:20.000Z</time>
      </trkpt>
      <trkpt lat="43.76396" lon="4.12959">
        <ele>106.2</ele>
        <time>2026-05-31T07:26:21.000Z</time>
      </trkpt>
      <trkpt lat="43.76396" lon="4.12958">
        <ele>106.4</ele>
        <time>2026-05-31T07:26:22.000Z</time>
      </trkpt>
      <trkpt lat="43.76395" lon="4.12957">
        <ele>106.6</ele>
        <time>2026-05-31T07:26:23.000Z</time>
      </trkpt>
      <trkpt lat="43.76395" lon="4.12957">
        <ele>106.8</ele>
        <time>2026-05-31T07:26:24.000Z</time>
      </trkpt>
      <trkpt lat="43.76395" lon="4.12957">
        <ele>106.9</ele>
        <time>2026-05-31T07:26:25.000Z</time>
      </trkpt>
      <trkpt lat="43.76395" lon="4.12956">
        <ele>106.8</ele>
        <time>2026-05-31T07:26:26.000Z</time>
      </trkpt>
      <trkpt lat="43.76395" lon="4.12956">
        <ele>107.4</ele>
        <time>2026-05-31T07:26:27.000Z</time>
      </trkpt>
      <trkpt lat="43.76395" lon="4.12955">
        <ele>107.6</ele>
        <time>2026-05-31T07:26:28.000Z</time>
      </trkpt>
      <trkpt lat="43.76395" lon="4.12954">
        <ele>107.8</ele>
        <time>2026-05-31T07:26:30.000Z</time>
      </trkpt>
      <trkpt lat="43.76396" lon="4.12953">
        <ele>107.6</ele>
        <time>2026-05-31T07:26:31.000Z</time>
      </trkpt>
      <trkpt lat="43.76396" lon="4.12953">
        <ele>107</ele>
        <time>2026-05-31T07:26:32.000Z</time>
      </trkpt>
      <trkpt lat="43.76396" lon="4.12953">
        <ele>106.8</ele>
        <time>2026-05-31T07:26:33.000Z</time>
      </trkpt>
      <trkpt lat="43.76396" lon="4.12952">
        <ele>106.7</ele>
        <time>2026-05-31T07:26:34.000Z</time>
      </trkpt>
      <trkpt lat="43.76396" lon="4.12952">
        <ele>106.2</ele>
        <time>2026-05-31T07:26:35.000Z</time>
      </trkpt>
      <trkpt lat="43.76396" lon="4.12952">
        <ele>106.2</ele>
        <time>2026-05-31T07:26:36.000Z</time>
      </trkpt>
      <trkpt lat="43.76396" lon="4.12951">
        <ele>106.4</ele>
        <time>2026-05-31T07:26:37.000Z</time>
      </trkpt>
      <trkpt lat="43.76396" lon="4.12951">
        <ele>106.4</ele>
        <time>2026-05-31T07:26:38.000Z</time>
      </trkpt>
      <trkpt lat="43.76396" lon="4.1295">
        <ele>106.6</ele>
        <time>2026-05-31T07:26:39.000Z</time>
      </trkpt>
      <trkpt lat="43.76396" lon="4.12949">
        <ele>106.6</ele>
        <time>2026-05-31T07:26:40.000Z</time>
      </trkpt>
      <trkpt lat="43.76396" lon="4.12948">
        <ele>106.9</ele>
        <time>2026-05-31T07:26:41.000Z</time>
      </trkpt>
      <trkpt lat="43.76396" lon="4.12947">
        <ele>106.9</ele>
        <time>2026-05-31T07:26:42.000Z</time>
      </trkpt>
      <trkpt lat="43.76395" lon="4.12942">
        <ele>106.9</ele>
        <time>2026-05-31T07:26:43.000Z</time>
      </trkpt>
      <trkpt lat="43.76395" lon="4.12937">
        <ele>107.1</ele>
        <time>2026-05-31T07:26:44.000Z</time>
      </trkpt>
      <trkpt lat="43.76394" lon="4.12933">
        <ele>107</ele>
        <time>2026-05-31T07:26:45.000Z</time>
      </trkpt>
      <trkpt lat="43.76395" lon="4.12931">
        <ele>106.8</ele>
        <time>2026-05-31T07:26:46.000Z</time>
      </trkpt>
      <trkpt lat="43.76395" lon="4.12929">
        <ele>106.6</ele>
        <time>2026-05-31T07:26:47.000Z</time>
      </trkpt>
      <trkpt lat="43.76395" lon="4.12928">
        <ele>106.4</ele>
        <time>2026-05-31T07:26:48.000Z</time>
      </trkpt>
      <trkpt lat="43.76395" lon="4.12925">
        <ele>106.1</ele>
        <time>2026-05-31T07:26:49.000Z</time>
      </trkpt>
      <trkpt lat="43.76395" lon="4.12924">
        <ele>106.2</ele>
        <time>2026-05-31T07:26:50.000Z</time>
      </trkpt>
      <trkpt lat="43.76395" lon="4.12922">
        <ele>105.9</ele>
        <time>2026-05-31T07:26:51.000Z</time>
      </trkpt>
      <trkpt lat="43.76395" lon="4.1292">
        <ele>105.7</ele>
        <time>2026-05-31T07:26:52.000Z</time>
      </trkpt>
      <trkpt lat="43.76394" lon="4.12918">
        <ele>105.4</ele>
        <time>2026-05-31T07:26:53.000Z</time>
      </trkpt>
      <trkpt lat="43.76394" lon="4.12916">
        <ele>105.3</ele>
        <time>2026-05-31T07:26:54.000Z</time>
      </trkpt>
      <trkpt lat="43.76393" lon="4.12914">
        <ele>105.1</ele>
        <time>2026-05-31T07:26:55.000Z</time>
      </trkpt>
      <trkpt lat="43.76393" lon="4.12913">
        <ele>105</ele>
        <time>2026-05-31T07:26:56.000Z</time>
      </trkpt>
      <trkpt lat="43.76393" lon="4.12911">
        <ele>105.1</ele>
        <time>2026-05-31T07:26:57.000Z</time>
      </trkpt>
      <trkpt lat="43.76393" lon="4.12909">
        <ele>105.2</ele>
        <time>2026-05-31T07:26:58.000Z</time>
      </trkpt>
      <trkpt lat="43.76393" lon="4.12907">
        <ele>104.9</ele>
        <time>2026-05-31T07:26:59.000Z</time>
      </trkpt>
      <trkpt lat="43.76393" lon="4.12906">
        <ele>104.5</ele>
        <time>2026-05-31T07:27:00.000Z</time>
      </trkpt>
      <trkpt lat="43.76393" lon="4.12905">
        <ele>104.5</ele>
        <time>2026-05-31T07:27:01.000Z</time>
      </trkpt>
      <trkpt lat="43.76394" lon="4.12902">
        <ele>104.7</ele>
        <time>2026-05-31T07:27:02.000Z</time>
      </trkpt>
      <trkpt lat="43.76395" lon="4.129">
        <ele>106.1</ele>
        <time>2026-05-31T07:27:03.000Z</time>
      </trkpt>
      <trkpt lat="43.76395" lon="4.12898">
        <ele>107</ele>
        <time>2026-05-31T07:27:04.000Z</time>
      </trkpt>
      <trkpt lat="43.76396" lon="4.12897">
        <ele>107</ele>
        <time>2026-05-31T07:27:05.000Z</time>
      </trkpt>
      <trkpt lat="43.76397" lon="4.12896">
        <ele>107.3</ele>
        <time>2026-05-31T07:27:06.000Z</time>
      </trkpt>
      <trkpt lat="43.76397" lon="4.12895">
        <ele>107.4</ele>
        <time>2026-05-31T07:27:07.000Z</time>
      </trkpt>
      <trkpt lat="43.76397" lon="4.12894">
        <ele>107</ele>
        <time>2026-05-31T07:27:08.000Z</time>
      </trkpt>
      <trkpt lat="43.76398" lon="4.12892">
        <ele>107</ele>
        <time>2026-05-31T07:27:09.000Z</time>
      </trkpt>
      <trkpt lat="43.76399" lon="4.1289">
        <ele>107</ele>
        <time>2026-05-31T07:27:10.000Z</time>
      </trkpt>
      <trkpt lat="43.76399" lon="4.12889">
        <ele>107.2</ele>
        <time>2026-05-31T07:27:11.000Z</time>
      </trkpt>
      <trkpt lat="43.764" lon="4.12887">
        <ele>107.3</ele>
        <time>2026-05-31T07:27:12.000Z</time>
      </trkpt>
      <trkpt lat="43.76401" lon="4.12885">
        <ele>107.4</ele>
        <time>2026-05-31T07:27:13.000Z</time>
      </trkpt>
      <trkpt lat="43.76401" lon="4.12884">
        <ele>107.2</ele>
        <time>2026-05-31T07:27:14.000Z</time>
      </trkpt>
      <trkpt lat="43.76401" lon="4.12883">
        <ele>107.2</ele>
        <time>2026-05-31T07:27:15.000Z</time>
      </trkpt>
      <trkpt lat="43.76402" lon="4.12881">
        <ele>107.1</ele>
        <time>2026-05-31T07:27:16.000Z</time>
      </trkpt>
      <trkpt lat="43.76402" lon="4.12879">
        <ele>106.9</ele>
        <time>2026-05-31T07:27:17.000Z</time>
      </trkpt>
      <trkpt lat="43.76402" lon="4.12878">
        <ele>106.7</ele>
        <time>2026-05-31T07:27:18.000Z</time>
      </trkpt>
      <trkpt lat="43.76402" lon="4.12876">
        <ele>106.9</ele>
        <time>2026-05-31T07:27:19.000Z</time>
      </trkpt>
      <trkpt lat="43.76402" lon="4.12875">
        <ele>107.3</ele>
        <time>2026-05-31T07:27:20.000Z</time>
      </trkpt>
      <trkpt lat="43.76402" lon="4.12874">
        <ele>107.4</ele>
        <time>2026-05-31T07:27:21.000Z</time>
      </trkpt>
      <trkpt lat="43.76402" lon="4.12873">
        <ele>107.4</ele>
        <time>2026-05-31T07:27:22.000Z</time>
      </trkpt>
      <trkpt lat="43.76402" lon="4.12872">
        <ele>107</ele>
        <time>2026-05-31T07:27:23.000Z</time>
      </trkpt>
      <trkpt lat="43.76401" lon="4.12871">
        <ele>106.6</ele>
        <time>2026-05-31T07:27:24.000Z</time>
      </trkpt>
      <trkpt lat="43.76401" lon="4.1287">
        <ele>106</ele>
        <time>2026-05-31T07:27:25.000Z</time>
      </trkpt>
      <trkpt lat="43.76401" lon="4.12868">
        <ele>105.6</ele>
        <time>2026-05-31T07:27:26.000Z</time>
      </trkpt>
      <trkpt lat="43.76401" lon="4.12867">
        <ele>105</ele>
        <time>2026-05-31T07:27:27.000Z</time>
      </trkpt>
      <trkpt lat="43.764" lon="4.12866">
        <ele>104.8</ele>
        <time>2026-05-31T07:27:28.000Z</time>
      </trkpt>
      <trkpt lat="43.764" lon="4.12864">
        <ele>104.9</ele>
        <time>2026-05-31T07:27:29.000Z</time>
      </trkpt>
      <trkpt lat="43.764" lon="4.12862">
        <ele>105.2</ele>
        <time>2026-05-31T07:27:30.000Z</time>
      </trkpt>
      <trkpt lat="43.764" lon="4.12861">
        <ele>105.5</ele>
        <time>2026-05-31T07:27:31.000Z</time>
      </trkpt>
      <trkpt lat="43.764" lon="4.12859">
        <ele>105.5</ele>
        <time>2026-05-31T07:27:32.000Z</time>
      </trkpt>
      <trkpt lat="43.764" lon="4.12858">
        <ele>105.2</ele>
        <time>2026-05-31T07:27:33.000Z</time>
      </trkpt>
      <trkpt lat="43.76399" lon="4.12858">
        <ele>105.3</ele>
        <time>2026-05-31T07:27:34.000Z</time>
      </trkpt>
      <trkpt lat="43.76399" lon="4.12856">
        <ele>105.8</ele>
        <time>2026-05-31T07:27:35.000Z</time>
      </trkpt>
      <trkpt lat="43.76399" lon="4.12855">
        <ele>106.4</ele>
        <time>2026-05-31T07:27:36.000Z</time>
      </trkpt>
      <trkpt lat="43.76399" lon="4.12854">
        <ele>106.5</ele>
        <time>2026-05-31T07:27:37.000Z</time>
      </trkpt>
      <trkpt lat="43.76398" lon="4.12852">
        <ele>106.8</ele>
        <time>2026-05-31T07:27:38.000Z</time>
      </trkpt>
      <trkpt lat="43.76398" lon="4.12851">
        <ele>107.1</ele>
        <time>2026-05-31T07:27:39.000Z</time>
      </trkpt>
      <trkpt lat="43.76398" lon="4.12849">
        <ele>107.2</ele>
        <time>2026-05-31T07:27:40.000Z</time>
      </trkpt>
      <trkpt lat="43.76398" lon="4.12847">
        <ele>107.6</ele>
        <time>2026-05-31T07:27:41.000Z</time>
      </trkpt>
      <trkpt lat="43.76397" lon="4.12846">
        <ele>107.9</ele>
        <time>2026-05-31T07:27:42.000Z</time>
      </trkpt>
      <trkpt lat="43.76397" lon="4.12845">
        <ele>107.7</ele>
        <time>2026-05-31T07:27:43.000Z</time>
      </trkpt>
      <trkpt lat="43.76398" lon="4.12844">
        <ele>107.4</ele>
        <time>2026-05-31T07:27:44.000Z</time>
      </trkpt>
      <trkpt lat="43.76398" lon="4.12843">
        <ele>107.5</ele>
        <time>2026-05-31T07:27:45.000Z</time>
      </trkpt>
      <trkpt lat="43.76398" lon="4.12843">
        <ele>107.1</ele>
        <time>2026-05-31T07:27:46.000Z</time>
      </trkpt>
      <trkpt lat="43.76398" lon="4.12842">
        <ele>106.8</ele>
        <time>2026-05-31T07:27:47.000Z</time>
      </trkpt>
      <trkpt lat="43.76398" lon="4.12842">
        <ele>106.6</ele>
        <time>2026-05-31T07:27:48.000Z</time>
      </trkpt>
      <trkpt lat="43.76398" lon="4.12841">
        <ele>106.7</ele>
        <time>2026-05-31T07:27:49.000Z</time>
      </trkpt>
      <trkpt lat="43.76398" lon="4.12841">
        <ele>106.7</ele>
        <time>2026-05-31T07:27:50.000Z</time>
      </trkpt>
      <trkpt lat="43.76398" lon="4.1284">
        <ele>106.8</ele>
        <time>2026-05-31T07:27:51.000Z</time>
      </trkpt>
      <trkpt lat="43.76397" lon="4.12838">
        <ele>106.9</ele>
        <time>2026-05-31T07:27:52.000Z</time>
      </trkpt>
      <trkpt lat="43.76397" lon="4.12836">
        <ele>106.8</ele>
        <time>2026-05-31T07:27:53.000Z</time>
      </trkpt>
      <trkpt lat="43.76396" lon="4.12834">
        <ele>106.6</ele>
        <time>2026-05-31T07:27:54.000Z</time>
      </trkpt>
      <trkpt lat="43.76395" lon="4.12832">
        <ele>106.6</ele>
        <time>2026-05-31T07:27:55.000Z</time>
      </trkpt>
      <trkpt lat="43.76395" lon="4.1283">
        <ele>106.6</ele>
        <time>2026-05-31T07:27:56.000Z</time>
      </trkpt>
      <trkpt lat="43.76395" lon="4.12828">
        <ele>106.5</ele>
        <time>2026-05-31T07:27:57.000Z</time>
      </trkpt>
      <trkpt lat="43.76396" lon="4.12825">
        <ele>106.5</ele>
        <time>2026-05-31T07:27:58.000Z</time>
      </trkpt>
      <trkpt lat="43.76396" lon="4.12823">
        <ele>106.4</ele>
        <time>2026-05-31T07:27:59.000Z</time>
      </trkpt>
      <trkpt lat="43.76395" lon="4.12822">
        <ele>106.3</ele>
        <time>2026-05-31T07:28:00.000Z</time>
      </trkpt>
      <trkpt lat="43.76395" lon="4.12821">
        <ele>106.2</ele>
        <time>2026-05-31T07:28:01.000Z</time>
      </trkpt>
      <trkpt lat="43.76394" lon="4.1282">
        <ele>106.1</ele>
        <time>2026-05-31T07:28:02.000Z</time>
      </trkpt>
      <trkpt lat="43.76394" lon="4.12818">
        <ele>106.2</ele>
        <time>2026-05-31T07:28:03.000Z</time>
      </trkpt>
      <trkpt lat="43.76393" lon="4.12816">
        <ele>106.3</ele>
        <time>2026-05-31T07:28:04.000Z</time>
      </trkpt>
      <trkpt lat="43.76393" lon="4.12814">
        <ele>106.3</ele>
        <time>2026-05-31T07:28:05.000Z</time>
      </trkpt>
      <trkpt lat="43.76393" lon="4.12813">
        <ele>106.4</ele>
        <time>2026-05-31T07:28:06.000Z</time>
      </trkpt>
      <trkpt lat="43.76393" lon="4.12812">
        <ele>106.7</ele>
        <time>2026-05-31T07:28:07.000Z</time>
      </trkpt>
      <trkpt lat="43.76393" lon="4.12811">
        <ele>106.7</ele>
        <time>2026-05-31T07:28:08.000Z</time>
      </trkpt>
      <trkpt lat="43.76393" lon="4.12811">
        <ele>106.8</ele>
        <time>2026-05-31T07:28:09.000Z</time>
      </trkpt>
      <trkpt lat="43.76393" lon="4.12809">
        <ele>106.4</ele>
        <time>2026-05-31T07:28:10.000Z</time>
      </trkpt>
      <trkpt lat="43.76394" lon="4.12806">
        <ele>106.4</ele>
        <time>2026-05-31T07:28:11.000Z</time>
      </trkpt>
      <trkpt lat="43.76394" lon="4.12805">
        <ele>106.4</ele>
        <time>2026-05-31T07:28:12.000Z</time>
      </trkpt>
      <trkpt lat="43.76394" lon="4.12804">
        <ele>105.9</ele>
        <time>2026-05-31T07:28:13.000Z</time>
      </trkpt>
      <trkpt lat="43.76394" lon="4.12802">
        <ele>105.4</ele>
        <time>2026-05-31T07:28:14.000Z</time>
      </trkpt>
      <trkpt lat="43.76393" lon="4.12801">
        <ele>104.8</ele>
        <time>2026-05-31T07:28:15.000Z</time>
      </trkpt>
      <trkpt lat="43.76393" lon="4.128">
        <ele>104.4</ele>
        <time>2026-05-31T07:28:16.000Z</time>
      </trkpt>
      <trkpt lat="43.76392" lon="4.12798">
        <ele>104</ele>
        <time>2026-05-31T07:28:17.000Z</time>
      </trkpt>
      <trkpt lat="43.76392" lon="4.12797">
        <ele>103.4</ele>
        <time>2026-05-31T07:28:18.000Z</time>
      </trkpt>
      <trkpt lat="43.76392" lon="4.12796">
        <ele>102.7</ele>
        <time>2026-05-31T07:28:19.000Z</time>
      </trkpt>
      <trkpt lat="43.76392" lon="4.12796">
        <ele>103</ele>
        <time>2026-05-31T07:28:20.000Z</time>
      </trkpt>
      <trkpt lat="43.76392" lon="4.12796">
        <ele>102.9</ele>
        <time>2026-05-31T07:28:21.000Z</time>
      </trkpt>
      <trkpt lat="43.76392" lon="4.12796">
        <ele>102.7</ele>
        <time>2026-05-31T07:28:22.000Z</time>
      </trkpt>
      <trkpt lat="43.76392" lon="4.12795">
        <ele>102.3</ele>
        <time>2026-05-31T07:28:23.000Z</time>
      </trkpt>
      <trkpt lat="43.76391" lon="4.12794">
        <ele>102.1</ele>
        <time>2026-05-31T07:28:24.000Z</time>
      </trkpt>
      <trkpt lat="43.76391" lon="4.12793">
        <ele>102</ele>
        <time>2026-05-31T07:28:25.000Z</time>
      </trkpt>
      <trkpt lat="43.7639" lon="4.12791">
        <ele>102</ele>
        <time>2026-05-31T07:28:26.000Z</time>
      </trkpt>
      <trkpt lat="43.76389" lon="4.12788">
        <ele>102.1</ele>
        <time>2026-05-31T07:28:27.000Z</time>
      </trkpt>
      <trkpt lat="43.76389" lon="4.12786">
        <ele>102.2</ele>
        <time>2026-05-31T07:28:28.000Z</time>
      </trkpt>
      <trkpt lat="43.76388" lon="4.12784">
        <ele>102.5</ele>
        <time>2026-05-31T07:28:29.000Z</time>
      </trkpt>
      <trkpt lat="43.76389" lon="4.12782">
        <ele>102.6</ele>
        <time>2026-05-31T07:28:30.000Z</time>
      </trkpt>
      <trkpt lat="43.76389" lon="4.1278">
        <ele>102.5</ele>
        <time>2026-05-31T07:28:31.000Z</time>
      </trkpt>
      <trkpt lat="43.76388" lon="4.12777">
        <ele>102.5</ele>
        <time>2026-05-31T07:28:32.000Z</time>
      </trkpt>
      <trkpt lat="43.76388" lon="4.12775">
        <ele>102.8</ele>
        <time>2026-05-31T07:28:33.000Z</time>
      </trkpt>
      <trkpt lat="43.76387" lon="4.12774">
        <ele>103</ele>
        <time>2026-05-31T07:28:34.000Z</time>
      </trkpt>
      <trkpt lat="43.76387" lon="4.12773">
        <ele>103.3</ele>
        <time>2026-05-31T07:28:35.000Z</time>
      </trkpt>
      <trkpt lat="43.76387" lon="4.12772">
        <ele>103.3</ele>
        <time>2026-05-31T07:28:36.000Z</time>
      </trkpt>
      <trkpt lat="43.76386" lon="4.12769">
        <ele>103.1</ele>
        <time>2026-05-31T07:28:37.000Z</time>
      </trkpt>
      <trkpt lat="43.76386" lon="4.12767">
        <ele>103</ele>
        <time>2026-05-31T07:28:38.000Z</time>
      </trkpt>
      <trkpt lat="43.76386" lon="4.12766">
        <ele>102.6</ele>
        <time>2026-05-31T07:28:39.000Z</time>
      </trkpt>
      <trkpt lat="43.76386" lon="4.12765">
        <ele>102.2</ele>
        <time>2026-05-31T07:28:40.000Z</time>
      </trkpt>
      <trkpt lat="43.76386" lon="4.12763">
        <ele>101.8</ele>
        <time>2026-05-31T07:28:41.000Z</time>
      </trkpt>
      <trkpt lat="43.76386" lon="4.12762">
        <ele>101.4</ele>
        <time>2026-05-31T07:28:42.000Z</time>
      </trkpt>
      <trkpt lat="43.76386" lon="4.1276">
        <ele>101.6</ele>
        <time>2026-05-31T07:28:43.000Z</time>
      </trkpt>
      <trkpt lat="43.76385" lon="4.12758">
        <ele>101.6</ele>
        <time>2026-05-31T07:28:44.000Z</time>
      </trkpt>
      <trkpt lat="43.76385" lon="4.12757">
        <ele>101.5</ele>
        <time>2026-05-31T07:28:45.000Z</time>
      </trkpt>
      <trkpt lat="43.76385" lon="4.12756">
        <ele>101.4</ele>
        <time>2026-05-31T07:28:46.000Z</time>
      </trkpt>
      <trkpt lat="43.76385" lon="4.12754">
        <ele>102</ele>
        <time>2026-05-31T07:28:47.000Z</time>
      </trkpt>
      <trkpt lat="43.76384" lon="4.12753">
        <ele>101.9</ele>
        <time>2026-05-31T07:28:48.000Z</time>
      </trkpt>
      <trkpt lat="43.76384" lon="4.12751">
        <ele>102.1</ele>
        <time>2026-05-31T07:28:49.000Z</time>
      </trkpt>
      <trkpt lat="43.76383" lon="4.1275">
        <ele>102</ele>
        <time>2026-05-31T07:28:50.000Z</time>
      </trkpt>
      <trkpt lat="43.76382" lon="4.12748">
        <ele>102.1</ele>
        <time>2026-05-31T07:28:51.000Z</time>
      </trkpt>
      <trkpt lat="43.76382" lon="4.12746">
        <ele>102.4</ele>
        <time>2026-05-31T07:28:52.000Z</time>
      </trkpt>
      <trkpt lat="43.76381" lon="4.12745">
        <ele>102.5</ele>
        <time>2026-05-31T07:28:53.000Z</time>
      </trkpt>
      <trkpt lat="43.76381" lon="4.12743">
        <ele>102.5</ele>
        <time>2026-05-31T07:28:54.000Z</time>
      </trkpt>
      <trkpt lat="43.7638" lon="4.12742">
        <ele>102.6</ele>
        <time>2026-05-31T07:28:55.000Z</time>
      </trkpt>
      <trkpt lat="43.7638" lon="4.1274">
        <ele>102.7</ele>
        <time>2026-05-31T07:28:56.000Z</time>
      </trkpt>
      <trkpt lat="43.76379" lon="4.12737">
        <ele>102.5</ele>
        <time>2026-05-31T07:28:57.000Z</time>
      </trkpt>
      <trkpt lat="43.76379" lon="4.12736">
        <ele>102.5</ele>
        <time>2026-05-31T07:28:58.000Z</time>
      </trkpt>
      <trkpt lat="43.76379" lon="4.12734">
        <ele>102.7</ele>
        <time>2026-05-31T07:28:59.000Z</time>
      </trkpt>
      <trkpt lat="43.76379" lon="4.12733">
        <ele>103.2</ele>
        <time>2026-05-31T07:29:00.000Z</time>
      </trkpt>
      <trkpt lat="43.76379" lon="4.12732">
        <ele>103.5</ele>
        <time>2026-05-31T07:29:01.000Z</time>
      </trkpt>
      <trkpt lat="43.76379" lon="4.12731">
        <ele>103.8</ele>
        <time>2026-05-31T07:29:02.000Z</time>
      </trkpt>
      <trkpt lat="43.76379" lon="4.1273">
        <ele>104.2</ele>
        <time>2026-05-31T07:29:03.000Z</time>
      </trkpt>
      <trkpt lat="43.76378" lon="4.12729">
        <ele>104.8</ele>
        <time>2026-05-31T07:29:04.000Z</time>
      </trkpt>
      <trkpt lat="43.76378" lon="4.12728">
        <ele>104.9</ele>
        <time>2026-05-31T07:29:05.000Z</time>
      </trkpt>
      <trkpt lat="43.76377" lon="4.12727">
        <ele>105.1</ele>
        <time>2026-05-31T07:29:06.000Z</time>
      </trkpt>
      <trkpt lat="43.76377" lon="4.12725">
        <ele>105.1</ele>
        <time>2026-05-31T07:29:07.000Z</time>
      </trkpt>
      <trkpt lat="43.76376" lon="4.12724">
        <ele>105.1</ele>
        <time>2026-05-31T07:29:08.000Z</time>
      </trkpt>
      <trkpt lat="43.76376" lon="4.12723">
        <ele>105</ele>
        <time>2026-05-31T07:29:09.000Z</time>
      </trkpt>
      <trkpt lat="43.76376" lon="4.12722">
        <ele>104.9</ele>
        <time>2026-05-31T07:29:10.000Z</time>
      </trkpt>
      <trkpt lat="43.76375" lon="4.12721">
        <ele>105</ele>
        <time>2026-05-31T07:29:11.000Z</time>
      </trkpt>
      <trkpt lat="43.76375" lon="4.12719">
        <ele>105</ele>
        <time>2026-05-31T07:29:12.000Z</time>
      </trkpt>
      <trkpt lat="43.76375" lon="4.12719">
        <ele>105.2</ele>
        <time>2026-05-31T07:29:13.000Z</time>
      </trkpt>
      <trkpt lat="43.76374" lon="4.12719">
        <ele>105.2</ele>
        <time>2026-05-31T07:29:14.000Z</time>
      </trkpt>
      <trkpt lat="43.76373" lon="4.12718">
        <ele>105.4</ele>
        <time>2026-05-31T07:29:15.000Z</time>
      </trkpt>
      <trkpt lat="43.76372" lon="4.12719">
        <ele>105.4</ele>
        <time>2026-05-31T07:29:16.000Z</time>
      </trkpt>
      <trkpt lat="43.76371" lon="4.12719">
        <ele>105.6</ele>
        <time>2026-05-31T07:29:17.000Z</time>
      </trkpt>
      <trkpt lat="43.76371" lon="4.12721">
        <ele>105.6</ele>
        <time>2026-05-31T07:29:18.000Z</time>
      </trkpt>
      <trkpt lat="43.7637" lon="4.12721">
        <ele>105.9</ele>
        <time>2026-05-31T07:29:19.000Z</time>
      </trkpt>
      <trkpt lat="43.7637" lon="4.12721">
        <ele>106.4</ele>
        <time>2026-05-31T07:29:20.000Z</time>
      </trkpt>
      <trkpt lat="43.7637" lon="4.12722">
        <ele>106.7</ele>
        <time>2026-05-31T07:29:21.000Z</time>
      </trkpt>
      <trkpt lat="43.7637" lon="4.12722">
        <ele>107.1</ele>
        <time>2026-05-31T07:29:22.000Z</time>
      </trkpt>
      <trkpt lat="43.7637" lon="4.12722">
        <ele>107</ele>
        <time>2026-05-31T07:29:23.000Z</time>
      </trkpt>
      <trkpt lat="43.7637" lon="4.12722">
        <ele>107.2</ele>
        <time>2026-05-31T07:29:24.000Z</time>
      </trkpt>
      <trkpt lat="43.7637" lon="4.12722">
        <ele>107.2</ele>
        <time>2026-05-31T07:29:25.000Z</time>
      </trkpt>
      <trkpt lat="43.7637" lon="4.12722">
        <ele>107.3</ele>
        <time>2026-05-31T07:29:26.000Z</time>
      </trkpt>
      <trkpt lat="43.76369" lon="4.12722">
        <ele>107.5</ele>
        <time>2026-05-31T07:29:27.000Z</time>
      </trkpt>
      <trkpt lat="43.76369" lon="4.12724">
        <ele>107.9</ele>
        <time>2026-05-31T07:29:28.000Z</time>
      </trkpt>
      <trkpt lat="43.76369" lon="4.12726">
        <ele>108.3</ele>
        <time>2026-05-31T07:29:29.000Z</time>
      </trkpt>
      <trkpt lat="43.76369" lon="4.12728">
        <ele>108.9</ele>
        <time>2026-05-31T07:29:30.000Z</time>
      </trkpt>
      <trkpt lat="43.76369" lon="4.12729">
        <ele>109.4</ele>
        <time>2026-05-31T07:29:31.000Z</time>
      </trkpt>
      <trkpt lat="43.76369" lon="4.12731">
        <ele>109.9</ele>
        <time>2026-05-31T07:29:32.000Z</time>
      </trkpt>
      <trkpt lat="43.7637" lon="4.12732">
        <ele>109.9</ele>
        <time>2026-05-31T07:29:33.000Z</time>
      </trkpt>
      <trkpt lat="43.76371" lon="4.12734">
        <ele>109.9</ele>
        <time>2026-05-31T07:29:34.000Z</time>
      </trkpt>
      <trkpt lat="43.76372" lon="4.12736">
        <ele>110.3</ele>
        <time>2026-05-31T07:29:35.000Z</time>
      </trkpt>
      <trkpt lat="43.76372" lon="4.12738">
        <ele>110.6</ele>
        <time>2026-05-31T07:29:36.000Z</time>
      </trkpt>
      <trkpt lat="43.76372" lon="4.12739">
        <ele>110.5</ele>
        <time>2026-05-31T07:29:37.000Z</time>
      </trkpt>
      <trkpt lat="43.76373" lon="4.1274">
        <ele>111</ele>
        <time>2026-05-31T07:29:38.000Z</time>
      </trkpt>
      <trkpt lat="43.76373" lon="4.12741">
        <ele>111.1</ele>
        <time>2026-05-31T07:29:39.000Z</time>
      </trkpt>
      <trkpt lat="43.76372" lon="4.12742">
        <ele>111.1</ele>
        <time>2026-05-31T07:29:40.000Z</time>
      </trkpt>
      <trkpt lat="43.76372" lon="4.12742">
        <ele>111</ele>
        <time>2026-05-31T07:29:41.000Z</time>
      </trkpt>
      <trkpt lat="43.76371" lon="4.12742">
        <ele>110.9</ele>
        <time>2026-05-31T07:29:42.000Z</time>
      </trkpt>
      <trkpt lat="43.7637" lon="4.12743">
        <ele>110.9</ele>
        <time>2026-05-31T07:29:43.000Z</time>
      </trkpt>
      <trkpt lat="43.76369" lon="4.12744">
        <ele>111</ele>
        <time>2026-05-31T07:29:44.000Z</time>
      </trkpt>
      <trkpt lat="43.76368" lon="4.12745">
        <ele>110.9</ele>
        <time>2026-05-31T07:29:45.000Z</time>
      </trkpt>
      <trkpt lat="43.76368" lon="4.12746">
        <ele>111</ele>
        <time>2026-05-31T07:29:46.000Z</time>
      </trkpt>
      <trkpt lat="43.76367" lon="4.12747">
        <ele>111</ele>
        <time>2026-05-31T07:29:47.000Z</time>
      </trkpt>
      <trkpt lat="43.76366" lon="4.12748">
        <ele>111.1</ele>
        <time>2026-05-31T07:29:48.000Z</time>
      </trkpt>
      <trkpt lat="43.76365" lon="4.12749">
        <ele>111.1</ele>
        <time>2026-05-31T07:29:49.000Z</time>
      </trkpt>
      <trkpt lat="43.76365" lon="4.1275">
        <ele>111.2</ele>
        <time>2026-05-31T07:29:50.000Z</time>
      </trkpt>
      <trkpt lat="43.76365" lon="4.12751">
        <ele>111.3</ele>
        <time>2026-05-31T07:29:51.000Z</time>
      </trkpt>
      <trkpt lat="43.76364" lon="4.12752">
        <ele>111.3</ele>
        <time>2026-05-31T07:29:52.000Z</time>
      </trkpt>
      <trkpt lat="43.76364" lon="4.12752">
        <ele>111.5</ele>
        <time>2026-05-31T07:29:53.000Z</time>
      </trkpt>
      <trkpt lat="43.76364" lon="4.12753">
        <ele>111.4</ele>
        <time>2026-05-31T07:29:54.000Z</time>
      </trkpt>
      <trkpt lat="43.76364" lon="4.12754">
        <ele>111.3</ele>
        <time>2026-05-31T07:29:55.000Z</time>
      </trkpt>
      <trkpt lat="43.76363" lon="4.12754">
        <ele>111.3</ele>
        <time>2026-05-31T07:29:56.000Z</time>
      </trkpt>
      <trkpt lat="43.76363" lon="4.12755">
        <ele>111.1</ele>
        <time>2026-05-31T07:29:57.000Z</time>
      </trkpt>
      <trkpt lat="43.76362" lon="4.12755">
        <ele>111.4</ele>
        <time>2026-05-31T07:29:58.000Z</time>
      </trkpt>
      <trkpt lat="43.76363" lon="4.12756">
        <ele>111.7</ele>
        <time>2026-05-31T07:29:59.000Z</time>
      </trkpt>
      <trkpt lat="43.76363" lon="4.12756">
        <ele>111.9</ele>
        <time>2026-05-31T07:30:00.000Z</time>
      </trkpt>
      <trkpt lat="43.76363" lon="4.12757">
        <ele>111.9</ele>
        <time>2026-05-31T07:30:01.000Z</time>
      </trkpt>
      <trkpt lat="43.76363" lon="4.12757">
        <ele>112.3</ele>
        <time>2026-05-31T07:30:02.000Z</time>
      </trkpt>
      <trkpt lat="43.76362" lon="4.12757">
        <ele>112.4</ele>
        <time>2026-05-31T07:30:03.000Z</time>
      </trkpt>
      <trkpt lat="43.76363" lon="4.12758">
        <ele>112.9</ele>
        <time>2026-05-31T07:30:04.000Z</time>
      </trkpt>
      <trkpt lat="43.76362" lon="4.12759">
        <ele>113.3</ele>
        <time>2026-05-31T07:30:05.000Z</time>
      </trkpt>
      <trkpt lat="43.76362" lon="4.1276">
        <ele>113.7</ele>
        <time>2026-05-31T07:30:06.000Z</time>
      </trkpt>
      <trkpt lat="43.76362" lon="4.12761">
        <ele>114.1</ele>
        <time>2026-05-31T07:30:07.000Z</time>
      </trkpt>
      <trkpt lat="43.76361" lon="4.12762">
        <ele>114.1</ele>
        <time>2026-05-31T07:30:08.000Z</time>
      </trkpt>
      <trkpt lat="43.76361" lon="4.12764">
        <ele>114.2</ele>
        <time>2026-05-31T07:30:09.000Z</time>
      </trkpt>
      <trkpt lat="43.76361" lon="4.12765">
        <ele>114.3</ele>
        <time>2026-05-31T07:30:10.000Z</time>
      </trkpt>
      <trkpt lat="43.7636" lon="4.12765">
        <ele>114.2</ele>
        <time>2026-05-31T07:30:11.000Z</time>
      </trkpt>
      <trkpt lat="43.76359" lon="4.12766">
        <ele>113.9</ele>
        <time>2026-05-31T07:30:12.000Z</time>
      </trkpt>
      <trkpt lat="43.76358" lon="4.12767">
        <ele>113.5</ele>
        <time>2026-05-31T07:30:13.000Z</time>
      </trkpt>
      <trkpt lat="43.76358" lon="4.12768">
        <ele>113.3</ele>
        <time>2026-05-31T07:30:14.000Z</time>
      </trkpt>
      <trkpt lat="43.76358" lon="4.12769">
        <ele>113.5</ele>
        <time>2026-05-31T07:30:15.000Z</time>
      </trkpt>
      <trkpt lat="43.76357" lon="4.12769">
        <ele>113.8</ele>
        <time>2026-05-31T07:30:16.000Z</time>
      </trkpt>
      <trkpt lat="43.76356" lon="4.12771">
        <ele>113.9</ele>
        <time>2026-05-31T07:30:17.000Z</time>
      </trkpt>
      <trkpt lat="43.76355" lon="4.12773">
        <ele>113.9</ele>
        <time>2026-05-31T07:30:18.000Z</time>
      </trkpt>
      <trkpt lat="43.76355" lon="4.12775">
        <ele>114.1</ele>
        <time>2026-05-31T07:30:19.000Z</time>
      </trkpt>
      <trkpt lat="43.76355" lon="4.12776">
        <ele>114.5</ele>
        <time>2026-05-31T07:30:20.000Z</time>
      </trkpt>
      <trkpt lat="43.76355" lon="4.12777">
        <ele>114.9</ele>
        <time>2026-05-31T07:30:21.000Z</time>
      </trkpt>
      <trkpt lat="43.76355" lon="4.12777">
        <ele>114.6</ele>
        <time>2026-05-31T07:30:22.000Z</time>
      </trkpt>
      <trkpt lat="43.76355" lon="4.12777">
        <ele>114.7</ele>
        <time>2026-05-31T07:30:23.000Z</time>
      </trkpt>
      <trkpt lat="43.76355" lon="4.12777">
        <ele>114.9</ele>
        <time>2026-05-31T07:30:24.000Z</time>
      </trkpt>
      <trkpt lat="43.76355" lon="4.12777">
        <ele>115.2</ele>
        <time>2026-05-31T07:30:25.000Z</time>
      </trkpt>
      <trkpt lat="43.76355" lon="4.12777">
        <ele>115.5</ele>
        <time>2026-05-31T07:30:26.000Z</time>
      </trkpt>
      <trkpt lat="43.76355" lon="4.12777">
        <ele>115.6</ele>
        <time>2026-05-31T07:30:27.000Z</time>
      </trkpt>
      <trkpt lat="43.76355" lon="4.12778">
        <ele>115.9</ele>
        <time>2026-05-31T07:30:28.000Z</time>
      </trkpt>
      <trkpt lat="43.76354" lon="4.12778">
        <ele>116.2</ele>
        <time>2026-05-31T07:30:29.000Z</time>
      </trkpt>
      <trkpt lat="43.76354" lon="4.12778">
        <ele>116.2</ele>
        <time>2026-05-31T07:30:30.000Z</time>
      </trkpt>
      <trkpt lat="43.76354" lon="4.12779">
        <ele>116.2</ele>
        <time>2026-05-31T07:30:31.000Z</time>
      </trkpt>
      <trkpt lat="43.76355" lon="4.1278">
        <ele>116.3</ele>
        <time>2026-05-31T07:30:32.000Z</time>
      </trkpt>
      <trkpt lat="43.76356" lon="4.12783">
        <ele>116.4</ele>
        <time>2026-05-31T07:30:33.999Z</time>
      </trkpt>
      <trkpt lat="43.76356" lon="4.12785">
        <ele>116.5</ele>
        <time>2026-05-31T07:30:34.999Z</time>
      </trkpt>
      <trkpt lat="43.76355" lon="4.12786">
        <ele>116.5</ele>
        <time>2026-05-31T07:30:35.999Z</time>
      </trkpt>
      <trkpt lat="43.76355" lon="4.12788">
        <ele>116.4</ele>
        <time>2026-05-31T07:30:36.999Z</time>
      </trkpt>
      <trkpt lat="43.76354" lon="4.12791">
        <ele>115.7</ele>
        <time>2026-05-31T07:30:37.999Z</time>
      </trkpt>
      <trkpt lat="43.76353" lon="4.12794">
        <ele>115.1</ele>
        <time>2026-05-31T07:30:38.999Z</time>
      </trkpt>
      <trkpt lat="43.76353" lon="4.12794">
        <ele>115.1</ele>
        <time>2026-05-31T07:30:39.999Z</time>
      </trkpt>
      <trkpt lat="43.76352" lon="4.12797">
        <ele>114.8</ele>
        <time>2026-05-31T07:30:40.999Z</time>
      </trkpt>
      <trkpt lat="43.76351" lon="4.12798">
        <ele>114.6</ele>
        <time>2026-05-31T07:30:41.999Z</time>
      </trkpt>
      <trkpt lat="43.76351" lon="4.128">
        <ele>114.3</ele>
        <time>2026-05-31T07:30:42.999Z</time>
      </trkpt>
      <trkpt lat="43.76351" lon="4.128">
        <ele>114.3</ele>
        <time>2026-05-31T07:30:43.999Z</time>
      </trkpt>
      <trkpt lat="43.76351" lon="4.12801">
        <ele>114.5</ele>
        <time>2026-05-31T07:30:44.999Z</time>
      </trkpt>
      <trkpt lat="43.76351" lon="4.12801">
        <ele>114.6</ele>
        <time>2026-05-31T07:30:45.999Z</time>
      </trkpt>
      <trkpt lat="43.76351" lon="4.12801">
        <ele>114.8</ele>
        <time>2026-05-31T07:30:46.999Z</time>
      </trkpt>
      <trkpt lat="43.7635" lon="4.12803">
        <ele>115.2</ele>
        <time>2026-05-31T07:30:47.999Z</time>
      </trkpt>
      <trkpt lat="43.76349" lon="4.12804">
        <ele>115.4</ele>
        <time>2026-05-31T07:30:48.999Z</time>
      </trkpt>
      <trkpt lat="43.76349" lon="4.12805">
        <ele>115.5</ele>
        <time>2026-05-31T07:30:49.999Z</time>
      </trkpt>
      <trkpt lat="43.76348" lon="4.12806">
        <ele>115.5</ele>
        <time>2026-05-31T07:30:50.999Z</time>
      </trkpt>
      <trkpt lat="43.76348" lon="4.12806">
        <ele>115.4</ele>
        <time>2026-05-31T07:30:51.999Z</time>
      </trkpt>
      <trkpt lat="43.76348" lon="4.12806">
        <ele>115.2</ele>
        <time>2026-05-31T07:30:52.999Z</time>
      </trkpt>
      <trkpt lat="43.76348" lon="4.12806">
        <ele>115.2</ele>
        <time>2026-05-31T07:30:53.999Z</time>
      </trkpt>
      <trkpt lat="43.76348" lon="4.12807">
        <ele>115.2</ele>
        <time>2026-05-31T07:30:54.999Z</time>
      </trkpt>
      <trkpt lat="43.76348" lon="4.12807">
        <ele>115.5</ele>
        <time>2026-05-31T07:30:55.999Z</time>
      </trkpt>
      <trkpt lat="43.76348" lon="4.12807">
        <ele>115.9</ele>
        <time>2026-05-31T07:30:56.999Z</time>
      </trkpt>
      <trkpt lat="43.76348" lon="4.12807">
        <ele>116.2</ele>
        <time>2026-05-31T07:30:57.999Z</time>
      </trkpt>
      <trkpt lat="43.76348" lon="4.12807">
        <ele>116.4</ele>
        <time>2026-05-31T07:30:58.999Z</time>
      </trkpt>
      <trkpt lat="43.76348" lon="4.12807">
        <ele>116.3</ele>
        <time>2026-05-31T07:30:59.999Z</time>
      </trkpt>
      <trkpt lat="43.76348" lon="4.12808">
        <ele>116.6</ele>
        <time>2026-05-31T07:31:00.999Z</time>
      </trkpt>
      <trkpt lat="43.76347" lon="4.12808">
        <ele>116.7</ele>
        <time>2026-05-31T07:31:01.999Z</time>
      </trkpt>
      <trkpt lat="43.76347" lon="4.12808">
        <ele>116.7</ele>
        <time>2026-05-31T07:31:02.999Z</time>
      </trkpt>
      <trkpt lat="43.76347" lon="4.12809">
        <ele>116.8</ele>
        <time>2026-05-31T07:31:03.999Z</time>
      </trkpt>
      <trkpt lat="43.76347" lon="4.12809">
        <ele>117</ele>
        <time>2026-05-31T07:31:04.999Z</time>
      </trkpt>
      <trkpt lat="43.76347" lon="4.12809">
        <ele>117.2</ele>
        <time>2026-05-31T07:31:05.999Z</time>
      </trkpt>
      <trkpt lat="43.76347" lon="4.1281">
        <ele>117.3</ele>
        <time>2026-05-31T07:31:06.999Z</time>
      </trkpt>
      <trkpt lat="43.76347" lon="4.1281">
        <ele>117.4</ele>
        <time>2026-05-31T07:31:07.999Z</time>
      </trkpt>
      <trkpt lat="43.76347" lon="4.1281">
        <ele>117.5</ele>
        <time>2026-05-31T07:31:08.999Z</time>
      </trkpt>
      <trkpt lat="43.76346" lon="4.12811">
        <ele>117.8</ele>
        <time>2026-05-31T07:31:09.999Z</time>
      </trkpt>
      <trkpt lat="43.76346" lon="4.12811">
        <ele>118</ele>
        <time>2026-05-31T07:31:10.999Z</time>
      </trkpt>
      <trkpt lat="43.76346" lon="4.12812">
        <ele>118.2</ele>
        <time>2026-05-31T07:31:11.999Z</time>
      </trkpt>
      <trkpt lat="43.76346" lon="4.12813">
        <ele>118.1</ele>
        <time>2026-05-31T07:31:12.999Z</time>
      </trkpt>
      <trkpt lat="43.76346" lon="4.12813">
        <ele>118.1</ele>
        <time>2026-05-31T07:31:13.999Z</time>
      </trkpt>
      <trkpt lat="43.76345" lon="4.12814">
        <ele>118</ele>
        <time>2026-05-31T07:31:14.999Z</time>
      </trkpt>
      <trkpt lat="43.76343" lon="4.12817">
        <ele>118.1</ele>
        <time>2026-05-31T07:31:15.999Z</time>
      </trkpt>
      <trkpt lat="43.76341" lon="4.1282">
        <ele>117.8</ele>
        <time>2026-05-31T07:31:16.999Z</time>
      </trkpt>
      <trkpt lat="43.7634" lon="4.12822">
        <ele>118</ele>
        <time>2026-05-31T07:31:17.999Z</time>
      </trkpt>
      <trkpt lat="43.76339" lon="4.12823">
        <ele>118.1</ele>
        <time>2026-05-31T07:31:18.999Z</time>
      </trkpt>
      <trkpt lat="43.76339" lon="4.12823">
        <ele>118.4</ele>
        <time>2026-05-31T07:31:19.999Z</time>
      </trkpt>
      <trkpt lat="43.76339" lon="4.12824">
        <ele>118.6</ele>
        <time>2026-05-31T07:31:20.999Z</time>
      </trkpt>
      <trkpt lat="43.76338" lon="4.12826">
        <ele>118.7</ele>
        <time>2026-05-31T07:31:21.999Z</time>
      </trkpt>
      <trkpt lat="43.76337" lon="4.12829">
        <ele>118.9</ele>
        <time>2026-05-31T07:31:22.999Z</time>
      </trkpt>
      <trkpt lat="43.76337" lon="4.12831">
        <ele>119.1</ele>
        <time>2026-05-31T07:31:23.999Z</time>
      </trkpt>
      <trkpt lat="43.76336" lon="4.12836">
        <ele>119</ele>
        <time>2026-05-31T07:31:24.999Z</time>
      </trkpt>
      <trkpt lat="43.76335" lon="4.1284">
        <ele>119.2</ele>
        <time>2026-05-31T07:31:25.999Z</time>
      </trkpt>
      <trkpt lat="43.76335" lon="4.12843">
        <ele>119.2</ele>
        <time>2026-05-31T07:31:26.999Z</time>
      </trkpt>
      <trkpt lat="43.76334" lon="4.12845">
        <ele>119.4</ele>
        <time>2026-05-31T07:31:27.999Z</time>
      </trkpt>
      <trkpt lat="43.76334" lon="4.12847">
        <ele>119.5</ele>
        <time>2026-05-31T07:31:28.999Z</time>
      </trkpt>
      <trkpt lat="43.76334" lon="4.12849">
        <ele>119.5</ele>
        <time>2026-05-31T07:31:29.999Z</time>
      </trkpt>
      <trkpt lat="43.76334" lon="4.1285">
        <ele>119.3</ele>
        <time>2026-05-31T07:31:30.999Z</time>
      </trkpt>
      <trkpt lat="43.76335" lon="4.12852">
        <ele>119.3</ele>
        <time>2026-05-31T07:31:31.999Z</time>
      </trkpt>
      <trkpt lat="43.76336" lon="4.12852">
        <ele>119.6</ele>
        <time>2026-05-31T07:31:32.999Z</time>
      </trkpt>
      <trkpt lat="43.76337" lon="4.12853">
        <ele>119.6</ele>
        <time>2026-05-31T07:31:33.999Z</time>
      </trkpt>
      <trkpt lat="43.76337" lon="4.12854">
        <ele>119.5</ele>
        <time>2026-05-31T07:31:34.999Z</time>
      </trkpt>
      <trkpt lat="43.76338" lon="4.12855">
        <ele>119.5</ele>
        <time>2026-05-31T07:31:35.999Z</time>
      </trkpt>
      <trkpt lat="43.76338" lon="4.12856">
        <ele>119.5</ele>
        <time>2026-05-31T07:31:36.999Z</time>
      </trkpt>
      <trkpt lat="43.76338" lon="4.12857">
        <ele>119.4</ele>
        <time>2026-05-31T07:31:37.999Z</time>
      </trkpt>
      <trkpt lat="43.76339" lon="4.12859">
        <ele>119.3</ele>
        <time>2026-05-31T07:31:38.999Z</time>
      </trkpt>
      <trkpt lat="43.76339" lon="4.1286">
        <ele>119.3</ele>
        <time>2026-05-31T07:31:39.999Z</time>
      </trkpt>
      <trkpt lat="43.7634" lon="4.12861">
        <ele>119.5</ele>
        <time>2026-05-31T07:31:40.999Z</time>
      </trkpt>
      <trkpt lat="43.7634" lon="4.12863">
        <ele>119.7</ele>
        <time>2026-05-31T07:31:41.999Z</time>
      </trkpt>
      <trkpt lat="43.7634" lon="4.12864">
        <ele>119.7</ele>
        <time>2026-05-31T07:31:42.999Z</time>
      </trkpt>
      <trkpt lat="43.76341" lon="4.12864">
        <ele>119.8</ele>
        <time>2026-05-31T07:31:43.999Z</time>
      </trkpt>
      <trkpt lat="43.76341" lon="4.12866">
        <ele>120.1</ele>
        <time>2026-05-31T07:31:44.999Z</time>
      </trkpt>
      <trkpt lat="43.76342" lon="4.12867">
        <ele>120.4</ele>
        <time>2026-05-31T07:31:45.999Z</time>
      </trkpt>
      <trkpt lat="43.76342" lon="4.12868">
        <ele>120.8</ele>
        <time>2026-05-31T07:31:46.999Z</time>
      </trkpt>
      <trkpt lat="43.76342" lon="4.12868">
        <ele>121</ele>
        <time>2026-05-31T07:31:47.999Z</time>
      </trkpt>
      <trkpt lat="43.76342" lon="4.12869">
        <ele>121.2</ele>
        <time>2026-05-31T07:31:48.999Z</time>
      </trkpt>
      <trkpt lat="43.76342" lon="4.1287">
        <ele>121.6</ele>
        <time>2026-05-31T07:31:49.999Z</time>
      </trkpt>
      <trkpt lat="43.76343" lon="4.1287">
        <ele>121.9</ele>
        <time>2026-05-31T07:31:50.999Z</time>
      </trkpt>
      <trkpt lat="43.76343" lon="4.12871">
        <ele>122.1</ele>
        <time>2026-05-31T07:31:51.999Z</time>
      </trkpt>
      <trkpt lat="43.76343" lon="4.12871">
        <ele>122.2</ele>
        <time>2026-05-31T07:31:52.999Z</time>
      </trkpt>
      <trkpt lat="43.76343" lon="4.12874">
        <ele>122.1</ele>
        <time>2026-05-31T07:31:53.999Z</time>
      </trkpt>
      <trkpt lat="43.76344" lon="4.12875">
        <ele>122</ele>
        <time>2026-05-31T07:31:54.999Z</time>
      </trkpt>
      <trkpt lat="43.76345" lon="4.12876">
        <ele>122.2</ele>
        <time>2026-05-31T07:31:55.999Z</time>
      </trkpt>
      <trkpt lat="43.76345" lon="4.12876">
        <ele>122.1</ele>
        <time>2026-05-31T07:31:56.999Z</time>
      </trkpt>
      <trkpt lat="43.76345" lon="4.12877">
        <ele>121.8</ele>
        <time>2026-05-31T07:31:57.999Z</time>
      </trkpt>
      <trkpt lat="43.76345" lon="4.12877">
        <ele>121.7</ele>
        <time>2026-05-31T07:31:58.999Z</time>
      </trkpt>
      <trkpt lat="43.76345" lon="4.12877">
        <ele>121.5</ele>
        <time>2026-05-31T07:31:59.999Z</time>
      </trkpt>
      <trkpt lat="43.76345" lon="4.12877">
        <ele>121.4</ele>
        <time>2026-05-31T07:32:00.999Z</time>
      </trkpt>
      <trkpt lat="43.76345" lon="4.12877">
        <ele>121.2</ele>
        <time>2026-05-31T07:32:01.999Z</time>
      </trkpt>
      <trkpt lat="43.76345" lon="4.12877">
        <ele>121.2</ele>
        <time>2026-05-31T07:32:02.999Z</time>
      </trkpt>
      <trkpt lat="43.76345" lon="4.12878">
        <ele>121.1</ele>
        <time>2026-05-31T07:32:03.999Z</time>
      </trkpt>
      <trkpt lat="43.76345" lon="4.12878">
        <ele>121.1</ele>
        <time>2026-05-31T07:32:04.999Z</time>
      </trkpt>
      <trkpt lat="43.76345" lon="4.12878">
        <ele>121</ele>
        <time>2026-05-31T07:32:06.999Z</time>
      </trkpt>
      <trkpt lat="43.76345" lon="4.12878">
        <ele>121</ele>
        <time>2026-05-31T07:32:07.999Z</time>
      </trkpt>
      <trkpt lat="43.76345" lon="4.12878">
        <ele>120.7</ele>
        <time>2026-05-31T07:32:08.999Z</time>
      </trkpt>
      <trkpt lat="43.76345" lon="4.12879">
        <ele>120.4</ele>
        <time>2026-05-31T07:32:09.999Z</time>
      </trkpt>
      <trkpt lat="43.76344" lon="4.12879">
        <ele>120.2</ele>
        <time>2026-05-31T07:32:10.999Z</time>
      </trkpt>
      <trkpt lat="43.76344" lon="4.1288">
        <ele>120.1</ele>
        <time>2026-05-31T07:32:11.999Z</time>
      </trkpt>
      <trkpt lat="43.76344" lon="4.1288">
        <ele>119.9</ele>
        <time>2026-05-31T07:32:12.999Z</time>
      </trkpt>
      <trkpt lat="43.76343" lon="4.12881">
        <ele>119.2</ele>
        <time>2026-05-31T07:32:13.999Z</time>
      </trkpt>
      <trkpt lat="43.76343" lon="4.12881">
        <ele>118.2</ele>
        <time>2026-05-31T07:32:14.999Z</time>
      </trkpt>
      <trkpt lat="43.76342" lon="4.12882">
        <ele>118</ele>
        <time>2026-05-31T07:32:15.999Z</time>
      </trkpt>
      <trkpt lat="43.76342" lon="4.12883">
        <ele>117.7</ele>
        <time>2026-05-31T07:32:16.999Z</time>
      </trkpt>
      <trkpt lat="43.76342" lon="4.12883">
        <ele>117.6</ele>
        <time>2026-05-31T07:32:17.999Z</time>
      </trkpt>
      <trkpt lat="43.76342" lon="4.12883">
        <ele>117.6</ele>
        <time>2026-05-31T07:32:18.999Z</time>
      </trkpt>
      <trkpt lat="43.76342" lon="4.12883">
        <ele>117.2</ele>
        <time>2026-05-31T07:32:19.999Z</time>
      </trkpt>
      <trkpt lat="43.76342" lon="4.12882">
        <ele>117</ele>
        <time>2026-05-31T07:32:20.999Z</time>
      </trkpt>
      <trkpt lat="43.76342" lon="4.12882">
        <ele>117</ele>
        <time>2026-05-31T07:32:21.999Z</time>
      </trkpt>
      <trkpt lat="43.76342" lon="4.12883">
        <ele>117.2</ele>
        <time>2026-05-31T07:32:22.999Z</time>
      </trkpt>
      <trkpt lat="43.76342" lon="4.12883">
        <ele>117.2</ele>
        <time>2026-05-31T07:32:24.999Z</time>
      </trkpt>
      <trkpt lat="43.76342" lon="4.12883">
        <ele>117.4</ele>
        <time>2026-05-31T07:32:25.999Z</time>
      </trkpt>
      <trkpt lat="43.76342" lon="4.12883">
        <ele>117.7</ele>
        <time>2026-05-31T07:32:26.999Z</time>
      </trkpt>
      <trkpt lat="43.76342" lon="4.12883">
        <ele>117.9</ele>
        <time>2026-05-31T07:32:27.999Z</time>
      </trkpt>
      <trkpt lat="43.76342" lon="4.12883">
        <ele>117.7</ele>
        <time>2026-05-31T07:32:28.999Z</time>
      </trkpt>
      <trkpt lat="43.76342" lon="4.12883">
        <ele>117.9</ele>
        <time>2026-05-31T07:32:29.999Z</time>
      </trkpt>
      <trkpt lat="43.76342" lon="4.12883">
        <ele>118</ele>
        <time>2026-05-31T07:32:30.999Z</time>
      </trkpt>
      <trkpt lat="43.76342" lon="4.12883">
        <ele>118.2</ele>
        <time>2026-05-31T07:32:31.999Z</time>
      </trkpt>
      <trkpt lat="43.76342" lon="4.12883">
        <ele>118.3</ele>
        <time>2026-05-31T07:32:32.999Z</time>
      </trkpt>
      <trkpt lat="43.76342" lon="4.12884">
        <ele>118.2</ele>
        <time>2026-05-31T07:32:33.999Z</time>
      </trkpt>
      <trkpt lat="43.76342" lon="4.12884">
        <ele>118.3</ele>
        <time>2026-05-31T07:32:34.999Z</time>
      </trkpt>
      <trkpt lat="43.76342" lon="4.12884">
        <ele>118.1</ele>
        <time>2026-05-31T07:32:35.999Z</time>
      </trkpt>
      <trkpt lat="43.76342" lon="4.12884">
        <ele>118.2</ele>
        <time>2026-05-31T07:32:36.999Z</time>
      </trkpt>
      <trkpt lat="43.76342" lon="4.12884">
        <ele>118.2</ele>
        <time>2026-05-31T07:32:37.999Z</time>
      </trkpt>
      <trkpt lat="43.76342" lon="4.12884">
        <ele>118.2</ele>
        <time>2026-05-31T07:32:38.999Z</time>
      </trkpt>
      <trkpt lat="43.76342" lon="4.12884">
        <ele>118.3</ele>
        <time>2026-05-31T07:32:39.999Z</time>
      </trkpt>
      <trkpt lat="43.76342" lon="4.12884">
        <ele>118.2</ele>
        <time>2026-05-31T07:32:40.999Z</time>
      </trkpt>
      <trkpt lat="43.76342" lon="4.12884">
        <ele>118.2</ele>
        <time>2026-05-31T07:32:41.999Z</time>
      </trkpt>
      <trkpt lat="43.76342" lon="4.12884">
        <ele>118.2</ele>
        <time>2026-05-31T07:32:42.999Z</time>
      </trkpt>
      <trkpt lat="43.76342" lon="4.12884">
        <ele>118.3</ele>
        <time>2026-05-31T07:32:43.999Z</time>
      </trkpt>
      <trkpt lat="43.76342" lon="4.12884">
        <ele>118.3</ele>
        <time>2026-05-31T07:32:44.999Z</time>
      </trkpt>
      <trkpt lat="43.76342" lon="4.12884">
        <ele>118.3</ele>
        <time>2026-05-31T07:32:45.999Z</time>
      </trkpt>
      <trkpt lat="43.76342" lon="4.12884">
        <ele>118.5</ele>
        <time>2026-05-31T07:32:46.999Z</time>
      </trkpt>
      <trkpt lat="43.76342" lon="4.12884">
        <ele>118.5</ele>
        <time>2026-05-31T07:32:47.999Z</time>
      </trkpt>
      <trkpt lat="43.76342" lon="4.12884">
        <ele>118.5</ele>
        <time>2026-05-31T07:32:48.999Z</time>
      </trkpt>
      <trkpt lat="43.76342" lon="4.12885">
        <ele>118.6</ele>
        <time>2026-05-31T07:32:49.999Z</time>
      </trkpt>
      <trkpt lat="43.76343" lon="4.12885">
        <ele>118.7</ele>
        <time>2026-05-31T07:32:50.999Z</time>
      </trkpt>
      <trkpt lat="43.76343" lon="4.12885">
        <ele>118.8</ele>
        <time>2026-05-31T07:32:51.999Z</time>
      </trkpt>
      <trkpt lat="43.76343" lon="4.12885">
        <ele>119.1</ele>
        <time>2026-05-31T07:32:52.999Z</time>
      </trkpt>
      <trkpt lat="43.76343" lon="4.12886">
        <ele>119.5</ele>
        <time>2026-05-31T07:32:53.999Z</time>
      </trkpt>
      <trkpt lat="43.76343" lon="4.12886">
        <ele>119.7</ele>
        <time>2026-05-31T07:32:54.999Z</time>
      </trkpt>
      <trkpt lat="43.76343" lon="4.12886">
        <ele>119.8</ele>
        <time>2026-05-31T07:32:55.999Z</time>
      </trkpt>
      <trkpt lat="43.76343" lon="4.12886">
        <ele>119.9</ele>
        <time>2026-05-31T07:32:56.999Z</time>
      </trkpt>
      <trkpt lat="43.76343" lon="4.12886">
        <ele>120.1</ele>
        <time>2026-05-31T07:32:57.999Z</time>
      </trkpt>
      <trkpt lat="43.76344" lon="4.12887">
        <ele>120.3</ele>
        <time>2026-05-31T07:32:58.999Z</time>
      </trkpt>
      <trkpt lat="43.76344" lon="4.12887">
        <ele>120</ele>
        <time>2026-05-31T07:32:59.999Z</time>
      </trkpt>
      <trkpt lat="43.76344" lon="4.12887">
        <ele>120</ele>
        <time>2026-05-31T07:33:00.999Z</time>
      </trkpt>
      <trkpt lat="43.76344" lon="4.12888">
        <ele>120.1</ele>
        <time>2026-05-31T07:33:01.999Z</time>
      </trkpt>
      <trkpt lat="43.76344" lon="4.12888">
        <ele>120.4</ele>
        <time>2026-05-31T07:33:02.999Z</time>
      </trkpt>
      <trkpt lat="43.76344" lon="4.12888">
        <ele>120.3</ele>
        <time>2026-05-31T07:33:03.999Z</time>
      </trkpt>
      <trkpt lat="43.76344" lon="4.12888">
        <ele>120.3</ele>
        <time>2026-05-31T07:33:04.999Z</time>
      </trkpt>
      <trkpt lat="43.76345" lon="4.12889">
        <ele>120.4</ele>
        <time>2026-05-31T07:33:05.999Z</time>
      </trkpt>
      <trkpt lat="43.76345" lon="4.12889">
        <ele>120.5</ele>
        <time>2026-05-31T07:33:06.999Z</time>
      </trkpt>
      <trkpt lat="43.76345" lon="4.12889">
        <ele>120.4</ele>
        <time>2026-05-31T07:33:07.999Z</time>
      </trkpt>
      <trkpt lat="43.76345" lon="4.12889">
        <ele>120.3</ele>
        <time>2026-05-31T07:33:08.999Z</time>
      </trkpt>
      <trkpt lat="43.76345" lon="4.12889">
        <ele>120.4</ele>
        <time>2026-05-31T07:33:09.999Z</time>
      </trkpt>
      <trkpt lat="43.76346" lon="4.12889">
        <ele>120.3</ele>
        <time>2026-05-31T07:33:10.999Z</time>
      </trkpt>
      <trkpt lat="43.76346" lon="4.12889">
        <ele>120.3</ele>
        <time>2026-05-31T07:33:11.999Z</time>
      </trkpt>
      <trkpt lat="43.76346" lon="4.1289">
        <ele>120.3</ele>
        <time>2026-05-31T07:33:12.999Z</time>
      </trkpt>
      <trkpt lat="43.76346" lon="4.1289">
        <ele>120.3</ele>
        <time>2026-05-31T07:33:13.999Z</time>
      </trkpt>
      <trkpt lat="43.76346" lon="4.12891">
        <ele>120.5</ele>
        <time>2026-05-31T07:33:14.999Z</time>
      </trkpt>
      <trkpt lat="43.76348" lon="4.12892">
        <ele>120.2</ele>
        <time>2026-05-31T07:33:15.999Z</time>
      </trkpt>
      <trkpt lat="43.7635" lon="4.12894">
        <ele>120</ele>
        <time>2026-05-31T07:33:16.999Z</time>
      </trkpt>
      <trkpt lat="43.76351" lon="4.12896">
        <ele>119.7</ele>
        <time>2026-05-31T07:33:17.999Z</time>
      </trkpt>
      <trkpt lat="43.76352" lon="4.12898">
        <ele>119.4</ele>
        <time>2026-05-31T07:33:18.999Z</time>
      </trkpt>
      <trkpt lat="43.76352" lon="4.12899">
        <ele>119.3</ele>
        <time>2026-05-31T07:33:19.999Z</time>
      </trkpt>
      <trkpt lat="43.76353" lon="4.12901">
        <ele>119.2</ele>
        <time>2026-05-31T07:33:20.999Z</time>
      </trkpt>
      <trkpt lat="43.76354" lon="4.12902">
        <ele>119.3</ele>
        <time>2026-05-31T07:33:21.999Z</time>
      </trkpt>
      <trkpt lat="43.76354" lon="4.12904">
        <ele>119.3</ele>
        <time>2026-05-31T07:33:22.999Z</time>
      </trkpt>
      <trkpt lat="43.76354" lon="4.12905">
        <ele>119.3</ele>
        <time>2026-05-31T07:33:23.999Z</time>
      </trkpt>
      <trkpt lat="43.76355" lon="4.12906">
        <ele>119.1</ele>
        <time>2026-05-31T07:33:24.999Z</time>
      </trkpt>
      <trkpt lat="43.76355" lon="4.12907">
        <ele>119</ele>
        <time>2026-05-31T07:33:25.999Z</time>
      </trkpt>
      <trkpt lat="43.76355" lon="4.12909">
        <ele>118.9</ele>
        <time>2026-05-31T07:33:26.999Z</time>
      </trkpt>
      <trkpt lat="43.76355" lon="4.1291">
        <ele>118.8</ele>
        <time>2026-05-31T07:33:27.999Z</time>
      </trkpt>
      <trkpt lat="43.76355" lon="4.12913">
        <ele>119.1</ele>
        <time>2026-05-31T07:33:28.999Z</time>
      </trkpt>
      <trkpt lat="43.76355" lon="4.12916">
        <ele>119.7</ele>
        <time>2026-05-31T07:33:29.999Z</time>
      </trkpt>
      <trkpt lat="43.76355" lon="4.12918">
        <ele>120.2</ele>
        <time>2026-05-31T07:33:30.999Z</time>
      </trkpt>
      <trkpt lat="43.76354" lon="4.12921">
        <ele>120.1</ele>
        <time>2026-05-31T07:33:31.999Z</time>
      </trkpt>
      <trkpt lat="43.76354" lon="4.12923">
        <ele>119.8</ele>
        <time>2026-05-31T07:33:32.999Z</time>
      </trkpt>
      <trkpt lat="43.76353" lon="4.12925">
        <ele>119.7</ele>
        <time>2026-05-31T07:33:33.999Z</time>
      </trkpt>
      <trkpt lat="43.76351" lon="4.12928">
        <ele>119.7</ele>
        <time>2026-05-31T07:33:34.999Z</time>
      </trkpt>
      <trkpt lat="43.7635" lon="4.1293">
        <ele>119.7</ele>
        <time>2026-05-31T07:33:35.999Z</time>
      </trkpt>
      <trkpt lat="43.7635" lon="4.12932">
        <ele>119.9</ele>
        <time>2026-05-31T07:33:36.999Z</time>
      </trkpt>
      <trkpt lat="43.76349" lon="4.12933">
        <ele>120.1</ele>
        <time>2026-05-31T07:33:37.999Z</time>
      </trkpt>
      <trkpt lat="43.76349" lon="4.12934">
        <ele>120.1</ele>
        <time>2026-05-31T07:33:38.999Z</time>
      </trkpt>
      <trkpt lat="43.76349" lon="4.12935">
        <ele>120.1</ele>
        <time>2026-05-31T07:33:39.999Z</time>
      </trkpt>
      <trkpt lat="43.76349" lon="4.12937">
        <ele>119.8</ele>
        <time>2026-05-31T07:33:40.999Z</time>
      </trkpt>
      <trkpt lat="43.76349" lon="4.1294">
        <ele>119.5</ele>
        <time>2026-05-31T07:33:41.999Z</time>
      </trkpt>
      <trkpt lat="43.76349" lon="4.12942">
        <ele>119.5</ele>
        <time>2026-05-31T07:33:42.999Z</time>
      </trkpt>
      <trkpt lat="43.76348" lon="4.12944">
        <ele>119.8</ele>
        <time>2026-05-31T07:33:43.999Z</time>
      </trkpt>
      <trkpt lat="43.76348" lon="4.12946">
        <ele>120.5</ele>
        <time>2026-05-31T07:33:44.999Z</time>
      </trkpt>
      <trkpt lat="43.76348" lon="4.12947">
        <ele>120.6</ele>
        <time>2026-05-31T07:33:45.999Z</time>
      </trkpt>
      <trkpt lat="43.76348" lon="4.12948">
        <ele>120.4</ele>
        <time>2026-05-31T07:33:46.999Z</time>
      </trkpt>
      <trkpt lat="43.76348" lon="4.12949">
        <ele>119.9</ele>
        <time>2026-05-31T07:33:47.999Z</time>
      </trkpt>
      <trkpt lat="43.76348" lon="4.1295">
        <ele>119.7</ele>
        <time>2026-05-31T07:33:48.999Z</time>
      </trkpt>
      <trkpt lat="43.76349" lon="4.1295">
        <ele>120</ele>
        <time>2026-05-31T07:33:49.999Z</time>
      </trkpt>
      <trkpt lat="43.7635" lon="4.12951">
        <ele>119.8</ele>
        <time>2026-05-31T07:33:50.999Z</time>
      </trkpt>
      <trkpt lat="43.7635" lon="4.12951">
        <ele>119.7</ele>
        <time>2026-05-31T07:33:51.999Z</time>
      </trkpt>
      <trkpt lat="43.7635" lon="4.12951">
        <ele>119.7</ele>
        <time>2026-05-31T07:33:52.999Z</time>
      </trkpt>
      <trkpt lat="43.76351" lon="4.12952">
        <ele>119.7</ele>
        <time>2026-05-31T07:33:53.999Z</time>
      </trkpt>
      <trkpt lat="43.76352" lon="4.12952">
        <ele>119.5</ele>
        <time>2026-05-31T07:33:54.999Z</time>
      </trkpt>
      <trkpt lat="43.76353" lon="4.12953">
        <ele>119</ele>
        <time>2026-05-31T07:33:55.999Z</time>
      </trkpt>
      <trkpt lat="43.76354" lon="4.12953">
        <ele>118.8</ele>
        <time>2026-05-31T07:33:56.999Z</time>
      </trkpt>
      <trkpt lat="43.76355" lon="4.12955">
        <ele>118.3</ele>
        <time>2026-05-31T07:33:57.999Z</time>
      </trkpt>
      <trkpt lat="43.76356" lon="4.12956">
        <ele>118.3</ele>
        <time>2026-05-31T07:33:58.999Z</time>
      </trkpt>
      <trkpt lat="43.76357" lon="4.12958">
        <ele>118.6</ele>
        <time>2026-05-31T07:33:59.999Z</time>
      </trkpt>
      <trkpt lat="43.76357" lon="4.1296">
        <ele>118.6</ele>
        <time>2026-05-31T07:34:00.999Z</time>
      </trkpt>
      <trkpt lat="43.76358" lon="4.1296">
        <ele>118.4</ele>
        <time>2026-05-31T07:34:01.999Z</time>
      </trkpt>
      <trkpt lat="43.7636" lon="4.1296">
        <ele>118.1</ele>
        <time>2026-05-31T07:34:02.999Z</time>
      </trkpt>
      <trkpt lat="43.76361" lon="4.12961">
        <ele>117.2</ele>
        <time>2026-05-31T07:34:03.999Z</time>
      </trkpt>
      <trkpt lat="43.76362" lon="4.12962">
        <ele>117.1</ele>
        <time>2026-05-31T07:34:04.999Z</time>
      </trkpt>
      <trkpt lat="43.76363" lon="4.12963">
        <ele>116.9</ele>
        <time>2026-05-31T07:34:05.999Z</time>
      </trkpt>
      <trkpt lat="43.76365" lon="4.12964">
        <ele>117</ele>
        <time>2026-05-31T07:34:06.999Z</time>
      </trkpt>
      <trkpt lat="43.76366" lon="4.12965">
        <ele>117</ele>
        <time>2026-05-31T07:34:07.999Z</time>
      </trkpt>
      <trkpt lat="43.76367" lon="4.12966">
        <ele>117</ele>
        <time>2026-05-31T07:34:08.999Z</time>
      </trkpt>
      <trkpt lat="43.76367" lon="4.12966">
        <ele>117.2</ele>
        <time>2026-05-31T07:34:09.999Z</time>
      </trkpt>
      <trkpt lat="43.76368" lon="4.12966">
        <ele>117.8</ele>
        <time>2026-05-31T07:34:10.999Z</time>
      </trkpt>
      <trkpt lat="43.76368" lon="4.12967">
        <ele>118.3</ele>
        <time>2026-05-31T07:34:11.999Z</time>
      </trkpt>
      <trkpt lat="43.76369" lon="4.12967">
        <ele>118.4</ele>
        <time>2026-05-31T07:34:12.999Z</time>
      </trkpt>
      <trkpt lat="43.76369" lon="4.12967">
        <ele>118.4</ele>
        <time>2026-05-31T07:34:13.999Z</time>
      </trkpt>
      <trkpt lat="43.7637" lon="4.12967">
        <ele>118.2</ele>
        <time>2026-05-31T07:34:14.999Z</time>
      </trkpt>
      <trkpt lat="43.76371" lon="4.12968">
        <ele>117.8</ele>
        <time>2026-05-31T07:34:15.999Z</time>
      </trkpt>
      <trkpt lat="43.76371" lon="4.12969">
        <ele>117.8</ele>
        <time>2026-05-31T07:34:16.999Z</time>
      </trkpt>
      <trkpt lat="43.76371" lon="4.1297">
        <ele>118</ele>
        <time>2026-05-31T07:34:17.999Z</time>
      </trkpt>
      <trkpt lat="43.76371" lon="4.1297">
        <ele>118.3</ele>
        <time>2026-05-31T07:34:18.999Z</time>
      </trkpt>
      <trkpt lat="43.7637" lon="4.12971">
        <ele>118.1</ele>
        <time>2026-05-31T07:34:19.999Z</time>
      </trkpt>
      <trkpt lat="43.76369" lon="4.12972">
        <ele>117.8</ele>
        <time>2026-05-31T07:34:20.999Z</time>
      </trkpt>
      <trkpt lat="43.76368" lon="4.12974">
        <ele>117.7</ele>
        <time>2026-05-31T07:34:21.999Z</time>
      </trkpt>
      <trkpt lat="43.76367" lon="4.12976">
        <ele>117.4</ele>
        <time>2026-05-31T07:34:22.999Z</time>
      </trkpt>
      <trkpt lat="43.76366" lon="4.12977">
        <ele>117</ele>
        <time>2026-05-31T07:34:23.999Z</time>
      </trkpt>
      <trkpt lat="43.76365" lon="4.12979">
        <ele>117.2</ele>
        <time>2026-05-31T07:34:24.999Z</time>
      </trkpt>
      <trkpt lat="43.76364" lon="4.12981">
        <ele>117.4</ele>
        <time>2026-05-31T07:34:25.999Z</time>
      </trkpt>
      <trkpt lat="43.76363" lon="4.12983">
        <ele>117.3</ele>
        <time>2026-05-31T07:34:26.999Z</time>
      </trkpt>
      <trkpt lat="43.76363" lon="4.12984">
        <ele>117.1</ele>
        <time>2026-05-31T07:34:27.999Z</time>
      </trkpt>
      <trkpt lat="43.76362" lon="4.12986">
        <ele>116.8</ele>
        <time>2026-05-31T07:34:28.999Z</time>
      </trkpt>
      <trkpt lat="43.76361" lon="4.12987">
        <ele>116.7</ele>
        <time>2026-05-31T07:34:29.999Z</time>
      </trkpt>
      <trkpt lat="43.76361" lon="4.12987">
        <ele>116.3</ele>
        <time>2026-05-31T07:34:30.999Z</time>
      </trkpt>
      <trkpt lat="43.7636" lon="4.12988">
        <ele>116.2</ele>
        <time>2026-05-31T07:34:31.999Z</time>
      </trkpt>
      <trkpt lat="43.7636" lon="4.12988">
        <ele>116.1</ele>
        <time>2026-05-31T07:34:32.999Z</time>
      </trkpt>
      <trkpt lat="43.76359" lon="4.12988">
        <ele>116.2</ele>
        <time>2026-05-31T07:34:33.999Z</time>
      </trkpt>
      <trkpt lat="43.76359" lon="4.12988">
        <ele>116.2</ele>
        <time>2026-05-31T07:34:34.999Z</time>
      </trkpt>
      <trkpt lat="43.76358" lon="4.12989">
        <ele>115.6</ele>
        <time>2026-05-31T07:34:35.999Z</time>
      </trkpt>
      <trkpt lat="43.76358" lon="4.1299">
        <ele>115.5</ele>
        <time>2026-05-31T07:34:36.999Z</time>
      </trkpt>
      <trkpt lat="43.76357" lon="4.12991">
        <ele>115.8</ele>
        <time>2026-05-31T07:34:37.999Z</time>
      </trkpt>
      <trkpt lat="43.76357" lon="4.12992">
        <ele>115.5</ele>
        <time>2026-05-31T07:34:38.999Z</time>
      </trkpt>
      <trkpt lat="43.76356" lon="4.12994">
        <ele>115.5</ele>
        <time>2026-05-31T07:34:39.999Z</time>
      </trkpt>
      <trkpt lat="43.76357" lon="4.12995">
        <ele>116</ele>
        <time>2026-05-31T07:34:40.999Z</time>
      </trkpt>
      <trkpt lat="43.76357" lon="4.12998">
        <ele>116.3</ele>
        <time>2026-05-31T07:34:41.999Z</time>
      </trkpt>
      <trkpt lat="43.76357" lon="4.12999">
        <ele>116.8</ele>
        <time>2026-05-31T07:34:42.999Z</time>
      </trkpt>
      <trkpt lat="43.76357" lon="4.13">
        <ele>117.4</ele>
        <time>2026-05-31T07:34:43.999Z</time>
      </trkpt>
      <trkpt lat="43.76357" lon="4.13001">
        <ele>117.7</ele>
        <time>2026-05-31T07:34:44.999Z</time>
      </trkpt>
      <trkpt lat="43.76356" lon="4.13002">
        <ele>117.8</ele>
        <time>2026-05-31T07:34:45.999Z</time>
      </trkpt>
      <trkpt lat="43.76356" lon="4.13003">
        <ele>117.6</ele>
        <time>2026-05-31T07:34:46.999Z</time>
      </trkpt>
      <trkpt lat="43.76356" lon="4.13004">
        <ele>116.9</ele>
        <time>2026-05-31T07:34:47.999Z</time>
      </trkpt>
      <trkpt lat="43.76356" lon="4.13004">
        <ele>116.6</ele>
        <time>2026-05-31T07:34:48.999Z</time>
      </trkpt>
      <trkpt lat="43.76356" lon="4.13005">
        <ele>116.4</ele>
        <time>2026-05-31T07:34:49.999Z</time>
      </trkpt>
      <trkpt lat="43.76356" lon="4.13007">
        <ele>116.5</ele>
        <time>2026-05-31T07:34:50.999Z</time>
      </trkpt>
      <trkpt lat="43.76357" lon="4.13009">
        <ele>116.7</ele>
        <time>2026-05-31T07:34:51.999Z</time>
      </trkpt>
      <trkpt lat="43.76357" lon="4.1301">
        <ele>117</ele>
        <time>2026-05-31T07:34:52.999Z</time>
      </trkpt>
      <trkpt lat="43.76358" lon="4.13011">
        <ele>116.6</ele>
        <time>2026-05-31T07:34:53.999Z</time>
      </trkpt>
      <trkpt lat="43.76359" lon="4.13012">
        <ele>116.6</ele>
        <time>2026-05-31T07:34:54.999Z</time>
      </trkpt>
      <trkpt lat="43.76359" lon="4.13013">
        <ele>116.7</ele>
        <time>2026-05-31T07:34:55.999Z</time>
      </trkpt>
      <trkpt lat="43.7636" lon="4.13014">
        <ele>116.4</ele>
        <time>2026-05-31T07:34:56.999Z</time>
      </trkpt>
      <trkpt lat="43.7636" lon="4.13016">
        <ele>116.2</ele>
        <time>2026-05-31T07:34:57.999Z</time>
      </trkpt>
      <trkpt lat="43.76361" lon="4.13017">
        <ele>116</ele>
        <time>2026-05-31T07:34:58.999Z</time>
      </trkpt>
      <trkpt lat="43.76362" lon="4.13019">
        <ele>116.1</ele>
        <time>2026-05-31T07:34:59.999Z</time>
      </trkpt>
      <trkpt lat="43.76362" lon="4.1302">
        <ele>116.4</ele>
        <time>2026-05-31T07:35:00.999Z</time>
      </trkpt>
      <trkpt lat="43.76363" lon="4.13022">
        <ele>116.3</ele>
        <time>2026-05-31T07:35:01.999Z</time>
      </trkpt>
      <trkpt lat="43.76364" lon="4.13024">
        <ele>116.3</ele>
        <time>2026-05-31T07:35:02.999Z</time>
      </trkpt>
      <trkpt lat="43.76364" lon="4.13025">
        <ele>116.4</ele>
        <time>2026-05-31T07:35:03.999Z</time>
      </trkpt>
      <trkpt lat="43.76364" lon="4.13026">
        <ele>116.6</ele>
        <time>2026-05-31T07:35:04.999Z</time>
      </trkpt>
      <trkpt lat="43.76365" lon="4.13027">
        <ele>116.8</ele>
        <time>2026-05-31T07:35:05.999Z</time>
      </trkpt>
      <trkpt lat="43.76365" lon="4.13028">
        <ele>117.1</ele>
        <time>2026-05-31T07:35:06.999Z</time>
      </trkpt>
      <trkpt lat="43.76366" lon="4.13029">
        <ele>117.5</ele>
        <time>2026-05-31T07:35:07.999Z</time>
      </trkpt>
      <trkpt lat="43.76365" lon="4.13029">
        <ele>117.5</ele>
        <time>2026-05-31T07:35:08.999Z</time>
      </trkpt>
      <trkpt lat="43.76366" lon="4.1303">
        <ele>117.4</ele>
        <time>2026-05-31T07:35:09.999Z</time>
      </trkpt>
      <trkpt lat="43.76366" lon="4.1303">
        <ele>117.4</ele>
        <time>2026-05-31T07:35:10.999Z</time>
      </trkpt>
      <trkpt lat="43.76367" lon="4.13031">
        <ele>117.7</ele>
        <time>2026-05-31T07:35:11.999Z</time>
      </trkpt>
      <trkpt lat="43.76367" lon="4.13032">
        <ele>117.9</ele>
        <time>2026-05-31T07:35:12.999Z</time>
      </trkpt>
      <trkpt lat="43.76368" lon="4.13032">
        <ele>118.1</ele>
        <time>2026-05-31T07:35:13.999Z</time>
      </trkpt>
      <trkpt lat="43.76369" lon="4.13034">
        <ele>118.1</ele>
        <time>2026-05-31T07:35:14.999Z</time>
      </trkpt>
      <trkpt lat="43.7637" lon="4.13036">
        <ele>118.3</ele>
        <time>2026-05-31T07:35:15.999Z</time>
      </trkpt>
      <trkpt lat="43.7637" lon="4.13037">
        <ele>118.6</ele>
        <time>2026-05-31T07:35:16.999Z</time>
      </trkpt>
      <trkpt lat="43.76371" lon="4.13038">
        <ele>118.8</ele>
        <time>2026-05-31T07:35:17.999Z</time>
      </trkpt>
      <trkpt lat="43.76371" lon="4.13038">
        <ele>119</ele>
        <time>2026-05-31T07:35:18.999Z</time>
      </trkpt>
      <trkpt lat="43.76371" lon="4.13039">
        <ele>119.2</ele>
        <time>2026-05-31T07:35:19.999Z</time>
      </trkpt>
      <trkpt lat="43.76371" lon="4.13042">
        <ele>119.3</ele>
        <time>2026-05-31T07:35:20.999Z</time>
      </trkpt>
      <trkpt lat="43.7637" lon="4.13043">
        <ele>119.7</ele>
        <time>2026-05-31T07:35:21.999Z</time>
      </trkpt>
      <trkpt lat="43.76369" lon="4.13045">
        <ele>120.1</ele>
        <time>2026-05-31T07:35:22.999Z</time>
      </trkpt>
      <trkpt lat="43.76368" lon="4.13048">
        <ele>120.1</ele>
        <time>2026-05-31T07:35:23.999Z</time>
      </trkpt>
      <trkpt lat="43.76366" lon="4.13049">
        <ele>119.8</ele>
        <time>2026-05-31T07:35:24.999Z</time>
      </trkpt>
      <trkpt lat="43.76366" lon="4.13051">
        <ele>119.8</ele>
        <time>2026-05-31T07:35:25.999Z</time>
      </trkpt>
      <trkpt lat="43.76365" lon="4.13053">
        <ele>120.1</ele>
        <time>2026-05-31T07:35:26.999Z</time>
      </trkpt>
      <trkpt lat="43.76364" lon="4.13053">
        <ele>120.1</ele>
        <time>2026-05-31T07:35:27.999Z</time>
      </trkpt>
      <trkpt lat="43.76363" lon="4.13054">
        <ele>120</ele>
        <time>2026-05-31T07:35:28.999Z</time>
      </trkpt>
      <trkpt lat="43.76361" lon="4.13055">
        <ele>120.6</ele>
        <time>2026-05-31T07:35:29.999Z</time>
      </trkpt>
      <trkpt lat="43.7636" lon="4.13055">
        <ele>120.4</ele>
        <time>2026-05-31T07:35:30.999Z</time>
      </trkpt>
      <trkpt lat="43.76358" lon="4.13053">
        <ele>120.2</ele>
        <time>2026-05-31T07:35:31.999Z</time>
      </trkpt>
      <trkpt lat="43.76357" lon="4.13053">
        <ele>120</ele>
        <time>2026-05-31T07:35:32.999Z</time>
      </trkpt>
      <trkpt lat="43.76356" lon="4.13053">
        <ele>119.9</ele>
        <time>2026-05-31T07:35:33.999Z</time>
      </trkpt>
      <trkpt lat="43.76355" lon="4.13053">
        <ele>119.3</ele>
        <time>2026-05-31T07:35:34.999Z</time>
      </trkpt>
      <trkpt lat="43.76355" lon="4.13053">
        <ele>119.2</ele>
        <time>2026-05-31T07:35:35.999Z</time>
      </trkpt>
      <trkpt lat="43.76355" lon="4.13053">
        <ele>119.2</ele>
        <time>2026-05-31T07:35:36.999Z</time>
      </trkpt>
      <trkpt lat="43.76355" lon="4.13053">
        <ele>119.1</ele>
        <time>2026-05-31T07:35:37.999Z</time>
      </trkpt>
      <trkpt lat="43.76354" lon="4.13054">
        <ele>118.7</ele>
        <time>2026-05-31T07:35:38.999Z</time>
      </trkpt>
      <trkpt lat="43.76353" lon="4.13054">
        <ele>118.4</ele>
        <time>2026-05-31T07:35:39.999Z</time>
      </trkpt>
      <trkpt lat="43.76352" lon="4.13055">
        <ele>118.2</ele>
        <time>2026-05-31T07:35:40.999Z</time>
      </trkpt>
      <trkpt lat="43.76352" lon="4.13055">
        <ele>117.9</ele>
        <time>2026-05-31T07:35:41.999Z</time>
      </trkpt>
      <trkpt lat="43.76351" lon="4.13056">
        <ele>117.7</ele>
        <time>2026-05-31T07:35:42.999Z</time>
      </trkpt>
      <trkpt lat="43.7635" lon="4.13057">
        <ele>117.9</ele>
        <time>2026-05-31T07:35:43.999Z</time>
      </trkpt>
      <trkpt lat="43.76349" lon="4.13057">
        <ele>118.1</ele>
        <time>2026-05-31T07:35:44.999Z</time>
      </trkpt>
      <trkpt lat="43.76348" lon="4.13058">
        <ele>118.2</ele>
        <time>2026-05-31T07:35:45.999Z</time>
      </trkpt>
      <trkpt lat="43.76347" lon="4.13058">
        <ele>118.3</ele>
        <time>2026-05-31T07:35:46.999Z</time>
      </trkpt>
      <trkpt lat="43.76346" lon="4.13059">
        <ele>118.4</ele>
        <time>2026-05-31T07:35:47.999Z</time>
      </trkpt>
      <trkpt lat="43.76344" lon="4.1306">
        <ele>118.3</ele>
        <time>2026-05-31T07:35:48.999Z</time>
      </trkpt>
      <trkpt lat="43.76343" lon="4.13061">
        <ele>118.5</ele>
        <time>2026-05-31T07:35:49.999Z</time>
      </trkpt>
      <trkpt lat="43.76342" lon="4.13061">
        <ele>118.3</ele>
        <time>2026-05-31T07:35:50.999Z</time>
      </trkpt>
      <trkpt lat="43.76341" lon="4.13062">
        <ele>118.3</ele>
        <time>2026-05-31T07:35:51.999Z</time>
      </trkpt>
      <trkpt lat="43.76341" lon="4.13063">
        <ele>118.4</ele>
        <time>2026-05-31T07:35:52.999Z</time>
      </trkpt>
      <trkpt lat="43.7634" lon="4.13063">
        <ele>118</ele>
        <time>2026-05-31T07:35:53.999Z</time>
      </trkpt>
      <trkpt lat="43.76339" lon="4.13062">
        <ele>117.7</ele>
        <time>2026-05-31T07:35:54.999Z</time>
      </trkpt>
      <trkpt lat="43.76338" lon="4.13062">
        <ele>117.8</ele>
        <time>2026-05-31T07:35:55.999Z</time>
      </trkpt>
      <trkpt lat="43.76336" lon="4.13061">
        <ele>118</ele>
        <time>2026-05-31T07:35:56.999Z</time>
      </trkpt>
      <trkpt lat="43.76335" lon="4.13062">
        <ele>118.2</ele>
        <time>2026-05-31T07:35:57.999Z</time>
      </trkpt>
      <trkpt lat="43.76333" lon="4.13061">
        <ele>118.3</ele>
        <time>2026-05-31T07:35:58.999Z</time>
      </trkpt>
      <trkpt lat="43.76332" lon="4.13061">
        <ele>118.8</ele>
        <time>2026-05-31T07:35:59.999Z</time>
      </trkpt>
      <trkpt lat="43.76331" lon="4.13061">
        <ele>119.1</ele>
        <time>2026-05-31T07:36:00.999Z</time>
      </trkpt>
      <trkpt lat="43.7633" lon="4.13061">
        <ele>119.5</ele>
        <time>2026-05-31T07:36:01.999Z</time>
      </trkpt>
      <trkpt lat="43.76329" lon="4.1306">
        <ele>119.8</ele>
        <time>2026-05-31T07:36:02.999Z</time>
      </trkpt>
      <trkpt lat="43.76328" lon="4.1306">
        <ele>120.3</ele>
        <time>2026-05-31T07:36:03.999Z</time>
      </trkpt>
      <trkpt lat="43.76326" lon="4.1306">
        <ele>120.5</ele>
        <time>2026-05-31T07:36:04.999Z</time>
      </trkpt>
      <trkpt lat="43.76324" lon="4.13059">
        <ele>120.8</ele>
        <time>2026-05-31T07:36:05.999Z</time>
      </trkpt>
      <trkpt lat="43.76323" lon="4.13059">
        <ele>121.1</ele>
        <time>2026-05-31T07:36:06.999Z</time>
      </trkpt>
      <trkpt lat="43.76321" lon="4.13059">
        <ele>121.6</ele>
        <time>2026-05-31T07:36:07.999Z</time>
      </trkpt>
      <trkpt lat="43.7632" lon="4.1306">
        <ele>121.9</ele>
        <time>2026-05-31T07:36:08.999Z</time>
      </trkpt>
      <trkpt lat="43.76319" lon="4.1306">
        <ele>121.9</ele>
        <time>2026-05-31T07:36:09.999Z</time>
      </trkpt>
      <trkpt lat="43.76318" lon="4.13061">
        <ele>121.9</ele>
        <time>2026-05-31T07:36:10.999Z</time>
      </trkpt>
      <trkpt lat="43.76317" lon="4.13062">
        <ele>122</ele>
        <time>2026-05-31T07:36:11.999Z</time>
      </trkpt>
      <trkpt lat="43.76316" lon="4.13063">
        <ele>122.1</ele>
        <time>2026-05-31T07:36:12.999Z</time>
      </trkpt>
      <trkpt lat="43.76315" lon="4.13064">
        <ele>121.8</ele>
        <time>2026-05-31T07:36:13.999Z</time>
      </trkpt>
      <trkpt lat="43.76314" lon="4.13065">
        <ele>121.8</ele>
        <time>2026-05-31T07:36:14.999Z</time>
      </trkpt>
      <trkpt lat="43.76313" lon="4.13066">
        <ele>121.7</ele>
        <time>2026-05-31T07:36:15.999Z</time>
      </trkpt>
      <trkpt lat="43.76311" lon="4.13067">
        <ele>121.6</ele>
        <time>2026-05-31T07:36:16.999Z</time>
      </trkpt>
      <trkpt lat="43.7631" lon="4.13067">
        <ele>121.4</ele>
        <time>2026-05-31T07:36:17.999Z</time>
      </trkpt>
      <trkpt lat="43.76309" lon="4.13067">
        <ele>121.3</ele>
        <time>2026-05-31T07:36:18.999Z</time>
      </trkpt>
      <trkpt lat="43.76308" lon="4.13067">
        <ele>121.2</ele>
        <time>2026-05-31T07:36:19.999Z</time>
      </trkpt>
      <trkpt lat="43.76308" lon="4.13067">
        <ele>121.2</ele>
        <time>2026-05-31T07:36:20.999Z</time>
      </trkpt>
      <trkpt lat="43.76307" lon="4.13068">
        <ele>121.1</ele>
        <time>2026-05-31T07:36:21.999Z</time>
      </trkpt>
      <trkpt lat="43.76306" lon="4.13069">
        <ele>120.7</ele>
        <time>2026-05-31T07:36:22.999Z</time>
      </trkpt>
      <trkpt lat="43.76305" lon="4.13069">
        <ele>120.6</ele>
        <time>2026-05-31T07:36:23.999Z</time>
      </trkpt>
      <trkpt lat="43.76304" lon="4.1307">
        <ele>120.6</ele>
        <time>2026-05-31T07:36:24.999Z</time>
      </trkpt>
      <trkpt lat="43.76303" lon="4.13068">
        <ele>120.8</ele>
        <time>2026-05-31T07:36:25.999Z</time>
      </trkpt>
      <trkpt lat="43.76303" lon="4.13067">
        <ele>120.6</ele>
        <time>2026-05-31T07:36:26.999Z</time>
      </trkpt>
      <trkpt lat="43.76302" lon="4.13067">
        <ele>120.8</ele>
        <time>2026-05-31T07:36:27.999Z</time>
      </trkpt>
      <trkpt lat="43.76302" lon="4.13068">
        <ele>120.9</ele>
        <time>2026-05-31T07:36:28.999Z</time>
      </trkpt>
      <trkpt lat="43.76301" lon="4.13068">
        <ele>121.1</ele>
        <time>2026-05-31T07:36:29.999Z</time>
      </trkpt>
      <trkpt lat="43.763" lon="4.13069">
        <ele>121.4</ele>
        <time>2026-05-31T07:36:30.999Z</time>
      </trkpt>
      <trkpt lat="43.76299" lon="4.13069">
        <ele>121.6</ele>
        <time>2026-05-31T07:36:31.999Z</time>
      </trkpt>
      <trkpt lat="43.76298" lon="4.1307">
        <ele>121.7</ele>
        <time>2026-05-31T07:36:32.999Z</time>
      </trkpt>
      <trkpt lat="43.76297" lon="4.1307">
        <ele>121.5</ele>
        <time>2026-05-31T07:36:33.999Z</time>
      </trkpt>
      <trkpt lat="43.76296" lon="4.1307">
        <ele>121.5</ele>
        <time>2026-05-31T07:36:34.999Z</time>
      </trkpt>
      <trkpt lat="43.76295" lon="4.1307">
        <ele>121.4</ele>
        <time>2026-05-31T07:36:35.999Z</time>
      </trkpt>
      <trkpt lat="43.76294" lon="4.13071">
        <ele>121.6</ele>
        <time>2026-05-31T07:36:36.999Z</time>
      </trkpt>
      <trkpt lat="43.76294" lon="4.13071">
        <ele>121.7</ele>
        <time>2026-05-31T07:36:37.999Z</time>
      </trkpt>
      <trkpt lat="43.76292" lon="4.13071">
        <ele>122.3</ele>
        <time>2026-05-31T07:36:38.999Z</time>
      </trkpt>
      <trkpt lat="43.76291" lon="4.13071">
        <ele>122.5</ele>
        <time>2026-05-31T07:36:39.999Z</time>
      </trkpt>
      <trkpt lat="43.76289" lon="4.13072">
        <ele>122.6</ele>
        <time>2026-05-31T07:36:40.999Z</time>
      </trkpt>
      <trkpt lat="43.76289" lon="4.13073">
        <ele>122.7</ele>
        <time>2026-05-31T07:36:41.999Z</time>
      </trkpt>
      <trkpt lat="43.76288" lon="4.13074">
        <ele>122.5</ele>
        <time>2026-05-31T07:36:42.999Z</time>
      </trkpt>
      <trkpt lat="43.76288" lon="4.13075">
        <ele>122.3</ele>
        <time>2026-05-31T07:36:43.999Z</time>
      </trkpt>
      <trkpt lat="43.76287" lon="4.13075">
        <ele>121.9</ele>
        <time>2026-05-31T07:36:44.999Z</time>
      </trkpt>
      <trkpt lat="43.76286" lon="4.13076">
        <ele>121.6</ele>
        <time>2026-05-31T07:36:45.999Z</time>
      </trkpt>
      <trkpt lat="43.76285" lon="4.13076">
        <ele>121.4</ele>
        <time>2026-05-31T07:36:46.999Z</time>
      </trkpt>
      <trkpt lat="43.76284" lon="4.13077">
        <ele>121.4</ele>
        <time>2026-05-31T07:36:47.999Z</time>
      </trkpt>
      <trkpt lat="43.76283" lon="4.13077">
        <ele>121.4</ele>
        <time>2026-05-31T07:36:48.999Z</time>
      </trkpt>
      <trkpt lat="43.76283" lon="4.13078">
        <ele>121.4</ele>
        <time>2026-05-31T07:36:49.999Z</time>
      </trkpt>
      <trkpt lat="43.76281" lon="4.13078">
        <ele>121.7</ele>
        <time>2026-05-31T07:36:50.999Z</time>
      </trkpt>
      <trkpt lat="43.7628" lon="4.13078">
        <ele>121.9</ele>
        <time>2026-05-31T07:36:51.999Z</time>
      </trkpt>
      <trkpt lat="43.76279" lon="4.13078">
        <ele>122.4</ele>
        <time>2026-05-31T07:36:52.999Z</time>
      </trkpt>
      <trkpt lat="43.76278" lon="4.13077">
        <ele>123.2</ele>
        <time>2026-05-31T07:36:53.999Z</time>
      </trkpt>
      <trkpt lat="43.76277" lon="4.13078">
        <ele>123.9</ele>
        <time>2026-05-31T07:36:54.999Z</time>
      </trkpt>
      <trkpt lat="43.76276" lon="4.13079">
        <ele>124.1</ele>
        <time>2026-05-31T07:36:55.999Z</time>
      </trkpt>
      <trkpt lat="43.76275" lon="4.13079">
        <ele>124.8</ele>
        <time>2026-05-31T07:36:56.999Z</time>
      </trkpt>
      <trkpt lat="43.76273" lon="4.1308">
        <ele>124.9</ele>
        <time>2026-05-31T07:36:57.999Z</time>
      </trkpt>
      <trkpt lat="43.76272" lon="4.13081">
        <ele>125</ele>
        <time>2026-05-31T07:36:58.999Z</time>
      </trkpt>
      <trkpt lat="43.76271" lon="4.13081">
        <ele>124.9</ele>
        <time>2026-05-31T07:36:59.999Z</time>
      </trkpt>
      <trkpt lat="43.7627" lon="4.13082">
        <ele>125.1</ele>
        <time>2026-05-31T07:37:00.999Z</time>
      </trkpt>
      <trkpt lat="43.7627" lon="4.13082">
        <ele>125.3</ele>
        <time>2026-05-31T07:37:01.999Z</time>
      </trkpt>
      <trkpt lat="43.76268" lon="4.13083">
        <ele>125.3</ele>
        <time>2026-05-31T07:37:02.999Z</time>
      </trkpt>
      <trkpt lat="43.76267" lon="4.13084">
        <ele>125.1</ele>
        <time>2026-05-31T07:37:03.999Z</time>
      </trkpt>
      <trkpt lat="43.76266" lon="4.13084">
        <ele>125</ele>
        <time>2026-05-31T07:37:04.999Z</time>
      </trkpt>
      <trkpt lat="43.76265" lon="4.13085">
        <ele>125.1</ele>
        <time>2026-05-31T07:37:05.999Z</time>
      </trkpt>
      <trkpt lat="43.76264" lon="4.13086">
        <ele>124.9</ele>
        <time>2026-05-31T07:37:06.999Z</time>
      </trkpt>
      <trkpt lat="43.76263" lon="4.13086">
        <ele>124.9</ele>
        <time>2026-05-31T07:37:07.999Z</time>
      </trkpt>
      <trkpt lat="43.76262" lon="4.13086">
        <ele>125</ele>
        <time>2026-05-31T07:37:08.999Z</time>
      </trkpt>
      <trkpt lat="43.76261" lon="4.13087">
        <ele>125.1</ele>
        <time>2026-05-31T07:37:09.999Z</time>
      </trkpt>
      <trkpt lat="43.76259" lon="4.13088">
        <ele>124.9</ele>
        <time>2026-05-31T07:37:10.999Z</time>
      </trkpt>
      <trkpt lat="43.76258" lon="4.13088">
        <ele>125.1</ele>
        <time>2026-05-31T07:37:11.999Z</time>
      </trkpt>
      <trkpt lat="43.76256" lon="4.13089">
        <ele>125.3</ele>
        <time>2026-05-31T07:37:12.999Z</time>
      </trkpt>
      <trkpt lat="43.76255" lon="4.13089">
        <ele>125.8</ele>
        <time>2026-05-31T07:37:13.999Z</time>
      </trkpt>
      <trkpt lat="43.76255" lon="4.1309">
        <ele>126.3</ele>
        <time>2026-05-31T07:37:14.999Z</time>
      </trkpt>
      <trkpt lat="43.76254" lon="4.1309">
        <ele>126.5</ele>
        <time>2026-05-31T07:37:15.999Z</time>
      </trkpt>
      <trkpt lat="43.76254" lon="4.13091">
        <ele>126.8</ele>
        <time>2026-05-31T07:37:16.999Z</time>
      </trkpt>
      <trkpt lat="43.76253" lon="4.13092">
        <ele>126.9</ele>
        <time>2026-05-31T07:37:17.999Z</time>
      </trkpt>
      <trkpt lat="43.76252" lon="4.13093">
        <ele>127.1</ele>
        <time>2026-05-31T07:37:18.999Z</time>
      </trkpt>
      <trkpt lat="43.76251" lon="4.13094">
        <ele>127.2</ele>
        <time>2026-05-31T07:37:19.999Z</time>
      </trkpt>
      <trkpt lat="43.76251" lon="4.13095">
        <ele>127.5</ele>
        <time>2026-05-31T07:37:20.999Z</time>
      </trkpt>
      <trkpt lat="43.7625" lon="4.13095">
        <ele>127.8</ele>
        <time>2026-05-31T07:37:21.999Z</time>
      </trkpt>
      <trkpt lat="43.7625" lon="4.13097">
        <ele>127.4</ele>
        <time>2026-05-31T07:37:22.999Z</time>
      </trkpt>
      <trkpt lat="43.76249" lon="4.13098">
        <ele>127.4</ele>
        <time>2026-05-31T07:37:23.999Z</time>
      </trkpt>
      <trkpt lat="43.76249" lon="4.13099">
        <ele>127.9</ele>
        <time>2026-05-31T07:37:24.999Z</time>
      </trkpt>
      <trkpt lat="43.76248" lon="4.13101">
        <ele>128</ele>
        <time>2026-05-31T07:37:25.999Z</time>
      </trkpt>
      <trkpt lat="43.76247" lon="4.13101">
        <ele>128.3</ele>
        <time>2026-05-31T07:37:26.999Z</time>
      </trkpt>
      <trkpt lat="43.76246" lon="4.13102">
        <ele>128.2</ele>
        <time>2026-05-31T07:37:27.999Z</time>
      </trkpt>
      <trkpt lat="43.76245" lon="4.13103">
        <ele>127.7</ele>
        <time>2026-05-31T07:37:28.999Z</time>
      </trkpt>
      <trkpt lat="43.76244" lon="4.13103">
        <ele>128</ele>
        <time>2026-05-31T07:37:29.999Z</time>
      </trkpt>
      <trkpt lat="43.76243" lon="4.13103">
        <ele>128.2</ele>
        <time>2026-05-31T07:37:30.999Z</time>
      </trkpt>
      <trkpt lat="43.76242" lon="4.13103">
        <ele>128.3</ele>
        <time>2026-05-31T07:37:31.999Z</time>
      </trkpt>
      <trkpt lat="43.76241" lon="4.13103">
        <ele>128.3</ele>
        <time>2026-05-31T07:37:32.999Z</time>
      </trkpt>
      <trkpt lat="43.7624" lon="4.13103">
        <ele>128.3</ele>
        <time>2026-05-31T07:37:33.999Z</time>
      </trkpt>
      <trkpt lat="43.76239" lon="4.13103">
        <ele>128.5</ele>
        <time>2026-05-31T07:37:34.999Z</time>
      </trkpt>
      <trkpt lat="43.76237" lon="4.13103">
        <ele>128.6</ele>
        <time>2026-05-31T07:37:35.999Z</time>
      </trkpt>
      <trkpt lat="43.76236" lon="4.13104">
        <ele>128.9</ele>
        <time>2026-05-31T07:37:36.999Z</time>
      </trkpt>
      <trkpt lat="43.76236" lon="4.13104">
        <ele>129.2</ele>
        <time>2026-05-31T07:37:37.999Z</time>
      </trkpt>
      <trkpt lat="43.76235" lon="4.13104">
        <ele>129.2</ele>
        <time>2026-05-31T07:37:38.999Z</time>
      </trkpt>
      <trkpt lat="43.76234" lon="4.13104">
        <ele>129.2</ele>
        <time>2026-05-31T07:37:39.999Z</time>
      </trkpt>
      <trkpt lat="43.76233" lon="4.13104">
        <ele>129.1</ele>
        <time>2026-05-31T07:37:40.999Z</time>
      </trkpt>
      <trkpt lat="43.76232" lon="4.13104">
        <ele>129</ele>
        <time>2026-05-31T07:37:41.999Z</time>
      </trkpt>
      <trkpt lat="43.76231" lon="4.13104">
        <ele>128.9</ele>
        <time>2026-05-31T07:37:42.999Z</time>
      </trkpt>
      <trkpt lat="43.7623" lon="4.13105">
        <ele>129</ele>
        <time>2026-05-31T07:37:43.999Z</time>
      </trkpt>
      <trkpt lat="43.76229" lon="4.13106">
        <ele>129.1</ele>
        <time>2026-05-31T07:37:44.999Z</time>
      </trkpt>
      <trkpt lat="43.76227" lon="4.13106">
        <ele>129.1</ele>
        <time>2026-05-31T07:37:45.999Z</time>
      </trkpt>
      <trkpt lat="43.76226" lon="4.13106">
        <ele>129.2</ele>
        <time>2026-05-31T07:37:46.999Z</time>
      </trkpt>
      <trkpt lat="43.76224" lon="4.13105">
        <ele>129.1</ele>
        <time>2026-05-31T07:37:47.999Z</time>
      </trkpt>
      <trkpt lat="43.76223" lon="4.13105">
        <ele>129.3</ele>
        <time>2026-05-31T07:37:48.999Z</time>
      </trkpt>
      <trkpt lat="43.76222" lon="4.13105">
        <ele>129.2</ele>
        <time>2026-05-31T07:37:49.999Z</time>
      </trkpt>
      <trkpt lat="43.76221" lon="4.13105">
        <ele>129.5</ele>
        <time>2026-05-31T07:37:50.999Z</time>
      </trkpt>
      <trkpt lat="43.7622" lon="4.13105">
        <ele>129.9</ele>
        <time>2026-05-31T07:37:51.999Z</time>
      </trkpt>
      <trkpt lat="43.76219" lon="4.13104">
        <ele>130</ele>
        <time>2026-05-31T07:37:52.999Z</time>
      </trkpt>
      <trkpt lat="43.76217" lon="4.13103">
        <ele>129.8</ele>
        <time>2026-05-31T07:37:53.999Z</time>
      </trkpt>
      <trkpt lat="43.76216" lon="4.13103">
        <ele>129.6</ele>
        <time>2026-05-31T07:37:54.999Z</time>
      </trkpt>
      <trkpt lat="43.76215" lon="4.13102">
        <ele>129.6</ele>
        <time>2026-05-31T07:37:55.999Z</time>
      </trkpt>
      <trkpt lat="43.76214" lon="4.13102">
        <ele>129.7</ele>
        <time>2026-05-31T07:37:56.999Z</time>
      </trkpt>
      <trkpt lat="43.76213" lon="4.13103">
        <ele>129.6</ele>
        <time>2026-05-31T07:37:57.999Z</time>
      </trkpt>
      <trkpt lat="43.76213" lon="4.13103">
        <ele>129.6</ele>
        <time>2026-05-31T07:37:58.999Z</time>
      </trkpt>
      <trkpt lat="43.76211" lon="4.13103">
        <ele>129.6</ele>
        <time>2026-05-31T07:37:59.999Z</time>
      </trkpt>
      <trkpt lat="43.7621" lon="4.13104">
        <ele>129.5</ele>
        <time>2026-05-31T07:38:00.999Z</time>
      </trkpt>
      <trkpt lat="43.76209" lon="4.13103">
        <ele>129.5</ele>
        <time>2026-05-31T07:38:01.999Z</time>
      </trkpt>
      <trkpt lat="43.76209" lon="4.13103">
        <ele>129.6</ele>
        <time>2026-05-31T07:38:02.999Z</time>
      </trkpt>
      <trkpt lat="43.76208" lon="4.13103">
        <ele>129.4</ele>
        <time>2026-05-31T07:38:03.999Z</time>
      </trkpt>
      <trkpt lat="43.76207" lon="4.13103">
        <ele>129.2</ele>
        <time>2026-05-31T07:38:04.999Z</time>
      </trkpt>
      <trkpt lat="43.76206" lon="4.13103">
        <ele>129.2</ele>
        <time>2026-05-31T07:38:05.999Z</time>
      </trkpt>
      <trkpt lat="43.76204" lon="4.13103">
        <ele>129.2</ele>
        <time>2026-05-31T07:38:06.999Z</time>
      </trkpt>
      <trkpt lat="43.76203" lon="4.13103">
        <ele>129</ele>
        <time>2026-05-31T07:38:07.999Z</time>
      </trkpt>
      <trkpt lat="43.76201" lon="4.13103">
        <ele>129.1</ele>
        <time>2026-05-31T07:38:08.999Z</time>
      </trkpt>
      <trkpt lat="43.762" lon="4.13103">
        <ele>129.6</ele>
        <time>2026-05-31T07:38:09.999Z</time>
      </trkpt>
      <trkpt lat="43.76199" lon="4.13104">
        <ele>129.8</ele>
        <time>2026-05-31T07:38:10.999Z</time>
      </trkpt>
      <trkpt lat="43.76198" lon="4.13104">
        <ele>129.9</ele>
        <time>2026-05-31T07:38:11.999Z</time>
      </trkpt>
      <trkpt lat="43.76197" lon="4.13104">
        <ele>130</ele>
        <time>2026-05-31T07:38:12.999Z</time>
      </trkpt>
      <trkpt lat="43.76196" lon="4.13104">
        <ele>130.2</ele>
        <time>2026-05-31T07:38:13.999Z</time>
      </trkpt>
      <trkpt lat="43.76194" lon="4.13105">
        <ele>130.5</ele>
        <time>2026-05-31T07:38:14.999Z</time>
      </trkpt>
      <trkpt lat="43.76193" lon="4.13105">
        <ele>130.7</ele>
        <time>2026-05-31T07:38:15.999Z</time>
      </trkpt>
      <trkpt lat="43.76192" lon="4.13106">
        <ele>130.9</ele>
        <time>2026-05-31T07:38:16.999Z</time>
      </trkpt>
      <trkpt lat="43.76191" lon="4.13106">
        <ele>131.1</ele>
        <time>2026-05-31T07:38:17.999Z</time>
      </trkpt>
      <trkpt lat="43.7619" lon="4.13105">
        <ele>131.5</ele>
        <time>2026-05-31T07:38:18.999Z</time>
      </trkpt>
      <trkpt lat="43.76189" lon="4.13105">
        <ele>131.7</ele>
        <time>2026-05-31T07:38:19.999Z</time>
      </trkpt>
      <trkpt lat="43.76188" lon="4.13105">
        <ele>132.1</ele>
        <time>2026-05-31T07:38:20.999Z</time>
      </trkpt>
      <trkpt lat="43.76187" lon="4.13105">
        <ele>132</ele>
        <time>2026-05-31T07:38:21.999Z</time>
      </trkpt>
      <trkpt lat="43.76186" lon="4.13105">
        <ele>132</ele>
        <time>2026-05-31T07:38:22.999Z</time>
      </trkpt>
      <trkpt lat="43.76186" lon="4.13105">
        <ele>131.9</ele>
        <time>2026-05-31T07:38:23.999Z</time>
      </trkpt>
      <trkpt lat="43.76185" lon="4.13105">
        <ele>132</ele>
        <time>2026-05-31T07:38:24.999Z</time>
      </trkpt>
      <trkpt lat="43.76184" lon="4.13105">
        <ele>132.1</ele>
        <time>2026-05-31T07:38:25.999Z</time>
      </trkpt>
      <trkpt lat="43.76183" lon="4.13105">
        <ele>132.5</ele>
        <time>2026-05-31T07:38:26.999Z</time>
      </trkpt>
      <trkpt lat="43.76182" lon="4.13105">
        <ele>132.3</ele>
        <time>2026-05-31T07:38:27.999Z</time>
      </trkpt>
      <trkpt lat="43.76181" lon="4.13105">
        <ele>132.4</ele>
        <time>2026-05-31T07:38:28.999Z</time>
      </trkpt>
      <trkpt lat="43.7618" lon="4.13105">
        <ele>132.2</ele>
        <time>2026-05-31T07:38:29.999Z</time>
      </trkpt>
      <trkpt lat="43.76179" lon="4.13105">
        <ele>131.7</ele>
        <time>2026-05-31T07:38:30.999Z</time>
      </trkpt>
      <trkpt lat="43.76179" lon="4.13105">
        <ele>131.5</ele>
        <time>2026-05-31T07:38:31.999Z</time>
      </trkpt>
      <trkpt lat="43.76177" lon="4.13104">
        <ele>131.4</ele>
        <time>2026-05-31T07:38:32.999Z</time>
      </trkpt>
      <trkpt lat="43.76176" lon="4.13104">
        <ele>131.2</ele>
        <time>2026-05-31T07:38:33.999Z</time>
      </trkpt>
      <trkpt lat="43.76175" lon="4.13103">
        <ele>131.3</ele>
        <time>2026-05-31T07:38:34.999Z</time>
      </trkpt>
      <trkpt lat="43.76174" lon="4.13103">
        <ele>131.3</ele>
        <time>2026-05-31T07:38:35.999Z</time>
      </trkpt>
      <trkpt lat="43.76173" lon="4.13103">
        <ele>131.5</ele>
        <time>2026-05-31T07:38:36.999Z</time>
      </trkpt>
      <trkpt lat="43.76172" lon="4.13103">
        <ele>131.9</ele>
        <time>2026-05-31T07:38:37.999Z</time>
      </trkpt>
      <trkpt lat="43.76171" lon="4.13103">
        <ele>132.2</ele>
        <time>2026-05-31T07:38:38.999Z</time>
      </trkpt>
      <trkpt lat="43.7617" lon="4.13104">
        <ele>132.6</ele>
        <time>2026-05-31T07:38:39.999Z</time>
      </trkpt>
      <trkpt lat="43.76168" lon="4.13105">
        <ele>132.8</ele>
        <time>2026-05-31T07:38:40.999Z</time>
      </trkpt>
      <trkpt lat="43.76167" lon="4.13107">
        <ele>133.3</ele>
        <time>2026-05-31T07:38:41.999Z</time>
      </trkpt>
      <trkpt lat="43.76166" lon="4.13108">
        <ele>133.8</ele>
        <time>2026-05-31T07:38:42.999Z</time>
      </trkpt>
      <trkpt lat="43.76166" lon="4.1311">
        <ele>134.4</ele>
        <time>2026-05-31T07:38:43.999Z</time>
      </trkpt>
      <trkpt lat="43.76166" lon="4.13111">
        <ele>134.7</ele>
        <time>2026-05-31T07:38:44.999Z</time>
      </trkpt>
      <trkpt lat="43.76166" lon="4.13113">
        <ele>134.9</ele>
        <time>2026-05-31T07:38:45.999Z</time>
      </trkpt>
      <trkpt lat="43.76166" lon="4.13115">
        <ele>135.4</ele>
        <time>2026-05-31T07:38:46.999Z</time>
      </trkpt>
      <trkpt lat="43.76166" lon="4.13118">
        <ele>135.5</ele>
        <time>2026-05-31T07:38:47.999Z</time>
      </trkpt>
      <trkpt lat="43.76166" lon="4.13119">
        <ele>135.7</ele>
        <time>2026-05-31T07:38:48.999Z</time>
      </trkpt>
      <trkpt lat="43.76166" lon="4.13121">
        <ele>135.8</ele>
        <time>2026-05-31T07:38:49.999Z</time>
      </trkpt>
      <trkpt lat="43.76166" lon="4.13122">
        <ele>135.8</ele>
        <time>2026-05-31T07:38:50.999Z</time>
      </trkpt>
      <trkpt lat="43.76166" lon="4.13123">
        <ele>135.7</ele>
        <time>2026-05-31T07:38:51.999Z</time>
      </trkpt>
      <trkpt lat="43.76166" lon="4.13125">
        <ele>135.7</ele>
        <time>2026-05-31T07:38:52.999Z</time>
      </trkpt>
      <trkpt lat="43.76165" lon="4.13126">
        <ele>135.6</ele>
        <time>2026-05-31T07:38:53.999Z</time>
      </trkpt>
      <trkpt lat="43.76165" lon="4.13127">
        <ele>135.5</ele>
        <time>2026-05-31T07:38:54.999Z</time>
      </trkpt>
      <trkpt lat="43.76165" lon="4.13129">
        <ele>135.4</ele>
        <time>2026-05-31T07:38:55.999Z</time>
      </trkpt>
      <trkpt lat="43.76164" lon="4.13131">
        <ele>135.2</ele>
        <time>2026-05-31T07:38:56.999Z</time>
      </trkpt>
      <trkpt lat="43.76164" lon="4.13133">
        <ele>135.2</ele>
        <time>2026-05-31T07:38:57.999Z</time>
      </trkpt>
      <trkpt lat="43.76164" lon="4.13135">
        <ele>135.3</ele>
        <time>2026-05-31T07:38:58.999Z</time>
      </trkpt>
      <trkpt lat="43.76165" lon="4.13136">
        <ele>135</ele>
        <time>2026-05-31T07:38:59.999Z</time>
      </trkpt>
      <trkpt lat="43.76165" lon="4.13138">
        <ele>134.8</ele>
        <time>2026-05-31T07:39:00.999Z</time>
      </trkpt>
      <trkpt lat="43.76166" lon="4.13139">
        <ele>134.5</ele>
        <time>2026-05-31T07:39:01.999Z</time>
      </trkpt>
      <trkpt lat="43.76167" lon="4.13141">
        <ele>134.2</ele>
        <time>2026-05-31T07:39:02.999Z</time>
      </trkpt>
      <trkpt lat="43.76167" lon="4.13141">
        <ele>134</ele>
        <time>2026-05-31T07:39:03.999Z</time>
      </trkpt>
      <trkpt lat="43.76167" lon="4.13143">
        <ele>134</ele>
        <time>2026-05-31T07:39:04.999Z</time>
      </trkpt>
      <trkpt lat="43.76167" lon="4.13145">
        <ele>133.8</ele>
        <time>2026-05-31T07:39:05.999Z</time>
      </trkpt>
      <trkpt lat="43.76167" lon="4.13147">
        <ele>133.4</ele>
        <time>2026-05-31T07:39:06.999Z</time>
      </trkpt>
      <trkpt lat="43.76167" lon="4.13148">
        <ele>133.3</ele>
        <time>2026-05-31T07:39:07.999Z</time>
      </trkpt>
      <trkpt lat="43.76167" lon="4.13149">
        <ele>133</ele>
        <time>2026-05-31T07:39:08.999Z</time>
      </trkpt>
      <trkpt lat="43.76167" lon="4.13149">
        <ele>132.9</ele>
        <time>2026-05-31T07:39:09.999Z</time>
      </trkpt>
      <trkpt lat="43.76167" lon="4.13151">
        <ele>132.5</ele>
        <time>2026-05-31T07:39:10.999Z</time>
      </trkpt>
      <trkpt lat="43.76167" lon="4.13153">
        <ele>132.1</ele>
        <time>2026-05-31T07:39:11.999Z</time>
      </trkpt>
      <trkpt lat="43.76167" lon="4.13155">
        <ele>132.2</ele>
        <time>2026-05-31T07:39:12.999Z</time>
      </trkpt>
      <trkpt lat="43.76167" lon="4.13156">
        <ele>132.3</ele>
        <time>2026-05-31T07:39:13.999Z</time>
      </trkpt>
      <trkpt lat="43.76167" lon="4.13157">
        <ele>132.4</ele>
        <time>2026-05-31T07:39:14.999Z</time>
      </trkpt>
      <trkpt lat="43.76168" lon="4.13158">
        <ele>132.6</ele>
        <time>2026-05-31T07:39:15.999Z</time>
      </trkpt>
      <trkpt lat="43.76168" lon="4.1316">
        <ele>132.6</ele>
        <time>2026-05-31T07:39:16.999Z</time>
      </trkpt>
      <trkpt lat="43.76168" lon="4.13161">
        <ele>132.7</ele>
        <time>2026-05-31T07:39:17.999Z</time>
      </trkpt>
      <trkpt lat="43.76168" lon="4.13162">
        <ele>132.8</ele>
        <time>2026-05-31T07:39:18.999Z</time>
      </trkpt>
      <trkpt lat="43.76169" lon="4.13164">
        <ele>132.7</ele>
        <time>2026-05-31T07:39:19.999Z</time>
      </trkpt>
      <trkpt lat="43.76169" lon="4.13165">
        <ele>132.5</ele>
        <time>2026-05-31T07:39:20.999Z</time>
      </trkpt>
      <trkpt lat="43.76169" lon="4.13166">
        <ele>132.2</ele>
        <time>2026-05-31T07:39:21.999Z</time>
      </trkpt>
      <trkpt lat="43.76169" lon="4.13168">
        <ele>132.1</ele>
        <time>2026-05-31T07:39:22.999Z</time>
      </trkpt>
      <trkpt lat="43.76169" lon="4.1317">
        <ele>132.2</ele>
        <time>2026-05-31T07:39:23.999Z</time>
      </trkpt>
      <trkpt lat="43.76169" lon="4.13172">
        <ele>132.1</ele>
        <time>2026-05-31T07:39:24.999Z</time>
      </trkpt>
      <trkpt lat="43.76169" lon="4.13174">
        <ele>132.2</ele>
        <time>2026-05-31T07:39:25.999Z</time>
      </trkpt>
      <trkpt lat="43.76169" lon="4.13175">
        <ele>132.6</ele>
        <time>2026-05-31T07:39:26.999Z</time>
      </trkpt>
      <trkpt lat="43.76169" lon="4.13178">
        <ele>132.4</ele>
        <time>2026-05-31T07:39:27.999Z</time>
      </trkpt>
      <trkpt lat="43.76169" lon="4.1318">
        <ele>132.3</ele>
        <time>2026-05-31T07:39:28.999Z</time>
      </trkpt>
      <trkpt lat="43.76169" lon="4.13181">
        <ele>132.1</ele>
        <time>2026-05-31T07:39:29.999Z</time>
      </trkpt>
      <trkpt lat="43.76169" lon="4.13182">
        <ele>131.7</ele>
        <time>2026-05-31T07:39:30.999Z</time>
      </trkpt>
      <trkpt lat="43.76169" lon="4.13183">
        <ele>131.7</ele>
        <time>2026-05-31T07:39:31.999Z</time>
      </trkpt>
      <trkpt lat="43.7617" lon="4.13183">
        <ele>131.9</ele>
        <time>2026-05-31T07:39:32.999Z</time>
      </trkpt>
      <trkpt lat="43.7617" lon="4.13184">
        <ele>132</ele>
        <time>2026-05-31T07:39:33.999Z</time>
      </trkpt>
      <trkpt lat="43.7617" lon="4.13184">
        <ele>132.4</ele>
        <time>2026-05-31T07:39:34.999Z</time>
      </trkpt>
      <trkpt lat="43.7617" lon="4.13186">
        <ele>132.4</ele>
        <time>2026-05-31T07:39:35.999Z</time>
      </trkpt>
      <trkpt lat="43.7617" lon="4.13187">
        <ele>132.3</ele>
        <time>2026-05-31T07:39:36.999Z</time>
      </trkpt>
      <trkpt lat="43.76169" lon="4.13188">
        <ele>132.2</ele>
        <time>2026-05-31T07:39:37.999Z</time>
      </trkpt>
      <trkpt lat="43.76169" lon="4.1319">
        <ele>132</ele>
        <time>2026-05-31T07:39:38.999Z</time>
      </trkpt>
      <trkpt lat="43.76169" lon="4.13191">
        <ele>131.7</ele>
        <time>2026-05-31T07:39:39.999Z</time>
      </trkpt>
      <trkpt lat="43.76169" lon="4.13192">
        <ele>131.6</ele>
        <time>2026-05-31T07:39:40.999Z</time>
      </trkpt>
      <trkpt lat="43.76168" lon="4.13194">
        <ele>131.2</ele>
        <time>2026-05-31T07:39:41.999Z</time>
      </trkpt>
      <trkpt lat="43.76167" lon="4.13196">
        <ele>131.1</ele>
        <time>2026-05-31T07:39:42.999Z</time>
      </trkpt>
      <trkpt lat="43.76166" lon="4.13197">
        <ele>131.4</ele>
        <time>2026-05-31T07:39:43.999Z</time>
      </trkpt>
      <trkpt lat="43.76164" lon="4.13198">
        <ele>131.2</ele>
        <time>2026-05-31T07:39:44.999Z</time>
      </trkpt>
      <trkpt lat="43.76163" lon="4.13198">
        <ele>131.8</ele>
        <time>2026-05-31T07:39:45.999Z</time>
      </trkpt>
      <trkpt lat="43.76161" lon="4.13198">
        <ele>131.9</ele>
        <time>2026-05-31T07:39:46.999Z</time>
      </trkpt>
      <trkpt lat="43.7616" lon="4.13198">
        <ele>131.8</ele>
        <time>2026-05-31T07:39:47.999Z</time>
      </trkpt>
      <trkpt lat="43.76159" lon="4.13197">
        <ele>132.4</ele>
        <time>2026-05-31T07:39:48.999Z</time>
      </trkpt>
      <trkpt lat="43.76157" lon="4.13197">
        <ele>132.6</ele>
        <time>2026-05-31T07:39:49.999Z</time>
      </trkpt>
      <trkpt lat="43.76155" lon="4.13196">
        <ele>132.9</ele>
        <time>2026-05-31T07:39:50.999Z</time>
      </trkpt>
      <trkpt lat="43.76154" lon="4.13195">
        <ele>132.9</ele>
        <time>2026-05-31T07:39:51.999Z</time>
      </trkpt>
      <trkpt lat="43.76152" lon="4.13195">
        <ele>133.3</ele>
        <time>2026-05-31T07:39:52.999Z</time>
      </trkpt>
      <trkpt lat="43.7615" lon="4.13194">
        <ele>133.6</ele>
        <time>2026-05-31T07:39:53.999Z</time>
      </trkpt>
      <trkpt lat="43.76149" lon="4.13193">
        <ele>133.7</ele>
        <time>2026-05-31T07:39:54.999Z</time>
      </trkpt>
      <trkpt lat="43.76147" lon="4.13193">
        <ele>133.5</ele>
        <time>2026-05-31T07:39:55.999Z</time>
      </trkpt>
      <trkpt lat="43.76148" lon="4.13195">
        <ele>133.2</ele>
        <time>2026-05-31T07:39:56.999Z</time>
      </trkpt>
      <trkpt lat="43.76147" lon="4.13196">
        <ele>132.5</ele>
        <time>2026-05-31T07:39:57.999Z</time>
      </trkpt>
      <trkpt lat="43.76147" lon="4.13198">
        <ele>132.4</ele>
        <time>2026-05-31T07:39:58.999Z</time>
      </trkpt>
      <trkpt lat="43.76146" lon="4.13199">
        <ele>131.9</ele>
        <time>2026-05-31T07:39:59.999Z</time>
      </trkpt>
      <trkpt lat="43.76146" lon="4.13202">
        <ele>131.4</ele>
        <time>2026-05-31T07:40:00.999Z</time>
      </trkpt>
      <trkpt lat="43.76145" lon="4.13205">
        <ele>131.1</ele>
        <time>2026-05-31T07:40:01.999Z</time>
      </trkpt>
      <trkpt lat="43.76146" lon="4.13207">
        <ele>131.5</ele>
        <time>2026-05-31T07:40:02.999Z</time>
      </trkpt>
      <trkpt lat="43.76145" lon="4.13209">
        <ele>131.7</ele>
        <time>2026-05-31T07:40:03.999Z</time>
      </trkpt>
      <trkpt lat="43.76144" lon="4.13212">
        <ele>132.1</ele>
        <time>2026-05-31T07:40:04.999Z</time>
      </trkpt>
      <trkpt lat="43.76144" lon="4.13214">
        <ele>132.9</ele>
        <time>2026-05-31T07:40:05.999Z</time>
      </trkpt>
      <trkpt lat="43.76143" lon="4.13216">
        <ele>133.1</ele>
        <time>2026-05-31T07:40:06.999Z</time>
      </trkpt>
      <trkpt lat="43.76142" lon="4.13218">
        <ele>133.4</ele>
        <time>2026-05-31T07:40:07.999Z</time>
      </trkpt>
      <trkpt lat="43.76142" lon="4.1322">
        <ele>133.6</ele>
        <time>2026-05-31T07:40:08.999Z</time>
      </trkpt>
      <trkpt lat="43.76142" lon="4.13221">
        <ele>134.1</ele>
        <time>2026-05-31T07:40:09.999Z</time>
      </trkpt>
      <trkpt lat="43.76141" lon="4.13222">
        <ele>133.9</ele>
        <time>2026-05-31T07:40:10.999Z</time>
      </trkpt>
      <trkpt lat="43.7614" lon="4.13222">
        <ele>133.9</ele>
        <time>2026-05-31T07:40:11.999Z</time>
      </trkpt>
      <trkpt lat="43.76139" lon="4.13223">
        <ele>134.3</ele>
        <time>2026-05-31T07:40:12.999Z</time>
      </trkpt>
      <trkpt lat="43.76139" lon="4.13223">
        <ele>134.6</ele>
        <time>2026-05-31T07:40:13.999Z</time>
      </trkpt>
      <trkpt lat="43.76138" lon="4.13224">
        <ele>134.8</ele>
        <time>2026-05-31T07:40:14.999Z</time>
      </trkpt>
      <trkpt lat="43.76138" lon="4.13226">
        <ele>134.9</ele>
        <time>2026-05-31T07:40:15.999Z</time>
      </trkpt>
      <trkpt lat="43.76137" lon="4.13227">
        <ele>134.7</ele>
        <time>2026-05-31T07:40:16.999Z</time>
      </trkpt>
      <trkpt lat="43.76136" lon="4.13228">
        <ele>134.5</ele>
        <time>2026-05-31T07:40:17.999Z</time>
      </trkpt>
      <trkpt lat="43.76136" lon="4.13229">
        <ele>134</ele>
        <time>2026-05-31T07:40:18.999Z</time>
      </trkpt>
      <trkpt lat="43.76135" lon="4.1323">
        <ele>133.8</ele>
        <time>2026-05-31T07:40:19.999Z</time>
      </trkpt>
      <trkpt lat="43.76135" lon="4.13231">
        <ele>133.6</ele>
        <time>2026-05-31T07:40:20.999Z</time>
      </trkpt>
      <trkpt lat="43.76135" lon="4.13232">
        <ele>133.1</ele>
        <time>2026-05-31T07:40:21.999Z</time>
      </trkpt>
      <trkpt lat="43.76134" lon="4.13233">
        <ele>132.7</ele>
        <time>2026-05-31T07:40:22.999Z</time>
      </trkpt>
      <trkpt lat="43.76133" lon="4.13234">
        <ele>132.6</ele>
        <time>2026-05-31T07:40:23.999Z</time>
      </trkpt>
      <trkpt lat="43.76132" lon="4.13235">
        <ele>132.8</ele>
        <time>2026-05-31T07:40:24.999Z</time>
      </trkpt>
      <trkpt lat="43.76132" lon="4.13236">
        <ele>132.9</ele>
        <time>2026-05-31T07:40:25.999Z</time>
      </trkpt>
      <trkpt lat="43.76131" lon="4.13236">
        <ele>133</ele>
        <time>2026-05-31T07:40:26.999Z</time>
      </trkpt>
      <trkpt lat="43.7613" lon="4.13237">
        <ele>133.1</ele>
        <time>2026-05-31T07:40:28.999Z</time>
      </trkpt>
      <trkpt lat="43.76129" lon="4.13238">
        <ele>132.9</ele>
        <time>2026-05-31T07:40:29.999Z</time>
      </trkpt>
      <trkpt lat="43.76129" lon="4.13239">
        <ele>132.9</ele>
        <time>2026-05-31T07:40:30.999Z</time>
      </trkpt>
      <trkpt lat="43.76128" lon="4.1324">
        <ele>132.8</ele>
        <time>2026-05-31T07:40:31.999Z</time>
      </trkpt>
      <trkpt lat="43.76127" lon="4.13241">
        <ele>132.4</ele>
        <time>2026-05-31T07:40:32.999Z</time>
      </trkpt>
      <trkpt lat="43.76126" lon="4.13242">
        <ele>132.3</ele>
        <time>2026-05-31T07:40:33.999Z</time>
      </trkpt>
      <trkpt lat="43.76125" lon="4.13242">
        <ele>132.4</ele>
        <time>2026-05-31T07:40:34.999Z</time>
      </trkpt>
      <trkpt lat="43.76123" lon="4.13243">
        <ele>132.1</ele>
        <time>2026-05-31T07:40:35.999Z</time>
      </trkpt>
      <trkpt lat="43.76122" lon="4.13244">
        <ele>131.9</ele>
        <time>2026-05-31T07:40:36.999Z</time>
      </trkpt>
      <trkpt lat="43.76121" lon="4.13246">
        <ele>132</ele>
        <time>2026-05-31T07:40:37.999Z</time>
      </trkpt>
      <trkpt lat="43.7612" lon="4.13247">
        <ele>131.8</ele>
        <time>2026-05-31T07:40:38.999Z</time>
      </trkpt>
      <trkpt lat="43.76118" lon="4.13248">
        <ele>131.5</ele>
        <time>2026-05-31T07:40:39.999Z</time>
      </trkpt>
      <trkpt lat="43.76118" lon="4.13248">
        <ele>131.6</ele>
        <time>2026-05-31T07:40:40.999Z</time>
      </trkpt>
      <trkpt lat="43.76117" lon="4.13249">
        <ele>131</ele>
        <time>2026-05-31T07:40:41.999Z</time>
      </trkpt>
      <trkpt lat="43.76116" lon="4.13249">
        <ele>130.8</ele>
        <time>2026-05-31T07:40:42.999Z</time>
      </trkpt>
      <trkpt lat="43.76115" lon="4.13251">
        <ele>130.7</ele>
        <time>2026-05-31T07:40:43.999Z</time>
      </trkpt>
      <trkpt lat="43.76114" lon="4.13252">
        <ele>130.3</ele>
        <time>2026-05-31T07:40:44.999Z</time>
      </trkpt>
      <trkpt lat="43.76113" lon="4.13253">
        <ele>130.3</ele>
        <time>2026-05-31T07:40:45.999Z</time>
      </trkpt>
      <trkpt lat="43.76113" lon="4.13254">
        <ele>129.9</ele>
        <time>2026-05-31T07:40:46.999Z</time>
      </trkpt>
      <trkpt lat="43.76113" lon="4.13255">
        <ele>129.4</ele>
        <time>2026-05-31T07:40:47.999Z</time>
      </trkpt>
      <trkpt lat="43.76112" lon="4.13254">
        <ele>128.7</ele>
        <time>2026-05-31T07:40:48.999Z</time>
      </trkpt>
      <trkpt lat="43.76111" lon="4.13256">
        <ele>128.5</ele>
        <time>2026-05-31T07:40:49.999Z</time>
      </trkpt>
      <trkpt lat="43.76111" lon="4.13256">
        <ele>128.7</ele>
        <time>2026-05-31T07:40:50.999Z</time>
      </trkpt>
      <trkpt lat="43.7611" lon="4.13257">
        <ele>129</ele>
        <time>2026-05-31T07:40:51.999Z</time>
      </trkpt>
      <trkpt lat="43.7611" lon="4.13258">
        <ele>128.7</ele>
        <time>2026-05-31T07:40:52.999Z</time>
      </trkpt>
      <trkpt lat="43.76109" lon="4.1326">
        <ele>128.2</ele>
        <time>2026-05-31T07:40:53.999Z</time>
      </trkpt>
      <trkpt lat="43.76108" lon="4.13261">
        <ele>128</ele>
        <time>2026-05-31T07:40:54.999Z</time>
      </trkpt>
      <trkpt lat="43.76107" lon="4.13261">
        <ele>128.2</ele>
        <time>2026-05-31T07:40:55.999Z</time>
      </trkpt>
      <trkpt lat="43.76107" lon="4.13262">
        <ele>128.3</ele>
        <time>2026-05-31T07:40:56.999Z</time>
      </trkpt>
      <trkpt lat="43.76107" lon="4.13263">
        <ele>129.8</ele>
        <time>2026-05-31T07:40:57.999Z</time>
      </trkpt>
      <trkpt lat="43.76106" lon="4.13264">
        <ele>130.2</ele>
        <time>2026-05-31T07:40:58.999Z</time>
      </trkpt>
      <trkpt lat="43.76105" lon="4.13265">
        <ele>130</ele>
        <time>2026-05-31T07:40:59.999Z</time>
      </trkpt>
      <trkpt lat="43.76104" lon="4.13266">
        <ele>130.2</ele>
        <time>2026-05-31T07:41:00.999Z</time>
      </trkpt>
      <trkpt lat="43.76103" lon="4.13267">
        <ele>130.3</ele>
        <time>2026-05-31T07:41:01.999Z</time>
      </trkpt>
      <trkpt lat="43.76102" lon="4.13268">
        <ele>130.4</ele>
        <time>2026-05-31T07:41:02.999Z</time>
      </trkpt>
      <trkpt lat="43.76101" lon="4.1327">
        <ele>130.6</ele>
        <time>2026-05-31T07:41:03.999Z</time>
      </trkpt>
      <trkpt lat="43.761" lon="4.13271">
        <ele>130.7</ele>
        <time>2026-05-31T07:41:04.999Z</time>
      </trkpt>
      <trkpt lat="43.76099" lon="4.13273">
        <ele>130.7</ele>
        <time>2026-05-31T07:41:05.999Z</time>
      </trkpt>
      <trkpt lat="43.76097" lon="4.13275">
        <ele>131.3</ele>
        <time>2026-05-31T07:41:06.999Z</time>
      </trkpt>
      <trkpt lat="43.76097" lon="4.13275">
        <ele>131.6</ele>
        <time>2026-05-31T07:41:07.999Z</time>
      </trkpt>
      <trkpt lat="43.76097" lon="4.13276">
        <ele>131.8</ele>
        <time>2026-05-31T07:41:08.999Z</time>
      </trkpt>
      <trkpt lat="43.76097" lon="4.13277">
        <ele>132.8</ele>
        <time>2026-05-31T07:41:09.999Z</time>
      </trkpt>
      <trkpt lat="43.76098" lon="4.1328">
        <ele>133.2</ele>
        <time>2026-05-31T07:41:10.999Z</time>
      </trkpt>
      <trkpt lat="43.76099" lon="4.13282">
        <ele>133.4</ele>
        <time>2026-05-31T07:41:11.999Z</time>
      </trkpt>
      <trkpt lat="43.761" lon="4.13284">
        <ele>133.5</ele>
        <time>2026-05-31T07:41:12.999Z</time>
      </trkpt>
      <trkpt lat="43.76101" lon="4.13286">
        <ele>134.2</ele>
        <time>2026-05-31T07:41:13.999Z</time>
      </trkpt>
      <trkpt lat="43.76101" lon="4.13287">
        <ele>134.4</ele>
        <time>2026-05-31T07:41:14.999Z</time>
      </trkpt>
      <trkpt lat="43.76102" lon="4.13288">
        <ele>134.6</ele>
        <time>2026-05-31T07:41:15.999Z</time>
      </trkpt>
      <trkpt lat="43.76102" lon="4.1329">
        <ele>134.7</ele>
        <time>2026-05-31T07:41:16.999Z</time>
      </trkpt>
      <trkpt lat="43.76103" lon="4.13291">
        <ele>134.6</ele>
        <time>2026-05-31T07:41:17.999Z</time>
      </trkpt>
      <trkpt lat="43.76103" lon="4.13292">
        <ele>134.7</ele>
        <time>2026-05-31T07:41:18.999Z</time>
      </trkpt>
      <trkpt lat="43.76103" lon="4.13294">
        <ele>135</ele>
        <time>2026-05-31T07:41:19.999Z</time>
      </trkpt>
      <trkpt lat="43.76102" lon="4.13296">
        <ele>135.5</ele>
        <time>2026-05-31T07:41:20.999Z</time>
      </trkpt>
      <trkpt lat="43.76101" lon="4.13297">
        <ele>135.7</ele>
        <time>2026-05-31T07:41:21.999Z</time>
      </trkpt>
      <trkpt lat="43.76101" lon="4.13298">
        <ele>135.8</ele>
        <time>2026-05-31T07:41:22.999Z</time>
      </trkpt>
      <trkpt lat="43.761" lon="4.13299">
        <ele>135.3</ele>
        <time>2026-05-31T07:41:23.999Z</time>
      </trkpt>
      <trkpt lat="43.761" lon="4.13301">
        <ele>135.1</ele>
        <time>2026-05-31T07:41:24.999Z</time>
      </trkpt>
      <trkpt lat="43.76099" lon="4.13302">
        <ele>134.8</ele>
        <time>2026-05-31T07:41:25.999Z</time>
      </trkpt>
      <trkpt lat="43.76099" lon="4.13303">
        <ele>134.9</ele>
        <time>2026-05-31T07:41:26.999Z</time>
      </trkpt>
      <trkpt lat="43.76098" lon="4.13304">
        <ele>135.4</ele>
        <time>2026-05-31T07:41:27.999Z</time>
      </trkpt>
      <trkpt lat="43.76098" lon="4.13306">
        <ele>135.3</ele>
        <time>2026-05-31T07:41:28.999Z</time>
      </trkpt>
      <trkpt lat="43.76097" lon="4.13307">
        <ele>135.3</ele>
        <time>2026-05-31T07:41:29.999Z</time>
      </trkpt>
      <trkpt lat="43.76097" lon="4.13309">
        <ele>135.2</ele>
        <time>2026-05-31T07:41:30.999Z</time>
      </trkpt>
      <trkpt lat="43.76097" lon="4.13311">
        <ele>134.6</ele>
        <time>2026-05-31T07:41:31.999Z</time>
      </trkpt>
      <trkpt lat="43.76097" lon="4.13312">
        <ele>134.1</ele>
        <time>2026-05-31T07:41:32.999Z</time>
      </trkpt>
      <trkpt lat="43.76096" lon="4.13313">
        <ele>133.9</ele>
        <time>2026-05-31T07:41:33.999Z</time>
      </trkpt>
      <trkpt lat="43.76095" lon="4.13315">
        <ele>133.3</ele>
        <time>2026-05-31T07:41:34.999Z</time>
      </trkpt>
      <trkpt lat="43.76094" lon="4.13317">
        <ele>133.5</ele>
        <time>2026-05-31T07:41:35.999Z</time>
      </trkpt>
      <trkpt lat="43.76094" lon="4.13319">
        <ele>133.6</ele>
        <time>2026-05-31T07:41:36.999Z</time>
      </trkpt>
      <trkpt lat="43.76094" lon="4.13321">
        <ele>133.6</ele>
        <time>2026-05-31T07:41:37.999Z</time>
      </trkpt>
      <trkpt lat="43.76094" lon="4.13322">
        <ele>133.4</ele>
        <time>2026-05-31T07:41:38.999Z</time>
      </trkpt>
      <trkpt lat="43.76094" lon="4.13323">
        <ele>133.2</ele>
        <time>2026-05-31T07:41:39.999Z</time>
      </trkpt>
      <trkpt lat="43.76094" lon="4.13325">
        <ele>132.9</ele>
        <time>2026-05-31T07:41:40.999Z</time>
      </trkpt>
      <trkpt lat="43.76094" lon="4.13326">
        <ele>132.5</ele>
        <time>2026-05-31T07:41:41.999Z</time>
      </trkpt>
      <trkpt lat="43.76093" lon="4.13328">
        <ele>131.9</ele>
        <time>2026-05-31T07:41:42.999Z</time>
      </trkpt>
      <trkpt lat="43.76092" lon="4.13329">
        <ele>132</ele>
        <time>2026-05-31T07:41:43.999Z</time>
      </trkpt>
      <trkpt lat="43.76092" lon="4.1333">
        <ele>132</ele>
        <time>2026-05-31T07:41:44.999Z</time>
      </trkpt>
      <trkpt lat="43.76092" lon="4.13332">
        <ele>132.5</ele>
        <time>2026-05-31T07:41:45.999Z</time>
      </trkpt>
      <trkpt lat="43.76091" lon="4.13333">
        <ele>132.6</ele>
        <time>2026-05-31T07:41:46.999Z</time>
      </trkpt>
      <trkpt lat="43.76091" lon="4.13334">
        <ele>132.4</ele>
        <time>2026-05-31T07:41:47.999Z</time>
      </trkpt>
      <trkpt lat="43.76091" lon="4.13335">
        <ele>132.4</ele>
        <time>2026-05-31T07:41:48.999Z</time>
      </trkpt>
      <trkpt lat="43.76091" lon="4.13336">
        <ele>132.7</ele>
        <time>2026-05-31T07:41:49.999Z</time>
      </trkpt>
      <trkpt lat="43.76091" lon="4.13339">
        <ele>133.1</ele>
        <time>2026-05-31T07:41:50.999Z</time>
      </trkpt>
      <trkpt lat="43.7609" lon="4.1334">
        <ele>133.7</ele>
        <time>2026-05-31T07:41:51.999Z</time>
      </trkpt>
      <trkpt lat="43.7609" lon="4.13342">
        <ele>134.1</ele>
        <time>2026-05-31T07:41:52.999Z</time>
      </trkpt>
      <trkpt lat="43.7609" lon="4.13343">
        <ele>134.8</ele>
        <time>2026-05-31T07:41:53.999Z</time>
      </trkpt>
      <trkpt lat="43.76089" lon="4.13345">
        <ele>135.2</ele>
        <time>2026-05-31T07:41:54.999Z</time>
      </trkpt>
      <trkpt lat="43.76089" lon="4.13346">
        <ele>135.4</ele>
        <time>2026-05-31T07:41:55.999Z</time>
      </trkpt>
      <trkpt lat="43.76088" lon="4.13346">
        <ele>136.2</ele>
        <time>2026-05-31T07:41:56.999Z</time>
      </trkpt>
      <trkpt lat="43.76088" lon="4.13348">
        <ele>136.4</ele>
        <time>2026-05-31T07:41:57.999Z</time>
      </trkpt>
      <trkpt lat="43.76088" lon="4.13349">
        <ele>136.3</ele>
        <time>2026-05-31T07:41:58.999Z</time>
      </trkpt>
      <trkpt lat="43.76087" lon="4.13351">
        <ele>136.2</ele>
        <time>2026-05-31T07:41:59.999Z</time>
      </trkpt>
      <trkpt lat="43.76086" lon="4.13352">
        <ele>135.7</ele>
        <time>2026-05-31T07:42:00.999Z</time>
      </trkpt>
      <trkpt lat="43.76086" lon="4.13354">
        <ele>135.9</ele>
        <time>2026-05-31T07:42:01.999Z</time>
      </trkpt>
      <trkpt lat="43.76086" lon="4.13356">
        <ele>136</ele>
        <time>2026-05-31T07:42:02.999Z</time>
      </trkpt>
      <trkpt lat="43.76084" lon="4.13358">
        <ele>135.8</ele>
        <time>2026-05-31T07:42:03.999Z</time>
      </trkpt>
      <trkpt lat="43.76084" lon="4.13359">
        <ele>135.9</ele>
        <time>2026-05-31T07:42:04.999Z</time>
      </trkpt>
      <trkpt lat="43.76083" lon="4.1336">
        <ele>135.8</ele>
        <time>2026-05-31T07:42:05.999Z</time>
      </trkpt>
      <trkpt lat="43.76083" lon="4.13361">
        <ele>135.8</ele>
        <time>2026-05-31T07:42:06.999Z</time>
      </trkpt>
      <trkpt lat="43.76082" lon="4.13362">
        <ele>135.6</ele>
        <time>2026-05-31T07:42:07.999Z</time>
      </trkpt>
      <trkpt lat="43.76083" lon="4.13362">
        <ele>135.8</ele>
        <time>2026-05-31T07:42:08.999Z</time>
      </trkpt>
      <trkpt lat="43.76083" lon="4.13363">
        <ele>135.9</ele>
        <time>2026-05-31T07:42:09.999Z</time>
      </trkpt>
      <trkpt lat="43.76083" lon="4.13365">
        <ele>135.6</ele>
        <time>2026-05-31T07:42:10.999Z</time>
      </trkpt>
      <trkpt lat="43.76082" lon="4.13366">
        <ele>135.3</ele>
        <time>2026-05-31T07:42:11.999Z</time>
      </trkpt>
      <trkpt lat="43.76082" lon="4.13368">
        <ele>134.8</ele>
        <time>2026-05-31T07:42:12.999Z</time>
      </trkpt>
      <trkpt lat="43.76081" lon="4.1337">
        <ele>134.7</ele>
        <time>2026-05-31T07:42:13.999Z</time>
      </trkpt>
      <trkpt lat="43.76081" lon="4.13371">
        <ele>134.3</ele>
        <time>2026-05-31T07:42:14.999Z</time>
      </trkpt>
      <trkpt lat="43.76081" lon="4.13372">
        <ele>133.8</ele>
        <time>2026-05-31T07:42:15.999Z</time>
      </trkpt>
      <trkpt lat="43.76081" lon="4.13373">
        <ele>133.5</ele>
        <time>2026-05-31T07:42:16.999Z</time>
      </trkpt>
      <trkpt lat="43.7608" lon="4.13374">
        <ele>133.1</ele>
        <time>2026-05-31T07:42:17.999Z</time>
      </trkpt>
      <trkpt lat="43.7608" lon="4.13374">
        <ele>132.7</ele>
        <time>2026-05-31T07:42:18.999Z</time>
      </trkpt>
      <trkpt lat="43.7608" lon="4.13375">
        <ele>132.2</ele>
        <time>2026-05-31T07:42:19.999Z</time>
      </trkpt>
      <trkpt lat="43.7608" lon="4.13377">
        <ele>131.7</ele>
        <time>2026-05-31T07:42:20.999Z</time>
      </trkpt>
      <trkpt lat="43.7608" lon="4.13378">
        <ele>131.5</ele>
        <time>2026-05-31T07:42:21.999Z</time>
      </trkpt>
      <trkpt lat="43.7608" lon="4.13378">
        <ele>132</ele>
        <time>2026-05-31T07:42:22.999Z</time>
      </trkpt>
      <trkpt lat="43.7608" lon="4.13379">
        <ele>132.2</ele>
        <time>2026-05-31T07:42:23.999Z</time>
      </trkpt>
      <trkpt lat="43.7608" lon="4.13381">
        <ele>132.2</ele>
        <time>2026-05-31T07:42:24.999Z</time>
      </trkpt>
      <trkpt lat="43.7608" lon="4.13382">
        <ele>132</ele>
        <time>2026-05-31T07:42:25.999Z</time>
      </trkpt>
      <trkpt lat="43.7608" lon="4.13383">
        <ele>132.2</ele>
        <time>2026-05-31T07:42:26.999Z</time>
      </trkpt>
      <trkpt lat="43.76079" lon="4.13384">
        <ele>132.4</ele>
        <time>2026-05-31T07:42:27.999Z</time>
      </trkpt>
      <trkpt lat="43.76079" lon="4.13386">
        <ele>132.3</ele>
        <time>2026-05-31T07:42:28.999Z</time>
      </trkpt>
      <trkpt lat="43.76079" lon="4.13387">
        <ele>132.2</ele>
        <time>2026-05-31T07:42:29.999Z</time>
      </trkpt>
      <trkpt lat="43.76078" lon="4.13388">
        <ele>132.1</ele>
        <time>2026-05-31T07:42:30.999Z</time>
      </trkpt>
      <trkpt lat="43.76079" lon="4.13389">
        <ele>131.9</ele>
        <time>2026-05-31T07:42:31.999Z</time>
      </trkpt>
      <trkpt lat="43.76079" lon="4.1339">
        <ele>131.7</ele>
        <time>2026-05-31T07:42:32.999Z</time>
      </trkpt>
      <trkpt lat="43.76079" lon="4.13391">
        <ele>131.4</ele>
        <time>2026-05-31T07:42:33.999Z</time>
      </trkpt>
      <trkpt lat="43.76079" lon="4.13392">
        <ele>131.3</ele>
        <time>2026-05-31T07:42:34.999Z</time>
      </trkpt>
      <trkpt lat="43.76079" lon="4.13393">
        <ele>131.1</ele>
        <time>2026-05-31T07:42:35.999Z</time>
      </trkpt>
      <trkpt lat="43.76079" lon="4.13395">
        <ele>130.8</ele>
        <time>2026-05-31T07:42:36.999Z</time>
      </trkpt>
      <trkpt lat="43.76079" lon="4.13396">
        <ele>130.8</ele>
        <time>2026-05-31T07:42:37.999Z</time>
      </trkpt>
      <trkpt lat="43.76078" lon="4.13398">
        <ele>130.5</ele>
        <time>2026-05-31T07:42:38.999Z</time>
      </trkpt>
      <trkpt lat="43.76078" lon="4.13399">
        <ele>130.4</ele>
        <time>2026-05-31T07:42:39.999Z</time>
      </trkpt>
      <trkpt lat="43.76077" lon="4.134">
        <ele>130.5</ele>
        <time>2026-05-31T07:42:40.999Z</time>
      </trkpt>
      <trkpt lat="43.76076" lon="4.13402">
        <ele>130.2</ele>
        <time>2026-05-31T07:42:41.999Z</time>
      </trkpt>
      <trkpt lat="43.76075" lon="4.13405">
        <ele>130.1</ele>
        <time>2026-05-31T07:42:42.999Z</time>
      </trkpt>
      <trkpt lat="43.76074" lon="4.13406">
        <ele>130.1</ele>
        <time>2026-05-31T07:42:43.999Z</time>
      </trkpt>
      <trkpt lat="43.76073" lon="4.13408">
        <ele>130</ele>
        <time>2026-05-31T07:42:44.999Z</time>
      </trkpt>
      <trkpt lat="43.76073" lon="4.13409">
        <ele>129.8</ele>
        <time>2026-05-31T07:42:45.999Z</time>
      </trkpt>
      <trkpt lat="43.76072" lon="4.13411">
        <ele>129.5</ele>
        <time>2026-05-31T07:42:46.999Z</time>
      </trkpt>
      <trkpt lat="43.76071" lon="4.13411">
        <ele>129.2</ele>
        <time>2026-05-31T07:42:47.999Z</time>
      </trkpt>
      <trkpt lat="43.7607" lon="4.13412">
        <ele>128.6</ele>
        <time>2026-05-31T07:42:48.999Z</time>
      </trkpt>
      <trkpt lat="43.76069" lon="4.13413">
        <ele>128.4</ele>
        <time>2026-05-31T07:42:49.999Z</time>
      </trkpt>
      <trkpt lat="43.76069" lon="4.13414">
        <ele>128.3</ele>
        <time>2026-05-31T07:42:50.999Z</time>
      </trkpt>
      <trkpt lat="43.76068" lon="4.13414">
        <ele>128.3</ele>
        <time>2026-05-31T07:42:51.999Z</time>
      </trkpt>
      <trkpt lat="43.76067" lon="4.13415">
        <ele>128.3</ele>
        <time>2026-05-31T07:42:52.999Z</time>
      </trkpt>
      <trkpt lat="43.76065" lon="4.13415">
        <ele>128.3</ele>
        <time>2026-05-31T07:42:53.999Z</time>
      </trkpt>
      <trkpt lat="43.76064" lon="4.13415">
        <ele>128.3</ele>
        <time>2026-05-31T07:42:54.999Z</time>
      </trkpt>
      <trkpt lat="43.76062" lon="4.13416">
        <ele>128.5</ele>
        <time>2026-05-31T07:42:55.999Z</time>
      </trkpt>
      <trkpt lat="43.76061" lon="4.13418">
        <ele>128.8</ele>
        <time>2026-05-31T07:42:56.999Z</time>
      </trkpt>
      <trkpt lat="43.7606" lon="4.13418">
        <ele>128.4</ele>
        <time>2026-05-31T07:42:57.999Z</time>
      </trkpt>
      <trkpt lat="43.76059" lon="4.13419">
        <ele>128.2</ele>
        <time>2026-05-31T07:42:58.999Z</time>
      </trkpt>
      <trkpt lat="43.76057" lon="4.13422">
        <ele>128.1</ele>
        <time>2026-05-31T07:42:59.999Z</time>
      </trkpt>
      <trkpt lat="43.76056" lon="4.13423">
        <ele>127.8</ele>
        <time>2026-05-31T07:43:00.999Z</time>
      </trkpt>
      <trkpt lat="43.76056" lon="4.13424">
        <ele>127.6</ele>
        <time>2026-05-31T07:43:01.999Z</time>
      </trkpt>
      <trkpt lat="43.76055" lon="4.13425">
        <ele>127.5</ele>
        <time>2026-05-31T07:43:02.999Z</time>
      </trkpt>
      <trkpt lat="43.76055" lon="4.13426">
        <ele>127.2</ele>
        <time>2026-05-31T07:43:03.999Z</time>
      </trkpt>
      <trkpt lat="43.76055" lon="4.13428">
        <ele>127.4</ele>
        <time>2026-05-31T07:43:04.999Z</time>
      </trkpt>
      <trkpt lat="43.76055" lon="4.13429">
        <ele>128.1</ele>
        <time>2026-05-31T07:43:05.999Z</time>
      </trkpt>
      <trkpt lat="43.76056" lon="4.1343">
        <ele>128.3</ele>
        <time>2026-05-31T07:43:06.999Z</time>
      </trkpt>
      <trkpt lat="43.76056" lon="4.13432">
        <ele>128.6</ele>
        <time>2026-05-31T07:43:07.999Z</time>
      </trkpt>
      <trkpt lat="43.76056" lon="4.13433">
        <ele>129.4</ele>
        <time>2026-05-31T07:43:08.999Z</time>
      </trkpt>
      <trkpt lat="43.76057" lon="4.13435">
        <ele>130</ele>
        <time>2026-05-31T07:43:09.999Z</time>
      </trkpt>
      <trkpt lat="43.76057" lon="4.13436">
        <ele>130.4</ele>
        <time>2026-05-31T07:43:10.999Z</time>
      </trkpt>
      <trkpt lat="43.76059" lon="4.13438">
        <ele>130.4</ele>
        <time>2026-05-31T07:43:11.999Z</time>
      </trkpt>
      <trkpt lat="43.7606" lon="4.1344">
        <ele>130.5</ele>
        <time>2026-05-31T07:43:12.999Z</time>
      </trkpt>
      <trkpt lat="43.76061" lon="4.1344">
        <ele>130.1</ele>
        <time>2026-05-31T07:43:13.999Z</time>
      </trkpt>
      <trkpt lat="43.76063" lon="4.13442">
        <ele>130.2</ele>
        <time>2026-05-31T07:43:14.999Z</time>
      </trkpt>
      <trkpt lat="43.76064" lon="4.13443">
        <ele>130.1</ele>
        <time>2026-05-31T07:43:15.999Z</time>
      </trkpt>
      <trkpt lat="43.76065" lon="4.13444">
        <ele>129.7</ele>
        <time>2026-05-31T07:43:16.999Z</time>
      </trkpt>
      <trkpt lat="43.76065" lon="4.13444">
        <ele>129.4</ele>
        <time>2026-05-31T07:43:17.999Z</time>
      </trkpt>
      <trkpt lat="43.76066" lon="4.13443">
        <ele>129.3</ele>
        <time>2026-05-31T07:43:18.999Z</time>
      </trkpt>
      <trkpt lat="43.76067" lon="4.13443">
        <ele>129.1</ele>
        <time>2026-05-31T07:43:19.999Z</time>
      </trkpt>
      <trkpt lat="43.76069" lon="4.13443">
        <ele>129</ele>
        <time>2026-05-31T07:43:20.999Z</time>
      </trkpt>
      <trkpt lat="43.7607" lon="4.13443">
        <ele>128.9</ele>
        <time>2026-05-31T07:43:21.999Z</time>
      </trkpt>
      <trkpt lat="43.7607" lon="4.13444">
        <ele>128</ele>
        <time>2026-05-31T07:43:22.999Z</time>
      </trkpt>
      <trkpt lat="43.76071" lon="4.13443">
        <ele>127.3</ele>
        <time>2026-05-31T07:43:23.999Z</time>
      </trkpt>
      <trkpt lat="43.76071" lon="4.13444">
        <ele>127.2</ele>
        <time>2026-05-31T07:43:24.999Z</time>
      </trkpt>
      <trkpt lat="43.76072" lon="4.13444">
        <ele>126.6</ele>
        <time>2026-05-31T07:43:25.999Z</time>
      </trkpt>
      <trkpt lat="43.76072" lon="4.13444">
        <ele>126.2</ele>
        <time>2026-05-31T07:43:26.999Z</time>
      </trkpt>
      <trkpt lat="43.76072" lon="4.13444">
        <ele>126.9</ele>
        <time>2026-05-31T07:43:27.999Z</time>
      </trkpt>
      <trkpt lat="43.76073" lon="4.13444">
        <ele>126.7</ele>
        <time>2026-05-31T07:43:28.999Z</time>
      </trkpt>
      <trkpt lat="43.76073" lon="4.13444">
        <ele>126.2</ele>
        <time>2026-05-31T07:43:29.999Z</time>
      </trkpt>
      <trkpt lat="43.76073" lon="4.13444">
        <ele>126.1</ele>
        <time>2026-05-31T07:43:30.999Z</time>
      </trkpt>
      <trkpt lat="43.76073" lon="4.13444">
        <ele>126.1</ele>
        <time>2026-05-31T07:43:31.999Z</time>
      </trkpt>
      <trkpt lat="43.76073" lon="4.13444">
        <ele>126.2</ele>
        <time>2026-05-31T07:43:32.999Z</time>
      </trkpt>
      <trkpt lat="43.76073" lon="4.13445">
        <ele>126.2</ele>
        <time>2026-05-31T07:43:33.999Z</time>
      </trkpt>
      <trkpt lat="43.76073" lon="4.13445">
        <ele>126.3</ele>
        <time>2026-05-31T07:43:34.999Z</time>
      </trkpt>
      <trkpt lat="43.76074" lon="4.13446">
        <ele>126.6</ele>
        <time>2026-05-31T07:43:35.999Z</time>
      </trkpt>
      <trkpt lat="43.76075" lon="4.13447">
        <ele>126.5</ele>
        <time>2026-05-31T07:43:36.999Z</time>
      </trkpt>
      <trkpt lat="43.76076" lon="4.13448">
        <ele>126.4</ele>
        <time>2026-05-31T07:43:37.999Z</time>
      </trkpt>
      <trkpt lat="43.76077" lon="4.1345">
        <ele>126.2</ele>
        <time>2026-05-31T07:43:38.999Z</time>
      </trkpt>
      <trkpt lat="43.76078" lon="4.13452">
        <ele>126.1</ele>
        <time>2026-05-31T07:43:39.999Z</time>
      </trkpt>
      <trkpt lat="43.7608" lon="4.13454">
        <ele>126.2</ele>
        <time>2026-05-31T07:43:40.999Z</time>
      </trkpt>
      <trkpt lat="43.76081" lon="4.13454">
        <ele>126.2</ele>
        <time>2026-05-31T07:43:41.999Z</time>
      </trkpt>
      <trkpt lat="43.76081" lon="4.13457">
        <ele>126</ele>
        <time>2026-05-31T07:43:42.999Z</time>
      </trkpt>
      <trkpt lat="43.76082" lon="4.13458">
        <ele>126.2</ele>
        <time>2026-05-31T07:43:43.999Z</time>
      </trkpt>
      <trkpt lat="43.76082" lon="4.1346">
        <ele>126.4</ele>
        <time>2026-05-31T07:43:44.999Z</time>
      </trkpt>
      <trkpt lat="43.76083" lon="4.13462">
        <ele>126.3</ele>
        <time>2026-05-31T07:43:45.999Z</time>
      </trkpt>
      <trkpt lat="43.76084" lon="4.13465">
        <ele>126.1</ele>
        <time>2026-05-31T07:43:46.999Z</time>
      </trkpt>
      <trkpt lat="43.76085" lon="4.13467">
        <ele>125.8</ele>
        <time>2026-05-31T07:43:47.999Z</time>
      </trkpt>
      <trkpt lat="43.76085" lon="4.13468">
        <ele>125.8</ele>
        <time>2026-05-31T07:43:49.000Z</time>
      </trkpt>
      <trkpt lat="43.76086" lon="4.1347">
        <ele>125.8</ele>
        <time>2026-05-31T07:43:50.000Z</time>
      </trkpt>
      <trkpt lat="43.76087" lon="4.1347">
        <ele>126</ele>
        <time>2026-05-31T07:43:51.000Z</time>
      </trkpt>
      <trkpt lat="43.76088" lon="4.13471">
        <ele>126.1</ele>
        <time>2026-05-31T07:43:52.000Z</time>
      </trkpt>
      <trkpt lat="43.76088" lon="4.13472">
        <ele>126</ele>
        <time>2026-05-31T07:43:53.000Z</time>
      </trkpt>
      <trkpt lat="43.76089" lon="4.13474">
        <ele>125.9</ele>
        <time>2026-05-31T07:43:54.000Z</time>
      </trkpt>
      <trkpt lat="43.76089" lon="4.13476">
        <ele>125.7</ele>
        <time>2026-05-31T07:43:55.000Z</time>
      </trkpt>
      <trkpt lat="43.76089" lon="4.13478">
        <ele>125.4</ele>
        <time>2026-05-31T07:43:56.000Z</time>
      </trkpt>
      <trkpt lat="43.76089" lon="4.1348">
        <ele>125.5</ele>
        <time>2026-05-31T07:43:57.000Z</time>
      </trkpt>
      <trkpt lat="43.76089" lon="4.13481">
        <ele>125.7</ele>
        <time>2026-05-31T07:43:58.000Z</time>
      </trkpt>
      <trkpt lat="43.7609" lon="4.13483">
        <ele>125.6</ele>
        <time>2026-05-31T07:43:59.000Z</time>
      </trkpt>
      <trkpt lat="43.7609" lon="4.13485">
        <ele>125.6</ele>
        <time>2026-05-31T07:44:00.000Z</time>
      </trkpt>
      <trkpt lat="43.76091" lon="4.13486">
        <ele>125.7</ele>
        <time>2026-05-31T07:44:01.000Z</time>
      </trkpt>
      <trkpt lat="43.76091" lon="4.13487">
        <ele>125.8</ele>
        <time>2026-05-31T07:44:02.000Z</time>
      </trkpt>
      <trkpt lat="43.76091" lon="4.13489">
        <ele>125.8</ele>
        <time>2026-05-31T07:44:03.000Z</time>
      </trkpt>
      <trkpt lat="43.76091" lon="4.13489">
        <ele>125.9</ele>
        <time>2026-05-31T07:44:04.000Z</time>
      </trkpt>
      <trkpt lat="43.76091" lon="4.1349">
        <ele>126.3</ele>
        <time>2026-05-31T07:44:05.000Z</time>
      </trkpt>
      <trkpt lat="43.76091" lon="4.13491">
        <ele>126.3</ele>
        <time>2026-05-31T07:44:06.000Z</time>
      </trkpt>
      <trkpt lat="43.76091" lon="4.13492">
        <ele>126.7</ele>
        <time>2026-05-31T07:44:07.000Z</time>
      </trkpt>
      <trkpt lat="43.76091" lon="4.13495">
        <ele>127.1</ele>
        <time>2026-05-31T07:44:08.000Z</time>
      </trkpt>
      <trkpt lat="43.76091" lon="4.13497">
        <ele>127.5</ele>
        <time>2026-05-31T07:44:09.000Z</time>
      </trkpt>
      <trkpt lat="43.76092" lon="4.13498">
        <ele>127.7</ele>
        <time>2026-05-31T07:44:10.000Z</time>
      </trkpt>
      <trkpt lat="43.76092" lon="4.13499">
        <ele>128.2</ele>
        <time>2026-05-31T07:44:11.000Z</time>
      </trkpt>
      <trkpt lat="43.76092" lon="4.135">
        <ele>128.5</ele>
        <time>2026-05-31T07:44:12.000Z</time>
      </trkpt>
      <trkpt lat="43.76092" lon="4.13501">
        <ele>128.4</ele>
        <time>2026-05-31T07:44:13.000Z</time>
      </trkpt>
      <trkpt lat="43.76092" lon="4.13502">
        <ele>128.6</ele>
        <time>2026-05-31T07:44:14.000Z</time>
      </trkpt>
      <trkpt lat="43.76092" lon="4.13504">
        <ele>127.9</ele>
        <time>2026-05-31T07:44:15.000Z</time>
      </trkpt>
      <trkpt lat="43.76092" lon="4.13505">
        <ele>127.7</ele>
        <time>2026-05-31T07:44:16.000Z</time>
      </trkpt>
      <trkpt lat="43.76093" lon="4.13507">
        <ele>127.6</ele>
        <time>2026-05-31T07:44:17.000Z</time>
      </trkpt>
      <trkpt lat="43.76094" lon="4.13508">
        <ele>127.4</ele>
        <time>2026-05-31T07:44:18.000Z</time>
      </trkpt>
      <trkpt lat="43.76094" lon="4.1351">
        <ele>127.5</ele>
        <time>2026-05-31T07:44:19.000Z</time>
      </trkpt>
      <trkpt lat="43.76095" lon="4.13511">
        <ele>127.3</ele>
        <time>2026-05-31T07:44:20.000Z</time>
      </trkpt>
      <trkpt lat="43.76095" lon="4.13513">
        <ele>127.4</ele>
        <time>2026-05-31T07:44:21.000Z</time>
      </trkpt>
      <trkpt lat="43.76096" lon="4.13514">
        <ele>127.5</ele>
        <time>2026-05-31T07:44:22.000Z</time>
      </trkpt>
      <trkpt lat="43.76096" lon="4.13515">
        <ele>127.1</ele>
        <time>2026-05-31T07:44:23.000Z</time>
      </trkpt>
      <trkpt lat="43.76096" lon="4.13517">
        <ele>127</ele>
        <time>2026-05-31T07:44:24.000Z</time>
      </trkpt>
      <trkpt lat="43.76096" lon="4.13518">
        <ele>127.1</ele>
        <time>2026-05-31T07:44:25.000Z</time>
      </trkpt>
      <trkpt lat="43.76096" lon="4.13518">
        <ele>127.2</ele>
        <time>2026-05-31T07:44:26.000Z</time>
      </trkpt>
      <trkpt lat="43.76096" lon="4.13519">
        <ele>127.3</ele>
        <time>2026-05-31T07:44:27.000Z</time>
      </trkpt>
      <trkpt lat="43.76096" lon="4.13519">
        <ele>127.3</ele>
        <time>2026-05-31T07:44:28.000Z</time>
      </trkpt>
      <trkpt lat="43.76096" lon="4.13521">
        <ele>127.2</ele>
        <time>2026-05-31T07:44:29.000Z</time>
      </trkpt>
      <trkpt lat="43.76096" lon="4.13524">
        <ele>126.9</ele>
        <time>2026-05-31T07:44:30.000Z</time>
      </trkpt>
      <trkpt lat="43.76096" lon="4.13525">
        <ele>126.4</ele>
        <time>2026-05-31T07:44:31.000Z</time>
      </trkpt>
      <trkpt lat="43.76097" lon="4.13527">
        <ele>125.8</ele>
        <time>2026-05-31T07:44:32.000Z</time>
      </trkpt>
      <trkpt lat="43.76097" lon="4.13528">
        <ele>125.1</ele>
        <time>2026-05-31T07:44:33.000Z</time>
      </trkpt>
      <trkpt lat="43.76097" lon="4.13528">
        <ele>125</ele>
        <time>2026-05-31T07:44:34.000Z</time>
      </trkpt>
      <trkpt lat="43.76098" lon="4.13529">
        <ele>124.9</ele>
        <time>2026-05-31T07:44:35.000Z</time>
      </trkpt>
      <trkpt lat="43.76098" lon="4.13531">
        <ele>125</ele>
        <time>2026-05-31T07:44:36.000Z</time>
      </trkpt>
      <trkpt lat="43.76099" lon="4.13533">
        <ele>125.1</ele>
        <time>2026-05-31T07:44:37.000Z</time>
      </trkpt>
      <trkpt lat="43.76099" lon="4.13534">
        <ele>125.2</ele>
        <time>2026-05-31T07:44:38.000Z</time>
      </trkpt>
      <trkpt lat="43.76099" lon="4.13536">
        <ele>125.4</ele>
        <time>2026-05-31T07:44:39.000Z</time>
      </trkpt>
      <trkpt lat="43.76099" lon="4.13538">
        <ele>125.5</ele>
        <time>2026-05-31T07:44:40.000Z</time>
      </trkpt>
      <trkpt lat="43.76098" lon="4.13539">
        <ele>125.6</ele>
        <time>2026-05-31T07:44:41.000Z</time>
      </trkpt>
      <trkpt lat="43.76098" lon="4.13539">
        <ele>125.5</ele>
        <time>2026-05-31T07:44:42.000Z</time>
      </trkpt>
      <trkpt lat="43.76098" lon="4.13541">
        <ele>125</ele>
        <time>2026-05-31T07:44:43.000Z</time>
      </trkpt>
      <trkpt lat="43.76098" lon="4.13542">
        <ele>124.9</ele>
        <time>2026-05-31T07:44:44.000Z</time>
      </trkpt>
      <trkpt lat="43.76098" lon="4.13544">
        <ele>125.5</ele>
        <time>2026-05-31T07:44:45.000Z</time>
      </trkpt>
      <trkpt lat="43.76098" lon="4.13546">
        <ele>125.6</ele>
        <time>2026-05-31T07:44:46.000Z</time>
      </trkpt>
      <trkpt lat="43.76098" lon="4.13547">
        <ele>125.6</ele>
        <time>2026-05-31T07:44:47.000Z</time>
      </trkpt>
      <trkpt lat="43.76098" lon="4.13549">
        <ele>125.5</ele>
        <time>2026-05-31T07:44:48.000Z</time>
      </trkpt>
      <trkpt lat="43.76098" lon="4.13551">
        <ele>125.4</ele>
        <time>2026-05-31T07:44:49.000Z</time>
      </trkpt>
      <trkpt lat="43.76098" lon="4.13552">
        <ele>125.1</ele>
        <time>2026-05-31T07:44:50.000Z</time>
      </trkpt>
      <trkpt lat="43.76098" lon="4.13552">
        <ele>125.3</ele>
        <time>2026-05-31T07:44:51.000Z</time>
      </trkpt>
      <trkpt lat="43.76099" lon="4.13552">
        <ele>125.5</ele>
        <time>2026-05-31T07:44:52.000Z</time>
      </trkpt>
      <trkpt lat="43.761" lon="4.13553">
        <ele>125.8</ele>
        <time>2026-05-31T07:44:53.000Z</time>
      </trkpt>
      <trkpt lat="43.761" lon="4.13555">
        <ele>125.6</ele>
        <time>2026-05-31T07:44:54.000Z</time>
      </trkpt>
      <trkpt lat="43.761" lon="4.13556">
        <ele>125.5</ele>
        <time>2026-05-31T07:44:55.000Z</time>
      </trkpt>
      <trkpt lat="43.76099" lon="4.13557">
        <ele>125.4</ele>
        <time>2026-05-31T07:44:56.000Z</time>
      </trkpt>
      <trkpt lat="43.76099" lon="4.13558">
        <ele>125.4</ele>
        <time>2026-05-31T07:44:57.000Z</time>
      </trkpt>
      <trkpt lat="43.76098" lon="4.1356">
        <ele>125.6</ele>
        <time>2026-05-31T07:44:58.000Z</time>
      </trkpt>
      <trkpt lat="43.76098" lon="4.13562">
        <ele>125.7</ele>
        <time>2026-05-31T07:44:59.000Z</time>
      </trkpt>
      <trkpt lat="43.76099" lon="4.13565">
        <ele>125.9</ele>
        <time>2026-05-31T07:45:00.000Z</time>
      </trkpt>
      <trkpt lat="43.76099" lon="4.13566">
        <ele>126</ele>
        <time>2026-05-31T07:45:01.000Z</time>
      </trkpt>
      <trkpt lat="43.761" lon="4.13567">
        <ele>125.7</ele>
        <time>2026-05-31T07:45:02.000Z</time>
      </trkpt>
      <trkpt lat="43.761" lon="4.13569">
        <ele>125.8</ele>
        <time>2026-05-31T07:45:03.000Z</time>
      </trkpt>
      <trkpt lat="43.761" lon="4.1357">
        <ele>126</ele>
        <time>2026-05-31T07:45:04.000Z</time>
      </trkpt>
      <trkpt lat="43.76101" lon="4.13571">
        <ele>125.9</ele>
        <time>2026-05-31T07:45:05.000Z</time>
      </trkpt>
      <trkpt lat="43.76101" lon="4.13572">
        <ele>126.1</ele>
        <time>2026-05-31T07:45:06.000Z</time>
      </trkpt>
      <trkpt lat="43.76102" lon="4.13573">
        <ele>126.3</ele>
        <time>2026-05-31T07:45:07.000Z</time>
      </trkpt>
      <trkpt lat="43.76102" lon="4.13575">
        <ele>126.2</ele>
        <time>2026-05-31T07:45:08.000Z</time>
      </trkpt>
      <trkpt lat="43.76102" lon="4.13576">
        <ele>126.1</ele>
        <time>2026-05-31T07:45:09.000Z</time>
      </trkpt>
      <trkpt lat="43.76102" lon="4.13577">
        <ele>126.1</ele>
        <time>2026-05-31T07:45:10.000Z</time>
      </trkpt>
      <trkpt lat="43.76102" lon="4.13578">
        <ele>125.9</ele>
        <time>2026-05-31T07:45:11.000Z</time>
      </trkpt>
      <trkpt lat="43.76102" lon="4.13579">
        <ele>125.9</ele>
        <time>2026-05-31T07:45:12.000Z</time>
      </trkpt>
      <trkpt lat="43.76102" lon="4.1358">
        <ele>125.8</ele>
        <time>2026-05-31T07:45:13.000Z</time>
      </trkpt>
      <trkpt lat="43.76103" lon="4.13581">
        <ele>125.4</ele>
        <time>2026-05-31T07:45:14.000Z</time>
      </trkpt>
      <trkpt lat="43.76103" lon="4.13583">
        <ele>125.1</ele>
        <time>2026-05-31T07:45:15.000Z</time>
      </trkpt>
      <trkpt lat="43.76103" lon="4.13584">
        <ele>125</ele>
        <time>2026-05-31T07:45:16.000Z</time>
      </trkpt>
      <trkpt lat="43.76103" lon="4.13586">
        <ele>124.8</ele>
        <time>2026-05-31T07:45:17.000Z</time>
      </trkpt>
      <trkpt lat="43.76103" lon="4.13586">
        <ele>124.6</ele>
        <time>2026-05-31T07:45:18.000Z</time>
      </trkpt>
      <trkpt lat="43.76103" lon="4.13587">
        <ele>124.5</ele>
        <time>2026-05-31T07:45:19.000Z</time>
      </trkpt>
      <trkpt lat="43.76103" lon="4.13588">
        <ele>124.6</ele>
        <time>2026-05-31T07:45:20.000Z</time>
      </trkpt>
      <trkpt lat="43.76103" lon="4.13588">
        <ele>125.1</ele>
        <time>2026-05-31T07:45:21.000Z</time>
      </trkpt>
      <trkpt lat="43.76103" lon="4.13589">
        <ele>124.9</ele>
        <time>2026-05-31T07:45:22.000Z</time>
      </trkpt>
      <trkpt lat="43.76103" lon="4.13591">
        <ele>124.7</ele>
        <time>2026-05-31T07:45:23.000Z</time>
      </trkpt>
      <trkpt lat="43.76104" lon="4.13592">
        <ele>124.6</ele>
        <time>2026-05-31T07:45:24.000Z</time>
      </trkpt>
      <trkpt lat="43.76104" lon="4.13593">
        <ele>124.6</ele>
        <time>2026-05-31T07:45:25.000Z</time>
      </trkpt>
      <trkpt lat="43.76105" lon="4.13595">
        <ele>124.6</ele>
        <time>2026-05-31T07:45:26.000Z</time>
      </trkpt>
      <trkpt lat="43.76104" lon="4.13596">
        <ele>124.6</ele>
        <time>2026-05-31T07:45:27.000Z</time>
      </trkpt>
      <trkpt lat="43.76105" lon="4.13597">
        <ele>124.8</ele>
        <time>2026-05-31T07:45:28.000Z</time>
      </trkpt>
      <trkpt lat="43.76105" lon="4.13599">
        <ele>124.9</ele>
        <time>2026-05-31T07:45:29.000Z</time>
      </trkpt>
      <trkpt lat="43.76105" lon="4.13601">
        <ele>125.1</ele>
        <time>2026-05-31T07:45:30.000Z</time>
      </trkpt>
      <trkpt lat="43.76105" lon="4.13602">
        <ele>125</ele>
        <time>2026-05-31T07:45:31.000Z</time>
      </trkpt>
      <trkpt lat="43.76105" lon="4.13604">
        <ele>124.9</ele>
        <time>2026-05-31T07:45:32.000Z</time>
      </trkpt>
      <trkpt lat="43.76106" lon="4.13605">
        <ele>124.7</ele>
        <time>2026-05-31T07:45:33.000Z</time>
      </trkpt>
      <trkpt lat="43.76106" lon="4.13606">
        <ele>124.4</ele>
        <time>2026-05-31T07:45:34.000Z</time>
      </trkpt>
      <trkpt lat="43.76106" lon="4.13607">
        <ele>124.4</ele>
        <time>2026-05-31T07:45:35.000Z</time>
      </trkpt>
      <trkpt lat="43.76106" lon="4.13607">
        <ele>124.9</ele>
        <time>2026-05-31T07:45:36.000Z</time>
      </trkpt>
      <trkpt lat="43.76106" lon="4.13609">
        <ele>125.1</ele>
        <time>2026-05-31T07:45:37.000Z</time>
      </trkpt>
      <trkpt lat="43.76106" lon="4.13611">
        <ele>125.1</ele>
        <time>2026-05-31T07:45:38.000Z</time>
      </trkpt>
      <trkpt lat="43.76106" lon="4.13613">
        <ele>125</ele>
        <time>2026-05-31T07:45:39.000Z</time>
      </trkpt>
      <trkpt lat="43.76107" lon="4.13614">
        <ele>124.9</ele>
        <time>2026-05-31T07:45:40.000Z</time>
      </trkpt>
      <trkpt lat="43.76107" lon="4.13616">
        <ele>124.9</ele>
        <time>2026-05-31T07:45:41.000Z</time>
      </trkpt>
      <trkpt lat="43.76107" lon="4.13618">
        <ele>124.8</ele>
        <time>2026-05-31T07:45:42.000Z</time>
      </trkpt>
      <trkpt lat="43.76108" lon="4.1362">
        <ele>124.9</ele>
        <time>2026-05-31T07:45:43.000Z</time>
      </trkpt>
      <trkpt lat="43.76107" lon="4.13621">
        <ele>125.1</ele>
        <time>2026-05-31T07:45:44.000Z</time>
      </trkpt>
      <trkpt lat="43.76108" lon="4.13623">
        <ele>125.1</ele>
        <time>2026-05-31T07:45:45.000Z</time>
      </trkpt>
      <trkpt lat="43.76107" lon="4.13624">
        <ele>125</ele>
        <time>2026-05-31T07:45:46.000Z</time>
      </trkpt>
      <trkpt lat="43.76106" lon="4.13625">
        <ele>124.9</ele>
        <time>2026-05-31T07:45:47.000Z</time>
      </trkpt>
      <trkpt lat="43.76106" lon="4.13626">
        <ele>125</ele>
        <time>2026-05-31T07:45:48.000Z</time>
      </trkpt>
      <trkpt lat="43.76106" lon="4.13628">
        <ele>125</ele>
        <time>2026-05-31T07:45:49.000Z</time>
      </trkpt>
      <trkpt lat="43.76106" lon="4.13629">
        <ele>125</ele>
        <time>2026-05-31T07:45:50.000Z</time>
      </trkpt>
      <trkpt lat="43.76106" lon="4.1363">
        <ele>124.8</ele>
        <time>2026-05-31T07:45:51.000Z</time>
      </trkpt>
      <trkpt lat="43.76107" lon="4.13632">
        <ele>125</ele>
        <time>2026-05-31T07:45:52.000Z</time>
      </trkpt>
      <trkpt lat="43.76108" lon="4.13634">
        <ele>125.1</ele>
        <time>2026-05-31T07:45:53.000Z</time>
      </trkpt>
      <trkpt lat="43.76108" lon="4.13636">
        <ele>125.2</ele>
        <time>2026-05-31T07:45:54.000Z</time>
      </trkpt>
      <trkpt lat="43.76108" lon="4.13636">
        <ele>125.1</ele>
        <time>2026-05-31T07:45:55.000Z</time>
      </trkpt>
      <trkpt lat="43.76108" lon="4.13638">
        <ele>125.2</ele>
        <time>2026-05-31T07:45:56.000Z</time>
      </trkpt>
      <trkpt lat="43.76109" lon="4.13639">
        <ele>125.1</ele>
        <time>2026-05-31T07:45:57.000Z</time>
      </trkpt>
      <trkpt lat="43.76109" lon="4.1364">
        <ele>125</ele>
        <time>2026-05-31T07:45:58.000Z</time>
      </trkpt>
      <trkpt lat="43.76109" lon="4.13641">
        <ele>124.9</ele>
        <time>2026-05-31T07:45:59.000Z</time>
      </trkpt>
      <trkpt lat="43.76109" lon="4.13642">
        <ele>125</ele>
        <time>2026-05-31T07:46:00.000Z</time>
      </trkpt>
      <trkpt lat="43.76109" lon="4.13643">
        <ele>124.9</ele>
        <time>2026-05-31T07:46:01.000Z</time>
      </trkpt>
      <trkpt lat="43.76109" lon="4.13645">
        <ele>125.1</ele>
        <time>2026-05-31T07:46:02.000Z</time>
      </trkpt>
      <trkpt lat="43.76109" lon="4.13646">
        <ele>125.1</ele>
        <time>2026-05-31T07:46:03.000Z</time>
      </trkpt>
      <trkpt lat="43.76109" lon="4.13647">
        <ele>124.9</ele>
        <time>2026-05-31T07:46:04.000Z</time>
      </trkpt>
      <trkpt lat="43.76109" lon="4.13648">
        <ele>125.1</ele>
        <time>2026-05-31T07:46:05.000Z</time>
      </trkpt>
      <trkpt lat="43.7611" lon="4.1365">
        <ele>125</ele>
        <time>2026-05-31T07:46:06.000Z</time>
      </trkpt>
      <trkpt lat="43.7611" lon="4.13652">
        <ele>124.9</ele>
        <time>2026-05-31T07:46:07.000Z</time>
      </trkpt>
      <trkpt lat="43.7611" lon="4.13653">
        <ele>124.8</ele>
        <time>2026-05-31T07:46:08.000Z</time>
      </trkpt>
      <trkpt lat="43.7611" lon="4.13654">
        <ele>124.5</ele>
        <time>2026-05-31T07:46:09.000Z</time>
      </trkpt>
      <trkpt lat="43.76111" lon="4.13654">
        <ele>124.1</ele>
        <time>2026-05-31T07:46:10.000Z</time>
      </trkpt>
      <trkpt lat="43.76111" lon="4.13656">
        <ele>123.4</ele>
        <time>2026-05-31T07:46:11.000Z</time>
      </trkpt>
      <trkpt lat="43.76111" lon="4.13656">
        <ele>122.8</ele>
        <time>2026-05-31T07:46:12.000Z</time>
      </trkpt>
      <trkpt lat="43.76111" lon="4.13657">
        <ele>122.2</ele>
        <time>2026-05-31T07:46:13.000Z</time>
      </trkpt>
      <trkpt lat="43.76111" lon="4.13658">
        <ele>122.5</ele>
        <time>2026-05-31T07:46:14.000Z</time>
      </trkpt>
      <trkpt lat="43.76111" lon="4.13658">
        <ele>123</ele>
        <time>2026-05-31T07:46:15.000Z</time>
      </trkpt>
      <trkpt lat="43.76111" lon="4.1366">
        <ele>123.2</ele>
        <time>2026-05-31T07:46:16.000Z</time>
      </trkpt>
      <trkpt lat="43.76111" lon="4.13661">
        <ele>123.1</ele>
        <time>2026-05-31T07:46:17.000Z</time>
      </trkpt>
      <trkpt lat="43.76111" lon="4.13661">
        <ele>122.9</ele>
        <time>2026-05-31T07:46:18.000Z</time>
      </trkpt>
      <trkpt lat="43.76111" lon="4.13663">
        <ele>122.9</ele>
        <time>2026-05-31T07:46:19.000Z</time>
      </trkpt>
      <trkpt lat="43.76111" lon="4.13665">
        <ele>123.3</ele>
        <time>2026-05-31T07:46:20.000Z</time>
      </trkpt>
      <trkpt lat="43.76111" lon="4.13668">
        <ele>123.5</ele>
        <time>2026-05-31T07:46:21.000Z</time>
      </trkpt>
      <trkpt lat="43.76112" lon="4.13669">
        <ele>123.7</ele>
        <time>2026-05-31T07:46:22.000Z</time>
      </trkpt>
      <trkpt lat="43.76112" lon="4.13671">
        <ele>123.5</ele>
        <time>2026-05-31T07:46:23.000Z</time>
      </trkpt>
      <trkpt lat="43.76113" lon="4.13673">
        <ele>123.4</ele>
        <time>2026-05-31T07:46:24.000Z</time>
      </trkpt>
      <trkpt lat="43.76113" lon="4.13675">
        <ele>123.4</ele>
        <time>2026-05-31T07:46:25.000Z</time>
      </trkpt>
      <trkpt lat="43.76113" lon="4.13676">
        <ele>123.5</ele>
        <time>2026-05-31T07:46:26.000Z</time>
      </trkpt>
      <trkpt lat="43.76113" lon="4.13677">
        <ele>123.6</ele>
        <time>2026-05-31T07:46:27.000Z</time>
      </trkpt>
      <trkpt lat="43.76113" lon="4.13678">
        <ele>123.8</ele>
        <time>2026-05-31T07:46:28.000Z</time>
      </trkpt>
      <trkpt lat="43.76113" lon="4.1368">
        <ele>123.4</ele>
        <time>2026-05-31T07:46:29.000Z</time>
      </trkpt>
      <trkpt lat="43.76113" lon="4.13682">
        <ele>123.3</ele>
        <time>2026-05-31T07:46:30.000Z</time>
      </trkpt>
      <trkpt lat="43.76113" lon="4.13683">
        <ele>123.2</ele>
        <time>2026-05-31T07:46:31.000Z</time>
      </trkpt>
      <trkpt lat="43.76114" lon="4.13684">
        <ele>123.5</ele>
        <time>2026-05-31T07:46:32.000Z</time>
      </trkpt>
      <trkpt lat="43.76114" lon="4.13686">
        <ele>123.4</ele>
        <time>2026-05-31T07:46:33.000Z</time>
      </trkpt>
      <trkpt lat="43.76114" lon="4.13687">
        <ele>123.5</ele>
        <time>2026-05-31T07:46:34.000Z</time>
      </trkpt>
      <trkpt lat="43.76114" lon="4.13688">
        <ele>123.6</ele>
        <time>2026-05-31T07:46:35.000Z</time>
      </trkpt>
      <trkpt lat="43.76114" lon="4.1369">
        <ele>123.4</ele>
        <time>2026-05-31T07:46:36.000Z</time>
      </trkpt>
      <trkpt lat="43.76114" lon="4.13692">
        <ele>122.9</ele>
        <time>2026-05-31T07:46:37.000Z</time>
      </trkpt>
      <trkpt lat="43.76115" lon="4.13693">
        <ele>122.6</ele>
        <time>2026-05-31T07:46:38.000Z</time>
      </trkpt>
      <trkpt lat="43.76116" lon="4.13694">
        <ele>122.5</ele>
        <time>2026-05-31T07:46:39.000Z</time>
      </trkpt>
      <trkpt lat="43.76116" lon="4.13695">
        <ele>122.4</ele>
        <time>2026-05-31T07:46:40.000Z</time>
      </trkpt>
      <trkpt lat="43.76117" lon="4.13696">
        <ele>121.6</ele>
        <time>2026-05-31T07:46:41.000Z</time>
      </trkpt>
      <trkpt lat="43.76117" lon="4.13697">
        <ele>121.2</ele>
        <time>2026-05-31T07:46:42.000Z</time>
      </trkpt>
      <trkpt lat="43.76117" lon="4.13699">
        <ele>120.6</ele>
        <time>2026-05-31T07:46:43.000Z</time>
      </trkpt>
      <trkpt lat="43.76117" lon="4.137">
        <ele>120.1</ele>
        <time>2026-05-31T07:46:44.000Z</time>
      </trkpt>
      <trkpt lat="43.76117" lon="4.13701">
        <ele>119.9</ele>
        <time>2026-05-31T07:46:45.000Z</time>
      </trkpt>
      <trkpt lat="43.76117" lon="4.13702">
        <ele>119.7</ele>
        <time>2026-05-31T07:46:46.000Z</time>
      </trkpt>
      <trkpt lat="43.76117" lon="4.13702">
        <ele>119.7</ele>
        <time>2026-05-31T07:46:47.000Z</time>
      </trkpt>
      <trkpt lat="43.76118" lon="4.13703">
        <ele>119.7</ele>
        <time>2026-05-31T07:46:48.000Z</time>
      </trkpt>
      <trkpt lat="43.76118" lon="4.13705">
        <ele>119.6</ele>
        <time>2026-05-31T07:46:49.000Z</time>
      </trkpt>
      <trkpt lat="43.76119" lon="4.13706">
        <ele>120</ele>
        <time>2026-05-31T07:46:50.000Z</time>
      </trkpt>
      <trkpt lat="43.76119" lon="4.13706">
        <ele>120</ele>
        <time>2026-05-31T07:46:51.000Z</time>
      </trkpt>
      <trkpt lat="43.7612" lon="4.13708">
        <ele>119.9</ele>
        <time>2026-05-31T07:46:52.000Z</time>
      </trkpt>
      <trkpt lat="43.7612" lon="4.13709">
        <ele>119.7</ele>
        <time>2026-05-31T07:46:53.000Z</time>
      </trkpt>
      <trkpt lat="43.7612" lon="4.13711">
        <ele>119.4</ele>
        <time>2026-05-31T07:46:54.000Z</time>
      </trkpt>
      <trkpt lat="43.7612" lon="4.13712">
        <ele>119.2</ele>
        <time>2026-05-31T07:46:55.000Z</time>
      </trkpt>
      <trkpt lat="43.7612" lon="4.13713">
        <ele>119.4</ele>
        <time>2026-05-31T07:46:56.000Z</time>
      </trkpt>
      <trkpt lat="43.7612" lon="4.13714">
        <ele>119.6</ele>
        <time>2026-05-31T07:46:57.000Z</time>
      </trkpt>
      <trkpt lat="43.76119" lon="4.13715">
        <ele>119.4</ele>
        <time>2026-05-31T07:46:58.000Z</time>
      </trkpt>
      <trkpt lat="43.76119" lon="4.13716">
        <ele>119.3</ele>
        <time>2026-05-31T07:46:59.000Z</time>
      </trkpt>
      <trkpt lat="43.76119" lon="4.13718">
        <ele>119.3</ele>
        <time>2026-05-31T07:47:00.000Z</time>
      </trkpt>
      <trkpt lat="43.76119" lon="4.13719">
        <ele>119.2</ele>
        <time>2026-05-31T07:47:01.000Z</time>
      </trkpt>
      <trkpt lat="43.76119" lon="4.13721">
        <ele>119.6</ele>
        <time>2026-05-31T07:47:02.000Z</time>
      </trkpt>
      <trkpt lat="43.76119" lon="4.13722">
        <ele>119.8</ele>
        <time>2026-05-31T07:47:03.000Z</time>
      </trkpt>
      <trkpt lat="43.7612" lon="4.13723">
        <ele>120.1</ele>
        <time>2026-05-31T07:47:04.000Z</time>
      </trkpt>
      <trkpt lat="43.7612" lon="4.13725">
        <ele>120.3</ele>
        <time>2026-05-31T07:47:05.000Z</time>
      </trkpt>
      <trkpt lat="43.7612" lon="4.13726">
        <ele>120.7</ele>
        <time>2026-05-31T07:47:06.000Z</time>
      </trkpt>
      <trkpt lat="43.7612" lon="4.13728">
        <ele>121.1</ele>
        <time>2026-05-31T07:47:07.000Z</time>
      </trkpt>
      <trkpt lat="43.7612" lon="4.13729">
        <ele>121.3</ele>
        <time>2026-05-31T07:47:08.000Z</time>
      </trkpt>
      <trkpt lat="43.7612" lon="4.1373">
        <ele>121.6</ele>
        <time>2026-05-31T07:47:09.000Z</time>
      </trkpt>
      <trkpt lat="43.7612" lon="4.13731">
        <ele>121.6</ele>
        <time>2026-05-31T07:47:10.000Z</time>
      </trkpt>
      <trkpt lat="43.7612" lon="4.13732">
        <ele>121.6</ele>
        <time>2026-05-31T07:47:11.000Z</time>
      </trkpt>
      <trkpt lat="43.7612" lon="4.13733">
        <ele>121.2</ele>
        <time>2026-05-31T07:47:12.000Z</time>
      </trkpt>
      <trkpt lat="43.7612" lon="4.13734">
        <ele>121.3</ele>
        <time>2026-05-31T07:47:13.000Z</time>
      </trkpt>
      <trkpt lat="43.76121" lon="4.13735">
        <ele>121.2</ele>
        <time>2026-05-31T07:47:14.000Z</time>
      </trkpt>
      <trkpt lat="43.76121" lon="4.13736">
        <ele>121.3</ele>
        <time>2026-05-31T07:47:15.000Z</time>
      </trkpt>
      <trkpt lat="43.76122" lon="4.13738">
        <ele>121.4</ele>
        <time>2026-05-31T07:47:16.000Z</time>
      </trkpt>
      <trkpt lat="43.76123" lon="4.13739">
        <ele>121.2</ele>
        <time>2026-05-31T07:47:17.000Z</time>
      </trkpt>
      <trkpt lat="43.76123" lon="4.13741">
        <ele>121.1</ele>
        <time>2026-05-31T07:47:18.000Z</time>
      </trkpt>
      <trkpt lat="43.76123" lon="4.13743">
        <ele>121.1</ele>
        <time>2026-05-31T07:47:19.000Z</time>
      </trkpt>
      <trkpt lat="43.76123" lon="4.13744">
        <ele>121.3</ele>
        <time>2026-05-31T07:47:20.000Z</time>
      </trkpt>
      <trkpt lat="43.76123" lon="4.13746">
        <ele>121.5</ele>
        <time>2026-05-31T07:47:21.000Z</time>
      </trkpt>
      <trkpt lat="43.76123" lon="4.13748">
        <ele>121.7</ele>
        <time>2026-05-31T07:47:22.000Z</time>
      </trkpt>
      <trkpt lat="43.76122" lon="4.13749">
        <ele>121.8</ele>
        <time>2026-05-31T07:47:23.000Z</time>
      </trkpt>
      <trkpt lat="43.76122" lon="4.13749">
        <ele>121.5</ele>
        <time>2026-05-31T07:47:24.000Z</time>
      </trkpt>
      <trkpt lat="43.76123" lon="4.1375">
        <ele>121.1</ele>
        <time>2026-05-31T07:47:25.000Z</time>
      </trkpt>
      <trkpt lat="43.76123" lon="4.13751">
        <ele>121</ele>
        <time>2026-05-31T07:47:26.000Z</time>
      </trkpt>
      <trkpt lat="43.76123" lon="4.13752">
        <ele>120.9</ele>
        <time>2026-05-31T07:47:27.000Z</time>
      </trkpt>
      <trkpt lat="43.76122" lon="4.13754">
        <ele>121</ele>
        <time>2026-05-31T07:47:28.000Z</time>
      </trkpt>
      <trkpt lat="43.76122" lon="4.13755">
        <ele>121</ele>
        <time>2026-05-31T07:47:29.000Z</time>
      </trkpt>
      <trkpt lat="43.76122" lon="4.13756">
        <ele>121</ele>
        <time>2026-05-31T07:47:30.000Z</time>
      </trkpt>
      <trkpt lat="43.76122" lon="4.13758">
        <ele>121</ele>
        <time>2026-05-31T07:47:31.000Z</time>
      </trkpt>
      <trkpt lat="43.76121" lon="4.13759">
        <ele>121</ele>
        <time>2026-05-31T07:47:32.000Z</time>
      </trkpt>
      <trkpt lat="43.76121" lon="4.1376">
        <ele>120.7</ele>
        <time>2026-05-31T07:47:33.000Z</time>
      </trkpt>
      <trkpt lat="43.7612" lon="4.13761">
        <ele>120.8</ele>
        <time>2026-05-31T07:47:34.000Z</time>
      </trkpt>
      <trkpt lat="43.7612" lon="4.13762">
        <ele>120.6</ele>
        <time>2026-05-31T07:47:35.000Z</time>
      </trkpt>
      <trkpt lat="43.76119" lon="4.13763">
        <ele>120.3</ele>
        <time>2026-05-31T07:47:36.000Z</time>
      </trkpt>
      <trkpt lat="43.76119" lon="4.13765">
        <ele>120.5</ele>
        <time>2026-05-31T07:47:37.000Z</time>
      </trkpt>
      <trkpt lat="43.76119" lon="4.13766">
        <ele>120.6</ele>
        <time>2026-05-31T07:47:38.000Z</time>
      </trkpt>
      <trkpt lat="43.76119" lon="4.13767">
        <ele>120.6</ele>
        <time>2026-05-31T07:47:39.000Z</time>
      </trkpt>
      <trkpt lat="43.76119" lon="4.13768">
        <ele>120.3</ele>
        <time>2026-05-31T07:47:40.000Z</time>
      </trkpt>
      <trkpt lat="43.7612" lon="4.13769">
        <ele>119.8</ele>
        <time>2026-05-31T07:47:41.000Z</time>
      </trkpt>
      <trkpt lat="43.7612" lon="4.1377">
        <ele>119.3</ele>
        <time>2026-05-31T07:47:42.000Z</time>
      </trkpt>
      <trkpt lat="43.7612" lon="4.1377">
        <ele>119.2</ele>
        <time>2026-05-31T07:47:43.000Z</time>
      </trkpt>
      <trkpt lat="43.7612" lon="4.1377">
        <ele>119</ele>
        <time>2026-05-31T07:47:44.000Z</time>
      </trkpt>
      <trkpt lat="43.76119" lon="4.1377">
        <ele>119</ele>
        <time>2026-05-31T07:47:45.000Z</time>
      </trkpt>
      <trkpt lat="43.76119" lon="4.13772">
        <ele>118.9</ele>
        <time>2026-05-31T07:47:46.000Z</time>
      </trkpt>
      <trkpt lat="43.76117" lon="4.13773">
        <ele>118.9</ele>
        <time>2026-05-31T07:47:47.000Z</time>
      </trkpt>
      <trkpt lat="43.76117" lon="4.13774">
        <ele>118.8</ele>
        <time>2026-05-31T07:47:48.000Z</time>
      </trkpt>
      <trkpt lat="43.76117" lon="4.13775">
        <ele>118.9</ele>
        <time>2026-05-31T07:47:49.000Z</time>
      </trkpt>
      <trkpt lat="43.76117" lon="4.13776">
        <ele>118.9</ele>
        <time>2026-05-31T07:47:50.000Z</time>
      </trkpt>
      <trkpt lat="43.76116" lon="4.13779">
        <ele>118.6</ele>
        <time>2026-05-31T07:47:51.000Z</time>
      </trkpt>
      <trkpt lat="43.76115" lon="4.13782">
        <ele>118.5</ele>
        <time>2026-05-31T07:47:52.000Z</time>
      </trkpt>
      <trkpt lat="43.76115" lon="4.13783">
        <ele>118.4</ele>
        <time>2026-05-31T07:47:53.000Z</time>
      </trkpt>
      <trkpt lat="43.76114" lon="4.13786">
        <ele>118.4</ele>
        <time>2026-05-31T07:47:54.000Z</time>
      </trkpt>
      <trkpt lat="43.76114" lon="4.13787">
        <ele>118.4</ele>
        <time>2026-05-31T07:47:55.000Z</time>
      </trkpt>
      <trkpt lat="43.76113" lon="4.13788">
        <ele>118.4</ele>
        <time>2026-05-31T07:47:56.000Z</time>
      </trkpt>
      <trkpt lat="43.76112" lon="4.13789">
        <ele>118.5</ele>
        <time>2026-05-31T07:47:57.000Z</time>
      </trkpt>
      <trkpt lat="43.76112" lon="4.13791">
        <ele>118.5</ele>
        <time>2026-05-31T07:47:58.000Z</time>
      </trkpt>
      <trkpt lat="43.7611" lon="4.13792">
        <ele>118.4</ele>
        <time>2026-05-31T07:47:59.000Z</time>
      </trkpt>
      <trkpt lat="43.7611" lon="4.13794">
        <ele>118</ele>
        <time>2026-05-31T07:48:00.000Z</time>
      </trkpt>
      <trkpt lat="43.7611" lon="4.13796">
        <ele>118.1</ele>
        <time>2026-05-31T07:48:01.000Z</time>
      </trkpt>
      <trkpt lat="43.7611" lon="4.13797">
        <ele>117.8</ele>
        <time>2026-05-31T07:48:02.000Z</time>
      </trkpt>
      <trkpt lat="43.7611" lon="4.13799">
        <ele>117.8</ele>
        <time>2026-05-31T07:48:03.000Z</time>
      </trkpt>
      <trkpt lat="43.7611" lon="4.13799">
        <ele>117.3</ele>
        <time>2026-05-31T07:48:04.000Z</time>
      </trkpt>
      <trkpt lat="43.76109" lon="4.138">
        <ele>117</ele>
        <time>2026-05-31T07:48:05.000Z</time>
      </trkpt>
      <trkpt lat="43.76108" lon="4.13801">
        <ele>116.6</ele>
        <time>2026-05-31T07:48:06.000Z</time>
      </trkpt>
      <trkpt lat="43.76108" lon="4.13801">
        <ele>116.6</ele>
        <time>2026-05-31T07:48:07.000Z</time>
      </trkpt>
      <trkpt lat="43.76107" lon="4.13802">
        <ele>116.6</ele>
        <time>2026-05-31T07:48:08.000Z</time>
      </trkpt>
      <trkpt lat="43.76107" lon="4.13803">
        <ele>116.4</ele>
        <time>2026-05-31T07:48:09.000Z</time>
      </trkpt>
      <trkpt lat="43.76107" lon="4.13804">
        <ele>116.5</ele>
        <time>2026-05-31T07:48:10.000Z</time>
      </trkpt>
      <trkpt lat="43.76108" lon="4.13804">
        <ele>116.2</ele>
        <time>2026-05-31T07:48:11.000Z</time>
      </trkpt>
      <trkpt lat="43.76108" lon="4.13804">
        <ele>116.2</ele>
        <time>2026-05-31T07:48:12.000Z</time>
      </trkpt>
      <trkpt lat="43.76108" lon="4.13805">
        <ele>116.3</ele>
        <time>2026-05-31T07:48:13.000Z</time>
      </trkpt>
      <trkpt lat="43.76108" lon="4.13805">
        <ele>116.4</ele>
        <time>2026-05-31T07:48:14.000Z</time>
      </trkpt>
      <trkpt lat="43.76108" lon="4.13805">
        <ele>116.4</ele>
        <time>2026-05-31T07:48:15.000Z</time>
      </trkpt>
      <trkpt lat="43.76108" lon="4.13805">
        <ele>116.5</ele>
        <time>2026-05-31T07:48:16.000Z</time>
      </trkpt>
      <trkpt lat="43.76108" lon="4.13805">
        <ele>116.6</ele>
        <time>2026-05-31T07:48:17.000Z</time>
      </trkpt>
      <trkpt lat="43.76108" lon="4.13805">
        <ele>116.5</ele>
        <time>2026-05-31T07:48:18.000Z</time>
      </trkpt>
      <trkpt lat="43.76108" lon="4.13805">
        <ele>116.6</ele>
        <time>2026-05-31T07:48:19.000Z</time>
      </trkpt>
      <trkpt lat="43.76108" lon="4.13805">
        <ele>116.4</ele>
        <time>2026-05-31T07:48:20.000Z</time>
      </trkpt>
      <trkpt lat="43.76108" lon="4.13805">
        <ele>116.3</ele>
        <time>2026-05-31T07:48:21.000Z</time>
      </trkpt>
      <trkpt lat="43.76108" lon="4.13805">
        <ele>116.1</ele>
        <time>2026-05-31T07:48:22.000Z</time>
      </trkpt>
      <trkpt lat="43.76108" lon="4.13805">
        <ele>115.9</ele>
        <time>2026-05-31T07:48:23.000Z</time>
      </trkpt>
      <trkpt lat="43.76108" lon="4.13805">
        <ele>115.5</ele>
        <time>2026-05-31T07:48:24.000Z</time>
      </trkpt>
      <trkpt lat="43.76108" lon="4.13805">
        <ele>115.3</ele>
        <time>2026-05-31T07:48:25.000Z</time>
      </trkpt>
      <trkpt lat="43.76108" lon="4.13806">
        <ele>115.1</ele>
        <time>2026-05-31T07:48:26.000Z</time>
      </trkpt>
      <trkpt lat="43.76108" lon="4.13806">
        <ele>115</ele>
        <time>2026-05-31T07:48:27.000Z</time>
      </trkpt>
      <trkpt lat="43.76108" lon="4.13806">
        <ele>114.7</ele>
        <time>2026-05-31T07:48:28.000Z</time>
      </trkpt>
      <trkpt lat="43.76107" lon="4.13806">
        <ele>114.5</ele>
        <time>2026-05-31T07:48:29.000Z</time>
      </trkpt>
      <trkpt lat="43.76107" lon="4.13806">
        <ele>114.3</ele>
        <time>2026-05-31T07:48:30.000Z</time>
      </trkpt>
      <trkpt lat="43.76107" lon="4.13806">
        <ele>114.1</ele>
        <time>2026-05-31T07:48:31.000Z</time>
      </trkpt>
      <trkpt lat="43.76107" lon="4.13806">
        <ele>114</ele>
        <time>2026-05-31T07:48:32.000Z</time>
      </trkpt>
      <trkpt lat="43.76107" lon="4.13806">
        <ele>113.9</ele>
        <time>2026-05-31T07:48:33.000Z</time>
      </trkpt>
      <trkpt lat="43.76107" lon="4.13806">
        <ele>113.9</ele>
        <time>2026-05-31T07:48:34.000Z</time>
      </trkpt>
      <trkpt lat="43.76108" lon="4.13806">
        <ele>113.8</ele>
        <time>2026-05-31T07:48:35.000Z</time>
      </trkpt>
      <trkpt lat="43.76108" lon="4.13806">
        <ele>113.7</ele>
        <time>2026-05-31T07:48:36.000Z</time>
      </trkpt>
      <trkpt lat="43.76108" lon="4.13806">
        <ele>113.6</ele>
        <time>2026-05-31T07:48:37.000Z</time>
      </trkpt>
      <trkpt lat="43.76107" lon="4.13806">
        <ele>113.4</ele>
        <time>2026-05-31T07:48:38.000Z</time>
      </trkpt>
      <trkpt lat="43.76107" lon="4.13806">
        <ele>113.2</ele>
        <time>2026-05-31T07:48:39.000Z</time>
      </trkpt>
      <trkpt lat="43.76107" lon="4.13806">
        <ele>113.1</ele>
        <time>2026-05-31T07:48:40.000Z</time>
      </trkpt>
      <trkpt lat="43.76107" lon="4.13806">
        <ele>113</ele>
        <time>2026-05-31T07:48:41.000Z</time>
      </trkpt>
      <trkpt lat="43.76107" lon="4.13806">
        <ele>112.8</ele>
        <time>2026-05-31T07:48:42.000Z</time>
      </trkpt>
      <trkpt lat="43.76107" lon="4.13806">
        <ele>112.4</ele>
        <time>2026-05-31T07:48:43.000Z</time>
      </trkpt>
      <trkpt lat="43.76107" lon="4.13806">
        <ele>112.1</ele>
        <time>2026-05-31T07:48:44.000Z</time>
      </trkpt>
      <trkpt lat="43.76107" lon="4.13806">
        <ele>111.7</ele>
        <time>2026-05-31T07:48:45.000Z</time>
      </trkpt>
      <trkpt lat="43.76107" lon="4.13806">
        <ele>111.5</ele>
        <time>2026-05-31T07:48:46.000Z</time>
      </trkpt>
      <trkpt lat="43.76107" lon="4.13806">
        <ele>111.4</ele>
        <time>2026-05-31T07:48:47.000Z</time>
      </trkpt>
      <trkpt lat="43.76107" lon="4.13806">
        <ele>111.3</ele>
        <time>2026-05-31T07:48:48.000Z</time>
      </trkpt>
      <trkpt lat="43.76107" lon="4.13806">
        <ele>111.1</ele>
        <time>2026-05-31T07:48:49.000Z</time>
      </trkpt>
      <trkpt lat="43.76107" lon="4.13806">
        <ele>110.8</ele>
        <time>2026-05-31T07:48:50.000Z</time>
      </trkpt>
      <trkpt lat="43.76107" lon="4.13806">
        <ele>110.9</ele>
        <time>2026-05-31T07:48:51.000Z</time>
      </trkpt>
      <trkpt lat="43.76107" lon="4.13806">
        <ele>110.7</ele>
        <time>2026-05-31T07:48:52.000Z</time>
      </trkpt>
      <trkpt lat="43.76107" lon="4.13806">
        <ele>110.6</ele>
        <time>2026-05-31T07:48:53.000Z</time>
      </trkpt>
      <trkpt lat="43.76107" lon="4.13806">
        <ele>110.3</ele>
        <time>2026-05-31T07:48:54.000Z</time>
      </trkpt>
      <trkpt lat="43.76107" lon="4.13807">
        <ele>110.2</ele>
        <time>2026-05-31T07:48:55.000Z</time>
      </trkpt>
      <trkpt lat="43.76107" lon="4.13807">
        <ele>110</ele>
        <time>2026-05-31T07:48:56.000Z</time>
      </trkpt>
      <trkpt lat="43.76107" lon="4.13807">
        <ele>109.8</ele>
        <time>2026-05-31T07:48:57.000Z</time>
      </trkpt>
      <trkpt lat="43.76107" lon="4.13807">
        <ele>109.6</ele>
        <time>2026-05-31T07:48:58.000Z</time>
      </trkpt>
      <trkpt lat="43.76107" lon="4.13807">
        <ele>109.7</ele>
        <time>2026-05-31T07:48:59.000Z</time>
      </trkpt>
      <trkpt lat="43.76107" lon="4.13807">
        <ele>109.8</ele>
        <time>2026-05-31T07:49:00.000Z</time>
      </trkpt>
      <trkpt lat="43.76107" lon="4.13807">
        <ele>109.8</ele>
        <time>2026-05-31T07:49:01.000Z</time>
      </trkpt>
      <trkpt lat="43.76107" lon="4.13807">
        <ele>109.8</ele>
        <time>2026-05-31T07:49:02.000Z</time>
      </trkpt>
      <trkpt lat="43.76107" lon="4.13807">
        <ele>109.7</ele>
        <time>2026-05-31T07:49:03.000Z</time>
      </trkpt>
      <trkpt lat="43.76107" lon="4.13807">
        <ele>109.7</ele>
        <time>2026-05-31T07:49:04.000Z</time>
      </trkpt>
      <trkpt lat="43.76107" lon="4.13807">
        <ele>109.4</ele>
        <time>2026-05-31T07:49:05.000Z</time>
      </trkpt>
      <trkpt lat="43.76107" lon="4.13807">
        <ele>109.6</ele>
        <time>2026-05-31T07:49:06.000Z</time>
      </trkpt>
      <trkpt lat="43.76107" lon="4.13807">
        <ele>109.5</ele>
        <time>2026-05-31T07:49:07.000Z</time>
      </trkpt>
      <trkpt lat="43.76107" lon="4.13807">
        <ele>109.4</ele>
        <time>2026-05-31T07:49:08.000Z</time>
      </trkpt>
      <trkpt lat="43.76107" lon="4.13807">
        <ele>109.5</ele>
        <time>2026-05-31T07:49:09.000Z</time>
      </trkpt>
      <trkpt lat="43.76107" lon="4.13807">
        <ele>109.6</ele>
        <time>2026-05-31T07:49:10.000Z</time>
      </trkpt>
      <trkpt lat="43.76107" lon="4.13807">
        <ele>109.6</ele>
        <time>2026-05-31T07:49:11.000Z</time>
      </trkpt>
      <trkpt lat="43.76107" lon="4.13807">
        <ele>109.8</ele>
        <time>2026-05-31T07:49:12.000Z</time>
      </trkpt>
      <trkpt lat="43.76107" lon="4.13807">
        <ele>109.9</ele>
        <time>2026-05-31T07:49:13.000Z</time>
      </trkpt>
      <trkpt lat="43.76107" lon="4.13807">
        <ele>110.1</ele>
        <time>2026-05-31T07:49:14.000Z</time>
      </trkpt>
      <trkpt lat="43.76107" lon="4.13807">
        <ele>110.4</ele>
        <time>2026-05-31T07:49:15.000Z</time>
      </trkpt>
      <trkpt lat="43.76107" lon="4.13808">
        <ele>110.4</ele>
        <time>2026-05-31T07:49:16.000Z</time>
      </trkpt>
      <trkpt lat="43.76107" lon="4.13808">
        <ele>110.5</ele>
        <time>2026-05-31T07:49:17.000Z</time>
      </trkpt>
      <trkpt lat="43.76107" lon="4.13808">
        <ele>110.6</ele>
        <time>2026-05-31T07:49:18.000Z</time>
      </trkpt>
      <trkpt lat="43.76107" lon="4.13809">
        <ele>110.7</ele>
        <time>2026-05-31T07:49:19.000Z</time>
      </trkpt>
      <trkpt lat="43.76107" lon="4.1381">
        <ele>110.7</ele>
        <time>2026-05-31T07:49:20.000Z</time>
      </trkpt>
      <trkpt lat="43.76106" lon="4.1381">
        <ele>110.8</ele>
        <time>2026-05-31T07:49:21.000Z</time>
      </trkpt>
      <trkpt lat="43.76106" lon="4.13811">
        <ele>111.1</ele>
        <time>2026-05-31T07:49:22.000Z</time>
      </trkpt>
      <trkpt lat="43.76107" lon="4.13811">
        <ele>111.4</ele>
        <time>2026-05-31T07:49:23.000Z</time>
      </trkpt>
      <trkpt lat="43.76107" lon="4.13812">
        <ele>111.3</ele>
        <time>2026-05-31T07:49:24.000Z</time>
      </trkpt>
      <trkpt lat="43.76107" lon="4.13812">
        <ele>111.4</ele>
        <time>2026-05-31T07:49:25.000Z</time>
      </trkpt>
      <trkpt lat="43.76107" lon="4.13812">
        <ele>111.4</ele>
        <time>2026-05-31T07:49:26.000Z</time>
      </trkpt>
      <trkpt lat="43.76106" lon="4.13813">
        <ele>111.5</ele>
        <time>2026-05-31T07:49:27.000Z</time>
      </trkpt>
      <trkpt lat="43.76106" lon="4.13814">
        <ele>111.6</ele>
        <time>2026-05-31T07:49:28.000Z</time>
      </trkpt>
      <trkpt lat="43.76106" lon="4.13815">
        <ele>111.9</ele>
        <time>2026-05-31T07:49:29.000Z</time>
      </trkpt>
      <trkpt lat="43.76106" lon="4.13816">
        <ele>112.1</ele>
        <time>2026-05-31T07:49:30.000Z</time>
      </trkpt>
      <trkpt lat="43.76106" lon="4.13817">
        <ele>112</ele>
        <time>2026-05-31T07:49:31.000Z</time>
      </trkpt>
      <trkpt lat="43.76106" lon="4.13818">
        <ele>112.3</ele>
        <time>2026-05-31T07:49:32.000Z</time>
      </trkpt>
      <trkpt lat="43.76107" lon="4.13819">
        <ele>112.6</ele>
        <time>2026-05-31T07:49:33.000Z</time>
      </trkpt>
      <trkpt lat="43.76106" lon="4.13823">
        <ele>112.8</ele>
        <time>2026-05-31T07:49:34.000Z</time>
      </trkpt>
      <trkpt lat="43.76106" lon="4.13827">
        <ele>112.9</ele>
        <time>2026-05-31T07:49:35.000Z</time>
      </trkpt>
      <trkpt lat="43.76106" lon="4.1383">
        <ele>112.9</ele>
        <time>2026-05-31T07:49:36.000Z</time>
      </trkpt>
      <trkpt lat="43.76105" lon="4.13833">
        <ele>113.1</ele>
        <time>2026-05-31T07:49:37.000Z</time>
      </trkpt>
      <trkpt lat="43.76104" lon="4.13836">
        <ele>113.1</ele>
        <time>2026-05-31T07:49:38.000Z</time>
      </trkpt>
      <trkpt lat="43.76103" lon="4.13838">
        <ele>113.2</ele>
        <time>2026-05-31T07:49:39.000Z</time>
      </trkpt>
      <trkpt lat="43.76103" lon="4.13841">
        <ele>113.2</ele>
        <time>2026-05-31T07:49:40.000Z</time>
      </trkpt>
      <trkpt lat="43.76102" lon="4.13842">
        <ele>113.1</ele>
        <time>2026-05-31T07:49:41.000Z</time>
      </trkpt>
      <trkpt lat="43.76101" lon="4.13844">
        <ele>113.3</ele>
        <time>2026-05-31T07:49:42.000Z</time>
      </trkpt>
      <trkpt lat="43.76101" lon="4.13845">
        <ele>113.3</ele>
        <time>2026-05-31T07:49:43.000Z</time>
      </trkpt>
      <trkpt lat="43.76101" lon="4.13845">
        <ele>113.6</ele>
        <time>2026-05-31T07:49:44.000Z</time>
      </trkpt>
      <trkpt lat="43.761" lon="4.13847">
        <ele>114</ele>
        <time>2026-05-31T07:49:45.000Z</time>
      </trkpt>
      <trkpt lat="43.761" lon="4.13849">
        <ele>114.4</ele>
        <time>2026-05-31T07:49:46.000Z</time>
      </trkpt>
      <trkpt lat="43.761" lon="4.13851">
        <ele>114.8</ele>
        <time>2026-05-31T07:49:47.000Z</time>
      </trkpt>
      <trkpt lat="43.761" lon="4.13853">
        <ele>114.9</ele>
        <time>2026-05-31T07:49:48.000Z</time>
      </trkpt>
      <trkpt lat="43.76099" lon="4.13855">
        <ele>114.9</ele>
        <time>2026-05-31T07:49:49.000Z</time>
      </trkpt>
      <trkpt lat="43.76099" lon="4.13857">
        <ele>115.1</ele>
        <time>2026-05-31T07:49:50.000Z</time>
      </trkpt>
      <trkpt lat="43.76098" lon="4.13858">
        <ele>115.4</ele>
        <time>2026-05-31T07:49:51.000Z</time>
      </trkpt>
      <trkpt lat="43.76097" lon="4.1386">
        <ele>115.6</ele>
        <time>2026-05-31T07:49:52.000Z</time>
      </trkpt>
      <trkpt lat="43.76096" lon="4.13861">
        <ele>115.8</ele>
        <time>2026-05-31T07:49:53.000Z</time>
      </trkpt>
      <trkpt lat="43.76095" lon="4.13863">
        <ele>115.9</ele>
        <time>2026-05-31T07:49:54.000Z</time>
      </trkpt>
      <trkpt lat="43.76094" lon="4.13865">
        <ele>115.8</ele>
        <time>2026-05-31T07:49:55.000Z</time>
      </trkpt>
      <trkpt lat="43.76094" lon="4.13866">
        <ele>115.5</ele>
        <time>2026-05-31T07:49:56.000Z</time>
      </trkpt>
      <trkpt lat="43.76093" lon="4.13868">
        <ele>115.5</ele>
        <time>2026-05-31T07:49:57.000Z</time>
      </trkpt>
      <trkpt lat="43.76093" lon="4.1387">
        <ele>115.4</ele>
        <time>2026-05-31T07:49:58.000Z</time>
      </trkpt>
      <trkpt lat="43.76092" lon="4.13873">
        <ele>115.4</ele>
        <time>2026-05-31T07:49:59.000Z</time>
      </trkpt>
      <trkpt lat="43.76092" lon="4.13875">
        <ele>115.2</ele>
        <time>2026-05-31T07:50:00.000Z</time>
      </trkpt>
      <trkpt lat="43.76091" lon="4.13876">
        <ele>114.9</ele>
        <time>2026-05-31T07:50:01.000Z</time>
      </trkpt>
      <trkpt lat="43.7609" lon="4.13877">
        <ele>114.8</ele>
        <time>2026-05-31T07:50:02.000Z</time>
      </trkpt>
      <trkpt lat="43.7609" lon="4.13878">
        <ele>114.4</ele>
        <time>2026-05-31T07:50:03.000Z</time>
      </trkpt>
      <trkpt lat="43.76089" lon="4.1388">
        <ele>114.1</ele>
        <time>2026-05-31T07:50:04.000Z</time>
      </trkpt>
      <trkpt lat="43.76089" lon="4.1388">
        <ele>113.9</ele>
        <time>2026-05-31T07:50:05.000Z</time>
      </trkpt>
      <trkpt lat="43.76089" lon="4.13881">
        <ele>113.7</ele>
        <time>2026-05-31T07:50:06.000Z</time>
      </trkpt>
      <trkpt lat="43.76088" lon="4.13883">
        <ele>113.6</ele>
        <time>2026-05-31T07:50:07.000Z</time>
      </trkpt>
      <trkpt lat="43.76087" lon="4.13884">
        <ele>113.3</ele>
        <time>2026-05-31T07:50:08.000Z</time>
      </trkpt>
      <trkpt lat="43.76087" lon="4.13886">
        <ele>113.1</ele>
        <time>2026-05-31T07:50:09.000Z</time>
      </trkpt>
      <trkpt lat="43.76087" lon="4.13888">
        <ele>112.9</ele>
        <time>2026-05-31T07:50:10.000Z</time>
      </trkpt>
      <trkpt lat="43.76086" lon="4.13889">
        <ele>112.9</ele>
        <time>2026-05-31T07:50:11.000Z</time>
      </trkpt>
      <trkpt lat="43.76085" lon="4.1389">
        <ele>112.7</ele>
        <time>2026-05-31T07:50:12.000Z</time>
      </trkpt>
      <trkpt lat="43.76084" lon="4.1389">
        <ele>112.4</ele>
        <time>2026-05-31T07:50:13.000Z</time>
      </trkpt>
      <trkpt lat="43.76083" lon="4.13891">
        <ele>112.3</ele>
        <time>2026-05-31T07:50:14.000Z</time>
      </trkpt>
      <trkpt lat="43.76082" lon="4.13892">
        <ele>111.9</ele>
        <time>2026-05-31T07:50:15.000Z</time>
      </trkpt>
      <trkpt lat="43.7608" lon="4.13893">
        <ele>111.5</ele>
        <time>2026-05-31T07:50:16.000Z</time>
      </trkpt>
      <trkpt lat="43.76079" lon="4.13894">
        <ele>111</ele>
        <time>2026-05-31T07:50:17.000Z</time>
      </trkpt>
      <trkpt lat="43.76078" lon="4.13894">
        <ele>110.1</ele>
        <time>2026-05-31T07:50:18.000Z</time>
      </trkpt>
      <trkpt lat="43.76078" lon="4.13895">
        <ele>109.8</ele>
        <time>2026-05-31T07:50:19.000Z</time>
      </trkpt>
      <trkpt lat="43.76077" lon="4.13896">
        <ele>109.5</ele>
        <time>2026-05-31T07:50:20.000Z</time>
      </trkpt>
      <trkpt lat="43.76076" lon="4.13897">
        <ele>109.5</ele>
        <time>2026-05-31T07:50:21.000Z</time>
      </trkpt>
      <trkpt lat="43.76075" lon="4.13899">
        <ele>109.4</ele>
        <time>2026-05-31T07:50:22.000Z</time>
      </trkpt>
      <trkpt lat="43.76074" lon="4.139">
        <ele>109.4</ele>
        <time>2026-05-31T07:50:23.000Z</time>
      </trkpt>
      <trkpt lat="43.76074" lon="4.13901">
        <ele>109.4</ele>
        <time>2026-05-31T07:50:24.000Z</time>
      </trkpt>
      <trkpt lat="43.76073" lon="4.13902">
        <ele>109.2</ele>
        <time>2026-05-31T07:50:25.000Z</time>
      </trkpt>
      <trkpt lat="43.76073" lon="4.13903">
        <ele>109.1</ele>
        <time>2026-05-31T07:50:26.000Z</time>
      </trkpt>
      <trkpt lat="43.76072" lon="4.13903">
        <ele>109.2</ele>
        <time>2026-05-31T07:50:27.000Z</time>
      </trkpt>
      <trkpt lat="43.76071" lon="4.13904">
        <ele>109.1</ele>
        <time>2026-05-31T07:50:28.000Z</time>
      </trkpt>
      <trkpt lat="43.7607" lon="4.13904">
        <ele>109.3</ele>
        <time>2026-05-31T07:50:29.000Z</time>
      </trkpt>
      <trkpt lat="43.76069" lon="4.13905">
        <ele>109.3</ele>
        <time>2026-05-31T07:50:30.000Z</time>
      </trkpt>
      <trkpt lat="43.76067" lon="4.13905">
        <ele>109.3</ele>
        <time>2026-05-31T07:50:31.000Z</time>
      </trkpt>
      <trkpt lat="43.76065" lon="4.13905">
        <ele>109.1</ele>
        <time>2026-05-31T07:50:32.000Z</time>
      </trkpt>
      <trkpt lat="43.76064" lon="4.13906">
        <ele>109.5</ele>
        <time>2026-05-31T07:50:33.000Z</time>
      </trkpt>
      <trkpt lat="43.76063" lon="4.13906">
        <ele>109.3</ele>
        <time>2026-05-31T07:50:34.000Z</time>
      </trkpt>
      <trkpt lat="43.76062" lon="4.13907">
        <ele>109.3</ele>
        <time>2026-05-31T07:50:35.000Z</time>
      </trkpt>
      <trkpt lat="43.76061" lon="4.13908">
        <ele>109.3</ele>
        <time>2026-05-31T07:50:36.000Z</time>
      </trkpt>
      <trkpt lat="43.7606" lon="4.13909">
        <ele>109.1</ele>
        <time>2026-05-31T07:50:37.000Z</time>
      </trkpt>
      <trkpt lat="43.76058" lon="4.1391">
        <ele>109.3</ele>
        <time>2026-05-31T07:50:38.000Z</time>
      </trkpt>
      <trkpt lat="43.76057" lon="4.1391">
        <ele>109.5</ele>
        <time>2026-05-31T07:50:39.000Z</time>
      </trkpt>
      <trkpt lat="43.76057" lon="4.13911">
        <ele>109.5</ele>
        <time>2026-05-31T07:50:40.000Z</time>
      </trkpt>
      <trkpt lat="43.76056" lon="4.13912">
        <ele>109.8</ele>
        <time>2026-05-31T07:50:41.000Z</time>
      </trkpt>
      <trkpt lat="43.76055" lon="4.13912">
        <ele>109.8</ele>
        <time>2026-05-31T07:50:42.000Z</time>
      </trkpt>
      <trkpt lat="43.76053" lon="4.13913">
        <ele>109.9</ele>
        <time>2026-05-31T07:50:43.000Z</time>
      </trkpt>
      <trkpt lat="43.76052" lon="4.13914">
        <ele>110.1</ele>
        <time>2026-05-31T07:50:44.000Z</time>
      </trkpt>
      <trkpt lat="43.76051" lon="4.13915">
        <ele>110.1</ele>
        <time>2026-05-31T07:50:45.000Z</time>
      </trkpt>
      <trkpt lat="43.7605" lon="4.13915">
        <ele>110.3</ele>
        <time>2026-05-31T07:50:46.000Z</time>
      </trkpt>
      <trkpt lat="43.7605" lon="4.13916">
        <ele>110.3</ele>
        <time>2026-05-31T07:50:47.000Z</time>
      </trkpt>
      <trkpt lat="43.76049" lon="4.13917">
        <ele>110</ele>
        <time>2026-05-31T07:50:48.000Z</time>
      </trkpt>
      <trkpt lat="43.76048" lon="4.13917">
        <ele>109.8</ele>
        <time>2026-05-31T07:50:49.000Z</time>
      </trkpt>
      <trkpt lat="43.76047" lon="4.13918">
        <ele>109.7</ele>
        <time>2026-05-31T07:50:50.000Z</time>
      </trkpt>
      <trkpt lat="43.76046" lon="4.13919">
        <ele>109.5</ele>
        <time>2026-05-31T07:50:51.000Z</time>
      </trkpt>
      <trkpt lat="43.76046" lon="4.1392">
        <ele>109.6</ele>
        <time>2026-05-31T07:50:52.000Z</time>
      </trkpt>
      <trkpt lat="43.76046" lon="4.13921">
        <ele>109.6</ele>
        <time>2026-05-31T07:50:53.000Z</time>
      </trkpt>
      <trkpt lat="43.76045" lon="4.13922">
        <ele>109.6</ele>
        <time>2026-05-31T07:50:54.000Z</time>
      </trkpt>
      <trkpt lat="43.76044" lon="4.13924">
        <ele>109.7</ele>
        <time>2026-05-31T07:50:55.000Z</time>
      </trkpt>
      <trkpt lat="43.76044" lon="4.13925">
        <ele>109.6</ele>
        <time>2026-05-31T07:50:56.000Z</time>
      </trkpt>
      <trkpt lat="43.76043" lon="4.13926">
        <ele>109.4</ele>
        <time>2026-05-31T07:50:57.000Z</time>
      </trkpt>
      <trkpt lat="43.76042" lon="4.13927">
        <ele>109.3</ele>
        <time>2026-05-31T07:50:58.000Z</time>
      </trkpt>
      <trkpt lat="43.76041" lon="4.13928">
        <ele>108.9</ele>
        <time>2026-05-31T07:50:59.000Z</time>
      </trkpt>
      <trkpt lat="43.7604" lon="4.13929">
        <ele>108.5</ele>
        <time>2026-05-31T07:51:00.000Z</time>
      </trkpt>
      <trkpt lat="43.76039" lon="4.13929">
        <ele>108.2</ele>
        <time>2026-05-31T07:51:01.000Z</time>
      </trkpt>
      <trkpt lat="43.76038" lon="4.13931">
        <ele>108.1</ele>
        <time>2026-05-31T07:51:02.000Z</time>
      </trkpt>
      <trkpt lat="43.76037" lon="4.13932">
        <ele>108.2</ele>
        <time>2026-05-31T07:51:03.000Z</time>
      </trkpt>
      <trkpt lat="43.76036" lon="4.13932">
        <ele>108.1</ele>
        <time>2026-05-31T07:51:04.000Z</time>
      </trkpt>
      <trkpt lat="43.76035" lon="4.13934">
        <ele>108.2</ele>
        <time>2026-05-31T07:51:05.000Z</time>
      </trkpt>
      <trkpt lat="43.76034" lon="4.13934">
        <ele>108.1</ele>
        <time>2026-05-31T07:51:06.000Z</time>
      </trkpt>
      <trkpt lat="43.76033" lon="4.13935">
        <ele>108</ele>
        <time>2026-05-31T07:51:07.000Z</time>
      </trkpt>
      <trkpt lat="43.76033" lon="4.13936">
        <ele>108</ele>
        <time>2026-05-31T07:51:08.000Z</time>
      </trkpt>
      <trkpt lat="43.76032" lon="4.13937">
        <ele>108</ele>
        <time>2026-05-31T07:51:09.000Z</time>
      </trkpt>
      <trkpt lat="43.7603" lon="4.13937">
        <ele>107.9</ele>
        <time>2026-05-31T07:51:10.000Z</time>
      </trkpt>
      <trkpt lat="43.76029" lon="4.13938">
        <ele>108.2</ele>
        <time>2026-05-31T07:51:11.000Z</time>
      </trkpt>
      <trkpt lat="43.76027" lon="4.13939">
        <ele>108.6</ele>
        <time>2026-05-31T07:51:12.000Z</time>
      </trkpt>
      <trkpt lat="43.76027" lon="4.1394">
        <ele>109.3</ele>
        <time>2026-05-31T07:51:13.000Z</time>
      </trkpt>
      <trkpt lat="43.76026" lon="4.13941">
        <ele>110.1</ele>
        <time>2026-05-31T07:51:14.000Z</time>
      </trkpt>
      <trkpt lat="43.76026" lon="4.13942">
        <ele>110.6</ele>
        <time>2026-05-31T07:51:15.000Z</time>
      </trkpt>
      <trkpt lat="43.76025" lon="4.13944">
        <ele>111</ele>
        <time>2026-05-31T07:51:16.000Z</time>
      </trkpt>
      <trkpt lat="43.76024" lon="4.13945">
        <ele>111.1</ele>
        <time>2026-05-31T07:51:17.000Z</time>
      </trkpt>
      <trkpt lat="43.76023" lon="4.13947">
        <ele>111.6</ele>
        <time>2026-05-31T07:51:18.000Z</time>
      </trkpt>
      <trkpt lat="43.76022" lon="4.13948">
        <ele>111.8</ele>
        <time>2026-05-31T07:51:19.000Z</time>
      </trkpt>
      <trkpt lat="43.76021" lon="4.13949">
        <ele>112</ele>
        <time>2026-05-31T07:51:20.000Z</time>
      </trkpt>
      <trkpt lat="43.7602" lon="4.1395">
        <ele>112</ele>
        <time>2026-05-31T07:51:21.000Z</time>
      </trkpt>
      <trkpt lat="43.76019" lon="4.1395">
        <ele>111.8</ele>
        <time>2026-05-31T07:51:22.000Z</time>
      </trkpt>
      <trkpt lat="43.76018" lon="4.13951">
        <ele>111.7</ele>
        <time>2026-05-31T07:51:23.000Z</time>
      </trkpt>
      <trkpt lat="43.76018" lon="4.13953">
        <ele>111.5</ele>
        <time>2026-05-31T07:51:24.000Z</time>
      </trkpt>
      <trkpt lat="43.76017" lon="4.13953">
        <ele>111.3</ele>
        <time>2026-05-31T07:51:25.000Z</time>
      </trkpt>
      <trkpt lat="43.76016" lon="4.13954">
        <ele>111.1</ele>
        <time>2026-05-31T07:51:26.000Z</time>
      </trkpt>
      <trkpt lat="43.76015" lon="4.13955">
        <ele>111</ele>
        <time>2026-05-31T07:51:27.000Z</time>
      </trkpt>
      <trkpt lat="43.76014" lon="4.13957">
        <ele>110.9</ele>
        <time>2026-05-31T07:51:28.000Z</time>
      </trkpt>
      <trkpt lat="43.76013" lon="4.13958">
        <ele>110.7</ele>
        <time>2026-05-31T07:51:29.000Z</time>
      </trkpt>
      <trkpt lat="43.76013" lon="4.1396">
        <ele>110.5</ele>
        <time>2026-05-31T07:51:30.000Z</time>
      </trkpt>
      <trkpt lat="43.76012" lon="4.13961">
        <ele>110.5</ele>
        <time>2026-05-31T07:51:31.000Z</time>
      </trkpt>
      <trkpt lat="43.76012" lon="4.13961">
        <ele>110.3</ele>
        <time>2026-05-31T07:51:32.000Z</time>
      </trkpt>
      <trkpt lat="43.76011" lon="4.13963">
        <ele>110.8</ele>
        <time>2026-05-31T07:51:33.000Z</time>
      </trkpt>
      <trkpt lat="43.7601" lon="4.13964">
        <ele>110.6</ele>
        <time>2026-05-31T07:51:34.000Z</time>
      </trkpt>
      <trkpt lat="43.7601" lon="4.13964">
        <ele>110.5</ele>
        <time>2026-05-31T07:51:35.000Z</time>
      </trkpt>
      <trkpt lat="43.76009" lon="4.13965">
        <ele>110</ele>
        <time>2026-05-31T07:51:36.000Z</time>
      </trkpt>
      <trkpt lat="43.76007" lon="4.13966">
        <ele>109.9</ele>
        <time>2026-05-31T07:51:37.000Z</time>
      </trkpt>
      <trkpt lat="43.76006" lon="4.13966">
        <ele>110.1</ele>
        <time>2026-05-31T07:51:38.000Z</time>
      </trkpt>
      <trkpt lat="43.76005" lon="4.13967">
        <ele>110.1</ele>
        <time>2026-05-31T07:51:39.000Z</time>
      </trkpt>
      <trkpt lat="43.76004" lon="4.13968">
        <ele>110.2</ele>
        <time>2026-05-31T07:51:40.000Z</time>
      </trkpt>
      <trkpt lat="43.76002" lon="4.1397">
        <ele>110.4</ele>
        <time>2026-05-31T07:51:41.000Z</time>
      </trkpt>
      <trkpt lat="43.76001" lon="4.13971">
        <ele>110.6</ele>
        <time>2026-05-31T07:51:42.000Z</time>
      </trkpt>
      <trkpt lat="43.76" lon="4.13972">
        <ele>110.8</ele>
        <time>2026-05-31T07:51:43.000Z</time>
      </trkpt>
      <trkpt lat="43.75999" lon="4.13973">
        <ele>110.9</ele>
        <time>2026-05-31T07:51:44.000Z</time>
      </trkpt>
      <trkpt lat="43.75998" lon="4.13974">
        <ele>110.7</ele>
        <time>2026-05-31T07:51:45.000Z</time>
      </trkpt>
      <trkpt lat="43.75998" lon="4.13975">
        <ele>110.6</ele>
        <time>2026-05-31T07:51:46.000Z</time>
      </trkpt>
      <trkpt lat="43.75996" lon="4.13977">
        <ele>110.7</ele>
        <time>2026-05-31T07:51:47.000Z</time>
      </trkpt>
      <trkpt lat="43.75995" lon="4.13978">
        <ele>110.6</ele>
        <time>2026-05-31T07:51:48.000Z</time>
      </trkpt>
      <trkpt lat="43.75994" lon="4.13979">
        <ele>110.6</ele>
        <time>2026-05-31T07:51:49.000Z</time>
      </trkpt>
      <trkpt lat="43.75993" lon="4.13981">
        <ele>110.6</ele>
        <time>2026-05-31T07:51:50.000Z</time>
      </trkpt>
      <trkpt lat="43.75993" lon="4.13982">
        <ele>110.5</ele>
        <time>2026-05-31T07:51:51.000Z</time>
      </trkpt>
      <trkpt lat="43.75992" lon="4.13984">
        <ele>110.5</ele>
        <time>2026-05-31T07:51:52.000Z</time>
      </trkpt>
      <trkpt lat="43.75991" lon="4.13985">
        <ele>110.6</ele>
        <time>2026-05-31T07:51:53.000Z</time>
      </trkpt>
      <trkpt lat="43.7599" lon="4.13986">
        <ele>110.7</ele>
        <time>2026-05-31T07:51:54.000Z</time>
      </trkpt>
      <trkpt lat="43.75989" lon="4.13987">
        <ele>110.9</ele>
        <time>2026-05-31T07:51:55.000Z</time>
      </trkpt>
      <trkpt lat="43.75989" lon="4.13988">
        <ele>111</ele>
        <time>2026-05-31T07:51:56.000Z</time>
      </trkpt>
      <trkpt lat="43.75988" lon="4.13989">
        <ele>110.8</ele>
        <time>2026-05-31T07:51:57.000Z</time>
      </trkpt>
      <trkpt lat="43.75986" lon="4.13991">
        <ele>110.3</ele>
        <time>2026-05-31T07:51:58.000Z</time>
      </trkpt>
      <trkpt lat="43.75985" lon="4.13992">
        <ele>110.1</ele>
        <time>2026-05-31T07:51:59.000Z</time>
      </trkpt>
      <trkpt lat="43.75984" lon="4.13992">
        <ele>109.7</ele>
        <time>2026-05-31T07:52:00.000Z</time>
      </trkpt>
      <trkpt lat="43.75982" lon="4.13993">
        <ele>109.4</ele>
        <time>2026-05-31T07:52:01.000Z</time>
      </trkpt>
      <trkpt lat="43.75981" lon="4.13993">
        <ele>109.4</ele>
        <time>2026-05-31T07:52:02.000Z</time>
      </trkpt>
      <trkpt lat="43.75979" lon="4.13994">
        <ele>109.9</ele>
        <time>2026-05-31T07:52:03.000Z</time>
      </trkpt>
      <trkpt lat="43.75978" lon="4.13995">
        <ele>110.1</ele>
        <time>2026-05-31T07:52:04.000Z</time>
      </trkpt>
      <trkpt lat="43.75976" lon="4.13996">
        <ele>110.4</ele>
        <time>2026-05-31T07:52:05.000Z</time>
      </trkpt>
      <trkpt lat="43.75975" lon="4.13996">
        <ele>110.7</ele>
        <time>2026-05-31T07:52:06.000Z</time>
      </trkpt>
      <trkpt lat="43.75974" lon="4.13996">
        <ele>110.7</ele>
        <time>2026-05-31T07:52:07.000Z</time>
      </trkpt>
      <trkpt lat="43.75973" lon="4.13997">
        <ele>110.8</ele>
        <time>2026-05-31T07:52:08.000Z</time>
      </trkpt>
      <trkpt lat="43.75972" lon="4.13997">
        <ele>110.8</ele>
        <time>2026-05-31T07:52:09.000Z</time>
      </trkpt>
      <trkpt lat="43.75971" lon="4.13998">
        <ele>110.9</ele>
        <time>2026-05-31T07:52:10.000Z</time>
      </trkpt>
      <trkpt lat="43.75971" lon="4.13998">
        <ele>111.1</ele>
        <time>2026-05-31T07:52:11.000Z</time>
      </trkpt>
      <trkpt lat="43.75969" lon="4.13999">
        <ele>111.1</ele>
        <time>2026-05-31T07:52:12.000Z</time>
      </trkpt>
      <trkpt lat="43.75968" lon="4.14">
        <ele>111.1</ele>
        <time>2026-05-31T07:52:13.000Z</time>
      </trkpt>
      <trkpt lat="43.75967" lon="4.14002">
        <ele>111.4</ele>
        <time>2026-05-31T07:52:14.000Z</time>
      </trkpt>
      <trkpt lat="43.75966" lon="4.14003">
        <ele>111.6</ele>
        <time>2026-05-31T07:52:15.000Z</time>
      </trkpt>
      <trkpt lat="43.75966" lon="4.14003">
        <ele>111.6</ele>
        <time>2026-05-31T07:52:16.000Z</time>
      </trkpt>
      <trkpt lat="43.75965" lon="4.14004">
        <ele>111.4</ele>
        <time>2026-05-31T07:52:17.000Z</time>
      </trkpt>
      <trkpt lat="43.75964" lon="4.14004">
        <ele>111.4</ele>
        <time>2026-05-31T07:52:18.000Z</time>
      </trkpt>
      <trkpt lat="43.75963" lon="4.14005">
        <ele>111.5</ele>
        <time>2026-05-31T07:52:19.000Z</time>
      </trkpt>
      <trkpt lat="43.75962" lon="4.14005">
        <ele>111.9</ele>
        <time>2026-05-31T07:52:20.000Z</time>
      </trkpt>
      <trkpt lat="43.75961" lon="4.14005">
        <ele>112.2</ele>
        <time>2026-05-31T07:52:21.000Z</time>
      </trkpt>
      <trkpt lat="43.75961" lon="4.14005">
        <ele>112.3</ele>
        <time>2026-05-31T07:52:22.000Z</time>
      </trkpt>
      <trkpt lat="43.7596" lon="4.14005">
        <ele>112.2</ele>
        <time>2026-05-31T07:52:23.000Z</time>
      </trkpt>
      <trkpt lat="43.75959" lon="4.14005">
        <ele>112.2</ele>
        <time>2026-05-31T07:52:24.000Z</time>
      </trkpt>
      <trkpt lat="43.75958" lon="4.14006">
        <ele>112.1</ele>
        <time>2026-05-31T07:52:25.000Z</time>
      </trkpt>
      <trkpt lat="43.75957" lon="4.14007">
        <ele>112</ele>
        <time>2026-05-31T07:52:26.000Z</time>
      </trkpt>
      <trkpt lat="43.75955" lon="4.14007">
        <ele>111.8</ele>
        <time>2026-05-31T07:52:27.000Z</time>
      </trkpt>
      <trkpt lat="43.75954" lon="4.14007">
        <ele>112</ele>
        <time>2026-05-31T07:52:28.000Z</time>
      </trkpt>
      <trkpt lat="43.75953" lon="4.14008">
        <ele>111.9</ele>
        <time>2026-05-31T07:52:29.000Z</time>
      </trkpt>
      <trkpt lat="43.75953" lon="4.14008">
        <ele>111.8</ele>
        <time>2026-05-31T07:52:30.000Z</time>
      </trkpt>
      <trkpt lat="43.75952" lon="4.14008">
        <ele>111.7</ele>
        <time>2026-05-31T07:52:31.000Z</time>
      </trkpt>
      <trkpt lat="43.7595" lon="4.14008">
        <ele>112</ele>
        <time>2026-05-31T07:52:32.000Z</time>
      </trkpt>
      <trkpt lat="43.75949" lon="4.14008">
        <ele>112.3</ele>
        <time>2026-05-31T07:52:33.000Z</time>
      </trkpt>
      <trkpt lat="43.75949" lon="4.14009">
        <ele>112.5</ele>
        <time>2026-05-31T07:52:34.000Z</time>
      </trkpt>
      <trkpt lat="43.75948" lon="4.1401">
        <ele>112.7</ele>
        <time>2026-05-31T07:52:35.000Z</time>
      </trkpt>
      <trkpt lat="43.75947" lon="4.1401">
        <ele>112.7</ele>
        <time>2026-05-31T07:52:36.000Z</time>
      </trkpt>
      <trkpt lat="43.75947" lon="4.1401">
        <ele>112.8</ele>
        <time>2026-05-31T07:52:37.000Z</time>
      </trkpt>
      <trkpt lat="43.75946" lon="4.14011">
        <ele>112.9</ele>
        <time>2026-05-31T07:52:38.000Z</time>
      </trkpt>
      <trkpt lat="43.75945" lon="4.14011">
        <ele>112.8</ele>
        <time>2026-05-31T07:52:39.000Z</time>
      </trkpt>
      <trkpt lat="43.75943" lon="4.14012">
        <ele>112.9</ele>
        <time>2026-05-31T07:52:40.000Z</time>
      </trkpt>
      <trkpt lat="43.75941" lon="4.14013">
        <ele>112.9</ele>
        <time>2026-05-31T07:52:41.000Z</time>
      </trkpt>
      <trkpt lat="43.75939" lon="4.14014">
        <ele>112.8</ele>
        <time>2026-05-31T07:52:42.000Z</time>
      </trkpt>
      <trkpt lat="43.75938" lon="4.14015">
        <ele>113</ele>
        <time>2026-05-31T07:52:43.000Z</time>
      </trkpt>
      <trkpt lat="43.75937" lon="4.14016">
        <ele>113</ele>
        <time>2026-05-31T07:52:44.000Z</time>
      </trkpt>
      <trkpt lat="43.75936" lon="4.14017">
        <ele>113.1</ele>
        <time>2026-05-31T07:52:45.000Z</time>
      </trkpt>
      <trkpt lat="43.75934" lon="4.14017">
        <ele>112.9</ele>
        <time>2026-05-31T07:52:46.000Z</time>
      </trkpt>
      <trkpt lat="43.75933" lon="4.14017">
        <ele>112.4</ele>
        <time>2026-05-31T07:52:47.000Z</time>
      </trkpt>
      <trkpt lat="43.75932" lon="4.14017">
        <ele>112.1</ele>
        <time>2026-05-31T07:52:48.000Z</time>
      </trkpt>
      <trkpt lat="43.7593" lon="4.14018">
        <ele>111.8</ele>
        <time>2026-05-31T07:52:49.000Z</time>
      </trkpt>
      <trkpt lat="43.75929" lon="4.14018">
        <ele>111.3</ele>
        <time>2026-05-31T07:52:50.000Z</time>
      </trkpt>
      <trkpt lat="43.75928" lon="4.14018">
        <ele>110.9</ele>
        <time>2026-05-31T07:52:51.000Z</time>
      </trkpt>
      <trkpt lat="43.75927" lon="4.14019">
        <ele>110.5</ele>
        <time>2026-05-31T07:52:52.000Z</time>
      </trkpt>
      <trkpt lat="43.75926" lon="4.14019">
        <ele>110.5</ele>
        <time>2026-05-31T07:52:53.000Z</time>
      </trkpt>
      <trkpt lat="43.75925" lon="4.1402">
        <ele>110.5</ele>
        <time>2026-05-31T07:52:54.000Z</time>
      </trkpt>
      <trkpt lat="43.75924" lon="4.14021">
        <ele>110.6</ele>
        <time>2026-05-31T07:52:55.000Z</time>
      </trkpt>
      <trkpt lat="43.75923" lon="4.14021">
        <ele>110.7</ele>
        <time>2026-05-31T07:52:56.000Z</time>
      </trkpt>
      <trkpt lat="43.75921" lon="4.14021">
        <ele>110.9</ele>
        <time>2026-05-31T07:52:57.000Z</time>
      </trkpt>
      <trkpt lat="43.7592" lon="4.1402">
        <ele>110.5</ele>
        <time>2026-05-31T07:52:58.000Z</time>
      </trkpt>
      <trkpt lat="43.75919" lon="4.14019">
        <ele>110.3</ele>
        <time>2026-05-31T07:52:59.000Z</time>
      </trkpt>
      <trkpt lat="43.75919" lon="4.14018">
        <ele>110.5</ele>
        <time>2026-05-31T07:53:00.000Z</time>
      </trkpt>
      <trkpt lat="43.75918" lon="4.14017">
        <ele>110.5</ele>
        <time>2026-05-31T07:53:01.000Z</time>
      </trkpt>
      <trkpt lat="43.75918" lon="4.14016">
        <ele>110.3</ele>
        <time>2026-05-31T07:53:02.000Z</time>
      </trkpt>
      <trkpt lat="43.75918" lon="4.14014">
        <ele>110.1</ele>
        <time>2026-05-31T07:53:03.000Z</time>
      </trkpt>
      <trkpt lat="43.75917" lon="4.14013">
        <ele>110</ele>
        <time>2026-05-31T07:53:04.000Z</time>
      </trkpt>
      <trkpt lat="43.75917" lon="4.14012">
        <ele>109.9</ele>
        <time>2026-05-31T07:53:05.000Z</time>
      </trkpt>
      <trkpt lat="43.75916" lon="4.14012">
        <ele>110</ele>
        <time>2026-05-31T07:53:06.000Z</time>
      </trkpt>
      <trkpt lat="43.75916" lon="4.14012">
        <ele>109.7</ele>
        <time>2026-05-31T07:53:07.000Z</time>
      </trkpt>
      <trkpt lat="43.75915" lon="4.14011">
        <ele>109.9</ele>
        <time>2026-05-31T07:53:08.000Z</time>
      </trkpt>
      <trkpt lat="43.75915" lon="4.1401">
        <ele>109.6</ele>
        <time>2026-05-31T07:53:09.000Z</time>
      </trkpt>
      <trkpt lat="43.75914" lon="4.14009">
        <ele>109.3</ele>
        <time>2026-05-31T07:53:10.000Z</time>
      </trkpt>
      <trkpt lat="43.75913" lon="4.14009">
        <ele>109.3</ele>
        <time>2026-05-31T07:53:11.000Z</time>
      </trkpt>
      <trkpt lat="43.75913" lon="4.14009">
        <ele>109.6</ele>
        <time>2026-05-31T07:53:12.000Z</time>
      </trkpt>
      <trkpt lat="43.75912" lon="4.14008">
        <ele>109.7</ele>
        <time>2026-05-31T07:53:13.000Z</time>
      </trkpt>
      <trkpt lat="43.75911" lon="4.14008">
        <ele>109.5</ele>
        <time>2026-05-31T07:53:14.000Z</time>
      </trkpt>
      <trkpt lat="43.7591" lon="4.14007">
        <ele>109.3</ele>
        <time>2026-05-31T07:53:15.000Z</time>
      </trkpt>
      <trkpt lat="43.75909" lon="4.14006">
        <ele>108.7</ele>
        <time>2026-05-31T07:53:16.000Z</time>
      </trkpt>
      <trkpt lat="43.75908" lon="4.14006">
        <ele>108.4</ele>
        <time>2026-05-31T07:53:17.000Z</time>
      </trkpt>
      <trkpt lat="43.75907" lon="4.14005">
        <ele>108</ele>
        <time>2026-05-31T07:53:18.000Z</time>
      </trkpt>
      <trkpt lat="43.75907" lon="4.14005">
        <ele>107.8</ele>
        <time>2026-05-31T07:53:19.000Z</time>
      </trkpt>
      <trkpt lat="43.75906" lon="4.14005">
        <ele>107.6</ele>
        <time>2026-05-31T07:53:20.000Z</time>
      </trkpt>
      <trkpt lat="43.75906" lon="4.14005">
        <ele>107.5</ele>
        <time>2026-05-31T07:53:21.000Z</time>
      </trkpt>
      <trkpt lat="43.75905" lon="4.14004">
        <ele>108.1</ele>
        <time>2026-05-31T07:53:22.000Z</time>
      </trkpt>
      <trkpt lat="43.75905" lon="4.14004">
        <ele>108.1</ele>
        <time>2026-05-31T07:53:23.000Z</time>
      </trkpt>
      <trkpt lat="43.75905" lon="4.14004">
        <ele>108</ele>
        <time>2026-05-31T07:53:24.000Z</time>
      </trkpt>
      <trkpt lat="43.75905" lon="4.14004">
        <ele>107.9</ele>
        <time>2026-05-31T07:53:25.000Z</time>
      </trkpt>
      <trkpt lat="43.75905" lon="4.14004">
        <ele>107.8</ele>
        <time>2026-05-31T07:53:26.000Z</time>
      </trkpt>
      <trkpt lat="43.75905" lon="4.14005">
        <ele>107.9</ele>
        <time>2026-05-31T07:53:27.000Z</time>
      </trkpt>
      <trkpt lat="43.75905" lon="4.14005">
        <ele>108</ele>
        <time>2026-05-31T07:53:28.000Z</time>
      </trkpt>
      <trkpt lat="43.75905" lon="4.14004">
        <ele>108.2</ele>
        <time>2026-05-31T07:53:29.000Z</time>
      </trkpt>
      <trkpt lat="43.75905" lon="4.14004">
        <ele>108.2</ele>
        <time>2026-05-31T07:53:30.000Z</time>
      </trkpt>
      <trkpt lat="43.75905" lon="4.14004">
        <ele>108.3</ele>
        <time>2026-05-31T07:53:31.000Z</time>
      </trkpt>
      <trkpt lat="43.75905" lon="4.14004">
        <ele>108.3</ele>
        <time>2026-05-31T07:53:32.000Z</time>
      </trkpt>
      <trkpt lat="43.75904" lon="4.14003">
        <ele>108.3</ele>
        <time>2026-05-31T07:53:33.000Z</time>
      </trkpt>
      <trkpt lat="43.75903" lon="4.14003">
        <ele>108.3</ele>
        <time>2026-05-31T07:53:34.000Z</time>
      </trkpt>
      <trkpt lat="43.75902" lon="4.14002">
        <ele>108.3</ele>
        <time>2026-05-31T07:53:35.000Z</time>
      </trkpt>
      <trkpt lat="43.75902" lon="4.14002">
        <ele>108.4</ele>
        <time>2026-05-31T07:53:36.000Z</time>
      </trkpt>
      <trkpt lat="43.75901" lon="4.14">
        <ele>108.5</ele>
        <time>2026-05-31T07:53:37.000Z</time>
      </trkpt>
      <trkpt lat="43.759" lon="4.13999">
        <ele>108.6</ele>
        <time>2026-05-31T07:53:38.000Z</time>
      </trkpt>
      <trkpt lat="43.759" lon="4.13998">
        <ele>108.9</ele>
        <time>2026-05-31T07:53:39.000Z</time>
      </trkpt>
      <trkpt lat="43.75899" lon="4.13997">
        <ele>109</ele>
        <time>2026-05-31T07:53:40.000Z</time>
      </trkpt>
      <trkpt lat="43.75899" lon="4.13997">
        <ele>109.3</ele>
        <time>2026-05-31T07:53:41.000Z</time>
      </trkpt>
      <trkpt lat="43.75899" lon="4.13997">
        <ele>109.2</ele>
        <time>2026-05-31T07:53:42.000Z</time>
      </trkpt>
      <trkpt lat="43.75899" lon="4.13996">
        <ele>108.9</ele>
        <time>2026-05-31T07:53:43.000Z</time>
      </trkpt>
      <trkpt lat="43.75899" lon="4.13996">
        <ele>108.9</ele>
        <time>2026-05-31T07:53:44.000Z</time>
      </trkpt>
      <trkpt lat="43.75898" lon="4.13996">
        <ele>109</ele>
        <time>2026-05-31T07:53:45.000Z</time>
      </trkpt>
      <trkpt lat="43.75898" lon="4.13995">
        <ele>108.8</ele>
        <time>2026-05-31T07:53:46.000Z</time>
      </trkpt>
      <trkpt lat="43.75898" lon="4.13995">
        <ele>108.6</ele>
        <time>2026-05-31T07:53:47.000Z</time>
      </trkpt>
      <trkpt lat="43.75898" lon="4.13994">
        <ele>108.5</ele>
        <time>2026-05-31T07:53:48.000Z</time>
      </trkpt>
      <trkpt lat="43.75898" lon="4.13994">
        <ele>108.2</ele>
        <time>2026-05-31T07:53:49.000Z</time>
      </trkpt>
      <trkpt lat="43.75898" lon="4.13994">
        <ele>107.8</ele>
        <time>2026-05-31T07:53:50.000Z</time>
      </trkpt>
      <trkpt lat="43.75898" lon="4.13994">
        <ele>107.8</ele>
        <time>2026-05-31T07:53:51.000Z</time>
      </trkpt>
      <trkpt lat="43.75897" lon="4.13993">
        <ele>107.7</ele>
        <time>2026-05-31T07:53:52.000Z</time>
      </trkpt>
      <trkpt lat="43.75897" lon="4.13993">
        <ele>107.7</ele>
        <time>2026-05-31T07:53:53.000Z</time>
      </trkpt>
      <trkpt lat="43.75897" lon="4.13992">
        <ele>107.8</ele>
        <time>2026-05-31T07:53:54.000Z</time>
      </trkpt>
      <trkpt lat="43.75896" lon="4.13991">
        <ele>107.7</ele>
        <time>2026-05-31T07:53:55.000Z</time>
      </trkpt>
      <trkpt lat="43.75895" lon="4.1399">
        <ele>107.8</ele>
        <time>2026-05-31T07:53:56.000Z</time>
      </trkpt>
      <trkpt lat="43.75894" lon="4.13988">
        <ele>108</ele>
        <time>2026-05-31T07:53:57.000Z</time>
      </trkpt>
      <trkpt lat="43.75893" lon="4.13987">
        <ele>108</ele>
        <time>2026-05-31T07:53:58.000Z</time>
      </trkpt>
      <trkpt lat="43.75893" lon="4.13987">
        <ele>108</ele>
        <time>2026-05-31T07:53:59.000Z</time>
      </trkpt>
      <trkpt lat="43.75893" lon="4.13986">
        <ele>108</ele>
        <time>2026-05-31T07:54:00.000Z</time>
      </trkpt>
      <trkpt lat="43.75893" lon="4.13986">
        <ele>107.9</ele>
        <time>2026-05-31T07:54:01.000Z</time>
      </trkpt>
      <trkpt lat="43.75892" lon="4.13985">
        <ele>108.1</ele>
        <time>2026-05-31T07:54:02.000Z</time>
      </trkpt>
      <trkpt lat="43.75892" lon="4.13985">
        <ele>108.5</ele>
        <time>2026-05-31T07:54:03.000Z</time>
      </trkpt>
      <trkpt lat="43.75892" lon="4.13985">
        <ele>108.8</ele>
        <time>2026-05-31T07:54:04.000Z</time>
      </trkpt>
      <trkpt lat="43.75892" lon="4.13985">
        <ele>109.1</ele>
        <time>2026-05-31T07:54:05.000Z</time>
      </trkpt>
      <trkpt lat="43.75892" lon="4.13984">
        <ele>109.8</ele>
        <time>2026-05-31T07:54:06.000Z</time>
      </trkpt>
      <trkpt lat="43.75891" lon="4.13984">
        <ele>110.4</ele>
        <time>2026-05-31T07:54:07.000Z</time>
      </trkpt>
      <trkpt lat="43.75891" lon="4.13983">
        <ele>110.8</ele>
        <time>2026-05-31T07:54:08.000Z</time>
      </trkpt>
      <trkpt lat="43.75891" lon="4.13983">
        <ele>111.2</ele>
        <time>2026-05-31T07:54:09.000Z</time>
      </trkpt>
      <trkpt lat="43.75891" lon="4.13983">
        <ele>111.2</ele>
        <time>2026-05-31T07:54:10.000Z</time>
      </trkpt>
      <trkpt lat="43.75891" lon="4.13983">
        <ele>111.1</ele>
        <time>2026-05-31T07:54:11.000Z</time>
      </trkpt>
      <trkpt lat="43.75891" lon="4.13983">
        <ele>110.8</ele>
        <time>2026-05-31T07:54:12.000Z</time>
      </trkpt>
      <trkpt lat="43.7589" lon="4.13983">
        <ele>110.7</ele>
        <time>2026-05-31T07:54:13.000Z</time>
      </trkpt>
      <trkpt lat="43.7589" lon="4.13983">
        <ele>110.7</ele>
        <time>2026-05-31T07:54:14.000Z</time>
      </trkpt>
      <trkpt lat="43.7589" lon="4.13982">
        <ele>110.7</ele>
        <time>2026-05-31T07:54:15.000Z</time>
      </trkpt>
      <trkpt lat="43.7589" lon="4.13981">
        <ele>110.7</ele>
        <time>2026-05-31T07:54:16.000Z</time>
      </trkpt>
      <trkpt lat="43.75889" lon="4.13979">
        <ele>110.5</ele>
        <time>2026-05-31T07:54:17.000Z</time>
      </trkpt>
      <trkpt lat="43.75889" lon="4.13977">
        <ele>110.3</ele>
        <time>2026-05-31T07:54:18.000Z</time>
      </trkpt>
      <trkpt lat="43.75888" lon="4.13976">
        <ele>110.1</ele>
        <time>2026-05-31T07:54:19.000Z</time>
      </trkpt>
      <trkpt lat="43.75888" lon="4.13975">
        <ele>110</ele>
        <time>2026-05-31T07:54:20.000Z</time>
      </trkpt>
      <trkpt lat="43.75888" lon="4.13975">
        <ele>109.9</ele>
        <time>2026-05-31T07:54:21.000Z</time>
      </trkpt>
      <trkpt lat="43.75887" lon="4.13975">
        <ele>109.7</ele>
        <time>2026-05-31T07:54:22.000Z</time>
      </trkpt>
      <trkpt lat="43.75887" lon="4.13975">
        <ele>109.7</ele>
        <time>2026-05-31T07:54:23.000Z</time>
      </trkpt>
      <trkpt lat="43.75887" lon="4.13975">
        <ele>109.6</ele>
        <time>2026-05-31T07:54:24.000Z</time>
      </trkpt>
      <trkpt lat="43.75886" lon="4.13974">
        <ele>109.6</ele>
        <time>2026-05-31T07:54:25.000Z</time>
      </trkpt>
      <trkpt lat="43.75884" lon="4.13972">
        <ele>109.6</ele>
        <time>2026-05-31T07:54:26.000Z</time>
      </trkpt>
      <trkpt lat="43.75883" lon="4.1397">
        <ele>109.3</ele>
        <time>2026-05-31T07:54:27.000Z</time>
      </trkpt>
      <trkpt lat="43.75882" lon="4.13968">
        <ele>109.1</ele>
        <time>2026-05-31T07:54:28.000Z</time>
      </trkpt>
      <trkpt lat="43.7588" lon="4.13966">
        <ele>109</ele>
        <time>2026-05-31T07:54:29.000Z</time>
      </trkpt>
      <trkpt lat="43.75879" lon="4.13964">
        <ele>108.9</ele>
        <time>2026-05-31T07:54:30.000Z</time>
      </trkpt>
      <trkpt lat="43.75878" lon="4.13962">
        <ele>108.6</ele>
        <time>2026-05-31T07:54:31.000Z</time>
      </trkpt>
      <trkpt lat="43.75877" lon="4.13961">
        <ele>108.6</ele>
        <time>2026-05-31T07:54:32.000Z</time>
      </trkpt>
      <trkpt lat="43.75876" lon="4.13959">
        <ele>108.6</ele>
        <time>2026-05-31T07:54:33.000Z</time>
      </trkpt>
      <trkpt lat="43.75874" lon="4.13956">
        <ele>108.5</ele>
        <time>2026-05-31T07:54:34.000Z</time>
      </trkpt>
      <trkpt lat="43.75873" lon="4.13954">
        <ele>108.5</ele>
        <time>2026-05-31T07:54:35.000Z</time>
      </trkpt>
      <trkpt lat="43.75871" lon="4.13952">
        <ele>108.6</ele>
        <time>2026-05-31T07:54:36.000Z</time>
      </trkpt>
      <trkpt lat="43.75869" lon="4.1395">
        <ele>108.9</ele>
        <time>2026-05-31T07:54:37.000Z</time>
      </trkpt>
      <trkpt lat="43.75867" lon="4.13947">
        <ele>109</ele>
        <time>2026-05-31T07:54:38.000Z</time>
      </trkpt>
      <trkpt lat="43.75866" lon="4.13945">
        <ele>109</ele>
        <time>2026-05-31T07:54:39.000Z</time>
      </trkpt>
      <trkpt lat="43.75865" lon="4.13944">
        <ele>109</ele>
        <time>2026-05-31T07:54:40.000Z</time>
      </trkpt>
      <trkpt lat="43.75864" lon="4.13943">
        <ele>108.7</ele>
        <time>2026-05-31T07:54:41.000Z</time>
      </trkpt>
      <trkpt lat="43.75863" lon="4.13942">
        <ele>108.7</ele>
        <time>2026-05-31T07:54:42.000Z</time>
      </trkpt>
      <trkpt lat="43.75862" lon="4.13941">
        <ele>108.6</ele>
        <time>2026-05-31T07:54:43.000Z</time>
      </trkpt>
      <trkpt lat="43.75862" lon="4.1394">
        <ele>108.6</ele>
        <time>2026-05-31T07:54:44.000Z</time>
      </trkpt>
      <trkpt lat="43.75861" lon="4.13939">
        <ele>108.4</ele>
        <time>2026-05-31T07:54:45.000Z</time>
      </trkpt>
      <trkpt lat="43.75861" lon="4.13938">
        <ele>108.4</ele>
        <time>2026-05-31T07:54:46.000Z</time>
      </trkpt>
      <trkpt lat="43.7586" lon="4.13938">
        <ele>108.6</ele>
        <time>2026-05-31T07:54:47.000Z</time>
      </trkpt>
      <trkpt lat="43.75859" lon="4.13937">
        <ele>108.5</ele>
        <time>2026-05-31T07:54:48.000Z</time>
      </trkpt>
      <trkpt lat="43.75859" lon="4.13936">
        <ele>108.7</ele>
        <time>2026-05-31T07:54:49.000Z</time>
      </trkpt>
      <trkpt lat="43.75859" lon="4.13936">
        <ele>108.6</ele>
        <time>2026-05-31T07:54:50.000Z</time>
      </trkpt>
      <trkpt lat="43.75859" lon="4.13936">
        <ele>108.6</ele>
        <time>2026-05-31T07:54:51.000Z</time>
      </trkpt>
      <trkpt lat="43.75859" lon="4.13936">
        <ele>108.5</ele>
        <time>2026-05-31T07:54:52.000Z</time>
      </trkpt>
      <trkpt lat="43.75858" lon="4.13935">
        <ele>108.7</ele>
        <time>2026-05-31T07:54:53.000Z</time>
      </trkpt>
      <trkpt lat="43.75857" lon="4.13933">
        <ele>108.3</ele>
        <time>2026-05-31T07:54:54.000Z</time>
      </trkpt>
      <trkpt lat="43.75856" lon="4.13932">
        <ele>108.3</ele>
        <time>2026-05-31T07:54:55.000Z</time>
      </trkpt>
      <trkpt lat="43.75855" lon="4.13931">
        <ele>108.5</ele>
        <time>2026-05-31T07:54:56.000Z</time>
      </trkpt>
      <trkpt lat="43.75855" lon="4.1393">
        <ele>108.3</ele>
        <time>2026-05-31T07:54:57.000Z</time>
      </trkpt>
      <trkpt lat="43.75854" lon="4.13929">
        <ele>108.4</ele>
        <time>2026-05-31T07:54:58.000Z</time>
      </trkpt>
      <trkpt lat="43.75854" lon="4.13928">
        <ele>108.4</ele>
        <time>2026-05-31T07:54:59.000Z</time>
      </trkpt>
      <trkpt lat="43.75853" lon="4.13928">
        <ele>108.4</ele>
        <time>2026-05-31T07:55:00.000Z</time>
      </trkpt>
      <trkpt lat="43.75853" lon="4.13927">
        <ele>108.3</ele>
        <time>2026-05-31T07:55:01.000Z</time>
      </trkpt>
      <trkpt lat="43.75853" lon="4.13927">
        <ele>108.4</ele>
        <time>2026-05-31T07:55:02.000Z</time>
      </trkpt>
      <trkpt lat="43.75853" lon="4.13926">
        <ele>108.7</ele>
        <time>2026-05-31T07:55:03.000Z</time>
      </trkpt>
      <trkpt lat="43.75852" lon="4.13923">
        <ele>109</ele>
        <time>2026-05-31T07:55:04.000Z</time>
      </trkpt>
      <trkpt lat="43.75851" lon="4.13921">
        <ele>108.9</ele>
        <time>2026-05-31T07:55:05.000Z</time>
      </trkpt>
      <trkpt lat="43.7585" lon="4.1392">
        <ele>109.1</ele>
        <time>2026-05-31T07:55:06.000Z</time>
      </trkpt>
      <trkpt lat="43.7585" lon="4.13919">
        <ele>109</ele>
        <time>2026-05-31T07:55:07.000Z</time>
      </trkpt>
      <trkpt lat="43.7585" lon="4.13917">
        <ele>109.1</ele>
        <time>2026-05-31T07:55:08.000Z</time>
      </trkpt>
      <trkpt lat="43.7585" lon="4.13915">
        <ele>109.2</ele>
        <time>2026-05-31T07:55:09.000Z</time>
      </trkpt>
      <trkpt lat="43.7585" lon="4.13913">
        <ele>108.7</ele>
        <time>2026-05-31T07:55:10.000Z</time>
      </trkpt>
      <trkpt lat="43.7585" lon="4.13911">
        <ele>108.3</ele>
        <time>2026-05-31T07:55:11.000Z</time>
      </trkpt>
      <trkpt lat="43.7585" lon="4.1391">
        <ele>108.4</ele>
        <time>2026-05-31T07:55:12.000Z</time>
      </trkpt>
      <trkpt lat="43.7585" lon="4.13908">
        <ele>108.3</ele>
        <time>2026-05-31T07:55:13.000Z</time>
      </trkpt>
      <trkpt lat="43.7585" lon="4.13907">
        <ele>108.2</ele>
        <time>2026-05-31T07:55:14.000Z</time>
      </trkpt>
      <trkpt lat="43.7585" lon="4.13905">
        <ele>108.5</ele>
        <time>2026-05-31T07:55:15.000Z</time>
      </trkpt>
      <trkpt lat="43.75851" lon="4.13904">
        <ele>108.7</ele>
        <time>2026-05-31T07:55:16.000Z</time>
      </trkpt>
      <trkpt lat="43.75852" lon="4.13902">
        <ele>109.2</ele>
        <time>2026-05-31T07:55:17.000Z</time>
      </trkpt>
      <trkpt lat="43.75852" lon="4.13901">
        <ele>109.4</ele>
        <time>2026-05-31T07:55:18.000Z</time>
      </trkpt>
      <trkpt lat="43.75852" lon="4.13899">
        <ele>109.6</ele>
        <time>2026-05-31T07:55:19.000Z</time>
      </trkpt>
      <trkpt lat="43.75852" lon="4.13899">
        <ele>109.7</ele>
        <time>2026-05-31T07:55:20.000Z</time>
      </trkpt>
      <trkpt lat="43.75853" lon="4.13897">
        <ele>109.6</ele>
        <time>2026-05-31T07:55:21.000Z</time>
      </trkpt>
      <trkpt lat="43.75853" lon="4.13895">
        <ele>109.5</ele>
        <time>2026-05-31T07:55:22.000Z</time>
      </trkpt>
      <trkpt lat="43.75853" lon="4.13894">
        <ele>109.4</ele>
        <time>2026-05-31T07:55:23.000Z</time>
      </trkpt>
      <trkpt lat="43.75853" lon="4.13893">
        <ele>109.6</ele>
        <time>2026-05-31T07:55:24.000Z</time>
      </trkpt>
      <trkpt lat="43.75853" lon="4.13891">
        <ele>109.5</ele>
        <time>2026-05-31T07:55:25.000Z</time>
      </trkpt>
      <trkpt lat="43.75853" lon="4.1389">
        <ele>109.5</ele>
        <time>2026-05-31T07:55:26.000Z</time>
      </trkpt>
      <trkpt lat="43.75853" lon="4.13889">
        <ele>109.7</ele>
        <time>2026-05-31T07:55:27.000Z</time>
      </trkpt>
      <trkpt lat="43.75853" lon="4.13889">
        <ele>109.8</ele>
        <time>2026-05-31T07:55:28.000Z</time>
      </trkpt>
      <trkpt lat="43.75853" lon="4.13888">
        <ele>109.8</ele>
        <time>2026-05-31T07:55:29.000Z</time>
      </trkpt>
      <trkpt lat="43.75853" lon="4.13886">
        <ele>109.7</ele>
        <time>2026-05-31T07:55:30.000Z</time>
      </trkpt>
      <trkpt lat="43.75853" lon="4.13885">
        <ele>110.1</ele>
        <time>2026-05-31T07:55:31.000Z</time>
      </trkpt>
      <trkpt lat="43.75853" lon="4.13883">
        <ele>110.4</ele>
        <time>2026-05-31T07:55:32.000Z</time>
      </trkpt>
      <trkpt lat="43.75853" lon="4.13881">
        <ele>110.6</ele>
        <time>2026-05-31T07:55:33.000Z</time>
      </trkpt>
      <trkpt lat="43.75853" lon="4.13879">
        <ele>110.3</ele>
        <time>2026-05-31T07:55:34.000Z</time>
      </trkpt>
      <trkpt lat="43.75852" lon="4.13878">
        <ele>110.4</ele>
        <time>2026-05-31T07:55:35.000Z</time>
      </trkpt>
      <trkpt lat="43.75852" lon="4.13876">
        <ele>110.3</ele>
        <time>2026-05-31T07:55:36.000Z</time>
      </trkpt>
      <trkpt lat="43.75852" lon="4.13874">
        <ele>110.3</ele>
        <time>2026-05-31T07:55:37.000Z</time>
      </trkpt>
      <trkpt lat="43.75852" lon="4.13873">
        <ele>110.3</ele>
        <time>2026-05-31T07:55:38.000Z</time>
      </trkpt>
      <trkpt lat="43.75852" lon="4.13872">
        <ele>110.5</ele>
        <time>2026-05-31T07:55:39.000Z</time>
      </trkpt>
      <trkpt lat="43.75852" lon="4.13871">
        <ele>110.4</ele>
        <time>2026-05-31T07:55:40.000Z</time>
      </trkpt>
      <trkpt lat="43.75851" lon="4.13869">
        <ele>110.9</ele>
        <time>2026-05-31T07:55:41.000Z</time>
      </trkpt>
      <trkpt lat="43.75851" lon="4.13868">
        <ele>111.5</ele>
        <time>2026-05-31T07:55:42.000Z</time>
      </trkpt>
      <trkpt lat="43.75851" lon="4.13866">
        <ele>111.7</ele>
        <time>2026-05-31T07:55:43.000Z</time>
      </trkpt>
      <trkpt lat="43.75852" lon="4.13864">
        <ele>112.2</ele>
        <time>2026-05-31T07:55:44.000Z</time>
      </trkpt>
      <trkpt lat="43.75852" lon="4.13862">
        <ele>112.8</ele>
        <time>2026-05-31T07:55:45.000Z</time>
      </trkpt>
      <trkpt lat="43.75852" lon="4.13861">
        <ele>112.7</ele>
        <time>2026-05-31T07:55:46.000Z</time>
      </trkpt>
      <trkpt lat="43.75853" lon="4.13859">
        <ele>113.2</ele>
        <time>2026-05-31T07:55:47.000Z</time>
      </trkpt>
      <trkpt lat="43.75853" lon="4.13857">
        <ele>113.5</ele>
        <time>2026-05-31T07:55:48.000Z</time>
      </trkpt>
      <trkpt lat="43.75853" lon="4.13856">
        <ele>113.9</ele>
        <time>2026-05-31T07:55:49.000Z</time>
      </trkpt>
      <trkpt lat="43.75854" lon="4.13855">
        <ele>114.1</ele>
        <time>2026-05-31T07:55:50.000Z</time>
      </trkpt>
      <trkpt lat="43.75855" lon="4.13854">
        <ele>114.3</ele>
        <time>2026-05-31T07:55:51.000Z</time>
      </trkpt>
      <trkpt lat="43.75855" lon="4.13853">
        <ele>114.6</ele>
        <time>2026-05-31T07:55:52.000Z</time>
      </trkpt>
      <trkpt lat="43.75856" lon="4.1385">
        <ele>114.7</ele>
        <time>2026-05-31T07:55:53.000Z</time>
      </trkpt>
      <trkpt lat="43.75857" lon="4.13849">
        <ele>114.7</ele>
        <time>2026-05-31T07:55:54.000Z</time>
      </trkpt>
      <trkpt lat="43.75857" lon="4.13847">
        <ele>114.8</ele>
        <time>2026-05-31T07:55:55.000Z</time>
      </trkpt>
      <trkpt lat="43.75857" lon="4.13846">
        <ele>114.8</ele>
        <time>2026-05-31T07:55:56.000Z</time>
      </trkpt>
      <trkpt lat="43.75857" lon="4.13844">
        <ele>114.5</ele>
        <time>2026-05-31T07:55:57.000Z</time>
      </trkpt>
      <trkpt lat="43.75856" lon="4.13843">
        <ele>114.6</ele>
        <time>2026-05-31T07:55:58.000Z</time>
      </trkpt>
      <trkpt lat="43.75856" lon="4.13841">
        <ele>114.7</ele>
        <time>2026-05-31T07:55:59.000Z</time>
      </trkpt>
      <trkpt lat="43.75856" lon="4.1384">
        <ele>114.5</ele>
        <time>2026-05-31T07:56:00.000Z</time>
      </trkpt>
      <trkpt lat="43.75856" lon="4.13839">
        <ele>114.7</ele>
        <time>2026-05-31T07:56:01.000Z</time>
      </trkpt>
      <trkpt lat="43.75856" lon="4.13838">
        <ele>114.7</ele>
        <time>2026-05-31T07:56:02.000Z</time>
      </trkpt>
      <trkpt lat="43.75856" lon="4.13837">
        <ele>114.9</ele>
        <time>2026-05-31T07:56:03.000Z</time>
      </trkpt>
      <trkpt lat="43.75856" lon="4.13836">
        <ele>115.4</ele>
        <time>2026-05-31T07:56:04.000Z</time>
      </trkpt>
      <trkpt lat="43.75856" lon="4.13835">
        <ele>115.6</ele>
        <time>2026-05-31T07:56:05.000Z</time>
      </trkpt>
      <trkpt lat="43.75857" lon="4.13834">
        <ele>115.6</ele>
        <time>2026-05-31T07:56:06.000Z</time>
      </trkpt>
      <trkpt lat="43.75857" lon="4.13833">
        <ele>115.6</ele>
        <time>2026-05-31T07:56:07.000Z</time>
      </trkpt>
      <trkpt lat="43.75857" lon="4.13832">
        <ele>115.6</ele>
        <time>2026-05-31T07:56:08.000Z</time>
      </trkpt>
      <trkpt lat="43.75858" lon="4.13831">
        <ele>115.6</ele>
        <time>2026-05-31T07:56:09.000Z</time>
      </trkpt>
      <trkpt lat="43.75857" lon="4.1383">
        <ele>116</ele>
        <time>2026-05-31T07:56:10.000Z</time>
      </trkpt>
      <trkpt lat="43.75857" lon="4.1383">
        <ele>116.1</ele>
        <time>2026-05-31T07:56:11.000Z</time>
      </trkpt>
      <trkpt lat="43.75857" lon="4.13829">
        <ele>116.6</ele>
        <time>2026-05-31T07:56:12.000Z</time>
      </trkpt>
      <trkpt lat="43.75857" lon="4.13828">
        <ele>116.6</ele>
        <time>2026-05-31T07:56:13.000Z</time>
      </trkpt>
      <trkpt lat="43.75856" lon="4.13826">
        <ele>117</ele>
        <time>2026-05-31T07:56:14.000Z</time>
      </trkpt>
      <trkpt lat="43.75856" lon="4.13824">
        <ele>117.5</ele>
        <time>2026-05-31T07:56:15.000Z</time>
      </trkpt>
      <trkpt lat="43.75855" lon="4.13822">
        <ele>118</ele>
        <time>2026-05-31T07:56:16.000Z</time>
      </trkpt>
      <trkpt lat="43.75855" lon="4.1382">
        <ele>118.4</ele>
        <time>2026-05-31T07:56:17.000Z</time>
      </trkpt>
      <trkpt lat="43.75854" lon="4.13819">
        <ele>118.5</ele>
        <time>2026-05-31T07:56:18.000Z</time>
      </trkpt>
      <trkpt lat="43.75853" lon="4.13818">
        <ele>118.8</ele>
        <time>2026-05-31T07:56:19.000Z</time>
      </trkpt>
      <trkpt lat="43.75853" lon="4.13817">
        <ele>119.1</ele>
        <time>2026-05-31T07:56:20.000Z</time>
      </trkpt>
      <trkpt lat="43.75853" lon="4.13817">
        <ele>119.2</ele>
        <time>2026-05-31T07:56:21.000Z</time>
      </trkpt>
      <trkpt lat="43.75854" lon="4.13816">
        <ele>119.1</ele>
        <time>2026-05-31T07:56:22.000Z</time>
      </trkpt>
      <trkpt lat="43.75854" lon="4.13815">
        <ele>119.2</ele>
        <time>2026-05-31T07:56:23.000Z</time>
      </trkpt>
      <trkpt lat="43.75854" lon="4.13813">
        <ele>119.3</ele>
        <time>2026-05-31T07:56:24.000Z</time>
      </trkpt>
      <trkpt lat="43.75854" lon="4.13812">
        <ele>119.4</ele>
        <time>2026-05-31T07:56:25.000Z</time>
      </trkpt>
      <trkpt lat="43.75853" lon="4.1381">
        <ele>119.6</ele>
        <time>2026-05-31T07:56:26.000Z</time>
      </trkpt>
      <trkpt lat="43.75853" lon="4.13809">
        <ele>120</ele>
        <time>2026-05-31T07:56:27.000Z</time>
      </trkpt>
      <trkpt lat="43.75853" lon="4.13807">
        <ele>120.1</ele>
        <time>2026-05-31T07:56:28.000Z</time>
      </trkpt>
      <trkpt lat="43.75852" lon="4.13806">
        <ele>120.3</ele>
        <time>2026-05-31T07:56:29.000Z</time>
      </trkpt>
      <trkpt lat="43.75852" lon="4.13804">
        <ele>120.2</ele>
        <time>2026-05-31T07:56:30.000Z</time>
      </trkpt>
      <trkpt lat="43.75852" lon="4.13803">
        <ele>120.5</ele>
        <time>2026-05-31T07:56:31.000Z</time>
      </trkpt>
      <trkpt lat="43.75853" lon="4.13801">
        <ele>121.1</ele>
        <time>2026-05-31T07:56:32.000Z</time>
      </trkpt>
      <trkpt lat="43.75853" lon="4.138">
        <ele>121.3</ele>
        <time>2026-05-31T07:56:33.000Z</time>
      </trkpt>
      <trkpt lat="43.75853" lon="4.13798">
        <ele>121.3</ele>
        <time>2026-05-31T07:56:34.000Z</time>
      </trkpt>
      <trkpt lat="43.75852" lon="4.13797">
        <ele>121.1</ele>
        <time>2026-05-31T07:56:35.000Z</time>
      </trkpt>
      <trkpt lat="43.75852" lon="4.13795">
        <ele>121.1</ele>
        <time>2026-05-31T07:56:36.000Z</time>
      </trkpt>
      <trkpt lat="43.75851" lon="4.13794">
        <ele>121</ele>
        <time>2026-05-31T07:56:37.000Z</time>
      </trkpt>
      <trkpt lat="43.75851" lon="4.13792">
        <ele>121.2</ele>
        <time>2026-05-31T07:56:38.000Z</time>
      </trkpt>
      <trkpt lat="43.75851" lon="4.1379">
        <ele>120.5</ele>
        <time>2026-05-31T07:56:39.999Z</time>
      </trkpt>
      <trkpt lat="43.7585" lon="4.1379">
        <ele>120.2</ele>
        <time>2026-05-31T07:56:40.999Z</time>
      </trkpt>
      <trkpt lat="43.7585" lon="4.13789">
        <ele>120.1</ele>
        <time>2026-05-31T07:56:41.999Z</time>
      </trkpt>
      <trkpt lat="43.7585" lon="4.13789">
        <ele>120.4</ele>
        <time>2026-05-31T07:56:42.999Z</time>
      </trkpt>
      <trkpt lat="43.7585" lon="4.13788">
        <ele>120.4</ele>
        <time>2026-05-31T07:56:43.999Z</time>
      </trkpt>
      <trkpt lat="43.7585" lon="4.13788">
        <ele>120.3</ele>
        <time>2026-05-31T07:56:44.999Z</time>
      </trkpt>
      <trkpt lat="43.7585" lon="4.13788">
        <ele>120.4</ele>
        <time>2026-05-31T07:56:45.999Z</time>
      </trkpt>
      <trkpt lat="43.7585" lon="4.13788">
        <ele>120.3</ele>
        <time>2026-05-31T07:56:46.999Z</time>
      </trkpt>
      <trkpt lat="43.7585" lon="4.13788">
        <ele>120.3</ele>
        <time>2026-05-31T07:56:47.999Z</time>
      </trkpt>
      <trkpt lat="43.7585" lon="4.13788">
        <ele>120.3</ele>
        <time>2026-05-31T07:56:48.999Z</time>
      </trkpt>
      <trkpt lat="43.7585" lon="4.13787">
        <ele>120.3</ele>
        <time>2026-05-31T07:56:49.999Z</time>
      </trkpt>
      <trkpt lat="43.75849" lon="4.13786">
        <ele>120.4</ele>
        <time>2026-05-31T07:56:50.999Z</time>
      </trkpt>
      <trkpt lat="43.75848" lon="4.13785">
        <ele>120.5</ele>
        <time>2026-05-31T07:56:51.999Z</time>
      </trkpt>
      <trkpt lat="43.75848" lon="4.13783">
        <ele>120.6</ele>
        <time>2026-05-31T07:56:52.999Z</time>
      </trkpt>
      <trkpt lat="43.75847" lon="4.13782">
        <ele>120.5</ele>
        <time>2026-05-31T07:56:53.999Z</time>
      </trkpt>
      <trkpt lat="43.75846" lon="4.1378">
        <ele>120.3</ele>
        <time>2026-05-31T07:56:54.999Z</time>
      </trkpt>
      <trkpt lat="43.75845" lon="4.13778">
        <ele>120.4</ele>
        <time>2026-05-31T07:56:55.999Z</time>
      </trkpt>
      <trkpt lat="43.75844" lon="4.13776">
        <ele>120.1</ele>
        <time>2026-05-31T07:56:56.999Z</time>
      </trkpt>
      <trkpt lat="43.75843" lon="4.13775">
        <ele>120</ele>
        <time>2026-05-31T07:56:57.999Z</time>
      </trkpt>
      <trkpt lat="43.75843" lon="4.13774">
        <ele>120.1</ele>
        <time>2026-05-31T07:56:58.999Z</time>
      </trkpt>
      <trkpt lat="43.75843" lon="4.13774">
        <ele>119.9</ele>
        <time>2026-05-31T07:56:59.999Z</time>
      </trkpt>
      <trkpt lat="43.75842" lon="4.13773">
        <ele>120.1</ele>
        <time>2026-05-31T07:57:00.999Z</time>
      </trkpt>
      <trkpt lat="43.75842" lon="4.13772">
        <ele>120.2</ele>
        <time>2026-05-31T07:57:01.999Z</time>
      </trkpt>
      <trkpt lat="43.75842" lon="4.1377">
        <ele>120.1</ele>
        <time>2026-05-31T07:57:02.999Z</time>
      </trkpt>
      <trkpt lat="43.75841" lon="4.13769">
        <ele>119.8</ele>
        <time>2026-05-31T07:57:03.999Z</time>
      </trkpt>
      <trkpt lat="43.75841" lon="4.13768">
        <ele>119.5</ele>
        <time>2026-05-31T07:57:04.999Z</time>
      </trkpt>
      <trkpt lat="43.75841" lon="4.13768">
        <ele>119.4</ele>
        <time>2026-05-31T07:57:05.999Z</time>
      </trkpt>
      <trkpt lat="43.75841" lon="4.13767">
        <ele>119.4</ele>
        <time>2026-05-31T07:57:06.999Z</time>
      </trkpt>
      <trkpt lat="43.7584" lon="4.13766">
        <ele>119.4</ele>
        <time>2026-05-31T07:57:07.999Z</time>
      </trkpt>
      <trkpt lat="43.7584" lon="4.13765">
        <ele>119.2</ele>
        <time>2026-05-31T07:57:08.999Z</time>
      </trkpt>
      <trkpt lat="43.7584" lon="4.13763">
        <ele>119.1</ele>
        <time>2026-05-31T07:57:09.999Z</time>
      </trkpt>
      <trkpt lat="43.75839" lon="4.13762">
        <ele>119.1</ele>
        <time>2026-05-31T07:57:10.999Z</time>
      </trkpt>
      <trkpt lat="43.75839" lon="4.1376">
        <ele>118.9</ele>
        <time>2026-05-31T07:57:11.999Z</time>
      </trkpt>
      <trkpt lat="43.75838" lon="4.13757">
        <ele>118.9</ele>
        <time>2026-05-31T07:57:12.999Z</time>
      </trkpt>
      <trkpt lat="43.75838" lon="4.13756">
        <ele>118.8</ele>
        <time>2026-05-31T07:57:13.999Z</time>
      </trkpt>
      <trkpt lat="43.75838" lon="4.13755">
        <ele>118.6</ele>
        <time>2026-05-31T07:57:14.999Z</time>
      </trkpt>
      <trkpt lat="43.75838" lon="4.13753">
        <ele>118.6</ele>
        <time>2026-05-31T07:57:15.999Z</time>
      </trkpt>
      <trkpt lat="43.75839" lon="4.1375">
        <ele>118.5</ele>
        <time>2026-05-31T07:57:16.999Z</time>
      </trkpt>
      <trkpt lat="43.75839" lon="4.13748">
        <ele>118.4</ele>
        <time>2026-05-31T07:57:17.999Z</time>
      </trkpt>
      <trkpt lat="43.75839" lon="4.13747">
        <ele>118.1</ele>
        <time>2026-05-31T07:57:18.999Z</time>
      </trkpt>
      <trkpt lat="43.7584" lon="4.13745">
        <ele>118</ele>
        <time>2026-05-31T07:57:19.999Z</time>
      </trkpt>
      <trkpt lat="43.7584" lon="4.13744">
        <ele>117.9</ele>
        <time>2026-05-31T07:57:20.999Z</time>
      </trkpt>
      <trkpt lat="43.7584" lon="4.13742">
        <ele>117.8</ele>
        <time>2026-05-31T07:57:21.999Z</time>
      </trkpt>
      <trkpt lat="43.7584" lon="4.1374">
        <ele>117.8</ele>
        <time>2026-05-31T07:57:22.999Z</time>
      </trkpt>
      <trkpt lat="43.75841" lon="4.13738">
        <ele>117.6</ele>
        <time>2026-05-31T07:57:23.999Z</time>
      </trkpt>
      <trkpt lat="43.75841" lon="4.13736">
        <ele>117.6</ele>
        <time>2026-05-31T07:57:24.999Z</time>
      </trkpt>
      <trkpt lat="43.75841" lon="4.13734">
        <ele>117.7</ele>
        <time>2026-05-31T07:57:25.999Z</time>
      </trkpt>
      <trkpt lat="43.75841" lon="4.13733">
        <ele>117.7</ele>
        <time>2026-05-31T07:57:26.999Z</time>
      </trkpt>
      <trkpt lat="43.75841" lon="4.13731">
        <ele>117.7</ele>
        <time>2026-05-31T07:57:27.999Z</time>
      </trkpt>
      <trkpt lat="43.75841" lon="4.1373">
        <ele>117.3</ele>
        <time>2026-05-31T07:57:28.999Z</time>
      </trkpt>
      <trkpt lat="43.75841" lon="4.13728">
        <ele>117</ele>
        <time>2026-05-31T07:57:29.999Z</time>
      </trkpt>
      <trkpt lat="43.75841" lon="4.13727">
        <ele>117.3</ele>
        <time>2026-05-31T07:57:30.999Z</time>
      </trkpt>
      <trkpt lat="43.75841" lon="4.13725">
        <ele>117.5</ele>
        <time>2026-05-31T07:57:31.999Z</time>
      </trkpt>
      <trkpt lat="43.75842" lon="4.13724">
        <ele>117.8</ele>
        <time>2026-05-31T07:57:32.999Z</time>
      </trkpt>
      <trkpt lat="43.75842" lon="4.13722">
        <ele>118.2</ele>
        <time>2026-05-31T07:57:33.999Z</time>
      </trkpt>
      <trkpt lat="43.75841" lon="4.13721">
        <ele>118.2</ele>
        <time>2026-05-31T07:57:34.999Z</time>
      </trkpt>
      <trkpt lat="43.75841" lon="4.1372">
        <ele>118.2</ele>
        <time>2026-05-31T07:57:35.999Z</time>
      </trkpt>
      <trkpt lat="43.75841" lon="4.13718">
        <ele>118</ele>
        <time>2026-05-31T07:57:36.999Z</time>
      </trkpt>
      <trkpt lat="43.7584" lon="4.13716">
        <ele>117.8</ele>
        <time>2026-05-31T07:57:37.999Z</time>
      </trkpt>
      <trkpt lat="43.7584" lon="4.13715">
        <ele>117.8</ele>
        <time>2026-05-31T07:57:38.999Z</time>
      </trkpt>
      <trkpt lat="43.75839" lon="4.13714">
        <ele>117.8</ele>
        <time>2026-05-31T07:57:39.999Z</time>
      </trkpt>
      <trkpt lat="43.75838" lon="4.13713">
        <ele>117.9</ele>
        <time>2026-05-31T07:57:40.999Z</time>
      </trkpt>
      <trkpt lat="43.75838" lon="4.13712">
        <ele>117.9</ele>
        <time>2026-05-31T07:57:41.999Z</time>
      </trkpt>
      <trkpt lat="43.75838" lon="4.1371">
        <ele>117.7</ele>
        <time>2026-05-31T07:57:42.999Z</time>
      </trkpt>
      <trkpt lat="43.75838" lon="4.13709">
        <ele>117.5</ele>
        <time>2026-05-31T07:57:43.999Z</time>
      </trkpt>
      <trkpt lat="43.75837" lon="4.13707">
        <ele>117.4</ele>
        <time>2026-05-31T07:57:44.999Z</time>
      </trkpt>
      <trkpt lat="43.75837" lon="4.13706">
        <ele>117.3</ele>
        <time>2026-05-31T07:57:45.999Z</time>
      </trkpt>
      <trkpt lat="43.75836" lon="4.13705">
        <ele>117.5</ele>
        <time>2026-05-31T07:57:46.999Z</time>
      </trkpt>
      <trkpt lat="43.75836" lon="4.13704">
        <ele>117.5</ele>
        <time>2026-05-31T07:57:47.999Z</time>
      </trkpt>
      <trkpt lat="43.75835" lon="4.13703">
        <ele>117.7</ele>
        <time>2026-05-31T07:57:48.999Z</time>
      </trkpt>
      <trkpt lat="43.75834" lon="4.13702">
        <ele>118.4</ele>
        <time>2026-05-31T07:57:49.999Z</time>
      </trkpt>
      <trkpt lat="43.75833" lon="4.13701">
        <ele>118.7</ele>
        <time>2026-05-31T07:57:50.999Z</time>
      </trkpt>
      <trkpt lat="43.75833" lon="4.137">
        <ele>118.4</ele>
        <time>2026-05-31T07:57:51.999Z</time>
      </trkpt>
      <trkpt lat="43.75832" lon="4.13698">
        <ele>117.9</ele>
        <time>2026-05-31T07:57:52.999Z</time>
      </trkpt>
      <trkpt lat="43.75832" lon="4.13697">
        <ele>117.4</ele>
        <time>2026-05-31T07:57:53.999Z</time>
      </trkpt>
      <trkpt lat="43.75832" lon="4.13696">
        <ele>116.9</ele>
        <time>2026-05-31T07:57:54.999Z</time>
      </trkpt>
      <trkpt lat="43.75832" lon="4.13695">
        <ele>116.7</ele>
        <time>2026-05-31T07:57:55.999Z</time>
      </trkpt>
      <trkpt lat="43.75831" lon="4.13693">
        <ele>116.6</ele>
        <time>2026-05-31T07:57:56.999Z</time>
      </trkpt>
      <trkpt lat="43.7583" lon="4.13691">
        <ele>117</ele>
        <time>2026-05-31T07:57:57.999Z</time>
      </trkpt>
      <trkpt lat="43.7583" lon="4.1369">
        <ele>117.4</ele>
        <time>2026-05-31T07:57:58.999Z</time>
      </trkpt>
      <trkpt lat="43.7583" lon="4.13689">
        <ele>117.7</ele>
        <time>2026-05-31T07:57:59.999Z</time>
      </trkpt>
      <trkpt lat="43.75829" lon="4.13688">
        <ele>117.9</ele>
        <time>2026-05-31T07:58:00.999Z</time>
      </trkpt>
      <trkpt lat="43.75829" lon="4.13687">
        <ele>117.9</ele>
        <time>2026-05-31T07:58:01.999Z</time>
      </trkpt>
      <trkpt lat="43.75829" lon="4.13686">
        <ele>118.1</ele>
        <time>2026-05-31T07:58:02.999Z</time>
      </trkpt>
      <trkpt lat="43.75829" lon="4.13684">
        <ele>118.4</ele>
        <time>2026-05-31T07:58:03.999Z</time>
      </trkpt>
      <trkpt lat="43.75828" lon="4.13683">
        <ele>118.7</ele>
        <time>2026-05-31T07:58:04.999Z</time>
      </trkpt>
      <trkpt lat="43.75828" lon="4.13682">
        <ele>119.7</ele>
        <time>2026-05-31T07:58:05.999Z</time>
      </trkpt>
      <trkpt lat="43.75828" lon="4.13681">
        <ele>119.9</ele>
        <time>2026-05-31T07:58:06.999Z</time>
      </trkpt>
      <trkpt lat="43.75828" lon="4.1368">
        <ele>120</ele>
        <time>2026-05-31T07:58:07.999Z</time>
      </trkpt>
      <trkpt lat="43.75829" lon="4.13679">
        <ele>120.3</ele>
        <time>2026-05-31T07:58:08.999Z</time>
      </trkpt>
      <trkpt lat="43.75829" lon="4.13678">
        <ele>120.6</ele>
        <time>2026-05-31T07:58:09.999Z</time>
      </trkpt>
      <trkpt lat="43.75829" lon="4.13676">
        <ele>120.8</ele>
        <time>2026-05-31T07:58:10.999Z</time>
      </trkpt>
      <trkpt lat="43.75829" lon="4.13675">
        <ele>120.8</ele>
        <time>2026-05-31T07:58:11.999Z</time>
      </trkpt>
      <trkpt lat="43.75829" lon="4.13673">
        <ele>121</ele>
        <time>2026-05-31T07:58:12.999Z</time>
      </trkpt>
      <trkpt lat="43.75828" lon="4.13672">
        <ele>121</ele>
        <time>2026-05-31T07:58:13.999Z</time>
      </trkpt>
      <trkpt lat="43.75828" lon="4.13671">
        <ele>120.8</ele>
        <time>2026-05-31T07:58:14.999Z</time>
      </trkpt>
      <trkpt lat="43.75828" lon="4.13669">
        <ele>120.6</ele>
        <time>2026-05-31T07:58:15.999Z</time>
      </trkpt>
      <trkpt lat="43.75828" lon="4.13668">
        <ele>120.5</ele>
        <time>2026-05-31T07:58:16.999Z</time>
      </trkpt>
      <trkpt lat="43.75828" lon="4.13666">
        <ele>120.3</ele>
        <time>2026-05-31T07:58:17.999Z</time>
      </trkpt>
      <trkpt lat="43.75827" lon="4.13666">
        <ele>120.2</ele>
        <time>2026-05-31T07:58:18.999Z</time>
      </trkpt>
      <trkpt lat="43.75826" lon="4.13665">
        <ele>120.3</ele>
        <time>2026-05-31T07:58:19.999Z</time>
      </trkpt>
      <trkpt lat="43.75826" lon="4.13664">
        <ele>120.4</ele>
        <time>2026-05-31T07:58:20.999Z</time>
      </trkpt>
      <trkpt lat="43.75825" lon="4.13663">
        <ele>120.6</ele>
        <time>2026-05-31T07:58:21.999Z</time>
      </trkpt>
      <trkpt lat="43.75824" lon="4.13663">
        <ele>120.9</ele>
        <time>2026-05-31T07:58:22.999Z</time>
      </trkpt>
      <trkpt lat="43.75823" lon="4.13663">
        <ele>121.1</ele>
        <time>2026-05-31T07:58:23.999Z</time>
      </trkpt>
      <trkpt lat="43.75822" lon="4.13663">
        <ele>121.3</ele>
        <time>2026-05-31T07:58:24.999Z</time>
      </trkpt>
      <trkpt lat="43.75821" lon="4.13662">
        <ele>121.4</ele>
        <time>2026-05-31T07:58:25.999Z</time>
      </trkpt>
      <trkpt lat="43.7582" lon="4.13662">
        <ele>121.6</ele>
        <time>2026-05-31T07:58:26.999Z</time>
      </trkpt>
      <trkpt lat="43.75819" lon="4.13661">
        <ele>121.8</ele>
        <time>2026-05-31T07:58:27.999Z</time>
      </trkpt>
      <trkpt lat="43.75818" lon="4.13661">
        <ele>121.7</ele>
        <time>2026-05-31T07:58:28.999Z</time>
      </trkpt>
      <trkpt lat="43.75817" lon="4.13661">
        <ele>121.8</ele>
        <time>2026-05-31T07:58:29.999Z</time>
      </trkpt>
      <trkpt lat="43.75816" lon="4.1366">
        <ele>121.6</ele>
        <time>2026-05-31T07:58:30.999Z</time>
      </trkpt>
      <trkpt lat="43.75815" lon="4.13659">
        <ele>121.3</ele>
        <time>2026-05-31T07:58:31.999Z</time>
      </trkpt>
      <trkpt lat="43.75815" lon="4.13658">
        <ele>121.3</ele>
        <time>2026-05-31T07:58:32.999Z</time>
      </trkpt>
      <trkpt lat="43.75814" lon="4.13657">
        <ele>121.3</ele>
        <time>2026-05-31T07:58:33.999Z</time>
      </trkpt>
      <trkpt lat="43.75814" lon="4.13656">
        <ele>121.4</ele>
        <time>2026-05-31T07:58:34.999Z</time>
      </trkpt>
      <trkpt lat="43.75813" lon="4.13655">
        <ele>121.2</ele>
        <time>2026-05-31T07:58:35.999Z</time>
      </trkpt>
      <trkpt lat="43.75813" lon="4.13654">
        <ele>120.9</ele>
        <time>2026-05-31T07:58:36.999Z</time>
      </trkpt>
      <trkpt lat="43.75812" lon="4.13653">
        <ele>120.6</ele>
        <time>2026-05-31T07:58:37.999Z</time>
      </trkpt>
      <trkpt lat="43.75811" lon="4.13654">
        <ele>120.9</ele>
        <time>2026-05-31T07:58:38.999Z</time>
      </trkpt>
      <trkpt lat="43.7581" lon="4.13654">
        <ele>121.1</ele>
        <time>2026-05-31T07:58:39.999Z</time>
      </trkpt>
      <trkpt lat="43.75808" lon="4.13653">
        <ele>121.2</ele>
        <time>2026-05-31T07:58:40.999Z</time>
      </trkpt>
      <trkpt lat="43.75807" lon="4.13653">
        <ele>121.3</ele>
        <time>2026-05-31T07:58:41.999Z</time>
      </trkpt>
      <trkpt lat="43.75806" lon="4.13653">
        <ele>121.3</ele>
        <time>2026-05-31T07:58:42.999Z</time>
      </trkpt>
      <trkpt lat="43.75805" lon="4.13653">
        <ele>121.5</ele>
        <time>2026-05-31T07:58:43.999Z</time>
      </trkpt>
      <trkpt lat="43.75805" lon="4.13653">
        <ele>121.6</ele>
        <time>2026-05-31T07:58:44.999Z</time>
      </trkpt>
      <trkpt lat="43.75804" lon="4.13653">
        <ele>121.8</ele>
        <time>2026-05-31T07:58:45.999Z</time>
      </trkpt>
      <trkpt lat="43.75803" lon="4.13654">
        <ele>122.5</ele>
        <time>2026-05-31T07:58:46.999Z</time>
      </trkpt>
      <trkpt lat="43.75803" lon="4.13654">
        <ele>122.5</ele>
        <time>2026-05-31T07:58:47.999Z</time>
      </trkpt>
      <trkpt lat="43.75803" lon="4.13654">
        <ele>122.4</ele>
        <time>2026-05-31T07:58:48.999Z</time>
      </trkpt>
      <trkpt lat="43.75803" lon="4.13654">
        <ele>122.2</ele>
        <time>2026-05-31T07:58:49.999Z</time>
      </trkpt>
      <trkpt lat="43.75803" lon="4.13654">
        <ele>122.2</ele>
        <time>2026-05-31T07:58:50.999Z</time>
      </trkpt>
      <trkpt lat="43.75801" lon="4.13652">
        <ele>122.2</ele>
        <time>2026-05-31T07:58:51.999Z</time>
      </trkpt>
      <trkpt lat="43.758" lon="4.1365">
        <ele>122.7</ele>
        <time>2026-05-31T07:58:52.999Z</time>
      </trkpt>
      <trkpt lat="43.75799" lon="4.1365">
        <ele>123.5</ele>
        <time>2026-05-31T07:58:53.999Z</time>
      </trkpt>
      <trkpt lat="43.75797" lon="4.13649">
        <ele>124</ele>
        <time>2026-05-31T07:58:54.999Z</time>
      </trkpt>
      <trkpt lat="43.75796" lon="4.13648">
        <ele>124</ele>
        <time>2026-05-31T07:58:55.999Z</time>
      </trkpt>
      <trkpt lat="43.75794" lon="4.13648">
        <ele>124.5</ele>
        <time>2026-05-31T07:58:56.999Z</time>
      </trkpt>
      <trkpt lat="43.75793" lon="4.13649">
        <ele>125.3</ele>
        <time>2026-05-31T07:58:57.999Z</time>
      </trkpt>
      <trkpt lat="43.75792" lon="4.13649">
        <ele>126.1</ele>
        <time>2026-05-31T07:58:58.999Z</time>
      </trkpt>
      <trkpt lat="43.75792" lon="4.13649">
        <ele>126.5</ele>
        <time>2026-05-31T07:58:59.999Z</time>
      </trkpt>
      <trkpt lat="43.75791" lon="4.13648">
        <ele>126.8</ele>
        <time>2026-05-31T07:59:00.999Z</time>
      </trkpt>
      <trkpt lat="43.75791" lon="4.13648">
        <ele>127.1</ele>
        <time>2026-05-31T07:59:01.999Z</time>
      </trkpt>
      <trkpt lat="43.75791" lon="4.13648">
        <ele>127</ele>
        <time>2026-05-31T07:59:02.999Z</time>
      </trkpt>
      <trkpt lat="43.75791" lon="4.13648">
        <ele>126.7</ele>
        <time>2026-05-31T07:59:03.999Z</time>
      </trkpt>
      <trkpt lat="43.75791" lon="4.13648">
        <ele>126.9</ele>
        <time>2026-05-31T07:59:04.999Z</time>
      </trkpt>
      <trkpt lat="43.75791" lon="4.13648">
        <ele>126.6</ele>
        <time>2026-05-31T07:59:05.999Z</time>
      </trkpt>
      <trkpt lat="43.75791" lon="4.13647">
        <ele>126.5</ele>
        <time>2026-05-31T07:59:06.999Z</time>
      </trkpt>
      <trkpt lat="43.7579" lon="4.13644">
        <ele>126.4</ele>
        <time>2026-05-31T07:59:07.999Z</time>
      </trkpt>
      <trkpt lat="43.75788" lon="4.13642">
        <ele>126.2</ele>
        <time>2026-05-31T07:59:08.999Z</time>
      </trkpt>
      <trkpt lat="43.75786" lon="4.1364">
        <ele>126</ele>
        <time>2026-05-31T07:59:09.999Z</time>
      </trkpt>
      <trkpt lat="43.75785" lon="4.13639">
        <ele>125.9</ele>
        <time>2026-05-31T07:59:10.999Z</time>
      </trkpt>
      <trkpt lat="43.75783" lon="4.13638">
        <ele>125.8</ele>
        <time>2026-05-31T07:59:11.999Z</time>
      </trkpt>
      <trkpt lat="43.75781" lon="4.13636">
        <ele>125.4</ele>
        <time>2026-05-31T07:59:12.999Z</time>
      </trkpt>
      <trkpt lat="43.7578" lon="4.13634">
        <ele>124.8</ele>
        <time>2026-05-31T07:59:13.999Z</time>
      </trkpt>
      <trkpt lat="43.75779" lon="4.13633">
        <ele>124.3</ele>
        <time>2026-05-31T07:59:14.999Z</time>
      </trkpt>
      <trkpt lat="43.75779" lon="4.1363">
        <ele>124.2</ele>
        <time>2026-05-31T07:59:15.999Z</time>
      </trkpt>
      <trkpt lat="43.75778" lon="4.13628">
        <ele>124.5</ele>
        <time>2026-05-31T07:59:16.999Z</time>
      </trkpt>
      <trkpt lat="43.75777" lon="4.13626">
        <ele>125</ele>
        <time>2026-05-31T07:59:17.999Z</time>
      </trkpt>
      <trkpt lat="43.75776" lon="4.13625">
        <ele>125.8</ele>
        <time>2026-05-31T07:59:18.999Z</time>
      </trkpt>
      <trkpt lat="43.75774" lon="4.13623">
        <ele>126</ele>
        <time>2026-05-31T07:59:19.999Z</time>
      </trkpt>
      <trkpt lat="43.75773" lon="4.13622">
        <ele>125.9</ele>
        <time>2026-05-31T07:59:20.999Z</time>
      </trkpt>
      <trkpt lat="43.75772" lon="4.13621">
        <ele>126.1</ele>
        <time>2026-05-31T07:59:21.999Z</time>
      </trkpt>
      <trkpt lat="43.75771" lon="4.13621">
        <ele>126.5</ele>
        <time>2026-05-31T07:59:22.999Z</time>
      </trkpt>
      <trkpt lat="43.7577" lon="4.13621">
        <ele>126.6</ele>
        <time>2026-05-31T07:59:23.999Z</time>
      </trkpt>
      <trkpt lat="43.75769" lon="4.13621">
        <ele>126.6</ele>
        <time>2026-05-31T07:59:24.999Z</time>
      </trkpt>
      <trkpt lat="43.75768" lon="4.1362">
        <ele>126.4</ele>
        <time>2026-05-31T07:59:25.999Z</time>
      </trkpt>
      <trkpt lat="43.75767" lon="4.1362">
        <ele>126.5</ele>
        <time>2026-05-31T07:59:26.999Z</time>
      </trkpt>
      <trkpt lat="43.75766" lon="4.13619">
        <ele>126.8</ele>
        <time>2026-05-31T07:59:27.999Z</time>
      </trkpt>
      <trkpt lat="43.75766" lon="4.13618">
        <ele>126.8</ele>
        <time>2026-05-31T07:59:28.999Z</time>
      </trkpt>
      <trkpt lat="43.75765" lon="4.13616">
        <ele>126.8</ele>
        <time>2026-05-31T07:59:29.999Z</time>
      </trkpt>
      <trkpt lat="43.75764" lon="4.13615">
        <ele>127</ele>
        <time>2026-05-31T07:59:30.999Z</time>
      </trkpt>
      <trkpt lat="43.75764" lon="4.13614">
        <ele>126.8</ele>
        <time>2026-05-31T07:59:31.999Z</time>
      </trkpt>
      <trkpt lat="43.75763" lon="4.13614">
        <ele>126.7</ele>
        <time>2026-05-31T07:59:32.999Z</time>
      </trkpt>
      <trkpt lat="43.75762" lon="4.13613">
        <ele>126.7</ele>
        <time>2026-05-31T07:59:33.999Z</time>
      </trkpt>
      <trkpt lat="43.75761" lon="4.13612">
        <ele>126.6</ele>
        <time>2026-05-31T07:59:34.999Z</time>
      </trkpt>
      <trkpt lat="43.75761" lon="4.13611">
        <ele>126.3</ele>
        <time>2026-05-31T07:59:35.999Z</time>
      </trkpt>
      <trkpt lat="43.7576" lon="4.1361">
        <ele>126.1</ele>
        <time>2026-05-31T07:59:36.999Z</time>
      </trkpt>
      <trkpt lat="43.7576" lon="4.1361">
        <ele>125.7</ele>
        <time>2026-05-31T07:59:37.999Z</time>
      </trkpt>
      <trkpt lat="43.75759" lon="4.13609">
        <ele>125.6</ele>
        <time>2026-05-31T07:59:38.999Z</time>
      </trkpt>
      <trkpt lat="43.75758" lon="4.13609">
        <ele>125.7</ele>
        <time>2026-05-31T07:59:39.999Z</time>
      </trkpt>
      <trkpt lat="43.75758" lon="4.13608">
        <ele>125.5</ele>
        <time>2026-05-31T07:59:40.999Z</time>
      </trkpt>
      <trkpt lat="43.75757" lon="4.13608">
        <ele>125.8</ele>
        <time>2026-05-31T07:59:41.999Z</time>
      </trkpt>
      <trkpt lat="43.75756" lon="4.13606">
        <ele>126.5</ele>
        <time>2026-05-31T07:59:42.999Z</time>
      </trkpt>
      <trkpt lat="43.75756" lon="4.13605">
        <ele>126.8</ele>
        <time>2026-05-31T07:59:43.999Z</time>
      </trkpt>
      <trkpt lat="43.75755" lon="4.13604">
        <ele>126.9</ele>
        <time>2026-05-31T07:59:44.999Z</time>
      </trkpt>
      <trkpt lat="43.75755" lon="4.13603">
        <ele>126.8</ele>
        <time>2026-05-31T07:59:45.999Z</time>
      </trkpt>
      <trkpt lat="43.75754" lon="4.13602">
        <ele>126.8</ele>
        <time>2026-05-31T07:59:46.999Z</time>
      </trkpt>
      <trkpt lat="43.75753" lon="4.13601">
        <ele>126.6</ele>
        <time>2026-05-31T07:59:47.999Z</time>
      </trkpt>
      <trkpt lat="43.75752" lon="4.136">
        <ele>126.4</ele>
        <time>2026-05-31T07:59:48.999Z</time>
      </trkpt>
      <trkpt lat="43.75752" lon="4.13598">
        <ele>126.3</ele>
        <time>2026-05-31T07:59:49.999Z</time>
      </trkpt>
      <trkpt lat="43.75751" lon="4.13597">
        <ele>126</ele>
        <time>2026-05-31T07:59:50.999Z</time>
      </trkpt>
      <trkpt lat="43.75751" lon="4.13595">
        <ele>126.2</ele>
        <time>2026-05-31T07:59:51.999Z</time>
      </trkpt>
      <trkpt lat="43.7575" lon="4.13595">
        <ele>126.2</ele>
        <time>2026-05-31T07:59:52.999Z</time>
      </trkpt>
      <trkpt lat="43.75749" lon="4.13594">
        <ele>125.9</ele>
        <time>2026-05-31T07:59:53.999Z</time>
      </trkpt>
      <trkpt lat="43.75748" lon="4.13593">
        <ele>125.9</ele>
        <time>2026-05-31T07:59:54.999Z</time>
      </trkpt>
      <trkpt lat="43.75748" lon="4.13592">
        <ele>126.2</ele>
        <time>2026-05-31T07:59:55.999Z</time>
      </trkpt>
      <trkpt lat="43.75746" lon="4.13591">
        <ele>126.3</ele>
        <time>2026-05-31T07:59:56.999Z</time>
      </trkpt>
      <trkpt lat="43.75745" lon="4.13591">
        <ele>126.4</ele>
        <time>2026-05-31T07:59:57.999Z</time>
      </trkpt>
      <trkpt lat="43.75744" lon="4.1359">
        <ele>126.6</ele>
        <time>2026-05-31T07:59:58.999Z</time>
      </trkpt>
      <trkpt lat="43.75742" lon="4.13589">
        <ele>127</ele>
        <time>2026-05-31T07:59:59.999Z</time>
      </trkpt>
      <trkpt lat="43.75742" lon="4.13589">
        <ele>127</ele>
        <time>2026-05-31T08:00:00.999Z</time>
      </trkpt>
      <trkpt lat="43.75741" lon="4.13588">
        <ele>127.3</ele>
        <time>2026-05-31T08:00:01.999Z</time>
      </trkpt>
      <trkpt lat="43.7574" lon="4.13587">
        <ele>127.5</ele>
        <time>2026-05-31T08:00:02.999Z</time>
      </trkpt>
      <trkpt lat="43.7574" lon="4.13585">
        <ele>127.7</ele>
        <time>2026-05-31T08:00:03.999Z</time>
      </trkpt>
      <trkpt lat="43.75739" lon="4.13583">
        <ele>128</ele>
        <time>2026-05-31T08:00:04.999Z</time>
      </trkpt>
      <trkpt lat="43.75739" lon="4.13581">
        <ele>128.3</ele>
        <time>2026-05-31T08:00:05.999Z</time>
      </trkpt>
      <trkpt lat="43.75738" lon="4.1358">
        <ele>129</ele>
        <time>2026-05-31T08:00:06.999Z</time>
      </trkpt>
      <trkpt lat="43.75738" lon="4.1358">
        <ele>129.2</ele>
        <time>2026-05-31T08:00:07.999Z</time>
      </trkpt>
      <trkpt lat="43.75737" lon="4.13579">
        <ele>129.1</ele>
        <time>2026-05-31T08:00:08.999Z</time>
      </trkpt>
      <trkpt lat="43.75737" lon="4.13578">
        <ele>128.8</ele>
        <time>2026-05-31T08:00:09.999Z</time>
      </trkpt>
      <trkpt lat="43.75736" lon="4.13577">
        <ele>128.5</ele>
        <time>2026-05-31T08:00:10.999Z</time>
      </trkpt>
      <trkpt lat="43.75736" lon="4.13575">
        <ele>128.8</ele>
        <time>2026-05-31T08:00:11.999Z</time>
      </trkpt>
      <trkpt lat="43.75735" lon="4.13574">
        <ele>128.8</ele>
        <time>2026-05-31T08:00:12.999Z</time>
      </trkpt>
      <trkpt lat="43.75735" lon="4.13573">
        <ele>128.6</ele>
        <time>2026-05-31T08:00:13.999Z</time>
      </trkpt>
      <trkpt lat="43.75735" lon="4.13573">
        <ele>128.3</ele>
        <time>2026-05-31T08:00:14.999Z</time>
      </trkpt>
      <trkpt lat="43.75735" lon="4.13571">
        <ele>128.1</ele>
        <time>2026-05-31T08:00:15.999Z</time>
      </trkpt>
      <trkpt lat="43.75735" lon="4.1357">
        <ele>127.9</ele>
        <time>2026-05-31T08:00:16.999Z</time>
      </trkpt>
      <trkpt lat="43.75735" lon="4.13569">
        <ele>127.9</ele>
        <time>2026-05-31T08:00:17.999Z</time>
      </trkpt>
      <trkpt lat="43.75735" lon="4.13568">
        <ele>127.5</ele>
        <time>2026-05-31T08:00:18.999Z</time>
      </trkpt>
      <trkpt lat="43.75734" lon="4.13568">
        <ele>127.2</ele>
        <time>2026-05-31T08:00:19.999Z</time>
      </trkpt>
      <trkpt lat="43.75733" lon="4.13568">
        <ele>126.7</ele>
        <time>2026-05-31T08:00:20.999Z</time>
      </trkpt>
      <trkpt lat="43.75733" lon="4.13568">
        <ele>126.5</ele>
        <time>2026-05-31T08:00:21.999Z</time>
      </trkpt>
      <trkpt lat="43.75733" lon="4.13568">
        <ele>126.5</ele>
        <time>2026-05-31T08:00:22.999Z</time>
      </trkpt>
      <trkpt lat="43.75733" lon="4.13568">
        <ele>126.6</ele>
        <time>2026-05-31T08:00:23.999Z</time>
      </trkpt>
      <trkpt lat="43.75732" lon="4.13568">
        <ele>126.5</ele>
        <time>2026-05-31T08:00:24.999Z</time>
      </trkpt>
      <trkpt lat="43.75731" lon="4.13568">
        <ele>126.3</ele>
        <time>2026-05-31T08:00:25.999Z</time>
      </trkpt>
      <trkpt lat="43.7573" lon="4.13568">
        <ele>126.1</ele>
        <time>2026-05-31T08:00:26.999Z</time>
      </trkpt>
      <trkpt lat="43.75728" lon="4.13568">
        <ele>126</ele>
        <time>2026-05-31T08:00:27.999Z</time>
      </trkpt>
      <trkpt lat="43.75727" lon="4.13567">
        <ele>126.1</ele>
        <time>2026-05-31T08:00:28.999Z</time>
      </trkpt>
      <trkpt lat="43.75725" lon="4.13566">
        <ele>126.3</ele>
        <time>2026-05-31T08:00:29.999Z</time>
      </trkpt>
      <trkpt lat="43.75724" lon="4.13565">
        <ele>126.1</ele>
        <time>2026-05-31T08:00:30.999Z</time>
      </trkpt>
      <trkpt lat="43.75722" lon="4.13564">
        <ele>126.1</ele>
        <time>2026-05-31T08:00:31.999Z</time>
      </trkpt>
      <trkpt lat="43.7572" lon="4.13563">
        <ele>126.1</ele>
        <time>2026-05-31T08:00:32.999Z</time>
      </trkpt>
      <trkpt lat="43.75719" lon="4.13562">
        <ele>126.3</ele>
        <time>2026-05-31T08:00:33.999Z</time>
      </trkpt>
      <trkpt lat="43.75718" lon="4.13561">
        <ele>126.4</ele>
        <time>2026-05-31T08:00:34.999Z</time>
      </trkpt>
      <trkpt lat="43.75716" lon="4.13561">
        <ele>126.3</ele>
        <time>2026-05-31T08:00:35.999Z</time>
      </trkpt>
      <trkpt lat="43.75715" lon="4.13561">
        <ele>126</ele>
        <time>2026-05-31T08:00:36.999Z</time>
      </trkpt>
      <trkpt lat="43.75714" lon="4.13561">
        <ele>125.9</ele>
        <time>2026-05-31T08:00:37.999Z</time>
      </trkpt>
      <trkpt lat="43.75713" lon="4.13562">
        <ele>125.8</ele>
        <time>2026-05-31T08:00:38.999Z</time>
      </trkpt>
      <trkpt lat="43.75712" lon="4.13562">
        <ele>125.4</ele>
        <time>2026-05-31T08:00:39.999Z</time>
      </trkpt>
      <trkpt lat="43.75711" lon="4.13562">
        <ele>125.1</ele>
        <time>2026-05-31T08:00:40.999Z</time>
      </trkpt>
      <trkpt lat="43.7571" lon="4.13563">
        <ele>125</ele>
        <time>2026-05-31T08:00:41.999Z</time>
      </trkpt>
      <trkpt lat="43.75709" lon="4.13564">
        <ele>125</ele>
        <time>2026-05-31T08:00:42.999Z</time>
      </trkpt>
      <trkpt lat="43.75708" lon="4.13565">
        <ele>124.9</ele>
        <time>2026-05-31T08:00:43.999Z</time>
      </trkpt>
      <trkpt lat="43.75707" lon="4.13566">
        <ele>124.4</ele>
        <time>2026-05-31T08:00:44.999Z</time>
      </trkpt>
      <trkpt lat="43.75706" lon="4.13566">
        <ele>124.4</ele>
        <time>2026-05-31T08:00:45.999Z</time>
      </trkpt>
      <trkpt lat="43.75705" lon="4.13567">
        <ele>124.5</ele>
        <time>2026-05-31T08:00:46.999Z</time>
      </trkpt>
      <trkpt lat="43.75705" lon="4.13567">
        <ele>124.6</ele>
        <time>2026-05-31T08:00:47.999Z</time>
      </trkpt>
      <trkpt lat="43.75703" lon="4.13568">
        <ele>124.3</ele>
        <time>2026-05-31T08:00:48.999Z</time>
      </trkpt>
      <trkpt lat="43.75702" lon="4.13569">
        <ele>124</ele>
        <time>2026-05-31T08:00:49.999Z</time>
      </trkpt>
      <trkpt lat="43.75701" lon="4.13569">
        <ele>123.9</ele>
        <time>2026-05-31T08:00:50.999Z</time>
      </trkpt>
      <trkpt lat="43.757" lon="4.1357">
        <ele>124.1</ele>
        <time>2026-05-31T08:00:51.999Z</time>
      </trkpt>
      <trkpt lat="43.757" lon="4.1357">
        <ele>124.3</ele>
        <time>2026-05-31T08:00:52.999Z</time>
      </trkpt>
      <trkpt lat="43.75699" lon="4.13571">
        <ele>124</ele>
        <time>2026-05-31T08:00:53.999Z</time>
      </trkpt>
      <trkpt lat="43.75698" lon="4.13571">
        <ele>123.9</ele>
        <time>2026-05-31T08:00:54.999Z</time>
      </trkpt>
      <trkpt lat="43.75697" lon="4.13571">
        <ele>124.2</ele>
        <time>2026-05-31T08:00:55.999Z</time>
      </trkpt>
      <trkpt lat="43.75697" lon="4.13571">
        <ele>124.5</ele>
        <time>2026-05-31T08:00:56.999Z</time>
      </trkpt>
      <trkpt lat="43.75696" lon="4.13571">
        <ele>124.6</ele>
        <time>2026-05-31T08:00:57.999Z</time>
      </trkpt>
      <trkpt lat="43.75695" lon="4.13571">
        <ele>124.6</ele>
        <time>2026-05-31T08:00:58.999Z</time>
      </trkpt>
      <trkpt lat="43.75694" lon="4.13572">
        <ele>124.3</ele>
        <time>2026-05-31T08:00:59.999Z</time>
      </trkpt>
      <trkpt lat="43.75693" lon="4.13572">
        <ele>124.2</ele>
        <time>2026-05-31T08:01:00.999Z</time>
      </trkpt>
      <trkpt lat="43.75692" lon="4.13572">
        <ele>124.1</ele>
        <time>2026-05-31T08:01:01.999Z</time>
      </trkpt>
      <trkpt lat="43.75691" lon="4.13572">
        <ele>124.2</ele>
        <time>2026-05-31T08:01:02.999Z</time>
      </trkpt>
      <trkpt lat="43.7569" lon="4.13572">
        <ele>124.3</ele>
        <time>2026-05-31T08:01:03.999Z</time>
      </trkpt>
      <trkpt lat="43.75689" lon="4.13572">
        <ele>124.4</ele>
        <time>2026-05-31T08:01:04.999Z</time>
      </trkpt>
      <trkpt lat="43.75689" lon="4.13572">
        <ele>124.6</ele>
        <time>2026-05-31T08:01:05.999Z</time>
      </trkpt>
      <trkpt lat="43.75688" lon="4.13573">
        <ele>124.4</ele>
        <time>2026-05-31T08:01:06.999Z</time>
      </trkpt>
      <trkpt lat="43.75687" lon="4.13573">
        <ele>124.6</ele>
        <time>2026-05-31T08:01:07.999Z</time>
      </trkpt>
      <trkpt lat="43.75686" lon="4.13573">
        <ele>124.9</ele>
        <time>2026-05-31T08:01:08.999Z</time>
      </trkpt>
      <trkpt lat="43.75685" lon="4.13572">
        <ele>125</ele>
        <time>2026-05-31T08:01:09.999Z</time>
      </trkpt>
      <trkpt lat="43.75684" lon="4.13572">
        <ele>125</ele>
        <time>2026-05-31T08:01:10.999Z</time>
      </trkpt>
      <trkpt lat="43.75683" lon="4.13571">
        <ele>125.1</ele>
        <time>2026-05-31T08:01:11.999Z</time>
      </trkpt>
      <trkpt lat="43.75682" lon="4.13571">
        <ele>125</ele>
        <time>2026-05-31T08:01:12.999Z</time>
      </trkpt>
      <trkpt lat="43.75682" lon="4.1357">
        <ele>125</ele>
        <time>2026-05-31T08:01:13.999Z</time>
      </trkpt>
      <trkpt lat="43.75681" lon="4.13569">
        <ele>125.2</ele>
        <time>2026-05-31T08:01:14.999Z</time>
      </trkpt>
      <trkpt lat="43.75681" lon="4.13568">
        <ele>125.2</ele>
        <time>2026-05-31T08:01:15.999Z</time>
      </trkpt>
      <trkpt lat="43.7568" lon="4.13567">
        <ele>125.4</ele>
        <time>2026-05-31T08:01:16.999Z</time>
      </trkpt>
      <trkpt lat="43.75679" lon="4.13566">
        <ele>125.2</ele>
        <time>2026-05-31T08:01:17.999Z</time>
      </trkpt>
      <trkpt lat="43.75678" lon="4.13564">
        <ele>125</ele>
        <time>2026-05-31T08:01:18.999Z</time>
      </trkpt>
      <trkpt lat="43.75676" lon="4.13562">
        <ele>125.5</ele>
        <time>2026-05-31T08:01:19.999Z</time>
      </trkpt>
      <trkpt lat="43.75676" lon="4.13561">
        <ele>125.6</ele>
        <time>2026-05-31T08:01:20.999Z</time>
      </trkpt>
      <trkpt lat="43.75675" lon="4.13559">
        <ele>126.2</ele>
        <time>2026-05-31T08:01:21.999Z</time>
      </trkpt>
      <trkpt lat="43.75674" lon="4.13559">
        <ele>126.7</ele>
        <time>2026-05-31T08:01:22.999Z</time>
      </trkpt>
      <trkpt lat="43.75673" lon="4.13559">
        <ele>127.5</ele>
        <time>2026-05-31T08:01:23.999Z</time>
      </trkpt>
      <trkpt lat="43.75673" lon="4.13559">
        <ele>127.8</ele>
        <time>2026-05-31T08:01:24.999Z</time>
      </trkpt>
      <trkpt lat="43.75672" lon="4.13559">
        <ele>128.2</ele>
        <time>2026-05-31T08:01:25.999Z</time>
      </trkpt>
      <trkpt lat="43.75672" lon="4.13559">
        <ele>128.8</ele>
        <time>2026-05-31T08:01:26.999Z</time>
      </trkpt>
      <trkpt lat="43.75671" lon="4.13558">
        <ele>129.2</ele>
        <time>2026-05-31T08:01:27.999Z</time>
      </trkpt>
      <trkpt lat="43.75671" lon="4.13557">
        <ele>129.7</ele>
        <time>2026-05-31T08:01:28.999Z</time>
      </trkpt>
      <trkpt lat="43.75671" lon="4.13556">
        <ele>130.1</ele>
        <time>2026-05-31T08:01:29.999Z</time>
      </trkpt>
      <trkpt lat="43.75671" lon="4.13555">
        <ele>130.5</ele>
        <time>2026-05-31T08:01:30.999Z</time>
      </trkpt>
      <trkpt lat="43.75671" lon="4.13555">
        <ele>131.2</ele>
        <time>2026-05-31T08:01:31.999Z</time>
      </trkpt>
      <trkpt lat="43.7567" lon="4.13554">
        <ele>131.6</ele>
        <time>2026-05-31T08:01:32.999Z</time>
      </trkpt>
      <trkpt lat="43.7567" lon="4.13553">
        <ele>131.8</ele>
        <time>2026-05-31T08:01:33.999Z</time>
      </trkpt>
      <trkpt lat="43.7567" lon="4.13553">
        <ele>132.2</ele>
        <time>2026-05-31T08:01:34.999Z</time>
      </trkpt>
      <trkpt lat="43.7567" lon="4.13552">
        <ele>132.5</ele>
        <time>2026-05-31T08:01:35.999Z</time>
      </trkpt>
      <trkpt lat="43.75671" lon="4.1355">
        <ele>132.6</ele>
        <time>2026-05-31T08:01:36.999Z</time>
      </trkpt>
      <trkpt lat="43.75671" lon="4.13549">
        <ele>132.9</ele>
        <time>2026-05-31T08:01:37.999Z</time>
      </trkpt>
      <trkpt lat="43.75671" lon="4.13548">
        <ele>132.7</ele>
        <time>2026-05-31T08:01:38.999Z</time>
      </trkpt>
      <trkpt lat="43.75671" lon="4.13547">
        <ele>132.7</ele>
        <time>2026-05-31T08:01:39.999Z</time>
      </trkpt>
      <trkpt lat="43.7567" lon="4.13546">
        <ele>132.7</ele>
        <time>2026-05-31T08:01:40.999Z</time>
      </trkpt>
      <trkpt lat="43.75671" lon="4.13545">
        <ele>132.8</ele>
        <time>2026-05-31T08:01:41.999Z</time>
      </trkpt>
      <trkpt lat="43.75671" lon="4.13543">
        <ele>132.9</ele>
        <time>2026-05-31T08:01:42.999Z</time>
      </trkpt>
      <trkpt lat="43.75672" lon="4.13542">
        <ele>132.8</ele>
        <time>2026-05-31T08:01:43.999Z</time>
      </trkpt>
      <trkpt lat="43.75672" lon="4.13541">
        <ele>132.6</ele>
        <time>2026-05-31T08:01:44.999Z</time>
      </trkpt>
      <trkpt lat="43.75673" lon="4.1354">
        <ele>132.4</ele>
        <time>2026-05-31T08:01:45.999Z</time>
      </trkpt>
      <trkpt lat="43.75673" lon="4.1354">
        <ele>132.5</ele>
        <time>2026-05-31T08:01:46.999Z</time>
      </trkpt>
      <trkpt lat="43.75674" lon="4.13539">
        <ele>132.5</ele>
        <time>2026-05-31T08:01:47.999Z</time>
      </trkpt>
      <trkpt lat="43.75674" lon="4.13538">
        <ele>132.5</ele>
        <time>2026-05-31T08:01:48.999Z</time>
      </trkpt>
      <trkpt lat="43.75674" lon="4.13536">
        <ele>132.6</ele>
        <time>2026-05-31T08:01:49.999Z</time>
      </trkpt>
      <trkpt lat="43.75675" lon="4.13535">
        <ele>132.8</ele>
        <time>2026-05-31T08:01:50.999Z</time>
      </trkpt>
      <trkpt lat="43.75675" lon="4.13534">
        <ele>133.1</ele>
        <time>2026-05-31T08:01:51.999Z</time>
      </trkpt>
      <trkpt lat="43.75675" lon="4.13533">
        <ele>133.4</ele>
        <time>2026-05-31T08:01:52.999Z</time>
      </trkpt>
      <trkpt lat="43.75675" lon="4.13533">
        <ele>133.4</ele>
        <time>2026-05-31T08:01:53.999Z</time>
      </trkpt>
      <trkpt lat="43.75676" lon="4.13532">
        <ele>133.4</ele>
        <time>2026-05-31T08:01:54.999Z</time>
      </trkpt>
      <trkpt lat="43.75677" lon="4.13531">
        <ele>133.4</ele>
        <time>2026-05-31T08:01:55.999Z</time>
      </trkpt>
      <trkpt lat="43.75677" lon="4.1353">
        <ele>133.5</ele>
        <time>2026-05-31T08:01:56.999Z</time>
      </trkpt>
      <trkpt lat="43.75678" lon="4.13528">
        <ele>133.7</ele>
        <time>2026-05-31T08:01:57.999Z</time>
      </trkpt>
      <trkpt lat="43.75678" lon="4.13527">
        <ele>133.6</ele>
        <time>2026-05-31T08:01:58.999Z</time>
      </trkpt>
      <trkpt lat="43.75678" lon="4.13525">
        <ele>133.5</ele>
        <time>2026-05-31T08:01:59.999Z</time>
      </trkpt>
      <trkpt lat="43.75679" lon="4.13524">
        <ele>133.6</ele>
        <time>2026-05-31T08:02:00.999Z</time>
      </trkpt>
      <trkpt lat="43.75679" lon="4.13523">
        <ele>133.4</ele>
        <time>2026-05-31T08:02:01.999Z</time>
      </trkpt>
      <trkpt lat="43.75679" lon="4.13521">
        <ele>133.2</ele>
        <time>2026-05-31T08:02:02.999Z</time>
      </trkpt>
      <trkpt lat="43.75679" lon="4.1352">
        <ele>133</ele>
        <time>2026-05-31T08:02:03.999Z</time>
      </trkpt>
      <trkpt lat="43.75679" lon="4.13519">
        <ele>132.5</ele>
        <time>2026-05-31T08:02:04.999Z</time>
      </trkpt>
      <trkpt lat="43.75679" lon="4.13517">
        <ele>132.2</ele>
        <time>2026-05-31T08:02:05.999Z</time>
      </trkpt>
      <trkpt lat="43.75678" lon="4.13516">
        <ele>132.2</ele>
        <time>2026-05-31T08:02:06.999Z</time>
      </trkpt>
      <trkpt lat="43.75678" lon="4.13515">
        <ele>132.2</ele>
        <time>2026-05-31T08:02:07.999Z</time>
      </trkpt>
      <trkpt lat="43.75678" lon="4.13514">
        <ele>132.3</ele>
        <time>2026-05-31T08:02:08.999Z</time>
      </trkpt>
      <trkpt lat="43.75678" lon="4.13514">
        <ele>132.3</ele>
        <time>2026-05-31T08:02:09.999Z</time>
      </trkpt>
      <trkpt lat="43.75678" lon="4.13513">
        <ele>132.2</ele>
        <time>2026-05-31T08:02:10.999Z</time>
      </trkpt>
      <trkpt lat="43.75677" lon="4.13513">
        <ele>132.2</ele>
        <time>2026-05-31T08:02:11.999Z</time>
      </trkpt>
      <trkpt lat="43.75677" lon="4.13512">
        <ele>132.2</ele>
        <time>2026-05-31T08:02:12.999Z</time>
      </trkpt>
      <trkpt lat="43.75678" lon="4.13511">
        <ele>132.2</ele>
        <time>2026-05-31T08:02:13.999Z</time>
      </trkpt>
      <trkpt lat="43.75678" lon="4.1351">
        <ele>131.8</ele>
        <time>2026-05-31T08:02:14.999Z</time>
      </trkpt>
      <trkpt lat="43.75679" lon="4.13509">
        <ele>131.5</ele>
        <time>2026-05-31T08:02:15.999Z</time>
      </trkpt>
      <trkpt lat="43.75679" lon="4.13507">
        <ele>131.3</ele>
        <time>2026-05-31T08:02:16.999Z</time>
      </trkpt>
      <trkpt lat="43.7568" lon="4.13505">
        <ele>131.1</ele>
        <time>2026-05-31T08:02:17.999Z</time>
      </trkpt>
      <trkpt lat="43.7568" lon="4.13504">
        <ele>131.2</ele>
        <time>2026-05-31T08:02:18.999Z</time>
      </trkpt>
      <trkpt lat="43.75681" lon="4.13503">
        <ele>131.2</ele>
        <time>2026-05-31T08:02:19.999Z</time>
      </trkpt>
      <trkpt lat="43.75682" lon="4.13501">
        <ele>131.4</ele>
        <time>2026-05-31T08:02:20.999Z</time>
      </trkpt>
      <trkpt lat="43.75682" lon="4.13499">
        <ele>131.7</ele>
        <time>2026-05-31T08:02:21.999Z</time>
      </trkpt>
      <trkpt lat="43.75682" lon="4.13498">
        <ele>131.7</ele>
        <time>2026-05-31T08:02:22.999Z</time>
      </trkpt>
      <trkpt lat="43.75683" lon="4.13497">
        <ele>131.9</ele>
        <time>2026-05-31T08:02:23.999Z</time>
      </trkpt>
      <trkpt lat="43.75683" lon="4.13496">
        <ele>131.7</ele>
        <time>2026-05-31T08:02:24.999Z</time>
      </trkpt>
      <trkpt lat="43.75684" lon="4.13496">
        <ele>132</ele>
        <time>2026-05-31T08:02:25.999Z</time>
      </trkpt>
      <trkpt lat="43.75684" lon="4.13495">
        <ele>132</ele>
        <time>2026-05-31T08:02:26.999Z</time>
      </trkpt>
      <trkpt lat="43.75685" lon="4.13493">
        <ele>131.7</ele>
        <time>2026-05-31T08:02:27.999Z</time>
      </trkpt>
      <trkpt lat="43.75685" lon="4.13492">
        <ele>131.5</ele>
        <time>2026-05-31T08:02:28.999Z</time>
      </trkpt>
      <trkpt lat="43.75685" lon="4.1349">
        <ele>131.6</ele>
        <time>2026-05-31T08:02:29.999Z</time>
      </trkpt>
      <trkpt lat="43.75685" lon="4.13488">
        <ele>131.6</ele>
        <time>2026-05-31T08:02:30.999Z</time>
      </trkpt>
      <trkpt lat="43.75686" lon="4.13487">
        <ele>132</ele>
        <time>2026-05-31T08:02:31.999Z</time>
      </trkpt>
      <trkpt lat="43.75685" lon="4.13486">
        <ele>131.9</ele>
        <time>2026-05-31T08:02:32.999Z</time>
      </trkpt>
      <trkpt lat="43.75685" lon="4.13484">
        <ele>132.3</ele>
        <time>2026-05-31T08:02:33.999Z</time>
      </trkpt>
      <trkpt lat="43.75683" lon="4.13483">
        <ele>132.8</ele>
        <time>2026-05-31T08:02:34.999Z</time>
      </trkpt>
      <trkpt lat="43.75684" lon="4.1348">
        <ele>132.9</ele>
        <time>2026-05-31T08:02:35.999Z</time>
      </trkpt>
      <trkpt lat="43.75683" lon="4.13478">
        <ele>132.9</ele>
        <time>2026-05-31T08:02:36.999Z</time>
      </trkpt>
      <trkpt lat="43.75684" lon="4.13476">
        <ele>133.6</ele>
        <time>2026-05-31T08:02:37.999Z</time>
      </trkpt>
      <trkpt lat="43.75685" lon="4.13475">
        <ele>133.8</ele>
        <time>2026-05-31T08:02:38.999Z</time>
      </trkpt>
      <trkpt lat="43.75685" lon="4.13473">
        <ele>134.1</ele>
        <time>2026-05-31T08:02:39.999Z</time>
      </trkpt>
      <trkpt lat="43.75685" lon="4.13471">
        <ele>134.8</ele>
        <time>2026-05-31T08:02:40.999Z</time>
      </trkpt>
      <trkpt lat="43.75685" lon="4.1347">
        <ele>135</ele>
        <time>2026-05-31T08:02:41.999Z</time>
      </trkpt>
      <trkpt lat="43.75685" lon="4.13468">
        <ele>135.1</ele>
        <time>2026-05-31T08:02:42.999Z</time>
      </trkpt>
      <trkpt lat="43.75686" lon="4.13467">
        <ele>135</ele>
        <time>2026-05-31T08:02:43.999Z</time>
      </trkpt>
      <trkpt lat="43.75686" lon="4.13466">
        <ele>135.3</ele>
        <time>2026-05-31T08:02:44.999Z</time>
      </trkpt>
      <trkpt lat="43.75686" lon="4.13466">
        <ele>135.1</ele>
        <time>2026-05-31T08:02:45.999Z</time>
      </trkpt>
      <trkpt lat="43.75686" lon="4.13466">
        <ele>135</ele>
        <time>2026-05-31T08:02:46.999Z</time>
      </trkpt>
      <trkpt lat="43.75685" lon="4.13467">
        <ele>134.9</ele>
        <time>2026-05-31T08:02:47.999Z</time>
      </trkpt>
      <trkpt lat="43.75684" lon="4.13468">
        <ele>134.9</ele>
        <time>2026-05-31T08:02:48.999Z</time>
      </trkpt>
      <trkpt lat="43.75683" lon="4.13469">
        <ele>134.9</ele>
        <time>2026-05-31T08:02:49.999Z</time>
      </trkpt>
      <trkpt lat="43.75682" lon="4.1347">
        <ele>135.1</ele>
        <time>2026-05-31T08:02:50.999Z</time>
      </trkpt>
      <trkpt lat="43.7568" lon="4.13471">
        <ele>135.6</ele>
        <time>2026-05-31T08:02:51.999Z</time>
      </trkpt>
      <trkpt lat="43.75679" lon="4.13473">
        <ele>135.6</ele>
        <time>2026-05-31T08:02:52.999Z</time>
      </trkpt>
      <trkpt lat="43.75679" lon="4.13473">
        <ele>135.5</ele>
        <time>2026-05-31T08:02:53.999Z</time>
      </trkpt>
      <trkpt lat="43.75678" lon="4.13474">
        <ele>135.6</ele>
        <time>2026-05-31T08:02:54.999Z</time>
      </trkpt>
      <trkpt lat="43.75677" lon="4.13475">
        <ele>135.8</ele>
        <time>2026-05-31T08:02:55.999Z</time>
      </trkpt>
      <trkpt lat="43.75676" lon="4.13476">
        <ele>135.9</ele>
        <time>2026-05-31T08:02:56.999Z</time>
      </trkpt>
      <trkpt lat="43.75676" lon="4.13477">
        <ele>135.9</ele>
        <time>2026-05-31T08:02:57.999Z</time>
      </trkpt>
      <trkpt lat="43.75676" lon="4.13478">
        <ele>135.9</ele>
        <time>2026-05-31T08:02:58.999Z</time>
      </trkpt>
      <trkpt lat="43.75675" lon="4.13479">
        <ele>136</ele>
        <time>2026-05-31T08:02:59.999Z</time>
      </trkpt>
      <trkpt lat="43.75675" lon="4.13479">
        <ele>136</ele>
        <time>2026-05-31T08:03:00.999Z</time>
      </trkpt>
      <trkpt lat="43.75674" lon="4.1348">
        <ele>135.9</ele>
        <time>2026-05-31T08:03:01.999Z</time>
      </trkpt>
      <trkpt lat="43.75673" lon="4.13482">
        <ele>136.3</ele>
        <time>2026-05-31T08:03:02.999Z</time>
      </trkpt>
      <trkpt lat="43.75672" lon="4.13483">
        <ele>136.4</ele>
        <time>2026-05-31T08:03:03.999Z</time>
      </trkpt>
      <trkpt lat="43.75671" lon="4.13484">
        <ele>136.7</ele>
        <time>2026-05-31T08:03:04.999Z</time>
      </trkpt>
      <trkpt lat="43.7567" lon="4.13484">
        <ele>136.9</ele>
        <time>2026-05-31T08:03:05.999Z</time>
      </trkpt>
      <trkpt lat="43.75669" lon="4.13484">
        <ele>137.1</ele>
        <time>2026-05-31T08:03:06.999Z</time>
      </trkpt>
      <trkpt lat="43.75668" lon="4.13483">
        <ele>137.4</ele>
        <time>2026-05-31T08:03:07.999Z</time>
      </trkpt>
      <trkpt lat="43.75667" lon="4.13482">
        <ele>137.1</ele>
        <time>2026-05-31T08:03:08.999Z</time>
      </trkpt>
      <trkpt lat="43.75667" lon="4.13481">
        <ele>136.8</ele>
        <time>2026-05-31T08:03:09.999Z</time>
      </trkpt>
      <trkpt lat="43.75666" lon="4.1348">
        <ele>136.5</ele>
        <time>2026-05-31T08:03:10.999Z</time>
      </trkpt>
      <trkpt lat="43.75665" lon="4.1348">
        <ele>136.4</ele>
        <time>2026-05-31T08:03:11.999Z</time>
      </trkpt>
      <trkpt lat="43.75663" lon="4.13479">
        <ele>136.2</ele>
        <time>2026-05-31T08:03:12.999Z</time>
      </trkpt>
      <trkpt lat="43.75662" lon="4.13478">
        <ele>136.2</ele>
        <time>2026-05-31T08:03:13.999Z</time>
      </trkpt>
      <trkpt lat="43.75661" lon="4.13477">
        <ele>136.2</ele>
        <time>2026-05-31T08:03:14.999Z</time>
      </trkpt>
      <trkpt lat="43.7566" lon="4.13476">
        <ele>136.1</ele>
        <time>2026-05-31T08:03:15.999Z</time>
      </trkpt>
      <trkpt lat="43.7566" lon="4.13475">
        <ele>136.1</ele>
        <time>2026-05-31T08:03:16.999Z</time>
      </trkpt>
      <trkpt lat="43.75659" lon="4.13475">
        <ele>136.1</ele>
        <time>2026-05-31T08:03:17.999Z</time>
      </trkpt>
      <trkpt lat="43.75659" lon="4.13474">
        <ele>136.1</ele>
        <time>2026-05-31T08:03:18.999Z</time>
      </trkpt>
      <trkpt lat="43.75659" lon="4.13473">
        <ele>136.5</ele>
        <time>2026-05-31T08:03:19.999Z</time>
      </trkpt>
      <trkpt lat="43.75658" lon="4.13473">
        <ele>136.1</ele>
        <time>2026-05-31T08:03:20.999Z</time>
      </trkpt>
      <trkpt lat="43.75657" lon="4.13472">
        <ele>135.6</ele>
        <time>2026-05-31T08:03:21.999Z</time>
      </trkpt>
      <trkpt lat="43.75656" lon="4.13471">
        <ele>135.2</ele>
        <time>2026-05-31T08:03:22.999Z</time>
      </trkpt>
      <trkpt lat="43.75656" lon="4.13471">
        <ele>135.2</ele>
        <time>2026-05-31T08:03:23.999Z</time>
      </trkpt>
      <trkpt lat="43.75656" lon="4.13471">
        <ele>135.1</ele>
        <time>2026-05-31T08:03:24.999Z</time>
      </trkpt>
      <trkpt lat="43.75656" lon="4.13471">
        <ele>134.9</ele>
        <time>2026-05-31T08:03:25.999Z</time>
      </trkpt>
      <trkpt lat="43.75656" lon="4.13471">
        <ele>134.7</ele>
        <time>2026-05-31T08:03:26.999Z</time>
      </trkpt>
      <trkpt lat="43.75656" lon="4.13471">
        <ele>134.5</ele>
        <time>2026-05-31T08:03:27.999Z</time>
      </trkpt>
      <trkpt lat="43.75656" lon="4.13471">
        <ele>134.1</ele>
        <time>2026-05-31T08:03:28.999Z</time>
      </trkpt>
      <trkpt lat="43.75655" lon="4.13471">
        <ele>134</ele>
        <time>2026-05-31T08:03:29.999Z</time>
      </trkpt>
      <trkpt lat="43.75655" lon="4.13471">
        <ele>133.8</ele>
        <time>2026-05-31T08:03:30.999Z</time>
      </trkpt>
      <trkpt lat="43.75655" lon="4.13471">
        <ele>133.9</ele>
        <time>2026-05-31T08:03:31.999Z</time>
      </trkpt>
      <trkpt lat="43.75655" lon="4.13471">
        <ele>133.9</ele>
        <time>2026-05-31T08:03:32.999Z</time>
      </trkpt>
      <trkpt lat="43.75655" lon="4.13471">
        <ele>134</ele>
        <time>2026-05-31T08:03:33.999Z</time>
      </trkpt>
      <trkpt lat="43.75654" lon="4.13471">
        <ele>134.1</ele>
        <time>2026-05-31T08:03:34.999Z</time>
      </trkpt>
      <trkpt lat="43.75654" lon="4.13471">
        <ele>134.1</ele>
        <time>2026-05-31T08:03:35.999Z</time>
      </trkpt>
      <trkpt lat="43.75654" lon="4.13471">
        <ele>134.2</ele>
        <time>2026-05-31T08:03:36.999Z</time>
      </trkpt>
      <trkpt lat="43.75653" lon="4.13471">
        <ele>134.1</ele>
        <time>2026-05-31T08:03:37.999Z</time>
      </trkpt>
      <trkpt lat="43.75653" lon="4.13471">
        <ele>133.7</ele>
        <time>2026-05-31T08:03:38.999Z</time>
      </trkpt>
      <trkpt lat="43.75653" lon="4.13471">
        <ele>133.5</ele>
        <time>2026-05-31T08:03:39.999Z</time>
      </trkpt>
      <trkpt lat="43.75652" lon="4.13471">
        <ele>133.1</ele>
        <time>2026-05-31T08:03:40.999Z</time>
      </trkpt>
      <trkpt lat="43.75652" lon="4.13471">
        <ele>132.8</ele>
        <time>2026-05-31T08:03:41.999Z</time>
      </trkpt>
      <trkpt lat="43.75652" lon="4.13471">
        <ele>132.2</ele>
        <time>2026-05-31T08:03:42.999Z</time>
      </trkpt>
      <trkpt lat="43.75652" lon="4.1347">
        <ele>131.7</ele>
        <time>2026-05-31T08:03:43.999Z</time>
      </trkpt>
      <trkpt lat="43.75648" lon="4.1347">
        <ele>131.4</ele>
        <time>2026-05-31T08:03:44.999Z</time>
      </trkpt>
      <trkpt lat="43.75645" lon="4.1347">
        <ele>130.9</ele>
        <time>2026-05-31T08:03:45.999Z</time>
      </trkpt>
      <trkpt lat="43.75643" lon="4.1347">
        <ele>130.6</ele>
        <time>2026-05-31T08:03:46.999Z</time>
      </trkpt>
      <trkpt lat="43.75639" lon="4.1347">
        <ele>130.7</ele>
        <time>2026-05-31T08:03:47.999Z</time>
      </trkpt>
      <trkpt lat="43.75636" lon="4.13467">
        <ele>131.2</ele>
        <time>2026-05-31T08:03:48.999Z</time>
      </trkpt>
      <trkpt lat="43.75635" lon="4.13467">
        <ele>131.7</ele>
        <time>2026-05-31T08:03:49.999Z</time>
      </trkpt>
      <trkpt lat="43.75635" lon="4.13467">
        <ele>132</ele>
        <time>2026-05-31T08:03:50.999Z</time>
      </trkpt>
      <trkpt lat="43.75634" lon="4.13468">
        <ele>132.2</ele>
        <time>2026-05-31T08:03:51.999Z</time>
      </trkpt>
      <trkpt lat="43.75632" lon="4.13468">
        <ele>132.8</ele>
        <time>2026-05-31T08:03:52.999Z</time>
      </trkpt>
      <trkpt lat="43.75631" lon="4.1347">
        <ele>133.4</ele>
        <time>2026-05-31T08:03:53.999Z</time>
      </trkpt>
      <trkpt lat="43.75629" lon="4.13472">
        <ele>133.8</ele>
        <time>2026-05-31T08:03:54.999Z</time>
      </trkpt>
      <trkpt lat="43.75629" lon="4.13473">
        <ele>134.1</ele>
        <time>2026-05-31T08:03:55.999Z</time>
      </trkpt>
      <trkpt lat="43.75629" lon="4.13473">
        <ele>134.3</ele>
        <time>2026-05-31T08:03:56.999Z</time>
      </trkpt>
      <trkpt lat="43.75628" lon="4.13473">
        <ele>134.1</ele>
        <time>2026-05-31T08:03:57.999Z</time>
      </trkpt>
      <trkpt lat="43.75628" lon="4.13474">
        <ele>134.2</ele>
        <time>2026-05-31T08:03:58.999Z</time>
      </trkpt>
      <trkpt lat="43.75627" lon="4.13474">
        <ele>134.4</ele>
        <time>2026-05-31T08:03:59.999Z</time>
      </trkpt>
      <trkpt lat="43.75627" lon="4.13474">
        <ele>134.4</ele>
        <time>2026-05-31T08:04:00.999Z</time>
      </trkpt>
      <trkpt lat="43.75627" lon="4.13474">
        <ele>134.5</ele>
        <time>2026-05-31T08:04:01.999Z</time>
      </trkpt>
      <trkpt lat="43.75626" lon="4.13474">
        <ele>134.6</ele>
        <time>2026-05-31T08:04:02.999Z</time>
      </trkpt>
      <trkpt lat="43.75626" lon="4.13474">
        <ele>134.4</ele>
        <time>2026-05-31T08:04:03.999Z</time>
      </trkpt>
      <trkpt lat="43.75626" lon="4.13474">
        <ele>134.3</ele>
        <time>2026-05-31T08:04:04.999Z</time>
      </trkpt>
      <trkpt lat="43.75625" lon="4.13474">
        <ele>134.3</ele>
        <time>2026-05-31T08:04:05.999Z</time>
      </trkpt>
      <trkpt lat="43.75625" lon="4.13474">
        <ele>134.2</ele>
        <time>2026-05-31T08:04:06.999Z</time>
      </trkpt>
      <trkpt lat="43.75625" lon="4.13474">
        <ele>134.2</ele>
        <time>2026-05-31T08:04:07.999Z</time>
      </trkpt>
      <trkpt lat="43.75624" lon="4.13474">
        <ele>134.2</ele>
        <time>2026-05-31T08:04:08.999Z</time>
      </trkpt>
      <trkpt lat="43.75624" lon="4.13474">
        <ele>134.1</ele>
        <time>2026-05-31T08:04:09.999Z</time>
      </trkpt>
      <trkpt lat="43.75623" lon="4.13474">
        <ele>133.8</ele>
        <time>2026-05-31T08:04:10.999Z</time>
      </trkpt>
      <trkpt lat="43.75623" lon="4.13474">
        <ele>133.6</ele>
        <time>2026-05-31T08:04:11.999Z</time>
      </trkpt>
      <trkpt lat="43.75623" lon="4.13474">
        <ele>133.3</ele>
        <time>2026-05-31T08:04:12.999Z</time>
      </trkpt>
      <trkpt lat="43.75622" lon="4.13474">
        <ele>132.9</ele>
        <time>2026-05-31T08:04:13.999Z</time>
      </trkpt>
      <trkpt lat="43.75622" lon="4.13474">
        <ele>132.6</ele>
        <time>2026-05-31T08:04:14.999Z</time>
      </trkpt>
      <trkpt lat="43.75621" lon="4.13474">
        <ele>132.7</ele>
        <time>2026-05-31T08:04:15.999Z</time>
      </trkpt>
      <trkpt lat="43.7562" lon="4.13474">
        <ele>132.8</ele>
        <time>2026-05-31T08:04:16.999Z</time>
      </trkpt>
      <trkpt lat="43.7562" lon="4.13474">
        <ele>132.6</ele>
        <time>2026-05-31T08:04:17.999Z</time>
      </trkpt>
      <trkpt lat="43.75619" lon="4.13474">
        <ele>132.3</ele>
        <time>2026-05-31T08:04:18.999Z</time>
      </trkpt>
      <trkpt lat="43.75618" lon="4.13474">
        <ele>132</ele>
        <time>2026-05-31T08:04:19.999Z</time>
      </trkpt>
      <trkpt lat="43.75618" lon="4.13474">
        <ele>131.8</ele>
        <time>2026-05-31T08:04:20.999Z</time>
      </trkpt>
      <trkpt lat="43.75617" lon="4.13474">
        <ele>131.7</ele>
        <time>2026-05-31T08:04:21.999Z</time>
      </trkpt>
      <trkpt lat="43.75616" lon="4.13474">
        <ele>131.7</ele>
        <time>2026-05-31T08:04:22.999Z</time>
      </trkpt>
      <trkpt lat="43.75616" lon="4.13474">
        <ele>131.7</ele>
        <time>2026-05-31T08:04:23.999Z</time>
      </trkpt>
      <trkpt lat="43.75616" lon="4.13474">
        <ele>131.6</ele>
        <time>2026-05-31T08:04:24.999Z</time>
      </trkpt>
      <trkpt lat="43.75615" lon="4.13475">
        <ele>131.6</ele>
        <time>2026-05-31T08:04:25.999Z</time>
      </trkpt>
      <trkpt lat="43.75614" lon="4.13475">
        <ele>131.7</ele>
        <time>2026-05-31T08:04:26.999Z</time>
      </trkpt>
      <trkpt lat="43.75614" lon="4.13475">
        <ele>131.7</ele>
        <time>2026-05-31T08:04:27.999Z</time>
      </trkpt>
      <trkpt lat="43.75613" lon="4.13475">
        <ele>131.7</ele>
        <time>2026-05-31T08:04:28.999Z</time>
      </trkpt>
      <trkpt lat="43.75613" lon="4.13475">
        <ele>132</ele>
        <time>2026-05-31T08:04:29.999Z</time>
      </trkpt>
      <trkpt lat="43.75613" lon="4.13475">
        <ele>131.9</ele>
        <time>2026-05-31T08:04:30.999Z</time>
      </trkpt>
      <trkpt lat="43.75613" lon="4.13475">
        <ele>131.8</ele>
        <time>2026-05-31T08:04:31.999Z</time>
      </trkpt>
      <trkpt lat="43.75611" lon="4.13475">
        <ele>131.8</ele>
        <time>2026-05-31T08:04:32.999Z</time>
      </trkpt>
      <trkpt lat="43.75609" lon="4.13476">
        <ele>132</ele>
        <time>2026-05-31T08:04:33.999Z</time>
      </trkpt>
      <trkpt lat="43.75606" lon="4.13477">
        <ele>132</ele>
        <time>2026-05-31T08:04:34.999Z</time>
      </trkpt>
      <trkpt lat="43.75606" lon="4.13478">
        <ele>131.8</ele>
        <time>2026-05-31T08:04:35.999Z</time>
      </trkpt>
      <trkpt lat="43.75603" lon="4.13479">
        <ele>131.4</ele>
        <time>2026-05-31T08:04:36.999Z</time>
      </trkpt>
      <trkpt lat="43.75601" lon="4.1348">
        <ele>131.1</ele>
        <time>2026-05-31T08:04:37.999Z</time>
      </trkpt>
      <trkpt lat="43.756" lon="4.13481">
        <ele>131</ele>
        <time>2026-05-31T08:04:38.999Z</time>
      </trkpt>
      <trkpt lat="43.75598" lon="4.13481">
        <ele>131</ele>
        <time>2026-05-31T08:04:39.999Z</time>
      </trkpt>
      <trkpt lat="43.75597" lon="4.13481">
        <ele>130.6</ele>
        <time>2026-05-31T08:04:40.999Z</time>
      </trkpt>
      <trkpt lat="43.75597" lon="4.13482">
        <ele>130.4</ele>
        <time>2026-05-31T08:04:41.999Z</time>
      </trkpt>
      <trkpt lat="43.75595" lon="4.13482">
        <ele>130.3</ele>
        <time>2026-05-31T08:04:42.999Z</time>
      </trkpt>
      <trkpt lat="43.75592" lon="4.13481">
        <ele>130.1</ele>
        <time>2026-05-31T08:04:43.999Z</time>
      </trkpt>
      <trkpt lat="43.7559" lon="4.13481">
        <ele>130</ele>
        <time>2026-05-31T08:04:44.999Z</time>
      </trkpt>
      <trkpt lat="43.75589" lon="4.13482">
        <ele>129.9</ele>
        <time>2026-05-31T08:04:45.999Z</time>
      </trkpt>
      <trkpt lat="43.75588" lon="4.13481">
        <ele>129.7</ele>
        <time>2026-05-31T08:04:46.999Z</time>
      </trkpt>
      <trkpt lat="43.75586" lon="4.13482">
        <ele>129.5</ele>
        <time>2026-05-31T08:04:47.999Z</time>
      </trkpt>
      <trkpt lat="43.75585" lon="4.13482">
        <ele>129.3</ele>
        <time>2026-05-31T08:04:48.999Z</time>
      </trkpt>
      <trkpt lat="43.75584" lon="4.13482">
        <ele>129.3</ele>
        <time>2026-05-31T08:04:49.999Z</time>
      </trkpt>
      <trkpt lat="43.75583" lon="4.13483">
        <ele>129</ele>
        <time>2026-05-31T08:04:50.999Z</time>
      </trkpt>
      <trkpt lat="43.75582" lon="4.13483">
        <ele>128.8</ele>
        <time>2026-05-31T08:04:51.999Z</time>
      </trkpt>
      <trkpt lat="43.75581" lon="4.13483">
        <ele>128.6</ele>
        <time>2026-05-31T08:04:52.999Z</time>
      </trkpt>
      <trkpt lat="43.75579" lon="4.13484">
        <ele>128.3</ele>
        <time>2026-05-31T08:04:53.999Z</time>
      </trkpt>
      <trkpt lat="43.75578" lon="4.13485">
        <ele>128.1</ele>
        <time>2026-05-31T08:04:54.999Z</time>
      </trkpt>
      <trkpt lat="43.75577" lon="4.13487">
        <ele>127.9</ele>
        <time>2026-05-31T08:04:55.999Z</time>
      </trkpt>
      <trkpt lat="43.75576" lon="4.13489">
        <ele>127.7</ele>
        <time>2026-05-31T08:04:56.999Z</time>
      </trkpt>
      <trkpt lat="43.75576" lon="4.1349">
        <ele>127.6</ele>
        <time>2026-05-31T08:04:57.999Z</time>
      </trkpt>
      <trkpt lat="43.75575" lon="4.13492">
        <ele>127.4</ele>
        <time>2026-05-31T08:04:58.999Z</time>
      </trkpt>
      <trkpt lat="43.75575" lon="4.13493">
        <ele>127.3</ele>
        <time>2026-05-31T08:04:59.999Z</time>
      </trkpt>
      <trkpt lat="43.75574" lon="4.13494">
        <ele>127.1</ele>
        <time>2026-05-31T08:05:00.999Z</time>
      </trkpt>
      <trkpt lat="43.75574" lon="4.13496">
        <ele>126.9</ele>
        <time>2026-05-31T08:05:01.999Z</time>
      </trkpt>
      <trkpt lat="43.75573" lon="4.13498">
        <ele>126.8</ele>
        <time>2026-05-31T08:05:02.999Z</time>
      </trkpt>
      <trkpt lat="43.75573" lon="4.13499">
        <ele>126.6</ele>
        <time>2026-05-31T08:05:03.999Z</time>
      </trkpt>
      <trkpt lat="43.75572" lon="4.13499">
        <ele>126.6</ele>
        <time>2026-05-31T08:05:04.999Z</time>
      </trkpt>
      <trkpt lat="43.75572" lon="4.135">
        <ele>126.2</ele>
        <time>2026-05-31T08:05:05.999Z</time>
      </trkpt>
      <trkpt lat="43.75572" lon="4.13501">
        <ele>126.1</ele>
        <time>2026-05-31T08:05:06.999Z</time>
      </trkpt>
      <trkpt lat="43.75571" lon="4.13502">
        <ele>125.9</ele>
        <time>2026-05-31T08:05:07.999Z</time>
      </trkpt>
      <trkpt lat="43.75571" lon="4.13504">
        <ele>126.1</ele>
        <time>2026-05-31T08:05:08.999Z</time>
      </trkpt>
      <trkpt lat="43.7557" lon="4.13506">
        <ele>126.6</ele>
        <time>2026-05-31T08:05:09.999Z</time>
      </trkpt>
      <trkpt lat="43.75569" lon="4.13507">
        <ele>126.6</ele>
        <time>2026-05-31T08:05:10.999Z</time>
      </trkpt>
      <trkpt lat="43.75568" lon="4.13508">
        <ele>126.7</ele>
        <time>2026-05-31T08:05:11.999Z</time>
      </trkpt>
      <trkpt lat="43.75568" lon="4.13508">
        <ele>126.7</ele>
        <time>2026-05-31T08:05:12.999Z</time>
      </trkpt>
      <trkpt lat="43.75567" lon="4.1351">
        <ele>127.3</ele>
        <time>2026-05-31T08:05:13.999Z</time>
      </trkpt>
      <trkpt lat="43.75566" lon="4.13511">
        <ele>127.3</ele>
        <time>2026-05-31T08:05:14.999Z</time>
      </trkpt>
      <trkpt lat="43.75565" lon="4.13513">
        <ele>127.4</ele>
        <time>2026-05-31T08:05:15.999Z</time>
      </trkpt>
      <trkpt lat="43.75564" lon="4.13515">
        <ele>127.3</ele>
        <time>2026-05-31T08:05:16.999Z</time>
      </trkpt>
      <trkpt lat="43.75563" lon="4.13516">
        <ele>127.3</ele>
        <time>2026-05-31T08:05:17.999Z</time>
      </trkpt>
      <trkpt lat="43.75563" lon="4.13517">
        <ele>127.5</ele>
        <time>2026-05-31T08:05:18.999Z</time>
      </trkpt>
      <trkpt lat="43.75562" lon="4.13518">
        <ele>127.5</ele>
        <time>2026-05-31T08:05:19.999Z</time>
      </trkpt>
      <trkpt lat="43.75562" lon="4.13519">
        <ele>127.6</ele>
        <time>2026-05-31T08:05:20.999Z</time>
      </trkpt>
      <trkpt lat="43.75562" lon="4.13519">
        <ele>127.4</ele>
        <time>2026-05-31T08:05:21.999Z</time>
      </trkpt>
      <trkpt lat="43.75562" lon="4.1352">
        <ele>127.1</ele>
        <time>2026-05-31T08:05:22.999Z</time>
      </trkpt>
      <trkpt lat="43.75562" lon="4.13521">
        <ele>127.7</ele>
        <time>2026-05-31T08:05:23.999Z</time>
      </trkpt>
      <trkpt lat="43.75562" lon="4.13521">
        <ele>127.7</ele>
        <time>2026-05-31T08:05:24.999Z</time>
      </trkpt>
      <trkpt lat="43.75562" lon="4.13521">
        <ele>127.6</ele>
        <time>2026-05-31T08:05:25.999Z</time>
      </trkpt>
      <trkpt lat="43.75561" lon="4.13522">
        <ele>127.5</ele>
        <time>2026-05-31T08:05:26.999Z</time>
      </trkpt>
      <trkpt lat="43.75561" lon="4.13522">
        <ele>127.7</ele>
        <time>2026-05-31T08:05:27.999Z</time>
      </trkpt>
      <trkpt lat="43.75561" lon="4.13522">
        <ele>127.6</ele>
        <time>2026-05-31T08:05:28.999Z</time>
      </trkpt>
      <trkpt lat="43.75561" lon="4.13523">
        <ele>127.6</ele>
        <time>2026-05-31T08:05:29.999Z</time>
      </trkpt>
      <trkpt lat="43.75561" lon="4.13525">
        <ele>127.4</ele>
        <time>2026-05-31T08:05:30.999Z</time>
      </trkpt>
      <trkpt lat="43.75561" lon="4.13527">
        <ele>127.1</ele>
        <time>2026-05-31T08:05:31.999Z</time>
      </trkpt>
      <trkpt lat="43.7556" lon="4.13529">
        <ele>126.8</ele>
        <time>2026-05-31T08:05:32.999Z</time>
      </trkpt>
      <trkpt lat="43.75559" lon="4.13531">
        <ele>126.5</ele>
        <time>2026-05-31T08:05:33.999Z</time>
      </trkpt>
      <trkpt lat="43.75558" lon="4.13533">
        <ele>126.2</ele>
        <time>2026-05-31T08:05:34.999Z</time>
      </trkpt>
      <trkpt lat="43.75557" lon="4.13535">
        <ele>126</ele>
        <time>2026-05-31T08:05:35.999Z</time>
      </trkpt>
      <trkpt lat="43.75556" lon="4.13536">
        <ele>125.7</ele>
        <time>2026-05-31T08:05:36.999Z</time>
      </trkpt>
      <trkpt lat="43.75556" lon="4.13537">
        <ele>125.6</ele>
        <time>2026-05-31T08:05:37.999Z</time>
      </trkpt>
      <trkpt lat="43.75556" lon="4.13538">
        <ele>125.5</ele>
        <time>2026-05-31T08:05:38.999Z</time>
      </trkpt>
      <trkpt lat="43.75555" lon="4.13539">
        <ele>125.5</ele>
        <time>2026-05-31T08:05:39.999Z</time>
      </trkpt>
      <trkpt lat="43.75555" lon="4.1354">
        <ele>125.2</ele>
        <time>2026-05-31T08:05:40.999Z</time>
      </trkpt>
      <trkpt lat="43.75555" lon="4.13541">
        <ele>125</ele>
        <time>2026-05-31T08:05:41.999Z</time>
      </trkpt>
      <trkpt lat="43.75553" lon="4.13543">
        <ele>125.1</ele>
        <time>2026-05-31T08:05:42.999Z</time>
      </trkpt>
      <trkpt lat="43.75552" lon="4.13544">
        <ele>125</ele>
        <time>2026-05-31T08:05:43.999Z</time>
      </trkpt>
      <trkpt lat="43.75551" lon="4.13546">
        <ele>124.9</ele>
        <time>2026-05-31T08:05:44.999Z</time>
      </trkpt>
      <trkpt lat="43.7555" lon="4.13547">
        <ele>125</ele>
        <time>2026-05-31T08:05:45.999Z</time>
      </trkpt>
      <trkpt lat="43.7555" lon="4.13548">
        <ele>124.8</ele>
        <time>2026-05-31T08:05:46.999Z</time>
      </trkpt>
      <trkpt lat="43.7555" lon="4.1355">
        <ele>125</ele>
        <time>2026-05-31T08:05:47.999Z</time>
      </trkpt>
      <trkpt lat="43.75549" lon="4.13552">
        <ele>125.3</ele>
        <time>2026-05-31T08:05:48.999Z</time>
      </trkpt>
      <trkpt lat="43.75549" lon="4.13553">
        <ele>125</ele>
        <time>2026-05-31T08:05:49.999Z</time>
      </trkpt>
      <trkpt lat="43.75549" lon="4.13554">
        <ele>125</ele>
        <time>2026-05-31T08:05:50.999Z</time>
      </trkpt>
      <trkpt lat="43.75549" lon="4.13555">
        <ele>124.9</ele>
        <time>2026-05-31T08:05:51.999Z</time>
      </trkpt>
      <trkpt lat="43.75549" lon="4.13556">
        <ele>124.4</ele>
        <time>2026-05-31T08:05:52.999Z</time>
      </trkpt>
      <trkpt lat="43.75548" lon="4.13557">
        <ele>124.4</ele>
        <time>2026-05-31T08:05:53.999Z</time>
      </trkpt>
      <trkpt lat="43.75548" lon="4.13558">
        <ele>124.3</ele>
        <time>2026-05-31T08:05:54.999Z</time>
      </trkpt>
      <trkpt lat="43.75548" lon="4.13559">
        <ele>124.1</ele>
        <time>2026-05-31T08:05:55.999Z</time>
      </trkpt>
      <trkpt lat="43.75548" lon="4.13561">
        <ele>123.6</ele>
        <time>2026-05-31T08:05:56.999Z</time>
      </trkpt>
      <trkpt lat="43.75547" lon="4.13563">
        <ele>123.6</ele>
        <time>2026-05-31T08:05:57.999Z</time>
      </trkpt>
      <trkpt lat="43.75547" lon="4.13564">
        <ele>123.6</ele>
        <time>2026-05-31T08:05:58.999Z</time>
      </trkpt>
      <trkpt lat="43.75547" lon="4.13566">
        <ele>123.3</ele>
        <time>2026-05-31T08:05:59.999Z</time>
      </trkpt>
      <trkpt lat="43.75547" lon="4.13567">
        <ele>123.3</ele>
        <time>2026-05-31T08:06:00.999Z</time>
      </trkpt>
      <trkpt lat="43.75546" lon="4.13569">
        <ele>122.9</ele>
        <time>2026-05-31T08:06:01.999Z</time>
      </trkpt>
      <trkpt lat="43.75547" lon="4.1357">
        <ele>122.7</ele>
        <time>2026-05-31T08:06:02.999Z</time>
      </trkpt>
      <trkpt lat="43.75547" lon="4.1357">
        <ele>122.7</ele>
        <time>2026-05-31T08:06:03.999Z</time>
      </trkpt>
      <trkpt lat="43.75546" lon="4.13571">
        <ele>122.8</ele>
        <time>2026-05-31T08:06:04.999Z</time>
      </trkpt>
      <trkpt lat="43.75546" lon="4.13572">
        <ele>123</ele>
        <time>2026-05-31T08:06:05.999Z</time>
      </trkpt>
      <trkpt lat="43.75546" lon="4.13573">
        <ele>123</ele>
        <time>2026-05-31T08:06:06.999Z</time>
      </trkpt>
      <trkpt lat="43.75545" lon="4.13573">
        <ele>123.5</ele>
        <time>2026-05-31T08:06:07.999Z</time>
      </trkpt>
      <trkpt lat="43.75544" lon="4.13574">
        <ele>123.5</ele>
        <time>2026-05-31T08:06:08.999Z</time>
      </trkpt>
      <trkpt lat="43.75544" lon="4.13574">
        <ele>123.1</ele>
        <time>2026-05-31T08:06:09.999Z</time>
      </trkpt>
      <trkpt lat="43.75544" lon="4.13575">
        <ele>122.8</ele>
        <time>2026-05-31T08:06:10.999Z</time>
      </trkpt>
      <trkpt lat="43.75543" lon="4.13575">
        <ele>122.8</ele>
        <time>2026-05-31T08:06:11.999Z</time>
      </trkpt>
      <trkpt lat="43.75543" lon="4.13576">
        <ele>122.1</ele>
        <time>2026-05-31T08:06:12.999Z</time>
      </trkpt>
      <trkpt lat="43.75542" lon="4.13576">
        <ele>121.7</ele>
        <time>2026-05-31T08:06:13.999Z</time>
      </trkpt>
      <trkpt lat="43.75541" lon="4.13576">
        <ele>121.5</ele>
        <time>2026-05-31T08:06:14.999Z</time>
      </trkpt>
      <trkpt lat="43.7554" lon="4.13577">
        <ele>121.2</ele>
        <time>2026-05-31T08:06:15.999Z</time>
      </trkpt>
      <trkpt lat="43.75539" lon="4.13578">
        <ele>121.2</ele>
        <time>2026-05-31T08:06:16.999Z</time>
      </trkpt>
      <trkpt lat="43.75538" lon="4.13578">
        <ele>120.9</ele>
        <time>2026-05-31T08:06:17.999Z</time>
      </trkpt>
      <trkpt lat="43.75537" lon="4.13579">
        <ele>121.1</ele>
        <time>2026-05-31T08:06:18.999Z</time>
      </trkpt>
      <trkpt lat="43.75536" lon="4.1358">
        <ele>121.2</ele>
        <time>2026-05-31T08:06:19.999Z</time>
      </trkpt>
      <trkpt lat="43.75536" lon="4.13581">
        <ele>121</ele>
        <time>2026-05-31T08:06:20.999Z</time>
      </trkpt>
      <trkpt lat="43.75535" lon="4.13581">
        <ele>121</ele>
        <time>2026-05-31T08:06:21.999Z</time>
      </trkpt>
      <trkpt lat="43.75535" lon="4.13582">
        <ele>121</ele>
        <time>2026-05-31T08:06:22.999Z</time>
      </trkpt>
      <trkpt lat="43.75534" lon="4.13582">
        <ele>121.6</ele>
        <time>2026-05-31T08:06:23.999Z</time>
      </trkpt>
      <trkpt lat="43.75535" lon="4.13584">
        <ele>121.4</ele>
        <time>2026-05-31T08:06:24.999Z</time>
      </trkpt>
      <trkpt lat="43.75535" lon="4.13585">
        <ele>121</ele>
        <time>2026-05-31T08:06:25.999Z</time>
      </trkpt>
      <trkpt lat="43.75534" lon="4.13587">
        <ele>120.8</ele>
        <time>2026-05-31T08:06:26.999Z</time>
      </trkpt>
      <trkpt lat="43.75534" lon="4.13588">
        <ele>120.7</ele>
        <time>2026-05-31T08:06:27.999Z</time>
      </trkpt>
      <trkpt lat="43.75534" lon="4.13589">
        <ele>120.6</ele>
        <time>2026-05-31T08:06:28.999Z</time>
      </trkpt>
      <trkpt lat="43.75533" lon="4.1359">
        <ele>120.7</ele>
        <time>2026-05-31T08:06:29.999Z</time>
      </trkpt>
      <trkpt lat="43.75533" lon="4.1359">
        <ele>121</ele>
        <time>2026-05-31T08:06:30.999Z</time>
      </trkpt>
      <trkpt lat="43.75533" lon="4.1359">
        <ele>120.8</ele>
        <time>2026-05-31T08:06:31.999Z</time>
      </trkpt>
      <trkpt lat="43.75533" lon="4.13591">
        <ele>120.8</ele>
        <time>2026-05-31T08:06:32.999Z</time>
      </trkpt>
      <trkpt lat="43.75533" lon="4.13591">
        <ele>121</ele>
        <time>2026-05-31T08:06:33.999Z</time>
      </trkpt>
      <trkpt lat="43.75532" lon="4.13593">
        <ele>121.5</ele>
        <time>2026-05-31T08:06:34.999Z</time>
      </trkpt>
      <trkpt lat="43.75531" lon="4.13595">
        <ele>121.6</ele>
        <time>2026-05-31T08:06:35.999Z</time>
      </trkpt>
      <trkpt lat="43.75531" lon="4.13597">
        <ele>121.7</ele>
        <time>2026-05-31T08:06:36.999Z</time>
      </trkpt>
      <trkpt lat="43.75531" lon="4.13599">
        <ele>121.8</ele>
        <time>2026-05-31T08:06:37.999Z</time>
      </trkpt>
      <trkpt lat="43.75531" lon="4.13601">
        <ele>121.9</ele>
        <time>2026-05-31T08:06:38.999Z</time>
      </trkpt>
      <trkpt lat="43.75531" lon="4.13602">
        <ele>121.4</ele>
        <time>2026-05-31T08:06:39.999Z</time>
      </trkpt>
      <trkpt lat="43.75531" lon="4.13602">
        <ele>120.8</ele>
        <time>2026-05-31T08:06:40.999Z</time>
      </trkpt>
      <trkpt lat="43.7553" lon="4.13604">
        <ele>120.3</ele>
        <time>2026-05-31T08:06:41.999Z</time>
      </trkpt>
      <trkpt lat="43.7553" lon="4.13606">
        <ele>119.9</ele>
        <time>2026-05-31T08:06:42.999Z</time>
      </trkpt>
      <trkpt lat="43.75529" lon="4.13607">
        <ele>120.2</ele>
        <time>2026-05-31T08:06:43.999Z</time>
      </trkpt>
      <trkpt lat="43.75529" lon="4.13608">
        <ele>120.3</ele>
        <time>2026-05-31T08:06:44.999Z</time>
      </trkpt>
      <trkpt lat="43.75529" lon="4.13608">
        <ele>120.4</ele>
        <time>2026-05-31T08:06:45.999Z</time>
      </trkpt>
      <trkpt lat="43.75528" lon="4.13609">
        <ele>120.2</ele>
        <time>2026-05-31T08:06:46.999Z</time>
      </trkpt>
      <trkpt lat="43.75527" lon="4.13609">
        <ele>119.8</ele>
        <time>2026-05-31T08:06:47.999Z</time>
      </trkpt>
      <trkpt lat="43.75526" lon="4.1361">
        <ele>119.8</ele>
        <time>2026-05-31T08:06:48.999Z</time>
      </trkpt>
      <trkpt lat="43.75524" lon="4.13611">
        <ele>119.5</ele>
        <time>2026-05-31T08:06:49.999Z</time>
      </trkpt>
      <trkpt lat="43.75523" lon="4.1361">
        <ele>118.6</ele>
        <time>2026-05-31T08:06:50.999Z</time>
      </trkpt>
      <trkpt lat="43.75522" lon="4.13611">
        <ele>118.1</ele>
        <time>2026-05-31T08:06:51.999Z</time>
      </trkpt>
      <trkpt lat="43.7552" lon="4.13611">
        <ele>117.6</ele>
        <time>2026-05-31T08:06:52.999Z</time>
      </trkpt>
      <trkpt lat="43.75519" lon="4.13613">
        <ele>117.5</ele>
        <time>2026-05-31T08:06:53.999Z</time>
      </trkpt>
      <trkpt lat="43.75518" lon="4.13613">
        <ele>117.5</ele>
        <time>2026-05-31T08:06:54.999Z</time>
      </trkpt>
      <trkpt lat="43.75517" lon="4.13614">
        <ele>117.4</ele>
        <time>2026-05-31T08:06:55.999Z</time>
      </trkpt>
      <trkpt lat="43.75516" lon="4.13614">
        <ele>117.5</ele>
        <time>2026-05-31T08:06:56.999Z</time>
      </trkpt>
      <trkpt lat="43.75514" lon="4.13615">
        <ele>117.8</ele>
        <time>2026-05-31T08:06:57.999Z</time>
      </trkpt>
      <trkpt lat="43.75513" lon="4.13617">
        <ele>117.7</ele>
        <time>2026-05-31T08:06:58.999Z</time>
      </trkpt>
      <trkpt lat="43.75513" lon="4.13618">
        <ele>117.4</ele>
        <time>2026-05-31T08:06:59.999Z</time>
      </trkpt>
      <trkpt lat="43.75513" lon="4.1362">
        <ele>117.8</ele>
        <time>2026-05-31T08:07:00.999Z</time>
      </trkpt>
      <trkpt lat="43.75512" lon="4.13621">
        <ele>117.8</ele>
        <time>2026-05-31T08:07:01.999Z</time>
      </trkpt>
      <trkpt lat="43.75512" lon="4.13621">
        <ele>117.6</ele>
        <time>2026-05-31T08:07:02.999Z</time>
      </trkpt>
      <trkpt lat="43.75512" lon="4.13622">
        <ele>117.3</ele>
        <time>2026-05-31T08:07:03.999Z</time>
      </trkpt>
      <trkpt lat="43.75511" lon="4.13623">
        <ele>117.3</ele>
        <time>2026-05-31T08:07:04.999Z</time>
      </trkpt>
      <trkpt lat="43.75511" lon="4.13623">
        <ele>116.9</ele>
        <time>2026-05-31T08:07:05.999Z</time>
      </trkpt>
      <trkpt lat="43.7551" lon="4.13623">
        <ele>116.7</ele>
        <time>2026-05-31T08:07:06.999Z</time>
      </trkpt>
      <trkpt lat="43.75509" lon="4.13624">
        <ele>116.4</ele>
        <time>2026-05-31T08:07:07.999Z</time>
      </trkpt>
      <trkpt lat="43.75508" lon="4.13626">
        <ele>115.9</ele>
        <time>2026-05-31T08:07:08.999Z</time>
      </trkpt>
      <trkpt lat="43.75508" lon="4.13627">
        <ele>115.8</ele>
        <time>2026-05-31T08:07:09.999Z</time>
      </trkpt>
      <trkpt lat="43.75507" lon="4.13628">
        <ele>115.6</ele>
        <time>2026-05-31T08:07:10.999Z</time>
      </trkpt>
      <trkpt lat="43.75507" lon="4.1363">
        <ele>115.9</ele>
        <time>2026-05-31T08:07:11.999Z</time>
      </trkpt>
      <trkpt lat="43.75506" lon="4.13631">
        <ele>115.8</ele>
        <time>2026-05-31T08:07:12.999Z</time>
      </trkpt>
      <trkpt lat="43.75505" lon="4.13632">
        <ele>115.6</ele>
        <time>2026-05-31T08:07:13.999Z</time>
      </trkpt>
      <trkpt lat="43.75505" lon="4.13633">
        <ele>115.3</ele>
        <time>2026-05-31T08:07:14.999Z</time>
      </trkpt>
      <trkpt lat="43.75504" lon="4.13633">
        <ele>115</ele>
        <time>2026-05-31T08:07:15.999Z</time>
      </trkpt>
      <trkpt lat="43.75503" lon="4.13633">
        <ele>114.6</ele>
        <time>2026-05-31T08:07:16.999Z</time>
      </trkpt>
      <trkpt lat="43.75503" lon="4.13633">
        <ele>114.3</ele>
        <time>2026-05-31T08:07:17.999Z</time>
      </trkpt>
      <trkpt lat="43.75503" lon="4.13633">
        <ele>114.2</ele>
        <time>2026-05-31T08:07:18.999Z</time>
      </trkpt>
      <trkpt lat="43.75503" lon="4.13633">
        <ele>114.8</ele>
        <time>2026-05-31T08:07:19.999Z</time>
      </trkpt>
      <trkpt lat="43.75503" lon="4.13633">
        <ele>114.5</ele>
        <time>2026-05-31T08:07:20.999Z</time>
      </trkpt>
      <trkpt lat="43.75502" lon="4.13633">
        <ele>114.4</ele>
        <time>2026-05-31T08:07:21.999Z</time>
      </trkpt>
      <trkpt lat="43.75502" lon="4.13634">
        <ele>114.2</ele>
        <time>2026-05-31T08:07:22.999Z</time>
      </trkpt>
      <trkpt lat="43.755" lon="4.13634">
        <ele>114.3</ele>
        <time>2026-05-31T08:07:23.999Z</time>
      </trkpt>
      <trkpt lat="43.75499" lon="4.13636">
        <ele>114.1</ele>
        <time>2026-05-31T08:07:24.999Z</time>
      </trkpt>
      <trkpt lat="43.75499" lon="4.13636">
        <ele>113.9</ele>
        <time>2026-05-31T08:07:25.999Z</time>
      </trkpt>
      <trkpt lat="43.75497" lon="4.13637">
        <ele>113.8</ele>
        <time>2026-05-31T08:07:26.999Z</time>
      </trkpt>
      <trkpt lat="43.75496" lon="4.13637">
        <ele>113.6</ele>
        <time>2026-05-31T08:07:27.999Z</time>
      </trkpt>
      <trkpt lat="43.75496" lon="4.13637">
        <ele>113.5</ele>
        <time>2026-05-31T08:07:28.999Z</time>
      </trkpt>
      <trkpt lat="43.75495" lon="4.13638">
        <ele>113.4</ele>
        <time>2026-05-31T08:07:29.999Z</time>
      </trkpt>
      <trkpt lat="43.75494" lon="4.13638">
        <ele>113.3</ele>
        <time>2026-05-31T08:07:30.999Z</time>
      </trkpt>
      <trkpt lat="43.75493" lon="4.13638">
        <ele>112.9</ele>
        <time>2026-05-31T08:07:31.999Z</time>
      </trkpt>
      <trkpt lat="43.75492" lon="4.13638">
        <ele>112.7</ele>
        <time>2026-05-31T08:07:32.999Z</time>
      </trkpt>
      <trkpt lat="43.75492" lon="4.13639">
        <ele>112.5</ele>
        <time>2026-05-31T08:07:33.999Z</time>
      </trkpt>
      <trkpt lat="43.75492" lon="4.13639">
        <ele>112.2</ele>
        <time>2026-05-31T08:07:34.999Z</time>
      </trkpt>
      <trkpt lat="43.75491" lon="4.13638">
        <ele>112</ele>
        <time>2026-05-31T08:07:35.999Z</time>
      </trkpt>
      <trkpt lat="43.7549" lon="4.13639">
        <ele>112</ele>
        <time>2026-05-31T08:07:36.999Z</time>
      </trkpt>
      <trkpt lat="43.7549" lon="4.13639">
        <ele>112.6</ele>
        <time>2026-05-31T08:07:37.999Z</time>
      </trkpt>
      <trkpt lat="43.7549" lon="4.13639">
        <ele>112.6</ele>
        <time>2026-05-31T08:07:38.999Z</time>
      </trkpt>
      <trkpt lat="43.7549" lon="4.13639">
        <ele>112.3</ele>
        <time>2026-05-31T08:07:39.999Z</time>
      </trkpt>
      <trkpt lat="43.7549" lon="4.13638">
        <ele>112</ele>
        <time>2026-05-31T08:07:40.999Z</time>
      </trkpt>
      <trkpt lat="43.7549" lon="4.13638">
        <ele>111.6</ele>
        <time>2026-05-31T08:07:41.999Z</time>
      </trkpt>
      <trkpt lat="43.7549" lon="4.13638">
        <ele>111.4</ele>
        <time>2026-05-31T08:07:42.999Z</time>
      </trkpt>
      <trkpt lat="43.7549" lon="4.13638">
        <ele>111.2</ele>
        <time>2026-05-31T08:07:43.999Z</time>
      </trkpt>
      <trkpt lat="43.75489" lon="4.13638">
        <ele>111</ele>
        <time>2026-05-31T08:07:44.999Z</time>
      </trkpt>
      <trkpt lat="43.75488" lon="4.13637">
        <ele>110.8</ele>
        <time>2026-05-31T08:07:45.999Z</time>
      </trkpt>
      <trkpt lat="43.75486" lon="4.13637">
        <ele>110.6</ele>
        <time>2026-05-31T08:07:46.999Z</time>
      </trkpt>
      <trkpt lat="43.75485" lon="4.13637">
        <ele>110.4</ele>
        <time>2026-05-31T08:07:47.999Z</time>
      </trkpt>
      <trkpt lat="43.75484" lon="4.13637">
        <ele>110.1</ele>
        <time>2026-05-31T08:07:48.999Z</time>
      </trkpt>
      <trkpt lat="43.75482" lon="4.13636">
        <ele>109.9</ele>
        <time>2026-05-31T08:07:49.999Z</time>
      </trkpt>
      <trkpt lat="43.75481" lon="4.13635">
        <ele>109.6</ele>
        <time>2026-05-31T08:07:50.999Z</time>
      </trkpt>
      <trkpt lat="43.7548" lon="4.13635">
        <ele>109.6</ele>
        <time>2026-05-31T08:07:51.999Z</time>
      </trkpt>
      <trkpt lat="43.75479" lon="4.13634">
        <ele>109.7</ele>
        <time>2026-05-31T08:07:52.999Z</time>
      </trkpt>
      <trkpt lat="43.75478" lon="4.13634">
        <ele>109.8</ele>
        <time>2026-05-31T08:07:53.999Z</time>
      </trkpt>
      <trkpt lat="43.75477" lon="4.13633">
        <ele>109.9</ele>
        <time>2026-05-31T08:07:54.999Z</time>
      </trkpt>
      <trkpt lat="43.75476" lon="4.13633">
        <ele>109.9</ele>
        <time>2026-05-31T08:07:55.999Z</time>
      </trkpt>
      <trkpt lat="43.75476" lon="4.13633">
        <ele>110.1</ele>
        <time>2026-05-31T08:07:56.999Z</time>
      </trkpt>
      <trkpt lat="43.75476" lon="4.13633">
        <ele>110</ele>
        <time>2026-05-31T08:07:57.999Z</time>
      </trkpt>
      <trkpt lat="43.75476" lon="4.13633">
        <ele>109.9</ele>
        <time>2026-05-31T08:07:58.999Z</time>
      </trkpt>
      <trkpt lat="43.75476" lon="4.13633">
        <ele>109.8</ele>
        <time>2026-05-31T08:07:59.999Z</time>
      </trkpt>
      <trkpt lat="43.75476" lon="4.13633">
        <ele>109.7</ele>
        <time>2026-05-31T08:08:00.999Z</time>
      </trkpt>
      <trkpt lat="43.75475" lon="4.13633">
        <ele>109.7</ele>
        <time>2026-05-31T08:08:01.999Z</time>
      </trkpt>
      <trkpt lat="43.75475" lon="4.13633">
        <ele>109.5</ele>
        <time>2026-05-31T08:08:02.999Z</time>
      </trkpt>
      <trkpt lat="43.75475" lon="4.13633">
        <ele>109.3</ele>
        <time>2026-05-31T08:08:03.999Z</time>
      </trkpt>
      <trkpt lat="43.75475" lon="4.13632">
        <ele>109</ele>
        <time>2026-05-31T08:08:04.999Z</time>
      </trkpt>
      <trkpt lat="43.75475" lon="4.13633">
        <ele>108.8</ele>
        <time>2026-05-31T08:08:05.999Z</time>
      </trkpt>
      <trkpt lat="43.75474" lon="4.13632">
        <ele>108.7</ele>
        <time>2026-05-31T08:08:06.999Z</time>
      </trkpt>
      <trkpt lat="43.75474" lon="4.13632">
        <ele>108.7</ele>
        <time>2026-05-31T08:08:07.999Z</time>
      </trkpt>
      <trkpt lat="43.75474" lon="4.13633">
        <ele>108.5</ele>
        <time>2026-05-31T08:08:08.999Z</time>
      </trkpt>
      <trkpt lat="43.75473" lon="4.13632">
        <ele>108</ele>
        <time>2026-05-31T08:08:09.999Z</time>
      </trkpt>
      <trkpt lat="43.75473" lon="4.13632">
        <ele>107.7</ele>
        <time>2026-05-31T08:08:10.999Z</time>
      </trkpt>
      <trkpt lat="43.75473" lon="4.13632">
        <ele>107.3</ele>
        <time>2026-05-31T08:08:11.999Z</time>
      </trkpt>
      <trkpt lat="43.75473" lon="4.13632">
        <ele>106.8</ele>
        <time>2026-05-31T08:08:12.999Z</time>
      </trkpt>
      <trkpt lat="43.75472" lon="4.13632">
        <ele>106.4</ele>
        <time>2026-05-31T08:08:13.999Z</time>
      </trkpt>
      <trkpt lat="43.75472" lon="4.13632">
        <ele>106.3</ele>
        <time>2026-05-31T08:08:14.999Z</time>
      </trkpt>
      <trkpt lat="43.75472" lon="4.13632">
        <ele>106.3</ele>
        <time>2026-05-31T08:08:15.999Z</time>
      </trkpt>
      <trkpt lat="43.75472" lon="4.13632">
        <ele>106.1</ele>
        <time>2026-05-31T08:08:16.999Z</time>
      </trkpt>
      <trkpt lat="43.75472" lon="4.13632">
        <ele>105.8</ele>
        <time>2026-05-31T08:08:17.999Z</time>
      </trkpt>
      <trkpt lat="43.75472" lon="4.13632">
        <ele>105.5</ele>
        <time>2026-05-31T08:08:18.999Z</time>
      </trkpt>
      <trkpt lat="43.75471" lon="4.13631">
        <ele>105.4</ele>
        <time>2026-05-31T08:08:19.999Z</time>
      </trkpt>
      <trkpt lat="43.75471" lon="4.13631">
        <ele>105.2</ele>
        <time>2026-05-31T08:08:20.999Z</time>
      </trkpt>
      <trkpt lat="43.75471" lon="4.13631">
        <ele>105</ele>
        <time>2026-05-31T08:08:21.999Z</time>
      </trkpt>
      <trkpt lat="43.75471" lon="4.13631">
        <ele>104.9</ele>
        <time>2026-05-31T08:08:22.999Z</time>
      </trkpt>
      <trkpt lat="43.75471" lon="4.1363">
        <ele>105</ele>
        <time>2026-05-31T08:08:23.999Z</time>
      </trkpt>
      <trkpt lat="43.75471" lon="4.1363">
        <ele>104.7</ele>
        <time>2026-05-31T08:08:24.999Z</time>
      </trkpt>
      <trkpt lat="43.7547" lon="4.1363">
        <ele>104.3</ele>
        <time>2026-05-31T08:08:25.999Z</time>
      </trkpt>
      <trkpt lat="43.7547" lon="4.13629">
        <ele>104.1</ele>
        <time>2026-05-31T08:08:26.999Z</time>
      </trkpt>
      <trkpt lat="43.7547" lon="4.13629">
        <ele>104.1</ele>
        <time>2026-05-31T08:08:27.999Z</time>
      </trkpt>
      <trkpt lat="43.7547" lon="4.13629">
        <ele>103.9</ele>
        <time>2026-05-31T08:08:28.999Z</time>
      </trkpt>
      <trkpt lat="43.75469" lon="4.13629">
        <ele>103.7</ele>
        <time>2026-05-31T08:08:29.999Z</time>
      </trkpt>
      <trkpt lat="43.75466" lon="4.13628">
        <ele>103.4</ele>
        <time>2026-05-31T08:08:30.999Z</time>
      </trkpt>
      <trkpt lat="43.75463" lon="4.13628">
        <ele>103.3</ele>
        <time>2026-05-31T08:08:31.999Z</time>
      </trkpt>
      <trkpt lat="43.75461" lon="4.13628">
        <ele>103</ele>
        <time>2026-05-31T08:08:32.999Z</time>
      </trkpt>
      <trkpt lat="43.75459" lon="4.13628">
        <ele>103</ele>
        <time>2026-05-31T08:08:33.999Z</time>
      </trkpt>
      <trkpt lat="43.75457" lon="4.13628">
        <ele>103</ele>
        <time>2026-05-31T08:08:34.999Z</time>
      </trkpt>
      <trkpt lat="43.75456" lon="4.13628">
        <ele>103</ele>
        <time>2026-05-31T08:08:35.999Z</time>
      </trkpt>
      <trkpt lat="43.75454" lon="4.13629">
        <ele>103</ele>
        <time>2026-05-31T08:08:36.999Z</time>
      </trkpt>
      <trkpt lat="43.75453" lon="4.13629">
        <ele>102.9</ele>
        <time>2026-05-31T08:08:37.999Z</time>
      </trkpt>
      <trkpt lat="43.75452" lon="4.13629">
        <ele>102.9</ele>
        <time>2026-05-31T08:08:38.999Z</time>
      </trkpt>
      <trkpt lat="43.75451" lon="4.13629">
        <ele>102.7</ele>
        <time>2026-05-31T08:08:39.999Z</time>
      </trkpt>
      <trkpt lat="43.75448" lon="4.13627">
        <ele>102.5</ele>
        <time>2026-05-31T08:08:40.999Z</time>
      </trkpt>
      <trkpt lat="43.75446" lon="4.13626">
        <ele>102.4</ele>
        <time>2026-05-31T08:08:41.999Z</time>
      </trkpt>
      <trkpt lat="43.75442" lon="4.13625">
        <ele>102.9</ele>
        <time>2026-05-31T08:08:42.999Z</time>
      </trkpt>
      <trkpt lat="43.7544" lon="4.13625">
        <ele>103.2</ele>
        <time>2026-05-31T08:08:43.999Z</time>
      </trkpt>
      <trkpt lat="43.75438" lon="4.13625">
        <ele>103.4</ele>
        <time>2026-05-31T08:08:44.999Z</time>
      </trkpt>
      <trkpt lat="43.75438" lon="4.13626">
        <ele>103.3</ele>
        <time>2026-05-31T08:08:45.999Z</time>
      </trkpt>
      <trkpt lat="43.75437" lon="4.13627">
        <ele>102.9</ele>
        <time>2026-05-31T08:08:46.999Z</time>
      </trkpt>
      <trkpt lat="43.75436" lon="4.13628">
        <ele>102.7</ele>
        <time>2026-05-31T08:08:47.999Z</time>
      </trkpt>
      <trkpt lat="43.75436" lon="4.13629">
        <ele>102.6</ele>
        <time>2026-05-31T08:08:48.999Z</time>
      </trkpt>
      <trkpt lat="43.75436" lon="4.13629">
        <ele>103.1</ele>
        <time>2026-05-31T08:08:49.999Z</time>
      </trkpt>
      <trkpt lat="43.75435" lon="4.1363">
        <ele>102.8</ele>
        <time>2026-05-31T08:08:50.999Z</time>
      </trkpt>
      <trkpt lat="43.75436" lon="4.1363">
        <ele>102.7</ele>
        <time>2026-05-31T08:08:51.999Z</time>
      </trkpt>
      <trkpt lat="43.75436" lon="4.13632">
        <ele>103</ele>
        <time>2026-05-31T08:08:52.999Z</time>
      </trkpt>
      <trkpt lat="43.75436" lon="4.13633">
        <ele>103</ele>
        <time>2026-05-31T08:08:53.999Z</time>
      </trkpt>
      <trkpt lat="43.75436" lon="4.13635">
        <ele>103</ele>
        <time>2026-05-31T08:08:54.999Z</time>
      </trkpt>
      <trkpt lat="43.75436" lon="4.13636">
        <ele>103.1</ele>
        <time>2026-05-31T08:08:55.999Z</time>
      </trkpt>
      <trkpt lat="43.75436" lon="4.13637">
        <ele>102.9</ele>
        <time>2026-05-31T08:08:56.999Z</time>
      </trkpt>
      <trkpt lat="43.75436" lon="4.13639">
        <ele>102.6</ele>
        <time>2026-05-31T08:08:57.999Z</time>
      </trkpt>
      <trkpt lat="43.75436" lon="4.13639">
        <ele>102.6</ele>
        <time>2026-05-31T08:08:58.999Z</time>
      </trkpt>
      <trkpt lat="43.75436" lon="4.13639">
        <ele>102.9</ele>
        <time>2026-05-31T08:08:59.999Z</time>
      </trkpt>
      <trkpt lat="43.75436" lon="4.1364">
        <ele>103.1</ele>
        <time>2026-05-31T08:09:00.999Z</time>
      </trkpt>
      <trkpt lat="43.75436" lon="4.1364">
        <ele>103.2</ele>
        <time>2026-05-31T08:09:01.999Z</time>
      </trkpt>
      <trkpt lat="43.75436" lon="4.1364">
        <ele>103.3</ele>
        <time>2026-05-31T08:09:02.999Z</time>
      </trkpt>
      <trkpt lat="43.75436" lon="4.1364">
        <ele>103.2</ele>
        <time>2026-05-31T08:09:03.999Z</time>
      </trkpt>
      <trkpt lat="43.75436" lon="4.13641">
        <ele>103.1</ele>
        <time>2026-05-31T08:09:04.999Z</time>
      </trkpt>
      <trkpt lat="43.75435" lon="4.13641">
        <ele>103.1</ele>
        <time>2026-05-31T08:09:05.999Z</time>
      </trkpt>
      <trkpt lat="43.75435" lon="4.13641">
        <ele>102.8</ele>
        <time>2026-05-31T08:09:06.999Z</time>
      </trkpt>
      <trkpt lat="43.75435" lon="4.13642">
        <ele>102.6</ele>
        <time>2026-05-31T08:09:07.999Z</time>
      </trkpt>
      <trkpt lat="43.75434" lon="4.13644">
        <ele>102.5</ele>
        <time>2026-05-31T08:09:08.999Z</time>
      </trkpt>
      <trkpt lat="43.75433" lon="4.13647">
        <ele>102.3</ele>
        <time>2026-05-31T08:09:09.999Z</time>
      </trkpt>
      <trkpt lat="43.75432" lon="4.13648">
        <ele>102.1</ele>
        <time>2026-05-31T08:09:10.999Z</time>
      </trkpt>
      <trkpt lat="43.75432" lon="4.13649">
        <ele>101.9</ele>
        <time>2026-05-31T08:09:11.999Z</time>
      </trkpt>
      <trkpt lat="43.75432" lon="4.13649">
        <ele>101.6</ele>
        <time>2026-05-31T08:09:12.999Z</time>
      </trkpt>
      <trkpt lat="43.75432" lon="4.1365">
        <ele>101.5</ele>
        <time>2026-05-31T08:09:13.999Z</time>
      </trkpt>
      <trkpt lat="43.75432" lon="4.13651">
        <ele>101.3</ele>
        <time>2026-05-31T08:09:14.999Z</time>
      </trkpt>
      <trkpt lat="43.75432" lon="4.13652">
        <ele>101.1</ele>
        <time>2026-05-31T08:09:15.999Z</time>
      </trkpt>
      <trkpt lat="43.75432" lon="4.13653">
        <ele>101.2</ele>
        <time>2026-05-31T08:09:16.999Z</time>
      </trkpt>
      <trkpt lat="43.75432" lon="4.13653">
        <ele>101.4</ele>
        <time>2026-05-31T08:09:17.999Z</time>
      </trkpt>
      <trkpt lat="43.75432" lon="4.13654">
        <ele>101.5</ele>
        <time>2026-05-31T08:09:18.999Z</time>
      </trkpt>
      <trkpt lat="43.75432" lon="4.13657">
        <ele>101.7</ele>
        <time>2026-05-31T08:09:19.999Z</time>
      </trkpt>
      <trkpt lat="43.75432" lon="4.1366">
        <ele>101.6</ele>
        <time>2026-05-31T08:09:20.999Z</time>
      </trkpt>
      <trkpt lat="43.75432" lon="4.13661">
        <ele>101.7</ele>
        <time>2026-05-31T08:09:21.999Z</time>
      </trkpt>
      <trkpt lat="43.75432" lon="4.13662">
        <ele>102.2</ele>
        <time>2026-05-31T08:09:22.999Z</time>
      </trkpt>
      <trkpt lat="43.75432" lon="4.13662">
        <ele>102.6</ele>
        <time>2026-05-31T08:09:23.999Z</time>
      </trkpt>
      <trkpt lat="43.75432" lon="4.13663">
        <ele>102.7</ele>
        <time>2026-05-31T08:09:24.999Z</time>
      </trkpt>
      <trkpt lat="43.75432" lon="4.13663">
        <ele>102.6</ele>
        <time>2026-05-31T08:09:25.999Z</time>
      </trkpt>
      <trkpt lat="43.75432" lon="4.13663">
        <ele>102.6</ele>
        <time>2026-05-31T08:09:26.999Z</time>
      </trkpt>
      <trkpt lat="43.75432" lon="4.13663">
        <ele>102.5</ele>
        <time>2026-05-31T08:09:27.999Z</time>
      </trkpt>
      <trkpt lat="43.75432" lon="4.13663">
        <ele>102.4</ele>
        <time>2026-05-31T08:09:28.999Z</time>
      </trkpt>
      <trkpt lat="43.75432" lon="4.13663">
        <ele>102.1</ele>
        <time>2026-05-31T08:09:29.999Z</time>
      </trkpt>
      <trkpt lat="43.75432" lon="4.13663">
        <ele>101.9</ele>
        <time>2026-05-31T08:09:30.999Z</time>
      </trkpt>
      <trkpt lat="43.75432" lon="4.13664">
        <ele>102</ele>
        <time>2026-05-31T08:09:31.999Z</time>
      </trkpt>
      <trkpt lat="43.75432" lon="4.13664">
        <ele>102.1</ele>
        <time>2026-05-31T08:09:32.999Z</time>
      </trkpt>
      <trkpt lat="43.75432" lon="4.13665">
        <ele>102</ele>
        <time>2026-05-31T08:09:33.999Z</time>
      </trkpt>
      <trkpt lat="43.75432" lon="4.13665">
        <ele>102</ele>
        <time>2026-05-31T08:09:34.999Z</time>
      </trkpt>
      <trkpt lat="43.75432" lon="4.13665">
        <ele>101.8</ele>
        <time>2026-05-31T08:09:35.999Z</time>
      </trkpt>
      <trkpt lat="43.75432" lon="4.13665">
        <ele>101.6</ele>
        <time>2026-05-31T08:09:36.999Z</time>
      </trkpt>
      <trkpt lat="43.75432" lon="4.13665">
        <ele>101.4</ele>
        <time>2026-05-31T08:09:37.999Z</time>
      </trkpt>
      <trkpt lat="43.75432" lon="4.13665">
        <ele>101.4</ele>
        <time>2026-05-31T08:09:38.999Z</time>
      </trkpt>
      <trkpt lat="43.75432" lon="4.13666">
        <ele>101.3</ele>
        <time>2026-05-31T08:09:39.999Z</time>
      </trkpt>
      <trkpt lat="43.75432" lon="4.13666">
        <ele>101.1</ele>
        <time>2026-05-31T08:09:40.999Z</time>
      </trkpt>
      <trkpt lat="43.75432" lon="4.13666">
        <ele>101.2</ele>
        <time>2026-05-31T08:09:42.000Z</time>
      </trkpt>
      <trkpt lat="43.75432" lon="4.13666">
        <ele>101.2</ele>
        <time>2026-05-31T08:09:43.000Z</time>
      </trkpt>
      <trkpt lat="43.75432" lon="4.13666">
        <ele>101.3</ele>
        <time>2026-05-31T08:09:44.000Z</time>
      </trkpt>
      <trkpt lat="43.75432" lon="4.13666">
        <ele>101.2</ele>
        <time>2026-05-31T08:09:45.000Z</time>
      </trkpt>
      <trkpt lat="43.75432" lon="4.13666">
        <ele>101.2</ele>
        <time>2026-05-31T08:09:46.000Z</time>
      </trkpt>
      <trkpt lat="43.75432" lon="4.13666">
        <ele>101.3</ele>
        <time>2026-05-31T08:09:47.000Z</time>
      </trkpt>
      <trkpt lat="43.75432" lon="4.13666">
        <ele>101.1</ele>
        <time>2026-05-31T08:09:48.000Z</time>
      </trkpt>
      <trkpt lat="43.75432" lon="4.13666">
        <ele>101.1</ele>
        <time>2026-05-31T08:09:49.000Z</time>
      </trkpt>
      <trkpt lat="43.75432" lon="4.13666">
        <ele>101</ele>
        <time>2026-05-31T08:09:50.000Z</time>
      </trkpt>
      <trkpt lat="43.75432" lon="4.13666">
        <ele>101</ele>
        <time>2026-05-31T08:09:51.000Z</time>
      </trkpt>
      <trkpt lat="43.75432" lon="4.13666">
        <ele>101.1</ele>
        <time>2026-05-31T08:09:52.000Z</time>
      </trkpt>
      <trkpt lat="43.75432" lon="4.13666">
        <ele>101.2</ele>
        <time>2026-05-31T08:09:53.000Z</time>
      </trkpt>
      <trkpt lat="43.75432" lon="4.13666">
        <ele>101.4</ele>
        <time>2026-05-31T08:09:54.000Z</time>
      </trkpt>
      <trkpt lat="43.75432" lon="4.13666">
        <ele>101.6</ele>
        <time>2026-05-31T08:09:55.000Z</time>
      </trkpt>
      <trkpt lat="43.75432" lon="4.13666">
        <ele>101.6</ele>
        <time>2026-05-31T08:09:56.000Z</time>
      </trkpt>
      <trkpt lat="43.75432" lon="4.13666">
        <ele>101.6</ele>
        <time>2026-05-31T08:09:57.000Z</time>
      </trkpt>
      <trkpt lat="43.75432" lon="4.13666">
        <ele>101.7</ele>
        <time>2026-05-31T08:09:58.000Z</time>
      </trkpt>
      <trkpt lat="43.75432" lon="4.13666">
        <ele>101.9</ele>
        <time>2026-05-31T08:09:59.000Z</time>
      </trkpt>
      <trkpt lat="43.75432" lon="4.13666">
        <ele>102.1</ele>
        <time>2026-05-31T08:10:00.000Z</time>
      </trkpt>
      <trkpt lat="43.75432" lon="4.13667">
        <ele>102.5</ele>
        <time>2026-05-31T08:10:01.000Z</time>
      </trkpt>
      <trkpt lat="43.75432" lon="4.13667">
        <ele>102.6</ele>
        <time>2026-05-31T08:10:02.000Z</time>
      </trkpt>
      <trkpt lat="43.75432" lon="4.13667">
        <ele>102.8</ele>
        <time>2026-05-31T08:10:03.000Z</time>
      </trkpt>
      <trkpt lat="43.75432" lon="4.13667">
        <ele>103</ele>
        <time>2026-05-31T08:10:04.000Z</time>
      </trkpt>
      <trkpt lat="43.75432" lon="4.13667">
        <ele>103</ele>
        <time>2026-05-31T08:10:05.000Z</time>
      </trkpt>
      <trkpt lat="43.75432" lon="4.13667">
        <ele>103</ele>
        <time>2026-05-31T08:10:06.000Z</time>
      </trkpt>
      <trkpt lat="43.75432" lon="4.13667">
        <ele>102.9</ele>
        <time>2026-05-31T08:10:07.000Z</time>
      </trkpt>
      <trkpt lat="43.75432" lon="4.13668">
        <ele>102.8</ele>
        <time>2026-05-31T08:10:08.000Z</time>
      </trkpt>
      <trkpt lat="43.75432" lon="4.13668">
        <ele>102.7</ele>
        <time>2026-05-31T08:10:09.000Z</time>
      </trkpt>
      <trkpt lat="43.75431" lon="4.13668">
        <ele>102.6</ele>
        <time>2026-05-31T08:10:10.000Z</time>
      </trkpt>
      <trkpt lat="43.75431" lon="4.13668">
        <ele>102.3</ele>
        <time>2026-05-31T08:10:11.000Z</time>
      </trkpt>
      <trkpt lat="43.75431" lon="4.13668">
        <ele>102</ele>
        <time>2026-05-31T08:10:12.000Z</time>
      </trkpt>
      <trkpt lat="43.75431" lon="4.13668">
        <ele>102.1</ele>
        <time>2026-05-31T08:10:13.000Z</time>
      </trkpt>
      <trkpt lat="43.75431" lon="4.13668">
        <ele>102.3</ele>
        <time>2026-05-31T08:10:14.000Z</time>
      </trkpt>
      <trkpt lat="43.75431" lon="4.13668">
        <ele>102.2</ele>
        <time>2026-05-31T08:10:15.000Z</time>
      </trkpt>
      <trkpt lat="43.75431" lon="4.13668">
        <ele>102</ele>
        <time>2026-05-31T08:10:16.000Z</time>
      </trkpt>
      <trkpt lat="43.75431" lon="4.13669">
        <ele>102.4</ele>
        <time>2026-05-31T08:10:17.000Z</time>
      </trkpt>
      <trkpt lat="43.75431" lon="4.13669">
        <ele>102.7</ele>
        <time>2026-05-31T08:10:18.000Z</time>
      </trkpt>
      <trkpt lat="43.75431" lon="4.13669">
        <ele>103.1</ele>
        <time>2026-05-31T08:10:19.000Z</time>
      </trkpt>
      <trkpt lat="43.75431" lon="4.13669">
        <ele>103.8</ele>
        <time>2026-05-31T08:10:20.000Z</time>
      </trkpt>
      <trkpt lat="43.75431" lon="4.13669">
        <ele>104.5</ele>
        <time>2026-05-31T08:10:21.000Z</time>
      </trkpt>
      <trkpt lat="43.75431" lon="4.13669">
        <ele>105.4</ele>
        <time>2026-05-31T08:10:22.000Z</time>
      </trkpt>
      <trkpt lat="43.75431" lon="4.13669">
        <ele>106.3</ele>
        <time>2026-05-31T08:10:23.000Z</time>
      </trkpt>
      <trkpt lat="43.75431" lon="4.1367">
        <ele>106.6</ele>
        <time>2026-05-31T08:10:24.000Z</time>
      </trkpt>
      <trkpt lat="43.75431" lon="4.1367">
        <ele>106.9</ele>
        <time>2026-05-31T08:10:25.000Z</time>
      </trkpt>
      <trkpt lat="43.7543" lon="4.1367">
        <ele>107.5</ele>
        <time>2026-05-31T08:10:26.000Z</time>
      </trkpt>
      <trkpt lat="43.7543" lon="4.1367">
        <ele>107.6</ele>
        <time>2026-05-31T08:10:27.000Z</time>
      </trkpt>
      <trkpt lat="43.75431" lon="4.1367">
        <ele>107.8</ele>
        <time>2026-05-31T08:10:28.000Z</time>
      </trkpt>
      <trkpt lat="43.7543" lon="4.1367">
        <ele>107.7</ele>
        <time>2026-05-31T08:10:29.000Z</time>
      </trkpt>
      <trkpt lat="43.7543" lon="4.1367">
        <ele>107.6</ele>
        <time>2026-05-31T08:10:30.000Z</time>
      </trkpt>
      <trkpt lat="43.7543" lon="4.1367">
        <ele>107.5</ele>
        <time>2026-05-31T08:10:31.000Z</time>
      </trkpt>
      <trkpt lat="43.7543" lon="4.1367">
        <ele>107.2</ele>
        <time>2026-05-31T08:10:32.000Z</time>
      </trkpt>
      <trkpt lat="43.7543" lon="4.1367">
        <ele>107.1</ele>
        <time>2026-05-31T08:10:33.000Z</time>
      </trkpt>
      <trkpt lat="43.7543" lon="4.13671">
        <ele>106.9</ele>
        <time>2026-05-31T08:10:34.000Z</time>
      </trkpt>
      <trkpt lat="43.7543" lon="4.13671">
        <ele>107.2</ele>
        <time>2026-05-31T08:10:35.000Z</time>
      </trkpt>
      <trkpt lat="43.7543" lon="4.13671">
        <ele>107.2</ele>
        <time>2026-05-31T08:10:36.000Z</time>
      </trkpt>
      <trkpt lat="43.7543" lon="4.13671">
        <ele>107</ele>
        <time>2026-05-31T08:10:37.000Z</time>
      </trkpt>
      <trkpt lat="43.7543" lon="4.13672">
        <ele>107.1</ele>
        <time>2026-05-31T08:10:38.000Z</time>
      </trkpt>
      <trkpt lat="43.7543" lon="4.13672">
        <ele>107.2</ele>
        <time>2026-05-31T08:10:39.000Z</time>
      </trkpt>
      <trkpt lat="43.75431" lon="4.13672">
        <ele>107.2</ele>
        <time>2026-05-31T08:10:40.000Z</time>
      </trkpt>
      <trkpt lat="43.7543" lon="4.13672">
        <ele>107</ele>
        <time>2026-05-31T08:10:41.000Z</time>
      </trkpt>
      <trkpt lat="43.7543" lon="4.13673">
        <ele>106.9</ele>
        <time>2026-05-31T08:10:42.000Z</time>
      </trkpt>
      <trkpt lat="43.7543" lon="4.13675">
        <ele>106.8</ele>
        <time>2026-05-31T08:10:43.000Z</time>
      </trkpt>
      <trkpt lat="43.7543" lon="4.13676">
        <ele>107</ele>
        <time>2026-05-31T08:10:44.000Z</time>
      </trkpt>
      <trkpt lat="43.7543" lon="4.13678">
        <ele>107.2</ele>
        <time>2026-05-31T08:10:45.000Z</time>
      </trkpt>
      <trkpt lat="43.7543" lon="4.1368">
        <ele>107.4</ele>
        <time>2026-05-31T08:10:46.000Z</time>
      </trkpt>
      <trkpt lat="43.7543" lon="4.13682">
        <ele>107.4</ele>
        <time>2026-05-31T08:10:47.000Z</time>
      </trkpt>
      <trkpt lat="43.75431" lon="4.13684">
        <ele>107.3</ele>
        <time>2026-05-31T08:10:48.000Z</time>
      </trkpt>
      <trkpt lat="43.75431" lon="4.13686">
        <ele>107.3</ele>
        <time>2026-05-31T08:10:49.000Z</time>
      </trkpt>
      <trkpt lat="43.7543" lon="4.13688">
        <ele>107.4</ele>
        <time>2026-05-31T08:10:50.000Z</time>
      </trkpt>
      <trkpt lat="43.75431" lon="4.1369">
        <ele>107.6</ele>
        <time>2026-05-31T08:10:51.000Z</time>
      </trkpt>
      <trkpt lat="43.7543" lon="4.13692">
        <ele>107.8</ele>
        <time>2026-05-31T08:10:52.000Z</time>
      </trkpt>
      <trkpt lat="43.7543" lon="4.13694">
        <ele>107.8</ele>
        <time>2026-05-31T08:10:53.000Z</time>
      </trkpt>
      <trkpt lat="43.75429" lon="4.13696">
        <ele>107.7</ele>
        <time>2026-05-31T08:10:54.000Z</time>
      </trkpt>
      <trkpt lat="43.75429" lon="4.13698">
        <ele>107.9</ele>
        <time>2026-05-31T08:10:55.000Z</time>
      </trkpt>
      <trkpt lat="43.75429" lon="4.13699">
        <ele>108.1</ele>
        <time>2026-05-31T08:10:56.000Z</time>
      </trkpt>
      <trkpt lat="43.75429" lon="4.13701">
        <ele>108.2</ele>
        <time>2026-05-31T08:10:57.000Z</time>
      </trkpt>
      <trkpt lat="43.75429" lon="4.13703">
        <ele>108.6</ele>
        <time>2026-05-31T08:10:58.000Z</time>
      </trkpt>
      <trkpt lat="43.75429" lon="4.13703">
        <ele>108.7</ele>
        <time>2026-05-31T08:10:59.000Z</time>
      </trkpt>
      <trkpt lat="43.75428" lon="4.13705">
        <ele>109</ele>
        <time>2026-05-31T08:11:00.000Z</time>
      </trkpt>
      <trkpt lat="43.75429" lon="4.13706">
        <ele>108.9</ele>
        <time>2026-05-31T08:11:01.000Z</time>
      </trkpt>
      <trkpt lat="43.75429" lon="4.13707">
        <ele>109.2</ele>
        <time>2026-05-31T08:11:02.000Z</time>
      </trkpt>
      <trkpt lat="43.75429" lon="4.13709">
        <ele>109.5</ele>
        <time>2026-05-31T08:11:03.000Z</time>
      </trkpt>
      <trkpt lat="43.75429" lon="4.1371">
        <ele>110.1</ele>
        <time>2026-05-31T08:11:04.000Z</time>
      </trkpt>
      <trkpt lat="43.75429" lon="4.13712">
        <ele>110.5</ele>
        <time>2026-05-31T08:11:05.000Z</time>
      </trkpt>
      <trkpt lat="43.75429" lon="4.13713">
        <ele>110.7</ele>
        <time>2026-05-31T08:11:06.000Z</time>
      </trkpt>
      <trkpt lat="43.7543" lon="4.13713">
        <ele>111.4</ele>
        <time>2026-05-31T08:11:07.000Z</time>
      </trkpt>
      <trkpt lat="43.7543" lon="4.13714">
        <ele>111.7</ele>
        <time>2026-05-31T08:11:08.000Z</time>
      </trkpt>
      <trkpt lat="43.75432" lon="4.13714">
        <ele>111.8</ele>
        <time>2026-05-31T08:11:09.000Z</time>
      </trkpt>
      <trkpt lat="43.75432" lon="4.13714">
        <ele>111.7</ele>
        <time>2026-05-31T08:11:10.000Z</time>
      </trkpt>
      <trkpt lat="43.75433" lon="4.13715">
        <ele>112.1</ele>
        <time>2026-05-31T08:11:11.000Z</time>
      </trkpt>
      <trkpt lat="43.75433" lon="4.13717">
        <ele>112.3</ele>
        <time>2026-05-31T08:11:12.000Z</time>
      </trkpt>
      <trkpt lat="43.75433" lon="4.13718">
        <ele>112</ele>
        <time>2026-05-31T08:11:13.000Z</time>
      </trkpt>
      <trkpt lat="43.75433" lon="4.1372">
        <ele>112.5</ele>
        <time>2026-05-31T08:11:14.000Z</time>
      </trkpt>
      <trkpt lat="43.75433" lon="4.1372">
        <ele>112.6</ele>
        <time>2026-05-31T08:11:15.000Z</time>
      </trkpt>
      <trkpt lat="43.75433" lon="4.13721">
        <ele>112.4</ele>
        <time>2026-05-31T08:11:16.000Z</time>
      </trkpt>
      <trkpt lat="43.75433" lon="4.13723">
        <ele>112.4</ele>
        <time>2026-05-31T08:11:17.000Z</time>
      </trkpt>
      <trkpt lat="43.75433" lon="4.13725">
        <ele>112.1</ele>
        <time>2026-05-31T08:11:18.000Z</time>
      </trkpt>
      <trkpt lat="43.75433" lon="4.13727">
        <ele>111.9</ele>
        <time>2026-05-31T08:11:19.000Z</time>
      </trkpt>
      <trkpt lat="43.75432" lon="4.13729">
        <ele>112.1</ele>
        <time>2026-05-31T08:11:20.000Z</time>
      </trkpt>
      <trkpt lat="43.75432" lon="4.13731">
        <ele>112</ele>
        <time>2026-05-31T08:11:21.000Z</time>
      </trkpt>
      <trkpt lat="43.75432" lon="4.13732">
        <ele>111.9</ele>
        <time>2026-05-31T08:11:22.000Z</time>
      </trkpt>
      <trkpt lat="43.75432" lon="4.13734">
        <ele>111.9</ele>
        <time>2026-05-31T08:11:23.000Z</time>
      </trkpt>
      <trkpt lat="43.75432" lon="4.13736">
        <ele>111.8</ele>
        <time>2026-05-31T08:11:24.000Z</time>
      </trkpt>
      <trkpt lat="43.75432" lon="4.13737">
        <ele>111.7</ele>
        <time>2026-05-31T08:11:25.000Z</time>
      </trkpt>
      <trkpt lat="43.75433" lon="4.1374">
        <ele>111.9</ele>
        <time>2026-05-31T08:11:26.000Z</time>
      </trkpt>
      <trkpt lat="43.75433" lon="4.13741">
        <ele>111.7</ele>
        <time>2026-05-31T08:11:27.000Z</time>
      </trkpt>
      <trkpt lat="43.75433" lon="4.13744">
        <ele>111.6</ele>
        <time>2026-05-31T08:11:28.000Z</time>
      </trkpt>
      <trkpt lat="43.75433" lon="4.13747">
        <ele>112</ele>
        <time>2026-05-31T08:11:29.000Z</time>
      </trkpt>
      <trkpt lat="43.75433" lon="4.13748">
        <ele>112.4</ele>
        <time>2026-05-31T08:11:30.000Z</time>
      </trkpt>
      <trkpt lat="43.75432" lon="4.13749">
        <ele>112.4</ele>
        <time>2026-05-31T08:11:31.000Z</time>
      </trkpt>
      <trkpt lat="43.75432" lon="4.13751">
        <ele>112.8</ele>
        <time>2026-05-31T08:11:32.000Z</time>
      </trkpt>
      <trkpt lat="43.75431" lon="4.13751">
        <ele>112.6</ele>
        <time>2026-05-31T08:11:33.000Z</time>
      </trkpt>
      <trkpt lat="43.75431" lon="4.13753">
        <ele>112.3</ele>
        <time>2026-05-31T08:11:34.000Z</time>
      </trkpt>
      <trkpt lat="43.75432" lon="4.13754">
        <ele>112.1</ele>
        <time>2026-05-31T08:11:35.000Z</time>
      </trkpt>
      <trkpt lat="43.75432" lon="4.13755">
        <ele>112.3</ele>
        <time>2026-05-31T08:11:36.000Z</time>
      </trkpt>
      <trkpt lat="43.75432" lon="4.13756">
        <ele>112.1</ele>
        <time>2026-05-31T08:11:37.000Z</time>
      </trkpt>
      <trkpt lat="43.75432" lon="4.13758">
        <ele>112.1</ele>
        <time>2026-05-31T08:11:38.000Z</time>
      </trkpt>
      <trkpt lat="43.75432" lon="4.13759">
        <ele>112</ele>
        <time>2026-05-31T08:11:39.000Z</time>
      </trkpt>
      <trkpt lat="43.75433" lon="4.13761">
        <ele>111.9</ele>
        <time>2026-05-31T08:11:40.000Z</time>
      </trkpt>
      <trkpt lat="43.75432" lon="4.13763">
        <ele>111.6</ele>
        <time>2026-05-31T08:11:41.000Z</time>
      </trkpt>
      <trkpt lat="43.75432" lon="4.13766">
        <ele>111.3</ele>
        <time>2026-05-31T08:11:42.000Z</time>
      </trkpt>
      <trkpt lat="43.75432" lon="4.13767">
        <ele>111</ele>
        <time>2026-05-31T08:11:43.000Z</time>
      </trkpt>
      <trkpt lat="43.75431" lon="4.13769">
        <ele>111.2</ele>
        <time>2026-05-31T08:11:44.000Z</time>
      </trkpt>
      <trkpt lat="43.75431" lon="4.1377">
        <ele>111.1</ele>
        <time>2026-05-31T08:11:45.000Z</time>
      </trkpt>
      <trkpt lat="43.75431" lon="4.13771">
        <ele>110.8</ele>
        <time>2026-05-31T08:11:46.000Z</time>
      </trkpt>
      <trkpt lat="43.75431" lon="4.13773">
        <ele>110.8</ele>
        <time>2026-05-31T08:11:47.000Z</time>
      </trkpt>
      <trkpt lat="43.75431" lon="4.13775">
        <ele>110.4</ele>
        <time>2026-05-31T08:11:48.000Z</time>
      </trkpt>
      <trkpt lat="43.75431" lon="4.13776">
        <ele>110.2</ele>
        <time>2026-05-31T08:11:49.000Z</time>
      </trkpt>
      <trkpt lat="43.75431" lon="4.13777">
        <ele>110.3</ele>
        <time>2026-05-31T08:11:50.000Z</time>
      </trkpt>
      <trkpt lat="43.75431" lon="4.13778">
        <ele>110.1</ele>
        <time>2026-05-31T08:11:51.000Z</time>
      </trkpt>
      <trkpt lat="43.75431" lon="4.13779">
        <ele>110.9</ele>
        <time>2026-05-31T08:11:52.000Z</time>
      </trkpt>
      <trkpt lat="43.75431" lon="4.13779">
        <ele>111.1</ele>
        <time>2026-05-31T08:11:53.000Z</time>
      </trkpt>
      <trkpt lat="43.75431" lon="4.13781">
        <ele>111.1</ele>
        <time>2026-05-31T08:11:54.000Z</time>
      </trkpt>
      <trkpt lat="43.75431" lon="4.13782">
        <ele>111</ele>
        <time>2026-05-31T08:11:55.000Z</time>
      </trkpt>
      <trkpt lat="43.7543" lon="4.13783">
        <ele>111.5</ele>
        <time>2026-05-31T08:11:56.000Z</time>
      </trkpt>
      <trkpt lat="43.7543" lon="4.13785">
        <ele>111.5</ele>
        <time>2026-05-31T08:11:57.000Z</time>
      </trkpt>
      <trkpt lat="43.7543" lon="4.13787">
        <ele>111.8</ele>
        <time>2026-05-31T08:11:58.000Z</time>
      </trkpt>
      <trkpt lat="43.7543" lon="4.13789">
        <ele>112.1</ele>
        <time>2026-05-31T08:11:59.000Z</time>
      </trkpt>
      <trkpt lat="43.75429" lon="4.13791">
        <ele>112.9</ele>
        <time>2026-05-31T08:12:00.000Z</time>
      </trkpt>
      <trkpt lat="43.75429" lon="4.13793">
        <ele>113.5</ele>
        <time>2026-05-31T08:12:01.000Z</time>
      </trkpt>
      <trkpt lat="43.75429" lon="4.13794">
        <ele>113.5</ele>
        <time>2026-05-31T08:12:02.000Z</time>
      </trkpt>
      <trkpt lat="43.75429" lon="4.13795">
        <ele>113.2</ele>
        <time>2026-05-31T08:12:03.000Z</time>
      </trkpt>
      <trkpt lat="43.75429" lon="4.13796">
        <ele>112.9</ele>
        <time>2026-05-31T08:12:04.000Z</time>
      </trkpt>
      <trkpt lat="43.7543" lon="4.13798">
        <ele>112.9</ele>
        <time>2026-05-31T08:12:05.000Z</time>
      </trkpt>
      <trkpt lat="43.7543" lon="4.138">
        <ele>112.9</ele>
        <time>2026-05-31T08:12:06.000Z</time>
      </trkpt>
      <trkpt lat="43.7543" lon="4.13801">
        <ele>113.2</ele>
        <time>2026-05-31T08:12:07.000Z</time>
      </trkpt>
      <trkpt lat="43.75431" lon="4.13803">
        <ele>113.4</ele>
        <time>2026-05-31T08:12:08.000Z</time>
      </trkpt>
      <trkpt lat="43.75431" lon="4.13804">
        <ele>113.5</ele>
        <time>2026-05-31T08:12:09.000Z</time>
      </trkpt>
      <trkpt lat="43.75431" lon="4.13806">
        <ele>113.4</ele>
        <time>2026-05-31T08:12:10.000Z</time>
      </trkpt>
      <trkpt lat="43.75431" lon="4.13807">
        <ele>112.9</ele>
        <time>2026-05-31T08:12:11.000Z</time>
      </trkpt>
      <trkpt lat="43.7543" lon="4.13809">
        <ele>112.9</ele>
        <time>2026-05-31T08:12:12.000Z</time>
      </trkpt>
      <trkpt lat="43.7543" lon="4.1381">
        <ele>112.6</ele>
        <time>2026-05-31T08:12:13.000Z</time>
      </trkpt>
      <trkpt lat="43.7543" lon="4.13812">
        <ele>112.2</ele>
        <time>2026-05-31T08:12:14.000Z</time>
      </trkpt>
      <trkpt lat="43.7543" lon="4.13813">
        <ele>111.9</ele>
        <time>2026-05-31T08:12:15.000Z</time>
      </trkpt>
      <trkpt lat="43.75429" lon="4.13815">
        <ele>112</ele>
        <time>2026-05-31T08:12:16.000Z</time>
      </trkpt>
      <trkpt lat="43.75429" lon="4.13816">
        <ele>111.7</ele>
        <time>2026-05-31T08:12:17.000Z</time>
      </trkpt>
      <trkpt lat="43.75428" lon="4.13817">
        <ele>111.6</ele>
        <time>2026-05-31T08:12:18.000Z</time>
      </trkpt>
      <trkpt lat="43.75428" lon="4.13819">
        <ele>111.6</ele>
        <time>2026-05-31T08:12:19.000Z</time>
      </trkpt>
      <trkpt lat="43.75428" lon="4.1382">
        <ele>111.6</ele>
        <time>2026-05-31T08:12:20.000Z</time>
      </trkpt>
      <trkpt lat="43.75427" lon="4.13822">
        <ele>111.5</ele>
        <time>2026-05-31T08:12:21.000Z</time>
      </trkpt>
      <trkpt lat="43.75427" lon="4.13824">
        <ele>111.2</ele>
        <time>2026-05-31T08:12:22.000Z</time>
      </trkpt>
      <trkpt lat="43.75426" lon="4.13826">
        <ele>110.9</ele>
        <time>2026-05-31T08:12:23.000Z</time>
      </trkpt>
      <trkpt lat="43.75426" lon="4.13828">
        <ele>110.5</ele>
        <time>2026-05-31T08:12:24.000Z</time>
      </trkpt>
      <trkpt lat="43.75427" lon="4.13829">
        <ele>110</ele>
        <time>2026-05-31T08:12:25.000Z</time>
      </trkpt>
      <trkpt lat="43.75426" lon="4.13831">
        <ele>109.6</ele>
        <time>2026-05-31T08:12:26.000Z</time>
      </trkpt>
      <trkpt lat="43.75426" lon="4.13832">
        <ele>109.3</ele>
        <time>2026-05-31T08:12:27.000Z</time>
      </trkpt>
      <trkpt lat="43.75426" lon="4.13834">
        <ele>109.1</ele>
        <time>2026-05-31T08:12:28.000Z</time>
      </trkpt>
      <trkpt lat="43.75425" lon="4.13835">
        <ele>108.8</ele>
        <time>2026-05-31T08:12:29.000Z</time>
      </trkpt>
      <trkpt lat="43.75425" lon="4.13837">
        <ele>108.7</ele>
        <time>2026-05-31T08:12:30.000Z</time>
      </trkpt>
      <trkpt lat="43.75424" lon="4.13839">
        <ele>108.5</ele>
        <time>2026-05-31T08:12:31.000Z</time>
      </trkpt>
      <trkpt lat="43.75424" lon="4.1384">
        <ele>108.4</ele>
        <time>2026-05-31T08:12:32.000Z</time>
      </trkpt>
      <trkpt lat="43.75424" lon="4.13842">
        <ele>108.2</ele>
        <time>2026-05-31T08:12:33.000Z</time>
      </trkpt>
      <trkpt lat="43.75425" lon="4.13843">
        <ele>108</ele>
        <time>2026-05-31T08:12:34.000Z</time>
      </trkpt>
      <trkpt lat="43.75425" lon="4.13844">
        <ele>107.7</ele>
        <time>2026-05-31T08:12:35.000Z</time>
      </trkpt>
      <trkpt lat="43.75425" lon="4.13845">
        <ele>107.7</ele>
        <time>2026-05-31T08:12:36.000Z</time>
      </trkpt>
      <trkpt lat="43.75424" lon="4.13847">
        <ele>107.8</ele>
        <time>2026-05-31T08:12:37.000Z</time>
      </trkpt>
      <trkpt lat="43.75423" lon="4.13848">
        <ele>108</ele>
        <time>2026-05-31T08:12:38.000Z</time>
      </trkpt>
      <trkpt lat="43.75423" lon="4.1385">
        <ele>108.1</ele>
        <time>2026-05-31T08:12:39.000Z</time>
      </trkpt>
      <trkpt lat="43.75423" lon="4.13851">
        <ele>107.9</ele>
        <time>2026-05-31T08:12:40.000Z</time>
      </trkpt>
      <trkpt lat="43.75423" lon="4.13852">
        <ele>107.6</ele>
        <time>2026-05-31T08:12:41.000Z</time>
      </trkpt>
      <trkpt lat="43.75423" lon="4.13854">
        <ele>107.2</ele>
        <time>2026-05-31T08:12:42.000Z</time>
      </trkpt>
      <trkpt lat="43.75423" lon="4.13856">
        <ele>107.1</ele>
        <time>2026-05-31T08:12:43.000Z</time>
      </trkpt>
      <trkpt lat="43.75423" lon="4.13858">
        <ele>107.3</ele>
        <time>2026-05-31T08:12:44.000Z</time>
      </trkpt>
      <trkpt lat="43.75423" lon="4.1386">
        <ele>107.2</ele>
        <time>2026-05-31T08:12:45.000Z</time>
      </trkpt>
      <trkpt lat="43.75423" lon="4.13861">
        <ele>106.7</ele>
        <time>2026-05-31T08:12:46.000Z</time>
      </trkpt>
      <trkpt lat="43.75423" lon="4.13862">
        <ele>106.5</ele>
        <time>2026-05-31T08:12:47.000Z</time>
      </trkpt>
      <trkpt lat="43.75422" lon="4.13863">
        <ele>106.7</ele>
        <time>2026-05-31T08:12:48.000Z</time>
      </trkpt>
      <trkpt lat="43.75422" lon="4.13864">
        <ele>106.8</ele>
        <time>2026-05-31T08:12:49.000Z</time>
      </trkpt>
      <trkpt lat="43.75421" lon="4.13865">
        <ele>107.1</ele>
        <time>2026-05-31T08:12:50.000Z</time>
      </trkpt>
      <trkpt lat="43.75421" lon="4.13866">
        <ele>107.5</ele>
        <time>2026-05-31T08:12:51.000Z</time>
      </trkpt>
      <trkpt lat="43.7542" lon="4.13868">
        <ele>107.7</ele>
        <time>2026-05-31T08:12:52.000Z</time>
      </trkpt>
      <trkpt lat="43.7542" lon="4.13869">
        <ele>108.1</ele>
        <time>2026-05-31T08:12:53.000Z</time>
      </trkpt>
      <trkpt lat="43.75419" lon="4.13871">
        <ele>108.3</ele>
        <time>2026-05-31T08:12:54.000Z</time>
      </trkpt>
      <trkpt lat="43.75419" lon="4.13873">
        <ele>108.6</ele>
        <time>2026-05-31T08:12:55.000Z</time>
      </trkpt>
      <trkpt lat="43.75418" lon="4.13874">
        <ele>108.7</ele>
        <time>2026-05-31T08:12:56.000Z</time>
      </trkpt>
      <trkpt lat="43.75417" lon="4.13876">
        <ele>108.6</ele>
        <time>2026-05-31T08:12:57.000Z</time>
      </trkpt>
      <trkpt lat="43.75417" lon="4.13878">
        <ele>108.5</ele>
        <time>2026-05-31T08:12:58.000Z</time>
      </trkpt>
      <trkpt lat="43.75417" lon="4.13879">
        <ele>108</ele>
        <time>2026-05-31T08:12:59.000Z</time>
      </trkpt>
      <trkpt lat="43.75417" lon="4.13881">
        <ele>107.8</ele>
        <time>2026-05-31T08:13:00.000Z</time>
      </trkpt>
      <trkpt lat="43.75416" lon="4.13883">
        <ele>107.5</ele>
        <time>2026-05-31T08:13:01.000Z</time>
      </trkpt>
      <trkpt lat="43.75416" lon="4.13885">
        <ele>107.6</ele>
        <time>2026-05-31T08:13:02.000Z</time>
      </trkpt>
      <trkpt lat="43.75416" lon="4.13886">
        <ele>107.6</ele>
        <time>2026-05-31T08:13:03.000Z</time>
      </trkpt>
      <trkpt lat="43.75416" lon="4.13887">
        <ele>107.6</ele>
        <time>2026-05-31T08:13:04.000Z</time>
      </trkpt>
      <trkpt lat="43.75416" lon="4.13889">
        <ele>107.7</ele>
        <time>2026-05-31T08:13:05.000Z</time>
      </trkpt>
      <trkpt lat="43.75416" lon="4.1389">
        <ele>107.8</ele>
        <time>2026-05-31T08:13:06.000Z</time>
      </trkpt>
      <trkpt lat="43.75415" lon="4.13891">
        <ele>107.8</ele>
        <time>2026-05-31T08:13:07.000Z</time>
      </trkpt>
      <trkpt lat="43.75415" lon="4.13893">
        <ele>107.8</ele>
        <time>2026-05-31T08:13:08.000Z</time>
      </trkpt>
      <trkpt lat="43.75415" lon="4.13895">
        <ele>107.5</ele>
        <time>2026-05-31T08:13:09.000Z</time>
      </trkpt>
      <trkpt lat="43.75416" lon="4.13897">
        <ele>107.5</ele>
        <time>2026-05-31T08:13:10.000Z</time>
      </trkpt>
      <trkpt lat="43.75416" lon="4.13899">
        <ele>107.6</ele>
        <time>2026-05-31T08:13:11.000Z</time>
      </trkpt>
      <trkpt lat="43.75416" lon="4.13901">
        <ele>107.8</ele>
        <time>2026-05-31T08:13:12.000Z</time>
      </trkpt>
      <trkpt lat="43.75416" lon="4.13902">
        <ele>107.6</ele>
        <time>2026-05-31T08:13:13.000Z</time>
      </trkpt>
      <trkpt lat="43.75416" lon="4.13904">
        <ele>108.1</ele>
        <time>2026-05-31T08:13:14.000Z</time>
      </trkpt>
      <trkpt lat="43.75415" lon="4.13905">
        <ele>108.5</ele>
        <time>2026-05-31T08:13:15.000Z</time>
      </trkpt>
      <trkpt lat="43.75415" lon="4.13905">
        <ele>109.2</ele>
        <time>2026-05-31T08:13:16.000Z</time>
      </trkpt>
      <trkpt lat="43.75416" lon="4.13905">
        <ele>110.2</ele>
        <time>2026-05-31T08:13:17.000Z</time>
      </trkpt>
      <trkpt lat="43.75416" lon="4.13906">
        <ele>110.8</ele>
        <time>2026-05-31T08:13:18.000Z</time>
      </trkpt>
      <trkpt lat="43.75416" lon="4.13907">
        <ele>111.2</ele>
        <time>2026-05-31T08:13:19.000Z</time>
      </trkpt>
      <trkpt lat="43.75416" lon="4.13909">
        <ele>111.5</ele>
        <time>2026-05-31T08:13:20.000Z</time>
      </trkpt>
      <trkpt lat="43.75416" lon="4.13911">
        <ele>111.7</ele>
        <time>2026-05-31T08:13:21.000Z</time>
      </trkpt>
      <trkpt lat="43.75416" lon="4.13912">
        <ele>111.9</ele>
        <time>2026-05-31T08:13:22.000Z</time>
      </trkpt>
      <trkpt lat="43.75416" lon="4.13913">
        <ele>112.1</ele>
        <time>2026-05-31T08:13:23.000Z</time>
      </trkpt>
      <trkpt lat="43.75416" lon="4.13914">
        <ele>112</ele>
        <time>2026-05-31T08:13:24.000Z</time>
      </trkpt>
      <trkpt lat="43.75415" lon="4.13916">
        <ele>112.1</ele>
        <time>2026-05-31T08:13:25.000Z</time>
      </trkpt>
      <trkpt lat="43.75414" lon="4.13917">
        <ele>112</ele>
        <time>2026-05-31T08:13:26.000Z</time>
      </trkpt>
      <trkpt lat="43.75414" lon="4.13918">
        <ele>111.9</ele>
        <time>2026-05-31T08:13:27.000Z</time>
      </trkpt>
      <trkpt lat="43.75412" lon="4.13919">
        <ele>111.7</ele>
        <time>2026-05-31T08:13:28.000Z</time>
      </trkpt>
      <trkpt lat="43.75412" lon="4.13919">
        <ele>111.3</ele>
        <time>2026-05-31T08:13:29.000Z</time>
      </trkpt>
      <trkpt lat="43.75411" lon="4.1392">
        <ele>110.9</ele>
        <time>2026-05-31T08:13:30.000Z</time>
      </trkpt>
      <trkpt lat="43.75409" lon="4.1392">
        <ele>110.8</ele>
        <time>2026-05-31T08:13:31.000Z</time>
      </trkpt>
      <trkpt lat="43.75408" lon="4.13921">
        <ele>110.8</ele>
        <time>2026-05-31T08:13:32.000Z</time>
      </trkpt>
      <trkpt lat="43.75407" lon="4.13921">
        <ele>110.6</ele>
        <time>2026-05-31T08:13:33.000Z</time>
      </trkpt>
      <trkpt lat="43.75406" lon="4.13922">
        <ele>110.5</ele>
        <time>2026-05-31T08:13:34.000Z</time>
      </trkpt>
      <trkpt lat="43.75405" lon="4.13922">
        <ele>110.3</ele>
        <time>2026-05-31T08:13:35.000Z</time>
      </trkpt>
      <trkpt lat="43.75404" lon="4.13921">
        <ele>110.4</ele>
        <time>2026-05-31T08:13:36.000Z</time>
      </trkpt>
      <trkpt lat="43.75403" lon="4.13921">
        <ele>110.3</ele>
        <time>2026-05-31T08:13:37.000Z</time>
      </trkpt>
      <trkpt lat="43.75403" lon="4.13921">
        <ele>110.4</ele>
        <time>2026-05-31T08:13:38.000Z</time>
      </trkpt>
      <trkpt lat="43.75402" lon="4.13921">
        <ele>110.4</ele>
        <time>2026-05-31T08:13:39.000Z</time>
      </trkpt>
      <trkpt lat="43.75401" lon="4.13921">
        <ele>110.1</ele>
        <time>2026-05-31T08:13:40.000Z</time>
      </trkpt>
      <trkpt lat="43.754" lon="4.13922">
        <ele>110</ele>
        <time>2026-05-31T08:13:41.000Z</time>
      </trkpt>
      <trkpt lat="43.75399" lon="4.13922">
        <ele>109.7</ele>
        <time>2026-05-31T08:13:42.000Z</time>
      </trkpt>
      <trkpt lat="43.75399" lon="4.13923">
        <ele>109.6</ele>
        <time>2026-05-31T08:13:43.000Z</time>
      </trkpt>
      <trkpt lat="43.75398" lon="4.13923">
        <ele>109.4</ele>
        <time>2026-05-31T08:13:44.000Z</time>
      </trkpt>
      <trkpt lat="43.75397" lon="4.13924">
        <ele>109.2</ele>
        <time>2026-05-31T08:13:45.000Z</time>
      </trkpt>
      <trkpt lat="43.75395" lon="4.13925">
        <ele>109.1</ele>
        <time>2026-05-31T08:13:46.000Z</time>
      </trkpt>
      <trkpt lat="43.75395" lon="4.13925">
        <ele>108.8</ele>
        <time>2026-05-31T08:13:47.000Z</time>
      </trkpt>
      <trkpt lat="43.75394" lon="4.13925">
        <ele>108.7</ele>
        <time>2026-05-31T08:13:48.000Z</time>
      </trkpt>
      <trkpt lat="43.75394" lon="4.13925">
        <ele>108.7</ele>
        <time>2026-05-31T08:13:49.000Z</time>
      </trkpt>
      <trkpt lat="43.75394" lon="4.13925">
        <ele>108.8</ele>
        <time>2026-05-31T08:13:50.000Z</time>
      </trkpt>
      <trkpt lat="43.75394" lon="4.13925">
        <ele>109.2</ele>
        <time>2026-05-31T08:13:51.000Z</time>
      </trkpt>
      <trkpt lat="43.75393" lon="4.13925">
        <ele>109</ele>
        <time>2026-05-31T08:13:52.000Z</time>
      </trkpt>
      <trkpt lat="43.75392" lon="4.13925">
        <ele>108.7</ele>
        <time>2026-05-31T08:13:53.000Z</time>
      </trkpt>
      <trkpt lat="43.75391" lon="4.13925">
        <ele>108.3</ele>
        <time>2026-05-31T08:13:54.000Z</time>
      </trkpt>
      <trkpt lat="43.7539" lon="4.13925">
        <ele>108</ele>
        <time>2026-05-31T08:13:55.000Z</time>
      </trkpt>
      <trkpt lat="43.75389" lon="4.13926">
        <ele>107.5</ele>
        <time>2026-05-31T08:13:56.000Z</time>
      </trkpt>
      <trkpt lat="43.75388" lon="4.13927">
        <ele>107.5</ele>
        <time>2026-05-31T08:13:57.000Z</time>
      </trkpt>
      <trkpt lat="43.75386" lon="4.13927">
        <ele>107.4</ele>
        <time>2026-05-31T08:13:58.000Z</time>
      </trkpt>
      <trkpt lat="43.75384" lon="4.13928">
        <ele>107.1</ele>
        <time>2026-05-31T08:13:59.000Z</time>
      </trkpt>
      <trkpt lat="43.75384" lon="4.13929">
        <ele>107.2</ele>
        <time>2026-05-31T08:14:00.000Z</time>
      </trkpt>
      <trkpt lat="43.75383" lon="4.13929">
        <ele>106.9</ele>
        <time>2026-05-31T08:14:01.000Z</time>
      </trkpt>
      <trkpt lat="43.75382" lon="4.13929">
        <ele>106.8</ele>
        <time>2026-05-31T08:14:02.000Z</time>
      </trkpt>
      <trkpt lat="43.75381" lon="4.1393">
        <ele>106.8</ele>
        <time>2026-05-31T08:14:03.000Z</time>
      </trkpt>
      <trkpt lat="43.7538" lon="4.1393">
        <ele>106.4</ele>
        <time>2026-05-31T08:14:04.000Z</time>
      </trkpt>
      <trkpt lat="43.75379" lon="4.1393">
        <ele>106.2</ele>
        <time>2026-05-31T08:14:05.000Z</time>
      </trkpt>
      <trkpt lat="43.75378" lon="4.1393">
        <ele>106.2</ele>
        <time>2026-05-31T08:14:06.000Z</time>
      </trkpt>
      <trkpt lat="43.75377" lon="4.1393">
        <ele>106.1</ele>
        <time>2026-05-31T08:14:07.000Z</time>
      </trkpt>
      <trkpt lat="43.75377" lon="4.13931">
        <ele>106</ele>
        <time>2026-05-31T08:14:08.000Z</time>
      </trkpt>
      <trkpt lat="43.75376" lon="4.13932">
        <ele>105.8</ele>
        <time>2026-05-31T08:14:09.000Z</time>
      </trkpt>
      <trkpt lat="43.75374" lon="4.13933">
        <ele>105.6</ele>
        <time>2026-05-31T08:14:10.000Z</time>
      </trkpt>
      <trkpt lat="43.75373" lon="4.13932">
        <ele>105.5</ele>
        <time>2026-05-31T08:14:11.000Z</time>
      </trkpt>
      <trkpt lat="43.75371" lon="4.13932">
        <ele>105.1</ele>
        <time>2026-05-31T08:14:12.000Z</time>
      </trkpt>
      <trkpt lat="43.7537" lon="4.13932">
        <ele>105</ele>
        <time>2026-05-31T08:14:13.000Z</time>
      </trkpt>
      <trkpt lat="43.75369" lon="4.13932">
        <ele>104.5</ele>
        <time>2026-05-31T08:14:14.000Z</time>
      </trkpt>
      <trkpt lat="43.75368" lon="4.13932">
        <ele>104.6</ele>
        <time>2026-05-31T08:14:15.000Z</time>
      </trkpt>
      <trkpt lat="43.75367" lon="4.13932">
        <ele>104.3</ele>
        <time>2026-05-31T08:14:16.000Z</time>
      </trkpt>
      <trkpt lat="43.75366" lon="4.13931">
        <ele>104.4</ele>
        <time>2026-05-31T08:14:17.000Z</time>
      </trkpt>
      <trkpt lat="43.75364" lon="4.13931">
        <ele>104.5</ele>
        <time>2026-05-31T08:14:18.000Z</time>
      </trkpt>
      <trkpt lat="43.75363" lon="4.13931">
        <ele>104.6</ele>
        <time>2026-05-31T08:14:19.000Z</time>
      </trkpt>
      <trkpt lat="43.75362" lon="4.13931">
        <ele>104.2</ele>
        <time>2026-05-31T08:14:20.000Z</time>
      </trkpt>
      <trkpt lat="43.75361" lon="4.13931">
        <ele>104.2</ele>
        <time>2026-05-31T08:14:21.000Z</time>
      </trkpt>
      <trkpt lat="43.7536" lon="4.13931">
        <ele>104.3</ele>
        <time>2026-05-31T08:14:22.000Z</time>
      </trkpt>
      <trkpt lat="43.75359" lon="4.13932">
        <ele>104.4</ele>
        <time>2026-05-31T08:14:23.000Z</time>
      </trkpt>
      <trkpt lat="43.75358" lon="4.13931">
        <ele>104.4</ele>
        <time>2026-05-31T08:14:24.000Z</time>
      </trkpt>
      <trkpt lat="43.75357" lon="4.13932">
        <ele>104.7</ele>
        <time>2026-05-31T08:14:25.000Z</time>
      </trkpt>
      <trkpt lat="43.75357" lon="4.13932">
        <ele>104.5</ele>
        <time>2026-05-31T08:14:26.000Z</time>
      </trkpt>
      <trkpt lat="43.75356" lon="4.13932">
        <ele>104.2</ele>
        <time>2026-05-31T08:14:27.000Z</time>
      </trkpt>
      <trkpt lat="43.75355" lon="4.13932">
        <ele>104.3</ele>
        <time>2026-05-31T08:14:28.000Z</time>
      </trkpt>
      <trkpt lat="43.75354" lon="4.13932">
        <ele>104.2</ele>
        <time>2026-05-31T08:14:29.000Z</time>
      </trkpt>
      <trkpt lat="43.75353" lon="4.13932">
        <ele>104.4</ele>
        <time>2026-05-31T08:14:30.000Z</time>
      </trkpt>
      <trkpt lat="43.75352" lon="4.13932">
        <ele>104.5</ele>
        <time>2026-05-31T08:14:31.000Z</time>
      </trkpt>
      <trkpt lat="43.75351" lon="4.13932">
        <ele>104.4</ele>
        <time>2026-05-31T08:14:32.000Z</time>
      </trkpt>
      <trkpt lat="43.75351" lon="4.13932">
        <ele>103.8</ele>
        <time>2026-05-31T08:14:33.000Z</time>
      </trkpt>
      <trkpt lat="43.75349" lon="4.13933">
        <ele>103.8</ele>
        <time>2026-05-31T08:14:34.000Z</time>
      </trkpt>
      <trkpt lat="43.75348" lon="4.13934">
        <ele>103.8</ele>
        <time>2026-05-31T08:14:35.000Z</time>
      </trkpt>
      <trkpt lat="43.75347" lon="4.13934">
        <ele>103.6</ele>
        <time>2026-05-31T08:14:36.000Z</time>
      </trkpt>
      <trkpt lat="43.75347" lon="4.13935">
        <ele>103.2</ele>
        <time>2026-05-31T08:14:37.000Z</time>
      </trkpt>
      <trkpt lat="43.75346" lon="4.13935">
        <ele>102.6</ele>
        <time>2026-05-31T08:14:38.000Z</time>
      </trkpt>
      <trkpt lat="43.75345" lon="4.13934">
        <ele>102.2</ele>
        <time>2026-05-31T08:14:39.000Z</time>
      </trkpt>
      <trkpt lat="43.75344" lon="4.13934">
        <ele>101.9</ele>
        <time>2026-05-31T08:14:40.000Z</time>
      </trkpt>
      <trkpt lat="43.75343" lon="4.13935">
        <ele>101.8</ele>
        <time>2026-05-31T08:14:41.000Z</time>
      </trkpt>
      <trkpt lat="43.75342" lon="4.13935">
        <ele>102.1</ele>
        <time>2026-05-31T08:14:42.000Z</time>
      </trkpt>
      <trkpt lat="43.75341" lon="4.13934">
        <ele>102.1</ele>
        <time>2026-05-31T08:14:43.000Z</time>
      </trkpt>
      <trkpt lat="43.7534" lon="4.13934">
        <ele>102</ele>
        <time>2026-05-31T08:14:44.000Z</time>
      </trkpt>
      <trkpt lat="43.75339" lon="4.13933">
        <ele>101.8</ele>
        <time>2026-05-31T08:14:45.000Z</time>
      </trkpt>
      <trkpt lat="43.75337" lon="4.13932">
        <ele>102</ele>
        <time>2026-05-31T08:14:46.000Z</time>
      </trkpt>
      <trkpt lat="43.75336" lon="4.13931">
        <ele>102.1</ele>
        <time>2026-05-31T08:14:47.000Z</time>
      </trkpt>
      <trkpt lat="43.75335" lon="4.13931">
        <ele>102</ele>
        <time>2026-05-31T08:14:48.000Z</time>
      </trkpt>
      <trkpt lat="43.75334" lon="4.1393">
        <ele>102.4</ele>
        <time>2026-05-31T08:14:49.000Z</time>
      </trkpt>
      <trkpt lat="43.75333" lon="4.13929">
        <ele>102.3</ele>
        <time>2026-05-31T08:14:50.000Z</time>
      </trkpt>
      <trkpt lat="43.75333" lon="4.13928">
        <ele>102.3</ele>
        <time>2026-05-31T08:14:51.000Z</time>
      </trkpt>
      <trkpt lat="43.75332" lon="4.13928">
        <ele>102</ele>
        <time>2026-05-31T08:14:52.000Z</time>
      </trkpt>
      <trkpt lat="43.75331" lon="4.13927">
        <ele>101.9</ele>
        <time>2026-05-31T08:14:53.000Z</time>
      </trkpt>
      <trkpt lat="43.7533" lon="4.13926">
        <ele>101.8</ele>
        <time>2026-05-31T08:14:54.000Z</time>
      </trkpt>
      <trkpt lat="43.75329" lon="4.13925">
        <ele>101.6</ele>
        <time>2026-05-31T08:14:55.000Z</time>
      </trkpt>
      <trkpt lat="43.75328" lon="4.13925">
        <ele>101.4</ele>
        <time>2026-05-31T08:14:56.000Z</time>
      </trkpt>
      <trkpt lat="43.75328" lon="4.13925">
        <ele>101.1</ele>
        <time>2026-05-31T08:14:57.000Z</time>
      </trkpt>
      <trkpt lat="43.75327" lon="4.13925">
        <ele>101</ele>
        <time>2026-05-31T08:14:58.000Z</time>
      </trkpt>
      <trkpt lat="43.75326" lon="4.13924">
        <ele>100.8</ele>
        <time>2026-05-31T08:14:59.000Z</time>
      </trkpt>
      <trkpt lat="43.75325" lon="4.13924">
        <ele>100.5</ele>
        <time>2026-05-31T08:15:00.000Z</time>
      </trkpt>
      <trkpt lat="43.75324" lon="4.13924">
        <ele>100</ele>
        <time>2026-05-31T08:15:01.000Z</time>
      </trkpt>
      <trkpt lat="43.75323" lon="4.13923">
        <ele>99.9</ele>
        <time>2026-05-31T08:15:02.000Z</time>
      </trkpt>
      <trkpt lat="43.75322" lon="4.13923">
        <ele>100</ele>
        <time>2026-05-31T08:15:03.000Z</time>
      </trkpt>
      <trkpt lat="43.75321" lon="4.13923">
        <ele>100.1</ele>
        <time>2026-05-31T08:15:04.000Z</time>
      </trkpt>
      <trkpt lat="43.7532" lon="4.13923">
        <ele>100.2</ele>
        <time>2026-05-31T08:15:05.000Z</time>
      </trkpt>
      <trkpt lat="43.75318" lon="4.13923">
        <ele>100.1</ele>
        <time>2026-05-31T08:15:06.000Z</time>
      </trkpt>
      <trkpt lat="43.75317" lon="4.13924">
        <ele>99.9</ele>
        <time>2026-05-31T08:15:07.000Z</time>
      </trkpt>
      <trkpt lat="43.75316" lon="4.13923">
        <ele>99.6</ele>
        <time>2026-05-31T08:15:08.000Z</time>
      </trkpt>
      <trkpt lat="43.75315" lon="4.13923">
        <ele>99.5</ele>
        <time>2026-05-31T08:15:09.000Z</time>
      </trkpt>
      <trkpt lat="43.75314" lon="4.13922">
        <ele>99.4</ele>
        <time>2026-05-31T08:15:10.000Z</time>
      </trkpt>
      <trkpt lat="43.75313" lon="4.13921">
        <ele>99.3</ele>
        <time>2026-05-31T08:15:11.000Z</time>
      </trkpt>
      <trkpt lat="43.75312" lon="4.13921">
        <ele>99.1</ele>
        <time>2026-05-31T08:15:12.000Z</time>
      </trkpt>
      <trkpt lat="43.7531" lon="4.13921">
        <ele>98.9</ele>
        <time>2026-05-31T08:15:13.000Z</time>
      </trkpt>
      <trkpt lat="43.7531" lon="4.13921">
        <ele>98.8</ele>
        <time>2026-05-31T08:15:14.000Z</time>
      </trkpt>
      <trkpt lat="43.75308" lon="4.13922">
        <ele>99.2</ele>
        <time>2026-05-31T08:15:15.000Z</time>
      </trkpt>
      <trkpt lat="43.75306" lon="4.13922">
        <ele>99.7</ele>
        <time>2026-05-31T08:15:16.000Z</time>
      </trkpt>
      <trkpt lat="43.75305" lon="4.13921">
        <ele>99.8</ele>
        <time>2026-05-31T08:15:17.000Z</time>
      </trkpt>
      <trkpt lat="43.75304" lon="4.1392">
        <ele>99.4</ele>
        <time>2026-05-31T08:15:18.000Z</time>
      </trkpt>
      <trkpt lat="43.75303" lon="4.1392">
        <ele>99.2</ele>
        <time>2026-05-31T08:15:19.000Z</time>
      </trkpt>
      <trkpt lat="43.75302" lon="4.1392">
        <ele>99.2</ele>
        <time>2026-05-31T08:15:20.000Z</time>
      </trkpt>
      <trkpt lat="43.75302" lon="4.1392">
        <ele>99.1</ele>
        <time>2026-05-31T08:15:21.000Z</time>
      </trkpt>
      <trkpt lat="43.75301" lon="4.13921">
        <ele>99</ele>
        <time>2026-05-31T08:15:22.000Z</time>
      </trkpt>
      <trkpt lat="43.75301" lon="4.13921">
        <ele>98.9</ele>
        <time>2026-05-31T08:15:23.000Z</time>
      </trkpt>
      <trkpt lat="43.75301" lon="4.13921">
        <ele>98.3</ele>
        <time>2026-05-31T08:15:24.000Z</time>
      </trkpt>
      <trkpt lat="43.753" lon="4.13921">
        <ele>98</ele>
        <time>2026-05-31T08:15:25.000Z</time>
      </trkpt>
      <trkpt lat="43.753" lon="4.13921">
        <ele>97.6</ele>
        <time>2026-05-31T08:15:26.000Z</time>
      </trkpt>
      <trkpt lat="43.75299" lon="4.13922">
        <ele>97</ele>
        <time>2026-05-31T08:15:27.000Z</time>
      </trkpt>
      <trkpt lat="43.75298" lon="4.13922">
        <ele>96.7</ele>
        <time>2026-05-31T08:15:28.000Z</time>
      </trkpt>
      <trkpt lat="43.75298" lon="4.13921">
        <ele>96.4</ele>
        <time>2026-05-31T08:15:29.000Z</time>
      </trkpt>
      <trkpt lat="43.75296" lon="4.13921">
        <ele>96.3</ele>
        <time>2026-05-31T08:15:30.000Z</time>
      </trkpt>
      <trkpt lat="43.75295" lon="4.1392">
        <ele>96.7</ele>
        <time>2026-05-31T08:15:31.000Z</time>
      </trkpt>
      <trkpt lat="43.75293" lon="4.1392">
        <ele>96.8</ele>
        <time>2026-05-31T08:15:32.000Z</time>
      </trkpt>
      <trkpt lat="43.75292" lon="4.1392">
        <ele>97</ele>
        <time>2026-05-31T08:15:33.000Z</time>
      </trkpt>
      <trkpt lat="43.75291" lon="4.13921">
        <ele>97.1</ele>
        <time>2026-05-31T08:15:34.000Z</time>
      </trkpt>
      <trkpt lat="43.7529" lon="4.1392">
        <ele>97.3</ele>
        <time>2026-05-31T08:15:35.000Z</time>
      </trkpt>
      <trkpt lat="43.75289" lon="4.1392">
        <ele>97.7</ele>
        <time>2026-05-31T08:15:36.000Z</time>
      </trkpt>
      <trkpt lat="43.75287" lon="4.1392">
        <ele>97.9</ele>
        <time>2026-05-31T08:15:37.000Z</time>
      </trkpt>
      <trkpt lat="43.75286" lon="4.13919">
        <ele>98.1</ele>
        <time>2026-05-31T08:15:38.000Z</time>
      </trkpt>
      <trkpt lat="43.75285" lon="4.13919">
        <ele>98.3</ele>
        <time>2026-05-31T08:15:39.000Z</time>
      </trkpt>
      <trkpt lat="43.75284" lon="4.13919">
        <ele>98.5</ele>
        <time>2026-05-31T08:15:40.000Z</time>
      </trkpt>
      <trkpt lat="43.75282" lon="4.13919">
        <ele>98.4</ele>
        <time>2026-05-31T08:15:41.000Z</time>
      </trkpt>
      <trkpt lat="43.75281" lon="4.13919">
        <ele>98.7</ele>
        <time>2026-05-31T08:15:42.000Z</time>
      </trkpt>
      <trkpt lat="43.7528" lon="4.13918">
        <ele>98.9</ele>
        <time>2026-05-31T08:15:43.000Z</time>
      </trkpt>
      <trkpt lat="43.75279" lon="4.13919">
        <ele>98.9</ele>
        <time>2026-05-31T08:15:44.000Z</time>
      </trkpt>
      <trkpt lat="43.75277" lon="4.13919">
        <ele>99</ele>
        <time>2026-05-31T08:15:45.000Z</time>
      </trkpt>
      <trkpt lat="43.75276" lon="4.13919">
        <ele>99</ele>
        <time>2026-05-31T08:15:46.000Z</time>
      </trkpt>
      <trkpt lat="43.75275" lon="4.13919">
        <ele>99.2</ele>
        <time>2026-05-31T08:15:47.000Z</time>
      </trkpt>
      <trkpt lat="43.75274" lon="4.13918">
        <ele>99.4</ele>
        <time>2026-05-31T08:15:48.000Z</time>
      </trkpt>
      <trkpt lat="43.75273" lon="4.13918">
        <ele>99.3</ele>
        <time>2026-05-31T08:15:49.000Z</time>
      </trkpt>
      <trkpt lat="43.75272" lon="4.13918">
        <ele>99.2</ele>
        <time>2026-05-31T08:15:50.000Z</time>
      </trkpt>
      <trkpt lat="43.75272" lon="4.13918">
        <ele>99.2</ele>
        <time>2026-05-31T08:15:51.000Z</time>
      </trkpt>
      <trkpt lat="43.75271" lon="4.13918">
        <ele>99.2</ele>
        <time>2026-05-31T08:15:52.000Z</time>
      </trkpt>
      <trkpt lat="43.7527" lon="4.13919">
        <ele>99</ele>
        <time>2026-05-31T08:15:53.000Z</time>
      </trkpt>
      <trkpt lat="43.75269" lon="4.1392">
        <ele>99.2</ele>
        <time>2026-05-31T08:15:54.000Z</time>
      </trkpt>
      <trkpt lat="43.75268" lon="4.1392">
        <ele>99.1</ele>
        <time>2026-05-31T08:15:55.000Z</time>
      </trkpt>
      <trkpt lat="43.75267" lon="4.13921">
        <ele>99</ele>
        <time>2026-05-31T08:15:56.000Z</time>
      </trkpt>
      <trkpt lat="43.75267" lon="4.13922">
        <ele>99.1</ele>
        <time>2026-05-31T08:15:57.000Z</time>
      </trkpt>
      <trkpt lat="43.75266" lon="4.13922">
        <ele>99</ele>
        <time>2026-05-31T08:15:58.000Z</time>
      </trkpt>
      <trkpt lat="43.75264" lon="4.13921">
        <ele>99.2</ele>
        <time>2026-05-31T08:15:59.000Z</time>
      </trkpt>
      <trkpt lat="43.75263" lon="4.13922">
        <ele>99.2</ele>
        <time>2026-05-31T08:16:00.000Z</time>
      </trkpt>
      <trkpt lat="43.75262" lon="4.13922">
        <ele>99.2</ele>
        <time>2026-05-31T08:16:01.000Z</time>
      </trkpt>
      <trkpt lat="43.75262" lon="4.13922">
        <ele>98.9</ele>
        <time>2026-05-31T08:16:02.000Z</time>
      </trkpt>
      <trkpt lat="43.75261" lon="4.13922">
        <ele>99</ele>
        <time>2026-05-31T08:16:03.000Z</time>
      </trkpt>
      <trkpt lat="43.7526" lon="4.13922">
        <ele>99.1</ele>
        <time>2026-05-31T08:16:04.000Z</time>
      </trkpt>
      <trkpt lat="43.75259" lon="4.13923">
        <ele>99</ele>
        <time>2026-05-31T08:16:05.000Z</time>
      </trkpt>
      <trkpt lat="43.75259" lon="4.13924">
        <ele>99</ele>
        <time>2026-05-31T08:16:06.000Z</time>
      </trkpt>
      <trkpt lat="43.75258" lon="4.13924">
        <ele>99.2</ele>
        <time>2026-05-31T08:16:07.000Z</time>
      </trkpt>
      <trkpt lat="43.75257" lon="4.13924">
        <ele>99.3</ele>
        <time>2026-05-31T08:16:08.000Z</time>
      </trkpt>
      <trkpt lat="43.75256" lon="4.13924">
        <ele>99.1</ele>
        <time>2026-05-31T08:16:09.000Z</time>
      </trkpt>
      <trkpt lat="43.75255" lon="4.13923">
        <ele>99.1</ele>
        <time>2026-05-31T08:16:10.000Z</time>
      </trkpt>
      <trkpt lat="43.75255" lon="4.13923">
        <ele>99.1</ele>
        <time>2026-05-31T08:16:11.000Z</time>
      </trkpt>
      <trkpt lat="43.75254" lon="4.13924">
        <ele>98.8</ele>
        <time>2026-05-31T08:16:12.000Z</time>
      </trkpt>
      <trkpt lat="43.75253" lon="4.13925">
        <ele>98.5</ele>
        <time>2026-05-31T08:16:13.000Z</time>
      </trkpt>
      <trkpt lat="43.75252" lon="4.13926">
        <ele>98.4</ele>
        <time>2026-05-31T08:16:14.000Z</time>
      </trkpt>
      <trkpt lat="43.75251" lon="4.13926">
        <ele>98.5</ele>
        <time>2026-05-31T08:16:15.000Z</time>
      </trkpt>
      <trkpt lat="43.75251" lon="4.13926">
        <ele>98.4</ele>
        <time>2026-05-31T08:16:16.000Z</time>
      </trkpt>
      <trkpt lat="43.7525" lon="4.13926">
        <ele>98.3</ele>
        <time>2026-05-31T08:16:17.000Z</time>
      </trkpt>
      <trkpt lat="43.7525" lon="4.13927">
        <ele>98.1</ele>
        <time>2026-05-31T08:16:18.000Z</time>
      </trkpt>
      <trkpt lat="43.75249" lon="4.13927">
        <ele>98.2</ele>
        <time>2026-05-31T08:16:19.000Z</time>
      </trkpt>
      <trkpt lat="43.75248" lon="4.13927">
        <ele>98.4</ele>
        <time>2026-05-31T08:16:20.000Z</time>
      </trkpt>
      <trkpt lat="43.75247" lon="4.13927">
        <ele>98.4</ele>
        <time>2026-05-31T08:16:21.000Z</time>
      </trkpt>
      <trkpt lat="43.75246" lon="4.13927">
        <ele>98.5</ele>
        <time>2026-05-31T08:16:22.000Z</time>
      </trkpt>
      <trkpt lat="43.75246" lon="4.13928">
        <ele>98.3</ele>
        <time>2026-05-31T08:16:23.000Z</time>
      </trkpt>
      <trkpt lat="43.75245" lon="4.13928">
        <ele>98.4</ele>
        <time>2026-05-31T08:16:24.000Z</time>
      </trkpt>
      <trkpt lat="43.75244" lon="4.13928">
        <ele>98.3</ele>
        <time>2026-05-31T08:16:25.000Z</time>
      </trkpt>
      <trkpt lat="43.75243" lon="4.13928">
        <ele>98.5</ele>
        <time>2026-05-31T08:16:26.000Z</time>
      </trkpt>
      <trkpt lat="43.75243" lon="4.13928">
        <ele>98.2</ele>
        <time>2026-05-31T08:16:27.000Z</time>
      </trkpt>
      <trkpt lat="43.75242" lon="4.13929">
        <ele>98.4</ele>
        <time>2026-05-31T08:16:28.000Z</time>
      </trkpt>
      <trkpt lat="43.75241" lon="4.13929">
        <ele>98.1</ele>
        <time>2026-05-31T08:16:29.000Z</time>
      </trkpt>
      <trkpt lat="43.7524" lon="4.1393">
        <ele>98</ele>
        <time>2026-05-31T08:16:30.000Z</time>
      </trkpt>
      <trkpt lat="43.75239" lon="4.1393">
        <ele>98</ele>
        <time>2026-05-31T08:16:31.000Z</time>
      </trkpt>
      <trkpt lat="43.75238" lon="4.13931">
        <ele>98</ele>
        <time>2026-05-31T08:16:32.000Z</time>
      </trkpt>
      <trkpt lat="43.75238" lon="4.13931">
        <ele>97.9</ele>
        <time>2026-05-31T08:16:33.000Z</time>
      </trkpt>
      <trkpt lat="43.75237" lon="4.13931">
        <ele>97.6</ele>
        <time>2026-05-31T08:16:34.000Z</time>
      </trkpt>
      <trkpt lat="43.75237" lon="4.13931">
        <ele>97.3</ele>
        <time>2026-05-31T08:16:35.000Z</time>
      </trkpt>
      <trkpt lat="43.75236" lon="4.13931">
        <ele>97</ele>
        <time>2026-05-31T08:16:36.000Z</time>
      </trkpt>
      <trkpt lat="43.75235" lon="4.13931">
        <ele>96.8</ele>
        <time>2026-05-31T08:16:37.000Z</time>
      </trkpt>
      <trkpt lat="43.75235" lon="4.13932">
        <ele>96.3</ele>
        <time>2026-05-31T08:16:38.000Z</time>
      </trkpt>
      <trkpt lat="43.75233" lon="4.13932">
        <ele>96.2</ele>
        <time>2026-05-31T08:16:39.000Z</time>
      </trkpt>
      <trkpt lat="43.75232" lon="4.13933">
        <ele>96.2</ele>
        <time>2026-05-31T08:16:40.000Z</time>
      </trkpt>
      <trkpt lat="43.75231" lon="4.13934">
        <ele>96.5</ele>
        <time>2026-05-31T08:16:41.000Z</time>
      </trkpt>
      <trkpt lat="43.7523" lon="4.13934">
        <ele>96.7</ele>
        <time>2026-05-31T08:16:42.000Z</time>
      </trkpt>
      <trkpt lat="43.75228" lon="4.13934">
        <ele>97.1</ele>
        <time>2026-05-31T08:16:43.000Z</time>
      </trkpt>
      <trkpt lat="43.75228" lon="4.13935">
        <ele>97.5</ele>
        <time>2026-05-31T08:16:44.000Z</time>
      </trkpt>
      <trkpt lat="43.75227" lon="4.13935">
        <ele>97.6</ele>
        <time>2026-05-31T08:16:45.000Z</time>
      </trkpt>
      <trkpt lat="43.75226" lon="4.13936">
        <ele>97.6</ele>
        <time>2026-05-31T08:16:46.000Z</time>
      </trkpt>
      <trkpt lat="43.75225" lon="4.13936">
        <ele>97.4</ele>
        <time>2026-05-31T08:16:47.000Z</time>
      </trkpt>
      <trkpt lat="43.75224" lon="4.13937">
        <ele>97.7</ele>
        <time>2026-05-31T08:16:48.000Z</time>
      </trkpt>
      <trkpt lat="43.75223" lon="4.13937">
        <ele>97.8</ele>
        <time>2026-05-31T08:16:49.000Z</time>
      </trkpt>
      <trkpt lat="43.75222" lon="4.13937">
        <ele>98.4</ele>
        <time>2026-05-31T08:16:50.000Z</time>
      </trkpt>
      <trkpt lat="43.75221" lon="4.13937">
        <ele>98.4</ele>
        <time>2026-05-31T08:16:51.000Z</time>
      </trkpt>
      <trkpt lat="43.7522" lon="4.13938">
        <ele>98.4</ele>
        <time>2026-05-31T08:16:52.000Z</time>
      </trkpt>
      <trkpt lat="43.75219" lon="4.13938">
        <ele>98.4</ele>
        <time>2026-05-31T08:16:53.000Z</time>
      </trkpt>
      <trkpt lat="43.75218" lon="4.13939">
        <ele>98.1</ele>
        <time>2026-05-31T08:16:54.000Z</time>
      </trkpt>
      <trkpt lat="43.75217" lon="4.13939">
        <ele>97.7</ele>
        <time>2026-05-31T08:16:55.000Z</time>
      </trkpt>
      <trkpt lat="43.75216" lon="4.1394">
        <ele>97.6</ele>
        <time>2026-05-31T08:16:56.000Z</time>
      </trkpt>
      <trkpt lat="43.75215" lon="4.1394">
        <ele>97.5</ele>
        <time>2026-05-31T08:16:57.000Z</time>
      </trkpt>
      <trkpt lat="43.75215" lon="4.1394">
        <ele>97.2</ele>
        <time>2026-05-31T08:16:58.000Z</time>
      </trkpt>
      <trkpt lat="43.75214" lon="4.13941">
        <ele>97.2</ele>
        <time>2026-05-31T08:16:59.000Z</time>
      </trkpt>
      <trkpt lat="43.75213" lon="4.13942">
        <ele>97.1</ele>
        <time>2026-05-31T08:17:00.000Z</time>
      </trkpt>
      <trkpt lat="43.75212" lon="4.13942">
        <ele>97.3</ele>
        <time>2026-05-31T08:17:01.000Z</time>
      </trkpt>
      <trkpt lat="43.75211" lon="4.13942">
        <ele>97</ele>
        <time>2026-05-31T08:17:02.000Z</time>
      </trkpt>
      <trkpt lat="43.7521" lon="4.13942">
        <ele>96.9</ele>
        <time>2026-05-31T08:17:03.000Z</time>
      </trkpt>
      <trkpt lat="43.7521" lon="4.13943">
        <ele>96.8</ele>
        <time>2026-05-31T08:17:04.000Z</time>
      </trkpt>
      <trkpt lat="43.75209" lon="4.13944">
        <ele>96.5</ele>
        <time>2026-05-31T08:17:05.000Z</time>
      </trkpt>
      <trkpt lat="43.75208" lon="4.13944">
        <ele>96.2</ele>
        <time>2026-05-31T08:17:06.000Z</time>
      </trkpt>
      <trkpt lat="43.75208" lon="4.13945">
        <ele>96</ele>
        <time>2026-05-31T08:17:07.000Z</time>
      </trkpt>
      <trkpt lat="43.75208" lon="4.13946">
        <ele>96.1</ele>
        <time>2026-05-31T08:17:08.000Z</time>
      </trkpt>
      <trkpt lat="43.75207" lon="4.13946">
        <ele>96</ele>
        <time>2026-05-31T08:17:09.000Z</time>
      </trkpt>
      <trkpt lat="43.75207" lon="4.13946">
        <ele>95.8</ele>
        <time>2026-05-31T08:17:10.000Z</time>
      </trkpt>
      <trkpt lat="43.75206" lon="4.13946">
        <ele>95.7</ele>
        <time>2026-05-31T08:17:11.000Z</time>
      </trkpt>
      <trkpt lat="43.75206" lon="4.13946">
        <ele>95.5</ele>
        <time>2026-05-31T08:17:12.000Z</time>
      </trkpt>
      <trkpt lat="43.75205" lon="4.13946">
        <ele>95.1</ele>
        <time>2026-05-31T08:17:13.000Z</time>
      </trkpt>
      <trkpt lat="43.75204" lon="4.13947">
        <ele>94.9</ele>
        <time>2026-05-31T08:17:14.000Z</time>
      </trkpt>
      <trkpt lat="43.75203" lon="4.13947">
        <ele>94.6</ele>
        <time>2026-05-31T08:17:15.000Z</time>
      </trkpt>
      <trkpt lat="43.75202" lon="4.13948">
        <ele>94.5</ele>
        <time>2026-05-31T08:17:16.000Z</time>
      </trkpt>
      <trkpt lat="43.75201" lon="4.13948">
        <ele>94.3</ele>
        <time>2026-05-31T08:17:17.000Z</time>
      </trkpt>
      <trkpt lat="43.752" lon="4.13948">
        <ele>94.2</ele>
        <time>2026-05-31T08:17:18.000Z</time>
      </trkpt>
      <trkpt lat="43.75199" lon="4.13948">
        <ele>94.4</ele>
        <time>2026-05-31T08:17:19.000Z</time>
      </trkpt>
      <trkpt lat="43.75198" lon="4.13948">
        <ele>94.4</ele>
        <time>2026-05-31T08:17:20.000Z</time>
      </trkpt>
      <trkpt lat="43.75196" lon="4.13948">
        <ele>94.3</ele>
        <time>2026-05-31T08:17:21.000Z</time>
      </trkpt>
      <trkpt lat="43.75195" lon="4.13948">
        <ele>94.3</ele>
        <time>2026-05-31T08:17:22.000Z</time>
      </trkpt>
      <trkpt lat="43.75193" lon="4.13949">
        <ele>94.6</ele>
        <time>2026-05-31T08:17:23.000Z</time>
      </trkpt>
      <trkpt lat="43.75191" lon="4.13949">
        <ele>94.7</ele>
        <time>2026-05-31T08:17:24.000Z</time>
      </trkpt>
      <trkpt lat="43.7519" lon="4.1395">
        <ele>94.4</ele>
        <time>2026-05-31T08:17:25.000Z</time>
      </trkpt>
      <trkpt lat="43.7519" lon="4.13951">
        <ele>93.8</ele>
        <time>2026-05-31T08:17:26.000Z</time>
      </trkpt>
      <trkpt lat="43.75189" lon="4.13952">
        <ele>93.4</ele>
        <time>2026-05-31T08:17:27.000Z</time>
      </trkpt>
      <trkpt lat="43.75189" lon="4.13953">
        <ele>93.1</ele>
        <time>2026-05-31T08:17:28.000Z</time>
      </trkpt>
      <trkpt lat="43.75188" lon="4.13954">
        <ele>92.8</ele>
        <time>2026-05-31T08:17:29.000Z</time>
      </trkpt>
      <trkpt lat="43.75187" lon="4.13954">
        <ele>92.6</ele>
        <time>2026-05-31T08:17:30.000Z</time>
      </trkpt>
      <trkpt lat="43.75186" lon="4.13954">
        <ele>92.7</ele>
        <time>2026-05-31T08:17:31.000Z</time>
      </trkpt>
      <trkpt lat="43.75185" lon="4.13955">
        <ele>92.5</ele>
        <time>2026-05-31T08:17:32.000Z</time>
      </trkpt>
      <trkpt lat="43.75185" lon="4.13956">
        <ele>92.2</ele>
        <time>2026-05-31T08:17:33.000Z</time>
      </trkpt>
      <trkpt lat="43.75184" lon="4.13956">
        <ele>92.1</ele>
        <time>2026-05-31T08:17:34.000Z</time>
      </trkpt>
      <trkpt lat="43.75182" lon="4.13956">
        <ele>92.2</ele>
        <time>2026-05-31T08:17:35.000Z</time>
      </trkpt>
      <trkpt lat="43.75181" lon="4.13956">
        <ele>92</ele>
        <time>2026-05-31T08:17:36.000Z</time>
      </trkpt>
      <trkpt lat="43.7518" lon="4.13955">
        <ele>92</ele>
        <time>2026-05-31T08:17:37.000Z</time>
      </trkpt>
      <trkpt lat="43.75179" lon="4.13955">
        <ele>91.6</ele>
        <time>2026-05-31T08:17:38.000Z</time>
      </trkpt>
      <trkpt lat="43.75178" lon="4.13955">
        <ele>91.4</ele>
        <time>2026-05-31T08:17:39.000Z</time>
      </trkpt>
      <trkpt lat="43.75177" lon="4.13955">
        <ele>91.1</ele>
        <time>2026-05-31T08:17:40.000Z</time>
      </trkpt>
      <trkpt lat="43.75176" lon="4.13955">
        <ele>91</ele>
        <time>2026-05-31T08:17:41.000Z</time>
      </trkpt>
      <trkpt lat="43.75175" lon="4.13954">
        <ele>91.1</ele>
        <time>2026-05-31T08:17:42.000Z</time>
      </trkpt>
      <trkpt lat="43.75173" lon="4.13954">
        <ele>91</ele>
        <time>2026-05-31T08:17:43.000Z</time>
      </trkpt>
      <trkpt lat="43.75172" lon="4.13953">
        <ele>90.9</ele>
        <time>2026-05-31T08:17:44.000Z</time>
      </trkpt>
      <trkpt lat="43.75171" lon="4.13953">
        <ele>91.1</ele>
        <time>2026-05-31T08:17:45.000Z</time>
      </trkpt>
      <trkpt lat="43.75171" lon="4.13953">
        <ele>91.3</ele>
        <time>2026-05-31T08:17:46.000Z</time>
      </trkpt>
      <trkpt lat="43.75169" lon="4.13953">
        <ele>91.5</ele>
        <time>2026-05-31T08:17:47.000Z</time>
      </trkpt>
      <trkpt lat="43.75168" lon="4.13952">
        <ele>91.3</ele>
        <time>2026-05-31T08:17:48.000Z</time>
      </trkpt>
      <trkpt lat="43.75167" lon="4.13951">
        <ele>91.2</ele>
        <time>2026-05-31T08:17:49.000Z</time>
      </trkpt>
      <trkpt lat="43.75166" lon="4.13951">
        <ele>91</ele>
        <time>2026-05-31T08:17:50.000Z</time>
      </trkpt>
      <trkpt lat="43.75165" lon="4.1395">
        <ele>90.9</ele>
        <time>2026-05-31T08:17:51.000Z</time>
      </trkpt>
      <trkpt lat="43.75163" lon="4.1395">
        <ele>90.7</ele>
        <time>2026-05-31T08:17:52.000Z</time>
      </trkpt>
      <trkpt lat="43.75163" lon="4.1395">
        <ele>90.4</ele>
        <time>2026-05-31T08:17:53.000Z</time>
      </trkpt>
      <trkpt lat="43.75161" lon="4.13948">
        <ele>90.5</ele>
        <time>2026-05-31T08:17:54.000Z</time>
      </trkpt>
      <trkpt lat="43.7516" lon="4.13948">
        <ele>90.5</ele>
        <time>2026-05-31T08:17:55.000Z</time>
      </trkpt>
      <trkpt lat="43.75158" lon="4.13947">
        <ele>90.5</ele>
        <time>2026-05-31T08:17:56.000Z</time>
      </trkpt>
      <trkpt lat="43.75156" lon="4.13947">
        <ele>90.7</ele>
        <time>2026-05-31T08:17:57.000Z</time>
      </trkpt>
      <trkpt lat="43.75155" lon="4.13946">
        <ele>90.8</ele>
        <time>2026-05-31T08:17:58.000Z</time>
      </trkpt>
      <trkpt lat="43.75154" lon="4.13946">
        <ele>91</ele>
        <time>2026-05-31T08:17:59.000Z</time>
      </trkpt>
      <trkpt lat="43.75153" lon="4.13945">
        <ele>91.3</ele>
        <time>2026-05-31T08:18:00.000Z</time>
      </trkpt>
      <trkpt lat="43.75152" lon="4.13945">
        <ele>91.6</ele>
        <time>2026-05-31T08:18:01.000Z</time>
      </trkpt>
      <trkpt lat="43.75151" lon="4.13945">
        <ele>91.4</ele>
        <time>2026-05-31T08:18:02.000Z</time>
      </trkpt>
      <trkpt lat="43.7515" lon="4.13945">
        <ele>91.2</ele>
        <time>2026-05-31T08:18:03.000Z</time>
      </trkpt>
      <trkpt lat="43.75148" lon="4.13946">
        <ele>91.1</ele>
        <time>2026-05-31T08:18:04.000Z</time>
      </trkpt>
      <trkpt lat="43.75148" lon="4.13945">
        <ele>91.1</ele>
        <time>2026-05-31T08:18:05.000Z</time>
      </trkpt>
      <trkpt lat="43.75147" lon="4.13945">
        <ele>90.9</ele>
        <time>2026-05-31T08:18:06.000Z</time>
      </trkpt>
      <trkpt lat="43.75147" lon="4.13945">
        <ele>91</ele>
        <time>2026-05-31T08:18:07.000Z</time>
      </trkpt>
      <trkpt lat="43.75146" lon="4.13946">
        <ele>91.1</ele>
        <time>2026-05-31T08:18:08.000Z</time>
      </trkpt>
      <trkpt lat="43.75144" lon="4.13946">
        <ele>91.2</ele>
        <time>2026-05-31T08:18:09.000Z</time>
      </trkpt>
      <trkpt lat="43.75143" lon="4.13947">
        <ele>91.3</ele>
        <time>2026-05-31T08:18:10.000Z</time>
      </trkpt>
      <trkpt lat="43.75142" lon="4.13947">
        <ele>91.2</ele>
        <time>2026-05-31T08:18:11.000Z</time>
      </trkpt>
      <trkpt lat="43.75141" lon="4.13948">
        <ele>90.3</ele>
        <time>2026-05-31T08:18:12.000Z</time>
      </trkpt>
      <trkpt lat="43.75141" lon="4.13948">
        <ele>89.8</ele>
        <time>2026-05-31T08:18:13.000Z</time>
      </trkpt>
      <trkpt lat="43.75139" lon="4.13949">
        <ele>89.1</ele>
        <time>2026-05-31T08:18:14.000Z</time>
      </trkpt>
      <trkpt lat="43.75138" lon="4.13949">
        <ele>88.5</ele>
        <time>2026-05-31T08:18:15.000Z</time>
      </trkpt>
      <trkpt lat="43.75137" lon="4.1395">
        <ele>88.1</ele>
        <time>2026-05-31T08:18:16.000Z</time>
      </trkpt>
      <trkpt lat="43.75136" lon="4.13952">
        <ele>87.8</ele>
        <time>2026-05-31T08:18:17.000Z</time>
      </trkpt>
      <trkpt lat="43.75135" lon="4.13953">
        <ele>87.1</ele>
        <time>2026-05-31T08:18:18.000Z</time>
      </trkpt>
      <trkpt lat="43.75134" lon="4.13955">
        <ele>86.9</ele>
        <time>2026-05-31T08:18:19.000Z</time>
      </trkpt>
      <trkpt lat="43.75133" lon="4.13955">
        <ele>86.7</ele>
        <time>2026-05-31T08:18:20.000Z</time>
      </trkpt>
      <trkpt lat="43.75132" lon="4.13956">
        <ele>86.4</ele>
        <time>2026-05-31T08:18:21.000Z</time>
      </trkpt>
      <trkpt lat="43.75131" lon="4.13958">
        <ele>86.1</ele>
        <time>2026-05-31T08:18:22.000Z</time>
      </trkpt>
      <trkpt lat="43.7513" lon="4.13959">
        <ele>85.9</ele>
        <time>2026-05-31T08:18:23.000Z</time>
      </trkpt>
      <trkpt lat="43.75129" lon="4.1396">
        <ele>86.2</ele>
        <time>2026-05-31T08:18:24.000Z</time>
      </trkpt>
      <trkpt lat="43.75129" lon="4.13961">
        <ele>86.2</ele>
        <time>2026-05-31T08:18:25.000Z</time>
      </trkpt>
      <trkpt lat="43.75128" lon="4.13963">
        <ele>86.4</ele>
        <time>2026-05-31T08:18:26.000Z</time>
      </trkpt>
      <trkpt lat="43.75129" lon="4.13964">
        <ele>86.3</ele>
        <time>2026-05-31T08:18:27.000Z</time>
      </trkpt>
      <trkpt lat="43.75128" lon="4.13965">
        <ele>86</ele>
        <time>2026-05-31T08:18:28.000Z</time>
      </trkpt>
      <trkpt lat="43.75128" lon="4.13967">
        <ele>86</ele>
        <time>2026-05-31T08:18:29.000Z</time>
      </trkpt>
      <trkpt lat="43.75127" lon="4.13968">
        <ele>85.8</ele>
        <time>2026-05-31T08:18:30.000Z</time>
      </trkpt>
      <trkpt lat="43.75127" lon="4.13969">
        <ele>86.6</ele>
        <time>2026-05-31T08:18:31.000Z</time>
      </trkpt>
      <trkpt lat="43.75126" lon="4.1397">
        <ele>86.7</ele>
        <time>2026-05-31T08:18:32.000Z</time>
      </trkpt>
      <trkpt lat="43.75126" lon="4.13971">
        <ele>86.4</ele>
        <time>2026-05-31T08:18:33.000Z</time>
      </trkpt>
      <trkpt lat="43.75126" lon="4.13971">
        <ele>86.4</ele>
        <time>2026-05-31T08:18:34.000Z</time>
      </trkpt>
      <trkpt lat="43.75125" lon="4.13971">
        <ele>86.4</ele>
        <time>2026-05-31T08:18:35.000Z</time>
      </trkpt>
      <trkpt lat="43.75125" lon="4.13971">
        <ele>86.4</ele>
        <time>2026-05-31T08:18:36.000Z</time>
      </trkpt>
      <trkpt lat="43.75124" lon="4.1397">
        <ele>86.3</ele>
        <time>2026-05-31T08:18:37.000Z</time>
      </trkpt>
      <trkpt lat="43.75123" lon="4.1397">
        <ele>86.5</ele>
        <time>2026-05-31T08:18:38.000Z</time>
      </trkpt>
      <trkpt lat="43.75122" lon="4.13969">
        <ele>86.6</ele>
        <time>2026-05-31T08:18:39.000Z</time>
      </trkpt>
      <trkpt lat="43.75122" lon="4.13969">
        <ele>86.9</ele>
        <time>2026-05-31T08:18:40.000Z</time>
      </trkpt>
      <trkpt lat="43.75121" lon="4.13969">
        <ele>86.8</ele>
        <time>2026-05-31T08:18:41.000Z</time>
      </trkpt>
      <trkpt lat="43.75121" lon="4.13969">
        <ele>86.7</ele>
        <time>2026-05-31T08:18:42.000Z</time>
      </trkpt>
      <trkpt lat="43.75121" lon="4.13968">
        <ele>86.7</ele>
        <time>2026-05-31T08:18:43.000Z</time>
      </trkpt>
      <trkpt lat="43.75121" lon="4.13968">
        <ele>86.2</ele>
        <time>2026-05-31T08:18:44.000Z</time>
      </trkpt>
      <trkpt lat="43.75121" lon="4.13968">
        <ele>85.9</ele>
        <time>2026-05-31T08:18:45.000Z</time>
      </trkpt>
      <trkpt lat="43.75121" lon="4.13968">
        <ele>85.5</ele>
        <time>2026-05-31T08:18:46.000Z</time>
      </trkpt>
      <trkpt lat="43.75121" lon="4.13968">
        <ele>85.6</ele>
        <time>2026-05-31T08:18:47.000Z</time>
      </trkpt>
      <trkpt lat="43.75121" lon="4.13968">
        <ele>85.5</ele>
        <time>2026-05-31T08:18:48.000Z</time>
      </trkpt>
      <trkpt lat="43.7512" lon="4.13968">
        <ele>85.3</ele>
        <time>2026-05-31T08:18:49.000Z</time>
      </trkpt>
      <trkpt lat="43.7512" lon="4.13968">
        <ele>85.3</ele>
        <time>2026-05-31T08:18:50.000Z</time>
      </trkpt>
      <trkpt lat="43.7512" lon="4.13967">
        <ele>85.3</ele>
        <time>2026-05-31T08:18:51.000Z</time>
      </trkpt>
      <trkpt lat="43.7512" lon="4.13967">
        <ele>85.7</ele>
        <time>2026-05-31T08:18:52.000Z</time>
      </trkpt>
      <trkpt lat="43.7512" lon="4.13967">
        <ele>85.4</ele>
        <time>2026-05-31T08:18:53.000Z</time>
      </trkpt>
      <trkpt lat="43.7512" lon="4.13967">
        <ele>85.2</ele>
        <time>2026-05-31T08:18:54.000Z</time>
      </trkpt>
      <trkpt lat="43.7512" lon="4.13967">
        <ele>85</ele>
        <time>2026-05-31T08:18:55.000Z</time>
      </trkpt>
      <trkpt lat="43.7512" lon="4.13967">
        <ele>84.7</ele>
        <time>2026-05-31T08:18:56.000Z</time>
      </trkpt>
      <trkpt lat="43.7512" lon="4.13966">
        <ele>84.4</ele>
        <time>2026-05-31T08:18:57.000Z</time>
      </trkpt>
      <trkpt lat="43.75119" lon="4.13966">
        <ele>84</ele>
        <time>2026-05-31T08:18:58.000Z</time>
      </trkpt>
      <trkpt lat="43.75119" lon="4.13966">
        <ele>83.8</ele>
        <time>2026-05-31T08:18:59.000Z</time>
      </trkpt>
      <trkpt lat="43.75119" lon="4.13966">
        <ele>83.5</ele>
        <time>2026-05-31T08:19:00.000Z</time>
      </trkpt>
      <trkpt lat="43.75118" lon="4.13963">
        <ele>83.3</ele>
        <time>2026-05-31T08:19:01.000Z</time>
      </trkpt>
      <trkpt lat="43.75116" lon="4.13961">
        <ele>82.8</ele>
        <time>2026-05-31T08:19:02.000Z</time>
      </trkpt>
      <trkpt lat="43.75114" lon="4.13959">
        <ele>82.7</ele>
        <time>2026-05-31T08:19:03.000Z</time>
      </trkpt>
      <trkpt lat="43.75113" lon="4.13958">
        <ele>82.3</ele>
        <time>2026-05-31T08:19:04.000Z</time>
      </trkpt>
      <trkpt lat="43.75111" lon="4.13957">
        <ele>82.1</ele>
        <time>2026-05-31T08:19:05.000Z</time>
      </trkpt>
      <trkpt lat="43.7511" lon="4.13957">
        <ele>81.9</ele>
        <time>2026-05-31T08:19:06.000Z</time>
      </trkpt>
      <trkpt lat="43.75108" lon="4.13956">
        <ele>81.6</ele>
        <time>2026-05-31T08:19:07.000Z</time>
      </trkpt>
      <trkpt lat="43.75106" lon="4.13955">
        <ele>81.2</ele>
        <time>2026-05-31T08:19:08.000Z</time>
      </trkpt>
      <trkpt lat="43.75104" lon="4.13954">
        <ele>80.8</ele>
        <time>2026-05-31T08:19:09.000Z</time>
      </trkpt>
      <trkpt lat="43.75102" lon="4.13954">
        <ele>80.7</ele>
        <time>2026-05-31T08:19:10.000Z</time>
      </trkpt>
      <trkpt lat="43.751" lon="4.13954">
        <ele>80.7</ele>
        <time>2026-05-31T08:19:11.000Z</time>
      </trkpt>
      <trkpt lat="43.75098" lon="4.13953">
        <ele>80.7</ele>
        <time>2026-05-31T08:19:12.000Z</time>
      </trkpt>
      <trkpt lat="43.75097" lon="4.13952">
        <ele>80.8</ele>
        <time>2026-05-31T08:19:13.000Z</time>
      </trkpt>
      <trkpt lat="43.75095" lon="4.13952">
        <ele>80.8</ele>
        <time>2026-05-31T08:19:14.000Z</time>
      </trkpt>
      <trkpt lat="43.75094" lon="4.13951">
        <ele>80.5</ele>
        <time>2026-05-31T08:19:15.000Z</time>
      </trkpt>
      <trkpt lat="43.75092" lon="4.13951">
        <ele>80.5</ele>
        <time>2026-05-31T08:19:16.000Z</time>
      </trkpt>
      <trkpt lat="43.75091" lon="4.13951">
        <ele>80.6</ele>
        <time>2026-05-31T08:19:17.000Z</time>
      </trkpt>
      <trkpt lat="43.7509" lon="4.1395">
        <ele>80.9</ele>
        <time>2026-05-31T08:19:18.000Z</time>
      </trkpt>
      <trkpt lat="43.75089" lon="4.13949">
        <ele>80.9</ele>
        <time>2026-05-31T08:19:19.000Z</time>
      </trkpt>
      <trkpt lat="43.75088" lon="4.13948">
        <ele>80.9</ele>
        <time>2026-05-31T08:19:20.000Z</time>
      </trkpt>
      <trkpt lat="43.75086" lon="4.13947">
        <ele>80.8</ele>
        <time>2026-05-31T08:19:21.000Z</time>
      </trkpt>
      <trkpt lat="43.75085" lon="4.13947">
        <ele>81.2</ele>
        <time>2026-05-31T08:19:22.000Z</time>
      </trkpt>
      <trkpt lat="43.75084" lon="4.13946">
        <ele>81.2</ele>
        <time>2026-05-31T08:19:23.000Z</time>
      </trkpt>
      <trkpt lat="43.75083" lon="4.13945">
        <ele>81.8</ele>
        <time>2026-05-31T08:19:24.000Z</time>
      </trkpt>
      <trkpt lat="43.75083" lon="4.13945">
        <ele>81.8</ele>
        <time>2026-05-31T08:19:25.000Z</time>
      </trkpt>
      <trkpt lat="43.75081" lon="4.13945">
        <ele>82.2</ele>
        <time>2026-05-31T08:19:26.000Z</time>
      </trkpt>
      <trkpt lat="43.7508" lon="4.13946">
        <ele>82.7</ele>
        <time>2026-05-31T08:19:27.000Z</time>
      </trkpt>
      <trkpt lat="43.75079" lon="4.13946">
        <ele>83.3</ele>
        <time>2026-05-31T08:19:28.000Z</time>
      </trkpt>
      <trkpt lat="43.75078" lon="4.13946">
        <ele>83.6</ele>
        <time>2026-05-31T08:19:29.000Z</time>
      </trkpt>
      <trkpt lat="43.75077" lon="4.13946">
        <ele>83.5</ele>
        <time>2026-05-31T08:19:30.000Z</time>
      </trkpt>
      <trkpt lat="43.75076" lon="4.13947">
        <ele>83.7</ele>
        <time>2026-05-31T08:19:31.000Z</time>
      </trkpt>
      <trkpt lat="43.75074" lon="4.13947">
        <ele>83.5</ele>
        <time>2026-05-31T08:19:32.000Z</time>
      </trkpt>
      <trkpt lat="43.75073" lon="4.13947">
        <ele>84.1</ele>
        <time>2026-05-31T08:19:33.000Z</time>
      </trkpt>
      <trkpt lat="43.75072" lon="4.13948">
        <ele>83.9</ele>
        <time>2026-05-31T08:19:34.000Z</time>
      </trkpt>
      <trkpt lat="43.75071" lon="4.13948">
        <ele>83.9</ele>
        <time>2026-05-31T08:19:35.000Z</time>
      </trkpt>
      <trkpt lat="43.7507" lon="4.13949">
        <ele>83.9</ele>
        <time>2026-05-31T08:19:36.000Z</time>
      </trkpt>
      <trkpt lat="43.7507" lon="4.13949">
        <ele>84</ele>
        <time>2026-05-31T08:19:37.000Z</time>
      </trkpt>
      <trkpt lat="43.75068" lon="4.13949">
        <ele>83.9</ele>
        <time>2026-05-31T08:19:38.000Z</time>
      </trkpt>
      <trkpt lat="43.75067" lon="4.13949">
        <ele>83.6</ele>
        <time>2026-05-31T08:19:39.000Z</time>
      </trkpt>
      <trkpt lat="43.75066" lon="4.1395">
        <ele>83.1</ele>
        <time>2026-05-31T08:19:40.000Z</time>
      </trkpt>
      <trkpt lat="43.75064" lon="4.1395">
        <ele>83</ele>
        <time>2026-05-31T08:19:41.000Z</time>
      </trkpt>
      <trkpt lat="43.75063" lon="4.13951">
        <ele>83.2</ele>
        <time>2026-05-31T08:19:42.000Z</time>
      </trkpt>
      <trkpt lat="43.75062" lon="4.13952">
        <ele>82.8</ele>
        <time>2026-05-31T08:19:43.000Z</time>
      </trkpt>
      <trkpt lat="43.7506" lon="4.13953">
        <ele>82.4</ele>
        <time>2026-05-31T08:19:44.000Z</time>
      </trkpt>
      <trkpt lat="43.75058" lon="4.13954">
        <ele>82.1</ele>
        <time>2026-05-31T08:19:45.000Z</time>
      </trkpt>
      <trkpt lat="43.75057" lon="4.13955">
        <ele>81.8</ele>
        <time>2026-05-31T08:19:46.000Z</time>
      </trkpt>
      <trkpt lat="43.75056" lon="4.13955">
        <ele>81.7</ele>
        <time>2026-05-31T08:19:47.000Z</time>
      </trkpt>
      <trkpt lat="43.75055" lon="4.13956">
        <ele>81.7</ele>
        <time>2026-05-31T08:19:48.000Z</time>
      </trkpt>
      <trkpt lat="43.75054" lon="4.13957">
        <ele>81.6</ele>
        <time>2026-05-31T08:19:49.000Z</time>
      </trkpt>
      <trkpt lat="43.75053" lon="4.13958">
        <ele>80.9</ele>
        <time>2026-05-31T08:19:50.000Z</time>
      </trkpt>
      <trkpt lat="43.75053" lon="4.13959">
        <ele>81</ele>
        <time>2026-05-31T08:19:51.000Z</time>
      </trkpt>
      <trkpt lat="43.75052" lon="4.13959">
        <ele>81.5</ele>
        <time>2026-05-31T08:19:52.000Z</time>
      </trkpt>
      <trkpt lat="43.75051" lon="4.1396">
        <ele>81.6</ele>
        <time>2026-05-31T08:19:53.000Z</time>
      </trkpt>
      <trkpt lat="43.7505" lon="4.13961">
        <ele>81.6</ele>
        <time>2026-05-31T08:19:54.000Z</time>
      </trkpt>
      <trkpt lat="43.75049" lon="4.13962">
        <ele>81.5</ele>
        <time>2026-05-31T08:19:55.000Z</time>
      </trkpt>
      <trkpt lat="43.75048" lon="4.13963">
        <ele>81.8</ele>
        <time>2026-05-31T08:19:56.000Z</time>
      </trkpt>
      <trkpt lat="43.75048" lon="4.13965">
        <ele>82.2</ele>
        <time>2026-05-31T08:19:57.000Z</time>
      </trkpt>
      <trkpt lat="43.75047" lon="4.13965">
        <ele>82</ele>
        <time>2026-05-31T08:19:58.000Z</time>
      </trkpt>
      <trkpt lat="43.75047" lon="4.13966">
        <ele>82</ele>
        <time>2026-05-31T08:19:59.000Z</time>
      </trkpt>
      <trkpt lat="43.75046" lon="4.13967">
        <ele>81.8</ele>
        <time>2026-05-31T08:20:00.000Z</time>
      </trkpt>
      <trkpt lat="43.75045" lon="4.13968">
        <ele>81.7</ele>
        <time>2026-05-31T08:20:01.000Z</time>
      </trkpt>
      <trkpt lat="43.75044" lon="4.13969">
        <ele>81.6</ele>
        <time>2026-05-31T08:20:02.000Z</time>
      </trkpt>
      <trkpt lat="43.75043" lon="4.1397">
        <ele>81.7</ele>
        <time>2026-05-31T08:20:03.000Z</time>
      </trkpt>
      <trkpt lat="43.75042" lon="4.1397">
        <ele>81.4</ele>
        <time>2026-05-31T08:20:04.000Z</time>
      </trkpt>
      <trkpt lat="43.75041" lon="4.13971">
        <ele>81</ele>
        <time>2026-05-31T08:20:05.000Z</time>
      </trkpt>
      <trkpt lat="43.7504" lon="4.13971">
        <ele>81</ele>
        <time>2026-05-31T08:20:06.000Z</time>
      </trkpt>
      <trkpt lat="43.75039" lon="4.13971">
        <ele>81.2</ele>
        <time>2026-05-31T08:20:07.000Z</time>
      </trkpt>
      <trkpt lat="43.75038" lon="4.13973">
        <ele>81</ele>
        <time>2026-05-31T08:20:08.000Z</time>
      </trkpt>
      <trkpt lat="43.75036" lon="4.13973">
        <ele>81.2</ele>
        <time>2026-05-31T08:20:09.000Z</time>
      </trkpt>
      <trkpt lat="43.75034" lon="4.13973">
        <ele>81.2</ele>
        <time>2026-05-31T08:20:10.000Z</time>
      </trkpt>
      <trkpt lat="43.75032" lon="4.13973">
        <ele>81.4</ele>
        <time>2026-05-31T08:20:11.000Z</time>
      </trkpt>
      <trkpt lat="43.75031" lon="4.13975">
        <ele>81.5</ele>
        <time>2026-05-31T08:20:12.000Z</time>
      </trkpt>
      <trkpt lat="43.75029" lon="4.13976">
        <ele>81.3</ele>
        <time>2026-05-31T08:20:13.000Z</time>
      </trkpt>
      <trkpt lat="43.75028" lon="4.13976">
        <ele>81.1</ele>
        <time>2026-05-31T08:20:14.000Z</time>
      </trkpt>
      <trkpt lat="43.75026" lon="4.13975">
        <ele>80.9</ele>
        <time>2026-05-31T08:20:15.000Z</time>
      </trkpt>
      <trkpt lat="43.75026" lon="4.13975">
        <ele>81.3</ele>
        <time>2026-05-31T08:20:16.000Z</time>
      </trkpt>
      <trkpt lat="43.75025" lon="4.13975">
        <ele>81.5</ele>
        <time>2026-05-31T08:20:17.000Z</time>
      </trkpt>
      <trkpt lat="43.75024" lon="4.13976">
        <ele>81.1</ele>
        <time>2026-05-31T08:20:18.000Z</time>
      </trkpt>
      <trkpt lat="43.75023" lon="4.13977">
        <ele>80.8</ele>
        <time>2026-05-31T08:20:19.000Z</time>
      </trkpt>
      <trkpt lat="43.75022" lon="4.13979">
        <ele>80.4</ele>
        <time>2026-05-31T08:20:20.000Z</time>
      </trkpt>
      <trkpt lat="43.75021" lon="4.1398">
        <ele>80.2</ele>
        <time>2026-05-31T08:20:21.000Z</time>
      </trkpt>
      <trkpt lat="43.75021" lon="4.13981">
        <ele>79.9</ele>
        <time>2026-05-31T08:20:22.000Z</time>
      </trkpt>
      <trkpt lat="43.75021" lon="4.13982">
        <ele>79.8</ele>
        <time>2026-05-31T08:20:23.000Z</time>
      </trkpt>
      <trkpt lat="43.7502" lon="4.13984">
        <ele>79.7</ele>
        <time>2026-05-31T08:20:24.000Z</time>
      </trkpt>
      <trkpt lat="43.7502" lon="4.13984">
        <ele>79.5</ele>
        <time>2026-05-31T08:20:25.000Z</time>
      </trkpt>
      <trkpt lat="43.7502" lon="4.13985">
        <ele>79.1</ele>
        <time>2026-05-31T08:20:26.000Z</time>
      </trkpt>
      <trkpt lat="43.75019" lon="4.13986">
        <ele>78.8</ele>
        <time>2026-05-31T08:20:27.000Z</time>
      </trkpt>
      <trkpt lat="43.75018" lon="4.13987">
        <ele>78.4</ele>
        <time>2026-05-31T08:20:28.000Z</time>
      </trkpt>
      <trkpt lat="43.75018" lon="4.13987">
        <ele>78.1</ele>
        <time>2026-05-31T08:20:29.000Z</time>
      </trkpt>
      <trkpt lat="43.75017" lon="4.13989">
        <ele>77.9</ele>
        <time>2026-05-31T08:20:30.000Z</time>
      </trkpt>
      <trkpt lat="43.75016" lon="4.1399">
        <ele>77.4</ele>
        <time>2026-05-31T08:20:31.000Z</time>
      </trkpt>
      <trkpt lat="43.75016" lon="4.13991">
        <ele>77.3</ele>
        <time>2026-05-31T08:20:32.000Z</time>
      </trkpt>
      <trkpt lat="43.75014" lon="4.13991">
        <ele>77</ele>
        <time>2026-05-31T08:20:33.000Z</time>
      </trkpt>
      <trkpt lat="43.75014" lon="4.13993">
        <ele>77.1</ele>
        <time>2026-05-31T08:20:34.000Z</time>
      </trkpt>
      <trkpt lat="43.75013" lon="4.13993">
        <ele>76.9</ele>
        <time>2026-05-31T08:20:35.000Z</time>
      </trkpt>
      <trkpt lat="43.75012" lon="4.13994">
        <ele>76.8</ele>
        <time>2026-05-31T08:20:36.000Z</time>
      </trkpt>
      <trkpt lat="43.75011" lon="4.13995">
        <ele>76.8</ele>
        <time>2026-05-31T08:20:37.000Z</time>
      </trkpt>
      <trkpt lat="43.7501" lon="4.13996">
        <ele>76.8</ele>
        <time>2026-05-31T08:20:38.000Z</time>
      </trkpt>
      <trkpt lat="43.75009" lon="4.13997">
        <ele>76.8</ele>
        <time>2026-05-31T08:20:39.000Z</time>
      </trkpt>
      <trkpt lat="43.75009" lon="4.13997">
        <ele>76.7</ele>
        <time>2026-05-31T08:20:40.000Z</time>
      </trkpt>
      <trkpt lat="43.75008" lon="4.13997">
        <ele>76.5</ele>
        <time>2026-05-31T08:20:41.000Z</time>
      </trkpt>
      <trkpt lat="43.75008" lon="4.13998">
        <ele>76</ele>
        <time>2026-05-31T08:20:42.000Z</time>
      </trkpt>
      <trkpt lat="43.75007" lon="4.13998">
        <ele>75.7</ele>
        <time>2026-05-31T08:20:43.000Z</time>
      </trkpt>
      <trkpt lat="43.75006" lon="4.13998">
        <ele>75.4</ele>
        <time>2026-05-31T08:20:44.000Z</time>
      </trkpt>
      <trkpt lat="43.75005" lon="4.14">
        <ele>74.9</ele>
        <time>2026-05-31T08:20:45.000Z</time>
      </trkpt>
      <trkpt lat="43.75004" lon="4.14001">
        <ele>74.5</ele>
        <time>2026-05-31T08:20:46.000Z</time>
      </trkpt>
      <trkpt lat="43.75003" lon="4.14003">
        <ele>74.3</ele>
        <time>2026-05-31T08:20:47.000Z</time>
      </trkpt>
      <trkpt lat="43.75002" lon="4.14003">
        <ele>74</ele>
        <time>2026-05-31T08:20:48.000Z</time>
      </trkpt>
      <trkpt lat="43.75001" lon="4.14004">
        <ele>73.8</ele>
        <time>2026-05-31T08:20:49.000Z</time>
      </trkpt>
      <trkpt lat="43.74999" lon="4.14003">
        <ele>73.7</ele>
        <time>2026-05-31T08:20:50.000Z</time>
      </trkpt>
      <trkpt lat="43.74998" lon="4.14004">
        <ele>74.3</ele>
        <time>2026-05-31T08:20:51.000Z</time>
      </trkpt>
      <trkpt lat="43.74998" lon="4.14003">
        <ele>74.4</ele>
        <time>2026-05-31T08:20:52.000Z</time>
      </trkpt>
      <trkpt lat="43.74997" lon="4.14002">
        <ele>74.8</ele>
        <time>2026-05-31T08:20:53.000Z</time>
      </trkpt>
      <trkpt lat="43.74997" lon="4.14001">
        <ele>74.8</ele>
        <time>2026-05-31T08:20:54.000Z</time>
      </trkpt>
      <trkpt lat="43.74996" lon="4.13999">
        <ele>75</ele>
        <time>2026-05-31T08:20:55.000Z</time>
      </trkpt>
      <trkpt lat="43.74995" lon="4.13997">
        <ele>75.1</ele>
        <time>2026-05-31T08:20:56.000Z</time>
      </trkpt>
      <trkpt lat="43.74995" lon="4.13996">
        <ele>75.4</ele>
        <time>2026-05-31T08:20:57.000Z</time>
      </trkpt>
      <trkpt lat="43.74994" lon="4.13994">
        <ele>75.7</ele>
        <time>2026-05-31T08:20:58.000Z</time>
      </trkpt>
      <trkpt lat="43.74993" lon="4.13992">
        <ele>75.6</ele>
        <time>2026-05-31T08:20:59.000Z</time>
      </trkpt>
      <trkpt lat="43.74993" lon="4.13991">
        <ele>75.5</ele>
        <time>2026-05-31T08:21:00.000Z</time>
      </trkpt>
      <trkpt lat="43.74992" lon="4.13989">
        <ele>75.5</ele>
        <time>2026-05-31T08:21:01.000Z</time>
      </trkpt>
      <trkpt lat="43.74992" lon="4.13988">
        <ele>75.4</ele>
        <time>2026-05-31T08:21:02.000Z</time>
      </trkpt>
      <trkpt lat="43.74992" lon="4.13986">
        <ele>75.5</ele>
        <time>2026-05-31T08:21:03.000Z</time>
      </trkpt>
      <trkpt lat="43.74992" lon="4.13984">
        <ele>75.5</ele>
        <time>2026-05-31T08:21:04.000Z</time>
      </trkpt>
      <trkpt lat="43.74991" lon="4.13983">
        <ele>75.5</ele>
        <time>2026-05-31T08:21:05.000Z</time>
      </trkpt>
      <trkpt lat="43.74989" lon="4.13983">
        <ele>75.8</ele>
        <time>2026-05-31T08:21:06.000Z</time>
      </trkpt>
      <trkpt lat="43.74987" lon="4.13982">
        <ele>76</ele>
        <time>2026-05-31T08:21:07.000Z</time>
      </trkpt>
      <trkpt lat="43.74985" lon="4.13982">
        <ele>76</ele>
        <time>2026-05-31T08:21:08.000Z</time>
      </trkpt>
      <trkpt lat="43.74983" lon="4.13981">
        <ele>76.3</ele>
        <time>2026-05-31T08:21:09.000Z</time>
      </trkpt>
      <trkpt lat="43.74981" lon="4.13981">
        <ele>76.9</ele>
        <time>2026-05-31T08:21:10.000Z</time>
      </trkpt>
      <trkpt lat="43.74979" lon="4.13979">
        <ele>77.4</ele>
        <time>2026-05-31T08:21:11.000Z</time>
      </trkpt>
      <trkpt lat="43.74978" lon="4.13979">
        <ele>78</ele>
        <time>2026-05-31T08:21:12.000Z</time>
      </trkpt>
      <trkpt lat="43.74977" lon="4.13977">
        <ele>78.7</ele>
        <time>2026-05-31T08:21:13.000Z</time>
      </trkpt>
      <trkpt lat="43.74976" lon="4.13977">
        <ele>79.1</ele>
        <time>2026-05-31T08:21:14.000Z</time>
      </trkpt>
      <trkpt lat="43.74975" lon="4.13976">
        <ele>79.5</ele>
        <time>2026-05-31T08:21:15.000Z</time>
      </trkpt>
      <trkpt lat="43.74974" lon="4.13975">
        <ele>79.5</ele>
        <time>2026-05-31T08:21:16.000Z</time>
      </trkpt>
      <trkpt lat="43.74973" lon="4.13974">
        <ele>79.5</ele>
        <time>2026-05-31T08:21:17.000Z</time>
      </trkpt>
      <trkpt lat="43.74973" lon="4.13973">
        <ele>79.2</ele>
        <time>2026-05-31T08:21:18.000Z</time>
      </trkpt>
      <trkpt lat="43.74972" lon="4.13971">
        <ele>79.2</ele>
        <time>2026-05-31T08:21:19.000Z</time>
      </trkpt>
      <trkpt lat="43.74971" lon="4.1397">
        <ele>79.3</ele>
        <time>2026-05-31T08:21:20.000Z</time>
      </trkpt>
      <trkpt lat="43.7497" lon="4.13969">
        <ele>79.5</ele>
        <time>2026-05-31T08:21:21.000Z</time>
      </trkpt>
      <trkpt lat="43.7497" lon="4.13968">
        <ele>79.6</ele>
        <time>2026-05-31T08:21:22.000Z</time>
      </trkpt>
      <trkpt lat="43.7497" lon="4.13967">
        <ele>79.7</ele>
        <time>2026-05-31T08:21:23.000Z</time>
      </trkpt>
      <trkpt lat="43.74969" lon="4.13966">
        <ele>79.6</ele>
        <time>2026-05-31T08:21:24.000Z</time>
      </trkpt>
      <trkpt lat="43.74968" lon="4.13965">
        <ele>79.9</ele>
        <time>2026-05-31T08:21:25.000Z</time>
      </trkpt>
      <trkpt lat="43.74967" lon="4.13964">
        <ele>80.3</ele>
        <time>2026-05-31T08:21:26.000Z</time>
      </trkpt>
      <trkpt lat="43.74966" lon="4.13963">
        <ele>80.4</ele>
        <time>2026-05-31T08:21:27.000Z</time>
      </trkpt>
      <trkpt lat="43.74966" lon="4.13963">
        <ele>80.3</ele>
        <time>2026-05-31T08:21:28.000Z</time>
      </trkpt>
      <trkpt lat="43.74966" lon="4.13963">
        <ele>80.2</ele>
        <time>2026-05-31T08:21:29.000Z</time>
      </trkpt>
      <trkpt lat="43.74966" lon="4.13964">
        <ele>80.2</ele>
        <time>2026-05-31T08:21:30.000Z</time>
      </trkpt>
      <trkpt lat="43.74966" lon="4.13964">
        <ele>80.8</ele>
        <time>2026-05-31T08:21:31.000Z</time>
      </trkpt>
      <trkpt lat="43.74967" lon="4.13964">
        <ele>81.1</ele>
        <time>2026-05-31T08:21:32.000Z</time>
      </trkpt>
      <trkpt lat="43.74967" lon="4.13964">
        <ele>81.3</ele>
        <time>2026-05-31T08:21:33.000Z</time>
      </trkpt>
      <trkpt lat="43.74966" lon="4.13963">
        <ele>81.4</ele>
        <time>2026-05-31T08:21:34.000Z</time>
      </trkpt>
      <trkpt lat="43.74966" lon="4.13963">
        <ele>81.7</ele>
        <time>2026-05-31T08:21:35.000Z</time>
      </trkpt>
      <trkpt lat="43.74966" lon="4.13963">
        <ele>81.8</ele>
        <time>2026-05-31T08:21:36.000Z</time>
      </trkpt>
      <trkpt lat="43.74966" lon="4.13963">
        <ele>82.1</ele>
        <time>2026-05-31T08:21:37.000Z</time>
      </trkpt>
      <trkpt lat="43.74966" lon="4.13963">
        <ele>82.4</ele>
        <time>2026-05-31T08:21:38.000Z</time>
      </trkpt>
      <trkpt lat="43.74966" lon="4.13963">
        <ele>82.6</ele>
        <time>2026-05-31T08:21:39.000Z</time>
      </trkpt>
      <trkpt lat="43.74966" lon="4.13963">
        <ele>82.8</ele>
        <time>2026-05-31T08:21:40.000Z</time>
      </trkpt>
      <trkpt lat="43.74966" lon="4.13963">
        <ele>83.1</ele>
        <time>2026-05-31T08:21:41.000Z</time>
      </trkpt>
      <trkpt lat="43.74966" lon="4.13963">
        <ele>83.2</ele>
        <time>2026-05-31T08:21:42.000Z</time>
      </trkpt>
      <trkpt lat="43.74966" lon="4.13964">
        <ele>83.5</ele>
        <time>2026-05-31T08:21:43.000Z</time>
      </trkpt>
      <trkpt lat="43.74965" lon="4.13966">
        <ele>82.9</ele>
        <time>2026-05-31T08:21:44.000Z</time>
      </trkpt>
      <trkpt lat="43.74965" lon="4.13966">
        <ele>83.2</ele>
        <time>2026-05-31T08:21:45.000Z</time>
      </trkpt>
      <trkpt lat="43.74964" lon="4.13967">
        <ele>83.1</ele>
        <time>2026-05-31T08:21:46.000Z</time>
      </trkpt>
      <trkpt lat="43.74964" lon="4.13967">
        <ele>82.1</ele>
        <time>2026-05-31T08:21:47.000Z</time>
      </trkpt>
      <trkpt lat="43.74964" lon="4.13968">
        <ele>81.6</ele>
        <time>2026-05-31T08:21:48.000Z</time>
      </trkpt>
      <trkpt lat="43.74964" lon="4.13968">
        <ele>81.4</ele>
        <time>2026-05-31T08:21:49.000Z</time>
      </trkpt>
      <trkpt lat="43.74965" lon="4.13968">
        <ele>81.5</ele>
        <time>2026-05-31T08:21:50.000Z</time>
      </trkpt>
      <trkpt lat="43.74965" lon="4.13968">
        <ele>81.8</ele>
        <time>2026-05-31T08:21:51.000Z</time>
      </trkpt>
      <trkpt lat="43.74965" lon="4.13969">
        <ele>82.2</ele>
        <time>2026-05-31T08:21:52.000Z</time>
      </trkpt>
      <trkpt lat="43.74965" lon="4.13969">
        <ele>82.2</ele>
        <time>2026-05-31T08:21:53.000Z</time>
      </trkpt>
      <trkpt lat="43.74965" lon="4.13969">
        <ele>82.3</ele>
        <time>2026-05-31T08:21:54.000Z</time>
      </trkpt>
      <trkpt lat="43.74965" lon="4.13969">
        <ele>82.3</ele>
        <time>2026-05-31T08:21:55.000Z</time>
      </trkpt>
      <trkpt lat="43.74965" lon="4.13969">
        <ele>82.2</ele>
        <time>2026-05-31T08:21:56.000Z</time>
      </trkpt>
      <trkpt lat="43.74965" lon="4.13969">
        <ele>82</ele>
        <time>2026-05-31T08:21:57.000Z</time>
      </trkpt>
      <trkpt lat="43.74964" lon="4.13969">
        <ele>81.7</ele>
        <time>2026-05-31T08:21:58.000Z</time>
      </trkpt>
      <trkpt lat="43.74964" lon="4.13969">
        <ele>81.5</ele>
        <time>2026-05-31T08:21:59.000Z</time>
      </trkpt>
      <trkpt lat="43.74964" lon="4.13969">
        <ele>81.4</ele>
        <time>2026-05-31T08:22:00.000Z</time>
      </trkpt>
      <trkpt lat="43.74964" lon="4.13969">
        <ele>81.3</ele>
        <time>2026-05-31T08:22:01.000Z</time>
      </trkpt>
      <trkpt lat="43.74964" lon="4.13969">
        <ele>81</ele>
        <time>2026-05-31T08:22:02.000Z</time>
      </trkpt>
      <trkpt lat="43.74964" lon="4.13969">
        <ele>80.9</ele>
        <time>2026-05-31T08:22:03.000Z</time>
      </trkpt>
      <trkpt lat="43.74964" lon="4.13969">
        <ele>80.8</ele>
        <time>2026-05-31T08:22:04.000Z</time>
      </trkpt>
      <trkpt lat="43.74964" lon="4.13969">
        <ele>80.8</ele>
        <time>2026-05-31T08:22:05.000Z</time>
      </trkpt>
      <trkpt lat="43.74964" lon="4.13969">
        <ele>80.9</ele>
        <time>2026-05-31T08:22:06.000Z</time>
      </trkpt>
      <trkpt lat="43.74964" lon="4.13969">
        <ele>80.8</ele>
        <time>2026-05-31T08:22:07.000Z</time>
      </trkpt>
      <trkpt lat="43.74964" lon="4.13968">
        <ele>80.8</ele>
        <time>2026-05-31T08:22:08.000Z</time>
      </trkpt>
      <trkpt lat="43.74964" lon="4.13968">
        <ele>80.7</ele>
        <time>2026-05-31T08:22:09.000Z</time>
      </trkpt>
      <trkpt lat="43.74964" lon="4.13968">
        <ele>80.7</ele>
        <time>2026-05-31T08:22:10.000Z</time>
      </trkpt>
      <trkpt lat="43.74964" lon="4.13968">
        <ele>80.9</ele>
        <time>2026-05-31T08:22:11.000Z</time>
      </trkpt>
    </trkseg>
  </trk>
</gpx>